<?xml version="1.0" encoding="UTF-8" standalone="no" ?>
<gpx xmlns="http://www.topografix.com/GPX/1/1" xmlns:xsi="http://www.w3.org/2001/XMLSchema-instance" xsi:schemaLocation="http://www.topografix.com/GPX/1/1 http://www.topografix.com/GPX/1/1/gpx.xsd" version="1.1" creator="VisuGPX - https://www.visugpx.com">
  <metadata>
    <name>OC GIF VTT - 22/08/2026 / Le Hézo - Noyalo - Theix - St Léonard - Vannes - Conleau / Séné - St Armel</name>
    <desc><![CDATA[Sortie avec mon petit fil de 10 ans]]></desc>
  </metadata>
  <trk>
    <name><![CDATA[OC GIF VTT - 22/08/2026 / Le Hézo - Noyalo - Theix - St Léonard - Vannes - Conleau / Séné - St Armel_1]]></name>
    <trkseg>
      <trkpt lat="47.56557" lon="-2.72428">
        <ele>5</ele>
        <time>2026-08-22T11:52:34Z</time>
      </trkpt>
      <trkpt lat="47.56559" lon="-2.72427">
        <ele>4.9</ele>
        <time>2026-08-22T11:52:35Z</time>
      </trkpt>
      <trkpt lat="47.56566" lon="-2.72436">
        <ele>4.9</ele>
        <time>2026-08-22T11:53:22Z</time>
      </trkpt>
      <trkpt lat="47.56567" lon="-2.72438">
        <ele>4.9</ele>
        <time>2026-08-22T11:53:23Z</time>
      </trkpt>
      <trkpt lat="47.56567" lon="-2.7244">
        <ele>4.9</ele>
        <time>2026-08-22T11:53:24Z</time>
      </trkpt>
      <trkpt lat="47.56568" lon="-2.72442">
        <ele>5</ele>
        <time>2026-08-22T11:53:25Z</time>
      </trkpt>
      <trkpt lat="47.56568" lon="-2.72444">
        <ele>5</ele>
        <time>2026-08-22T11:53:26Z</time>
      </trkpt>
      <trkpt lat="47.56566" lon="-2.72446">
        <ele>5</ele>
        <time>2026-08-22T11:53:27Z</time>
      </trkpt>
      <trkpt lat="47.56565" lon="-2.72447">
        <ele>5</ele>
        <time>2026-08-22T11:53:28Z</time>
      </trkpt>
      <trkpt lat="47.56563" lon="-2.72449">
        <ele>5</ele>
        <time>2026-08-22T11:53:29Z</time>
      </trkpt>
      <trkpt lat="47.56562" lon="-2.7245">
        <ele>5</ele>
        <time>2026-08-22T11:53:30Z</time>
      </trkpt>
      <trkpt lat="47.56559" lon="-2.72451">
        <ele>5</ele>
        <time>2026-08-22T11:53:31Z</time>
      </trkpt>
      <trkpt lat="47.56557" lon="-2.72452">
        <ele>5</ele>
        <time>2026-08-22T11:53:32Z</time>
      </trkpt>
      <trkpt lat="47.56555" lon="-2.72452">
        <ele>5</ele>
        <time>2026-08-22T11:53:33Z</time>
      </trkpt>
      <trkpt lat="47.56553" lon="-2.72451">
        <ele>5</ele>
        <time>2026-08-22T11:53:34Z</time>
      </trkpt>
      <trkpt lat="47.56551" lon="-2.7245">
        <ele>5</ele>
        <time>2026-08-22T11:53:35Z</time>
      </trkpt>
      <trkpt lat="47.56549" lon="-2.72448">
        <ele>5</ele>
        <time>2026-08-22T11:53:36Z</time>
      </trkpt>
      <trkpt lat="47.56546" lon="-2.72446">
        <ele>5</ele>
        <time>2026-08-22T11:53:37Z</time>
      </trkpt>
      <trkpt lat="47.56543" lon="-2.72444">
        <ele>5</ele>
        <time>2026-08-22T11:53:38Z</time>
      </trkpt>
      <trkpt lat="47.5654" lon="-2.72443">
        <ele>5</ele>
        <time>2026-08-22T11:53:39Z</time>
      </trkpt>
      <trkpt lat="47.56536" lon="-2.72443">
        <ele>5</ele>
        <time>2026-08-22T11:53:40Z</time>
      </trkpt>
      <trkpt lat="47.56532" lon="-2.72444">
        <ele>5</ele>
        <time>2026-08-22T11:53:41Z</time>
      </trkpt>
      <trkpt lat="47.56529" lon="-2.72445">
        <ele>5</ele>
        <time>2026-08-22T11:53:42Z</time>
      </trkpt>
      <trkpt lat="47.56525" lon="-2.72446">
        <ele>5</ele>
        <time>2026-08-22T11:53:43Z</time>
      </trkpt>
      <trkpt lat="47.56522" lon="-2.72447">
        <ele>5</ele>
        <time>2026-08-22T11:53:44Z</time>
      </trkpt>
      <trkpt lat="47.56518" lon="-2.72448">
        <ele>5</ele>
        <time>2026-08-22T11:53:45Z</time>
      </trkpt>
      <trkpt lat="47.56514" lon="-2.7245">
        <ele>5</ele>
        <time>2026-08-22T11:53:46Z</time>
      </trkpt>
      <trkpt lat="47.56511" lon="-2.72451">
        <ele>5</ele>
        <time>2026-08-22T11:53:47Z</time>
      </trkpt>
      <trkpt lat="47.56507" lon="-2.72452">
        <ele>5</ele>
        <time>2026-08-22T11:53:48Z</time>
      </trkpt>
      <trkpt lat="47.56503" lon="-2.72453">
        <ele>5</ele>
        <time>2026-08-22T11:53:49Z</time>
      </trkpt>
      <trkpt lat="47.56499" lon="-2.72454">
        <ele>5</ele>
        <time>2026-08-22T11:53:50Z</time>
      </trkpt>
      <trkpt lat="47.56496" lon="-2.72455">
        <ele>4.9</ele>
        <time>2026-08-22T11:53:51Z</time>
      </trkpt>
      <trkpt lat="47.56492" lon="-2.72456">
        <ele>4.8</ele>
        <time>2026-08-22T11:53:52Z</time>
      </trkpt>
      <trkpt lat="47.56489" lon="-2.72457">
        <ele>4.8</ele>
        <time>2026-08-22T11:53:53Z</time>
      </trkpt>
      <trkpt lat="47.56486" lon="-2.72459">
        <ele>4.8</ele>
        <time>2026-08-22T11:53:54Z</time>
      </trkpt>
      <trkpt lat="47.56482" lon="-2.7246">
        <ele>4.7</ele>
        <time>2026-08-22T11:53:55Z</time>
      </trkpt>
      <trkpt lat="47.56479" lon="-2.7246">
        <ele>4.7</ele>
        <time>2026-08-22T11:53:56Z</time>
      </trkpt>
      <trkpt lat="47.56476" lon="-2.72461">
        <ele>4.7</ele>
        <time>2026-08-22T11:53:57Z</time>
      </trkpt>
      <trkpt lat="47.56472" lon="-2.72462">
        <ele>4.6</ele>
        <time>2026-08-22T11:53:58Z</time>
      </trkpt>
      <trkpt lat="47.56468" lon="-2.72462">
        <ele>4.5</ele>
        <time>2026-08-22T11:53:59Z</time>
      </trkpt>
      <trkpt lat="47.56465" lon="-2.72461">
        <ele>4.3</ele>
        <time>2026-08-22T11:54:00Z</time>
      </trkpt>
      <trkpt lat="47.56461" lon="-2.72459">
        <ele>4.1</ele>
        <time>2026-08-22T11:54:01Z</time>
      </trkpt>
      <trkpt lat="47.56458" lon="-2.72456">
        <ele>3.9</ele>
        <time>2026-08-22T11:54:02Z</time>
      </trkpt>
      <trkpt lat="47.56455" lon="-2.72452">
        <ele>3.7</ele>
        <time>2026-08-22T11:54:03Z</time>
      </trkpt>
      <trkpt lat="47.56453" lon="-2.72447">
        <ele>3.4</ele>
        <time>2026-08-22T11:54:04Z</time>
      </trkpt>
      <trkpt lat="47.5645" lon="-2.72442">
        <ele>3.2</ele>
        <time>2026-08-22T11:54:05Z</time>
      </trkpt>
      <trkpt lat="47.56448" lon="-2.72436">
        <ele>3.1</ele>
        <time>2026-08-22T11:54:06Z</time>
      </trkpt>
      <trkpt lat="47.56446" lon="-2.72431">
        <ele>3.1</ele>
        <time>2026-08-22T11:54:07Z</time>
      </trkpt>
      <trkpt lat="47.56443" lon="-2.72425">
        <ele>3</ele>
        <time>2026-08-22T11:54:08Z</time>
      </trkpt>
      <trkpt lat="47.56441" lon="-2.72419">
        <ele>2.9</ele>
        <time>2026-08-22T11:54:09Z</time>
      </trkpt>
      <trkpt lat="47.56439" lon="-2.72413">
        <ele>2.8</ele>
        <time>2026-08-22T11:54:10Z</time>
      </trkpt>
      <trkpt lat="47.56438" lon="-2.72407">
        <ele>2.8</ele>
        <time>2026-08-22T11:54:11Z</time>
      </trkpt>
      <trkpt lat="47.56436" lon="-2.72401">
        <ele>2.9</ele>
        <time>2026-08-22T11:54:12Z</time>
      </trkpt>
      <trkpt lat="47.56434" lon="-2.72396">
        <ele>2.9</ele>
        <time>2026-08-22T11:54:13Z</time>
      </trkpt>
      <trkpt lat="47.56431" lon="-2.72391">
        <ele>3</ele>
        <time>2026-08-22T11:54:14Z</time>
      </trkpt>
      <trkpt lat="47.56428" lon="-2.72387">
        <ele>3</ele>
        <time>2026-08-22T11:54:15Z</time>
      </trkpt>
      <trkpt lat="47.56425" lon="-2.72384">
        <ele>3</ele>
        <time>2026-08-22T11:54:16Z</time>
      </trkpt>
      <trkpt lat="47.56421" lon="-2.72382">
        <ele>3</ele>
        <time>2026-08-22T11:54:17Z</time>
      </trkpt>
      <trkpt lat="47.56417" lon="-2.72383">
        <ele>3</ele>
        <time>2026-08-22T11:54:18Z</time>
      </trkpt>
      <trkpt lat="47.56413" lon="-2.72383">
        <ele>3</ele>
        <time>2026-08-22T11:54:19Z</time>
      </trkpt>
      <trkpt lat="47.56408" lon="-2.72383">
        <ele>2.9</ele>
        <time>2026-08-22T11:54:20Z</time>
      </trkpt>
      <trkpt lat="47.56404" lon="-2.72382">
        <ele>2.9</ele>
        <time>2026-08-22T11:54:21Z</time>
      </trkpt>
      <trkpt lat="47.564" lon="-2.72381">
        <ele>2.8</ele>
        <time>2026-08-22T11:54:22Z</time>
      </trkpt>
      <trkpt lat="47.56397" lon="-2.72379">
        <ele>2.7</ele>
        <time>2026-08-22T11:54:23Z</time>
      </trkpt>
      <trkpt lat="47.56394" lon="-2.72376">
        <ele>2.6</ele>
        <time>2026-08-22T11:54:24Z</time>
      </trkpt>
      <trkpt lat="47.56391" lon="-2.72372">
        <ele>2.4</ele>
        <time>2026-08-22T11:54:25Z</time>
      </trkpt>
      <trkpt lat="47.56389" lon="-2.72368">
        <ele>2.3</ele>
        <time>2026-08-22T11:54:26Z</time>
      </trkpt>
      <trkpt lat="47.56388" lon="-2.72363">
        <ele>2.1</ele>
        <time>2026-08-22T11:54:27Z</time>
      </trkpt>
      <trkpt lat="47.56387" lon="-2.72357">
        <ele>2.1</ele>
        <time>2026-08-22T11:54:28Z</time>
      </trkpt>
      <trkpt lat="47.56386" lon="-2.72352">
        <ele>2.1</ele>
        <time>2026-08-22T11:54:29Z</time>
      </trkpt>
      <trkpt lat="47.56386" lon="-2.72347">
        <ele>2.1</ele>
        <time>2026-08-22T11:54:30Z</time>
      </trkpt>
      <trkpt lat="47.56385" lon="-2.72341">
        <ele>2</ele>
        <time>2026-08-22T11:54:31Z</time>
      </trkpt>
      <trkpt lat="47.56384" lon="-2.72336">
        <ele>2</ele>
        <time>2026-08-22T11:54:32Z</time>
      </trkpt>
      <trkpt lat="47.56384" lon="-2.72331">
        <ele>2</ele>
        <time>2026-08-22T11:54:33Z</time>
      </trkpt>
      <trkpt lat="47.56384" lon="-2.72325">
        <ele>2</ele>
        <time>2026-08-22T11:54:34Z</time>
      </trkpt>
      <trkpt lat="47.56383" lon="-2.7232">
        <ele>2</ele>
        <time>2026-08-22T11:54:35Z</time>
      </trkpt>
      <trkpt lat="47.56383" lon="-2.72314">
        <ele>2</ele>
        <time>2026-08-22T11:54:36Z</time>
      </trkpt>
      <trkpt lat="47.56383" lon="-2.72309">
        <ele>2</ele>
        <time>2026-08-22T11:54:37Z</time>
      </trkpt>
      <trkpt lat="47.56382" lon="-2.72304">
        <ele>2</ele>
        <time>2026-08-22T11:54:38Z</time>
      </trkpt>
      <trkpt lat="47.56382" lon="-2.72298">
        <ele>2.2</ele>
        <time>2026-08-22T11:54:39Z</time>
      </trkpt>
      <trkpt lat="47.56381" lon="-2.72292">
        <ele>2.3</ele>
        <time>2026-08-22T11:54:40Z</time>
      </trkpt>
      <trkpt lat="47.5638" lon="-2.72287">
        <ele>2.5</ele>
        <time>2026-08-22T11:54:41Z</time>
      </trkpt>
      <trkpt lat="47.56379" lon="-2.72282">
        <ele>2.5</ele>
        <time>2026-08-22T11:54:42Z</time>
      </trkpt>
      <trkpt lat="47.56378" lon="-2.72276">
        <ele>2.6</ele>
        <time>2026-08-22T11:54:43Z</time>
      </trkpt>
      <trkpt lat="47.56377" lon="-2.72271">
        <ele>2.6</ele>
        <time>2026-08-22T11:54:44Z</time>
      </trkpt>
      <trkpt lat="47.56376" lon="-2.72266">
        <ele>2.5</ele>
        <time>2026-08-22T11:54:45Z</time>
      </trkpt>
      <trkpt lat="47.56375" lon="-2.72261">
        <ele>2.5</ele>
        <time>2026-08-22T11:54:46Z</time>
      </trkpt>
      <trkpt lat="47.56374" lon="-2.72255">
        <ele>2.5</ele>
        <time>2026-08-22T11:54:47Z</time>
      </trkpt>
      <trkpt lat="47.56373" lon="-2.72249">
        <ele>2.4</ele>
        <time>2026-08-22T11:54:48Z</time>
      </trkpt>
      <trkpt lat="47.56372" lon="-2.72244">
        <ele>2.5</ele>
        <time>2026-08-22T11:54:49Z</time>
      </trkpt>
      <trkpt lat="47.5637" lon="-2.72238">
        <ele>2.6</ele>
        <time>2026-08-22T11:54:50Z</time>
      </trkpt>
      <trkpt lat="47.56369" lon="-2.72232">
        <ele>2.7</ele>
        <time>2026-08-22T11:54:51Z</time>
      </trkpt>
      <trkpt lat="47.56369" lon="-2.72227">
        <ele>2.9</ele>
        <time>2026-08-22T11:54:52Z</time>
      </trkpt>
      <trkpt lat="47.56369" lon="-2.72221">
        <ele>3</ele>
        <time>2026-08-22T11:54:53Z</time>
      </trkpt>
      <trkpt lat="47.56368" lon="-2.72217">
        <ele>3</ele>
        <time>2026-08-22T11:54:54Z</time>
      </trkpt>
      <trkpt lat="47.56368" lon="-2.72212">
        <ele>3.1</ele>
        <time>2026-08-22T11:54:55Z</time>
      </trkpt>
      <trkpt lat="47.56368" lon="-2.72207">
        <ele>3.1</ele>
        <time>2026-08-22T11:54:56Z</time>
      </trkpt>
      <trkpt lat="47.56368" lon="-2.72202">
        <ele>3.2</ele>
        <time>2026-08-22T11:54:57Z</time>
      </trkpt>
      <trkpt lat="47.56369" lon="-2.72196">
        <ele>3.3</ele>
        <time>2026-08-22T11:54:58Z</time>
      </trkpt>
      <trkpt lat="47.56369" lon="-2.72191">
        <ele>3.3</ele>
        <time>2026-08-22T11:54:59Z</time>
      </trkpt>
      <trkpt lat="47.56369" lon="-2.72186">
        <ele>3.3</ele>
        <time>2026-08-22T11:55:00Z</time>
      </trkpt>
      <trkpt lat="47.56369" lon="-2.72181">
        <ele>3.3</ele>
        <time>2026-08-22T11:55:01Z</time>
      </trkpt>
      <trkpt lat="47.5637" lon="-2.72177">
        <ele>3.3</ele>
        <time>2026-08-22T11:55:02Z</time>
      </trkpt>
      <trkpt lat="47.5637" lon="-2.72172">
        <ele>3.3</ele>
        <time>2026-08-22T11:55:03Z</time>
      </trkpt>
      <trkpt lat="47.5637" lon="-2.72167">
        <ele>3.3</ele>
        <time>2026-08-22T11:55:04Z</time>
      </trkpt>
      <trkpt lat="47.56371" lon="-2.72163">
        <ele>3.4</ele>
        <time>2026-08-22T11:55:05Z</time>
      </trkpt>
      <trkpt lat="47.56371" lon="-2.72158">
        <ele>3.6</ele>
        <time>2026-08-22T11:55:06Z</time>
      </trkpt>
      <trkpt lat="47.56371" lon="-2.72154">
        <ele>3.6</ele>
        <time>2026-08-22T11:55:07Z</time>
      </trkpt>
      <trkpt lat="47.56372" lon="-2.7215">
        <ele>3.8</ele>
        <time>2026-08-22T11:55:08Z</time>
      </trkpt>
      <trkpt lat="47.56373" lon="-2.72145">
        <ele>3.9</ele>
        <time>2026-08-22T11:55:09Z</time>
      </trkpt>
      <trkpt lat="47.56374" lon="-2.72141">
        <ele>4</ele>
        <time>2026-08-22T11:55:10Z</time>
      </trkpt>
      <trkpt lat="47.56375" lon="-2.72137">
        <ele>4</ele>
        <time>2026-08-22T11:55:11Z</time>
      </trkpt>
      <trkpt lat="47.56376" lon="-2.72133">
        <ele>4</ele>
        <time>2026-08-22T11:55:12Z</time>
      </trkpt>
      <trkpt lat="47.56377" lon="-2.7213">
        <ele>4</ele>
        <time>2026-08-22T11:55:13Z</time>
      </trkpt>
      <trkpt lat="47.56379" lon="-2.72126">
        <ele>4</ele>
        <time>2026-08-22T11:55:14Z</time>
      </trkpt>
      <trkpt lat="47.5638" lon="-2.72121">
        <ele>4</ele>
        <time>2026-08-22T11:55:15Z</time>
      </trkpt>
      <trkpt lat="47.56381" lon="-2.72116">
        <ele>4</ele>
        <time>2026-08-22T11:55:16Z</time>
      </trkpt>
      <trkpt lat="47.56383" lon="-2.72112">
        <ele>4</ele>
        <time>2026-08-22T11:55:17Z</time>
      </trkpt>
      <trkpt lat="47.56385" lon="-2.72107">
        <ele>4</ele>
        <time>2026-08-22T11:55:18Z</time>
      </trkpt>
      <trkpt lat="47.56387" lon="-2.72101">
        <ele>4</ele>
        <time>2026-08-22T11:55:19Z</time>
      </trkpt>
      <trkpt lat="47.56388" lon="-2.72097">
        <ele>4</ele>
        <time>2026-08-22T11:55:20Z</time>
      </trkpt>
      <trkpt lat="47.56389" lon="-2.72092">
        <ele>4</ele>
        <time>2026-08-22T11:55:21Z</time>
      </trkpt>
      <trkpt lat="47.56391" lon="-2.72087">
        <ele>4</ele>
        <time>2026-08-22T11:55:22Z</time>
      </trkpt>
      <trkpt lat="47.56393" lon="-2.72082">
        <ele>4</ele>
        <time>2026-08-22T11:55:23Z</time>
      </trkpt>
      <trkpt lat="47.56394" lon="-2.72077">
        <ele>4</ele>
        <time>2026-08-22T11:55:24Z</time>
      </trkpt>
      <trkpt lat="47.56396" lon="-2.72073">
        <ele>4.1</ele>
        <time>2026-08-22T11:55:25Z</time>
      </trkpt>
      <trkpt lat="47.56397" lon="-2.72068">
        <ele>4.2</ele>
        <time>2026-08-22T11:55:26Z</time>
      </trkpt>
      <trkpt lat="47.56398" lon="-2.72063">
        <ele>4.2</ele>
        <time>2026-08-22T11:55:27Z</time>
      </trkpt>
      <trkpt lat="47.564" lon="-2.72059">
        <ele>4.4</ele>
        <time>2026-08-22T11:55:28Z</time>
      </trkpt>
      <trkpt lat="47.56401" lon="-2.72055">
        <ele>4.4</ele>
        <time>2026-08-22T11:55:29Z</time>
      </trkpt>
      <trkpt lat="47.56402" lon="-2.72052">
        <ele>4.5</ele>
        <time>2026-08-22T11:55:30Z</time>
      </trkpt>
      <trkpt lat="47.56402" lon="-2.72048">
        <ele>4.6</ele>
        <time>2026-08-22T11:55:31Z</time>
      </trkpt>
      <trkpt lat="47.56403" lon="-2.72044">
        <ele>4.7</ele>
        <time>2026-08-22T11:55:32Z</time>
      </trkpt>
      <trkpt lat="47.56404" lon="-2.7204">
        <ele>4.8</ele>
        <time>2026-08-22T11:55:33Z</time>
      </trkpt>
      <trkpt lat="47.56405" lon="-2.72036">
        <ele>4.9</ele>
        <time>2026-08-22T11:55:34Z</time>
      </trkpt>
      <trkpt lat="47.56406" lon="-2.72031">
        <ele>5</ele>
        <time>2026-08-22T11:55:35Z</time>
      </trkpt>
      <trkpt lat="47.56407" lon="-2.72026">
        <ele>5</ele>
        <time>2026-08-22T11:55:36Z</time>
      </trkpt>
      <trkpt lat="47.56408" lon="-2.72021">
        <ele>5.2</ele>
        <time>2026-08-22T11:55:37Z</time>
      </trkpt>
      <trkpt lat="47.56408" lon="-2.72017">
        <ele>5.2</ele>
        <time>2026-08-22T11:55:38Z</time>
      </trkpt>
      <trkpt lat="47.56408" lon="-2.72012">
        <ele>5.4</ele>
        <time>2026-08-22T11:55:39Z</time>
      </trkpt>
      <trkpt lat="47.56408" lon="-2.72007">
        <ele>5.5</ele>
        <time>2026-08-22T11:55:40Z</time>
      </trkpt>
      <trkpt lat="47.56408" lon="-2.72003">
        <ele>5.6</ele>
        <time>2026-08-22T11:55:41Z</time>
      </trkpt>
      <trkpt lat="47.56408" lon="-2.71999">
        <ele>5.7</ele>
        <time>2026-08-22T11:55:42Z</time>
      </trkpt>
      <trkpt lat="47.56408" lon="-2.71995">
        <ele>5.9</ele>
        <time>2026-08-22T11:55:43Z</time>
      </trkpt>
      <trkpt lat="47.56407" lon="-2.71992">
        <ele>6.1</ele>
        <time>2026-08-22T11:55:44Z</time>
      </trkpt>
      <trkpt lat="47.56407" lon="-2.71988">
        <ele>6.3</ele>
        <time>2026-08-22T11:55:45Z</time>
      </trkpt>
      <trkpt lat="47.56407" lon="-2.71984">
        <ele>6.4</ele>
        <time>2026-08-22T11:55:46Z</time>
      </trkpt>
      <trkpt lat="47.56407" lon="-2.71981">
        <ele>6.6</ele>
        <time>2026-08-22T11:55:47Z</time>
      </trkpt>
      <trkpt lat="47.56407" lon="-2.71978">
        <ele>6.7</ele>
        <time>2026-08-22T11:55:48Z</time>
      </trkpt>
      <trkpt lat="47.56408" lon="-2.71974">
        <ele>6.9</ele>
        <time>2026-08-22T11:55:49Z</time>
      </trkpt>
      <trkpt lat="47.56408" lon="-2.7197">
        <ele>7.1</ele>
        <time>2026-08-22T11:55:50Z</time>
      </trkpt>
      <trkpt lat="47.56408" lon="-2.71967">
        <ele>7.2</ele>
        <time>2026-08-22T11:55:51Z</time>
      </trkpt>
      <trkpt lat="47.56408" lon="-2.71963">
        <ele>7.3</ele>
        <time>2026-08-22T11:55:52Z</time>
      </trkpt>
      <trkpt lat="47.56408" lon="-2.7196">
        <ele>7.4</ele>
        <time>2026-08-22T11:55:53Z</time>
      </trkpt>
      <trkpt lat="47.56408" lon="-2.71957">
        <ele>7.5</ele>
        <time>2026-08-22T11:55:54Z</time>
      </trkpt>
      <trkpt lat="47.56408" lon="-2.71954">
        <ele>7.7</ele>
        <time>2026-08-22T11:55:55Z</time>
      </trkpt>
      <trkpt lat="47.56408" lon="-2.7195">
        <ele>7.8</ele>
        <time>2026-08-22T11:55:56Z</time>
      </trkpt>
      <trkpt lat="47.56408" lon="-2.71947">
        <ele>7.9</ele>
        <time>2026-08-22T11:55:57Z</time>
      </trkpt>
      <trkpt lat="47.56408" lon="-2.71944">
        <ele>8</ele>
        <time>2026-08-22T11:55:58Z</time>
      </trkpt>
      <trkpt lat="47.56408" lon="-2.71941">
        <ele>8.2</ele>
        <time>2026-08-22T11:55:59Z</time>
      </trkpt>
      <trkpt lat="47.56408" lon="-2.71938">
        <ele>8.5</ele>
        <time>2026-08-22T11:56:00Z</time>
      </trkpt>
      <trkpt lat="47.56409" lon="-2.71935">
        <ele>8.7</ele>
        <time>2026-08-22T11:56:01Z</time>
      </trkpt>
      <trkpt lat="47.56409" lon="-2.71932">
        <ele>8.9</ele>
        <time>2026-08-22T11:56:02Z</time>
      </trkpt>
      <trkpt lat="47.56409" lon="-2.71929">
        <ele>9.1</ele>
        <time>2026-08-22T11:56:03Z</time>
      </trkpt>
      <trkpt lat="47.56408" lon="-2.71926">
        <ele>9.3</ele>
        <time>2026-08-22T11:56:04Z</time>
      </trkpt>
      <trkpt lat="47.56408" lon="-2.71922">
        <ele>9.6</ele>
        <time>2026-08-22T11:56:05Z</time>
      </trkpt>
      <trkpt lat="47.56408" lon="-2.71919">
        <ele>9.8</ele>
        <time>2026-08-22T11:56:06Z</time>
      </trkpt>
      <trkpt lat="47.56408" lon="-2.71916">
        <ele>10</ele>
        <time>2026-08-22T11:56:07Z</time>
      </trkpt>
      <trkpt lat="47.56408" lon="-2.71913">
        <ele>10.2</ele>
        <time>2026-08-22T11:56:08Z</time>
      </trkpt>
      <trkpt lat="47.56408" lon="-2.7191">
        <ele>10.3</ele>
        <time>2026-08-22T11:56:09Z</time>
      </trkpt>
      <trkpt lat="47.56408" lon="-2.71907">
        <ele>10.5</ele>
        <time>2026-08-22T11:56:10Z</time>
      </trkpt>
      <trkpt lat="47.56408" lon="-2.71904">
        <ele>10.6</ele>
        <time>2026-08-22T11:56:11Z</time>
      </trkpt>
      <trkpt lat="47.56408" lon="-2.71901">
        <ele>10.7</ele>
        <time>2026-08-22T11:56:12Z</time>
      </trkpt>
      <trkpt lat="47.56409" lon="-2.71899">
        <ele>10.8</ele>
        <time>2026-08-22T11:56:13Z</time>
      </trkpt>
      <trkpt lat="47.5641" lon="-2.71896">
        <ele>10.9</ele>
        <time>2026-08-22T11:56:14Z</time>
      </trkpt>
      <trkpt lat="47.5641" lon="-2.71893">
        <ele>11.1</ele>
        <time>2026-08-22T11:56:15Z</time>
      </trkpt>
      <trkpt lat="47.56411" lon="-2.71889">
        <ele>11.2</ele>
        <time>2026-08-22T11:56:16Z</time>
      </trkpt>
      <trkpt lat="47.56412" lon="-2.71886">
        <ele>11.2</ele>
        <time>2026-08-22T11:56:17Z</time>
      </trkpt>
      <trkpt lat="47.56412" lon="-2.71883">
        <ele>11.2</ele>
        <time>2026-08-22T11:56:18Z</time>
      </trkpt>
      <trkpt lat="47.56413" lon="-2.71881">
        <ele>11.1</ele>
        <time>2026-08-22T11:56:19Z</time>
      </trkpt>
      <trkpt lat="47.56414" lon="-2.71878">
        <ele>11.1</ele>
        <time>2026-08-22T11:56:20Z</time>
      </trkpt>
      <trkpt lat="47.56414" lon="-2.71876">
        <ele>11.1</ele>
        <time>2026-08-22T11:56:21Z</time>
      </trkpt>
      <trkpt lat="47.56415" lon="-2.71873">
        <ele>11.1</ele>
        <time>2026-08-22T11:56:22Z</time>
      </trkpt>
      <trkpt lat="47.56415" lon="-2.7187">
        <ele>11.1</ele>
        <time>2026-08-22T11:56:23Z</time>
      </trkpt>
      <trkpt lat="47.56415" lon="-2.71867">
        <ele>11.1</ele>
        <time>2026-08-22T11:56:24Z</time>
      </trkpt>
      <trkpt lat="47.56416" lon="-2.71865">
        <ele>11</ele>
        <time>2026-08-22T11:56:25Z</time>
      </trkpt>
      <trkpt lat="47.56417" lon="-2.71862">
        <ele>11</ele>
        <time>2026-08-22T11:56:26Z</time>
      </trkpt>
      <trkpt lat="47.56418" lon="-2.7186">
        <ele>11</ele>
        <time>2026-08-22T11:56:27Z</time>
      </trkpt>
      <trkpt lat="47.5642" lon="-2.71858">
        <ele>11.1</ele>
        <time>2026-08-22T11:56:28Z</time>
      </trkpt>
      <trkpt lat="47.56421" lon="-2.71857">
        <ele>11.1</ele>
        <time>2026-08-22T11:56:29Z</time>
      </trkpt>
      <trkpt lat="47.56423" lon="-2.71856">
        <ele>11.2</ele>
        <time>2026-08-22T11:56:30Z</time>
      </trkpt>
      <trkpt lat="47.56426" lon="-2.71855">
        <ele>11.2</ele>
        <time>2026-08-22T11:56:31Z</time>
      </trkpt>
      <trkpt lat="47.56428" lon="-2.71854">
        <ele>11.3</ele>
        <time>2026-08-22T11:56:32Z</time>
      </trkpt>
      <trkpt lat="47.5643" lon="-2.71853">
        <ele>11.3</ele>
        <time>2026-08-22T11:56:33Z</time>
      </trkpt>
      <trkpt lat="47.56432" lon="-2.71851">
        <ele>11.4</ele>
        <time>2026-08-22T11:56:34Z</time>
      </trkpt>
      <trkpt lat="47.56434" lon="-2.71849">
        <ele>11.4</ele>
        <time>2026-08-22T11:56:35Z</time>
      </trkpt>
      <trkpt lat="47.56436" lon="-2.71846">
        <ele>11.5</ele>
        <time>2026-08-22T11:56:36Z</time>
      </trkpt>
      <trkpt lat="47.56437" lon="-2.71843">
        <ele>11.7</ele>
        <time>2026-08-22T11:56:37Z</time>
      </trkpt>
      <trkpt lat="47.56437" lon="-2.71839">
        <ele>11.8</ele>
        <time>2026-08-22T11:56:38Z</time>
      </trkpt>
      <trkpt lat="47.56437" lon="-2.71834">
        <ele>12</ele>
        <time>2026-08-22T11:56:39Z</time>
      </trkpt>
      <trkpt lat="47.56436" lon="-2.7183">
        <ele>12</ele>
        <time>2026-08-22T11:56:40Z</time>
      </trkpt>
      <trkpt lat="47.56435" lon="-2.71826">
        <ele>12</ele>
        <time>2026-08-22T11:56:41Z</time>
      </trkpt>
      <trkpt lat="47.56433" lon="-2.71822">
        <ele>12</ele>
        <time>2026-08-22T11:56:42Z</time>
      </trkpt>
      <trkpt lat="47.56432" lon="-2.71819">
        <ele>12</ele>
        <time>2026-08-22T11:56:43Z</time>
      </trkpt>
      <trkpt lat="47.5643" lon="-2.71815">
        <ele>12</ele>
        <time>2026-08-22T11:56:44Z</time>
      </trkpt>
      <trkpt lat="47.56428" lon="-2.71811">
        <ele>12</ele>
        <time>2026-08-22T11:56:45Z</time>
      </trkpt>
      <trkpt lat="47.56426" lon="-2.71807">
        <ele>12</ele>
        <time>2026-08-22T11:56:46Z</time>
      </trkpt>
      <trkpt lat="47.56424" lon="-2.71803">
        <ele>12</ele>
        <time>2026-08-22T11:56:47Z</time>
      </trkpt>
      <trkpt lat="47.56422" lon="-2.718">
        <ele>12</ele>
        <time>2026-08-22T11:56:48Z</time>
      </trkpt>
      <trkpt lat="47.5642" lon="-2.71796">
        <ele>12</ele>
        <time>2026-08-22T11:56:49Z</time>
      </trkpt>
      <trkpt lat="47.56419" lon="-2.71791">
        <ele>12</ele>
        <time>2026-08-22T11:56:50Z</time>
      </trkpt>
      <trkpt lat="47.56416" lon="-2.71787">
        <ele>12</ele>
        <time>2026-08-22T11:56:51Z</time>
      </trkpt>
      <trkpt lat="47.56414" lon="-2.71783">
        <ele>12</ele>
        <time>2026-08-22T11:56:52Z</time>
      </trkpt>
      <trkpt lat="47.56412" lon="-2.71779">
        <ele>12</ele>
        <time>2026-08-22T11:56:53Z</time>
      </trkpt>
      <trkpt lat="47.5641" lon="-2.71775">
        <ele>11.9</ele>
        <time>2026-08-22T11:56:54Z</time>
      </trkpt>
      <trkpt lat="47.56408" lon="-2.71771">
        <ele>11.8</ele>
        <time>2026-08-22T11:56:55Z</time>
      </trkpt>
      <trkpt lat="47.56406" lon="-2.71767">
        <ele>11.8</ele>
        <time>2026-08-22T11:56:56Z</time>
      </trkpt>
      <trkpt lat="47.56404" lon="-2.71763">
        <ele>11.7</ele>
        <time>2026-08-22T11:56:57Z</time>
      </trkpt>
      <trkpt lat="47.56403" lon="-2.71759">
        <ele>11.7</ele>
        <time>2026-08-22T11:56:58Z</time>
      </trkpt>
      <trkpt lat="47.56401" lon="-2.71755">
        <ele>11.6</ele>
        <time>2026-08-22T11:56:59Z</time>
      </trkpt>
      <trkpt lat="47.56399" lon="-2.71751">
        <ele>11.6</ele>
        <time>2026-08-22T11:57:00Z</time>
      </trkpt>
      <trkpt lat="47.56397" lon="-2.71746">
        <ele>11.6</ele>
        <time>2026-08-22T11:57:01Z</time>
      </trkpt>
      <trkpt lat="47.56395" lon="-2.71742">
        <ele>11.6</ele>
        <time>2026-08-22T11:57:02Z</time>
      </trkpt>
      <trkpt lat="47.56393" lon="-2.71738">
        <ele>11.5</ele>
        <time>2026-08-22T11:57:03Z</time>
      </trkpt>
      <trkpt lat="47.56391" lon="-2.71734">
        <ele>11.4</ele>
        <time>2026-08-22T11:57:04Z</time>
      </trkpt>
      <trkpt lat="47.56389" lon="-2.71729">
        <ele>11.2</ele>
        <time>2026-08-22T11:57:05Z</time>
      </trkpt>
      <trkpt lat="47.56387" lon="-2.71725">
        <ele>11.2</ele>
        <time>2026-08-22T11:57:06Z</time>
      </trkpt>
      <trkpt lat="47.56385" lon="-2.7172">
        <ele>11.1</ele>
        <time>2026-08-22T11:57:07Z</time>
      </trkpt>
      <trkpt lat="47.56383" lon="-2.71716">
        <ele>11.2</ele>
        <time>2026-08-22T11:57:08Z</time>
      </trkpt>
      <trkpt lat="47.5638" lon="-2.71712">
        <ele>11.2</ele>
        <time>2026-08-22T11:57:09Z</time>
      </trkpt>
      <trkpt lat="47.56378" lon="-2.71707">
        <ele>11.2</ele>
        <time>2026-08-22T11:57:10Z</time>
      </trkpt>
      <trkpt lat="47.56376" lon="-2.71702">
        <ele>11.1</ele>
        <time>2026-08-22T11:57:11Z</time>
      </trkpt>
      <trkpt lat="47.56374" lon="-2.71698">
        <ele>11.1</ele>
        <time>2026-08-22T11:57:12Z</time>
      </trkpt>
      <trkpt lat="47.56372" lon="-2.71693">
        <ele>11</ele>
        <time>2026-08-22T11:57:13Z</time>
      </trkpt>
      <trkpt lat="47.5637" lon="-2.71689">
        <ele>11</ele>
        <time>2026-08-22T11:57:14Z</time>
      </trkpt>
      <trkpt lat="47.56368" lon="-2.71684">
        <ele>11</ele>
        <time>2026-08-22T11:57:15Z</time>
      </trkpt>
      <trkpt lat="47.56365" lon="-2.7168">
        <ele>11</ele>
        <time>2026-08-22T11:57:16Z</time>
      </trkpt>
      <trkpt lat="47.56363" lon="-2.71675">
        <ele>11</ele>
        <time>2026-08-22T11:57:17Z</time>
      </trkpt>
      <trkpt lat="47.56361" lon="-2.7167">
        <ele>11</ele>
        <time>2026-08-22T11:57:18Z</time>
      </trkpt>
      <trkpt lat="47.56358" lon="-2.71666">
        <ele>11</ele>
        <time>2026-08-22T11:57:19Z</time>
      </trkpt>
      <trkpt lat="47.56356" lon="-2.71661">
        <ele>11</ele>
        <time>2026-08-22T11:57:20Z</time>
      </trkpt>
      <trkpt lat="47.56354" lon="-2.71656">
        <ele>11</ele>
        <time>2026-08-22T11:57:21Z</time>
      </trkpt>
      <trkpt lat="47.56351" lon="-2.71651">
        <ele>11</ele>
        <time>2026-08-22T11:57:22Z</time>
      </trkpt>
      <trkpt lat="47.56349" lon="-2.71646">
        <ele>11</ele>
        <time>2026-08-22T11:57:23Z</time>
      </trkpt>
      <trkpt lat="47.56346" lon="-2.71641">
        <ele>11</ele>
        <time>2026-08-22T11:57:24Z</time>
      </trkpt>
      <trkpt lat="47.56344" lon="-2.71637">
        <ele>11</ele>
        <time>2026-08-22T11:57:25Z</time>
      </trkpt>
      <trkpt lat="47.56341" lon="-2.71632">
        <ele>10.8</ele>
        <time>2026-08-22T11:57:26Z</time>
      </trkpt>
      <trkpt lat="47.56338" lon="-2.71627">
        <ele>10.6</ele>
        <time>2026-08-22T11:57:27Z</time>
      </trkpt>
      <trkpt lat="47.56335" lon="-2.71623">
        <ele>10.5</ele>
        <time>2026-08-22T11:57:28Z</time>
      </trkpt>
      <trkpt lat="47.56332" lon="-2.71618">
        <ele>10.2</ele>
        <time>2026-08-22T11:57:29Z</time>
      </trkpt>
      <trkpt lat="47.5633" lon="-2.71613">
        <ele>10.1</ele>
        <time>2026-08-22T11:57:30Z</time>
      </trkpt>
      <trkpt lat="47.56327" lon="-2.71609">
        <ele>10</ele>
        <time>2026-08-22T11:57:31Z</time>
      </trkpt>
      <trkpt lat="47.56324" lon="-2.71604">
        <ele>10</ele>
        <time>2026-08-22T11:57:32Z</time>
      </trkpt>
      <trkpt lat="47.56321" lon="-2.716">
        <ele>10</ele>
        <time>2026-08-22T11:57:33Z</time>
      </trkpt>
      <trkpt lat="47.56318" lon="-2.71595">
        <ele>10</ele>
        <time>2026-08-22T11:57:34Z</time>
      </trkpt>
      <trkpt lat="47.56316" lon="-2.71591">
        <ele>10</ele>
        <time>2026-08-22T11:57:35Z</time>
      </trkpt>
      <trkpt lat="47.56313" lon="-2.71586">
        <ele>10</ele>
        <time>2026-08-22T11:57:36Z</time>
      </trkpt>
      <trkpt lat="47.5631" lon="-2.71582">
        <ele>10</ele>
        <time>2026-08-22T11:57:37Z</time>
      </trkpt>
      <trkpt lat="47.56307" lon="-2.71577">
        <ele>9.8</ele>
        <time>2026-08-22T11:57:38Z</time>
      </trkpt>
      <trkpt lat="47.56304" lon="-2.71573">
        <ele>9.6</ele>
        <time>2026-08-22T11:57:39Z</time>
      </trkpt>
      <trkpt lat="47.56302" lon="-2.71568">
        <ele>9.5</ele>
        <time>2026-08-22T11:57:40Z</time>
      </trkpt>
      <trkpt lat="47.56299" lon="-2.71565">
        <ele>9.5</ele>
        <time>2026-08-22T11:57:41Z</time>
      </trkpt>
      <trkpt lat="47.56296" lon="-2.71561">
        <ele>9.5</ele>
        <time>2026-08-22T11:57:42Z</time>
      </trkpt>
      <trkpt lat="47.56292" lon="-2.71559">
        <ele>9.6</ele>
        <time>2026-08-22T11:57:43Z</time>
      </trkpt>
      <trkpt lat="47.56289" lon="-2.71557">
        <ele>9.6</ele>
        <time>2026-08-22T11:57:44Z</time>
      </trkpt>
      <trkpt lat="47.56286" lon="-2.71557">
        <ele>9.7</ele>
        <time>2026-08-22T11:57:45Z</time>
      </trkpt>
      <trkpt lat="47.56282" lon="-2.71558">
        <ele>9.9</ele>
        <time>2026-08-22T11:57:46Z</time>
      </trkpt>
      <trkpt lat="47.56278" lon="-2.71558">
        <ele>10</ele>
        <time>2026-08-22T11:57:47Z</time>
      </trkpt>
      <trkpt lat="47.56274" lon="-2.71559">
        <ele>10</ele>
        <time>2026-08-22T11:57:48Z</time>
      </trkpt>
      <trkpt lat="47.5627" lon="-2.71559">
        <ele>10</ele>
        <time>2026-08-22T11:57:49Z</time>
      </trkpt>
      <trkpt lat="47.56266" lon="-2.71559">
        <ele>10</ele>
        <time>2026-08-22T11:57:50Z</time>
      </trkpt>
      <trkpt lat="47.56262" lon="-2.7156">
        <ele>10</ele>
        <time>2026-08-22T11:57:51Z</time>
      </trkpt>
      <trkpt lat="47.56259" lon="-2.71561">
        <ele>10</ele>
        <time>2026-08-22T11:57:52Z</time>
      </trkpt>
      <trkpt lat="47.56255" lon="-2.71562">
        <ele>10</ele>
        <time>2026-08-22T11:57:53Z</time>
      </trkpt>
      <trkpt lat="47.56251" lon="-2.71563">
        <ele>10</ele>
        <time>2026-08-22T11:57:54Z</time>
      </trkpt>
      <trkpt lat="47.56248" lon="-2.71564">
        <ele>10.1</ele>
        <time>2026-08-22T11:57:55Z</time>
      </trkpt>
      <trkpt lat="47.56244" lon="-2.71565">
        <ele>10.2</ele>
        <time>2026-08-22T11:57:56Z</time>
      </trkpt>
      <trkpt lat="47.5624" lon="-2.71566">
        <ele>10.4</ele>
        <time>2026-08-22T11:57:57Z</time>
      </trkpt>
      <trkpt lat="47.56236" lon="-2.71567">
        <ele>10.5</ele>
        <time>2026-08-22T11:57:58Z</time>
      </trkpt>
      <trkpt lat="47.56233" lon="-2.71569">
        <ele>10.6</ele>
        <time>2026-08-22T11:57:59Z</time>
      </trkpt>
      <trkpt lat="47.56229" lon="-2.7157">
        <ele>10.8</ele>
        <time>2026-08-22T11:58:00Z</time>
      </trkpt>
      <trkpt lat="47.56226" lon="-2.71571">
        <ele>10.9</ele>
        <time>2026-08-22T11:58:01Z</time>
      </trkpt>
      <trkpt lat="47.56222" lon="-2.71572">
        <ele>11</ele>
        <time>2026-08-22T11:58:02Z</time>
      </trkpt>
      <trkpt lat="47.56218" lon="-2.71573">
        <ele>11</ele>
        <time>2026-08-22T11:58:03Z</time>
      </trkpt>
      <trkpt lat="47.56215" lon="-2.71573">
        <ele>11</ele>
        <time>2026-08-22T11:58:04Z</time>
      </trkpt>
      <trkpt lat="47.56211" lon="-2.71572">
        <ele>11</ele>
        <time>2026-08-22T11:58:05Z</time>
      </trkpt>
      <trkpt lat="47.56208" lon="-2.71571">
        <ele>11</ele>
        <time>2026-08-22T11:58:06Z</time>
      </trkpt>
      <trkpt lat="47.56204" lon="-2.7157">
        <ele>11</ele>
        <time>2026-08-22T11:58:07Z</time>
      </trkpt>
      <trkpt lat="47.56201" lon="-2.71569">
        <ele>11</ele>
        <time>2026-08-22T11:58:08Z</time>
      </trkpt>
      <trkpt lat="47.56197" lon="-2.71568">
        <ele>11</ele>
        <time>2026-08-22T11:58:09Z</time>
      </trkpt>
      <trkpt lat="47.56193" lon="-2.71566">
        <ele>11</ele>
        <time>2026-08-22T11:58:10Z</time>
      </trkpt>
      <trkpt lat="47.5619" lon="-2.71565">
        <ele>11.1</ele>
        <time>2026-08-22T11:58:11Z</time>
      </trkpt>
      <trkpt lat="47.56186" lon="-2.71563">
        <ele>11.1</ele>
        <time>2026-08-22T11:58:12Z</time>
      </trkpt>
      <trkpt lat="47.56183" lon="-2.71562">
        <ele>11.1</ele>
        <time>2026-08-22T11:58:13Z</time>
      </trkpt>
      <trkpt lat="47.5618" lon="-2.71562">
        <ele>11.1</ele>
        <time>2026-08-22T11:58:14Z</time>
      </trkpt>
      <trkpt lat="47.56177" lon="-2.71561">
        <ele>11.1</ele>
        <time>2026-08-22T11:58:15Z</time>
      </trkpt>
      <trkpt lat="47.56174" lon="-2.71561">
        <ele>11.1</ele>
        <time>2026-08-22T11:58:16Z</time>
      </trkpt>
      <trkpt lat="47.56171" lon="-2.71562">
        <ele>11.2</ele>
        <time>2026-08-22T11:58:17Z</time>
      </trkpt>
      <trkpt lat="47.56169" lon="-2.71562">
        <ele>11.2</ele>
        <time>2026-08-22T11:58:18Z</time>
      </trkpt>
      <trkpt lat="47.56166" lon="-2.71562">
        <ele>11.3</ele>
        <time>2026-08-22T11:58:19Z</time>
      </trkpt>
      <trkpt lat="47.56163" lon="-2.71562">
        <ele>11.3</ele>
        <time>2026-08-22T11:58:20Z</time>
      </trkpt>
      <trkpt lat="47.5616" lon="-2.71562">
        <ele>11.4</ele>
        <time>2026-08-22T11:58:21Z</time>
      </trkpt>
      <trkpt lat="47.56156" lon="-2.71562">
        <ele>11.5</ele>
        <time>2026-08-22T11:58:22Z</time>
      </trkpt>
      <trkpt lat="47.56153" lon="-2.71561">
        <ele>11.6</ele>
        <time>2026-08-22T11:58:23Z</time>
      </trkpt>
      <trkpt lat="47.56149" lon="-2.71561">
        <ele>11.7</ele>
        <time>2026-08-22T11:58:24Z</time>
      </trkpt>
      <trkpt lat="47.56146" lon="-2.7156">
        <ele>11.8</ele>
        <time>2026-08-22T11:58:25Z</time>
      </trkpt>
      <trkpt lat="47.56142" lon="-2.7156">
        <ele>11.9</ele>
        <time>2026-08-22T11:58:26Z</time>
      </trkpt>
      <trkpt lat="47.56139" lon="-2.71559">
        <ele>12</ele>
        <time>2026-08-22T11:58:27Z</time>
      </trkpt>
      <trkpt lat="47.56135" lon="-2.71559">
        <ele>12</ele>
        <time>2026-08-22T11:58:28Z</time>
      </trkpt>
      <trkpt lat="47.56132" lon="-2.71558">
        <ele>12</ele>
        <time>2026-08-22T11:58:29Z</time>
      </trkpt>
      <trkpt lat="47.56128" lon="-2.71557">
        <ele>12</ele>
        <time>2026-08-22T11:58:30Z</time>
      </trkpt>
      <trkpt lat="47.56125" lon="-2.71556">
        <ele>12</ele>
        <time>2026-08-22T11:58:31Z</time>
      </trkpt>
      <trkpt lat="47.56122" lon="-2.71555">
        <ele>12</ele>
        <time>2026-08-22T11:58:32Z</time>
      </trkpt>
      <trkpt lat="47.56118" lon="-2.71554">
        <ele>12</ele>
        <time>2026-08-22T11:58:33Z</time>
      </trkpt>
      <trkpt lat="47.56114" lon="-2.71553">
        <ele>12</ele>
        <time>2026-08-22T11:58:34Z</time>
      </trkpt>
      <trkpt lat="47.56111" lon="-2.71552">
        <ele>12</ele>
        <time>2026-08-22T11:58:35Z</time>
      </trkpt>
      <trkpt lat="47.56107" lon="-2.7155">
        <ele>12.1</ele>
        <time>2026-08-22T11:58:36Z</time>
      </trkpt>
      <trkpt lat="47.56104" lon="-2.71549">
        <ele>12.3</ele>
        <time>2026-08-22T11:58:37Z</time>
      </trkpt>
      <trkpt lat="47.56101" lon="-2.71548">
        <ele>12.4</ele>
        <time>2026-08-22T11:58:38Z</time>
      </trkpt>
      <trkpt lat="47.56098" lon="-2.71547">
        <ele>12.5</ele>
        <time>2026-08-22T11:58:39Z</time>
      </trkpt>
      <trkpt lat="47.56094" lon="-2.71546">
        <ele>12.6</ele>
        <time>2026-08-22T11:58:40Z</time>
      </trkpt>
      <trkpt lat="47.5609" lon="-2.71544">
        <ele>12.8</ele>
        <time>2026-08-22T11:58:41Z</time>
      </trkpt>
      <trkpt lat="47.56086" lon="-2.71542">
        <ele>12.9</ele>
        <time>2026-08-22T11:58:42Z</time>
      </trkpt>
      <trkpt lat="47.56082" lon="-2.7154">
        <ele>13</ele>
        <time>2026-08-22T11:58:43Z</time>
      </trkpt>
      <trkpt lat="47.56078" lon="-2.71538">
        <ele>12.8</ele>
        <time>2026-08-22T11:58:44Z</time>
      </trkpt>
      <trkpt lat="47.56074" lon="-2.71536">
        <ele>12.7</ele>
        <time>2026-08-22T11:58:45Z</time>
      </trkpt>
      <trkpt lat="47.5607" lon="-2.71534">
        <ele>12.5</ele>
        <time>2026-08-22T11:58:46Z</time>
      </trkpt>
      <trkpt lat="47.56067" lon="-2.71533">
        <ele>12.4</ele>
        <time>2026-08-22T11:58:47Z</time>
      </trkpt>
      <trkpt lat="47.56063" lon="-2.71531">
        <ele>12.3</ele>
        <time>2026-08-22T11:58:48Z</time>
      </trkpt>
      <trkpt lat="47.56058" lon="-2.71529">
        <ele>12.1</ele>
        <time>2026-08-22T11:58:49Z</time>
      </trkpt>
      <trkpt lat="47.56054" lon="-2.71528">
        <ele>12.1</ele>
        <time>2026-08-22T11:58:50Z</time>
      </trkpt>
      <trkpt lat="47.56051" lon="-2.71526">
        <ele>12.2</ele>
        <time>2026-08-22T11:58:51Z</time>
      </trkpt>
      <trkpt lat="47.56047" lon="-2.71524">
        <ele>12.4</ele>
        <time>2026-08-22T11:58:52Z</time>
      </trkpt>
      <trkpt lat="47.56043" lon="-2.71522">
        <ele>12.6</ele>
        <time>2026-08-22T11:58:53Z</time>
      </trkpt>
      <trkpt lat="47.56039" lon="-2.7152">
        <ele>12.7</ele>
        <time>2026-08-22T11:58:54Z</time>
      </trkpt>
      <trkpt lat="47.56035" lon="-2.71517">
        <ele>12.8</ele>
        <time>2026-08-22T11:58:55Z</time>
      </trkpt>
      <trkpt lat="47.56031" lon="-2.71514">
        <ele>12.9</ele>
        <time>2026-08-22T11:58:56Z</time>
      </trkpt>
      <trkpt lat="47.56028" lon="-2.71511">
        <ele>13</ele>
        <time>2026-08-22T11:58:57Z</time>
      </trkpt>
      <trkpt lat="47.56025" lon="-2.71507">
        <ele>13</ele>
        <time>2026-08-22T11:58:58Z</time>
      </trkpt>
      <trkpt lat="47.56022" lon="-2.71503">
        <ele>13</ele>
        <time>2026-08-22T11:58:59Z</time>
      </trkpt>
      <trkpt lat="47.5602" lon="-2.71499">
        <ele>13</ele>
        <time>2026-08-22T11:59:00Z</time>
      </trkpt>
      <trkpt lat="47.56017" lon="-2.71494">
        <ele>13</ele>
        <time>2026-08-22T11:59:01Z</time>
      </trkpt>
      <trkpt lat="47.56015" lon="-2.71489">
        <ele>13</ele>
        <time>2026-08-22T11:59:02Z</time>
      </trkpt>
      <trkpt lat="47.56012" lon="-2.71485">
        <ele>13</ele>
        <time>2026-08-22T11:59:03Z</time>
      </trkpt>
      <trkpt lat="47.5601" lon="-2.7148">
        <ele>13</ele>
        <time>2026-08-22T11:59:04Z</time>
      </trkpt>
      <trkpt lat="47.56007" lon="-2.71475">
        <ele>13</ele>
        <time>2026-08-22T11:59:05Z</time>
      </trkpt>
      <trkpt lat="47.56004" lon="-2.71471">
        <ele>13</ele>
        <time>2026-08-22T11:59:06Z</time>
      </trkpt>
      <trkpt lat="47.56002" lon="-2.71467">
        <ele>13</ele>
        <time>2026-08-22T11:59:07Z</time>
      </trkpt>
      <trkpt lat="47.55999" lon="-2.71464">
        <ele>13</ele>
        <time>2026-08-22T11:59:08Z</time>
      </trkpt>
      <trkpt lat="47.55997" lon="-2.7146">
        <ele>13</ele>
        <time>2026-08-22T11:59:09Z</time>
      </trkpt>
      <trkpt lat="47.55994" lon="-2.71455">
        <ele>13</ele>
        <time>2026-08-22T11:59:10Z</time>
      </trkpt>
      <trkpt lat="47.55991" lon="-2.71451">
        <ele>13</ele>
        <time>2026-08-22T11:59:11Z</time>
      </trkpt>
      <trkpt lat="47.55989" lon="-2.71446">
        <ele>13</ele>
        <time>2026-08-22T11:59:12Z</time>
      </trkpt>
      <trkpt lat="47.55986" lon="-2.71442">
        <ele>13</ele>
        <time>2026-08-22T11:59:13Z</time>
      </trkpt>
      <trkpt lat="47.55984" lon="-2.71437">
        <ele>13</ele>
        <time>2026-08-22T11:59:14Z</time>
      </trkpt>
      <trkpt lat="47.55981" lon="-2.71433">
        <ele>13</ele>
        <time>2026-08-22T11:59:15Z</time>
      </trkpt>
      <trkpt lat="47.55978" lon="-2.71428">
        <ele>13</ele>
        <time>2026-08-22T11:59:16Z</time>
      </trkpt>
      <trkpt lat="47.55975" lon="-2.71424">
        <ele>13</ele>
        <time>2026-08-22T11:59:17Z</time>
      </trkpt>
      <trkpt lat="47.55972" lon="-2.7142">
        <ele>13</ele>
        <time>2026-08-22T11:59:18Z</time>
      </trkpt>
      <trkpt lat="47.55969" lon="-2.71415">
        <ele>13.2</ele>
        <time>2026-08-22T11:59:19Z</time>
      </trkpt>
      <trkpt lat="47.55967" lon="-2.71411">
        <ele>13.3</ele>
        <time>2026-08-22T11:59:20Z</time>
      </trkpt>
      <trkpt lat="47.55964" lon="-2.71408">
        <ele>13.4</ele>
        <time>2026-08-22T11:59:21Z</time>
      </trkpt>
      <trkpt lat="47.55961" lon="-2.71404">
        <ele>13.5</ele>
        <time>2026-08-22T11:59:22Z</time>
      </trkpt>
      <trkpt lat="47.55958" lon="-2.714">
        <ele>13.5</ele>
        <time>2026-08-22T11:59:23Z</time>
      </trkpt>
      <trkpt lat="47.55955" lon="-2.71396">
        <ele>13.4</ele>
        <time>2026-08-22T11:59:24Z</time>
      </trkpt>
      <trkpt lat="47.55953" lon="-2.71392">
        <ele>13.4</ele>
        <time>2026-08-22T11:59:25Z</time>
      </trkpt>
      <trkpt lat="47.5595" lon="-2.71389">
        <ele>13.2</ele>
        <time>2026-08-22T11:59:26Z</time>
      </trkpt>
      <trkpt lat="47.55947" lon="-2.71386">
        <ele>13.2</ele>
        <time>2026-08-22T11:59:27Z</time>
      </trkpt>
      <trkpt lat="47.55944" lon="-2.71382">
        <ele>13.3</ele>
        <time>2026-08-22T11:59:28Z</time>
      </trkpt>
      <trkpt lat="47.55941" lon="-2.71378">
        <ele>13.5</ele>
        <time>2026-08-22T11:59:29Z</time>
      </trkpt>
      <trkpt lat="47.55939" lon="-2.71374">
        <ele>13.6</ele>
        <time>2026-08-22T11:59:30Z</time>
      </trkpt>
      <trkpt lat="47.55936" lon="-2.7137">
        <ele>13.8</ele>
        <time>2026-08-22T11:59:31Z</time>
      </trkpt>
      <trkpt lat="47.55933" lon="-2.71366">
        <ele>13.9</ele>
        <time>2026-08-22T11:59:32Z</time>
      </trkpt>
      <trkpt lat="47.5593" lon="-2.71362">
        <ele>14</ele>
        <time>2026-08-22T11:59:33Z</time>
      </trkpt>
      <trkpt lat="47.55926" lon="-2.71358">
        <ele>13.9</ele>
        <time>2026-08-22T11:59:34Z</time>
      </trkpt>
      <trkpt lat="47.55923" lon="-2.71353">
        <ele>13.8</ele>
        <time>2026-08-22T11:59:35Z</time>
      </trkpt>
      <trkpt lat="47.5592" lon="-2.71349">
        <ele>13.6</ele>
        <time>2026-08-22T11:59:36Z</time>
      </trkpt>
      <trkpt lat="47.55917" lon="-2.71345">
        <ele>13.4</ele>
        <time>2026-08-22T11:59:37Z</time>
      </trkpt>
      <trkpt lat="47.55914" lon="-2.71341">
        <ele>13.3</ele>
        <time>2026-08-22T11:59:38Z</time>
      </trkpt>
      <trkpt lat="47.55911" lon="-2.71336">
        <ele>13.1</ele>
        <time>2026-08-22T11:59:39Z</time>
      </trkpt>
      <trkpt lat="47.55908" lon="-2.71331">
        <ele>13</ele>
        <time>2026-08-22T11:59:40Z</time>
      </trkpt>
      <trkpt lat="47.55906" lon="-2.71325">
        <ele>13</ele>
        <time>2026-08-22T11:59:41Z</time>
      </trkpt>
      <trkpt lat="47.55905" lon="-2.71319">
        <ele>13</ele>
        <time>2026-08-22T11:59:42Z</time>
      </trkpt>
      <trkpt lat="47.55904" lon="-2.71312">
        <ele>13</ele>
        <time>2026-08-22T11:59:43Z</time>
      </trkpt>
      <trkpt lat="47.55904" lon="-2.71306">
        <ele>13</ele>
        <time>2026-08-22T11:59:44Z</time>
      </trkpt>
      <trkpt lat="47.55905" lon="-2.713">
        <ele>13.1</ele>
        <time>2026-08-22T11:59:45Z</time>
      </trkpt>
      <trkpt lat="47.55907" lon="-2.71294">
        <ele>13.1</ele>
        <time>2026-08-22T11:59:46Z</time>
      </trkpt>
      <trkpt lat="47.55909" lon="-2.71288">
        <ele>13.2</ele>
        <time>2026-08-22T11:59:47Z</time>
      </trkpt>
      <trkpt lat="47.55912" lon="-2.71283">
        <ele>13.1</ele>
        <time>2026-08-22T11:59:48Z</time>
      </trkpt>
      <trkpt lat="47.55915" lon="-2.71279">
        <ele>13.1</ele>
        <time>2026-08-22T11:59:49Z</time>
      </trkpt>
      <trkpt lat="47.55919" lon="-2.71275">
        <ele>13.1</ele>
        <time>2026-08-22T11:59:50Z</time>
      </trkpt>
      <trkpt lat="47.55923" lon="-2.71272">
        <ele>13.2</ele>
        <time>2026-08-22T11:59:51Z</time>
      </trkpt>
      <trkpt lat="47.55928" lon="-2.7127">
        <ele>13.2</ele>
        <time>2026-08-22T11:59:52Z</time>
      </trkpt>
      <trkpt lat="47.55932" lon="-2.71267">
        <ele>13.2</ele>
        <time>2026-08-22T11:59:53Z</time>
      </trkpt>
      <trkpt lat="47.55937" lon="-2.71265">
        <ele>13.1</ele>
        <time>2026-08-22T11:59:54Z</time>
      </trkpt>
      <trkpt lat="47.55941" lon="-2.71262">
        <ele>13.1</ele>
        <time>2026-08-22T11:59:55Z</time>
      </trkpt>
      <trkpt lat="47.55945" lon="-2.71259">
        <ele>13</ele>
        <time>2026-08-22T11:59:56Z</time>
      </trkpt>
      <trkpt lat="47.5595" lon="-2.71257">
        <ele>13.1</ele>
        <time>2026-08-22T11:59:57Z</time>
      </trkpt>
      <trkpt lat="47.55954" lon="-2.71254">
        <ele>13</ele>
        <time>2026-08-22T11:59:58Z</time>
      </trkpt>
      <trkpt lat="47.55959" lon="-2.71252">
        <ele>13</ele>
        <time>2026-08-22T11:59:59Z</time>
      </trkpt>
      <trkpt lat="47.55963" lon="-2.71249">
        <ele>13</ele>
        <time>2026-08-22T12:00:00Z</time>
      </trkpt>
      <trkpt lat="47.55968" lon="-2.71247">
        <ele>13</ele>
        <time>2026-08-22T12:00:01Z</time>
      </trkpt>
      <trkpt lat="47.55972" lon="-2.71244">
        <ele>13</ele>
        <time>2026-08-22T12:00:02Z</time>
      </trkpt>
      <trkpt lat="47.55977" lon="-2.71242">
        <ele>13.1</ele>
        <time>2026-08-22T12:00:03Z</time>
      </trkpt>
      <trkpt lat="47.55981" lon="-2.71239">
        <ele>13.1</ele>
        <time>2026-08-22T12:00:04Z</time>
      </trkpt>
      <trkpt lat="47.55986" lon="-2.71237">
        <ele>13</ele>
        <time>2026-08-22T12:00:05Z</time>
      </trkpt>
      <trkpt lat="47.5599" lon="-2.71234">
        <ele>12.9</ele>
        <time>2026-08-22T12:00:06Z</time>
      </trkpt>
      <trkpt lat="47.55995" lon="-2.71231">
        <ele>12.7</ele>
        <time>2026-08-22T12:00:07Z</time>
      </trkpt>
      <trkpt lat="47.55999" lon="-2.71228">
        <ele>12.4</ele>
        <time>2026-08-22T12:00:08Z</time>
      </trkpt>
      <trkpt lat="47.56004" lon="-2.71226">
        <ele>12.3</ele>
        <time>2026-08-22T12:00:09Z</time>
      </trkpt>
      <trkpt lat="47.56008" lon="-2.71223">
        <ele>12.1</ele>
        <time>2026-08-22T12:00:10Z</time>
      </trkpt>
      <trkpt lat="47.56013" lon="-2.7122">
        <ele>12.1</ele>
        <time>2026-08-22T12:00:11Z</time>
      </trkpt>
      <trkpt lat="47.56017" lon="-2.71217">
        <ele>12.2</ele>
        <time>2026-08-22T12:00:12Z</time>
      </trkpt>
      <trkpt lat="47.56022" lon="-2.71215">
        <ele>12.3</ele>
        <time>2026-08-22T12:00:13Z</time>
      </trkpt>
      <trkpt lat="47.56026" lon="-2.71213">
        <ele>12.3</ele>
        <time>2026-08-22T12:00:14Z</time>
      </trkpt>
      <trkpt lat="47.56031" lon="-2.7121">
        <ele>12.5</ele>
        <time>2026-08-22T12:00:15Z</time>
      </trkpt>
      <trkpt lat="47.56036" lon="-2.71208">
        <ele>12.5</ele>
        <time>2026-08-22T12:00:16Z</time>
      </trkpt>
      <trkpt lat="47.5604" lon="-2.71205">
        <ele>12.4</ele>
        <time>2026-08-22T12:00:17Z</time>
      </trkpt>
      <trkpt lat="47.56044" lon="-2.71203">
        <ele>12.2</ele>
        <time>2026-08-22T12:00:18Z</time>
      </trkpt>
      <trkpt lat="47.56049" lon="-2.712">
        <ele>11.9</ele>
        <time>2026-08-22T12:00:19Z</time>
      </trkpt>
      <trkpt lat="47.56053" lon="-2.71197">
        <ele>11.4</ele>
        <time>2026-08-22T12:00:20Z</time>
      </trkpt>
      <trkpt lat="47.56058" lon="-2.71195">
        <ele>11.4</ele>
        <time>2026-08-22T12:00:21Z</time>
      </trkpt>
      <trkpt lat="47.56063" lon="-2.71193">
        <ele>12.1</ele>
        <time>2026-08-22T12:00:22Z</time>
      </trkpt>
      <trkpt lat="47.56067" lon="-2.7119">
        <ele>12.5</ele>
        <time>2026-08-22T12:00:23Z</time>
      </trkpt>
      <trkpt lat="47.5607" lon="-2.71186">
        <ele>12.8</ele>
        <time>2026-08-22T12:00:24Z</time>
      </trkpt>
      <trkpt lat="47.56071" lon="-2.71182">
        <ele>12.7</ele>
        <time>2026-08-22T12:00:25Z</time>
      </trkpt>
      <trkpt lat="47.56071" lon="-2.71177">
        <ele>12.5</ele>
        <time>2026-08-22T12:00:26Z</time>
      </trkpt>
      <trkpt lat="47.5607" lon="-2.71174">
        <ele>12.3</ele>
        <time>2026-08-22T12:00:27Z</time>
      </trkpt>
      <trkpt lat="47.56069" lon="-2.71174">
        <ele>12.2</ele>
        <time>2026-08-22T12:00:28Z</time>
      </trkpt>
      <trkpt lat="47.56069" lon="-2.71173">
        <ele>12.2</ele>
        <time>2026-08-22T12:00:29Z</time>
      </trkpt>
      <trkpt lat="47.56069" lon="-2.71173">
        <ele>12.2</ele>
        <time>2026-08-22T12:00:30Z</time>
      </trkpt>
      <trkpt lat="47.56069" lon="-2.71171">
        <ele>12.1</ele>
        <time>2026-08-22T12:00:31Z</time>
      </trkpt>
      <trkpt lat="47.56069" lon="-2.71167">
        <ele>12</ele>
        <time>2026-08-22T12:00:32Z</time>
      </trkpt>
      <trkpt lat="47.56071" lon="-2.71163">
        <ele>12.1</ele>
        <time>2026-08-22T12:00:33Z</time>
      </trkpt>
      <trkpt lat="47.56073" lon="-2.71159">
        <ele>12.2</ele>
        <time>2026-08-22T12:00:34Z</time>
      </trkpt>
      <trkpt lat="47.56076" lon="-2.71156">
        <ele>12.2</ele>
        <time>2026-08-22T12:00:35Z</time>
      </trkpt>
      <trkpt lat="47.56078" lon="-2.71153">
        <ele>12.2</ele>
        <time>2026-08-22T12:00:36Z</time>
      </trkpt>
      <trkpt lat="47.56081" lon="-2.71151">
        <ele>12.1</ele>
        <time>2026-08-22T12:00:37Z</time>
      </trkpt>
      <trkpt lat="47.56085" lon="-2.71148">
        <ele>12</ele>
        <time>2026-08-22T12:00:38Z</time>
      </trkpt>
      <trkpt lat="47.56088" lon="-2.71145">
        <ele>12</ele>
        <time>2026-08-22T12:00:39Z</time>
      </trkpt>
      <trkpt lat="47.56091" lon="-2.71142">
        <ele>12</ele>
        <time>2026-08-22T12:00:40Z</time>
      </trkpt>
      <trkpt lat="47.56094" lon="-2.7114">
        <ele>12</ele>
        <time>2026-08-22T12:00:41Z</time>
      </trkpt>
      <trkpt lat="47.56097" lon="-2.71137">
        <ele>12.1</ele>
        <time>2026-08-22T12:00:42Z</time>
      </trkpt>
      <trkpt lat="47.56101" lon="-2.71134">
        <ele>12.2</ele>
        <time>2026-08-22T12:00:43Z</time>
      </trkpt>
      <trkpt lat="47.56104" lon="-2.71131">
        <ele>12.4</ele>
        <time>2026-08-22T12:00:44Z</time>
      </trkpt>
      <trkpt lat="47.56108" lon="-2.71128">
        <ele>12.4</ele>
        <time>2026-08-22T12:00:45Z</time>
      </trkpt>
      <trkpt lat="47.56111" lon="-2.71125">
        <ele>12.5</ele>
        <time>2026-08-22T12:00:46Z</time>
      </trkpt>
      <trkpt lat="47.56114" lon="-2.71122">
        <ele>12.5</ele>
        <time>2026-08-22T12:00:47Z</time>
      </trkpt>
      <trkpt lat="47.56118" lon="-2.71119">
        <ele>12.5</ele>
        <time>2026-08-22T12:00:48Z</time>
      </trkpt>
      <trkpt lat="47.56121" lon="-2.71116">
        <ele>12.5</ele>
        <time>2026-08-22T12:00:49Z</time>
      </trkpt>
      <trkpt lat="47.56125" lon="-2.71114">
        <ele>12.4</ele>
        <time>2026-08-22T12:00:50Z</time>
      </trkpt>
      <trkpt lat="47.56128" lon="-2.71111">
        <ele>12.4</ele>
        <time>2026-08-22T12:00:51Z</time>
      </trkpt>
      <trkpt lat="47.56131" lon="-2.71108">
        <ele>12.3</ele>
        <time>2026-08-22T12:00:52Z</time>
      </trkpt>
      <trkpt lat="47.56135" lon="-2.71105">
        <ele>12.2</ele>
        <time>2026-08-22T12:00:53Z</time>
      </trkpt>
      <trkpt lat="47.56139" lon="-2.71103">
        <ele>12</ele>
        <time>2026-08-22T12:00:54Z</time>
      </trkpt>
      <trkpt lat="47.56143" lon="-2.71101">
        <ele>12.1</ele>
        <time>2026-08-22T12:00:55Z</time>
      </trkpt>
      <trkpt lat="47.56147" lon="-2.71098">
        <ele>12.1</ele>
        <time>2026-08-22T12:00:56Z</time>
      </trkpt>
      <trkpt lat="47.5615" lon="-2.71095">
        <ele>12.2</ele>
        <time>2026-08-22T12:00:57Z</time>
      </trkpt>
      <trkpt lat="47.56153" lon="-2.71093">
        <ele>12.3</ele>
        <time>2026-08-22T12:00:58Z</time>
      </trkpt>
      <trkpt lat="47.56157" lon="-2.7109">
        <ele>12.5</ele>
        <time>2026-08-22T12:00:59Z</time>
      </trkpt>
      <trkpt lat="47.5616" lon="-2.71087">
        <ele>12.7</ele>
        <time>2026-08-22T12:01:00Z</time>
      </trkpt>
      <trkpt lat="47.56163" lon="-2.71085">
        <ele>12.8</ele>
        <time>2026-08-22T12:01:01Z</time>
      </trkpt>
      <trkpt lat="47.56167" lon="-2.71083">
        <ele>13</ele>
        <time>2026-08-22T12:01:02Z</time>
      </trkpt>
      <trkpt lat="47.56171" lon="-2.71081">
        <ele>12.8</ele>
        <time>2026-08-22T12:01:03Z</time>
      </trkpt>
      <trkpt lat="47.56174" lon="-2.71078">
        <ele>12.7</ele>
        <time>2026-08-22T12:01:04Z</time>
      </trkpt>
      <trkpt lat="47.56178" lon="-2.71076">
        <ele>12.6</ele>
        <time>2026-08-22T12:01:05Z</time>
      </trkpt>
      <trkpt lat="47.56181" lon="-2.71073">
        <ele>12.5</ele>
        <time>2026-08-22T12:01:06Z</time>
      </trkpt>
      <trkpt lat="47.56185" lon="-2.71071">
        <ele>12.3</ele>
        <time>2026-08-22T12:01:07Z</time>
      </trkpt>
      <trkpt lat="47.56189" lon="-2.71069">
        <ele>12.2</ele>
        <time>2026-08-22T12:01:08Z</time>
      </trkpt>
      <trkpt lat="47.56193" lon="-2.71067">
        <ele>12.1</ele>
        <time>2026-08-22T12:01:09Z</time>
      </trkpt>
      <trkpt lat="47.56197" lon="-2.71064">
        <ele>11.9</ele>
        <time>2026-08-22T12:01:10Z</time>
      </trkpt>
      <trkpt lat="47.56202" lon="-2.71062">
        <ele>11.7</ele>
        <time>2026-08-22T12:01:11Z</time>
      </trkpt>
      <trkpt lat="47.56206" lon="-2.71059">
        <ele>11.6</ele>
        <time>2026-08-22T12:01:12Z</time>
      </trkpt>
      <trkpt lat="47.5621" lon="-2.71056">
        <ele>11.4</ele>
        <time>2026-08-22T12:01:13Z</time>
      </trkpt>
      <trkpt lat="47.56215" lon="-2.71054">
        <ele>11.3</ele>
        <time>2026-08-22T12:01:14Z</time>
      </trkpt>
      <trkpt lat="47.56219" lon="-2.71051">
        <ele>11.1</ele>
        <time>2026-08-22T12:01:15Z</time>
      </trkpt>
      <trkpt lat="47.56224" lon="-2.71049">
        <ele>11</ele>
        <time>2026-08-22T12:01:16Z</time>
      </trkpt>
      <trkpt lat="47.56228" lon="-2.71046">
        <ele>11</ele>
        <time>2026-08-22T12:01:17Z</time>
      </trkpt>
      <trkpt lat="47.56233" lon="-2.71043">
        <ele>11</ele>
        <time>2026-08-22T12:01:18Z</time>
      </trkpt>
      <trkpt lat="47.56238" lon="-2.71041">
        <ele>11</ele>
        <time>2026-08-22T12:01:19Z</time>
      </trkpt>
      <trkpt lat="47.56243" lon="-2.71038">
        <ele>11</ele>
        <time>2026-08-22T12:01:20Z</time>
      </trkpt>
      <trkpt lat="47.56248" lon="-2.71035">
        <ele>11</ele>
        <time>2026-08-22T12:01:21Z</time>
      </trkpt>
      <trkpt lat="47.56252" lon="-2.71032">
        <ele>10.9</ele>
        <time>2026-08-22T12:01:22Z</time>
      </trkpt>
      <trkpt lat="47.56257" lon="-2.71029">
        <ele>10.7</ele>
        <time>2026-08-22T12:01:23Z</time>
      </trkpt>
      <trkpt lat="47.56262" lon="-2.71026">
        <ele>10.6</ele>
        <time>2026-08-22T12:01:24Z</time>
      </trkpt>
      <trkpt lat="47.56267" lon="-2.71023">
        <ele>10.4</ele>
        <time>2026-08-22T12:01:25Z</time>
      </trkpt>
      <trkpt lat="47.56271" lon="-2.7102">
        <ele>10.2</ele>
        <time>2026-08-22T12:01:26Z</time>
      </trkpt>
      <trkpt lat="47.56276" lon="-2.71017">
        <ele>10.1</ele>
        <time>2026-08-22T12:01:27Z</time>
      </trkpt>
      <trkpt lat="47.56281" lon="-2.71014">
        <ele>10.1</ele>
        <time>2026-08-22T12:01:28Z</time>
      </trkpt>
      <trkpt lat="47.56285" lon="-2.71011">
        <ele>10.1</ele>
        <time>2026-08-22T12:01:29Z</time>
      </trkpt>
      <trkpt lat="47.5629" lon="-2.71008">
        <ele>10.1</ele>
        <time>2026-08-22T12:01:30Z</time>
      </trkpt>
      <trkpt lat="47.56294" lon="-2.71005">
        <ele>10.1</ele>
        <time>2026-08-22T12:01:31Z</time>
      </trkpt>
      <trkpt lat="47.56299" lon="-2.71002">
        <ele>10.1</ele>
        <time>2026-08-22T12:01:32Z</time>
      </trkpt>
      <trkpt lat="47.56304" lon="-2.71">
        <ele>10</ele>
        <time>2026-08-22T12:01:33Z</time>
      </trkpt>
      <trkpt lat="47.56308" lon="-2.70997">
        <ele>10</ele>
        <time>2026-08-22T12:01:34Z</time>
      </trkpt>
      <trkpt lat="47.56313" lon="-2.70994">
        <ele>10</ele>
        <time>2026-08-22T12:01:35Z</time>
      </trkpt>
      <trkpt lat="47.56318" lon="-2.70991">
        <ele>10</ele>
        <time>2026-08-22T12:01:36Z</time>
      </trkpt>
      <trkpt lat="47.56322" lon="-2.70988">
        <ele>10</ele>
        <time>2026-08-22T12:01:37Z</time>
      </trkpt>
      <trkpt lat="47.56327" lon="-2.70986">
        <ele>10</ele>
        <time>2026-08-22T12:01:38Z</time>
      </trkpt>
      <trkpt lat="47.56332" lon="-2.70983">
        <ele>10</ele>
        <time>2026-08-22T12:01:39Z</time>
      </trkpt>
      <trkpt lat="47.56336" lon="-2.7098">
        <ele>9.9</ele>
        <time>2026-08-22T12:01:40Z</time>
      </trkpt>
      <trkpt lat="47.56341" lon="-2.70977">
        <ele>9.8</ele>
        <time>2026-08-22T12:01:41Z</time>
      </trkpt>
      <trkpt lat="47.56345" lon="-2.70974">
        <ele>9.6</ele>
        <time>2026-08-22T12:01:42Z</time>
      </trkpt>
      <trkpt lat="47.5635" lon="-2.70971">
        <ele>9.4</ele>
        <time>2026-08-22T12:01:43Z</time>
      </trkpt>
      <trkpt lat="47.56354" lon="-2.70968">
        <ele>9.4</ele>
        <time>2026-08-22T12:01:44Z</time>
      </trkpt>
      <trkpt lat="47.56359" lon="-2.70966">
        <ele>9.3</ele>
        <time>2026-08-22T12:01:45Z</time>
      </trkpt>
      <trkpt lat="47.56364" lon="-2.70964">
        <ele>9.3</ele>
        <time>2026-08-22T12:01:46Z</time>
      </trkpt>
      <trkpt lat="47.56369" lon="-2.70962">
        <ele>9.4</ele>
        <time>2026-08-22T12:01:47Z</time>
      </trkpt>
      <trkpt lat="47.56374" lon="-2.70959">
        <ele>9.5</ele>
        <time>2026-08-22T12:01:48Z</time>
      </trkpt>
      <trkpt lat="47.56378" lon="-2.70956">
        <ele>9.5</ele>
        <time>2026-08-22T12:01:49Z</time>
      </trkpt>
      <trkpt lat="47.56383" lon="-2.70953">
        <ele>9.4</ele>
        <time>2026-08-22T12:01:50Z</time>
      </trkpt>
      <trkpt lat="47.56388" lon="-2.70949">
        <ele>9.2</ele>
        <time>2026-08-22T12:01:51Z</time>
      </trkpt>
      <trkpt lat="47.56392" lon="-2.70946">
        <ele>9</ele>
        <time>2026-08-22T12:01:52Z</time>
      </trkpt>
      <trkpt lat="47.56397" lon="-2.70944">
        <ele>9</ele>
        <time>2026-08-22T12:01:53Z</time>
      </trkpt>
      <trkpt lat="47.56401" lon="-2.70941">
        <ele>8.9</ele>
        <time>2026-08-22T12:01:54Z</time>
      </trkpt>
      <trkpt lat="47.56406" lon="-2.70938">
        <ele>8.9</ele>
        <time>2026-08-22T12:01:55Z</time>
      </trkpt>
      <trkpt lat="47.56411" lon="-2.70935">
        <ele>8.7</ele>
        <time>2026-08-22T12:01:56Z</time>
      </trkpt>
      <trkpt lat="47.56415" lon="-2.70933">
        <ele>8.6</ele>
        <time>2026-08-22T12:01:57Z</time>
      </trkpt>
      <trkpt lat="47.5642" lon="-2.7093">
        <ele>8.5</ele>
        <time>2026-08-22T12:01:58Z</time>
      </trkpt>
      <trkpt lat="47.56425" lon="-2.70927">
        <ele>8.4</ele>
        <time>2026-08-22T12:01:59Z</time>
      </trkpt>
      <trkpt lat="47.5643" lon="-2.70924">
        <ele>8.3</ele>
        <time>2026-08-22T12:02:00Z</time>
      </trkpt>
      <trkpt lat="47.56434" lon="-2.70921">
        <ele>8.2</ele>
        <time>2026-08-22T12:02:01Z</time>
      </trkpt>
      <trkpt lat="47.56439" lon="-2.70918">
        <ele>8</ele>
        <time>2026-08-22T12:02:02Z</time>
      </trkpt>
      <trkpt lat="47.56444" lon="-2.70915">
        <ele>8</ele>
        <time>2026-08-22T12:02:03Z</time>
      </trkpt>
      <trkpt lat="47.56449" lon="-2.70912">
        <ele>8.1</ele>
        <time>2026-08-22T12:02:04Z</time>
      </trkpt>
      <trkpt lat="47.56453" lon="-2.70909">
        <ele>8.2</ele>
        <time>2026-08-22T12:02:05Z</time>
      </trkpt>
      <trkpt lat="47.56458" lon="-2.70906">
        <ele>8.3</ele>
        <time>2026-08-22T12:02:06Z</time>
      </trkpt>
      <trkpt lat="47.56463" lon="-2.70904">
        <ele>8.4</ele>
        <time>2026-08-22T12:02:07Z</time>
      </trkpt>
      <trkpt lat="47.56467" lon="-2.70901">
        <ele>8.4</ele>
        <time>2026-08-22T12:02:08Z</time>
      </trkpt>
      <trkpt lat="47.56472" lon="-2.70898">
        <ele>8.3</ele>
        <time>2026-08-22T12:02:09Z</time>
      </trkpt>
      <trkpt lat="47.56477" lon="-2.70895">
        <ele>8.4</ele>
        <time>2026-08-22T12:02:10Z</time>
      </trkpt>
      <trkpt lat="47.56481" lon="-2.70892">
        <ele>8.4</ele>
        <time>2026-08-22T12:02:11Z</time>
      </trkpt>
      <trkpt lat="47.56486" lon="-2.70889">
        <ele>8.5</ele>
        <time>2026-08-22T12:02:12Z</time>
      </trkpt>
      <trkpt lat="47.5649" lon="-2.70886">
        <ele>8.7</ele>
        <time>2026-08-22T12:02:13Z</time>
      </trkpt>
      <trkpt lat="47.56494" lon="-2.70884">
        <ele>8.8</ele>
        <time>2026-08-22T12:02:14Z</time>
      </trkpt>
      <trkpt lat="47.56499" lon="-2.70881">
        <ele>9</ele>
        <time>2026-08-22T12:02:15Z</time>
      </trkpt>
      <trkpt lat="47.56503" lon="-2.70878">
        <ele>9</ele>
        <time>2026-08-22T12:02:16Z</time>
      </trkpt>
      <trkpt lat="47.56507" lon="-2.70876">
        <ele>9</ele>
        <time>2026-08-22T12:02:17Z</time>
      </trkpt>
      <trkpt lat="47.56512" lon="-2.70873">
        <ele>9</ele>
        <time>2026-08-22T12:02:18Z</time>
      </trkpt>
      <trkpt lat="47.56516" lon="-2.7087">
        <ele>9</ele>
        <time>2026-08-22T12:02:19Z</time>
      </trkpt>
      <trkpt lat="47.5652" lon="-2.70868">
        <ele>9</ele>
        <time>2026-08-22T12:02:20Z</time>
      </trkpt>
      <trkpt lat="47.56524" lon="-2.70865">
        <ele>9</ele>
        <time>2026-08-22T12:02:21Z</time>
      </trkpt>
      <trkpt lat="47.56529" lon="-2.70863">
        <ele>9</ele>
        <time>2026-08-22T12:02:22Z</time>
      </trkpt>
      <trkpt lat="47.56532" lon="-2.70861">
        <ele>9</ele>
        <time>2026-08-22T12:02:23Z</time>
      </trkpt>
      <trkpt lat="47.56536" lon="-2.70858">
        <ele>9</ele>
        <time>2026-08-22T12:02:24Z</time>
      </trkpt>
      <trkpt lat="47.5654" lon="-2.70855">
        <ele>9</ele>
        <time>2026-08-22T12:02:25Z</time>
      </trkpt>
      <trkpt lat="47.56544" lon="-2.70853">
        <ele>9</ele>
        <time>2026-08-22T12:02:26Z</time>
      </trkpt>
      <trkpt lat="47.56548" lon="-2.70851">
        <ele>9</ele>
        <time>2026-08-22T12:02:27Z</time>
      </trkpt>
      <trkpt lat="47.56552" lon="-2.70849">
        <ele>9</ele>
        <time>2026-08-22T12:02:28Z</time>
      </trkpt>
      <trkpt lat="47.56556" lon="-2.70846">
        <ele>9</ele>
        <time>2026-08-22T12:02:29Z</time>
      </trkpt>
      <trkpt lat="47.5656" lon="-2.70844">
        <ele>9</ele>
        <time>2026-08-22T12:02:30Z</time>
      </trkpt>
      <trkpt lat="47.56564" lon="-2.70842">
        <ele>9</ele>
        <time>2026-08-22T12:02:31Z</time>
      </trkpt>
      <trkpt lat="47.56568" lon="-2.7084">
        <ele>9</ele>
        <time>2026-08-22T12:02:32Z</time>
      </trkpt>
      <trkpt lat="47.56572" lon="-2.70837">
        <ele>9</ele>
        <time>2026-08-22T12:02:33Z</time>
      </trkpt>
      <trkpt lat="47.56576" lon="-2.70835">
        <ele>9</ele>
        <time>2026-08-22T12:02:34Z</time>
      </trkpt>
      <trkpt lat="47.56579" lon="-2.70832">
        <ele>9</ele>
        <time>2026-08-22T12:02:35Z</time>
      </trkpt>
      <trkpt lat="47.56583" lon="-2.7083">
        <ele>9.1</ele>
        <time>2026-08-22T12:02:36Z</time>
      </trkpt>
      <trkpt lat="47.56587" lon="-2.70828">
        <ele>9.2</ele>
        <time>2026-08-22T12:02:37Z</time>
      </trkpt>
      <trkpt lat="47.5659" lon="-2.70826">
        <ele>9.3</ele>
        <time>2026-08-22T12:02:38Z</time>
      </trkpt>
      <trkpt lat="47.56594" lon="-2.70824">
        <ele>9.3</ele>
        <time>2026-08-22T12:02:39Z</time>
      </trkpt>
      <trkpt lat="47.56597" lon="-2.70821">
        <ele>9.4</ele>
        <time>2026-08-22T12:02:40Z</time>
      </trkpt>
      <trkpt lat="47.56601" lon="-2.70819">
        <ele>9.5</ele>
        <time>2026-08-22T12:02:41Z</time>
      </trkpt>
      <trkpt lat="47.56605" lon="-2.70816">
        <ele>9.6</ele>
        <time>2026-08-22T12:02:42Z</time>
      </trkpt>
      <trkpt lat="47.56609" lon="-2.70814">
        <ele>9.7</ele>
        <time>2026-08-22T12:02:43Z</time>
      </trkpt>
      <trkpt lat="47.56613" lon="-2.7081">
        <ele>9.9</ele>
        <time>2026-08-22T12:02:44Z</time>
      </trkpt>
      <trkpt lat="47.56617" lon="-2.70807">
        <ele>10</ele>
        <time>2026-08-22T12:02:45Z</time>
      </trkpt>
      <trkpt lat="47.56621" lon="-2.70803">
        <ele>10.1</ele>
        <time>2026-08-22T12:02:46Z</time>
      </trkpt>
      <trkpt lat="47.56625" lon="-2.708">
        <ele>10.2</ele>
        <time>2026-08-22T12:02:47Z</time>
      </trkpt>
      <trkpt lat="47.56629" lon="-2.70796">
        <ele>10.3</ele>
        <time>2026-08-22T12:02:48Z</time>
      </trkpt>
      <trkpt lat="47.56632" lon="-2.70792">
        <ele>10.5</ele>
        <time>2026-08-22T12:02:49Z</time>
      </trkpt>
      <trkpt lat="47.56636" lon="-2.70788">
        <ele>10.6</ele>
        <time>2026-08-22T12:02:50Z</time>
      </trkpt>
      <trkpt lat="47.56639" lon="-2.70785">
        <ele>10.7</ele>
        <time>2026-08-22T12:02:51Z</time>
      </trkpt>
      <trkpt lat="47.56642" lon="-2.70781">
        <ele>10.9</ele>
        <time>2026-08-22T12:02:52Z</time>
      </trkpt>
      <trkpt lat="47.56646" lon="-2.70777">
        <ele>11</ele>
        <time>2026-08-22T12:02:53Z</time>
      </trkpt>
      <trkpt lat="47.56648" lon="-2.70773">
        <ele>10.9</ele>
        <time>2026-08-22T12:02:54Z</time>
      </trkpt>
      <trkpt lat="47.56652" lon="-2.7077">
        <ele>10.9</ele>
        <time>2026-08-22T12:02:55Z</time>
      </trkpt>
      <trkpt lat="47.56655" lon="-2.70766">
        <ele>10.8</ele>
        <time>2026-08-22T12:02:56Z</time>
      </trkpt>
      <trkpt lat="47.56658" lon="-2.70762">
        <ele>10.6</ele>
        <time>2026-08-22T12:02:57Z</time>
      </trkpt>
      <trkpt lat="47.56661" lon="-2.70757">
        <ele>10.4</ele>
        <time>2026-08-22T12:02:58Z</time>
      </trkpt>
      <trkpt lat="47.56665" lon="-2.70753">
        <ele>10.2</ele>
        <time>2026-08-22T12:02:59Z</time>
      </trkpt>
      <trkpt lat="47.56668" lon="-2.7075">
        <ele>10</ele>
        <time>2026-08-22T12:03:00Z</time>
      </trkpt>
      <trkpt lat="47.56671" lon="-2.70746">
        <ele>10.3</ele>
        <time>2026-08-22T12:03:01Z</time>
      </trkpt>
      <trkpt lat="47.56674" lon="-2.70742">
        <ele>10.5</ele>
        <time>2026-08-22T12:03:02Z</time>
      </trkpt>
      <trkpt lat="47.56677" lon="-2.70738">
        <ele>10.6</ele>
        <time>2026-08-22T12:03:03Z</time>
      </trkpt>
      <trkpt lat="47.5668" lon="-2.70735">
        <ele>10.8</ele>
        <time>2026-08-22T12:03:04Z</time>
      </trkpt>
      <trkpt lat="47.56682" lon="-2.70731">
        <ele>10.9</ele>
        <time>2026-08-22T12:03:05Z</time>
      </trkpt>
      <trkpt lat="47.56685" lon="-2.70727">
        <ele>10.9</ele>
        <time>2026-08-22T12:03:06Z</time>
      </trkpt>
      <trkpt lat="47.56688" lon="-2.70723">
        <ele>11</ele>
        <time>2026-08-22T12:03:07Z</time>
      </trkpt>
      <trkpt lat="47.56691" lon="-2.70719">
        <ele>11.1</ele>
        <time>2026-08-22T12:03:08Z</time>
      </trkpt>
      <trkpt lat="47.56694" lon="-2.70715">
        <ele>11.3</ele>
        <time>2026-08-22T12:03:09Z</time>
      </trkpt>
      <trkpt lat="47.56697" lon="-2.70712">
        <ele>11.4</ele>
        <time>2026-08-22T12:03:10Z</time>
      </trkpt>
      <trkpt lat="47.567" lon="-2.70708">
        <ele>11.6</ele>
        <time>2026-08-22T12:03:11Z</time>
      </trkpt>
      <trkpt lat="47.56703" lon="-2.70704">
        <ele>11.8</ele>
        <time>2026-08-22T12:03:12Z</time>
      </trkpt>
      <trkpt lat="47.56705" lon="-2.707">
        <ele>11.9</ele>
        <time>2026-08-22T12:03:13Z</time>
      </trkpt>
      <trkpt lat="47.56708" lon="-2.70696">
        <ele>12</ele>
        <time>2026-08-22T12:03:14Z</time>
      </trkpt>
      <trkpt lat="47.5671" lon="-2.70692">
        <ele>12</ele>
        <time>2026-08-22T12:03:15Z</time>
      </trkpt>
      <trkpt lat="47.56713" lon="-2.70688">
        <ele>12</ele>
        <time>2026-08-22T12:03:16Z</time>
      </trkpt>
      <trkpt lat="47.56714" lon="-2.70683">
        <ele>12</ele>
        <time>2026-08-22T12:03:17Z</time>
      </trkpt>
      <trkpt lat="47.56716" lon="-2.70679">
        <ele>12</ele>
        <time>2026-08-22T12:03:18Z</time>
      </trkpt>
      <trkpt lat="47.56717" lon="-2.70674">
        <ele>12</ele>
        <time>2026-08-22T12:03:19Z</time>
      </trkpt>
      <trkpt lat="47.56717" lon="-2.7067">
        <ele>12</ele>
        <time>2026-08-22T12:03:20Z</time>
      </trkpt>
      <trkpt lat="47.56718" lon="-2.70666">
        <ele>12</ele>
        <time>2026-08-22T12:03:21Z</time>
      </trkpt>
      <trkpt lat="47.56718" lon="-2.70662">
        <ele>12</ele>
        <time>2026-08-22T12:03:22Z</time>
      </trkpt>
      <trkpt lat="47.56719" lon="-2.70659">
        <ele>12</ele>
        <time>2026-08-22T12:03:23Z</time>
      </trkpt>
      <trkpt lat="47.56719" lon="-2.70658">
        <ele>12</ele>
        <time>2026-08-22T12:03:24Z</time>
      </trkpt>
      <trkpt lat="47.5672" lon="-2.70656">
        <ele>12</ele>
        <time>2026-08-22T12:03:25Z</time>
      </trkpt>
      <trkpt lat="47.5672" lon="-2.70655">
        <ele>12</ele>
        <time>2026-08-22T12:03:26Z</time>
      </trkpt>
      <trkpt lat="47.56721" lon="-2.70654">
        <ele>12</ele>
        <time>2026-08-22T12:03:27Z</time>
      </trkpt>
      <trkpt lat="47.56724" lon="-2.7065">
        <ele>12</ele>
        <time>2026-08-22T12:03:30Z</time>
      </trkpt>
      <trkpt lat="47.56725" lon="-2.70648">
        <ele>12</ele>
        <time>2026-08-22T12:03:31Z</time>
      </trkpt>
      <trkpt lat="47.56727" lon="-2.70644">
        <ele>12</ele>
        <time>2026-08-22T12:03:32Z</time>
      </trkpt>
      <trkpt lat="47.56729" lon="-2.70641">
        <ele>12</ele>
        <time>2026-08-22T12:03:33Z</time>
      </trkpt>
      <trkpt lat="47.56731" lon="-2.70638">
        <ele>12</ele>
        <time>2026-08-22T12:03:34Z</time>
      </trkpt>
      <trkpt lat="47.56734" lon="-2.70635">
        <ele>12.1</ele>
        <time>2026-08-22T12:03:35Z</time>
      </trkpt>
      <trkpt lat="47.56737" lon="-2.70633">
        <ele>12.1</ele>
        <time>2026-08-22T12:03:36Z</time>
      </trkpt>
      <trkpt lat="47.5674" lon="-2.70631">
        <ele>12.1</ele>
        <time>2026-08-22T12:03:37Z</time>
      </trkpt>
      <trkpt lat="47.56743" lon="-2.70629">
        <ele>12.1</ele>
        <time>2026-08-22T12:03:38Z</time>
      </trkpt>
      <trkpt lat="47.56746" lon="-2.70626">
        <ele>12.1</ele>
        <time>2026-08-22T12:03:39Z</time>
      </trkpt>
      <trkpt lat="47.56749" lon="-2.70623">
        <ele>12</ele>
        <time>2026-08-22T12:03:40Z</time>
      </trkpt>
      <trkpt lat="47.56752" lon="-2.70621">
        <ele>12</ele>
        <time>2026-08-22T12:03:41Z</time>
      </trkpt>
      <trkpt lat="47.56755" lon="-2.70621">
        <ele>12</ele>
        <time>2026-08-22T12:03:42Z</time>
      </trkpt>
      <trkpt lat="47.56758" lon="-2.70622">
        <ele>12</ele>
        <time>2026-08-22T12:03:43Z</time>
      </trkpt>
      <trkpt lat="47.56761" lon="-2.70624">
        <ele>12</ele>
        <time>2026-08-22T12:03:44Z</time>
      </trkpt>
      <trkpt lat="47.56765" lon="-2.70625">
        <ele>12</ele>
        <time>2026-08-22T12:03:45Z</time>
      </trkpt>
      <trkpt lat="47.56767" lon="-2.70627">
        <ele>12</ele>
        <time>2026-08-22T12:03:46Z</time>
      </trkpt>
      <trkpt lat="47.5677" lon="-2.70629">
        <ele>12</ele>
        <time>2026-08-22T12:03:47Z</time>
      </trkpt>
      <trkpt lat="47.56773" lon="-2.7063">
        <ele>12</ele>
        <time>2026-08-22T12:03:48Z</time>
      </trkpt>
      <trkpt lat="47.56776" lon="-2.7063">
        <ele>12</ele>
        <time>2026-08-22T12:03:49Z</time>
      </trkpt>
      <trkpt lat="47.5678" lon="-2.70629">
        <ele>11.9</ele>
        <time>2026-08-22T12:03:50Z</time>
      </trkpt>
      <trkpt lat="47.56784" lon="-2.70629">
        <ele>11.9</ele>
        <time>2026-08-22T12:03:51Z</time>
      </trkpt>
      <trkpt lat="47.56788" lon="-2.7063">
        <ele>11.7</ele>
        <time>2026-08-22T12:03:52Z</time>
      </trkpt>
      <trkpt lat="47.56792" lon="-2.70632">
        <ele>11.6</ele>
        <time>2026-08-22T12:03:53Z</time>
      </trkpt>
      <trkpt lat="47.56796" lon="-2.70633">
        <ele>11.5</ele>
        <time>2026-08-22T12:03:54Z</time>
      </trkpt>
      <trkpt lat="47.568" lon="-2.70635">
        <ele>11.3</ele>
        <time>2026-08-22T12:03:55Z</time>
      </trkpt>
      <trkpt lat="47.56804" lon="-2.70637">
        <ele>11.1</ele>
        <time>2026-08-22T12:03:56Z</time>
      </trkpt>
      <trkpt lat="47.56809" lon="-2.70638">
        <ele>11</ele>
        <time>2026-08-22T12:03:57Z</time>
      </trkpt>
      <trkpt lat="47.56813" lon="-2.70639">
        <ele>11</ele>
        <time>2026-08-22T12:03:58Z</time>
      </trkpt>
      <trkpt lat="47.56818" lon="-2.70641">
        <ele>11</ele>
        <time>2026-08-22T12:03:59Z</time>
      </trkpt>
      <trkpt lat="47.56822" lon="-2.70642">
        <ele>11</ele>
        <time>2026-08-22T12:04:00Z</time>
      </trkpt>
      <trkpt lat="47.56827" lon="-2.70643">
        <ele>11</ele>
        <time>2026-08-22T12:04:01Z</time>
      </trkpt>
      <trkpt lat="47.56831" lon="-2.70643">
        <ele>11</ele>
        <time>2026-08-22T12:04:02Z</time>
      </trkpt>
      <trkpt lat="47.56836" lon="-2.70643">
        <ele>11</ele>
        <time>2026-08-22T12:04:03Z</time>
      </trkpt>
      <trkpt lat="47.56841" lon="-2.70643">
        <ele>11</ele>
        <time>2026-08-22T12:04:04Z</time>
      </trkpt>
      <trkpt lat="47.56845" lon="-2.70642">
        <ele>11</ele>
        <time>2026-08-22T12:04:05Z</time>
      </trkpt>
      <trkpt lat="47.5685" lon="-2.70642">
        <ele>11</ele>
        <time>2026-08-22T12:04:06Z</time>
      </trkpt>
      <trkpt lat="47.56854" lon="-2.70641">
        <ele>11</ele>
        <time>2026-08-22T12:04:07Z</time>
      </trkpt>
      <trkpt lat="47.56858" lon="-2.7064">
        <ele>11</ele>
        <time>2026-08-22T12:04:08Z</time>
      </trkpt>
      <trkpt lat="47.56863" lon="-2.70639">
        <ele>11.1</ele>
        <time>2026-08-22T12:04:09Z</time>
      </trkpt>
      <trkpt lat="47.56867" lon="-2.70639">
        <ele>11.2</ele>
        <time>2026-08-22T12:04:10Z</time>
      </trkpt>
      <trkpt lat="47.56872" lon="-2.70638">
        <ele>11.4</ele>
        <time>2026-08-22T12:04:11Z</time>
      </trkpt>
      <trkpt lat="47.56876" lon="-2.70638">
        <ele>11.6</ele>
        <time>2026-08-22T12:04:12Z</time>
      </trkpt>
      <trkpt lat="47.5688" lon="-2.70638">
        <ele>11.7</ele>
        <time>2026-08-22T12:04:13Z</time>
      </trkpt>
      <trkpt lat="47.56885" lon="-2.70637">
        <ele>11.9</ele>
        <time>2026-08-22T12:04:14Z</time>
      </trkpt>
      <trkpt lat="47.56889" lon="-2.70636">
        <ele>12</ele>
        <time>2026-08-22T12:04:15Z</time>
      </trkpt>
      <trkpt lat="47.56893" lon="-2.70636">
        <ele>11.9</ele>
        <time>2026-08-22T12:04:16Z</time>
      </trkpt>
      <trkpt lat="47.56898" lon="-2.70635">
        <ele>11.7</ele>
        <time>2026-08-22T12:04:17Z</time>
      </trkpt>
      <trkpt lat="47.56902" lon="-2.70634">
        <ele>11.6</ele>
        <time>2026-08-22T12:04:18Z</time>
      </trkpt>
      <trkpt lat="47.56906" lon="-2.70632">
        <ele>11.5</ele>
        <time>2026-08-22T12:04:19Z</time>
      </trkpt>
      <trkpt lat="47.5691" lon="-2.7063">
        <ele>11.5</ele>
        <time>2026-08-22T12:04:20Z</time>
      </trkpt>
      <trkpt lat="47.56915" lon="-2.70629">
        <ele>11.4</ele>
        <time>2026-08-22T12:04:21Z</time>
      </trkpt>
      <trkpt lat="47.56919" lon="-2.70626">
        <ele>11.4</ele>
        <time>2026-08-22T12:04:22Z</time>
      </trkpt>
      <trkpt lat="47.56923" lon="-2.70624">
        <ele>11.4</ele>
        <time>2026-08-22T12:04:23Z</time>
      </trkpt>
      <trkpt lat="47.56927" lon="-2.70622">
        <ele>11.4</ele>
        <time>2026-08-22T12:04:24Z</time>
      </trkpt>
      <trkpt lat="47.56931" lon="-2.7062">
        <ele>11.3</ele>
        <time>2026-08-22T12:04:25Z</time>
      </trkpt>
      <trkpt lat="47.56935" lon="-2.70617">
        <ele>11.3</ele>
        <time>2026-08-22T12:04:26Z</time>
      </trkpt>
      <trkpt lat="47.56939" lon="-2.70615">
        <ele>11.2</ele>
        <time>2026-08-22T12:04:27Z</time>
      </trkpt>
      <trkpt lat="47.56943" lon="-2.70612">
        <ele>11.1</ele>
        <time>2026-08-22T12:04:28Z</time>
      </trkpt>
      <trkpt lat="47.56947" lon="-2.7061">
        <ele>11</ele>
        <time>2026-08-22T12:04:29Z</time>
      </trkpt>
      <trkpt lat="47.56951" lon="-2.70608">
        <ele>11.1</ele>
        <time>2026-08-22T12:04:30Z</time>
      </trkpt>
      <trkpt lat="47.56955" lon="-2.70606">
        <ele>11.1</ele>
        <time>2026-08-22T12:04:31Z</time>
      </trkpt>
      <trkpt lat="47.56959" lon="-2.70603">
        <ele>11.1</ele>
        <time>2026-08-22T12:04:32Z</time>
      </trkpt>
      <trkpt lat="47.56963" lon="-2.70601">
        <ele>11.1</ele>
        <time>2026-08-22T12:04:33Z</time>
      </trkpt>
      <trkpt lat="47.56967" lon="-2.70598">
        <ele>11.1</ele>
        <time>2026-08-22T12:04:34Z</time>
      </trkpt>
      <trkpt lat="47.56972" lon="-2.70596">
        <ele>11</ele>
        <time>2026-08-22T12:04:35Z</time>
      </trkpt>
      <trkpt lat="47.56976" lon="-2.70594">
        <ele>11.1</ele>
        <time>2026-08-22T12:04:36Z</time>
      </trkpt>
      <trkpt lat="47.5698" lon="-2.70592">
        <ele>11.1</ele>
        <time>2026-08-22T12:04:37Z</time>
      </trkpt>
      <trkpt lat="47.56984" lon="-2.70589">
        <ele>11.1</ele>
        <time>2026-08-22T12:04:38Z</time>
      </trkpt>
      <trkpt lat="47.56988" lon="-2.70587">
        <ele>11.1</ele>
        <time>2026-08-22T12:04:39Z</time>
      </trkpt>
      <trkpt lat="47.56992" lon="-2.70584">
        <ele>11</ele>
        <time>2026-08-22T12:04:40Z</time>
      </trkpt>
      <trkpt lat="47.56996" lon="-2.70582">
        <ele>11</ele>
        <time>2026-08-22T12:04:41Z</time>
      </trkpt>
      <trkpt lat="47.57" lon="-2.70579">
        <ele>11.2</ele>
        <time>2026-08-22T12:04:42Z</time>
      </trkpt>
      <trkpt lat="47.57004" lon="-2.70577">
        <ele>11.3</ele>
        <time>2026-08-22T12:04:43Z</time>
      </trkpt>
      <trkpt lat="47.57008" lon="-2.70575">
        <ele>11.4</ele>
        <time>2026-08-22T12:04:44Z</time>
      </trkpt>
      <trkpt lat="47.57013" lon="-2.70572">
        <ele>11.5</ele>
        <time>2026-08-22T12:04:45Z</time>
      </trkpt>
      <trkpt lat="47.57017" lon="-2.7057">
        <ele>11.5</ele>
        <time>2026-08-22T12:04:46Z</time>
      </trkpt>
      <trkpt lat="47.57021" lon="-2.70568">
        <ele>11.5</ele>
        <time>2026-08-22T12:04:47Z</time>
      </trkpt>
      <trkpt lat="47.57026" lon="-2.70565">
        <ele>11.4</ele>
        <time>2026-08-22T12:04:48Z</time>
      </trkpt>
      <trkpt lat="47.5703" lon="-2.70563">
        <ele>11.2</ele>
        <time>2026-08-22T12:04:49Z</time>
      </trkpt>
      <trkpt lat="47.57034" lon="-2.7056">
        <ele>11.1</ele>
        <time>2026-08-22T12:04:50Z</time>
      </trkpt>
      <trkpt lat="47.57038" lon="-2.70558">
        <ele>11.1</ele>
        <time>2026-08-22T12:04:51Z</time>
      </trkpt>
      <trkpt lat="47.57042" lon="-2.70555">
        <ele>11</ele>
        <time>2026-08-22T12:04:52Z</time>
      </trkpt>
      <trkpt lat="47.57046" lon="-2.70553">
        <ele>11</ele>
        <time>2026-08-22T12:04:53Z</time>
      </trkpt>
      <trkpt lat="47.5705" lon="-2.70551">
        <ele>11</ele>
        <time>2026-08-22T12:04:54Z</time>
      </trkpt>
      <trkpt lat="47.57055" lon="-2.70549">
        <ele>11</ele>
        <time>2026-08-22T12:04:55Z</time>
      </trkpt>
      <trkpt lat="47.57059" lon="-2.70547">
        <ele>11.1</ele>
        <time>2026-08-22T12:04:56Z</time>
      </trkpt>
      <trkpt lat="47.57062" lon="-2.70544">
        <ele>11.1</ele>
        <time>2026-08-22T12:04:57Z</time>
      </trkpt>
      <trkpt lat="47.57066" lon="-2.70542">
        <ele>11.2</ele>
        <time>2026-08-22T12:04:58Z</time>
      </trkpt>
      <trkpt lat="47.5707" lon="-2.7054">
        <ele>11.2</ele>
        <time>2026-08-22T12:04:59Z</time>
      </trkpt>
      <trkpt lat="47.57074" lon="-2.70537">
        <ele>11.2</ele>
        <time>2026-08-22T12:05:00Z</time>
      </trkpt>
      <trkpt lat="47.57079" lon="-2.70535">
        <ele>11.2</ele>
        <time>2026-08-22T12:05:01Z</time>
      </trkpt>
      <trkpt lat="47.57083" lon="-2.70533">
        <ele>11.2</ele>
        <time>2026-08-22T12:05:02Z</time>
      </trkpt>
      <trkpt lat="47.57087" lon="-2.70531">
        <ele>11.2</ele>
        <time>2026-08-22T12:05:03Z</time>
      </trkpt>
      <trkpt lat="47.57091" lon="-2.70528">
        <ele>11.3</ele>
        <time>2026-08-22T12:05:04Z</time>
      </trkpt>
      <trkpt lat="47.57095" lon="-2.70526">
        <ele>11.4</ele>
        <time>2026-08-22T12:05:05Z</time>
      </trkpt>
      <trkpt lat="47.57099" lon="-2.70524">
        <ele>11.5</ele>
        <time>2026-08-22T12:05:06Z</time>
      </trkpt>
      <trkpt lat="47.57103" lon="-2.70521">
        <ele>11.6</ele>
        <time>2026-08-22T12:05:07Z</time>
      </trkpt>
      <trkpt lat="47.57107" lon="-2.70519">
        <ele>11.6</ele>
        <time>2026-08-22T12:05:08Z</time>
      </trkpt>
      <trkpt lat="47.57112" lon="-2.70517">
        <ele>11.6</ele>
        <time>2026-08-22T12:05:09Z</time>
      </trkpt>
      <trkpt lat="47.57116" lon="-2.70514">
        <ele>11.4</ele>
        <time>2026-08-22T12:05:10Z</time>
      </trkpt>
      <trkpt lat="47.5712" lon="-2.70512">
        <ele>11.3</ele>
        <time>2026-08-22T12:05:11Z</time>
      </trkpt>
      <trkpt lat="47.57124" lon="-2.70509">
        <ele>11.2</ele>
        <time>2026-08-22T12:05:12Z</time>
      </trkpt>
      <trkpt lat="47.57128" lon="-2.70507">
        <ele>11.1</ele>
        <time>2026-08-22T12:05:13Z</time>
      </trkpt>
      <trkpt lat="47.57132" lon="-2.70504">
        <ele>11</ele>
        <time>2026-08-22T12:05:14Z</time>
      </trkpt>
      <trkpt lat="47.57136" lon="-2.70501">
        <ele>11</ele>
        <time>2026-08-22T12:05:15Z</time>
      </trkpt>
      <trkpt lat="47.5714" lon="-2.70499">
        <ele>11</ele>
        <time>2026-08-22T12:05:16Z</time>
      </trkpt>
      <trkpt lat="47.57144" lon="-2.70497">
        <ele>11.2</ele>
        <time>2026-08-22T12:05:17Z</time>
      </trkpt>
      <trkpt lat="47.57148" lon="-2.70494">
        <ele>11.3</ele>
        <time>2026-08-22T12:05:18Z</time>
      </trkpt>
      <trkpt lat="47.57152" lon="-2.70491">
        <ele>11.3</ele>
        <time>2026-08-22T12:05:19Z</time>
      </trkpt>
      <trkpt lat="47.57156" lon="-2.70488">
        <ele>11.3</ele>
        <time>2026-08-22T12:05:20Z</time>
      </trkpt>
      <trkpt lat="47.5716" lon="-2.70486">
        <ele>11.4</ele>
        <time>2026-08-22T12:05:21Z</time>
      </trkpt>
      <trkpt lat="47.57164" lon="-2.70483">
        <ele>11.4</ele>
        <time>2026-08-22T12:05:22Z</time>
      </trkpt>
      <trkpt lat="47.57168" lon="-2.7048">
        <ele>11.3</ele>
        <time>2026-08-22T12:05:23Z</time>
      </trkpt>
      <trkpt lat="47.57172" lon="-2.70477">
        <ele>11.3</ele>
        <time>2026-08-22T12:05:24Z</time>
      </trkpt>
      <trkpt lat="47.57176" lon="-2.70474">
        <ele>11.4</ele>
        <time>2026-08-22T12:05:25Z</time>
      </trkpt>
      <trkpt lat="47.5718" lon="-2.70471">
        <ele>11.5</ele>
        <time>2026-08-22T12:05:26Z</time>
      </trkpt>
      <trkpt lat="47.57184" lon="-2.70468">
        <ele>11.7</ele>
        <time>2026-08-22T12:05:27Z</time>
      </trkpt>
      <trkpt lat="47.57188" lon="-2.70466">
        <ele>11.8</ele>
        <time>2026-08-22T12:05:28Z</time>
      </trkpt>
      <trkpt lat="47.57192" lon="-2.70463">
        <ele>11.9</ele>
        <time>2026-08-22T12:05:29Z</time>
      </trkpt>
      <trkpt lat="47.57195" lon="-2.7046">
        <ele>12</ele>
        <time>2026-08-22T12:05:30Z</time>
      </trkpt>
      <trkpt lat="47.57199" lon="-2.70457">
        <ele>12</ele>
        <time>2026-08-22T12:05:31Z</time>
      </trkpt>
      <trkpt lat="47.57203" lon="-2.70454">
        <ele>12</ele>
        <time>2026-08-22T12:05:32Z</time>
      </trkpt>
      <trkpt lat="47.57207" lon="-2.70451">
        <ele>12</ele>
        <time>2026-08-22T12:05:33Z</time>
      </trkpt>
      <trkpt lat="47.5721" lon="-2.70448">
        <ele>12</ele>
        <time>2026-08-22T12:05:34Z</time>
      </trkpt>
      <trkpt lat="47.57214" lon="-2.70445">
        <ele>12</ele>
        <time>2026-08-22T12:05:35Z</time>
      </trkpt>
      <trkpt lat="47.57218" lon="-2.70442">
        <ele>12</ele>
        <time>2026-08-22T12:05:36Z</time>
      </trkpt>
      <trkpt lat="47.57222" lon="-2.70439">
        <ele>12</ele>
        <time>2026-08-22T12:05:37Z</time>
      </trkpt>
      <trkpt lat="47.57225" lon="-2.70436">
        <ele>12</ele>
        <time>2026-08-22T12:05:38Z</time>
      </trkpt>
      <trkpt lat="47.57229" lon="-2.70433">
        <ele>12</ele>
        <time>2026-08-22T12:05:39Z</time>
      </trkpt>
      <trkpt lat="47.57233" lon="-2.7043">
        <ele>12</ele>
        <time>2026-08-22T12:05:40Z</time>
      </trkpt>
      <trkpt lat="47.57236" lon="-2.70427">
        <ele>12</ele>
        <time>2026-08-22T12:05:41Z</time>
      </trkpt>
      <trkpt lat="47.5724" lon="-2.70424">
        <ele>12</ele>
        <time>2026-08-22T12:05:42Z</time>
      </trkpt>
      <trkpt lat="47.57244" lon="-2.70421">
        <ele>12</ele>
        <time>2026-08-22T12:05:43Z</time>
      </trkpt>
      <trkpt lat="47.57248" lon="-2.70417">
        <ele>12</ele>
        <time>2026-08-22T12:05:44Z</time>
      </trkpt>
      <trkpt lat="47.57251" lon="-2.70414">
        <ele>12.1</ele>
        <time>2026-08-22T12:05:45Z</time>
      </trkpt>
      <trkpt lat="47.57255" lon="-2.70411">
        <ele>12.3</ele>
        <time>2026-08-22T12:05:46Z</time>
      </trkpt>
      <trkpt lat="47.57258" lon="-2.70407">
        <ele>12.5</ele>
        <time>2026-08-22T12:05:47Z</time>
      </trkpt>
      <trkpt lat="47.57262" lon="-2.70404">
        <ele>12.7</ele>
        <time>2026-08-22T12:05:48Z</time>
      </trkpt>
      <trkpt lat="47.57265" lon="-2.70401">
        <ele>12.8</ele>
        <time>2026-08-22T12:05:49Z</time>
      </trkpt>
      <trkpt lat="47.57269" lon="-2.70397">
        <ele>12.9</ele>
        <time>2026-08-22T12:05:50Z</time>
      </trkpt>
      <trkpt lat="47.57272" lon="-2.70394">
        <ele>13</ele>
        <time>2026-08-22T12:05:51Z</time>
      </trkpt>
      <trkpt lat="47.57276" lon="-2.70391">
        <ele>13</ele>
        <time>2026-08-22T12:05:52Z</time>
      </trkpt>
      <trkpt lat="47.5728" lon="-2.70388">
        <ele>13</ele>
        <time>2026-08-22T12:05:53Z</time>
      </trkpt>
      <trkpt lat="47.57283" lon="-2.70384">
        <ele>13</ele>
        <time>2026-08-22T12:05:54Z</time>
      </trkpt>
      <trkpt lat="47.57287" lon="-2.70381">
        <ele>12.9</ele>
        <time>2026-08-22T12:05:55Z</time>
      </trkpt>
      <trkpt lat="47.5729" lon="-2.70377">
        <ele>12.8</ele>
        <time>2026-08-22T12:05:56Z</time>
      </trkpt>
      <trkpt lat="47.57293" lon="-2.70374">
        <ele>12.7</ele>
        <time>2026-08-22T12:05:57Z</time>
      </trkpt>
      <trkpt lat="47.57297" lon="-2.7037">
        <ele>12.5</ele>
        <time>2026-08-22T12:05:58Z</time>
      </trkpt>
      <trkpt lat="47.573" lon="-2.70366">
        <ele>12.3</ele>
        <time>2026-08-22T12:05:59Z</time>
      </trkpt>
      <trkpt lat="47.57304" lon="-2.70363">
        <ele>12.1</ele>
        <time>2026-08-22T12:06:00Z</time>
      </trkpt>
      <trkpt lat="47.57308" lon="-2.7036">
        <ele>12.1</ele>
        <time>2026-08-22T12:06:01Z</time>
      </trkpt>
      <trkpt lat="47.57312" lon="-2.70356">
        <ele>12.3</ele>
        <time>2026-08-22T12:06:02Z</time>
      </trkpt>
      <trkpt lat="47.57315" lon="-2.70352">
        <ele>12.3</ele>
        <time>2026-08-22T12:06:03Z</time>
      </trkpt>
      <trkpt lat="47.57319" lon="-2.70347">
        <ele>12.3</ele>
        <time>2026-08-22T12:06:04Z</time>
      </trkpt>
      <trkpt lat="47.57323" lon="-2.70343">
        <ele>12.1</ele>
        <time>2026-08-22T12:06:05Z</time>
      </trkpt>
      <trkpt lat="47.57327" lon="-2.70338">
        <ele>11.7</ele>
        <time>2026-08-22T12:06:06Z</time>
      </trkpt>
      <trkpt lat="47.57332" lon="-2.70333">
        <ele>11.1</ele>
        <time>2026-08-22T12:06:07Z</time>
      </trkpt>
      <trkpt lat="47.57337" lon="-2.70328">
        <ele>11.4</ele>
        <time>2026-08-22T12:06:08Z</time>
      </trkpt>
      <trkpt lat="47.57342" lon="-2.70322">
        <ele>11.7</ele>
        <time>2026-08-22T12:06:09Z</time>
      </trkpt>
      <trkpt lat="47.57346" lon="-2.70318">
        <ele>11.7</ele>
        <time>2026-08-22T12:06:10Z</time>
      </trkpt>
      <trkpt lat="47.57351" lon="-2.70313">
        <ele>11.6</ele>
        <time>2026-08-22T12:06:11Z</time>
      </trkpt>
      <trkpt lat="47.57355" lon="-2.70309">
        <ele>11.4</ele>
        <time>2026-08-22T12:06:12Z</time>
      </trkpt>
      <trkpt lat="47.57359" lon="-2.70306">
        <ele>11.1</ele>
        <time>2026-08-22T12:06:13Z</time>
      </trkpt>
      <trkpt lat="47.57363" lon="-2.70302">
        <ele>11.2</ele>
        <time>2026-08-22T12:06:14Z</time>
      </trkpt>
      <trkpt lat="47.57367" lon="-2.70298">
        <ele>11.6</ele>
        <time>2026-08-22T12:06:15Z</time>
      </trkpt>
      <trkpt lat="47.5737" lon="-2.70294">
        <ele>11.8</ele>
        <time>2026-08-22T12:06:16Z</time>
      </trkpt>
      <trkpt lat="47.57373" lon="-2.7029">
        <ele>11.9</ele>
        <time>2026-08-22T12:06:17Z</time>
      </trkpt>
      <trkpt lat="47.57376" lon="-2.70286">
        <ele>12</ele>
        <time>2026-08-22T12:06:18Z</time>
      </trkpt>
      <trkpt lat="47.57379" lon="-2.70283">
        <ele>12.1</ele>
        <time>2026-08-22T12:06:19Z</time>
      </trkpt>
      <trkpt lat="47.57382" lon="-2.70279">
        <ele>12</ele>
        <time>2026-08-22T12:06:20Z</time>
      </trkpt>
      <trkpt lat="47.57385" lon="-2.70276">
        <ele>12</ele>
        <time>2026-08-22T12:06:21Z</time>
      </trkpt>
      <trkpt lat="47.57387" lon="-2.70273">
        <ele>12</ele>
        <time>2026-08-22T12:06:22Z</time>
      </trkpt>
      <trkpt lat="47.5739" lon="-2.7027">
        <ele>12</ele>
        <time>2026-08-22T12:06:23Z</time>
      </trkpt>
      <trkpt lat="47.57393" lon="-2.70267">
        <ele>12.1</ele>
        <time>2026-08-22T12:06:24Z</time>
      </trkpt>
      <trkpt lat="47.57395" lon="-2.70263">
        <ele>12.1</ele>
        <time>2026-08-22T12:06:25Z</time>
      </trkpt>
      <trkpt lat="47.57398" lon="-2.70259">
        <ele>12.1</ele>
        <time>2026-08-22T12:06:26Z</time>
      </trkpt>
      <trkpt lat="47.57401" lon="-2.70255">
        <ele>12.1</ele>
        <time>2026-08-22T12:06:27Z</time>
      </trkpt>
      <trkpt lat="47.57404" lon="-2.7025">
        <ele>12</ele>
        <time>2026-08-22T12:06:28Z</time>
      </trkpt>
      <trkpt lat="47.57408" lon="-2.70246">
        <ele>12</ele>
        <time>2026-08-22T12:06:29Z</time>
      </trkpt>
      <trkpt lat="47.57411" lon="-2.70242">
        <ele>12</ele>
        <time>2026-08-22T12:06:30Z</time>
      </trkpt>
      <trkpt lat="47.57415" lon="-2.70237">
        <ele>12</ele>
        <time>2026-08-22T12:06:31Z</time>
      </trkpt>
      <trkpt lat="47.57419" lon="-2.70233">
        <ele>12</ele>
        <time>2026-08-22T12:06:32Z</time>
      </trkpt>
      <trkpt lat="47.57422" lon="-2.7023">
        <ele>12</ele>
        <time>2026-08-22T12:06:33Z</time>
      </trkpt>
      <trkpt lat="47.57426" lon="-2.70226">
        <ele>12</ele>
        <time>2026-08-22T12:06:34Z</time>
      </trkpt>
      <trkpt lat="47.5743" lon="-2.70222">
        <ele>12</ele>
        <time>2026-08-22T12:06:35Z</time>
      </trkpt>
      <trkpt lat="47.57433" lon="-2.70218">
        <ele>12</ele>
        <time>2026-08-22T12:06:36Z</time>
      </trkpt>
      <trkpt lat="47.57436" lon="-2.70214">
        <ele>12</ele>
        <time>2026-08-22T12:06:37Z</time>
      </trkpt>
      <trkpt lat="47.57439" lon="-2.7021">
        <ele>12</ele>
        <time>2026-08-22T12:06:38Z</time>
      </trkpt>
      <trkpt lat="47.57442" lon="-2.70206">
        <ele>12</ele>
        <time>2026-08-22T12:06:39Z</time>
      </trkpt>
      <trkpt lat="47.57446" lon="-2.70202">
        <ele>12</ele>
        <time>2026-08-22T12:06:40Z</time>
      </trkpt>
      <trkpt lat="47.57449" lon="-2.70198">
        <ele>12.1</ele>
        <time>2026-08-22T12:06:41Z</time>
      </trkpt>
      <trkpt lat="47.57452" lon="-2.70193">
        <ele>12.3</ele>
        <time>2026-08-22T12:06:42Z</time>
      </trkpt>
      <trkpt lat="47.57455" lon="-2.70189">
        <ele>12.5</ele>
        <time>2026-08-22T12:06:43Z</time>
      </trkpt>
      <trkpt lat="47.57459" lon="-2.70184">
        <ele>12.7</ele>
        <time>2026-08-22T12:06:44Z</time>
      </trkpt>
      <trkpt lat="47.57463" lon="-2.7018">
        <ele>12.8</ele>
        <time>2026-08-22T12:06:45Z</time>
      </trkpt>
      <trkpt lat="47.57467" lon="-2.70176">
        <ele>12.9</ele>
        <time>2026-08-22T12:06:46Z</time>
      </trkpt>
      <trkpt lat="47.5747" lon="-2.70172">
        <ele>13</ele>
        <time>2026-08-22T12:06:47Z</time>
      </trkpt>
      <trkpt lat="47.57473" lon="-2.70168">
        <ele>13</ele>
        <time>2026-08-22T12:06:48Z</time>
      </trkpt>
      <trkpt lat="47.57477" lon="-2.70164">
        <ele>13.2</ele>
        <time>2026-08-22T12:06:49Z</time>
      </trkpt>
      <trkpt lat="47.5748" lon="-2.70161">
        <ele>13.3</ele>
        <time>2026-08-22T12:06:50Z</time>
      </trkpt>
      <trkpt lat="47.57483" lon="-2.70157">
        <ele>13.4</ele>
        <time>2026-08-22T12:06:51Z</time>
      </trkpt>
      <trkpt lat="47.57487" lon="-2.70153">
        <ele>13.5</ele>
        <time>2026-08-22T12:06:52Z</time>
      </trkpt>
      <trkpt lat="47.57491" lon="-2.70148">
        <ele>13.7</ele>
        <time>2026-08-22T12:06:53Z</time>
      </trkpt>
      <trkpt lat="47.57494" lon="-2.70144">
        <ele>13.8</ele>
        <time>2026-08-22T12:06:54Z</time>
      </trkpt>
      <trkpt lat="47.57497" lon="-2.70139">
        <ele>13.9</ele>
        <time>2026-08-22T12:06:55Z</time>
      </trkpt>
      <trkpt lat="47.57501" lon="-2.70134">
        <ele>14</ele>
        <time>2026-08-22T12:06:56Z</time>
      </trkpt>
      <trkpt lat="47.57505" lon="-2.70129">
        <ele>14</ele>
        <time>2026-08-22T12:06:57Z</time>
      </trkpt>
      <trkpt lat="47.57508" lon="-2.70125">
        <ele>14</ele>
        <time>2026-08-22T12:06:58Z</time>
      </trkpt>
      <trkpt lat="47.57511" lon="-2.70121">
        <ele>14</ele>
        <time>2026-08-22T12:06:59Z</time>
      </trkpt>
      <trkpt lat="47.57515" lon="-2.70116">
        <ele>14</ele>
        <time>2026-08-22T12:07:00Z</time>
      </trkpt>
      <trkpt lat="47.57519" lon="-2.70111">
        <ele>14</ele>
        <time>2026-08-22T12:07:01Z</time>
      </trkpt>
      <trkpt lat="47.57522" lon="-2.70107">
        <ele>14</ele>
        <time>2026-08-22T12:07:02Z</time>
      </trkpt>
      <trkpt lat="47.57525" lon="-2.70104">
        <ele>14</ele>
        <time>2026-08-22T12:07:03Z</time>
      </trkpt>
      <trkpt lat="47.57528" lon="-2.701">
        <ele>14</ele>
        <time>2026-08-22T12:07:04Z</time>
      </trkpt>
      <trkpt lat="47.5753" lon="-2.70096">
        <ele>14</ele>
        <time>2026-08-22T12:07:05Z</time>
      </trkpt>
      <trkpt lat="47.57533" lon="-2.70092">
        <ele>13.9</ele>
        <time>2026-08-22T12:07:06Z</time>
      </trkpt>
      <trkpt lat="47.57536" lon="-2.70088">
        <ele>13.8</ele>
        <time>2026-08-22T12:07:07Z</time>
      </trkpt>
      <trkpt lat="47.57539" lon="-2.70083">
        <ele>13.6</ele>
        <time>2026-08-22T12:07:08Z</time>
      </trkpt>
      <trkpt lat="47.57541" lon="-2.70079">
        <ele>13.7</ele>
        <time>2026-08-22T12:07:09Z</time>
      </trkpt>
      <trkpt lat="47.57544" lon="-2.70074">
        <ele>13.8</ele>
        <time>2026-08-22T12:07:10Z</time>
      </trkpt>
      <trkpt lat="47.57547" lon="-2.7007">
        <ele>14</ele>
        <time>2026-08-22T12:07:11Z</time>
      </trkpt>
      <trkpt lat="47.5755" lon="-2.70066">
        <ele>14.2</ele>
        <time>2026-08-22T12:07:12Z</time>
      </trkpt>
      <trkpt lat="47.57553" lon="-2.70062">
        <ele>14.5</ele>
        <time>2026-08-22T12:07:13Z</time>
      </trkpt>
      <trkpt lat="47.57556" lon="-2.70057">
        <ele>14.9</ele>
        <time>2026-08-22T12:07:14Z</time>
      </trkpt>
      <trkpt lat="47.57559" lon="-2.70053">
        <ele>14.8</ele>
        <time>2026-08-22T12:07:15Z</time>
      </trkpt>
      <trkpt lat="47.57562" lon="-2.70049">
        <ele>14.6</ele>
        <time>2026-08-22T12:07:16Z</time>
      </trkpt>
      <trkpt lat="47.57565" lon="-2.70045">
        <ele>14.6</ele>
        <time>2026-08-22T12:07:17Z</time>
      </trkpt>
      <trkpt lat="47.57568" lon="-2.7004">
        <ele>14.6</ele>
        <time>2026-08-22T12:07:18Z</time>
      </trkpt>
      <trkpt lat="47.57572" lon="-2.70036">
        <ele>14.6</ele>
        <time>2026-08-22T12:07:19Z</time>
      </trkpt>
      <trkpt lat="47.57575" lon="-2.70032">
        <ele>14.8</ele>
        <time>2026-08-22T12:07:20Z</time>
      </trkpt>
      <trkpt lat="47.57578" lon="-2.70027">
        <ele>15</ele>
        <time>2026-08-22T12:07:21Z</time>
      </trkpt>
      <trkpt lat="47.57581" lon="-2.70023">
        <ele>15.2</ele>
        <time>2026-08-22T12:07:22Z</time>
      </trkpt>
      <trkpt lat="47.57584" lon="-2.70019">
        <ele>15.3</ele>
        <time>2026-08-22T12:07:23Z</time>
      </trkpt>
      <trkpt lat="47.57587" lon="-2.70014">
        <ele>15.2</ele>
        <time>2026-08-22T12:07:24Z</time>
      </trkpt>
      <trkpt lat="47.57589" lon="-2.7001">
        <ele>15.2</ele>
        <time>2026-08-22T12:07:25Z</time>
      </trkpt>
      <trkpt lat="47.57592" lon="-2.70006">
        <ele>15.2</ele>
        <time>2026-08-22T12:07:26Z</time>
      </trkpt>
      <trkpt lat="47.57595" lon="-2.70002">
        <ele>15.1</ele>
        <time>2026-08-22T12:07:27Z</time>
      </trkpt>
      <trkpt lat="47.57598" lon="-2.69998">
        <ele>15</ele>
        <time>2026-08-22T12:07:28Z</time>
      </trkpt>
      <trkpt lat="47.57601" lon="-2.69993">
        <ele>15</ele>
        <time>2026-08-22T12:07:29Z</time>
      </trkpt>
      <trkpt lat="47.57604" lon="-2.69989">
        <ele>15.1</ele>
        <time>2026-08-22T12:07:30Z</time>
      </trkpt>
      <trkpt lat="47.57607" lon="-2.69985">
        <ele>15.2</ele>
        <time>2026-08-22T12:07:31Z</time>
      </trkpt>
      <trkpt lat="47.5761" lon="-2.69981">
        <ele>15.4</ele>
        <time>2026-08-22T12:07:32Z</time>
      </trkpt>
      <trkpt lat="47.57613" lon="-2.69977">
        <ele>15.5</ele>
        <time>2026-08-22T12:07:33Z</time>
      </trkpt>
      <trkpt lat="47.57616" lon="-2.69972">
        <ele>15.5</ele>
        <time>2026-08-22T12:07:34Z</time>
      </trkpt>
      <trkpt lat="47.57619" lon="-2.69968">
        <ele>15.2</ele>
        <time>2026-08-22T12:07:35Z</time>
      </trkpt>
      <trkpt lat="47.57622" lon="-2.69964">
        <ele>15.1</ele>
        <time>2026-08-22T12:07:36Z</time>
      </trkpt>
      <trkpt lat="47.57625" lon="-2.6996">
        <ele>14.9</ele>
        <time>2026-08-22T12:07:37Z</time>
      </trkpt>
      <trkpt lat="47.57628" lon="-2.69955">
        <ele>14.9</ele>
        <time>2026-08-22T12:07:38Z</time>
      </trkpt>
      <trkpt lat="47.57632" lon="-2.69951">
        <ele>14.9</ele>
        <time>2026-08-22T12:07:39Z</time>
      </trkpt>
      <trkpt lat="47.57635" lon="-2.69947">
        <ele>15</ele>
        <time>2026-08-22T12:07:40Z</time>
      </trkpt>
      <trkpt lat="47.57638" lon="-2.69942">
        <ele>15</ele>
        <time>2026-08-22T12:07:41Z</time>
      </trkpt>
      <trkpt lat="47.57642" lon="-2.69938">
        <ele>14.7</ele>
        <time>2026-08-22T12:07:42Z</time>
      </trkpt>
      <trkpt lat="47.57645" lon="-2.69933">
        <ele>14.5</ele>
        <time>2026-08-22T12:07:43Z</time>
      </trkpt>
      <trkpt lat="47.57649" lon="-2.69929">
        <ele>14.3</ele>
        <time>2026-08-22T12:07:44Z</time>
      </trkpt>
      <trkpt lat="47.57652" lon="-2.69924">
        <ele>14.3</ele>
        <time>2026-08-22T12:07:45Z</time>
      </trkpt>
      <trkpt lat="47.57655" lon="-2.6992">
        <ele>14.3</ele>
        <time>2026-08-22T12:07:46Z</time>
      </trkpt>
      <trkpt lat="47.57659" lon="-2.69915">
        <ele>14.3</ele>
        <time>2026-08-22T12:07:47Z</time>
      </trkpt>
      <trkpt lat="47.57662" lon="-2.69911">
        <ele>14.3</ele>
        <time>2026-08-22T12:07:48Z</time>
      </trkpt>
      <trkpt lat="47.57666" lon="-2.69907">
        <ele>14.4</ele>
        <time>2026-08-22T12:07:49Z</time>
      </trkpt>
      <trkpt lat="47.57669" lon="-2.69902">
        <ele>14.4</ele>
        <time>2026-08-22T12:07:50Z</time>
      </trkpt>
      <trkpt lat="47.57672" lon="-2.69898">
        <ele>14.2</ele>
        <time>2026-08-22T12:07:51Z</time>
      </trkpt>
      <trkpt lat="47.57676" lon="-2.69894">
        <ele>13.9</ele>
        <time>2026-08-22T12:07:52Z</time>
      </trkpt>
      <trkpt lat="47.57679" lon="-2.69889">
        <ele>13.7</ele>
        <time>2026-08-22T12:07:53Z</time>
      </trkpt>
      <trkpt lat="47.57683" lon="-2.69884">
        <ele>13.4</ele>
        <time>2026-08-22T12:07:54Z</time>
      </trkpt>
      <trkpt lat="47.57687" lon="-2.69879">
        <ele>13.3</ele>
        <time>2026-08-22T12:07:55Z</time>
      </trkpt>
      <trkpt lat="47.5769" lon="-2.69874">
        <ele>13.4</ele>
        <time>2026-08-22T12:07:56Z</time>
      </trkpt>
      <trkpt lat="47.57694" lon="-2.69869">
        <ele>13.5</ele>
        <time>2026-08-22T12:07:57Z</time>
      </trkpt>
      <trkpt lat="47.57697" lon="-2.69865">
        <ele>13.5</ele>
        <time>2026-08-22T12:07:58Z</time>
      </trkpt>
      <trkpt lat="47.57701" lon="-2.69859">
        <ele>13.3</ele>
        <time>2026-08-22T12:07:59Z</time>
      </trkpt>
      <trkpt lat="47.57705" lon="-2.69855">
        <ele>13</ele>
        <time>2026-08-22T12:08:00Z</time>
      </trkpt>
      <trkpt lat="47.57709" lon="-2.6985">
        <ele>12.8</ele>
        <time>2026-08-22T12:08:01Z</time>
      </trkpt>
      <trkpt lat="47.57713" lon="-2.69845">
        <ele>12.8</ele>
        <time>2026-08-22T12:08:02Z</time>
      </trkpt>
      <trkpt lat="47.57717" lon="-2.6984">
        <ele>12.8</ele>
        <time>2026-08-22T12:08:03Z</time>
      </trkpt>
      <trkpt lat="47.5772" lon="-2.69835">
        <ele>13</ele>
        <time>2026-08-22T12:08:04Z</time>
      </trkpt>
      <trkpt lat="47.57724" lon="-2.6983">
        <ele>12.8</ele>
        <time>2026-08-22T12:08:05Z</time>
      </trkpt>
      <trkpt lat="47.57728" lon="-2.69825">
        <ele>12.4</ele>
        <time>2026-08-22T12:08:06Z</time>
      </trkpt>
      <trkpt lat="47.57732" lon="-2.69819">
        <ele>12.1</ele>
        <time>2026-08-22T12:08:07Z</time>
      </trkpt>
      <trkpt lat="47.57736" lon="-2.69814">
        <ele>11.9</ele>
        <time>2026-08-22T12:08:08Z</time>
      </trkpt>
      <trkpt lat="47.57741" lon="-2.69808">
        <ele>11.6</ele>
        <time>2026-08-22T12:08:09Z</time>
      </trkpt>
      <trkpt lat="47.57745" lon="-2.69803">
        <ele>11.3</ele>
        <time>2026-08-22T12:08:10Z</time>
      </trkpt>
      <trkpt lat="47.57749" lon="-2.69798">
        <ele>11.1</ele>
        <time>2026-08-22T12:08:11Z</time>
      </trkpt>
      <trkpt lat="47.57754" lon="-2.69792">
        <ele>10.9</ele>
        <time>2026-08-22T12:08:12Z</time>
      </trkpt>
      <trkpt lat="47.57758" lon="-2.69786">
        <ele>10.7</ele>
        <time>2026-08-22T12:08:13Z</time>
      </trkpt>
      <trkpt lat="47.57763" lon="-2.69781">
        <ele>10.5</ele>
        <time>2026-08-22T12:08:14Z</time>
      </trkpt>
      <trkpt lat="47.57767" lon="-2.69775">
        <ele>10.4</ele>
        <time>2026-08-22T12:08:15Z</time>
      </trkpt>
      <trkpt lat="47.57771" lon="-2.6977">
        <ele>10.2</ele>
        <time>2026-08-22T12:08:16Z</time>
      </trkpt>
      <trkpt lat="47.57776" lon="-2.69764">
        <ele>10.1</ele>
        <time>2026-08-22T12:08:17Z</time>
      </trkpt>
      <trkpt lat="47.5778" lon="-2.69758">
        <ele>10</ele>
        <time>2026-08-22T12:08:18Z</time>
      </trkpt>
      <trkpt lat="47.57785" lon="-2.69752">
        <ele>10</ele>
        <time>2026-08-22T12:08:19Z</time>
      </trkpt>
      <trkpt lat="47.5779" lon="-2.69746">
        <ele>10</ele>
        <time>2026-08-22T12:08:20Z</time>
      </trkpt>
      <trkpt lat="47.57794" lon="-2.6974">
        <ele>10</ele>
        <time>2026-08-22T12:08:21Z</time>
      </trkpt>
      <trkpt lat="47.57799" lon="-2.69734">
        <ele>10</ele>
        <time>2026-08-22T12:08:22Z</time>
      </trkpt>
      <trkpt lat="47.57803" lon="-2.69728">
        <ele>10</ele>
        <time>2026-08-22T12:08:23Z</time>
      </trkpt>
      <trkpt lat="47.57807" lon="-2.69722">
        <ele>9.9</ele>
        <time>2026-08-22T12:08:24Z</time>
      </trkpt>
      <trkpt lat="47.57812" lon="-2.69717">
        <ele>9.6</ele>
        <time>2026-08-22T12:08:25Z</time>
      </trkpt>
      <trkpt lat="47.57816" lon="-2.69711">
        <ele>9.4</ele>
        <time>2026-08-22T12:08:26Z</time>
      </trkpt>
      <trkpt lat="47.57821" lon="-2.69705">
        <ele>9.2</ele>
        <time>2026-08-22T12:08:27Z</time>
      </trkpt>
      <trkpt lat="47.57825" lon="-2.697">
        <ele>9.1</ele>
        <time>2026-08-22T12:08:28Z</time>
      </trkpt>
      <trkpt lat="47.57829" lon="-2.69694">
        <ele>9</ele>
        <time>2026-08-22T12:08:29Z</time>
      </trkpt>
      <trkpt lat="47.57834" lon="-2.69689">
        <ele>9</ele>
        <time>2026-08-22T12:08:30Z</time>
      </trkpt>
      <trkpt lat="47.57838" lon="-2.69684">
        <ele>9</ele>
        <time>2026-08-22T12:08:31Z</time>
      </trkpt>
      <trkpt lat="47.57842" lon="-2.69678">
        <ele>9</ele>
        <time>2026-08-22T12:08:32Z</time>
      </trkpt>
      <trkpt lat="47.57846" lon="-2.69673">
        <ele>9</ele>
        <time>2026-08-22T12:08:33Z</time>
      </trkpt>
      <trkpt lat="47.5785" lon="-2.69668">
        <ele>9</ele>
        <time>2026-08-22T12:08:34Z</time>
      </trkpt>
      <trkpt lat="47.57854" lon="-2.69663">
        <ele>9</ele>
        <time>2026-08-22T12:08:35Z</time>
      </trkpt>
      <trkpt lat="47.57858" lon="-2.69657">
        <ele>9</ele>
        <time>2026-08-22T12:08:36Z</time>
      </trkpt>
      <trkpt lat="47.57862" lon="-2.69651">
        <ele>9</ele>
        <time>2026-08-22T12:08:37Z</time>
      </trkpt>
      <trkpt lat="47.57866" lon="-2.69645">
        <ele>8.9</ele>
        <time>2026-08-22T12:08:38Z</time>
      </trkpt>
      <trkpt lat="47.5787" lon="-2.69639">
        <ele>8.7</ele>
        <time>2026-08-22T12:08:39Z</time>
      </trkpt>
      <trkpt lat="47.57874" lon="-2.69633">
        <ele>8.5</ele>
        <time>2026-08-22T12:08:40Z</time>
      </trkpt>
      <trkpt lat="47.57878" lon="-2.69628">
        <ele>8.5</ele>
        <time>2026-08-22T12:08:41Z</time>
      </trkpt>
      <trkpt lat="47.57881" lon="-2.69623">
        <ele>8.5</ele>
        <time>2026-08-22T12:08:42Z</time>
      </trkpt>
      <trkpt lat="47.57885" lon="-2.69617">
        <ele>8.7</ele>
        <time>2026-08-22T12:08:43Z</time>
      </trkpt>
      <trkpt lat="47.57889" lon="-2.69612">
        <ele>9</ele>
        <time>2026-08-22T12:08:44Z</time>
      </trkpt>
      <trkpt lat="47.57893" lon="-2.69607">
        <ele>8.7</ele>
        <time>2026-08-22T12:08:45Z</time>
      </trkpt>
      <trkpt lat="47.57897" lon="-2.69602">
        <ele>8.6</ele>
        <time>2026-08-22T12:08:46Z</time>
      </trkpt>
      <trkpt lat="47.579" lon="-2.69597">
        <ele>8.5</ele>
        <time>2026-08-22T12:08:47Z</time>
      </trkpt>
      <trkpt lat="47.57904" lon="-2.69592">
        <ele>8.5</ele>
        <time>2026-08-22T12:08:48Z</time>
      </trkpt>
      <trkpt lat="47.57908" lon="-2.69587">
        <ele>8.6</ele>
        <time>2026-08-22T12:08:49Z</time>
      </trkpt>
      <trkpt lat="47.57912" lon="-2.69582">
        <ele>8.8</ele>
        <time>2026-08-22T12:08:50Z</time>
      </trkpt>
      <trkpt lat="47.57916" lon="-2.69578">
        <ele>8.8</ele>
        <time>2026-08-22T12:08:51Z</time>
      </trkpt>
      <trkpt lat="47.5792" lon="-2.69573">
        <ele>8.4</ele>
        <time>2026-08-22T12:08:52Z</time>
      </trkpt>
      <trkpt lat="47.57924" lon="-2.69569">
        <ele>8.1</ele>
        <time>2026-08-22T12:08:53Z</time>
      </trkpt>
      <trkpt lat="47.57928" lon="-2.69564">
        <ele>7.8</ele>
        <time>2026-08-22T12:08:54Z</time>
      </trkpt>
      <trkpt lat="47.57932" lon="-2.69559">
        <ele>7.5</ele>
        <time>2026-08-22T12:08:55Z</time>
      </trkpt>
      <trkpt lat="47.57936" lon="-2.69554">
        <ele>7.3</ele>
        <time>2026-08-22T12:08:56Z</time>
      </trkpt>
      <trkpt lat="47.57941" lon="-2.69549">
        <ele>7.1</ele>
        <time>2026-08-22T12:08:57Z</time>
      </trkpt>
      <trkpt lat="47.57945" lon="-2.69544">
        <ele>7</ele>
        <time>2026-08-22T12:08:58Z</time>
      </trkpt>
      <trkpt lat="47.5795" lon="-2.69539">
        <ele>6.8</ele>
        <time>2026-08-22T12:08:59Z</time>
      </trkpt>
      <trkpt lat="47.57954" lon="-2.69534">
        <ele>6.7</ele>
        <time>2026-08-22T12:09:00Z</time>
      </trkpt>
      <trkpt lat="47.57959" lon="-2.69529">
        <ele>6.5</ele>
        <time>2026-08-22T12:09:01Z</time>
      </trkpt>
      <trkpt lat="47.57964" lon="-2.69523">
        <ele>6</ele>
        <time>2026-08-22T12:09:02Z</time>
      </trkpt>
      <trkpt lat="47.57969" lon="-2.69517">
        <ele>5.3</ele>
        <time>2026-08-22T12:09:03Z</time>
      </trkpt>
      <trkpt lat="47.57974" lon="-2.6951">
        <ele>4.8</ele>
        <time>2026-08-22T12:09:04Z</time>
      </trkpt>
      <trkpt lat="47.5798" lon="-2.69503">
        <ele>4.7</ele>
        <time>2026-08-22T12:09:05Z</time>
      </trkpt>
      <trkpt lat="47.57986" lon="-2.69495">
        <ele>4.8</ele>
        <time>2026-08-22T12:09:06Z</time>
      </trkpt>
      <trkpt lat="47.57992" lon="-2.69488">
        <ele>4.8</ele>
        <time>2026-08-22T12:09:07Z</time>
      </trkpt>
      <trkpt lat="47.57998" lon="-2.6948">
        <ele>4.5</ele>
        <time>2026-08-22T12:09:08Z</time>
      </trkpt>
      <trkpt lat="47.58004" lon="-2.69473">
        <ele>4.3</ele>
        <time>2026-08-22T12:09:09Z</time>
      </trkpt>
      <trkpt lat="47.5801" lon="-2.69467">
        <ele>4.5</ele>
        <time>2026-08-22T12:09:10Z</time>
      </trkpt>
      <trkpt lat="47.58015" lon="-2.69461">
        <ele>4.4</ele>
        <time>2026-08-22T12:09:11Z</time>
      </trkpt>
      <trkpt lat="47.58021" lon="-2.69456">
        <ele>4.2</ele>
        <time>2026-08-22T12:09:12Z</time>
      </trkpt>
      <trkpt lat="47.58027" lon="-2.69451">
        <ele>3.7</ele>
        <time>2026-08-22T12:09:13Z</time>
      </trkpt>
      <trkpt lat="47.58032" lon="-2.69445">
        <ele>3.4</ele>
        <time>2026-08-22T12:09:14Z</time>
      </trkpt>
      <trkpt lat="47.58036" lon="-2.6944">
        <ele>3.7</ele>
        <time>2026-08-22T12:09:15Z</time>
      </trkpt>
      <trkpt lat="47.58041" lon="-2.69435">
        <ele>4</ele>
        <time>2026-08-22T12:09:16Z</time>
      </trkpt>
      <trkpt lat="47.58044" lon="-2.6943">
        <ele>4.1</ele>
        <time>2026-08-22T12:09:17Z</time>
      </trkpt>
      <trkpt lat="47.58048" lon="-2.69425">
        <ele>4.1</ele>
        <time>2026-08-22T12:09:18Z</time>
      </trkpt>
      <trkpt lat="47.58051" lon="-2.6942">
        <ele>4.1</ele>
        <time>2026-08-22T12:09:19Z</time>
      </trkpt>
      <trkpt lat="47.58055" lon="-2.69415">
        <ele>4</ele>
        <time>2026-08-22T12:09:20Z</time>
      </trkpt>
      <trkpt lat="47.5806" lon="-2.69412">
        <ele>4.1</ele>
        <time>2026-08-22T12:09:21Z</time>
      </trkpt>
      <trkpt lat="47.58064" lon="-2.69408">
        <ele>4.2</ele>
        <time>2026-08-22T12:09:22Z</time>
      </trkpt>
      <trkpt lat="47.58068" lon="-2.69404">
        <ele>4.2</ele>
        <time>2026-08-22T12:09:23Z</time>
      </trkpt>
      <trkpt lat="47.58072" lon="-2.694">
        <ele>4.2</ele>
        <time>2026-08-22T12:09:24Z</time>
      </trkpt>
      <trkpt lat="47.58076" lon="-2.69395">
        <ele>4.2</ele>
        <time>2026-08-22T12:09:25Z</time>
      </trkpt>
      <trkpt lat="47.58079" lon="-2.6939">
        <ele>4</ele>
        <time>2026-08-22T12:09:26Z</time>
      </trkpt>
      <trkpt lat="47.58082" lon="-2.69385">
        <ele>4.1</ele>
        <time>2026-08-22T12:09:27Z</time>
      </trkpt>
      <trkpt lat="47.58085" lon="-2.6938">
        <ele>4.4</ele>
        <time>2026-08-22T12:09:28Z</time>
      </trkpt>
      <trkpt lat="47.58088" lon="-2.69376">
        <ele>4.6</ele>
        <time>2026-08-22T12:09:29Z</time>
      </trkpt>
      <trkpt lat="47.58091" lon="-2.69371">
        <ele>4.8</ele>
        <time>2026-08-22T12:09:30Z</time>
      </trkpt>
      <trkpt lat="47.58094" lon="-2.69366">
        <ele>5</ele>
        <time>2026-08-22T12:09:31Z</time>
      </trkpt>
      <trkpt lat="47.58097" lon="-2.69362">
        <ele>5</ele>
        <time>2026-08-22T12:09:32Z</time>
      </trkpt>
      <trkpt lat="47.581" lon="-2.69357">
        <ele>5.2</ele>
        <time>2026-08-22T12:09:33Z</time>
      </trkpt>
      <trkpt lat="47.58103" lon="-2.69353">
        <ele>5.4</ele>
        <time>2026-08-22T12:09:34Z</time>
      </trkpt>
      <trkpt lat="47.58106" lon="-2.69348">
        <ele>5.6</ele>
        <time>2026-08-22T12:09:35Z</time>
      </trkpt>
      <trkpt lat="47.58109" lon="-2.69344">
        <ele>5.7</ele>
        <time>2026-08-22T12:09:36Z</time>
      </trkpt>
      <trkpt lat="47.58112" lon="-2.6934">
        <ele>5.7</ele>
        <time>2026-08-22T12:09:37Z</time>
      </trkpt>
      <trkpt lat="47.58116" lon="-2.69336">
        <ele>5.8</ele>
        <time>2026-08-22T12:09:38Z</time>
      </trkpt>
      <trkpt lat="47.58119" lon="-2.69332">
        <ele>5.7</ele>
        <time>2026-08-22T12:09:39Z</time>
      </trkpt>
      <trkpt lat="47.58123" lon="-2.69328">
        <ele>5.7</ele>
        <time>2026-08-22T12:09:40Z</time>
      </trkpt>
      <trkpt lat="47.58126" lon="-2.69325">
        <ele>5.6</ele>
        <time>2026-08-22T12:09:41Z</time>
      </trkpt>
      <trkpt lat="47.5813" lon="-2.69321">
        <ele>5.6</ele>
        <time>2026-08-22T12:09:42Z</time>
      </trkpt>
      <trkpt lat="47.58134" lon="-2.69318">
        <ele>5.6</ele>
        <time>2026-08-22T12:09:43Z</time>
      </trkpt>
      <trkpt lat="47.58138" lon="-2.69315">
        <ele>5.7</ele>
        <time>2026-08-22T12:09:44Z</time>
      </trkpt>
      <trkpt lat="47.58141" lon="-2.69311">
        <ele>5.8</ele>
        <time>2026-08-22T12:09:45Z</time>
      </trkpt>
      <trkpt lat="47.58145" lon="-2.69308">
        <ele>5.9</ele>
        <time>2026-08-22T12:09:46Z</time>
      </trkpt>
      <trkpt lat="47.58149" lon="-2.69304">
        <ele>6</ele>
        <time>2026-08-22T12:09:47Z</time>
      </trkpt>
      <trkpt lat="47.58152" lon="-2.693">
        <ele>5.9</ele>
        <time>2026-08-22T12:09:48Z</time>
      </trkpt>
      <trkpt lat="47.58156" lon="-2.69297">
        <ele>5.8</ele>
        <time>2026-08-22T12:09:49Z</time>
      </trkpt>
      <trkpt lat="47.5816" lon="-2.69294">
        <ele>5.7</ele>
        <time>2026-08-22T12:09:50Z</time>
      </trkpt>
      <trkpt lat="47.58163" lon="-2.6929">
        <ele>5.5</ele>
        <time>2026-08-22T12:09:51Z</time>
      </trkpt>
      <trkpt lat="47.58167" lon="-2.69287">
        <ele>5.3</ele>
        <time>2026-08-22T12:09:52Z</time>
      </trkpt>
      <trkpt lat="47.5817" lon="-2.69283">
        <ele>5.3</ele>
        <time>2026-08-22T12:09:53Z</time>
      </trkpt>
      <trkpt lat="47.58174" lon="-2.69279">
        <ele>5.3</ele>
        <time>2026-08-22T12:09:54Z</time>
      </trkpt>
      <trkpt lat="47.58177" lon="-2.69274">
        <ele>5.5</ele>
        <time>2026-08-22T12:09:55Z</time>
      </trkpt>
      <trkpt lat="47.58179" lon="-2.6927">
        <ele>5.6</ele>
        <time>2026-08-22T12:09:56Z</time>
      </trkpt>
      <trkpt lat="47.58181" lon="-2.69264">
        <ele>5.8</ele>
        <time>2026-08-22T12:09:57Z</time>
      </trkpt>
      <trkpt lat="47.58183" lon="-2.69259">
        <ele>5.9</ele>
        <time>2026-08-22T12:09:58Z</time>
      </trkpt>
      <trkpt lat="47.58185" lon="-2.69253">
        <ele>6</ele>
        <time>2026-08-22T12:09:59Z</time>
      </trkpt>
      <trkpt lat="47.58187" lon="-2.69248">
        <ele>6</ele>
        <time>2026-08-22T12:10:00Z</time>
      </trkpt>
      <trkpt lat="47.58188" lon="-2.69242">
        <ele>6</ele>
        <time>2026-08-22T12:10:01Z</time>
      </trkpt>
      <trkpt lat="47.58188" lon="-2.69236">
        <ele>6</ele>
        <time>2026-08-22T12:10:02Z</time>
      </trkpt>
      <trkpt lat="47.58189" lon="-2.6923">
        <ele>6</ele>
        <time>2026-08-22T12:10:03Z</time>
      </trkpt>
      <trkpt lat="47.58189" lon="-2.69224">
        <ele>6</ele>
        <time>2026-08-22T12:10:04Z</time>
      </trkpt>
      <trkpt lat="47.5819" lon="-2.69218">
        <ele>6</ele>
        <time>2026-08-22T12:10:05Z</time>
      </trkpt>
      <trkpt lat="47.5819" lon="-2.69212">
        <ele>6.1</ele>
        <time>2026-08-22T12:10:06Z</time>
      </trkpt>
      <trkpt lat="47.5819" lon="-2.69206">
        <ele>6.1</ele>
        <time>2026-08-22T12:10:07Z</time>
      </trkpt>
      <trkpt lat="47.58191" lon="-2.692">
        <ele>6.1</ele>
        <time>2026-08-22T12:10:08Z</time>
      </trkpt>
      <trkpt lat="47.58191" lon="-2.69194">
        <ele>6.1</ele>
        <time>2026-08-22T12:10:09Z</time>
      </trkpt>
      <trkpt lat="47.58192" lon="-2.69188">
        <ele>6.3</ele>
        <time>2026-08-22T12:10:10Z</time>
      </trkpt>
      <trkpt lat="47.58192" lon="-2.69182">
        <ele>6.5</ele>
        <time>2026-08-22T12:10:11Z</time>
      </trkpt>
      <trkpt lat="47.58193" lon="-2.69177">
        <ele>6.6</ele>
        <time>2026-08-22T12:10:12Z</time>
      </trkpt>
      <trkpt lat="47.58194" lon="-2.69171">
        <ele>6.8</ele>
        <time>2026-08-22T12:10:13Z</time>
      </trkpt>
      <trkpt lat="47.58194" lon="-2.69165">
        <ele>7</ele>
        <time>2026-08-22T12:10:14Z</time>
      </trkpt>
      <trkpt lat="47.58195" lon="-2.69159">
        <ele>7</ele>
        <time>2026-08-22T12:10:15Z</time>
      </trkpt>
      <trkpt lat="47.58196" lon="-2.69154">
        <ele>7</ele>
        <time>2026-08-22T12:10:16Z</time>
      </trkpt>
      <trkpt lat="47.58198" lon="-2.69149">
        <ele>7</ele>
        <time>2026-08-22T12:10:17Z</time>
      </trkpt>
      <trkpt lat="47.582" lon="-2.69144">
        <ele>7</ele>
        <time>2026-08-22T12:10:18Z</time>
      </trkpt>
      <trkpt lat="47.58203" lon="-2.69139">
        <ele>7</ele>
        <time>2026-08-22T12:10:19Z</time>
      </trkpt>
      <trkpt lat="47.58205" lon="-2.69135">
        <ele>7</ele>
        <time>2026-08-22T12:10:20Z</time>
      </trkpt>
      <trkpt lat="47.58208" lon="-2.69131">
        <ele>7</ele>
        <time>2026-08-22T12:10:21Z</time>
      </trkpt>
      <trkpt lat="47.58211" lon="-2.69128">
        <ele>7</ele>
        <time>2026-08-22T12:10:22Z</time>
      </trkpt>
      <trkpt lat="47.58215" lon="-2.69125">
        <ele>7</ele>
        <time>2026-08-22T12:10:23Z</time>
      </trkpt>
      <trkpt lat="47.58219" lon="-2.69124">
        <ele>7</ele>
        <time>2026-08-22T12:10:24Z</time>
      </trkpt>
      <trkpt lat="47.58223" lon="-2.69122">
        <ele>7</ele>
        <time>2026-08-22T12:10:25Z</time>
      </trkpt>
      <trkpt lat="47.58226" lon="-2.6912">
        <ele>6.9</ele>
        <time>2026-08-22T12:10:26Z</time>
      </trkpt>
      <trkpt lat="47.5823" lon="-2.69119">
        <ele>6.7</ele>
        <time>2026-08-22T12:10:27Z</time>
      </trkpt>
      <trkpt lat="47.58234" lon="-2.69119">
        <ele>6.6</ele>
        <time>2026-08-22T12:10:28Z</time>
      </trkpt>
      <trkpt lat="47.58237" lon="-2.69119">
        <ele>6.5</ele>
        <time>2026-08-22T12:10:29Z</time>
      </trkpt>
      <trkpt lat="47.58241" lon="-2.69119">
        <ele>6.3</ele>
        <time>2026-08-22T12:10:30Z</time>
      </trkpt>
      <trkpt lat="47.58245" lon="-2.6912">
        <ele>6.2</ele>
        <time>2026-08-22T12:10:31Z</time>
      </trkpt>
      <trkpt lat="47.58248" lon="-2.69122">
        <ele>6.1</ele>
        <time>2026-08-22T12:10:32Z</time>
      </trkpt>
      <trkpt lat="47.58252" lon="-2.69123">
        <ele>6</ele>
        <time>2026-08-22T12:10:33Z</time>
      </trkpt>
      <trkpt lat="47.58255" lon="-2.69125">
        <ele>6</ele>
        <time>2026-08-22T12:10:34Z</time>
      </trkpt>
      <trkpt lat="47.58259" lon="-2.69128">
        <ele>6</ele>
        <time>2026-08-22T12:10:35Z</time>
      </trkpt>
      <trkpt lat="47.58263" lon="-2.6913">
        <ele>6</ele>
        <time>2026-08-22T12:10:36Z</time>
      </trkpt>
      <trkpt lat="47.58267" lon="-2.69132">
        <ele>6</ele>
        <time>2026-08-22T12:10:37Z</time>
      </trkpt>
      <trkpt lat="47.58271" lon="-2.69134">
        <ele>6</ele>
        <time>2026-08-22T12:10:38Z</time>
      </trkpt>
      <trkpt lat="47.58275" lon="-2.69136">
        <ele>6</ele>
        <time>2026-08-22T12:10:39Z</time>
      </trkpt>
      <trkpt lat="47.58279" lon="-2.69137">
        <ele>6</ele>
        <time>2026-08-22T12:10:40Z</time>
      </trkpt>
      <trkpt lat="47.58283" lon="-2.69139">
        <ele>6.2</ele>
        <time>2026-08-22T12:10:41Z</time>
      </trkpt>
      <trkpt lat="47.58287" lon="-2.6914">
        <ele>6.4</ele>
        <time>2026-08-22T12:10:42Z</time>
      </trkpt>
      <trkpt lat="47.58291" lon="-2.69141">
        <ele>6.5</ele>
        <time>2026-08-22T12:10:43Z</time>
      </trkpt>
      <trkpt lat="47.58295" lon="-2.69141">
        <ele>6.6</ele>
        <time>2026-08-22T12:10:44Z</time>
      </trkpt>
      <trkpt lat="47.58299" lon="-2.6914">
        <ele>6.8</ele>
        <time>2026-08-22T12:10:45Z</time>
      </trkpt>
      <trkpt lat="47.58303" lon="-2.6914">
        <ele>6.9</ele>
        <time>2026-08-22T12:10:46Z</time>
      </trkpt>
      <trkpt lat="47.58307" lon="-2.69139">
        <ele>7.1</ele>
        <time>2026-08-22T12:10:47Z</time>
      </trkpt>
      <trkpt lat="47.5831" lon="-2.69137">
        <ele>7</ele>
        <time>2026-08-22T12:10:48Z</time>
      </trkpt>
      <trkpt lat="47.58314" lon="-2.69136">
        <ele>7.2</ele>
        <time>2026-08-22T12:10:49Z</time>
      </trkpt>
      <trkpt lat="47.58317" lon="-2.69134">
        <ele>7.2</ele>
        <time>2026-08-22T12:10:50Z</time>
      </trkpt>
      <trkpt lat="47.58321" lon="-2.69132">
        <ele>7.3</ele>
        <time>2026-08-22T12:10:51Z</time>
      </trkpt>
      <trkpt lat="47.58324" lon="-2.69131">
        <ele>7.5</ele>
        <time>2026-08-22T12:10:52Z</time>
      </trkpt>
      <trkpt lat="47.58328" lon="-2.69129">
        <ele>7.7</ele>
        <time>2026-08-22T12:10:53Z</time>
      </trkpt>
      <trkpt lat="47.58331" lon="-2.69127">
        <ele>7.8</ele>
        <time>2026-08-22T12:10:54Z</time>
      </trkpt>
      <trkpt lat="47.58335" lon="-2.69125">
        <ele>8</ele>
        <time>2026-08-22T12:10:55Z</time>
      </trkpt>
      <trkpt lat="47.58338" lon="-2.69122">
        <ele>7.9</ele>
        <time>2026-08-22T12:10:56Z</time>
      </trkpt>
      <trkpt lat="47.58341" lon="-2.6912">
        <ele>7.9</ele>
        <time>2026-08-22T12:10:57Z</time>
      </trkpt>
      <trkpt lat="47.58345" lon="-2.69118">
        <ele>7.9</ele>
        <time>2026-08-22T12:10:58Z</time>
      </trkpt>
      <trkpt lat="47.58348" lon="-2.69115">
        <ele>7.9</ele>
        <time>2026-08-22T12:10:59Z</time>
      </trkpt>
      <trkpt lat="47.58351" lon="-2.69113">
        <ele>8</ele>
        <time>2026-08-22T12:11:00Z</time>
      </trkpt>
      <trkpt lat="47.58354" lon="-2.6911">
        <ele>8</ele>
        <time>2026-08-22T12:11:01Z</time>
      </trkpt>
      <trkpt lat="47.58358" lon="-2.69107">
        <ele>8</ele>
        <time>2026-08-22T12:11:02Z</time>
      </trkpt>
      <trkpt lat="47.58361" lon="-2.69104">
        <ele>8</ele>
        <time>2026-08-22T12:11:03Z</time>
      </trkpt>
      <trkpt lat="47.58364" lon="-2.69101">
        <ele>7.9</ele>
        <time>2026-08-22T12:11:04Z</time>
      </trkpt>
      <trkpt lat="47.58367" lon="-2.69097">
        <ele>7.9</ele>
        <time>2026-08-22T12:11:05Z</time>
      </trkpt>
      <trkpt lat="47.5837" lon="-2.69094">
        <ele>7.9</ele>
        <time>2026-08-22T12:11:06Z</time>
      </trkpt>
      <trkpt lat="47.58373" lon="-2.6909">
        <ele>7.9</ele>
        <time>2026-08-22T12:11:07Z</time>
      </trkpt>
      <trkpt lat="47.58375" lon="-2.69086">
        <ele>8</ele>
        <time>2026-08-22T12:11:08Z</time>
      </trkpt>
      <trkpt lat="47.58378" lon="-2.69082">
        <ele>8</ele>
        <time>2026-08-22T12:11:09Z</time>
      </trkpt>
      <trkpt lat="47.58381" lon="-2.69078">
        <ele>8.2</ele>
        <time>2026-08-22T12:11:10Z</time>
      </trkpt>
      <trkpt lat="47.58383" lon="-2.69073">
        <ele>8.4</ele>
        <time>2026-08-22T12:11:11Z</time>
      </trkpt>
      <trkpt lat="47.58385" lon="-2.69069">
        <ele>8.5</ele>
        <time>2026-08-22T12:11:12Z</time>
      </trkpt>
      <trkpt lat="47.58387" lon="-2.69064">
        <ele>8.7</ele>
        <time>2026-08-22T12:11:13Z</time>
      </trkpt>
      <trkpt lat="47.5839" lon="-2.6906">
        <ele>8.8</ele>
        <time>2026-08-22T12:11:14Z</time>
      </trkpt>
      <trkpt lat="47.58392" lon="-2.69055">
        <ele>8.9</ele>
        <time>2026-08-22T12:11:15Z</time>
      </trkpt>
      <trkpt lat="47.58393" lon="-2.6905">
        <ele>8.9</ele>
        <time>2026-08-22T12:11:16Z</time>
      </trkpt>
      <trkpt lat="47.58395" lon="-2.69046">
        <ele>8.8</ele>
        <time>2026-08-22T12:11:17Z</time>
      </trkpt>
      <trkpt lat="47.58397" lon="-2.69041">
        <ele>8.7</ele>
        <time>2026-08-22T12:11:18Z</time>
      </trkpt>
      <trkpt lat="47.58399" lon="-2.69036">
        <ele>8.6</ele>
        <time>2026-08-22T12:11:19Z</time>
      </trkpt>
      <trkpt lat="47.58401" lon="-2.69031">
        <ele>8.6</ele>
        <time>2026-08-22T12:11:20Z</time>
      </trkpt>
      <trkpt lat="47.58403" lon="-2.69026">
        <ele>8.5</ele>
        <time>2026-08-22T12:11:21Z</time>
      </trkpt>
      <trkpt lat="47.58405" lon="-2.69021">
        <ele>8.6</ele>
        <time>2026-08-22T12:11:22Z</time>
      </trkpt>
      <trkpt lat="47.58407" lon="-2.69016">
        <ele>8.6</ele>
        <time>2026-08-22T12:11:23Z</time>
      </trkpt>
      <trkpt lat="47.58408" lon="-2.69011">
        <ele>8.7</ele>
        <time>2026-08-22T12:11:24Z</time>
      </trkpt>
      <trkpt lat="47.5841" lon="-2.69007">
        <ele>8.8</ele>
        <time>2026-08-22T12:11:25Z</time>
      </trkpt>
      <trkpt lat="47.58412" lon="-2.69002">
        <ele>8.9</ele>
        <time>2026-08-22T12:11:26Z</time>
      </trkpt>
      <trkpt lat="47.58413" lon="-2.68997">
        <ele>9</ele>
        <time>2026-08-22T12:11:27Z</time>
      </trkpt>
      <trkpt lat="47.58415" lon="-2.68992">
        <ele>9</ele>
        <time>2026-08-22T12:11:28Z</time>
      </trkpt>
      <trkpt lat="47.58417" lon="-2.68987">
        <ele>9</ele>
        <time>2026-08-22T12:11:29Z</time>
      </trkpt>
      <trkpt lat="47.58419" lon="-2.68983">
        <ele>9</ele>
        <time>2026-08-22T12:11:30Z</time>
      </trkpt>
      <trkpt lat="47.58421" lon="-2.68978">
        <ele>9</ele>
        <time>2026-08-22T12:11:31Z</time>
      </trkpt>
      <trkpt lat="47.58423" lon="-2.68973">
        <ele>9</ele>
        <time>2026-08-22T12:11:32Z</time>
      </trkpt>
      <trkpt lat="47.58426" lon="-2.68969">
        <ele>9</ele>
        <time>2026-08-22T12:11:33Z</time>
      </trkpt>
      <trkpt lat="47.58428" lon="-2.68965">
        <ele>9</ele>
        <time>2026-08-22T12:11:34Z</time>
      </trkpt>
      <trkpt lat="47.58431" lon="-2.68961">
        <ele>9</ele>
        <time>2026-08-22T12:11:35Z</time>
      </trkpt>
      <trkpt lat="47.58434" lon="-2.68957">
        <ele>9</ele>
        <time>2026-08-22T12:11:36Z</time>
      </trkpt>
      <trkpt lat="47.58437" lon="-2.68953">
        <ele>9</ele>
        <time>2026-08-22T12:11:37Z</time>
      </trkpt>
      <trkpt lat="47.5844" lon="-2.6895">
        <ele>9</ele>
        <time>2026-08-22T12:11:38Z</time>
      </trkpt>
      <trkpt lat="47.58443" lon="-2.68946">
        <ele>9</ele>
        <time>2026-08-22T12:11:39Z</time>
      </trkpt>
      <trkpt lat="47.58446" lon="-2.68942">
        <ele>9</ele>
        <time>2026-08-22T12:11:40Z</time>
      </trkpt>
      <trkpt lat="47.5845" lon="-2.68938">
        <ele>9</ele>
        <time>2026-08-22T12:11:41Z</time>
      </trkpt>
      <trkpt lat="47.58453" lon="-2.68934">
        <ele>9</ele>
        <time>2026-08-22T12:11:42Z</time>
      </trkpt>
      <trkpt lat="47.58456" lon="-2.6893">
        <ele>9</ele>
        <time>2026-08-22T12:11:43Z</time>
      </trkpt>
      <trkpt lat="47.5846" lon="-2.68926">
        <ele>9</ele>
        <time>2026-08-22T12:11:44Z</time>
      </trkpt>
      <trkpt lat="47.58463" lon="-2.68923">
        <ele>9</ele>
        <time>2026-08-22T12:11:45Z</time>
      </trkpt>
      <trkpt lat="47.58467" lon="-2.68919">
        <ele>9</ele>
        <time>2026-08-22T12:11:46Z</time>
      </trkpt>
      <trkpt lat="47.5847" lon="-2.68916">
        <ele>9</ele>
        <time>2026-08-22T12:11:47Z</time>
      </trkpt>
      <trkpt lat="47.58473" lon="-2.68912">
        <ele>9</ele>
        <time>2026-08-22T12:11:48Z</time>
      </trkpt>
      <trkpt lat="47.58477" lon="-2.68908">
        <ele>8.9</ele>
        <time>2026-08-22T12:11:49Z</time>
      </trkpt>
      <trkpt lat="47.58481" lon="-2.68905">
        <ele>8.8</ele>
        <time>2026-08-22T12:11:50Z</time>
      </trkpt>
      <trkpt lat="47.58484" lon="-2.68902">
        <ele>8.8</ele>
        <time>2026-08-22T12:11:51Z</time>
      </trkpt>
      <trkpt lat="47.58488" lon="-2.68898">
        <ele>8.8</ele>
        <time>2026-08-22T12:11:52Z</time>
      </trkpt>
      <trkpt lat="47.58492" lon="-2.68894">
        <ele>8.9</ele>
        <time>2026-08-22T12:11:53Z</time>
      </trkpt>
      <trkpt lat="47.58496" lon="-2.68891">
        <ele>8.9</ele>
        <time>2026-08-22T12:11:54Z</time>
      </trkpt>
      <trkpt lat="47.58499" lon="-2.68887">
        <ele>9</ele>
        <time>2026-08-22T12:11:55Z</time>
      </trkpt>
      <trkpt lat="47.58503" lon="-2.68884">
        <ele>8.9</ele>
        <time>2026-08-22T12:11:56Z</time>
      </trkpt>
      <trkpt lat="47.58507" lon="-2.68881">
        <ele>8.8</ele>
        <time>2026-08-22T12:11:57Z</time>
      </trkpt>
      <trkpt lat="47.5851" lon="-2.68877">
        <ele>8.8</ele>
        <time>2026-08-22T12:11:58Z</time>
      </trkpt>
      <trkpt lat="47.58514" lon="-2.68874">
        <ele>8.8</ele>
        <time>2026-08-22T12:11:59Z</time>
      </trkpt>
      <trkpt lat="47.58517" lon="-2.68871">
        <ele>8.8</ele>
        <time>2026-08-22T12:12:00Z</time>
      </trkpt>
      <trkpt lat="47.5852" lon="-2.68868">
        <ele>8.8</ele>
        <time>2026-08-22T12:12:01Z</time>
      </trkpt>
      <trkpt lat="47.58524" lon="-2.68865">
        <ele>8.9</ele>
        <time>2026-08-22T12:12:02Z</time>
      </trkpt>
      <trkpt lat="47.58527" lon="-2.68863">
        <ele>8.9</ele>
        <time>2026-08-22T12:12:03Z</time>
      </trkpt>
      <trkpt lat="47.58531" lon="-2.6886">
        <ele>8.9</ele>
        <time>2026-08-22T12:12:04Z</time>
      </trkpt>
      <trkpt lat="47.58535" lon="-2.68857">
        <ele>8.8</ele>
        <time>2026-08-22T12:12:05Z</time>
      </trkpt>
      <trkpt lat="47.58539" lon="-2.68854">
        <ele>8.7</ele>
        <time>2026-08-22T12:12:06Z</time>
      </trkpt>
      <trkpt lat="47.58543" lon="-2.68851">
        <ele>8.7</ele>
        <time>2026-08-22T12:12:07Z</time>
      </trkpt>
      <trkpt lat="47.58546" lon="-2.68848">
        <ele>8.7</ele>
        <time>2026-08-22T12:12:08Z</time>
      </trkpt>
      <trkpt lat="47.5855" lon="-2.68845">
        <ele>8.7</ele>
        <time>2026-08-22T12:12:09Z</time>
      </trkpt>
      <trkpt lat="47.58554" lon="-2.68842">
        <ele>8.7</ele>
        <time>2026-08-22T12:12:10Z</time>
      </trkpt>
      <trkpt lat="47.58558" lon="-2.68839">
        <ele>8.8</ele>
        <time>2026-08-22T12:12:11Z</time>
      </trkpt>
      <trkpt lat="47.58562" lon="-2.68836">
        <ele>8.9</ele>
        <time>2026-08-22T12:12:12Z</time>
      </trkpt>
      <trkpt lat="47.58565" lon="-2.68833">
        <ele>9</ele>
        <time>2026-08-22T12:12:13Z</time>
      </trkpt>
      <trkpt lat="47.58569" lon="-2.6883">
        <ele>9</ele>
        <time>2026-08-22T12:12:14Z</time>
      </trkpt>
      <trkpt lat="47.58572" lon="-2.68827">
        <ele>9</ele>
        <time>2026-08-22T12:12:15Z</time>
      </trkpt>
      <trkpt lat="47.58576" lon="-2.68824">
        <ele>9</ele>
        <time>2026-08-22T12:12:16Z</time>
      </trkpt>
      <trkpt lat="47.5858" lon="-2.68821">
        <ele>9</ele>
        <time>2026-08-22T12:12:17Z</time>
      </trkpt>
      <trkpt lat="47.58584" lon="-2.68818">
        <ele>9</ele>
        <time>2026-08-22T12:12:18Z</time>
      </trkpt>
      <trkpt lat="47.58588" lon="-2.68814">
        <ele>8.9</ele>
        <time>2026-08-22T12:12:19Z</time>
      </trkpt>
      <trkpt lat="47.58592" lon="-2.68811">
        <ele>8.9</ele>
        <time>2026-08-22T12:12:20Z</time>
      </trkpt>
      <trkpt lat="47.58595" lon="-2.68808">
        <ele>9</ele>
        <time>2026-08-22T12:12:21Z</time>
      </trkpt>
      <trkpt lat="47.58599" lon="-2.68805">
        <ele>9</ele>
        <time>2026-08-22T12:12:22Z</time>
      </trkpt>
      <trkpt lat="47.58602" lon="-2.68802">
        <ele>9</ele>
        <time>2026-08-22T12:12:23Z</time>
      </trkpt>
      <trkpt lat="47.58606" lon="-2.68799">
        <ele>9</ele>
        <time>2026-08-22T12:12:24Z</time>
      </trkpt>
      <trkpt lat="47.5861" lon="-2.68795">
        <ele>9</ele>
        <time>2026-08-22T12:12:25Z</time>
      </trkpt>
      <trkpt lat="47.58614" lon="-2.68792">
        <ele>8.9</ele>
        <time>2026-08-22T12:12:26Z</time>
      </trkpt>
      <trkpt lat="47.58618" lon="-2.68788">
        <ele>8.8</ele>
        <time>2026-08-22T12:12:27Z</time>
      </trkpt>
      <trkpt lat="47.58621" lon="-2.68785">
        <ele>8.6</ele>
        <time>2026-08-22T12:12:28Z</time>
      </trkpt>
      <trkpt lat="47.58625" lon="-2.68781">
        <ele>8.5</ele>
        <time>2026-08-22T12:12:29Z</time>
      </trkpt>
      <trkpt lat="47.58629" lon="-2.68778">
        <ele>8.4</ele>
        <time>2026-08-22T12:12:30Z</time>
      </trkpt>
      <trkpt lat="47.58632" lon="-2.68775">
        <ele>8.2</ele>
        <time>2026-08-22T12:12:31Z</time>
      </trkpt>
      <trkpt lat="47.58636" lon="-2.68771">
        <ele>8.1</ele>
        <time>2026-08-22T12:12:32Z</time>
      </trkpt>
      <trkpt lat="47.5864" lon="-2.68768">
        <ele>8</ele>
        <time>2026-08-22T12:12:33Z</time>
      </trkpt>
      <trkpt lat="47.58643" lon="-2.68765">
        <ele>8.1</ele>
        <time>2026-08-22T12:12:34Z</time>
      </trkpt>
      <trkpt lat="47.58647" lon="-2.68762">
        <ele>8.2</ele>
        <time>2026-08-22T12:12:35Z</time>
      </trkpt>
      <trkpt lat="47.58651" lon="-2.68759">
        <ele>8.3</ele>
        <time>2026-08-22T12:12:36Z</time>
      </trkpt>
      <trkpt lat="47.58655" lon="-2.68756">
        <ele>8.5</ele>
        <time>2026-08-22T12:12:37Z</time>
      </trkpt>
      <trkpt lat="47.58659" lon="-2.68753">
        <ele>8.6</ele>
        <time>2026-08-22T12:12:38Z</time>
      </trkpt>
      <trkpt lat="47.58662" lon="-2.68749">
        <ele>8.8</ele>
        <time>2026-08-22T12:12:39Z</time>
      </trkpt>
      <trkpt lat="47.58666" lon="-2.68746">
        <ele>8.8</ele>
        <time>2026-08-22T12:12:40Z</time>
      </trkpt>
      <trkpt lat="47.5867" lon="-2.68744">
        <ele>8.8</ele>
        <time>2026-08-22T12:12:41Z</time>
      </trkpt>
      <trkpt lat="47.58673" lon="-2.68741">
        <ele>8.7</ele>
        <time>2026-08-22T12:12:42Z</time>
      </trkpt>
      <trkpt lat="47.58677" lon="-2.68739">
        <ele>8.8</ele>
        <time>2026-08-22T12:12:43Z</time>
      </trkpt>
      <trkpt lat="47.58681" lon="-2.68736">
        <ele>8.8</ele>
        <time>2026-08-22T12:12:44Z</time>
      </trkpt>
      <trkpt lat="47.58685" lon="-2.68734">
        <ele>8.8</ele>
        <time>2026-08-22T12:12:45Z</time>
      </trkpt>
      <trkpt lat="47.58689" lon="-2.68731">
        <ele>8.9</ele>
        <time>2026-08-22T12:12:46Z</time>
      </trkpt>
      <trkpt lat="47.58693" lon="-2.68728">
        <ele>9</ele>
        <time>2026-08-22T12:12:47Z</time>
      </trkpt>
      <trkpt lat="47.58697" lon="-2.68726">
        <ele>9.1</ele>
        <time>2026-08-22T12:12:48Z</time>
      </trkpt>
      <trkpt lat="47.58701" lon="-2.68724">
        <ele>9.2</ele>
        <time>2026-08-22T12:12:49Z</time>
      </trkpt>
      <trkpt lat="47.58705" lon="-2.68722">
        <ele>9.4</ele>
        <time>2026-08-22T12:12:50Z</time>
      </trkpt>
      <trkpt lat="47.58708" lon="-2.6872">
        <ele>9.5</ele>
        <time>2026-08-22T12:12:51Z</time>
      </trkpt>
      <trkpt lat="47.58712" lon="-2.68718">
        <ele>9.6</ele>
        <time>2026-08-22T12:12:52Z</time>
      </trkpt>
      <trkpt lat="47.58715" lon="-2.68716">
        <ele>9.7</ele>
        <time>2026-08-22T12:12:53Z</time>
      </trkpt>
      <trkpt lat="47.58718" lon="-2.68715">
        <ele>9.8</ele>
        <time>2026-08-22T12:12:54Z</time>
      </trkpt>
      <trkpt lat="47.58722" lon="-2.68713">
        <ele>10</ele>
        <time>2026-08-22T12:12:55Z</time>
      </trkpt>
      <trkpt lat="47.58725" lon="-2.68711">
        <ele>10.1</ele>
        <time>2026-08-22T12:12:56Z</time>
      </trkpt>
      <trkpt lat="47.58728" lon="-2.68709">
        <ele>10.2</ele>
        <time>2026-08-22T12:12:57Z</time>
      </trkpt>
      <trkpt lat="47.58731" lon="-2.68707">
        <ele>10.3</ele>
        <time>2026-08-22T12:12:58Z</time>
      </trkpt>
      <trkpt lat="47.58735" lon="-2.68705">
        <ele>10.5</ele>
        <time>2026-08-22T12:12:59Z</time>
      </trkpt>
      <trkpt lat="47.58738" lon="-2.68704">
        <ele>10.6</ele>
        <time>2026-08-22T12:13:00Z</time>
      </trkpt>
      <trkpt lat="47.58741" lon="-2.68702">
        <ele>10.7</ele>
        <time>2026-08-22T12:13:01Z</time>
      </trkpt>
      <trkpt lat="47.58744" lon="-2.687">
        <ele>10.8</ele>
        <time>2026-08-22T12:13:02Z</time>
      </trkpt>
      <trkpt lat="47.58748" lon="-2.68699">
        <ele>10.9</ele>
        <time>2026-08-22T12:13:03Z</time>
      </trkpt>
      <trkpt lat="47.58751" lon="-2.68697">
        <ele>11</ele>
        <time>2026-08-22T12:13:04Z</time>
      </trkpt>
      <trkpt lat="47.58754" lon="-2.68695">
        <ele>11.1</ele>
        <time>2026-08-22T12:13:05Z</time>
      </trkpt>
      <trkpt lat="47.58757" lon="-2.68693">
        <ele>11.3</ele>
        <time>2026-08-22T12:13:06Z</time>
      </trkpt>
      <trkpt lat="47.5876" lon="-2.68691">
        <ele>11.5</ele>
        <time>2026-08-22T12:13:07Z</time>
      </trkpt>
      <trkpt lat="47.58764" lon="-2.6869">
        <ele>11.7</ele>
        <time>2026-08-22T12:13:08Z</time>
      </trkpt>
      <trkpt lat="47.58767" lon="-2.68688">
        <ele>11.8</ele>
        <time>2026-08-22T12:13:09Z</time>
      </trkpt>
      <trkpt lat="47.5877" lon="-2.68686">
        <ele>12</ele>
        <time>2026-08-22T12:13:10Z</time>
      </trkpt>
      <trkpt lat="47.58773" lon="-2.68684">
        <ele>12.2</ele>
        <time>2026-08-22T12:13:11Z</time>
      </trkpt>
      <trkpt lat="47.58776" lon="-2.68683">
        <ele>12.3</ele>
        <time>2026-08-22T12:13:12Z</time>
      </trkpt>
      <trkpt lat="47.58779" lon="-2.68681">
        <ele>12.5</ele>
        <time>2026-08-22T12:13:13Z</time>
      </trkpt>
      <trkpt lat="47.58783" lon="-2.68679">
        <ele>12.6</ele>
        <time>2026-08-22T12:13:14Z</time>
      </trkpt>
      <trkpt lat="47.58786" lon="-2.68677">
        <ele>12.7</ele>
        <time>2026-08-22T12:13:15Z</time>
      </trkpt>
      <trkpt lat="47.58789" lon="-2.68676">
        <ele>12.8</ele>
        <time>2026-08-22T12:13:16Z</time>
      </trkpt>
      <trkpt lat="47.58792" lon="-2.68674">
        <ele>12.9</ele>
        <time>2026-08-22T12:13:17Z</time>
      </trkpt>
      <trkpt lat="47.58795" lon="-2.68673">
        <ele>12.9</ele>
        <time>2026-08-22T12:13:18Z</time>
      </trkpt>
      <trkpt lat="47.58798" lon="-2.68671">
        <ele>13</ele>
        <time>2026-08-22T12:13:19Z</time>
      </trkpt>
      <trkpt lat="47.58802" lon="-2.6867">
        <ele>13</ele>
        <time>2026-08-22T12:13:20Z</time>
      </trkpt>
      <trkpt lat="47.58805" lon="-2.68669">
        <ele>13</ele>
        <time>2026-08-22T12:13:21Z</time>
      </trkpt>
      <trkpt lat="47.58808" lon="-2.68668">
        <ele>13.1</ele>
        <time>2026-08-22T12:13:22Z</time>
      </trkpt>
      <trkpt lat="47.58811" lon="-2.68668">
        <ele>13.2</ele>
        <time>2026-08-22T12:13:23Z</time>
      </trkpt>
      <trkpt lat="47.58815" lon="-2.68667">
        <ele>13.3</ele>
        <time>2026-08-22T12:13:24Z</time>
      </trkpt>
      <trkpt lat="47.58818" lon="-2.68666">
        <ele>13.5</ele>
        <time>2026-08-22T12:13:25Z</time>
      </trkpt>
      <trkpt lat="47.58821" lon="-2.68665">
        <ele>13.6</ele>
        <time>2026-08-22T12:13:26Z</time>
      </trkpt>
      <trkpt lat="47.58825" lon="-2.68664">
        <ele>13.8</ele>
        <time>2026-08-22T12:13:27Z</time>
      </trkpt>
      <trkpt lat="47.58828" lon="-2.68663">
        <ele>13.9</ele>
        <time>2026-08-22T12:13:28Z</time>
      </trkpt>
      <trkpt lat="47.58832" lon="-2.68662">
        <ele>14.1</ele>
        <time>2026-08-22T12:13:29Z</time>
      </trkpt>
      <trkpt lat="47.58835" lon="-2.68661">
        <ele>14.1</ele>
        <time>2026-08-22T12:13:30Z</time>
      </trkpt>
      <trkpt lat="47.58838" lon="-2.6866">
        <ele>14.1</ele>
        <time>2026-08-22T12:13:31Z</time>
      </trkpt>
      <trkpt lat="47.58841" lon="-2.68659">
        <ele>14</ele>
        <time>2026-08-22T12:13:32Z</time>
      </trkpt>
      <trkpt lat="47.58844" lon="-2.68657">
        <ele>14</ele>
        <time>2026-08-22T12:13:33Z</time>
      </trkpt>
      <trkpt lat="47.58848" lon="-2.68656">
        <ele>13.9</ele>
        <time>2026-08-22T12:13:34Z</time>
      </trkpt>
      <trkpt lat="47.58851" lon="-2.68654">
        <ele>13.8</ele>
        <time>2026-08-22T12:13:35Z</time>
      </trkpt>
      <trkpt lat="47.58855" lon="-2.68653">
        <ele>13.7</ele>
        <time>2026-08-22T12:13:36Z</time>
      </trkpt>
      <trkpt lat="47.58858" lon="-2.68651">
        <ele>13.7</ele>
        <time>2026-08-22T12:13:37Z</time>
      </trkpt>
      <trkpt lat="47.58861" lon="-2.68649">
        <ele>13.6</ele>
        <time>2026-08-22T12:13:38Z</time>
      </trkpt>
      <trkpt lat="47.58865" lon="-2.68647">
        <ele>13.6</ele>
        <time>2026-08-22T12:13:39Z</time>
      </trkpt>
      <trkpt lat="47.58868" lon="-2.68646">
        <ele>13.5</ele>
        <time>2026-08-22T12:13:40Z</time>
      </trkpt>
      <trkpt lat="47.58871" lon="-2.68644">
        <ele>13.5</ele>
        <time>2026-08-22T12:13:41Z</time>
      </trkpt>
      <trkpt lat="47.58874" lon="-2.68642">
        <ele>13.4</ele>
        <time>2026-08-22T12:13:42Z</time>
      </trkpt>
      <trkpt lat="47.58878" lon="-2.6864">
        <ele>13.4</ele>
        <time>2026-08-22T12:13:43Z</time>
      </trkpt>
      <trkpt lat="47.58881" lon="-2.68638">
        <ele>13.3</ele>
        <time>2026-08-22T12:13:44Z</time>
      </trkpt>
      <trkpt lat="47.58884" lon="-2.68636">
        <ele>13.4</ele>
        <time>2026-08-22T12:13:45Z</time>
      </trkpt>
      <trkpt lat="47.58888" lon="-2.68634">
        <ele>13.4</ele>
        <time>2026-08-22T12:13:46Z</time>
      </trkpt>
      <trkpt lat="47.58891" lon="-2.68632">
        <ele>13.4</ele>
        <time>2026-08-22T12:13:47Z</time>
      </trkpt>
      <trkpt lat="47.58894" lon="-2.6863">
        <ele>13.5</ele>
        <time>2026-08-22T12:13:48Z</time>
      </trkpt>
      <trkpt lat="47.58898" lon="-2.68628">
        <ele>13.5</ele>
        <time>2026-08-22T12:13:49Z</time>
      </trkpt>
      <trkpt lat="47.58901" lon="-2.68626">
        <ele>13.5</ele>
        <time>2026-08-22T12:13:50Z</time>
      </trkpt>
      <trkpt lat="47.58904" lon="-2.68624">
        <ele>13.5</ele>
        <time>2026-08-22T12:13:51Z</time>
      </trkpt>
      <trkpt lat="47.58908" lon="-2.68622">
        <ele>13.5</ele>
        <time>2026-08-22T12:13:52Z</time>
      </trkpt>
      <trkpt lat="47.58911" lon="-2.6862">
        <ele>13.6</ele>
        <time>2026-08-22T12:13:53Z</time>
      </trkpt>
      <trkpt lat="47.58915" lon="-2.68618">
        <ele>13.6</ele>
        <time>2026-08-22T12:13:54Z</time>
      </trkpt>
      <trkpt lat="47.58918" lon="-2.68616">
        <ele>13.6</ele>
        <time>2026-08-22T12:13:55Z</time>
      </trkpt>
      <trkpt lat="47.58922" lon="-2.68614">
        <ele>13.6</ele>
        <time>2026-08-22T12:13:56Z</time>
      </trkpt>
      <trkpt lat="47.58925" lon="-2.68611">
        <ele>13.7</ele>
        <time>2026-08-22T12:13:57Z</time>
      </trkpt>
      <trkpt lat="47.58929" lon="-2.68609">
        <ele>13.6</ele>
        <time>2026-08-22T12:13:58Z</time>
      </trkpt>
      <trkpt lat="47.58933" lon="-2.68607">
        <ele>13.5</ele>
        <time>2026-08-22T12:13:59Z</time>
      </trkpt>
      <trkpt lat="47.58937" lon="-2.68605">
        <ele>13.4</ele>
        <time>2026-08-22T12:14:00Z</time>
      </trkpt>
      <trkpt lat="47.5894" lon="-2.68602">
        <ele>13.4</ele>
        <time>2026-08-22T12:14:01Z</time>
      </trkpt>
      <trkpt lat="47.58944" lon="-2.68599">
        <ele>13.4</ele>
        <time>2026-08-22T12:14:02Z</time>
      </trkpt>
      <trkpt lat="47.58947" lon="-2.68596">
        <ele>13.5</ele>
        <time>2026-08-22T12:14:03Z</time>
      </trkpt>
      <trkpt lat="47.58951" lon="-2.68593">
        <ele>13.4</ele>
        <time>2026-08-22T12:14:04Z</time>
      </trkpt>
      <trkpt lat="47.58954" lon="-2.6859">
        <ele>13.4</ele>
        <time>2026-08-22T12:14:05Z</time>
      </trkpt>
      <trkpt lat="47.58957" lon="-2.68587">
        <ele>13.4</ele>
        <time>2026-08-22T12:14:06Z</time>
      </trkpt>
      <trkpt lat="47.58961" lon="-2.68584">
        <ele>13.4</ele>
        <time>2026-08-22T12:14:07Z</time>
      </trkpt>
      <trkpt lat="47.58964" lon="-2.68581">
        <ele>13.4</ele>
        <time>2026-08-22T12:14:08Z</time>
      </trkpt>
      <trkpt lat="47.58968" lon="-2.68578">
        <ele>13.3</ele>
        <time>2026-08-22T12:14:09Z</time>
      </trkpt>
      <trkpt lat="47.58971" lon="-2.68574">
        <ele>13.4</ele>
        <time>2026-08-22T12:14:10Z</time>
      </trkpt>
      <trkpt lat="47.58974" lon="-2.68571">
        <ele>13.4</ele>
        <time>2026-08-22T12:14:11Z</time>
      </trkpt>
      <trkpt lat="47.58977" lon="-2.68567">
        <ele>13.4</ele>
        <time>2026-08-22T12:14:12Z</time>
      </trkpt>
      <trkpt lat="47.5898" lon="-2.68564">
        <ele>13.4</ele>
        <time>2026-08-22T12:14:13Z</time>
      </trkpt>
      <trkpt lat="47.58983" lon="-2.6856">
        <ele>13.5</ele>
        <time>2026-08-22T12:14:14Z</time>
      </trkpt>
      <trkpt lat="47.58986" lon="-2.68557">
        <ele>13.5</ele>
        <time>2026-08-22T12:14:15Z</time>
      </trkpt>
      <trkpt lat="47.58989" lon="-2.68553">
        <ele>13.5</ele>
        <time>2026-08-22T12:14:16Z</time>
      </trkpt>
      <trkpt lat="47.58992" lon="-2.68549">
        <ele>13.5</ele>
        <time>2026-08-22T12:14:17Z</time>
      </trkpt>
      <trkpt lat="47.58995" lon="-2.68546">
        <ele>13.5</ele>
        <time>2026-08-22T12:14:18Z</time>
      </trkpt>
      <trkpt lat="47.58998" lon="-2.68542">
        <ele>13.6</ele>
        <time>2026-08-22T12:14:19Z</time>
      </trkpt>
      <trkpt lat="47.59001" lon="-2.68538">
        <ele>13.6</ele>
        <time>2026-08-22T12:14:20Z</time>
      </trkpt>
      <trkpt lat="47.59004" lon="-2.68533">
        <ele>13.7</ele>
        <time>2026-08-22T12:14:21Z</time>
      </trkpt>
      <trkpt lat="47.59007" lon="-2.68529">
        <ele>13.7</ele>
        <time>2026-08-22T12:14:22Z</time>
      </trkpt>
      <trkpt lat="47.5901" lon="-2.68524">
        <ele>13.6</ele>
        <time>2026-08-22T12:14:23Z</time>
      </trkpt>
      <trkpt lat="47.59014" lon="-2.6852">
        <ele>13.4</ele>
        <time>2026-08-22T12:14:24Z</time>
      </trkpt>
      <trkpt lat="47.59017" lon="-2.68515">
        <ele>13.1</ele>
        <time>2026-08-22T12:14:25Z</time>
      </trkpt>
      <trkpt lat="47.5902" lon="-2.68511">
        <ele>12.8</ele>
        <time>2026-08-22T12:14:26Z</time>
      </trkpt>
      <trkpt lat="47.59023" lon="-2.68506">
        <ele>12.5</ele>
        <time>2026-08-22T12:14:27Z</time>
      </trkpt>
      <trkpt lat="47.59027" lon="-2.68501">
        <ele>12.1</ele>
        <time>2026-08-22T12:14:28Z</time>
      </trkpt>
      <trkpt lat="47.5903" lon="-2.68497">
        <ele>12.2</ele>
        <time>2026-08-22T12:14:29Z</time>
      </trkpt>
      <trkpt lat="47.59033" lon="-2.68492">
        <ele>12.4</ele>
        <time>2026-08-22T12:14:30Z</time>
      </trkpt>
      <trkpt lat="47.59037" lon="-2.68487">
        <ele>12.6</ele>
        <time>2026-08-22T12:14:31Z</time>
      </trkpt>
      <trkpt lat="47.5904" lon="-2.68482">
        <ele>12.8</ele>
        <time>2026-08-22T12:14:32Z</time>
      </trkpt>
      <trkpt lat="47.59043" lon="-2.68478">
        <ele>12.9</ele>
        <time>2026-08-22T12:14:33Z</time>
      </trkpt>
      <trkpt lat="47.59046" lon="-2.68473">
        <ele>13</ele>
        <time>2026-08-22T12:14:34Z</time>
      </trkpt>
      <trkpt lat="47.59049" lon="-2.68469">
        <ele>12.9</ele>
        <time>2026-08-22T12:14:35Z</time>
      </trkpt>
      <trkpt lat="47.59052" lon="-2.68465">
        <ele>12.8</ele>
        <time>2026-08-22T12:14:36Z</time>
      </trkpt>
      <trkpt lat="47.59055" lon="-2.6846">
        <ele>12.6</ele>
        <time>2026-08-22T12:14:37Z</time>
      </trkpt>
      <trkpt lat="47.59058" lon="-2.68456">
        <ele>12.5</ele>
        <time>2026-08-22T12:14:38Z</time>
      </trkpt>
      <trkpt lat="47.59061" lon="-2.68452">
        <ele>12.5</ele>
        <time>2026-08-22T12:14:39Z</time>
      </trkpt>
      <trkpt lat="47.59064" lon="-2.68449">
        <ele>12.5</ele>
        <time>2026-08-22T12:14:40Z</time>
      </trkpt>
      <trkpt lat="47.59067" lon="-2.68445">
        <ele>12.4</ele>
        <time>2026-08-22T12:14:41Z</time>
      </trkpt>
      <trkpt lat="47.5907" lon="-2.6844">
        <ele>12.5</ele>
        <time>2026-08-22T12:14:42Z</time>
      </trkpt>
      <trkpt lat="47.59073" lon="-2.68436">
        <ele>12.6</ele>
        <time>2026-08-22T12:14:43Z</time>
      </trkpt>
      <trkpt lat="47.59075" lon="-2.68433">
        <ele>12.7</ele>
        <time>2026-08-22T12:14:44Z</time>
      </trkpt>
      <trkpt lat="47.59078" lon="-2.68429">
        <ele>12.8</ele>
        <time>2026-08-22T12:14:45Z</time>
      </trkpt>
      <trkpt lat="47.59081" lon="-2.68426">
        <ele>12.9</ele>
        <time>2026-08-22T12:14:46Z</time>
      </trkpt>
      <trkpt lat="47.59084" lon="-2.68423">
        <ele>13</ele>
        <time>2026-08-22T12:14:47Z</time>
      </trkpt>
      <trkpt lat="47.59086" lon="-2.6842">
        <ele>13.1</ele>
        <time>2026-08-22T12:14:48Z</time>
      </trkpt>
      <trkpt lat="47.59089" lon="-2.68417">
        <ele>13.2</ele>
        <time>2026-08-22T12:14:49Z</time>
      </trkpt>
      <trkpt lat="47.59092" lon="-2.68415">
        <ele>13.3</ele>
        <time>2026-08-22T12:14:50Z</time>
      </trkpt>
      <trkpt lat="47.59095" lon="-2.68412">
        <ele>13.4</ele>
        <time>2026-08-22T12:14:51Z</time>
      </trkpt>
      <trkpt lat="47.59098" lon="-2.68409">
        <ele>13.5</ele>
        <time>2026-08-22T12:14:52Z</time>
      </trkpt>
      <trkpt lat="47.59101" lon="-2.68406">
        <ele>13.6</ele>
        <time>2026-08-22T12:14:53Z</time>
      </trkpt>
      <trkpt lat="47.59104" lon="-2.68403">
        <ele>13.7</ele>
        <time>2026-08-22T12:14:54Z</time>
      </trkpt>
      <trkpt lat="47.59107" lon="-2.684">
        <ele>13.9</ele>
        <time>2026-08-22T12:14:55Z</time>
      </trkpt>
      <trkpt lat="47.5911" lon="-2.68399">
        <ele>14</ele>
        <time>2026-08-22T12:14:56Z</time>
      </trkpt>
      <trkpt lat="47.59113" lon="-2.68397">
        <ele>14.1</ele>
        <time>2026-08-22T12:14:57Z</time>
      </trkpt>
      <trkpt lat="47.59116" lon="-2.68396">
        <ele>14.2</ele>
        <time>2026-08-22T12:14:58Z</time>
      </trkpt>
      <trkpt lat="47.59119" lon="-2.68395">
        <ele>14.3</ele>
        <time>2026-08-22T12:14:59Z</time>
      </trkpt>
      <trkpt lat="47.59122" lon="-2.68394">
        <ele>14.5</ele>
        <time>2026-08-22T12:15:00Z</time>
      </trkpt>
      <trkpt lat="47.59124" lon="-2.68393">
        <ele>14.5</ele>
        <time>2026-08-22T12:15:01Z</time>
      </trkpt>
      <trkpt lat="47.59127" lon="-2.68392">
        <ele>14.6</ele>
        <time>2026-08-22T12:15:02Z</time>
      </trkpt>
      <trkpt lat="47.59131" lon="-2.68392">
        <ele>14.8</ele>
        <time>2026-08-22T12:15:03Z</time>
      </trkpt>
      <trkpt lat="47.59134" lon="-2.68391">
        <ele>14.9</ele>
        <time>2026-08-22T12:15:04Z</time>
      </trkpt>
      <trkpt lat="47.59137" lon="-2.6839">
        <ele>15</ele>
        <time>2026-08-22T12:15:05Z</time>
      </trkpt>
      <trkpt lat="47.5914" lon="-2.68389">
        <ele>15.1</ele>
        <time>2026-08-22T12:15:06Z</time>
      </trkpt>
      <trkpt lat="47.59144" lon="-2.68388">
        <ele>15.4</ele>
        <time>2026-08-22T12:15:07Z</time>
      </trkpt>
      <trkpt lat="47.59147" lon="-2.68388">
        <ele>15.6</ele>
        <time>2026-08-22T12:15:08Z</time>
      </trkpt>
      <trkpt lat="47.5915" lon="-2.68388">
        <ele>15.8</ele>
        <time>2026-08-22T12:15:09Z</time>
      </trkpt>
      <trkpt lat="47.59154" lon="-2.68387">
        <ele>16.1</ele>
        <time>2026-08-22T12:15:10Z</time>
      </trkpt>
      <trkpt lat="47.59157" lon="-2.68386">
        <ele>16.3</ele>
        <time>2026-08-22T12:15:11Z</time>
      </trkpt>
      <trkpt lat="47.5916" lon="-2.68386">
        <ele>16.5</ele>
        <time>2026-08-22T12:15:12Z</time>
      </trkpt>
      <trkpt lat="47.59163" lon="-2.68386">
        <ele>16.7</ele>
        <time>2026-08-22T12:15:13Z</time>
      </trkpt>
      <trkpt lat="47.59166" lon="-2.68385">
        <ele>17</ele>
        <time>2026-08-22T12:15:14Z</time>
      </trkpt>
      <trkpt lat="47.59169" lon="-2.68385">
        <ele>17</ele>
        <time>2026-08-22T12:15:15Z</time>
      </trkpt>
      <trkpt lat="47.59173" lon="-2.68384">
        <ele>17</ele>
        <time>2026-08-22T12:15:16Z</time>
      </trkpt>
      <trkpt lat="47.59176" lon="-2.68384">
        <ele>17</ele>
        <time>2026-08-22T12:15:17Z</time>
      </trkpt>
      <trkpt lat="47.59179" lon="-2.68383">
        <ele>17</ele>
        <time>2026-08-22T12:15:18Z</time>
      </trkpt>
      <trkpt lat="47.59182" lon="-2.68383">
        <ele>17</ele>
        <time>2026-08-22T12:15:19Z</time>
      </trkpt>
      <trkpt lat="47.59186" lon="-2.68381">
        <ele>17</ele>
        <time>2026-08-22T12:15:20Z</time>
      </trkpt>
      <trkpt lat="47.59189" lon="-2.6838">
        <ele>17</ele>
        <time>2026-08-22T12:15:21Z</time>
      </trkpt>
      <trkpt lat="47.59193" lon="-2.68379">
        <ele>17</ele>
        <time>2026-08-22T12:15:22Z</time>
      </trkpt>
      <trkpt lat="47.59195" lon="-2.68377">
        <ele>17</ele>
        <time>2026-08-22T12:15:23Z</time>
      </trkpt>
      <trkpt lat="47.59198" lon="-2.68376">
        <ele>16.9</ele>
        <time>2026-08-22T12:15:24Z</time>
      </trkpt>
      <trkpt lat="47.59201" lon="-2.68374">
        <ele>16.9</ele>
        <time>2026-08-22T12:15:25Z</time>
      </trkpt>
      <trkpt lat="47.59204" lon="-2.68373">
        <ele>16.9</ele>
        <time>2026-08-22T12:15:26Z</time>
      </trkpt>
      <trkpt lat="47.59207" lon="-2.68371">
        <ele>17</ele>
        <time>2026-08-22T12:15:27Z</time>
      </trkpt>
      <trkpt lat="47.59209" lon="-2.6837">
        <ele>17</ele>
        <time>2026-08-22T12:15:28Z</time>
      </trkpt>
      <trkpt lat="47.59212" lon="-2.68368">
        <ele>17.2</ele>
        <time>2026-08-22T12:15:29Z</time>
      </trkpt>
      <trkpt lat="47.59215" lon="-2.68366">
        <ele>17.3</ele>
        <time>2026-08-22T12:15:30Z</time>
      </trkpt>
      <trkpt lat="47.59218" lon="-2.68363">
        <ele>17.7</ele>
        <time>2026-08-22T12:15:31Z</time>
      </trkpt>
      <trkpt lat="47.59221" lon="-2.68361">
        <ele>18</ele>
        <time>2026-08-22T12:15:32Z</time>
      </trkpt>
      <trkpt lat="47.59224" lon="-2.68359">
        <ele>17.7</ele>
        <time>2026-08-22T12:15:33Z</time>
      </trkpt>
      <trkpt lat="47.59227" lon="-2.68357">
        <ele>17.4</ele>
        <time>2026-08-22T12:15:34Z</time>
      </trkpt>
      <trkpt lat="47.5923" lon="-2.68354">
        <ele>17.1</ele>
        <time>2026-08-22T12:15:35Z</time>
      </trkpt>
      <trkpt lat="47.59233" lon="-2.68352">
        <ele>16.9</ele>
        <time>2026-08-22T12:15:36Z</time>
      </trkpt>
      <trkpt lat="47.59236" lon="-2.6835">
        <ele>16.7</ele>
        <time>2026-08-22T12:15:37Z</time>
      </trkpt>
      <trkpt lat="47.59239" lon="-2.68347">
        <ele>16.6</ele>
        <time>2026-08-22T12:15:38Z</time>
      </trkpt>
      <trkpt lat="47.59242" lon="-2.68345">
        <ele>16.5</ele>
        <time>2026-08-22T12:15:39Z</time>
      </trkpt>
      <trkpt lat="47.59244" lon="-2.68343">
        <ele>16.5</ele>
        <time>2026-08-22T12:15:40Z</time>
      </trkpt>
      <trkpt lat="47.59245" lon="-2.68339">
        <ele>16.7</ele>
        <time>2026-08-22T12:15:41Z</time>
      </trkpt>
      <trkpt lat="47.59244" lon="-2.68336">
        <ele>16.9</ele>
        <time>2026-08-22T12:15:42Z</time>
      </trkpt>
      <trkpt lat="47.59243" lon="-2.68333">
        <ele>17</ele>
        <time>2026-08-22T12:15:43Z</time>
      </trkpt>
      <trkpt lat="47.59241" lon="-2.68329">
        <ele>16.9</ele>
        <time>2026-08-22T12:15:44Z</time>
      </trkpt>
      <trkpt lat="47.5924" lon="-2.68325">
        <ele>16.8</ele>
        <time>2026-08-22T12:15:45Z</time>
      </trkpt>
      <trkpt lat="47.59239" lon="-2.6832">
        <ele>16.7</ele>
        <time>2026-08-22T12:15:46Z</time>
      </trkpt>
      <trkpt lat="47.59237" lon="-2.68315">
        <ele>16.6</ele>
        <time>2026-08-22T12:15:47Z</time>
      </trkpt>
      <trkpt lat="47.59236" lon="-2.68309">
        <ele>16.6</ele>
        <time>2026-08-22T12:15:48Z</time>
      </trkpt>
      <trkpt lat="47.59235" lon="-2.68303">
        <ele>16.4</ele>
        <time>2026-08-22T12:15:49Z</time>
      </trkpt>
      <trkpt lat="47.59234" lon="-2.68296">
        <ele>16</ele>
        <time>2026-08-22T12:15:50Z</time>
      </trkpt>
      <trkpt lat="47.59232" lon="-2.68289">
        <ele>15.7</ele>
        <time>2026-08-22T12:15:51Z</time>
      </trkpt>
      <trkpt lat="47.59231" lon="-2.68281">
        <ele>15.2</ele>
        <time>2026-08-22T12:15:52Z</time>
      </trkpt>
      <trkpt lat="47.59229" lon="-2.68273">
        <ele>14.8</ele>
        <time>2026-08-22T12:15:53Z</time>
      </trkpt>
      <trkpt lat="47.59228" lon="-2.68265">
        <ele>14.5</ele>
        <time>2026-08-22T12:15:54Z</time>
      </trkpt>
      <trkpt lat="47.59227" lon="-2.68257">
        <ele>14.3</ele>
        <time>2026-08-22T12:15:55Z</time>
      </trkpt>
      <trkpt lat="47.59226" lon="-2.68248">
        <ele>13.9</ele>
        <time>2026-08-22T12:15:56Z</time>
      </trkpt>
      <trkpt lat="47.59225" lon="-2.68239">
        <ele>13.6</ele>
        <time>2026-08-22T12:15:57Z</time>
      </trkpt>
      <trkpt lat="47.59224" lon="-2.6823">
        <ele>13.3</ele>
        <time>2026-08-22T12:15:58Z</time>
      </trkpt>
      <trkpt lat="47.59223" lon="-2.68221">
        <ele>13</ele>
        <time>2026-08-22T12:15:59Z</time>
      </trkpt>
      <trkpt lat="47.59222" lon="-2.68212">
        <ele>12.6</ele>
        <time>2026-08-22T12:16:00Z</time>
      </trkpt>
      <trkpt lat="47.5922" lon="-2.68203">
        <ele>12.4</ele>
        <time>2026-08-22T12:16:01Z</time>
      </trkpt>
      <trkpt lat="47.59218" lon="-2.68196">
        <ele>12.4</ele>
        <time>2026-08-22T12:16:02Z</time>
      </trkpt>
      <trkpt lat="47.59215" lon="-2.68188">
        <ele>12.2</ele>
        <time>2026-08-22T12:16:03Z</time>
      </trkpt>
      <trkpt lat="47.59211" lon="-2.68181">
        <ele>12.1</ele>
        <time>2026-08-22T12:16:04Z</time>
      </trkpt>
      <trkpt lat="47.59208" lon="-2.68175">
        <ele>12</ele>
        <time>2026-08-22T12:16:05Z</time>
      </trkpt>
      <trkpt lat="47.59204" lon="-2.68169">
        <ele>11.8</ele>
        <time>2026-08-22T12:16:06Z</time>
      </trkpt>
      <trkpt lat="47.59201" lon="-2.68163">
        <ele>11.8</ele>
        <time>2026-08-22T12:16:07Z</time>
      </trkpt>
      <trkpt lat="47.59198" lon="-2.68158">
        <ele>11.9</ele>
        <time>2026-08-22T12:16:08Z</time>
      </trkpt>
      <trkpt lat="47.59195" lon="-2.68153">
        <ele>12</ele>
        <time>2026-08-22T12:16:09Z</time>
      </trkpt>
      <trkpt lat="47.59192" lon="-2.68148">
        <ele>12.1</ele>
        <time>2026-08-22T12:16:10Z</time>
      </trkpt>
      <trkpt lat="47.59189" lon="-2.68143">
        <ele>12.2</ele>
        <time>2026-08-22T12:16:11Z</time>
      </trkpt>
      <trkpt lat="47.59186" lon="-2.68138">
        <ele>12.3</ele>
        <time>2026-08-22T12:16:12Z</time>
      </trkpt>
      <trkpt lat="47.59183" lon="-2.68132">
        <ele>12.2</ele>
        <time>2026-08-22T12:16:13Z</time>
      </trkpt>
      <trkpt lat="47.5918" lon="-2.68126">
        <ele>12.1</ele>
        <time>2026-08-22T12:16:14Z</time>
      </trkpt>
      <trkpt lat="47.59177" lon="-2.6812">
        <ele>11.9</ele>
        <time>2026-08-22T12:16:15Z</time>
      </trkpt>
      <trkpt lat="47.59174" lon="-2.68114">
        <ele>11.8</ele>
        <time>2026-08-22T12:16:16Z</time>
      </trkpt>
      <trkpt lat="47.59172" lon="-2.68109">
        <ele>11.8</ele>
        <time>2026-08-22T12:16:17Z</time>
      </trkpt>
      <trkpt lat="47.59169" lon="-2.68102">
        <ele>11.9</ele>
        <time>2026-08-22T12:16:18Z</time>
      </trkpt>
      <trkpt lat="47.59167" lon="-2.68097">
        <ele>12</ele>
        <time>2026-08-22T12:16:19Z</time>
      </trkpt>
      <trkpt lat="47.59165" lon="-2.68092">
        <ele>12</ele>
        <time>2026-08-22T12:16:20Z</time>
      </trkpt>
      <trkpt lat="47.59163" lon="-2.68086">
        <ele>12</ele>
        <time>2026-08-22T12:16:21Z</time>
      </trkpt>
      <trkpt lat="47.59161" lon="-2.68081">
        <ele>12</ele>
        <time>2026-08-22T12:16:22Z</time>
      </trkpt>
      <trkpt lat="47.59161" lon="-2.68075">
        <ele>11.8</ele>
        <time>2026-08-22T12:16:23Z</time>
      </trkpt>
      <trkpt lat="47.59162" lon="-2.68069">
        <ele>11.7</ele>
        <time>2026-08-22T12:16:24Z</time>
      </trkpt>
      <trkpt lat="47.59164" lon="-2.68063">
        <ele>11.4</ele>
        <time>2026-08-22T12:16:25Z</time>
      </trkpt>
      <trkpt lat="47.59167" lon="-2.68059">
        <ele>11.1</ele>
        <time>2026-08-22T12:16:26Z</time>
      </trkpt>
      <trkpt lat="47.5917" lon="-2.68055">
        <ele>11</ele>
        <time>2026-08-22T12:16:27Z</time>
      </trkpt>
      <trkpt lat="47.59173" lon="-2.6805">
        <ele>11.2</ele>
        <time>2026-08-22T12:16:28Z</time>
      </trkpt>
      <trkpt lat="47.59177" lon="-2.68046">
        <ele>11.2</ele>
        <time>2026-08-22T12:16:29Z</time>
      </trkpt>
      <trkpt lat="47.5918" lon="-2.68041">
        <ele>11.3</ele>
        <time>2026-08-22T12:16:30Z</time>
      </trkpt>
      <trkpt lat="47.59184" lon="-2.68036">
        <ele>11.3</ele>
        <time>2026-08-22T12:16:31Z</time>
      </trkpt>
      <trkpt lat="47.59188" lon="-2.68031">
        <ele>11.2</ele>
        <time>2026-08-22T12:16:32Z</time>
      </trkpt>
      <trkpt lat="47.59191" lon="-2.68027">
        <ele>11.1</ele>
        <time>2026-08-22T12:16:33Z</time>
      </trkpt>
      <trkpt lat="47.59195" lon="-2.68022">
        <ele>11</ele>
        <time>2026-08-22T12:16:34Z</time>
      </trkpt>
      <trkpt lat="47.59198" lon="-2.68018">
        <ele>10.9</ele>
        <time>2026-08-22T12:16:35Z</time>
      </trkpt>
      <trkpt lat="47.59202" lon="-2.68013">
        <ele>10.7</ele>
        <time>2026-08-22T12:16:36Z</time>
      </trkpt>
      <trkpt lat="47.59205" lon="-2.68008">
        <ele>10.6</ele>
        <time>2026-08-22T12:16:37Z</time>
      </trkpt>
      <trkpt lat="47.59209" lon="-2.68004">
        <ele>10.5</ele>
        <time>2026-08-22T12:16:38Z</time>
      </trkpt>
      <trkpt lat="47.59212" lon="-2.67999">
        <ele>10.4</ele>
        <time>2026-08-22T12:16:39Z</time>
      </trkpt>
      <trkpt lat="47.59216" lon="-2.67995">
        <ele>10.2</ele>
        <time>2026-08-22T12:16:40Z</time>
      </trkpt>
      <trkpt lat="47.59219" lon="-2.6799">
        <ele>10.1</ele>
        <time>2026-08-22T12:16:41Z</time>
      </trkpt>
      <trkpt lat="47.59223" lon="-2.67986">
        <ele>10</ele>
        <time>2026-08-22T12:16:42Z</time>
      </trkpt>
      <trkpt lat="47.59226" lon="-2.67982">
        <ele>10</ele>
        <time>2026-08-22T12:16:43Z</time>
      </trkpt>
      <trkpt lat="47.59229" lon="-2.67978">
        <ele>10</ele>
        <time>2026-08-22T12:16:44Z</time>
      </trkpt>
      <trkpt lat="47.59232" lon="-2.67973">
        <ele>10</ele>
        <time>2026-08-22T12:16:45Z</time>
      </trkpt>
      <trkpt lat="47.59236" lon="-2.67969">
        <ele>9.9</ele>
        <time>2026-08-22T12:16:46Z</time>
      </trkpt>
      <trkpt lat="47.59239" lon="-2.67964">
        <ele>9.8</ele>
        <time>2026-08-22T12:16:47Z</time>
      </trkpt>
      <trkpt lat="47.59243" lon="-2.6796">
        <ele>9.7</ele>
        <time>2026-08-22T12:16:48Z</time>
      </trkpt>
      <trkpt lat="47.59246" lon="-2.67955">
        <ele>9.5</ele>
        <time>2026-08-22T12:16:49Z</time>
      </trkpt>
      <trkpt lat="47.5925" lon="-2.6795">
        <ele>9.2</ele>
        <time>2026-08-22T12:16:50Z</time>
      </trkpt>
      <trkpt lat="47.59254" lon="-2.67946">
        <ele>9</ele>
        <time>2026-08-22T12:16:51Z</time>
      </trkpt>
      <trkpt lat="47.59258" lon="-2.67941">
        <ele>9</ele>
        <time>2026-08-22T12:16:52Z</time>
      </trkpt>
      <trkpt lat="47.59262" lon="-2.67936">
        <ele>9</ele>
        <time>2026-08-22T12:16:53Z</time>
      </trkpt>
      <trkpt lat="47.59265" lon="-2.67931">
        <ele>9</ele>
        <time>2026-08-22T12:16:54Z</time>
      </trkpt>
      <trkpt lat="47.59269" lon="-2.67926">
        <ele>9</ele>
        <time>2026-08-22T12:16:55Z</time>
      </trkpt>
      <trkpt lat="47.59273" lon="-2.67921">
        <ele>9</ele>
        <time>2026-08-22T12:16:56Z</time>
      </trkpt>
      <trkpt lat="47.59277" lon="-2.67917">
        <ele>9</ele>
        <time>2026-08-22T12:16:57Z</time>
      </trkpt>
      <trkpt lat="47.59281" lon="-2.67912">
        <ele>9</ele>
        <time>2026-08-22T12:16:58Z</time>
      </trkpt>
      <trkpt lat="47.59284" lon="-2.67908">
        <ele>8.9</ele>
        <time>2026-08-22T12:16:59Z</time>
      </trkpt>
      <trkpt lat="47.59287" lon="-2.67903">
        <ele>8.8</ele>
        <time>2026-08-22T12:17:00Z</time>
      </trkpt>
      <trkpt lat="47.59291" lon="-2.67898">
        <ele>8.7</ele>
        <time>2026-08-22T12:17:01Z</time>
      </trkpt>
      <trkpt lat="47.59294" lon="-2.67893">
        <ele>8.5</ele>
        <time>2026-08-22T12:17:02Z</time>
      </trkpt>
      <trkpt lat="47.59299" lon="-2.67887">
        <ele>8.2</ele>
        <time>2026-08-22T12:17:03Z</time>
      </trkpt>
      <trkpt lat="47.59304" lon="-2.67882">
        <ele>8.1</ele>
        <time>2026-08-22T12:17:04Z</time>
      </trkpt>
      <trkpt lat="47.59308" lon="-2.67876">
        <ele>8</ele>
        <time>2026-08-22T12:17:05Z</time>
      </trkpt>
      <trkpt lat="47.59312" lon="-2.67871">
        <ele>8.1</ele>
        <time>2026-08-22T12:17:06Z</time>
      </trkpt>
      <trkpt lat="47.59316" lon="-2.67865">
        <ele>8.1</ele>
        <time>2026-08-22T12:17:07Z</time>
      </trkpt>
      <trkpt lat="47.59319" lon="-2.67861">
        <ele>8</ele>
        <time>2026-08-22T12:17:08Z</time>
      </trkpt>
      <trkpt lat="47.59321" lon="-2.67857">
        <ele>8.1</ele>
        <time>2026-08-22T12:17:09Z</time>
      </trkpt>
      <trkpt lat="47.59325" lon="-2.67852">
        <ele>8.1</ele>
        <time>2026-08-22T12:17:10Z</time>
      </trkpt>
      <trkpt lat="47.59329" lon="-2.67847">
        <ele>8.1</ele>
        <time>2026-08-22T12:17:11Z</time>
      </trkpt>
      <trkpt lat="47.59333" lon="-2.67842">
        <ele>8</ele>
        <time>2026-08-22T12:17:12Z</time>
      </trkpt>
      <trkpt lat="47.59337" lon="-2.67836">
        <ele>8</ele>
        <time>2026-08-22T12:17:13Z</time>
      </trkpt>
      <trkpt lat="47.59342" lon="-2.67831">
        <ele>8</ele>
        <time>2026-08-22T12:17:14Z</time>
      </trkpt>
      <trkpt lat="47.59347" lon="-2.67826">
        <ele>8</ele>
        <time>2026-08-22T12:17:15Z</time>
      </trkpt>
      <trkpt lat="47.59351" lon="-2.67821">
        <ele>8</ele>
        <time>2026-08-22T12:17:16Z</time>
      </trkpt>
      <trkpt lat="47.59355" lon="-2.67816">
        <ele>8</ele>
        <time>2026-08-22T12:17:17Z</time>
      </trkpt>
      <trkpt lat="47.59359" lon="-2.67811">
        <ele>8</ele>
        <time>2026-08-22T12:17:18Z</time>
      </trkpt>
      <trkpt lat="47.59363" lon="-2.67808">
        <ele>8</ele>
        <time>2026-08-22T12:17:19Z</time>
      </trkpt>
      <trkpt lat="47.59367" lon="-2.67803">
        <ele>8</ele>
        <time>2026-08-22T12:17:20Z</time>
      </trkpt>
      <trkpt lat="47.5937" lon="-2.67798">
        <ele>8</ele>
        <time>2026-08-22T12:17:21Z</time>
      </trkpt>
      <trkpt lat="47.59373" lon="-2.67794">
        <ele>8</ele>
        <time>2026-08-22T12:17:22Z</time>
      </trkpt>
      <trkpt lat="47.59376" lon="-2.6779">
        <ele>8</ele>
        <time>2026-08-22T12:17:23Z</time>
      </trkpt>
      <trkpt lat="47.5938" lon="-2.67786">
        <ele>8</ele>
        <time>2026-08-22T12:17:24Z</time>
      </trkpt>
      <trkpt lat="47.59383" lon="-2.67781">
        <ele>8</ele>
        <time>2026-08-22T12:17:25Z</time>
      </trkpt>
      <trkpt lat="47.59386" lon="-2.67776">
        <ele>8</ele>
        <time>2026-08-22T12:17:26Z</time>
      </trkpt>
      <trkpt lat="47.59389" lon="-2.67772">
        <ele>8</ele>
        <time>2026-08-22T12:17:27Z</time>
      </trkpt>
      <trkpt lat="47.59391" lon="-2.67766">
        <ele>7.9</ele>
        <time>2026-08-22T12:17:28Z</time>
      </trkpt>
      <trkpt lat="47.59393" lon="-2.67759">
        <ele>7.9</ele>
        <time>2026-08-22T12:17:29Z</time>
      </trkpt>
      <trkpt lat="47.59399" lon="-2.67753">
        <ele>7.6</ele>
        <time>2026-08-22T12:17:30Z</time>
      </trkpt>
      <trkpt lat="47.59402" lon="-2.67749">
        <ele>7.5</ele>
        <time>2026-08-22T12:17:31Z</time>
      </trkpt>
      <trkpt lat="47.59406" lon="-2.67744">
        <ele>7.4</ele>
        <time>2026-08-22T12:17:32Z</time>
      </trkpt>
      <trkpt lat="47.59409" lon="-2.67739">
        <ele>7.3</ele>
        <time>2026-08-22T12:17:33Z</time>
      </trkpt>
      <trkpt lat="47.59413" lon="-2.67734">
        <ele>7.1</ele>
        <time>2026-08-22T12:17:34Z</time>
      </trkpt>
      <trkpt lat="47.59417" lon="-2.67729">
        <ele>7</ele>
        <time>2026-08-22T12:17:35Z</time>
      </trkpt>
      <trkpt lat="47.5942" lon="-2.67723">
        <ele>7</ele>
        <time>2026-08-22T12:17:36Z</time>
      </trkpt>
      <trkpt lat="47.59424" lon="-2.67719">
        <ele>7</ele>
        <time>2026-08-22T12:17:37Z</time>
      </trkpt>
      <trkpt lat="47.59427" lon="-2.67714">
        <ele>7</ele>
        <time>2026-08-22T12:17:38Z</time>
      </trkpt>
      <trkpt lat="47.59431" lon="-2.67709">
        <ele>7</ele>
        <time>2026-08-22T12:17:39Z</time>
      </trkpt>
      <trkpt lat="47.59434" lon="-2.67704">
        <ele>7</ele>
        <time>2026-08-22T12:17:40Z</time>
      </trkpt>
      <trkpt lat="47.59437" lon="-2.677">
        <ele>7</ele>
        <time>2026-08-22T12:17:41Z</time>
      </trkpt>
      <trkpt lat="47.59441" lon="-2.67695">
        <ele>7</ele>
        <time>2026-08-22T12:17:42Z</time>
      </trkpt>
      <trkpt lat="47.59444" lon="-2.6769">
        <ele>7</ele>
        <time>2026-08-22T12:17:43Z</time>
      </trkpt>
      <trkpt lat="47.59447" lon="-2.67685">
        <ele>7</ele>
        <time>2026-08-22T12:17:44Z</time>
      </trkpt>
      <trkpt lat="47.59451" lon="-2.6768">
        <ele>7</ele>
        <time>2026-08-22T12:17:45Z</time>
      </trkpt>
      <trkpt lat="47.59454" lon="-2.67675">
        <ele>7</ele>
        <time>2026-08-22T12:17:46Z</time>
      </trkpt>
      <trkpt lat="47.59457" lon="-2.67671">
        <ele>7</ele>
        <time>2026-08-22T12:17:47Z</time>
      </trkpt>
      <trkpt lat="47.5946" lon="-2.67666">
        <ele>7</ele>
        <time>2026-08-22T12:17:48Z</time>
      </trkpt>
      <trkpt lat="47.59463" lon="-2.67661">
        <ele>7</ele>
        <time>2026-08-22T12:17:49Z</time>
      </trkpt>
      <trkpt lat="47.59467" lon="-2.67656">
        <ele>7</ele>
        <time>2026-08-22T12:17:50Z</time>
      </trkpt>
      <trkpt lat="47.5947" lon="-2.67651">
        <ele>7</ele>
        <time>2026-08-22T12:17:51Z</time>
      </trkpt>
      <trkpt lat="47.59473" lon="-2.67646">
        <ele>7</ele>
        <time>2026-08-22T12:17:52Z</time>
      </trkpt>
      <trkpt lat="47.59477" lon="-2.67641">
        <ele>7</ele>
        <time>2026-08-22T12:17:53Z</time>
      </trkpt>
      <trkpt lat="47.5948" lon="-2.67637">
        <ele>7</ele>
        <time>2026-08-22T12:17:54Z</time>
      </trkpt>
      <trkpt lat="47.59484" lon="-2.67632">
        <ele>7</ele>
        <time>2026-08-22T12:17:55Z</time>
      </trkpt>
      <trkpt lat="47.59487" lon="-2.67627">
        <ele>7</ele>
        <time>2026-08-22T12:17:56Z</time>
      </trkpt>
      <trkpt lat="47.59491" lon="-2.67622">
        <ele>7</ele>
        <time>2026-08-22T12:17:57Z</time>
      </trkpt>
      <trkpt lat="47.59494" lon="-2.67618">
        <ele>7</ele>
        <time>2026-08-22T12:17:58Z</time>
      </trkpt>
      <trkpt lat="47.59498" lon="-2.67613">
        <ele>7</ele>
        <time>2026-08-22T12:17:59Z</time>
      </trkpt>
      <trkpt lat="47.59501" lon="-2.67608">
        <ele>7</ele>
        <time>2026-08-22T12:18:00Z</time>
      </trkpt>
      <trkpt lat="47.59505" lon="-2.67603">
        <ele>7.1</ele>
        <time>2026-08-22T12:18:01Z</time>
      </trkpt>
      <trkpt lat="47.59508" lon="-2.67599">
        <ele>7.1</ele>
        <time>2026-08-22T12:18:02Z</time>
      </trkpt>
      <trkpt lat="47.59512" lon="-2.67595">
        <ele>7.3</ele>
        <time>2026-08-22T12:18:03Z</time>
      </trkpt>
      <trkpt lat="47.59516" lon="-2.67592">
        <ele>7.4</ele>
        <time>2026-08-22T12:18:04Z</time>
      </trkpt>
      <trkpt lat="47.59519" lon="-2.67588">
        <ele>7.6</ele>
        <time>2026-08-22T12:18:05Z</time>
      </trkpt>
      <trkpt lat="47.59523" lon="-2.67584">
        <ele>7.8</ele>
        <time>2026-08-22T12:18:06Z</time>
      </trkpt>
      <trkpt lat="47.59527" lon="-2.67581">
        <ele>7.9</ele>
        <time>2026-08-22T12:18:07Z</time>
      </trkpt>
      <trkpt lat="47.59531" lon="-2.67577">
        <ele>7.8</ele>
        <time>2026-08-22T12:18:08Z</time>
      </trkpt>
      <trkpt lat="47.59534" lon="-2.67574">
        <ele>7.7</ele>
        <time>2026-08-22T12:18:09Z</time>
      </trkpt>
      <trkpt lat="47.59537" lon="-2.6757">
        <ele>7.7</ele>
        <time>2026-08-22T12:18:10Z</time>
      </trkpt>
      <trkpt lat="47.5954" lon="-2.67566">
        <ele>7.7</ele>
        <time>2026-08-22T12:18:11Z</time>
      </trkpt>
      <trkpt lat="47.59543" lon="-2.67562">
        <ele>7.7</ele>
        <time>2026-08-22T12:18:12Z</time>
      </trkpt>
      <trkpt lat="47.59546" lon="-2.67557">
        <ele>7.7</ele>
        <time>2026-08-22T12:18:13Z</time>
      </trkpt>
      <trkpt lat="47.59549" lon="-2.67553">
        <ele>7.8</ele>
        <time>2026-08-22T12:18:14Z</time>
      </trkpt>
      <trkpt lat="47.59552" lon="-2.67548">
        <ele>7.9</ele>
        <time>2026-08-22T12:18:15Z</time>
      </trkpt>
      <trkpt lat="47.59554" lon="-2.67543">
        <ele>8</ele>
        <time>2026-08-22T12:18:16Z</time>
      </trkpt>
      <trkpt lat="47.59557" lon="-2.67538">
        <ele>8.1</ele>
        <time>2026-08-22T12:18:17Z</time>
      </trkpt>
      <trkpt lat="47.5956" lon="-2.67534">
        <ele>8.2</ele>
        <time>2026-08-22T12:18:18Z</time>
      </trkpt>
      <trkpt lat="47.59562" lon="-2.67529">
        <ele>8.2</ele>
        <time>2026-08-22T12:18:19Z</time>
      </trkpt>
      <trkpt lat="47.59565" lon="-2.67523">
        <ele>8.3</ele>
        <time>2026-08-22T12:18:20Z</time>
      </trkpt>
      <trkpt lat="47.59568" lon="-2.67518">
        <ele>8.4</ele>
        <time>2026-08-22T12:18:21Z</time>
      </trkpt>
      <trkpt lat="47.59571" lon="-2.67513">
        <ele>8.6</ele>
        <time>2026-08-22T12:18:22Z</time>
      </trkpt>
      <trkpt lat="47.59573" lon="-2.67508">
        <ele>8.6</ele>
        <time>2026-08-22T12:18:23Z</time>
      </trkpt>
      <trkpt lat="47.59576" lon="-2.67503">
        <ele>8.7</ele>
        <time>2026-08-22T12:18:24Z</time>
      </trkpt>
      <trkpt lat="47.59579" lon="-2.67498">
        <ele>8.8</ele>
        <time>2026-08-22T12:18:25Z</time>
      </trkpt>
      <trkpt lat="47.59581" lon="-2.67493">
        <ele>8.7</ele>
        <time>2026-08-22T12:18:26Z</time>
      </trkpt>
      <trkpt lat="47.59584" lon="-2.67488">
        <ele>8.6</ele>
        <time>2026-08-22T12:18:27Z</time>
      </trkpt>
      <trkpt lat="47.59587" lon="-2.67483">
        <ele>8.5</ele>
        <time>2026-08-22T12:18:28Z</time>
      </trkpt>
      <trkpt lat="47.59589" lon="-2.67478">
        <ele>8.4</ele>
        <time>2026-08-22T12:18:29Z</time>
      </trkpt>
      <trkpt lat="47.59592" lon="-2.67473">
        <ele>8.3</ele>
        <time>2026-08-22T12:18:30Z</time>
      </trkpt>
      <trkpt lat="47.59595" lon="-2.67468">
        <ele>8.4</ele>
        <time>2026-08-22T12:18:31Z</time>
      </trkpt>
      <trkpt lat="47.59598" lon="-2.67463">
        <ele>8.5</ele>
        <time>2026-08-22T12:18:32Z</time>
      </trkpt>
      <trkpt lat="47.596" lon="-2.67458">
        <ele>8.6</ele>
        <time>2026-08-22T12:18:33Z</time>
      </trkpt>
      <trkpt lat="47.59603" lon="-2.67453">
        <ele>8.7</ele>
        <time>2026-08-22T12:18:34Z</time>
      </trkpt>
      <trkpt lat="47.59606" lon="-2.67448">
        <ele>8.8</ele>
        <time>2026-08-22T12:18:35Z</time>
      </trkpt>
      <trkpt lat="47.59608" lon="-2.67443">
        <ele>8.9</ele>
        <time>2026-08-22T12:18:36Z</time>
      </trkpt>
      <trkpt lat="47.59611" lon="-2.67438">
        <ele>9</ele>
        <time>2026-08-22T12:18:37Z</time>
      </trkpt>
      <trkpt lat="47.59614" lon="-2.67433">
        <ele>9.1</ele>
        <time>2026-08-22T12:18:38Z</time>
      </trkpt>
      <trkpt lat="47.59617" lon="-2.67428">
        <ele>9.1</ele>
        <time>2026-08-22T12:18:39Z</time>
      </trkpt>
      <trkpt lat="47.5962" lon="-2.67422">
        <ele>9.1</ele>
        <time>2026-08-22T12:18:40Z</time>
      </trkpt>
      <trkpt lat="47.59623" lon="-2.67417">
        <ele>9</ele>
        <time>2026-08-22T12:18:41Z</time>
      </trkpt>
      <trkpt lat="47.59626" lon="-2.67412">
        <ele>8.8</ele>
        <time>2026-08-22T12:18:42Z</time>
      </trkpt>
      <trkpt lat="47.59629" lon="-2.67406">
        <ele>8.6</ele>
        <time>2026-08-22T12:18:43Z</time>
      </trkpt>
      <trkpt lat="47.59631" lon="-2.67401">
        <ele>8.4</ele>
        <time>2026-08-22T12:18:44Z</time>
      </trkpt>
      <trkpt lat="47.59634" lon="-2.67396">
        <ele>8.3</ele>
        <time>2026-08-22T12:18:45Z</time>
      </trkpt>
      <trkpt lat="47.59637" lon="-2.6739">
        <ele>8</ele>
        <time>2026-08-22T12:18:46Z</time>
      </trkpt>
      <trkpt lat="47.5964" lon="-2.67385">
        <ele>8</ele>
        <time>2026-08-22T12:18:47Z</time>
      </trkpt>
      <trkpt lat="47.59643" lon="-2.67379">
        <ele>8.1</ele>
        <time>2026-08-22T12:18:48Z</time>
      </trkpt>
      <trkpt lat="47.59646" lon="-2.67374">
        <ele>8.1</ele>
        <time>2026-08-22T12:18:49Z</time>
      </trkpt>
      <trkpt lat="47.59649" lon="-2.67369">
        <ele>8.1</ele>
        <time>2026-08-22T12:18:50Z</time>
      </trkpt>
      <trkpt lat="47.59652" lon="-2.67364">
        <ele>8</ele>
        <time>2026-08-22T12:18:51Z</time>
      </trkpt>
      <trkpt lat="47.59655" lon="-2.67359">
        <ele>7.9</ele>
        <time>2026-08-22T12:18:52Z</time>
      </trkpt>
      <trkpt lat="47.59658" lon="-2.67355">
        <ele>7.8</ele>
        <time>2026-08-22T12:18:53Z</time>
      </trkpt>
      <trkpt lat="47.59661" lon="-2.6735">
        <ele>7.6</ele>
        <time>2026-08-22T12:18:54Z</time>
      </trkpt>
      <trkpt lat="47.59664" lon="-2.67346">
        <ele>7.5</ele>
        <time>2026-08-22T12:18:55Z</time>
      </trkpt>
      <trkpt lat="47.59667" lon="-2.67342">
        <ele>7.3</ele>
        <time>2026-08-22T12:18:56Z</time>
      </trkpt>
      <trkpt lat="47.59671" lon="-2.67337">
        <ele>7.1</ele>
        <time>2026-08-22T12:18:57Z</time>
      </trkpt>
      <trkpt lat="47.59674" lon="-2.67333">
        <ele>7</ele>
        <time>2026-08-22T12:18:58Z</time>
      </trkpt>
      <trkpt lat="47.59677" lon="-2.67329">
        <ele>7</ele>
        <time>2026-08-22T12:18:59Z</time>
      </trkpt>
      <trkpt lat="47.59681" lon="-2.67325">
        <ele>7</ele>
        <time>2026-08-22T12:19:00Z</time>
      </trkpt>
      <trkpt lat="47.59684" lon="-2.67321">
        <ele>7</ele>
        <time>2026-08-22T12:19:01Z</time>
      </trkpt>
      <trkpt lat="47.59688" lon="-2.67317">
        <ele>7</ele>
        <time>2026-08-22T12:19:02Z</time>
      </trkpt>
      <trkpt lat="47.59692" lon="-2.67312">
        <ele>7</ele>
        <time>2026-08-22T12:19:03Z</time>
      </trkpt>
      <trkpt lat="47.59695" lon="-2.67308">
        <ele>7</ele>
        <time>2026-08-22T12:19:04Z</time>
      </trkpt>
      <trkpt lat="47.59699" lon="-2.67303">
        <ele>6.9</ele>
        <time>2026-08-22T12:19:05Z</time>
      </trkpt>
      <trkpt lat="47.59702" lon="-2.67299">
        <ele>6.8</ele>
        <time>2026-08-22T12:19:06Z</time>
      </trkpt>
      <trkpt lat="47.59705" lon="-2.67295">
        <ele>6.6</ele>
        <time>2026-08-22T12:19:07Z</time>
      </trkpt>
      <trkpt lat="47.59708" lon="-2.6729">
        <ele>6.4</ele>
        <time>2026-08-22T12:19:08Z</time>
      </trkpt>
      <trkpt lat="47.5971" lon="-2.67286">
        <ele>6.3</ele>
        <time>2026-08-22T12:19:09Z</time>
      </trkpt>
      <trkpt lat="47.59713" lon="-2.67282">
        <ele>6.2</ele>
        <time>2026-08-22T12:19:10Z</time>
      </trkpt>
      <trkpt lat="47.59716" lon="-2.67277">
        <ele>6</ele>
        <time>2026-08-22T12:19:11Z</time>
      </trkpt>
      <trkpt lat="47.59719" lon="-2.67273">
        <ele>6</ele>
        <time>2026-08-22T12:19:12Z</time>
      </trkpt>
      <trkpt lat="47.59721" lon="-2.67269">
        <ele>6</ele>
        <time>2026-08-22T12:19:13Z</time>
      </trkpt>
      <trkpt lat="47.59724" lon="-2.67264">
        <ele>6</ele>
        <time>2026-08-22T12:19:14Z</time>
      </trkpt>
      <trkpt lat="47.59728" lon="-2.67259">
        <ele>6</ele>
        <time>2026-08-22T12:19:15Z</time>
      </trkpt>
      <trkpt lat="47.59731" lon="-2.67254">
        <ele>6</ele>
        <time>2026-08-22T12:19:16Z</time>
      </trkpt>
      <trkpt lat="47.59734" lon="-2.67249">
        <ele>6</ele>
        <time>2026-08-22T12:19:17Z</time>
      </trkpt>
      <trkpt lat="47.59737" lon="-2.67244">
        <ele>6</ele>
        <time>2026-08-22T12:19:18Z</time>
      </trkpt>
      <trkpt lat="47.59741" lon="-2.67239">
        <ele>6</ele>
        <time>2026-08-22T12:19:19Z</time>
      </trkpt>
      <trkpt lat="47.59744" lon="-2.67234">
        <ele>6</ele>
        <time>2026-08-22T12:19:20Z</time>
      </trkpt>
      <trkpt lat="47.59747" lon="-2.67229">
        <ele>6</ele>
        <time>2026-08-22T12:19:21Z</time>
      </trkpt>
      <trkpt lat="47.59751" lon="-2.67224">
        <ele>6</ele>
        <time>2026-08-22T12:19:22Z</time>
      </trkpt>
      <trkpt lat="47.59754" lon="-2.67219">
        <ele>5.8</ele>
        <time>2026-08-22T12:19:23Z</time>
      </trkpt>
      <trkpt lat="47.59757" lon="-2.67214">
        <ele>5.5</ele>
        <time>2026-08-22T12:19:24Z</time>
      </trkpt>
      <trkpt lat="47.5976" lon="-2.67208">
        <ele>5.3</ele>
        <time>2026-08-22T12:19:25Z</time>
      </trkpt>
      <trkpt lat="47.59765" lon="-2.67202">
        <ele>5.1</ele>
        <time>2026-08-22T12:19:26Z</time>
      </trkpt>
      <trkpt lat="47.59769" lon="-2.67196">
        <ele>5</ele>
        <time>2026-08-22T12:19:27Z</time>
      </trkpt>
      <trkpt lat="47.59772" lon="-2.6719">
        <ele>5</ele>
        <time>2026-08-22T12:19:28Z</time>
      </trkpt>
      <trkpt lat="47.59775" lon="-2.67184">
        <ele>5</ele>
        <time>2026-08-22T12:19:29Z</time>
      </trkpt>
      <trkpt lat="47.59779" lon="-2.67178">
        <ele>5</ele>
        <time>2026-08-22T12:19:30Z</time>
      </trkpt>
      <trkpt lat="47.59781" lon="-2.67173">
        <ele>4.9</ele>
        <time>2026-08-22T12:19:31Z</time>
      </trkpt>
      <trkpt lat="47.59783" lon="-2.67169">
        <ele>4.8</ele>
        <time>2026-08-22T12:19:32Z</time>
      </trkpt>
      <trkpt lat="47.59786" lon="-2.67164">
        <ele>4.7</ele>
        <time>2026-08-22T12:19:33Z</time>
      </trkpt>
      <trkpt lat="47.5979" lon="-2.67158">
        <ele>4.6</ele>
        <time>2026-08-22T12:19:34Z</time>
      </trkpt>
      <trkpt lat="47.59793" lon="-2.67151">
        <ele>4.5</ele>
        <time>2026-08-22T12:19:35Z</time>
      </trkpt>
      <trkpt lat="47.59796" lon="-2.67145">
        <ele>4.3</ele>
        <time>2026-08-22T12:19:36Z</time>
      </trkpt>
      <trkpt lat="47.59799" lon="-2.67139">
        <ele>4.2</ele>
        <time>2026-08-22T12:19:37Z</time>
      </trkpt>
      <trkpt lat="47.59803" lon="-2.67133">
        <ele>4.1</ele>
        <time>2026-08-22T12:19:38Z</time>
      </trkpt>
      <trkpt lat="47.59806" lon="-2.67127">
        <ele>4</ele>
        <time>2026-08-22T12:19:39Z</time>
      </trkpt>
      <trkpt lat="47.59808" lon="-2.67122">
        <ele>4</ele>
        <time>2026-08-22T12:19:40Z</time>
      </trkpt>
      <trkpt lat="47.59811" lon="-2.67116">
        <ele>4</ele>
        <time>2026-08-22T12:19:41Z</time>
      </trkpt>
      <trkpt lat="47.59813" lon="-2.6711">
        <ele>4</ele>
        <time>2026-08-22T12:19:42Z</time>
      </trkpt>
      <trkpt lat="47.59814" lon="-2.67103">
        <ele>4</ele>
        <time>2026-08-22T12:19:43Z</time>
      </trkpt>
      <trkpt lat="47.59816" lon="-2.67097">
        <ele>4</ele>
        <time>2026-08-22T12:19:44Z</time>
      </trkpt>
      <trkpt lat="47.59818" lon="-2.67089">
        <ele>4</ele>
        <time>2026-08-22T12:19:45Z</time>
      </trkpt>
      <trkpt lat="47.59821" lon="-2.6708">
        <ele>4</ele>
        <time>2026-08-22T12:19:46Z</time>
      </trkpt>
      <trkpt lat="47.59823" lon="-2.67073">
        <ele>4</ele>
        <time>2026-08-22T12:19:47Z</time>
      </trkpt>
      <trkpt lat="47.59824" lon="-2.67066">
        <ele>4</ele>
        <time>2026-08-22T12:19:48Z</time>
      </trkpt>
      <trkpt lat="47.59826" lon="-2.67059">
        <ele>4</ele>
        <time>2026-08-22T12:19:49Z</time>
      </trkpt>
      <trkpt lat="47.59828" lon="-2.67053">
        <ele>4</ele>
        <time>2026-08-22T12:19:50Z</time>
      </trkpt>
      <trkpt lat="47.5983" lon="-2.67047">
        <ele>4</ele>
        <time>2026-08-22T12:19:51Z</time>
      </trkpt>
      <trkpt lat="47.59832" lon="-2.67041">
        <ele>4</ele>
        <time>2026-08-22T12:19:52Z</time>
      </trkpt>
      <trkpt lat="47.59834" lon="-2.67035">
        <ele>4</ele>
        <time>2026-08-22T12:19:53Z</time>
      </trkpt>
      <trkpt lat="47.59836" lon="-2.6703">
        <ele>4</ele>
        <time>2026-08-22T12:19:54Z</time>
      </trkpt>
      <trkpt lat="47.59839" lon="-2.67025">
        <ele>4</ele>
        <time>2026-08-22T12:19:55Z</time>
      </trkpt>
      <trkpt lat="47.59842" lon="-2.6702">
        <ele>4.1</ele>
        <time>2026-08-22T12:19:56Z</time>
      </trkpt>
      <trkpt lat="47.59844" lon="-2.67014">
        <ele>4.2</ele>
        <time>2026-08-22T12:19:57Z</time>
      </trkpt>
      <trkpt lat="47.59846" lon="-2.67009">
        <ele>4.3</ele>
        <time>2026-08-22T12:19:58Z</time>
      </trkpt>
      <trkpt lat="47.59847" lon="-2.67004">
        <ele>4.4</ele>
        <time>2026-08-22T12:19:59Z</time>
      </trkpt>
      <trkpt lat="47.59849" lon="-2.66998">
        <ele>4.6</ele>
        <time>2026-08-22T12:20:00Z</time>
      </trkpt>
      <trkpt lat="47.5985" lon="-2.66992">
        <ele>4.7</ele>
        <time>2026-08-22T12:20:01Z</time>
      </trkpt>
      <trkpt lat="47.59852" lon="-2.66986">
        <ele>4.8</ele>
        <time>2026-08-22T12:20:02Z</time>
      </trkpt>
      <trkpt lat="47.59854" lon="-2.66981">
        <ele>4.9</ele>
        <time>2026-08-22T12:20:03Z</time>
      </trkpt>
      <trkpt lat="47.59856" lon="-2.66975">
        <ele>5</ele>
        <time>2026-08-22T12:20:04Z</time>
      </trkpt>
      <trkpt lat="47.59858" lon="-2.6697">
        <ele>5</ele>
        <time>2026-08-22T12:20:05Z</time>
      </trkpt>
      <trkpt lat="47.59861" lon="-2.66966">
        <ele>5</ele>
        <time>2026-08-22T12:20:06Z</time>
      </trkpt>
      <trkpt lat="47.59864" lon="-2.66965">
        <ele>5</ele>
        <time>2026-08-22T12:20:07Z</time>
      </trkpt>
      <trkpt lat="47.59867" lon="-2.66966">
        <ele>5</ele>
        <time>2026-08-22T12:20:08Z</time>
      </trkpt>
      <trkpt lat="47.59871" lon="-2.66967">
        <ele>5.1</ele>
        <time>2026-08-22T12:20:09Z</time>
      </trkpt>
      <trkpt lat="47.59874" lon="-2.66968">
        <ele>5.1</ele>
        <time>2026-08-22T12:20:10Z</time>
      </trkpt>
      <trkpt lat="47.59878" lon="-2.66969">
        <ele>5.1</ele>
        <time>2026-08-22T12:20:11Z</time>
      </trkpt>
      <trkpt lat="47.59881" lon="-2.6697">
        <ele>5.1</ele>
        <time>2026-08-22T12:20:12Z</time>
      </trkpt>
      <trkpt lat="47.59884" lon="-2.66972">
        <ele>5</ele>
        <time>2026-08-22T12:20:13Z</time>
      </trkpt>
      <trkpt lat="47.59888" lon="-2.66973">
        <ele>5</ele>
        <time>2026-08-22T12:20:14Z</time>
      </trkpt>
      <trkpt lat="47.59892" lon="-2.66975">
        <ele>5.2</ele>
        <time>2026-08-22T12:20:15Z</time>
      </trkpt>
      <trkpt lat="47.59895" lon="-2.66976">
        <ele>5.3</ele>
        <time>2026-08-22T12:20:16Z</time>
      </trkpt>
      <trkpt lat="47.59899" lon="-2.66977">
        <ele>5.5</ele>
        <time>2026-08-22T12:20:17Z</time>
      </trkpt>
      <trkpt lat="47.59903" lon="-2.66978">
        <ele>5.6</ele>
        <time>2026-08-22T12:20:18Z</time>
      </trkpt>
      <trkpt lat="47.59908" lon="-2.6698">
        <ele>5.8</ele>
        <time>2026-08-22T12:20:19Z</time>
      </trkpt>
      <trkpt lat="47.59912" lon="-2.66981">
        <ele>5.9</ele>
        <time>2026-08-22T12:20:20Z</time>
      </trkpt>
      <trkpt lat="47.59915" lon="-2.66983">
        <ele>6</ele>
        <time>2026-08-22T12:20:21Z</time>
      </trkpt>
      <trkpt lat="47.59919" lon="-2.66985">
        <ele>6</ele>
        <time>2026-08-22T12:20:22Z</time>
      </trkpt>
      <trkpt lat="47.59923" lon="-2.66986">
        <ele>6</ele>
        <time>2026-08-22T12:20:23Z</time>
      </trkpt>
      <trkpt lat="47.59927" lon="-2.66987">
        <ele>6</ele>
        <time>2026-08-22T12:20:24Z</time>
      </trkpt>
      <trkpt lat="47.59931" lon="-2.66988">
        <ele>6</ele>
        <time>2026-08-22T12:20:25Z</time>
      </trkpt>
      <trkpt lat="47.59934" lon="-2.6699">
        <ele>6</ele>
        <time>2026-08-22T12:20:26Z</time>
      </trkpt>
      <trkpt lat="47.59938" lon="-2.66993">
        <ele>6</ele>
        <time>2026-08-22T12:20:27Z</time>
      </trkpt>
      <trkpt lat="47.59942" lon="-2.66995">
        <ele>6</ele>
        <time>2026-08-22T12:20:28Z</time>
      </trkpt>
      <trkpt lat="47.59946" lon="-2.66997">
        <ele>6</ele>
        <time>2026-08-22T12:20:29Z</time>
      </trkpt>
      <trkpt lat="47.5995" lon="-2.66999">
        <ele>6</ele>
        <time>2026-08-22T12:20:30Z</time>
      </trkpt>
      <trkpt lat="47.59955" lon="-2.67001">
        <ele>6</ele>
        <time>2026-08-22T12:20:31Z</time>
      </trkpt>
      <trkpt lat="47.59959" lon="-2.67003">
        <ele>6</ele>
        <time>2026-08-22T12:20:32Z</time>
      </trkpt>
      <trkpt lat="47.59963" lon="-2.67005">
        <ele>6</ele>
        <time>2026-08-22T12:20:33Z</time>
      </trkpt>
      <trkpt lat="47.59967" lon="-2.67008">
        <ele>6</ele>
        <time>2026-08-22T12:20:34Z</time>
      </trkpt>
      <trkpt lat="47.59971" lon="-2.67011">
        <ele>6</ele>
        <time>2026-08-22T12:20:35Z</time>
      </trkpt>
      <trkpt lat="47.59974" lon="-2.67014">
        <ele>6</ele>
        <time>2026-08-22T12:20:36Z</time>
      </trkpt>
      <trkpt lat="47.59977" lon="-2.67017">
        <ele>6</ele>
        <time>2026-08-22T12:20:37Z</time>
      </trkpt>
      <trkpt lat="47.59981" lon="-2.67021">
        <ele>6</ele>
        <time>2026-08-22T12:20:38Z</time>
      </trkpt>
      <trkpt lat="47.59986" lon="-2.67025">
        <ele>6</ele>
        <time>2026-08-22T12:20:39Z</time>
      </trkpt>
      <trkpt lat="47.5999" lon="-2.67028">
        <ele>6</ele>
        <time>2026-08-22T12:20:40Z</time>
      </trkpt>
      <trkpt lat="47.59993" lon="-2.67029">
        <ele>6</ele>
        <time>2026-08-22T12:20:41Z</time>
      </trkpt>
      <trkpt lat="47.59997" lon="-2.67032">
        <ele>6</ele>
        <time>2026-08-22T12:20:42Z</time>
      </trkpt>
      <trkpt lat="47.6" lon="-2.67034">
        <ele>6</ele>
        <time>2026-08-22T12:20:43Z</time>
      </trkpt>
      <trkpt lat="47.60004" lon="-2.67037">
        <ele>6</ele>
        <time>2026-08-22T12:20:44Z</time>
      </trkpt>
      <trkpt lat="47.60008" lon="-2.6704">
        <ele>6</ele>
        <time>2026-08-22T12:20:45Z</time>
      </trkpt>
      <trkpt lat="47.60011" lon="-2.67042">
        <ele>6</ele>
        <time>2026-08-22T12:20:46Z</time>
      </trkpt>
      <trkpt lat="47.60014" lon="-2.67045">
        <ele>6</ele>
        <time>2026-08-22T12:20:47Z</time>
      </trkpt>
      <trkpt lat="47.60018" lon="-2.67048">
        <ele>6</ele>
        <time>2026-08-22T12:20:48Z</time>
      </trkpt>
      <trkpt lat="47.60022" lon="-2.67051">
        <ele>6</ele>
        <time>2026-08-22T12:20:49Z</time>
      </trkpt>
      <trkpt lat="47.60027" lon="-2.67054">
        <ele>6</ele>
        <time>2026-08-22T12:20:50Z</time>
      </trkpt>
      <trkpt lat="47.6003" lon="-2.67057">
        <ele>6</ele>
        <time>2026-08-22T12:20:51Z</time>
      </trkpt>
      <trkpt lat="47.60034" lon="-2.6706">
        <ele>5.9</ele>
        <time>2026-08-22T12:20:52Z</time>
      </trkpt>
      <trkpt lat="47.60038" lon="-2.67063">
        <ele>5.8</ele>
        <time>2026-08-22T12:20:53Z</time>
      </trkpt>
      <trkpt lat="47.60043" lon="-2.67066">
        <ele>5.8</ele>
        <time>2026-08-22T12:20:54Z</time>
      </trkpt>
      <trkpt lat="47.60046" lon="-2.67069">
        <ele>5.8</ele>
        <time>2026-08-22T12:20:55Z</time>
      </trkpt>
      <trkpt lat="47.60051" lon="-2.67072">
        <ele>5.9</ele>
        <time>2026-08-22T12:20:56Z</time>
      </trkpt>
      <trkpt lat="47.60054" lon="-2.67075">
        <ele>6</ele>
        <time>2026-08-22T12:20:57Z</time>
      </trkpt>
      <trkpt lat="47.60058" lon="-2.67078">
        <ele>6</ele>
        <time>2026-08-22T12:20:58Z</time>
      </trkpt>
      <trkpt lat="47.60063" lon="-2.67081">
        <ele>6</ele>
        <time>2026-08-22T12:20:59Z</time>
      </trkpt>
      <trkpt lat="47.60067" lon="-2.67083">
        <ele>6</ele>
        <time>2026-08-22T12:21:00Z</time>
      </trkpt>
      <trkpt lat="47.6007" lon="-2.67086">
        <ele>6</ele>
        <time>2026-08-22T12:21:01Z</time>
      </trkpt>
      <trkpt lat="47.60074" lon="-2.6709">
        <ele>5.9</ele>
        <time>2026-08-22T12:21:02Z</time>
      </trkpt>
      <trkpt lat="47.60078" lon="-2.67095">
        <ele>5.9</ele>
        <time>2026-08-22T12:21:03Z</time>
      </trkpt>
      <trkpt lat="47.60081" lon="-2.67099">
        <ele>6</ele>
        <time>2026-08-22T12:21:04Z</time>
      </trkpt>
      <trkpt lat="47.60084" lon="-2.67104">
        <ele>6</ele>
        <time>2026-08-22T12:21:05Z</time>
      </trkpt>
      <trkpt lat="47.60087" lon="-2.67109">
        <ele>6</ele>
        <time>2026-08-22T12:21:06Z</time>
      </trkpt>
      <trkpt lat="47.6009" lon="-2.67113">
        <ele>6</ele>
        <time>2026-08-22T12:21:07Z</time>
      </trkpt>
      <trkpt lat="47.60093" lon="-2.67117">
        <ele>6</ele>
        <time>2026-08-22T12:21:08Z</time>
      </trkpt>
      <trkpt lat="47.60096" lon="-2.67121">
        <ele>6</ele>
        <time>2026-08-22T12:21:09Z</time>
      </trkpt>
      <trkpt lat="47.601" lon="-2.67125">
        <ele>6</ele>
        <time>2026-08-22T12:21:10Z</time>
      </trkpt>
      <trkpt lat="47.60103" lon="-2.67129">
        <ele>6</ele>
        <time>2026-08-22T12:21:11Z</time>
      </trkpt>
      <trkpt lat="47.60107" lon="-2.67132">
        <ele>6</ele>
        <time>2026-08-22T12:21:12Z</time>
      </trkpt>
      <trkpt lat="47.6011" lon="-2.67136">
        <ele>6</ele>
        <time>2026-08-22T12:21:13Z</time>
      </trkpt>
      <trkpt lat="47.60114" lon="-2.67139">
        <ele>6.1</ele>
        <time>2026-08-22T12:21:14Z</time>
      </trkpt>
      <trkpt lat="47.60118" lon="-2.67143">
        <ele>6.2</ele>
        <time>2026-08-22T12:21:15Z</time>
      </trkpt>
      <trkpt lat="47.60121" lon="-2.67147">
        <ele>6.4</ele>
        <time>2026-08-22T12:21:16Z</time>
      </trkpt>
      <trkpt lat="47.60124" lon="-2.67151">
        <ele>6.5</ele>
        <time>2026-08-22T12:21:17Z</time>
      </trkpt>
      <trkpt lat="47.60127" lon="-2.67154">
        <ele>6.6</ele>
        <time>2026-08-22T12:21:18Z</time>
      </trkpt>
      <trkpt lat="47.6013" lon="-2.67158">
        <ele>6.7</ele>
        <time>2026-08-22T12:21:19Z</time>
      </trkpt>
      <trkpt lat="47.60134" lon="-2.67161">
        <ele>6.8</ele>
        <time>2026-08-22T12:21:20Z</time>
      </trkpt>
      <trkpt lat="47.60137" lon="-2.67166">
        <ele>6.9</ele>
        <time>2026-08-22T12:21:21Z</time>
      </trkpt>
      <trkpt lat="47.6014" lon="-2.6717">
        <ele>7</ele>
        <time>2026-08-22T12:21:22Z</time>
      </trkpt>
      <trkpt lat="47.60143" lon="-2.67174">
        <ele>7</ele>
        <time>2026-08-22T12:21:23Z</time>
      </trkpt>
      <trkpt lat="47.60147" lon="-2.67178">
        <ele>7</ele>
        <time>2026-08-22T12:21:24Z</time>
      </trkpt>
      <trkpt lat="47.6015" lon="-2.67183">
        <ele>7</ele>
        <time>2026-08-22T12:21:25Z</time>
      </trkpt>
      <trkpt lat="47.60153" lon="-2.67187">
        <ele>7</ele>
        <time>2026-08-22T12:21:26Z</time>
      </trkpt>
      <trkpt lat="47.60156" lon="-2.67192">
        <ele>7</ele>
        <time>2026-08-22T12:21:27Z</time>
      </trkpt>
      <trkpt lat="47.60159" lon="-2.67196">
        <ele>7</ele>
        <time>2026-08-22T12:21:28Z</time>
      </trkpt>
      <trkpt lat="47.60162" lon="-2.67201">
        <ele>7</ele>
        <time>2026-08-22T12:21:29Z</time>
      </trkpt>
      <trkpt lat="47.60166" lon="-2.67205">
        <ele>7</ele>
        <time>2026-08-22T12:21:30Z</time>
      </trkpt>
      <trkpt lat="47.60169" lon="-2.6721">
        <ele>7.1</ele>
        <time>2026-08-22T12:21:31Z</time>
      </trkpt>
      <trkpt lat="47.60173" lon="-2.67214">
        <ele>7.2</ele>
        <time>2026-08-22T12:21:32Z</time>
      </trkpt>
      <trkpt lat="47.60176" lon="-2.67219">
        <ele>7.3</ele>
        <time>2026-08-22T12:21:33Z</time>
      </trkpt>
      <trkpt lat="47.60179" lon="-2.67223">
        <ele>7.4</ele>
        <time>2026-08-22T12:21:34Z</time>
      </trkpt>
      <trkpt lat="47.60182" lon="-2.67227">
        <ele>7.5</ele>
        <time>2026-08-22T12:21:35Z</time>
      </trkpt>
      <trkpt lat="47.60186" lon="-2.67231">
        <ele>7.5</ele>
        <time>2026-08-22T12:21:36Z</time>
      </trkpt>
      <trkpt lat="47.60189" lon="-2.67236">
        <ele>7.4</ele>
        <time>2026-08-22T12:21:37Z</time>
      </trkpt>
      <trkpt lat="47.60192" lon="-2.6724">
        <ele>7.3</ele>
        <time>2026-08-22T12:21:38Z</time>
      </trkpt>
      <trkpt lat="47.60195" lon="-2.67244">
        <ele>7.2</ele>
        <time>2026-08-22T12:21:39Z</time>
      </trkpt>
      <trkpt lat="47.60198" lon="-2.67249">
        <ele>7.2</ele>
        <time>2026-08-22T12:21:40Z</time>
      </trkpt>
      <trkpt lat="47.60201" lon="-2.67253">
        <ele>7.2</ele>
        <time>2026-08-22T12:21:41Z</time>
      </trkpt>
      <trkpt lat="47.60204" lon="-2.67257">
        <ele>7.3</ele>
        <time>2026-08-22T12:21:42Z</time>
      </trkpt>
      <trkpt lat="47.60208" lon="-2.67261">
        <ele>7.5</ele>
        <time>2026-08-22T12:21:43Z</time>
      </trkpt>
      <trkpt lat="47.60211" lon="-2.67265">
        <ele>7.6</ele>
        <time>2026-08-22T12:21:44Z</time>
      </trkpt>
      <trkpt lat="47.60215" lon="-2.67268">
        <ele>7.7</ele>
        <time>2026-08-22T12:21:45Z</time>
      </trkpt>
      <trkpt lat="47.60218" lon="-2.67271">
        <ele>7.8</ele>
        <time>2026-08-22T12:21:46Z</time>
      </trkpt>
      <trkpt lat="47.60222" lon="-2.67275">
        <ele>8</ele>
        <time>2026-08-22T12:21:47Z</time>
      </trkpt>
      <trkpt lat="47.60225" lon="-2.67278">
        <ele>8</ele>
        <time>2026-08-22T12:21:48Z</time>
      </trkpt>
      <trkpt lat="47.60229" lon="-2.67281">
        <ele>8</ele>
        <time>2026-08-22T12:21:49Z</time>
      </trkpt>
      <trkpt lat="47.60233" lon="-2.67284">
        <ele>8</ele>
        <time>2026-08-22T12:21:50Z</time>
      </trkpt>
      <trkpt lat="47.60236" lon="-2.67288">
        <ele>8</ele>
        <time>2026-08-22T12:21:51Z</time>
      </trkpt>
      <trkpt lat="47.6024" lon="-2.67291">
        <ele>8</ele>
        <time>2026-08-22T12:21:52Z</time>
      </trkpt>
      <trkpt lat="47.60244" lon="-2.67293">
        <ele>8</ele>
        <time>2026-08-22T12:21:53Z</time>
      </trkpt>
      <trkpt lat="47.60247" lon="-2.67296">
        <ele>8</ele>
        <time>2026-08-22T12:21:54Z</time>
      </trkpt>
      <trkpt lat="47.60252" lon="-2.67297">
        <ele>8.1</ele>
        <time>2026-08-22T12:21:55Z</time>
      </trkpt>
      <trkpt lat="47.60256" lon="-2.67298">
        <ele>8.2</ele>
        <time>2026-08-22T12:21:56Z</time>
      </trkpt>
      <trkpt lat="47.6026" lon="-2.67298">
        <ele>8.4</ele>
        <time>2026-08-22T12:21:57Z</time>
      </trkpt>
      <trkpt lat="47.60264" lon="-2.67298">
        <ele>8.5</ele>
        <time>2026-08-22T12:21:58Z</time>
      </trkpt>
      <trkpt lat="47.60268" lon="-2.67296">
        <ele>8.6</ele>
        <time>2026-08-22T12:21:59Z</time>
      </trkpt>
      <trkpt lat="47.60272" lon="-2.67294">
        <ele>8.8</ele>
        <time>2026-08-22T12:22:00Z</time>
      </trkpt>
      <trkpt lat="47.60277" lon="-2.67292">
        <ele>9</ele>
        <time>2026-08-22T12:22:01Z</time>
      </trkpt>
      <trkpt lat="47.60281" lon="-2.6729">
        <ele>9</ele>
        <time>2026-08-22T12:22:02Z</time>
      </trkpt>
      <trkpt lat="47.60284" lon="-2.67288">
        <ele>9</ele>
        <time>2026-08-22T12:22:03Z</time>
      </trkpt>
      <trkpt lat="47.60288" lon="-2.67286">
        <ele>9</ele>
        <time>2026-08-22T12:22:04Z</time>
      </trkpt>
      <trkpt lat="47.60292" lon="-2.67284">
        <ele>9</ele>
        <time>2026-08-22T12:22:05Z</time>
      </trkpt>
      <trkpt lat="47.60297" lon="-2.67283">
        <ele>9</ele>
        <time>2026-08-22T12:22:06Z</time>
      </trkpt>
      <trkpt lat="47.60301" lon="-2.67282">
        <ele>9</ele>
        <time>2026-08-22T12:22:07Z</time>
      </trkpt>
      <trkpt lat="47.60305" lon="-2.67281">
        <ele>9</ele>
        <time>2026-08-22T12:22:08Z</time>
      </trkpt>
      <trkpt lat="47.60309" lon="-2.6728">
        <ele>9</ele>
        <time>2026-08-22T12:22:09Z</time>
      </trkpt>
      <trkpt lat="47.60313" lon="-2.67279">
        <ele>9</ele>
        <time>2026-08-22T12:22:10Z</time>
      </trkpt>
      <trkpt lat="47.60317" lon="-2.67279">
        <ele>9</ele>
        <time>2026-08-22T12:22:11Z</time>
      </trkpt>
      <trkpt lat="47.60321" lon="-2.67279">
        <ele>9</ele>
        <time>2026-08-22T12:22:12Z</time>
      </trkpt>
      <trkpt lat="47.60325" lon="-2.67279">
        <ele>9</ele>
        <time>2026-08-22T12:22:13Z</time>
      </trkpt>
      <trkpt lat="47.60329" lon="-2.67279">
        <ele>9</ele>
        <time>2026-08-22T12:22:14Z</time>
      </trkpt>
      <trkpt lat="47.60333" lon="-2.67279">
        <ele>9</ele>
        <time>2026-08-22T12:22:15Z</time>
      </trkpt>
      <trkpt lat="47.60338" lon="-2.67279">
        <ele>9</ele>
        <time>2026-08-22T12:22:16Z</time>
      </trkpt>
      <trkpt lat="47.60342" lon="-2.67278">
        <ele>9</ele>
        <time>2026-08-22T12:22:17Z</time>
      </trkpt>
      <trkpt lat="47.60347" lon="-2.67279">
        <ele>9</ele>
        <time>2026-08-22T12:22:18Z</time>
      </trkpt>
      <trkpt lat="47.60351" lon="-2.67279">
        <ele>9</ele>
        <time>2026-08-22T12:22:19Z</time>
      </trkpt>
      <trkpt lat="47.60355" lon="-2.6728">
        <ele>8.9</ele>
        <time>2026-08-22T12:22:20Z</time>
      </trkpt>
      <trkpt lat="47.60359" lon="-2.67281">
        <ele>8.9</ele>
        <time>2026-08-22T12:22:21Z</time>
      </trkpt>
      <trkpt lat="47.60363" lon="-2.67282">
        <ele>8.8</ele>
        <time>2026-08-22T12:22:22Z</time>
      </trkpt>
      <trkpt lat="47.60367" lon="-2.67283">
        <ele>8.6</ele>
        <time>2026-08-22T12:22:23Z</time>
      </trkpt>
      <trkpt lat="47.60371" lon="-2.67284">
        <ele>8.5</ele>
        <time>2026-08-22T12:22:24Z</time>
      </trkpt>
      <trkpt lat="47.60374" lon="-2.67285">
        <ele>8.4</ele>
        <time>2026-08-22T12:22:25Z</time>
      </trkpt>
      <trkpt lat="47.60378" lon="-2.67286">
        <ele>8.3</ele>
        <time>2026-08-22T12:22:26Z</time>
      </trkpt>
      <trkpt lat="47.60381" lon="-2.67287">
        <ele>8.2</ele>
        <time>2026-08-22T12:22:27Z</time>
      </trkpt>
      <trkpt lat="47.60385" lon="-2.67289">
        <ele>8.1</ele>
        <time>2026-08-22T12:22:28Z</time>
      </trkpt>
      <trkpt lat="47.60388" lon="-2.67292">
        <ele>8</ele>
        <time>2026-08-22T12:22:29Z</time>
      </trkpt>
      <trkpt lat="47.60393" lon="-2.67295">
        <ele>8</ele>
        <time>2026-08-22T12:22:30Z</time>
      </trkpt>
      <trkpt lat="47.60398" lon="-2.67296">
        <ele>8</ele>
        <time>2026-08-22T12:22:31Z</time>
      </trkpt>
      <trkpt lat="47.60402" lon="-2.67296">
        <ele>8</ele>
        <time>2026-08-22T12:22:32Z</time>
      </trkpt>
      <trkpt lat="47.60406" lon="-2.67294">
        <ele>8</ele>
        <time>2026-08-22T12:22:33Z</time>
      </trkpt>
      <trkpt lat="47.6041" lon="-2.67293">
        <ele>8</ele>
        <time>2026-08-22T12:22:34Z</time>
      </trkpt>
      <trkpt lat="47.60414" lon="-2.67292">
        <ele>8</ele>
        <time>2026-08-22T12:22:35Z</time>
      </trkpt>
      <trkpt lat="47.60419" lon="-2.67291">
        <ele>8</ele>
        <time>2026-08-22T12:22:36Z</time>
      </trkpt>
      <trkpt lat="47.60423" lon="-2.67289">
        <ele>7.9</ele>
        <time>2026-08-22T12:22:37Z</time>
      </trkpt>
      <trkpt lat="47.60428" lon="-2.67288">
        <ele>7.8</ele>
        <time>2026-08-22T12:22:38Z</time>
      </trkpt>
      <trkpt lat="47.60432" lon="-2.67286">
        <ele>7.8</ele>
        <time>2026-08-22T12:22:39Z</time>
      </trkpt>
      <trkpt lat="47.60437" lon="-2.67285">
        <ele>7.8</ele>
        <time>2026-08-22T12:22:40Z</time>
      </trkpt>
      <trkpt lat="47.60441" lon="-2.67284">
        <ele>7.8</ele>
        <time>2026-08-22T12:22:41Z</time>
      </trkpt>
      <trkpt lat="47.60445" lon="-2.67283">
        <ele>7.8</ele>
        <time>2026-08-22T12:22:42Z</time>
      </trkpt>
      <trkpt lat="47.60449" lon="-2.67282">
        <ele>7.7</ele>
        <time>2026-08-22T12:22:43Z</time>
      </trkpt>
      <trkpt lat="47.60453" lon="-2.67281">
        <ele>7.6</ele>
        <time>2026-08-22T12:22:44Z</time>
      </trkpt>
      <trkpt lat="47.60457" lon="-2.6728">
        <ele>7.5</ele>
        <time>2026-08-22T12:22:45Z</time>
      </trkpt>
      <trkpt lat="47.60462" lon="-2.67279">
        <ele>7.4</ele>
        <time>2026-08-22T12:22:46Z</time>
      </trkpt>
      <trkpt lat="47.60466" lon="-2.67277">
        <ele>7.3</ele>
        <time>2026-08-22T12:22:47Z</time>
      </trkpt>
      <trkpt lat="47.6047" lon="-2.67276">
        <ele>7.2</ele>
        <time>2026-08-22T12:22:48Z</time>
      </trkpt>
      <trkpt lat="47.60474" lon="-2.67275">
        <ele>7.2</ele>
        <time>2026-08-22T12:22:49Z</time>
      </trkpt>
      <trkpt lat="47.60478" lon="-2.67274">
        <ele>7.2</ele>
        <time>2026-08-22T12:22:50Z</time>
      </trkpt>
      <trkpt lat="47.60482" lon="-2.67273">
        <ele>7.3</ele>
        <time>2026-08-22T12:22:51Z</time>
      </trkpt>
      <trkpt lat="47.60487" lon="-2.67271">
        <ele>7.4</ele>
        <time>2026-08-22T12:22:52Z</time>
      </trkpt>
      <trkpt lat="47.60491" lon="-2.6727">
        <ele>7.4</ele>
        <time>2026-08-22T12:22:53Z</time>
      </trkpt>
      <trkpt lat="47.60495" lon="-2.67269">
        <ele>7.4</ele>
        <time>2026-08-22T12:22:54Z</time>
      </trkpt>
      <trkpt lat="47.60499" lon="-2.67268">
        <ele>7.4</ele>
        <time>2026-08-22T12:22:55Z</time>
      </trkpt>
      <trkpt lat="47.60503" lon="-2.67266">
        <ele>7.4</ele>
        <time>2026-08-22T12:22:56Z</time>
      </trkpt>
      <trkpt lat="47.60507" lon="-2.67265">
        <ele>7.5</ele>
        <time>2026-08-22T12:22:57Z</time>
      </trkpt>
      <trkpt lat="47.60511" lon="-2.67264">
        <ele>7.5</ele>
        <time>2026-08-22T12:22:58Z</time>
      </trkpt>
      <trkpt lat="47.60516" lon="-2.67263">
        <ele>7.5</ele>
        <time>2026-08-22T12:22:59Z</time>
      </trkpt>
      <trkpt lat="47.60519" lon="-2.67262">
        <ele>7.6</ele>
        <time>2026-08-22T12:23:00Z</time>
      </trkpt>
      <trkpt lat="47.60523" lon="-2.67261">
        <ele>7.6</ele>
        <time>2026-08-22T12:23:01Z</time>
      </trkpt>
      <trkpt lat="47.60527" lon="-2.6726">
        <ele>7.6</ele>
        <time>2026-08-22T12:23:02Z</time>
      </trkpt>
      <trkpt lat="47.6053" lon="-2.67259">
        <ele>7.7</ele>
        <time>2026-08-22T12:23:03Z</time>
      </trkpt>
      <trkpt lat="47.60533" lon="-2.67258">
        <ele>7.7</ele>
        <time>2026-08-22T12:23:04Z</time>
      </trkpt>
      <trkpt lat="47.60536" lon="-2.67258">
        <ele>7.7</ele>
        <time>2026-08-22T12:23:05Z</time>
      </trkpt>
      <trkpt lat="47.60539" lon="-2.67259">
        <ele>7.7</ele>
        <time>2026-08-22T12:23:06Z</time>
      </trkpt>
      <trkpt lat="47.60542" lon="-2.6726">
        <ele>7.6</ele>
        <time>2026-08-22T12:23:07Z</time>
      </trkpt>
      <trkpt lat="47.60544" lon="-2.67261">
        <ele>7.6</ele>
        <time>2026-08-22T12:23:08Z</time>
      </trkpt>
      <trkpt lat="47.60547" lon="-2.67263">
        <ele>7.5</ele>
        <time>2026-08-22T12:23:09Z</time>
      </trkpt>
      <trkpt lat="47.6055" lon="-2.67265">
        <ele>7.5</ele>
        <time>2026-08-22T12:23:10Z</time>
      </trkpt>
      <trkpt lat="47.60553" lon="-2.67268">
        <ele>7.4</ele>
        <time>2026-08-22T12:23:11Z</time>
      </trkpt>
      <trkpt lat="47.60556" lon="-2.67271">
        <ele>7.3</ele>
        <time>2026-08-22T12:23:12Z</time>
      </trkpt>
      <trkpt lat="47.60559" lon="-2.67274">
        <ele>7.3</ele>
        <time>2026-08-22T12:23:13Z</time>
      </trkpt>
      <trkpt lat="47.60562" lon="-2.67277">
        <ele>7.3</ele>
        <time>2026-08-22T12:23:14Z</time>
      </trkpt>
      <trkpt lat="47.60566" lon="-2.67281">
        <ele>7.3</ele>
        <time>2026-08-22T12:23:15Z</time>
      </trkpt>
      <trkpt lat="47.60569" lon="-2.67285">
        <ele>7.4</ele>
        <time>2026-08-22T12:23:16Z</time>
      </trkpt>
      <trkpt lat="47.60571" lon="-2.67288">
        <ele>7.4</ele>
        <time>2026-08-22T12:23:17Z</time>
      </trkpt>
      <trkpt lat="47.60574" lon="-2.67292">
        <ele>7.3</ele>
        <time>2026-08-22T12:23:18Z</time>
      </trkpt>
      <trkpt lat="47.60576" lon="-2.67296">
        <ele>7.3</ele>
        <time>2026-08-22T12:23:19Z</time>
      </trkpt>
      <trkpt lat="47.60579" lon="-2.673">
        <ele>7.2</ele>
        <time>2026-08-22T12:23:20Z</time>
      </trkpt>
      <trkpt lat="47.60582" lon="-2.67304">
        <ele>7.1</ele>
        <time>2026-08-22T12:23:21Z</time>
      </trkpt>
      <trkpt lat="47.60585" lon="-2.67307">
        <ele>7.1</ele>
        <time>2026-08-22T12:23:22Z</time>
      </trkpt>
      <trkpt lat="47.60588" lon="-2.6731">
        <ele>7.1</ele>
        <time>2026-08-22T12:23:23Z</time>
      </trkpt>
      <trkpt lat="47.60591" lon="-2.67314">
        <ele>7.2</ele>
        <time>2026-08-22T12:23:24Z</time>
      </trkpt>
      <trkpt lat="47.60594" lon="-2.67317">
        <ele>7.2</ele>
        <time>2026-08-22T12:23:25Z</time>
      </trkpt>
      <trkpt lat="47.60597" lon="-2.6732">
        <ele>7.2</ele>
        <time>2026-08-22T12:23:26Z</time>
      </trkpt>
      <trkpt lat="47.60601" lon="-2.67324">
        <ele>7.2</ele>
        <time>2026-08-22T12:23:27Z</time>
      </trkpt>
      <trkpt lat="47.60604" lon="-2.67327">
        <ele>7.2</ele>
        <time>2026-08-22T12:23:28Z</time>
      </trkpt>
      <trkpt lat="47.60607" lon="-2.67332">
        <ele>7</ele>
        <time>2026-08-22T12:23:29Z</time>
      </trkpt>
      <trkpt lat="47.6061" lon="-2.67336">
        <ele>6.9</ele>
        <time>2026-08-22T12:23:30Z</time>
      </trkpt>
      <trkpt lat="47.60613" lon="-2.6734">
        <ele>6.8</ele>
        <time>2026-08-22T12:23:31Z</time>
      </trkpt>
      <trkpt lat="47.60617" lon="-2.67345">
        <ele>6.6</ele>
        <time>2026-08-22T12:23:32Z</time>
      </trkpt>
      <trkpt lat="47.6062" lon="-2.67349">
        <ele>6.4</ele>
        <time>2026-08-22T12:23:33Z</time>
      </trkpt>
      <trkpt lat="47.60624" lon="-2.67354">
        <ele>6.3</ele>
        <time>2026-08-22T12:23:34Z</time>
      </trkpt>
      <trkpt lat="47.60627" lon="-2.67359">
        <ele>6.1</ele>
        <time>2026-08-22T12:23:35Z</time>
      </trkpt>
      <trkpt lat="47.6063" lon="-2.67363">
        <ele>5.9</ele>
        <time>2026-08-22T12:23:36Z</time>
      </trkpt>
      <trkpt lat="47.60634" lon="-2.67367">
        <ele>5.8</ele>
        <time>2026-08-22T12:23:37Z</time>
      </trkpt>
      <trkpt lat="47.60638" lon="-2.67371">
        <ele>5.6</ele>
        <time>2026-08-22T12:23:38Z</time>
      </trkpt>
      <trkpt lat="47.60641" lon="-2.67376">
        <ele>5.5</ele>
        <time>2026-08-22T12:23:39Z</time>
      </trkpt>
      <trkpt lat="47.60645" lon="-2.6738">
        <ele>5.5</ele>
        <time>2026-08-22T12:23:40Z</time>
      </trkpt>
      <trkpt lat="47.60648" lon="-2.67384">
        <ele>5.4</ele>
        <time>2026-08-22T12:23:41Z</time>
      </trkpt>
      <trkpt lat="47.60651" lon="-2.67388">
        <ele>5.5</ele>
        <time>2026-08-22T12:23:42Z</time>
      </trkpt>
      <trkpt lat="47.60654" lon="-2.67392">
        <ele>5.5</ele>
        <time>2026-08-22T12:23:43Z</time>
      </trkpt>
      <trkpt lat="47.60658" lon="-2.67396">
        <ele>5.5</ele>
        <time>2026-08-22T12:23:44Z</time>
      </trkpt>
      <trkpt lat="47.60661" lon="-2.674">
        <ele>5.5</ele>
        <time>2026-08-22T12:23:45Z</time>
      </trkpt>
      <trkpt lat="47.60664" lon="-2.67403">
        <ele>5.4</ele>
        <time>2026-08-22T12:23:46Z</time>
      </trkpt>
      <trkpt lat="47.60667" lon="-2.67407">
        <ele>5.4</ele>
        <time>2026-08-22T12:23:47Z</time>
      </trkpt>
      <trkpt lat="47.6067" lon="-2.67411">
        <ele>5.3</ele>
        <time>2026-08-22T12:23:48Z</time>
      </trkpt>
      <trkpt lat="47.60674" lon="-2.67415">
        <ele>5.3</ele>
        <time>2026-08-22T12:23:49Z</time>
      </trkpt>
      <trkpt lat="47.60677" lon="-2.67419">
        <ele>5.4</ele>
        <time>2026-08-22T12:23:50Z</time>
      </trkpt>
      <trkpt lat="47.6068" lon="-2.67423">
        <ele>5.5</ele>
        <time>2026-08-22T12:23:51Z</time>
      </trkpt>
      <trkpt lat="47.60684" lon="-2.67427">
        <ele>5.6</ele>
        <time>2026-08-22T12:23:52Z</time>
      </trkpt>
      <trkpt lat="47.60687" lon="-2.67431">
        <ele>5.7</ele>
        <time>2026-08-22T12:23:53Z</time>
      </trkpt>
      <trkpt lat="47.60689" lon="-2.67435">
        <ele>5.8</ele>
        <time>2026-08-22T12:23:54Z</time>
      </trkpt>
      <trkpt lat="47.60692" lon="-2.67438">
        <ele>5.9</ele>
        <time>2026-08-22T12:23:55Z</time>
      </trkpt>
      <trkpt lat="47.60695" lon="-2.67441">
        <ele>6</ele>
        <time>2026-08-22T12:23:56Z</time>
      </trkpt>
      <trkpt lat="47.60698" lon="-2.67445">
        <ele>6</ele>
        <time>2026-08-22T12:23:57Z</time>
      </trkpt>
      <trkpt lat="47.60701" lon="-2.67448">
        <ele>6</ele>
        <time>2026-08-22T12:23:58Z</time>
      </trkpt>
      <trkpt lat="47.60704" lon="-2.67451">
        <ele>6.1</ele>
        <time>2026-08-22T12:23:59Z</time>
      </trkpt>
      <trkpt lat="47.60707" lon="-2.67455">
        <ele>6.2</ele>
        <time>2026-08-22T12:24:00Z</time>
      </trkpt>
      <trkpt lat="47.6071" lon="-2.67458">
        <ele>6.3</ele>
        <time>2026-08-22T12:24:01Z</time>
      </trkpt>
      <trkpt lat="47.60714" lon="-2.67461">
        <ele>6.4</ele>
        <time>2026-08-22T12:24:02Z</time>
      </trkpt>
      <trkpt lat="47.60717" lon="-2.67464">
        <ele>6.6</ele>
        <time>2026-08-22T12:24:03Z</time>
      </trkpt>
      <trkpt lat="47.6072" lon="-2.67467">
        <ele>6.7</ele>
        <time>2026-08-22T12:24:04Z</time>
      </trkpt>
      <trkpt lat="47.60723" lon="-2.67471">
        <ele>7</ele>
        <time>2026-08-22T12:24:05Z</time>
      </trkpt>
      <trkpt lat="47.60726" lon="-2.67474">
        <ele>7</ele>
        <time>2026-08-22T12:24:06Z</time>
      </trkpt>
      <trkpt lat="47.6073" lon="-2.67477">
        <ele>7</ele>
        <time>2026-08-22T12:24:07Z</time>
      </trkpt>
      <trkpt lat="47.60733" lon="-2.6748">
        <ele>7.1</ele>
        <time>2026-08-22T12:24:08Z</time>
      </trkpt>
      <trkpt lat="47.60736" lon="-2.67483">
        <ele>7.2</ele>
        <time>2026-08-22T12:24:09Z</time>
      </trkpt>
      <trkpt lat="47.60739" lon="-2.67486">
        <ele>7.3</ele>
        <time>2026-08-22T12:24:10Z</time>
      </trkpt>
      <trkpt lat="47.60741" lon="-2.67488">
        <ele>7.4</ele>
        <time>2026-08-22T12:24:11Z</time>
      </trkpt>
      <trkpt lat="47.60744" lon="-2.67491">
        <ele>7.5</ele>
        <time>2026-08-22T12:24:12Z</time>
      </trkpt>
      <trkpt lat="47.60747" lon="-2.67493">
        <ele>7.7</ele>
        <time>2026-08-22T12:24:13Z</time>
      </trkpt>
      <trkpt lat="47.6075" lon="-2.67496">
        <ele>7.9</ele>
        <time>2026-08-22T12:24:14Z</time>
      </trkpt>
      <trkpt lat="47.60753" lon="-2.67499">
        <ele>8</ele>
        <time>2026-08-22T12:24:15Z</time>
      </trkpt>
      <trkpt lat="47.60755" lon="-2.67502">
        <ele>8</ele>
        <time>2026-08-22T12:24:16Z</time>
      </trkpt>
      <trkpt lat="47.60758" lon="-2.67505">
        <ele>8.1</ele>
        <time>2026-08-22T12:24:17Z</time>
      </trkpt>
      <trkpt lat="47.60762" lon="-2.67508">
        <ele>8.1</ele>
        <time>2026-08-22T12:24:18Z</time>
      </trkpt>
      <trkpt lat="47.60765" lon="-2.6751">
        <ele>8.2</ele>
        <time>2026-08-22T12:24:19Z</time>
      </trkpt>
      <trkpt lat="47.60768" lon="-2.67512">
        <ele>8.3</ele>
        <time>2026-08-22T12:24:20Z</time>
      </trkpt>
      <trkpt lat="47.60772" lon="-2.67513">
        <ele>8.4</ele>
        <time>2026-08-22T12:24:21Z</time>
      </trkpt>
      <trkpt lat="47.60775" lon="-2.67515">
        <ele>8.5</ele>
        <time>2026-08-22T12:24:22Z</time>
      </trkpt>
      <trkpt lat="47.60778" lon="-2.67517">
        <ele>8.6</ele>
        <time>2026-08-22T12:24:23Z</time>
      </trkpt>
      <trkpt lat="47.60781" lon="-2.67519">
        <ele>8.7</ele>
        <time>2026-08-22T12:24:24Z</time>
      </trkpt>
      <trkpt lat="47.60785" lon="-2.67522">
        <ele>8.8</ele>
        <time>2026-08-22T12:24:25Z</time>
      </trkpt>
      <trkpt lat="47.60788" lon="-2.67525">
        <ele>8.9</ele>
        <time>2026-08-22T12:24:26Z</time>
      </trkpt>
      <trkpt lat="47.60791" lon="-2.67528">
        <ele>9</ele>
        <time>2026-08-22T12:24:27Z</time>
      </trkpt>
      <trkpt lat="47.60794" lon="-2.67532">
        <ele>9.1</ele>
        <time>2026-08-22T12:24:28Z</time>
      </trkpt>
      <trkpt lat="47.60796" lon="-2.67535">
        <ele>9.1</ele>
        <time>2026-08-22T12:24:29Z</time>
      </trkpt>
      <trkpt lat="47.60799" lon="-2.67538">
        <ele>9.1</ele>
        <time>2026-08-22T12:24:30Z</time>
      </trkpt>
      <trkpt lat="47.60802" lon="-2.67541">
        <ele>9.1</ele>
        <time>2026-08-22T12:24:31Z</time>
      </trkpt>
      <trkpt lat="47.60805" lon="-2.67544">
        <ele>9</ele>
        <time>2026-08-22T12:24:32Z</time>
      </trkpt>
      <trkpt lat="47.60808" lon="-2.67547">
        <ele>9.1</ele>
        <time>2026-08-22T12:24:33Z</time>
      </trkpt>
      <trkpt lat="47.6081" lon="-2.6755">
        <ele>9.1</ele>
        <time>2026-08-22T12:24:34Z</time>
      </trkpt>
      <trkpt lat="47.60813" lon="-2.67554">
        <ele>9.3</ele>
        <time>2026-08-22T12:24:35Z</time>
      </trkpt>
      <trkpt lat="47.60816" lon="-2.67557">
        <ele>9.5</ele>
        <time>2026-08-22T12:24:36Z</time>
      </trkpt>
      <trkpt lat="47.60819" lon="-2.6756">
        <ele>9.7</ele>
        <time>2026-08-22T12:24:37Z</time>
      </trkpt>
      <trkpt lat="47.60821" lon="-2.67563">
        <ele>9.9</ele>
        <time>2026-08-22T12:24:38Z</time>
      </trkpt>
      <trkpt lat="47.60824" lon="-2.67567">
        <ele>10.2</ele>
        <time>2026-08-22T12:24:39Z</time>
      </trkpt>
      <trkpt lat="47.60827" lon="-2.6757">
        <ele>10.4</ele>
        <time>2026-08-22T12:24:40Z</time>
      </trkpt>
      <trkpt lat="47.60829" lon="-2.67573">
        <ele>10.6</ele>
        <time>2026-08-22T12:24:41Z</time>
      </trkpt>
      <trkpt lat="47.60832" lon="-2.67576">
        <ele>10.7</ele>
        <time>2026-08-22T12:24:42Z</time>
      </trkpt>
      <trkpt lat="47.60834" lon="-2.67579">
        <ele>10.8</ele>
        <time>2026-08-22T12:24:43Z</time>
      </trkpt>
      <trkpt lat="47.60837" lon="-2.67582">
        <ele>11</ele>
        <time>2026-08-22T12:24:44Z</time>
      </trkpt>
      <trkpt lat="47.60839" lon="-2.67586">
        <ele>11.1</ele>
        <time>2026-08-22T12:24:45Z</time>
      </trkpt>
      <trkpt lat="47.60842" lon="-2.67589">
        <ele>11.2</ele>
        <time>2026-08-22T12:24:46Z</time>
      </trkpt>
      <trkpt lat="47.60844" lon="-2.67592">
        <ele>11.3</ele>
        <time>2026-08-22T12:24:47Z</time>
      </trkpt>
      <trkpt lat="47.60847" lon="-2.67595">
        <ele>11.4</ele>
        <time>2026-08-22T12:24:48Z</time>
      </trkpt>
      <trkpt lat="47.60849" lon="-2.67598">
        <ele>11.5</ele>
        <time>2026-08-22T12:24:49Z</time>
      </trkpt>
      <trkpt lat="47.60851" lon="-2.67602">
        <ele>11.7</ele>
        <time>2026-08-22T12:24:50Z</time>
      </trkpt>
      <trkpt lat="47.60854" lon="-2.67605">
        <ele>11.8</ele>
        <time>2026-08-22T12:24:51Z</time>
      </trkpt>
      <trkpt lat="47.60857" lon="-2.67608">
        <ele>11.9</ele>
        <time>2026-08-22T12:24:52Z</time>
      </trkpt>
      <trkpt lat="47.60859" lon="-2.67611">
        <ele>12</ele>
        <time>2026-08-22T12:24:53Z</time>
      </trkpt>
      <trkpt lat="47.60862" lon="-2.67615">
        <ele>12</ele>
        <time>2026-08-22T12:24:54Z</time>
      </trkpt>
      <trkpt lat="47.60864" lon="-2.67618">
        <ele>12</ele>
        <time>2026-08-22T12:24:55Z</time>
      </trkpt>
      <trkpt lat="47.60867" lon="-2.67621">
        <ele>12</ele>
        <time>2026-08-22T12:24:56Z</time>
      </trkpt>
      <trkpt lat="47.60869" lon="-2.67625">
        <ele>12</ele>
        <time>2026-08-22T12:24:57Z</time>
      </trkpt>
      <trkpt lat="47.60872" lon="-2.67628">
        <ele>12</ele>
        <time>2026-08-22T12:24:58Z</time>
      </trkpt>
      <trkpt lat="47.60874" lon="-2.67631">
        <ele>12</ele>
        <time>2026-08-22T12:24:59Z</time>
      </trkpt>
      <trkpt lat="47.60877" lon="-2.67635">
        <ele>12</ele>
        <time>2026-08-22T12:25:00Z</time>
      </trkpt>
      <trkpt lat="47.60879" lon="-2.67638">
        <ele>12</ele>
        <time>2026-08-22T12:25:01Z</time>
      </trkpt>
      <trkpt lat="47.60882" lon="-2.67641">
        <ele>12.1</ele>
        <time>2026-08-22T12:25:02Z</time>
      </trkpt>
      <trkpt lat="47.60884" lon="-2.67645">
        <ele>12.2</ele>
        <time>2026-08-22T12:25:03Z</time>
      </trkpt>
      <trkpt lat="47.60887" lon="-2.67648">
        <ele>12.3</ele>
        <time>2026-08-22T12:25:04Z</time>
      </trkpt>
      <trkpt lat="47.60889" lon="-2.67651">
        <ele>12.4</ele>
        <time>2026-08-22T12:25:05Z</time>
      </trkpt>
      <trkpt lat="47.60892" lon="-2.67654">
        <ele>12.6</ele>
        <time>2026-08-22T12:25:06Z</time>
      </trkpt>
      <trkpt lat="47.60894" lon="-2.67657">
        <ele>12.7</ele>
        <time>2026-08-22T12:25:07Z</time>
      </trkpt>
      <trkpt lat="47.60896" lon="-2.6766">
        <ele>12.8</ele>
        <time>2026-08-22T12:25:08Z</time>
      </trkpt>
      <trkpt lat="47.60898" lon="-2.67662">
        <ele>12.9</ele>
        <time>2026-08-22T12:25:09Z</time>
      </trkpt>
      <trkpt lat="47.609" lon="-2.67665">
        <ele>13</ele>
        <time>2026-08-22T12:25:10Z</time>
      </trkpt>
      <trkpt lat="47.60902" lon="-2.67668">
        <ele>13</ele>
        <time>2026-08-22T12:25:11Z</time>
      </trkpt>
      <trkpt lat="47.60904" lon="-2.67672">
        <ele>13.1</ele>
        <time>2026-08-22T12:25:12Z</time>
      </trkpt>
      <trkpt lat="47.60906" lon="-2.67675">
        <ele>13.1</ele>
        <time>2026-08-22T12:25:13Z</time>
      </trkpt>
      <trkpt lat="47.60908" lon="-2.67678">
        <ele>13.1</ele>
        <time>2026-08-22T12:25:14Z</time>
      </trkpt>
      <trkpt lat="47.60911" lon="-2.67682">
        <ele>13.1</ele>
        <time>2026-08-22T12:25:15Z</time>
      </trkpt>
      <trkpt lat="47.60913" lon="-2.67685">
        <ele>13.1</ele>
        <time>2026-08-22T12:25:16Z</time>
      </trkpt>
      <trkpt lat="47.60915" lon="-2.67689">
        <ele>13</ele>
        <time>2026-08-22T12:25:17Z</time>
      </trkpt>
      <trkpt lat="47.60918" lon="-2.67693">
        <ele>13</ele>
        <time>2026-08-22T12:25:18Z</time>
      </trkpt>
      <trkpt lat="47.6092" lon="-2.67696">
        <ele>13.2</ele>
        <time>2026-08-22T12:25:19Z</time>
      </trkpt>
      <trkpt lat="47.60922" lon="-2.677">
        <ele>13.4</ele>
        <time>2026-08-22T12:25:20Z</time>
      </trkpt>
      <trkpt lat="47.60924" lon="-2.67704">
        <ele>13.5</ele>
        <time>2026-08-22T12:25:21Z</time>
      </trkpt>
      <trkpt lat="47.60926" lon="-2.67708">
        <ele>13.7</ele>
        <time>2026-08-22T12:25:22Z</time>
      </trkpt>
      <trkpt lat="47.60928" lon="-2.67712">
        <ele>13.8</ele>
        <time>2026-08-22T12:25:23Z</time>
      </trkpt>
      <trkpt lat="47.6093" lon="-2.67716">
        <ele>13.9</ele>
        <time>2026-08-22T12:25:24Z</time>
      </trkpt>
      <trkpt lat="47.60932" lon="-2.6772">
        <ele>14</ele>
        <time>2026-08-22T12:25:25Z</time>
      </trkpt>
      <trkpt lat="47.60934" lon="-2.67725">
        <ele>14</ele>
        <time>2026-08-22T12:25:26Z</time>
      </trkpt>
      <trkpt lat="47.60936" lon="-2.67729">
        <ele>14</ele>
        <time>2026-08-22T12:25:27Z</time>
      </trkpt>
      <trkpt lat="47.60938" lon="-2.67733">
        <ele>14</ele>
        <time>2026-08-22T12:25:28Z</time>
      </trkpt>
      <trkpt lat="47.60939" lon="-2.67738">
        <ele>14</ele>
        <time>2026-08-22T12:25:29Z</time>
      </trkpt>
      <trkpt lat="47.60941" lon="-2.67742">
        <ele>14</ele>
        <time>2026-08-22T12:25:30Z</time>
      </trkpt>
      <trkpt lat="47.60943" lon="-2.67747">
        <ele>14</ele>
        <time>2026-08-22T12:25:31Z</time>
      </trkpt>
      <trkpt lat="47.60944" lon="-2.67751">
        <ele>14</ele>
        <time>2026-08-22T12:25:32Z</time>
      </trkpt>
      <trkpt lat="47.60946" lon="-2.67756">
        <ele>14.3</ele>
        <time>2026-08-22T12:25:33Z</time>
      </trkpt>
      <trkpt lat="47.60948" lon="-2.6776">
        <ele>14.4</ele>
        <time>2026-08-22T12:25:34Z</time>
      </trkpt>
      <trkpt lat="47.60949" lon="-2.67765">
        <ele>14.6</ele>
        <time>2026-08-22T12:25:35Z</time>
      </trkpt>
      <trkpt lat="47.6095" lon="-2.67769">
        <ele>14.7</ele>
        <time>2026-08-22T12:25:36Z</time>
      </trkpt>
      <trkpt lat="47.60952" lon="-2.67773">
        <ele>14.9</ele>
        <time>2026-08-22T12:25:37Z</time>
      </trkpt>
      <trkpt lat="47.60953" lon="-2.67778">
        <ele>15</ele>
        <time>2026-08-22T12:25:38Z</time>
      </trkpt>
      <trkpt lat="47.60954" lon="-2.67782">
        <ele>15</ele>
        <time>2026-08-22T12:25:39Z</time>
      </trkpt>
      <trkpt lat="47.60956" lon="-2.67786">
        <ele>15</ele>
        <time>2026-08-22T12:25:40Z</time>
      </trkpt>
      <trkpt lat="47.60958" lon="-2.67791">
        <ele>15</ele>
        <time>2026-08-22T12:25:41Z</time>
      </trkpt>
      <trkpt lat="47.6096" lon="-2.67794">
        <ele>15</ele>
        <time>2026-08-22T12:25:42Z</time>
      </trkpt>
      <trkpt lat="47.60963" lon="-2.67796">
        <ele>15</ele>
        <time>2026-08-22T12:25:43Z</time>
      </trkpt>
      <trkpt lat="47.60966" lon="-2.67797">
        <ele>15</ele>
        <time>2026-08-22T12:25:44Z</time>
      </trkpt>
      <trkpt lat="47.6097" lon="-2.67799">
        <ele>15</ele>
        <time>2026-08-22T12:25:45Z</time>
      </trkpt>
      <trkpt lat="47.60973" lon="-2.678">
        <ele>15</ele>
        <time>2026-08-22T12:25:46Z</time>
      </trkpt>
      <trkpt lat="47.60977" lon="-2.67801">
        <ele>15.2</ele>
        <time>2026-08-22T12:25:47Z</time>
      </trkpt>
      <trkpt lat="47.6098" lon="-2.67803">
        <ele>15.3</ele>
        <time>2026-08-22T12:25:48Z</time>
      </trkpt>
      <trkpt lat="47.60983" lon="-2.67804">
        <ele>15.4</ele>
        <time>2026-08-22T12:25:49Z</time>
      </trkpt>
      <trkpt lat="47.60987" lon="-2.67806">
        <ele>15.5</ele>
        <time>2026-08-22T12:25:50Z</time>
      </trkpt>
      <trkpt lat="47.6099" lon="-2.67807">
        <ele>15.6</ele>
        <time>2026-08-22T12:25:51Z</time>
      </trkpt>
      <trkpt lat="47.60993" lon="-2.67808">
        <ele>15.7</ele>
        <time>2026-08-22T12:25:52Z</time>
      </trkpt>
      <trkpt lat="47.60997" lon="-2.6781">
        <ele>15.9</ele>
        <time>2026-08-22T12:25:53Z</time>
      </trkpt>
      <trkpt lat="47.61" lon="-2.67811">
        <ele>16</ele>
        <time>2026-08-22T12:25:54Z</time>
      </trkpt>
      <trkpt lat="47.61004" lon="-2.67812">
        <ele>16</ele>
        <time>2026-08-22T12:25:55Z</time>
      </trkpt>
      <trkpt lat="47.61007" lon="-2.67814">
        <ele>16</ele>
        <time>2026-08-22T12:25:56Z</time>
      </trkpt>
      <trkpt lat="47.6101" lon="-2.67815">
        <ele>16</ele>
        <time>2026-08-22T12:25:57Z</time>
      </trkpt>
      <trkpt lat="47.61014" lon="-2.67816">
        <ele>16</ele>
        <time>2026-08-22T12:25:58Z</time>
      </trkpt>
      <trkpt lat="47.61017" lon="-2.67817">
        <ele>16</ele>
        <time>2026-08-22T12:25:59Z</time>
      </trkpt>
      <trkpt lat="47.6102" lon="-2.67818">
        <ele>16</ele>
        <time>2026-08-22T12:26:00Z</time>
      </trkpt>
      <trkpt lat="47.61024" lon="-2.67819">
        <ele>16</ele>
        <time>2026-08-22T12:26:01Z</time>
      </trkpt>
      <trkpt lat="47.61027" lon="-2.6782">
        <ele>16</ele>
        <time>2026-08-22T12:26:02Z</time>
      </trkpt>
      <trkpt lat="47.6103" lon="-2.67821">
        <ele>16</ele>
        <time>2026-08-22T12:26:03Z</time>
      </trkpt>
      <trkpt lat="47.61034" lon="-2.67823">
        <ele>16.1</ele>
        <time>2026-08-22T12:26:04Z</time>
      </trkpt>
      <trkpt lat="47.61037" lon="-2.67824">
        <ele>16.1</ele>
        <time>2026-08-22T12:26:05Z</time>
      </trkpt>
      <trkpt lat="47.6104" lon="-2.67825">
        <ele>16.1</ele>
        <time>2026-08-22T12:26:06Z</time>
      </trkpt>
      <trkpt lat="47.61044" lon="-2.67826">
        <ele>16.2</ele>
        <time>2026-08-22T12:26:07Z</time>
      </trkpt>
      <trkpt lat="47.61047" lon="-2.67827">
        <ele>16.2</ele>
        <time>2026-08-22T12:26:08Z</time>
      </trkpt>
      <trkpt lat="47.6105" lon="-2.67828">
        <ele>16.2</ele>
        <time>2026-08-22T12:26:09Z</time>
      </trkpt>
      <trkpt lat="47.61053" lon="-2.67829">
        <ele>16.1</ele>
        <time>2026-08-22T12:26:10Z</time>
      </trkpt>
      <trkpt lat="47.61057" lon="-2.67828">
        <ele>16.2</ele>
        <time>2026-08-22T12:26:11Z</time>
      </trkpt>
      <trkpt lat="47.6106" lon="-2.67828">
        <ele>16.3</ele>
        <time>2026-08-22T12:26:12Z</time>
      </trkpt>
      <trkpt lat="47.61063" lon="-2.67826">
        <ele>16.5</ele>
        <time>2026-08-22T12:26:13Z</time>
      </trkpt>
      <trkpt lat="47.61067" lon="-2.67826">
        <ele>16.6</ele>
        <time>2026-08-22T12:26:14Z</time>
      </trkpt>
      <trkpt lat="47.6107" lon="-2.67825">
        <ele>16.7</ele>
        <time>2026-08-22T12:26:15Z</time>
      </trkpt>
      <trkpt lat="47.61074" lon="-2.67824">
        <ele>16.8</ele>
        <time>2026-08-22T12:26:16Z</time>
      </trkpt>
      <trkpt lat="47.61078" lon="-2.67823">
        <ele>16.9</ele>
        <time>2026-08-22T12:26:17Z</time>
      </trkpt>
      <trkpt lat="47.61082" lon="-2.67822">
        <ele>17</ele>
        <time>2026-08-22T12:26:18Z</time>
      </trkpt>
      <trkpt lat="47.61085" lon="-2.67821">
        <ele>17</ele>
        <time>2026-08-22T12:26:19Z</time>
      </trkpt>
      <trkpt lat="47.61089" lon="-2.6782">
        <ele>17</ele>
        <time>2026-08-22T12:26:20Z</time>
      </trkpt>
      <trkpt lat="47.61092" lon="-2.67819">
        <ele>17</ele>
        <time>2026-08-22T12:26:21Z</time>
      </trkpt>
      <trkpt lat="47.61096" lon="-2.67818">
        <ele>17</ele>
        <time>2026-08-22T12:26:22Z</time>
      </trkpt>
      <trkpt lat="47.61099" lon="-2.67817">
        <ele>17</ele>
        <time>2026-08-22T12:26:23Z</time>
      </trkpt>
      <trkpt lat="47.61102" lon="-2.67817">
        <ele>17</ele>
        <time>2026-08-22T12:26:24Z</time>
      </trkpt>
      <trkpt lat="47.61106" lon="-2.67817">
        <ele>17</ele>
        <time>2026-08-22T12:26:25Z</time>
      </trkpt>
      <trkpt lat="47.61109" lon="-2.67818">
        <ele>17</ele>
        <time>2026-08-22T12:26:26Z</time>
      </trkpt>
      <trkpt lat="47.61112" lon="-2.67819">
        <ele>17</ele>
        <time>2026-08-22T12:26:27Z</time>
      </trkpt>
      <trkpt lat="47.61114" lon="-2.67822">
        <ele>17.1</ele>
        <time>2026-08-22T12:26:28Z</time>
      </trkpt>
      <trkpt lat="47.61116" lon="-2.67826">
        <ele>17.1</ele>
        <time>2026-08-22T12:26:29Z</time>
      </trkpt>
      <trkpt lat="47.61117" lon="-2.6783">
        <ele>17.2</ele>
        <time>2026-08-22T12:26:30Z</time>
      </trkpt>
      <trkpt lat="47.61119" lon="-2.67834">
        <ele>17.3</ele>
        <time>2026-08-22T12:26:31Z</time>
      </trkpt>
      <trkpt lat="47.6112" lon="-2.67838">
        <ele>17.4</ele>
        <time>2026-08-22T12:26:32Z</time>
      </trkpt>
      <trkpt lat="47.61122" lon="-2.67842">
        <ele>17.5</ele>
        <time>2026-08-22T12:26:33Z</time>
      </trkpt>
      <trkpt lat="47.61124" lon="-2.67846">
        <ele>17.7</ele>
        <time>2026-08-22T12:26:34Z</time>
      </trkpt>
      <trkpt lat="47.61126" lon="-2.6785">
        <ele>17.9</ele>
        <time>2026-08-22T12:26:35Z</time>
      </trkpt>
      <trkpt lat="47.61128" lon="-2.67854">
        <ele>18.1</ele>
        <time>2026-08-22T12:26:36Z</time>
      </trkpt>
      <trkpt lat="47.6113" lon="-2.67858">
        <ele>18.3</ele>
        <time>2026-08-22T12:26:37Z</time>
      </trkpt>
      <trkpt lat="47.61132" lon="-2.67862">
        <ele>18.5</ele>
        <time>2026-08-22T12:26:38Z</time>
      </trkpt>
      <trkpt lat="47.61134" lon="-2.67867">
        <ele>18.5</ele>
        <time>2026-08-22T12:26:39Z</time>
      </trkpt>
      <trkpt lat="47.61136" lon="-2.67872">
        <ele>18.4</ele>
        <time>2026-08-22T12:26:40Z</time>
      </trkpt>
      <trkpt lat="47.61137" lon="-2.67877">
        <ele>18.3</ele>
        <time>2026-08-22T12:26:41Z</time>
      </trkpt>
      <trkpt lat="47.61138" lon="-2.67882">
        <ele>18.2</ele>
        <time>2026-08-22T12:26:42Z</time>
      </trkpt>
      <trkpt lat="47.6114" lon="-2.67886">
        <ele>18.1</ele>
        <time>2026-08-22T12:26:43Z</time>
      </trkpt>
      <trkpt lat="47.61141" lon="-2.6789">
        <ele>18.1</ele>
        <time>2026-08-22T12:26:44Z</time>
      </trkpt>
      <trkpt lat="47.61142" lon="-2.67895">
        <ele>18.1</ele>
        <time>2026-08-22T12:26:45Z</time>
      </trkpt>
      <trkpt lat="47.61144" lon="-2.67899">
        <ele>18.2</ele>
        <time>2026-08-22T12:26:46Z</time>
      </trkpt>
      <trkpt lat="47.61147" lon="-2.67903">
        <ele>18.3</ele>
        <time>2026-08-22T12:26:47Z</time>
      </trkpt>
      <trkpt lat="47.6115" lon="-2.67906">
        <ele>18.4</ele>
        <time>2026-08-22T12:26:48Z</time>
      </trkpt>
      <trkpt lat="47.61152" lon="-2.6791">
        <ele>18.5</ele>
        <time>2026-08-22T12:26:49Z</time>
      </trkpt>
      <trkpt lat="47.61155" lon="-2.67912">
        <ele>18.6</ele>
        <time>2026-08-22T12:26:50Z</time>
      </trkpt>
      <trkpt lat="47.61158" lon="-2.67915">
        <ele>18.7</ele>
        <time>2026-08-22T12:26:51Z</time>
      </trkpt>
      <trkpt lat="47.61162" lon="-2.67918">
        <ele>18.8</ele>
        <time>2026-08-22T12:26:52Z</time>
      </trkpt>
      <trkpt lat="47.61165" lon="-2.67921">
        <ele>18.9</ele>
        <time>2026-08-22T12:26:53Z</time>
      </trkpt>
      <trkpt lat="47.61168" lon="-2.67923">
        <ele>19</ele>
        <time>2026-08-22T12:26:54Z</time>
      </trkpt>
      <trkpt lat="47.61171" lon="-2.67925">
        <ele>19.2</ele>
        <time>2026-08-22T12:26:55Z</time>
      </trkpt>
      <trkpt lat="47.61174" lon="-2.67927">
        <ele>19.3</ele>
        <time>2026-08-22T12:26:56Z</time>
      </trkpt>
      <trkpt lat="47.61177" lon="-2.6793">
        <ele>19.4</ele>
        <time>2026-08-22T12:26:57Z</time>
      </trkpt>
      <trkpt lat="47.6118" lon="-2.67933">
        <ele>19.5</ele>
        <time>2026-08-22T12:26:58Z</time>
      </trkpt>
      <trkpt lat="47.61183" lon="-2.67936">
        <ele>19.6</ele>
        <time>2026-08-22T12:26:59Z</time>
      </trkpt>
      <trkpt lat="47.61186" lon="-2.67939">
        <ele>19.7</ele>
        <time>2026-08-22T12:27:00Z</time>
      </trkpt>
      <trkpt lat="47.61189" lon="-2.67942">
        <ele>19.8</ele>
        <time>2026-08-22T12:27:01Z</time>
      </trkpt>
      <trkpt lat="47.61192" lon="-2.67943">
        <ele>19.9</ele>
        <time>2026-08-22T12:27:02Z</time>
      </trkpt>
      <trkpt lat="47.61195" lon="-2.67944">
        <ele>20</ele>
        <time>2026-08-22T12:27:03Z</time>
      </trkpt>
      <trkpt lat="47.61198" lon="-2.67945">
        <ele>20</ele>
        <time>2026-08-22T12:27:04Z</time>
      </trkpt>
      <trkpt lat="47.61201" lon="-2.67947">
        <ele>19.9</ele>
        <time>2026-08-22T12:27:05Z</time>
      </trkpt>
      <trkpt lat="47.61203" lon="-2.67949">
        <ele>19.9</ele>
        <time>2026-08-22T12:27:06Z</time>
      </trkpt>
      <trkpt lat="47.61206" lon="-2.67952">
        <ele>19.8</ele>
        <time>2026-08-22T12:27:07Z</time>
      </trkpt>
      <trkpt lat="47.61209" lon="-2.67954">
        <ele>19.8</ele>
        <time>2026-08-22T12:27:08Z</time>
      </trkpt>
      <trkpt lat="47.61212" lon="-2.67958">
        <ele>19.8</ele>
        <time>2026-08-22T12:27:09Z</time>
      </trkpt>
      <trkpt lat="47.61215" lon="-2.67961">
        <ele>19.8</ele>
        <time>2026-08-22T12:27:10Z</time>
      </trkpt>
      <trkpt lat="47.61219" lon="-2.67965">
        <ele>19.9</ele>
        <time>2026-08-22T12:27:11Z</time>
      </trkpt>
      <trkpt lat="47.61222" lon="-2.67969">
        <ele>20</ele>
        <time>2026-08-22T12:27:12Z</time>
      </trkpt>
      <trkpt lat="47.61225" lon="-2.67972">
        <ele>19.9</ele>
        <time>2026-08-22T12:27:13Z</time>
      </trkpt>
      <trkpt lat="47.61227" lon="-2.67975">
        <ele>19.7</ele>
        <time>2026-08-22T12:27:14Z</time>
      </trkpt>
      <trkpt lat="47.6123" lon="-2.67979">
        <ele>19.5</ele>
        <time>2026-08-22T12:27:15Z</time>
      </trkpt>
      <trkpt lat="47.61234" lon="-2.67983">
        <ele>19.4</ele>
        <time>2026-08-22T12:27:16Z</time>
      </trkpt>
      <trkpt lat="47.61237" lon="-2.67987">
        <ele>19.2</ele>
        <time>2026-08-22T12:27:17Z</time>
      </trkpt>
      <trkpt lat="47.6124" lon="-2.67991">
        <ele>19.1</ele>
        <time>2026-08-22T12:27:18Z</time>
      </trkpt>
      <trkpt lat="47.61243" lon="-2.67995">
        <ele>19</ele>
        <time>2026-08-22T12:27:19Z</time>
      </trkpt>
      <trkpt lat="47.61246" lon="-2.68">
        <ele>19</ele>
        <time>2026-08-22T12:27:20Z</time>
      </trkpt>
      <trkpt lat="47.61247" lon="-2.68004">
        <ele>18.9</ele>
        <time>2026-08-22T12:27:21Z</time>
      </trkpt>
      <trkpt lat="47.61249" lon="-2.68009">
        <ele>18.7</ele>
        <time>2026-08-22T12:27:22Z</time>
      </trkpt>
      <trkpt lat="47.61252" lon="-2.68013">
        <ele>18.6</ele>
        <time>2026-08-22T12:27:23Z</time>
      </trkpt>
      <trkpt lat="47.61254" lon="-2.68017">
        <ele>18.5</ele>
        <time>2026-08-22T12:27:24Z</time>
      </trkpt>
      <trkpt lat="47.61257" lon="-2.68023">
        <ele>18.4</ele>
        <time>2026-08-22T12:27:25Z</time>
      </trkpt>
      <trkpt lat="47.6126" lon="-2.68029">
        <ele>18.3</ele>
        <time>2026-08-22T12:27:26Z</time>
      </trkpt>
      <trkpt lat="47.61263" lon="-2.68037">
        <ele>18.2</ele>
        <time>2026-08-22T12:27:27Z</time>
      </trkpt>
      <trkpt lat="47.61267" lon="-2.68044">
        <ele>17.9</ele>
        <time>2026-08-22T12:27:28Z</time>
      </trkpt>
      <trkpt lat="47.61271" lon="-2.68052">
        <ele>17.4</ele>
        <time>2026-08-22T12:27:29Z</time>
      </trkpt>
      <trkpt lat="47.61274" lon="-2.68061">
        <ele>16.9</ele>
        <time>2026-08-22T12:27:30Z</time>
      </trkpt>
      <trkpt lat="47.61278" lon="-2.68069">
        <ele>16.5</ele>
        <time>2026-08-22T12:27:31Z</time>
      </trkpt>
      <trkpt lat="47.61282" lon="-2.68078">
        <ele>16.2</ele>
        <time>2026-08-22T12:27:32Z</time>
      </trkpt>
      <trkpt lat="47.61286" lon="-2.68086">
        <ele>16</ele>
        <time>2026-08-22T12:27:33Z</time>
      </trkpt>
      <trkpt lat="47.6129" lon="-2.68094">
        <ele>15.8</ele>
        <time>2026-08-22T12:27:34Z</time>
      </trkpt>
      <trkpt lat="47.61294" lon="-2.68101">
        <ele>15.6</ele>
        <time>2026-08-22T12:27:35Z</time>
      </trkpt>
      <trkpt lat="47.61298" lon="-2.68107">
        <ele>15.4</ele>
        <time>2026-08-22T12:27:36Z</time>
      </trkpt>
      <trkpt lat="47.61303" lon="-2.68112">
        <ele>15.1</ele>
        <time>2026-08-22T12:27:37Z</time>
      </trkpt>
      <trkpt lat="47.61309" lon="-2.68118">
        <ele>14.8</ele>
        <time>2026-08-22T12:27:38Z</time>
      </trkpt>
      <trkpt lat="47.61314" lon="-2.68123">
        <ele>14.6</ele>
        <time>2026-08-22T12:27:39Z</time>
      </trkpt>
      <trkpt lat="47.61319" lon="-2.68129">
        <ele>14.2</ele>
        <time>2026-08-22T12:27:40Z</time>
      </trkpt>
      <trkpt lat="47.61324" lon="-2.68135">
        <ele>13.8</ele>
        <time>2026-08-22T12:27:41Z</time>
      </trkpt>
      <trkpt lat="47.61328" lon="-2.68142">
        <ele>13.5</ele>
        <time>2026-08-22T12:27:42Z</time>
      </trkpt>
      <trkpt lat="47.61332" lon="-2.68149">
        <ele>13.4</ele>
        <time>2026-08-22T12:27:43Z</time>
      </trkpt>
      <trkpt lat="47.61335" lon="-2.68157">
        <ele>13.6</ele>
        <time>2026-08-22T12:27:44Z</time>
      </trkpt>
      <trkpt lat="47.61337" lon="-2.68164">
        <ele>13.7</ele>
        <time>2026-08-22T12:27:45Z</time>
      </trkpt>
      <trkpt lat="47.61339" lon="-2.68171">
        <ele>13.6</ele>
        <time>2026-08-22T12:27:46Z</time>
      </trkpt>
      <trkpt lat="47.61342" lon="-2.68179">
        <ele>13.5</ele>
        <time>2026-08-22T12:27:47Z</time>
      </trkpt>
      <trkpt lat="47.61344" lon="-2.68185">
        <ele>13.5</ele>
        <time>2026-08-22T12:27:48Z</time>
      </trkpt>
      <trkpt lat="47.61347" lon="-2.68192">
        <ele>13.5</ele>
        <time>2026-08-22T12:27:49Z</time>
      </trkpt>
      <trkpt lat="47.6135" lon="-2.68199">
        <ele>13.4</ele>
        <time>2026-08-22T12:27:50Z</time>
      </trkpt>
      <trkpt lat="47.61352" lon="-2.68205">
        <ele>13.3</ele>
        <time>2026-08-22T12:27:51Z</time>
      </trkpt>
      <trkpt lat="47.61354" lon="-2.6821">
        <ele>13.3</ele>
        <time>2026-08-22T12:27:52Z</time>
      </trkpt>
      <trkpt lat="47.61356" lon="-2.68216">
        <ele>13.2</ele>
        <time>2026-08-22T12:27:53Z</time>
      </trkpt>
      <trkpt lat="47.61358" lon="-2.68221">
        <ele>13.1</ele>
        <time>2026-08-22T12:27:54Z</time>
      </trkpt>
      <trkpt lat="47.61359" lon="-2.68225">
        <ele>13.2</ele>
        <time>2026-08-22T12:27:55Z</time>
      </trkpt>
      <trkpt lat="47.6136" lon="-2.68231">
        <ele>13.3</ele>
        <time>2026-08-22T12:27:56Z</time>
      </trkpt>
      <trkpt lat="47.61361" lon="-2.68236">
        <ele>13.5</ele>
        <time>2026-08-22T12:27:57Z</time>
      </trkpt>
      <trkpt lat="47.61362" lon="-2.68242">
        <ele>13.7</ele>
        <time>2026-08-22T12:27:58Z</time>
      </trkpt>
      <trkpt lat="47.61364" lon="-2.68248">
        <ele>13.8</ele>
        <time>2026-08-22T12:27:59Z</time>
      </trkpt>
      <trkpt lat="47.61365" lon="-2.68254">
        <ele>13.9</ele>
        <time>2026-08-22T12:28:00Z</time>
      </trkpt>
      <trkpt lat="47.61367" lon="-2.6826">
        <ele>13.8</ele>
        <time>2026-08-22T12:28:01Z</time>
      </trkpt>
      <trkpt lat="47.61369" lon="-2.68265">
        <ele>13.7</ele>
        <time>2026-08-22T12:28:02Z</time>
      </trkpt>
      <trkpt lat="47.61371" lon="-2.68272">
        <ele>13.6</ele>
        <time>2026-08-22T12:28:03Z</time>
      </trkpt>
      <trkpt lat="47.61373" lon="-2.68277">
        <ele>13.6</ele>
        <time>2026-08-22T12:28:04Z</time>
      </trkpt>
      <trkpt lat="47.61376" lon="-2.68282">
        <ele>13.4</ele>
        <time>2026-08-22T12:28:05Z</time>
      </trkpt>
      <trkpt lat="47.61379" lon="-2.68286">
        <ele>13.3</ele>
        <time>2026-08-22T12:28:06Z</time>
      </trkpt>
      <trkpt lat="47.61383" lon="-2.68289">
        <ele>13.1</ele>
        <time>2026-08-22T12:28:07Z</time>
      </trkpt>
      <trkpt lat="47.61387" lon="-2.68292">
        <ele>13</ele>
        <time>2026-08-22T12:28:08Z</time>
      </trkpt>
      <trkpt lat="47.61392" lon="-2.68294">
        <ele>12.9</ele>
        <time>2026-08-22T12:28:09Z</time>
      </trkpt>
      <trkpt lat="47.61397" lon="-2.68296">
        <ele>12.7</ele>
        <time>2026-08-22T12:28:10Z</time>
      </trkpt>
      <trkpt lat="47.61402" lon="-2.68297">
        <ele>12.5</ele>
        <time>2026-08-22T12:28:11Z</time>
      </trkpt>
      <trkpt lat="47.61407" lon="-2.68298">
        <ele>12.3</ele>
        <time>2026-08-22T12:28:12Z</time>
      </trkpt>
      <trkpt lat="47.61412" lon="-2.68299">
        <ele>12.2</ele>
        <time>2026-08-22T12:28:13Z</time>
      </trkpt>
      <trkpt lat="47.61417" lon="-2.68301">
        <ele>12</ele>
        <time>2026-08-22T12:28:14Z</time>
      </trkpt>
      <trkpt lat="47.61421" lon="-2.68304">
        <ele>12</ele>
        <time>2026-08-22T12:28:15Z</time>
      </trkpt>
      <trkpt lat="47.61424" lon="-2.68306">
        <ele>12</ele>
        <time>2026-08-22T12:28:16Z</time>
      </trkpt>
      <trkpt lat="47.61427" lon="-2.68309">
        <ele>12.1</ele>
        <time>2026-08-22T12:28:17Z</time>
      </trkpt>
      <trkpt lat="47.61431" lon="-2.68312">
        <ele>12.1</ele>
        <time>2026-08-22T12:28:18Z</time>
      </trkpt>
      <trkpt lat="47.61434" lon="-2.68316">
        <ele>12.1</ele>
        <time>2026-08-22T12:28:19Z</time>
      </trkpt>
      <trkpt lat="47.61436" lon="-2.68321">
        <ele>12.2</ele>
        <time>2026-08-22T12:28:20Z</time>
      </trkpt>
      <trkpt lat="47.61438" lon="-2.68325">
        <ele>12.2</ele>
        <time>2026-08-22T12:28:21Z</time>
      </trkpt>
      <trkpt lat="47.6144" lon="-2.6833">
        <ele>12.1</ele>
        <time>2026-08-22T12:28:22Z</time>
      </trkpt>
      <trkpt lat="47.61442" lon="-2.68335">
        <ele>12</ele>
        <time>2026-08-22T12:28:23Z</time>
      </trkpt>
      <trkpt lat="47.61445" lon="-2.6834">
        <ele>11.7</ele>
        <time>2026-08-22T12:28:24Z</time>
      </trkpt>
      <trkpt lat="47.61447" lon="-2.68345">
        <ele>11.5</ele>
        <time>2026-08-22T12:28:25Z</time>
      </trkpt>
      <trkpt lat="47.6145" lon="-2.6835">
        <ele>11.3</ele>
        <time>2026-08-22T12:28:26Z</time>
      </trkpt>
      <trkpt lat="47.61452" lon="-2.68355">
        <ele>11.2</ele>
        <time>2026-08-22T12:28:27Z</time>
      </trkpt>
      <trkpt lat="47.61454" lon="-2.6836">
        <ele>11</ele>
        <time>2026-08-22T12:28:28Z</time>
      </trkpt>
      <trkpt lat="47.61456" lon="-2.68364">
        <ele>11</ele>
        <time>2026-08-22T12:28:29Z</time>
      </trkpt>
      <trkpt lat="47.61459" lon="-2.68369">
        <ele>10.9</ele>
        <time>2026-08-22T12:28:30Z</time>
      </trkpt>
      <trkpt lat="47.61461" lon="-2.68373">
        <ele>10.7</ele>
        <time>2026-08-22T12:28:31Z</time>
      </trkpt>
      <trkpt lat="47.61464" lon="-2.68377">
        <ele>10.6</ele>
        <time>2026-08-22T12:28:32Z</time>
      </trkpt>
      <trkpt lat="47.61467" lon="-2.68381">
        <ele>10.4</ele>
        <time>2026-08-22T12:28:33Z</time>
      </trkpt>
      <trkpt lat="47.61471" lon="-2.68385">
        <ele>10.2</ele>
        <time>2026-08-22T12:28:34Z</time>
      </trkpt>
      <trkpt lat="47.61475" lon="-2.68388">
        <ele>10</ele>
        <time>2026-08-22T12:28:35Z</time>
      </trkpt>
      <trkpt lat="47.61479" lon="-2.68391">
        <ele>10</ele>
        <time>2026-08-22T12:28:36Z</time>
      </trkpt>
      <trkpt lat="47.61484" lon="-2.68394">
        <ele>9.9</ele>
        <time>2026-08-22T12:28:37Z</time>
      </trkpt>
      <trkpt lat="47.61488" lon="-2.68397">
        <ele>9.8</ele>
        <time>2026-08-22T12:28:38Z</time>
      </trkpt>
      <trkpt lat="47.61493" lon="-2.684">
        <ele>9.7</ele>
        <time>2026-08-22T12:28:39Z</time>
      </trkpt>
      <trkpt lat="47.61498" lon="-2.68403">
        <ele>9.5</ele>
        <time>2026-08-22T12:28:40Z</time>
      </trkpt>
      <trkpt lat="47.61503" lon="-2.68406">
        <ele>9.3</ele>
        <time>2026-08-22T12:28:41Z</time>
      </trkpt>
      <trkpt lat="47.61509" lon="-2.68409">
        <ele>9</ele>
        <time>2026-08-22T12:28:42Z</time>
      </trkpt>
      <trkpt lat="47.61514" lon="-2.68412">
        <ele>8.7</ele>
        <time>2026-08-22T12:28:43Z</time>
      </trkpt>
      <trkpt lat="47.61519" lon="-2.68414">
        <ele>8.4</ele>
        <time>2026-08-22T12:28:44Z</time>
      </trkpt>
      <trkpt lat="47.61523" lon="-2.68416">
        <ele>8.2</ele>
        <time>2026-08-22T12:28:45Z</time>
      </trkpt>
      <trkpt lat="47.61528" lon="-2.68418">
        <ele>8</ele>
        <time>2026-08-22T12:28:46Z</time>
      </trkpt>
      <trkpt lat="47.61532" lon="-2.68419">
        <ele>7.9</ele>
        <time>2026-08-22T12:28:47Z</time>
      </trkpt>
      <trkpt lat="47.61536" lon="-2.6842">
        <ele>7.7</ele>
        <time>2026-08-22T12:28:48Z</time>
      </trkpt>
      <trkpt lat="47.6154" lon="-2.68421">
        <ele>7.6</ele>
        <time>2026-08-22T12:28:49Z</time>
      </trkpt>
      <trkpt lat="47.61545" lon="-2.68423">
        <ele>7.5</ele>
        <time>2026-08-22T12:28:50Z</time>
      </trkpt>
      <trkpt lat="47.6155" lon="-2.68424">
        <ele>7.4</ele>
        <time>2026-08-22T12:28:51Z</time>
      </trkpt>
      <trkpt lat="47.61554" lon="-2.68425">
        <ele>7.3</ele>
        <time>2026-08-22T12:28:52Z</time>
      </trkpt>
      <trkpt lat="47.6156" lon="-2.68427">
        <ele>6.8</ele>
        <time>2026-08-22T12:28:53Z</time>
      </trkpt>
      <trkpt lat="47.61565" lon="-2.68428">
        <ele>6.2</ele>
        <time>2026-08-22T12:28:54Z</time>
      </trkpt>
      <trkpt lat="47.6157" lon="-2.68429">
        <ele>5.7</ele>
        <time>2026-08-22T12:28:55Z</time>
      </trkpt>
      <trkpt lat="47.61576" lon="-2.68431">
        <ele>4.9</ele>
        <time>2026-08-22T12:28:56Z</time>
      </trkpt>
      <trkpt lat="47.61582" lon="-2.68431">
        <ele>4.2</ele>
        <time>2026-08-22T12:28:57Z</time>
      </trkpt>
      <trkpt lat="47.61588" lon="-2.68431">
        <ele>3.7</ele>
        <time>2026-08-22T12:28:58Z</time>
      </trkpt>
      <trkpt lat="47.61595" lon="-2.68429">
        <ele>3.2</ele>
        <time>2026-08-22T12:28:59Z</time>
      </trkpt>
      <trkpt lat="47.61601" lon="-2.68427">
        <ele>2.9</ele>
        <time>2026-08-22T12:29:00Z</time>
      </trkpt>
      <trkpt lat="47.61607" lon="-2.68424">
        <ele>2.7</ele>
        <time>2026-08-22T12:29:01Z</time>
      </trkpt>
      <trkpt lat="47.61612" lon="-2.68421">
        <ele>2.7</ele>
        <time>2026-08-22T12:29:02Z</time>
      </trkpt>
      <trkpt lat="47.61618" lon="-2.68418">
        <ele>2.7</ele>
        <time>2026-08-22T12:29:03Z</time>
      </trkpt>
      <trkpt lat="47.61623" lon="-2.68415">
        <ele>2.6</ele>
        <time>2026-08-22T12:29:04Z</time>
      </trkpt>
      <trkpt lat="47.61628" lon="-2.68412">
        <ele>2.5</ele>
        <time>2026-08-22T12:29:05Z</time>
      </trkpt>
      <trkpt lat="47.61634" lon="-2.68408">
        <ele>2.4</ele>
        <time>2026-08-22T12:29:06Z</time>
      </trkpt>
      <trkpt lat="47.61638" lon="-2.68405">
        <ele>2.4</ele>
        <time>2026-08-22T12:29:07Z</time>
      </trkpt>
      <trkpt lat="47.61641" lon="-2.68401">
        <ele>2.6</ele>
        <time>2026-08-22T12:29:08Z</time>
      </trkpt>
      <trkpt lat="47.61643" lon="-2.68397">
        <ele>2.7</ele>
        <time>2026-08-22T12:29:09Z</time>
      </trkpt>
      <trkpt lat="47.61644" lon="-2.68393">
        <ele>2.9</ele>
        <time>2026-08-22T12:29:10Z</time>
      </trkpt>
      <trkpt lat="47.61646" lon="-2.68391">
        <ele>2.9</ele>
        <time>2026-08-22T12:29:11Z</time>
      </trkpt>
      <trkpt lat="47.61647" lon="-2.68389">
        <ele>3</ele>
        <time>2026-08-22T12:29:12Z</time>
      </trkpt>
      <trkpt lat="47.61647" lon="-2.68388">
        <ele>3</ele>
        <time>2026-08-22T12:29:13Z</time>
      </trkpt>
      <trkpt lat="47.61648" lon="-2.68388">
        <ele>3</ele>
        <time>2026-08-22T12:29:14Z</time>
      </trkpt>
      <trkpt lat="47.61648" lon="-2.68389">
        <ele>3</ele>
        <time>2026-08-22T12:29:15Z</time>
      </trkpt>
      <trkpt lat="47.61653" lon="-2.68392">
        <ele>2.9</ele>
        <time>2026-08-22T12:30:27Z</time>
      </trkpt>
      <trkpt lat="47.61655" lon="-2.68392">
        <ele>2.9</ele>
        <time>2026-08-22T12:30:28Z</time>
      </trkpt>
      <trkpt lat="47.61657" lon="-2.68391">
        <ele>2.9</ele>
        <time>2026-08-22T12:30:29Z</time>
      </trkpt>
      <trkpt lat="47.6166" lon="-2.68391">
        <ele>2.9</ele>
        <time>2026-08-22T12:30:30Z</time>
      </trkpt>
      <trkpt lat="47.61662" lon="-2.68389">
        <ele>3</ele>
        <time>2026-08-22T12:30:31Z</time>
      </trkpt>
      <trkpt lat="47.61665" lon="-2.68388">
        <ele>3</ele>
        <time>2026-08-22T12:30:32Z</time>
      </trkpt>
      <trkpt lat="47.61668" lon="-2.68386">
        <ele>3</ele>
        <time>2026-08-22T12:30:33Z</time>
      </trkpt>
      <trkpt lat="47.61671" lon="-2.68384">
        <ele>3</ele>
        <time>2026-08-22T12:30:34Z</time>
      </trkpt>
      <trkpt lat="47.61674" lon="-2.68382">
        <ele>3.1</ele>
        <time>2026-08-22T12:30:35Z</time>
      </trkpt>
      <trkpt lat="47.61677" lon="-2.6838">
        <ele>3.1</ele>
        <time>2026-08-22T12:30:36Z</time>
      </trkpt>
      <trkpt lat="47.61681" lon="-2.68378">
        <ele>3.2</ele>
        <time>2026-08-22T12:30:37Z</time>
      </trkpt>
      <trkpt lat="47.61684" lon="-2.68377">
        <ele>3.3</ele>
        <time>2026-08-22T12:30:38Z</time>
      </trkpt>
      <trkpt lat="47.61687" lon="-2.68375">
        <ele>3.4</ele>
        <time>2026-08-22T12:30:39Z</time>
      </trkpt>
      <trkpt lat="47.61691" lon="-2.68373">
        <ele>3.5</ele>
        <time>2026-08-22T12:30:40Z</time>
      </trkpt>
      <trkpt lat="47.61694" lon="-2.68372">
        <ele>3.6</ele>
        <time>2026-08-22T12:30:41Z</time>
      </trkpt>
      <trkpt lat="47.61698" lon="-2.68371">
        <ele>3.7</ele>
        <time>2026-08-22T12:30:42Z</time>
      </trkpt>
      <trkpt lat="47.61701" lon="-2.6837">
        <ele>3.8</ele>
        <time>2026-08-22T12:30:43Z</time>
      </trkpt>
      <trkpt lat="47.61705" lon="-2.68369">
        <ele>3.8</ele>
        <time>2026-08-22T12:30:44Z</time>
      </trkpt>
      <trkpt lat="47.61708" lon="-2.68369">
        <ele>3.9</ele>
        <time>2026-08-22T12:30:45Z</time>
      </trkpt>
      <trkpt lat="47.61711" lon="-2.68369">
        <ele>3.9</ele>
        <time>2026-08-22T12:30:46Z</time>
      </trkpt>
      <trkpt lat="47.61715" lon="-2.6837">
        <ele>3.9</ele>
        <time>2026-08-22T12:30:47Z</time>
      </trkpt>
      <trkpt lat="47.61718" lon="-2.6837">
        <ele>4</ele>
        <time>2026-08-22T12:30:48Z</time>
      </trkpt>
      <trkpt lat="47.61722" lon="-2.6837">
        <ele>4</ele>
        <time>2026-08-22T12:30:49Z</time>
      </trkpt>
      <trkpt lat="47.61726" lon="-2.6837">
        <ele>4.1</ele>
        <time>2026-08-22T12:30:50Z</time>
      </trkpt>
      <trkpt lat="47.61729" lon="-2.6837">
        <ele>4.2</ele>
        <time>2026-08-22T12:30:51Z</time>
      </trkpt>
      <trkpt lat="47.61732" lon="-2.68371">
        <ele>4.4</ele>
        <time>2026-08-22T12:30:52Z</time>
      </trkpt>
      <trkpt lat="47.61736" lon="-2.68372">
        <ele>4.5</ele>
        <time>2026-08-22T12:30:53Z</time>
      </trkpt>
      <trkpt lat="47.61739" lon="-2.68372">
        <ele>4.6</ele>
        <time>2026-08-22T12:30:54Z</time>
      </trkpt>
      <trkpt lat="47.61743" lon="-2.68373">
        <ele>4.7</ele>
        <time>2026-08-22T12:30:55Z</time>
      </trkpt>
      <trkpt lat="47.61746" lon="-2.68373">
        <ele>4.9</ele>
        <time>2026-08-22T12:30:56Z</time>
      </trkpt>
      <trkpt lat="47.6175" lon="-2.68374">
        <ele>5</ele>
        <time>2026-08-22T12:30:57Z</time>
      </trkpt>
      <trkpt lat="47.61753" lon="-2.68374">
        <ele>5</ele>
        <time>2026-08-22T12:30:58Z</time>
      </trkpt>
      <trkpt lat="47.61756" lon="-2.68375">
        <ele>5</ele>
        <time>2026-08-22T12:30:59Z</time>
      </trkpt>
      <trkpt lat="47.6176" lon="-2.68375">
        <ele>5</ele>
        <time>2026-08-22T12:31:00Z</time>
      </trkpt>
      <trkpt lat="47.61764" lon="-2.68376">
        <ele>5</ele>
        <time>2026-08-22T12:31:01Z</time>
      </trkpt>
      <trkpt lat="47.61767" lon="-2.68376">
        <ele>5</ele>
        <time>2026-08-22T12:31:02Z</time>
      </trkpt>
      <trkpt lat="47.61771" lon="-2.68377">
        <ele>5</ele>
        <time>2026-08-22T12:31:03Z</time>
      </trkpt>
      <trkpt lat="47.61774" lon="-2.68378">
        <ele>5</ele>
        <time>2026-08-22T12:31:04Z</time>
      </trkpt>
      <trkpt lat="47.61778" lon="-2.68378">
        <ele>5</ele>
        <time>2026-08-22T12:31:05Z</time>
      </trkpt>
      <trkpt lat="47.61782" lon="-2.68379">
        <ele>4.8</ele>
        <time>2026-08-22T12:31:06Z</time>
      </trkpt>
      <trkpt lat="47.61786" lon="-2.68379">
        <ele>4.7</ele>
        <time>2026-08-22T12:31:07Z</time>
      </trkpt>
      <trkpt lat="47.6179" lon="-2.68379">
        <ele>4.6</ele>
        <time>2026-08-22T12:31:08Z</time>
      </trkpt>
      <trkpt lat="47.61794" lon="-2.68379">
        <ele>4.4</ele>
        <time>2026-08-22T12:31:09Z</time>
      </trkpt>
      <trkpt lat="47.61798" lon="-2.6838">
        <ele>4.3</ele>
        <time>2026-08-22T12:31:10Z</time>
      </trkpt>
      <trkpt lat="47.61802" lon="-2.6838">
        <ele>4.1</ele>
        <time>2026-08-22T12:31:11Z</time>
      </trkpt>
      <trkpt lat="47.61806" lon="-2.68381">
        <ele>4</ele>
        <time>2026-08-22T12:31:12Z</time>
      </trkpt>
      <trkpt lat="47.6181" lon="-2.68381">
        <ele>4</ele>
        <time>2026-08-22T12:31:13Z</time>
      </trkpt>
      <trkpt lat="47.61814" lon="-2.68381">
        <ele>4</ele>
        <time>2026-08-22T12:31:14Z</time>
      </trkpt>
      <trkpt lat="47.61818" lon="-2.6838">
        <ele>4</ele>
        <time>2026-08-22T12:31:15Z</time>
      </trkpt>
      <trkpt lat="47.61822" lon="-2.68379">
        <ele>4</ele>
        <time>2026-08-22T12:31:16Z</time>
      </trkpt>
      <trkpt lat="47.61826" lon="-2.68379">
        <ele>4</ele>
        <time>2026-08-22T12:31:17Z</time>
      </trkpt>
      <trkpt lat="47.6183" lon="-2.68378">
        <ele>4</ele>
        <time>2026-08-22T12:31:18Z</time>
      </trkpt>
      <trkpt lat="47.61834" lon="-2.68378">
        <ele>4</ele>
        <time>2026-08-22T12:31:19Z</time>
      </trkpt>
      <trkpt lat="47.61838" lon="-2.68378">
        <ele>4.1</ele>
        <time>2026-08-22T12:31:20Z</time>
      </trkpt>
      <trkpt lat="47.61842" lon="-2.68379">
        <ele>4.2</ele>
        <time>2026-08-22T12:31:21Z</time>
      </trkpt>
      <trkpt lat="47.61846" lon="-2.68379">
        <ele>4.3</ele>
        <time>2026-08-22T12:31:22Z</time>
      </trkpt>
      <trkpt lat="47.6185" lon="-2.68379">
        <ele>4.4</ele>
        <time>2026-08-22T12:31:23Z</time>
      </trkpt>
      <trkpt lat="47.61854" lon="-2.68379">
        <ele>4.5</ele>
        <time>2026-08-22T12:31:24Z</time>
      </trkpt>
      <trkpt lat="47.61857" lon="-2.6838">
        <ele>4.6</ele>
        <time>2026-08-22T12:31:25Z</time>
      </trkpt>
      <trkpt lat="47.61861" lon="-2.6838">
        <ele>4.7</ele>
        <time>2026-08-22T12:31:26Z</time>
      </trkpt>
      <trkpt lat="47.61865" lon="-2.68381">
        <ele>4.8</ele>
        <time>2026-08-22T12:31:27Z</time>
      </trkpt>
      <trkpt lat="47.61869" lon="-2.68382">
        <ele>4.8</ele>
        <time>2026-08-22T12:31:28Z</time>
      </trkpt>
      <trkpt lat="47.61872" lon="-2.68383">
        <ele>4.9</ele>
        <time>2026-08-22T12:31:29Z</time>
      </trkpt>
      <trkpt lat="47.61876" lon="-2.68385">
        <ele>4.9</ele>
        <time>2026-08-22T12:31:30Z</time>
      </trkpt>
      <trkpt lat="47.6188" lon="-2.68386">
        <ele>5</ele>
        <time>2026-08-22T12:31:31Z</time>
      </trkpt>
      <trkpt lat="47.61884" lon="-2.68388">
        <ele>5</ele>
        <time>2026-08-22T12:31:32Z</time>
      </trkpt>
      <trkpt lat="47.61887" lon="-2.6839">
        <ele>5</ele>
        <time>2026-08-22T12:31:33Z</time>
      </trkpt>
      <trkpt lat="47.61891" lon="-2.68391">
        <ele>5</ele>
        <time>2026-08-22T12:31:34Z</time>
      </trkpt>
      <trkpt lat="47.61895" lon="-2.68393">
        <ele>5</ele>
        <time>2026-08-22T12:31:35Z</time>
      </trkpt>
      <trkpt lat="47.61899" lon="-2.68394">
        <ele>5</ele>
        <time>2026-08-22T12:31:36Z</time>
      </trkpt>
      <trkpt lat="47.61902" lon="-2.68396">
        <ele>5</ele>
        <time>2026-08-22T12:31:37Z</time>
      </trkpt>
      <trkpt lat="47.61906" lon="-2.68398">
        <ele>5</ele>
        <time>2026-08-22T12:31:38Z</time>
      </trkpt>
      <trkpt lat="47.6191" lon="-2.684">
        <ele>5</ele>
        <time>2026-08-22T12:31:39Z</time>
      </trkpt>
      <trkpt lat="47.61913" lon="-2.68402">
        <ele>5</ele>
        <time>2026-08-22T12:31:40Z</time>
      </trkpt>
      <trkpt lat="47.61917" lon="-2.68404">
        <ele>5</ele>
        <time>2026-08-22T12:31:41Z</time>
      </trkpt>
      <trkpt lat="47.6192" lon="-2.68406">
        <ele>5.1</ele>
        <time>2026-08-22T12:31:42Z</time>
      </trkpt>
      <trkpt lat="47.61924" lon="-2.68408">
        <ele>5.3</ele>
        <time>2026-08-22T12:31:43Z</time>
      </trkpt>
      <trkpt lat="47.61927" lon="-2.68411">
        <ele>5.4</ele>
        <time>2026-08-22T12:31:44Z</time>
      </trkpt>
      <trkpt lat="47.61931" lon="-2.68412">
        <ele>5.5</ele>
        <time>2026-08-22T12:31:45Z</time>
      </trkpt>
      <trkpt lat="47.61934" lon="-2.68415">
        <ele>5.6</ele>
        <time>2026-08-22T12:31:46Z</time>
      </trkpt>
      <trkpt lat="47.61938" lon="-2.68417">
        <ele>5.8</ele>
        <time>2026-08-22T12:31:47Z</time>
      </trkpt>
      <trkpt lat="47.61942" lon="-2.68419">
        <ele>5.9</ele>
        <time>2026-08-22T12:31:48Z</time>
      </trkpt>
      <trkpt lat="47.61945" lon="-2.68421">
        <ele>6</ele>
        <time>2026-08-22T12:31:49Z</time>
      </trkpt>
      <trkpt lat="47.61948" lon="-2.68423">
        <ele>6</ele>
        <time>2026-08-22T12:31:50Z</time>
      </trkpt>
      <trkpt lat="47.61951" lon="-2.68425">
        <ele>6</ele>
        <time>2026-08-22T12:31:51Z</time>
      </trkpt>
      <trkpt lat="47.61955" lon="-2.68427">
        <ele>6</ele>
        <time>2026-08-22T12:31:52Z</time>
      </trkpt>
      <trkpt lat="47.61959" lon="-2.68429">
        <ele>6</ele>
        <time>2026-08-22T12:31:53Z</time>
      </trkpt>
      <trkpt lat="47.61962" lon="-2.68432">
        <ele>6</ele>
        <time>2026-08-22T12:31:54Z</time>
      </trkpt>
      <trkpt lat="47.61966" lon="-2.68434">
        <ele>6</ele>
        <time>2026-08-22T12:31:55Z</time>
      </trkpt>
      <trkpt lat="47.61969" lon="-2.68436">
        <ele>6</ele>
        <time>2026-08-22T12:31:56Z</time>
      </trkpt>
      <trkpt lat="47.61972" lon="-2.68438">
        <ele>6</ele>
        <time>2026-08-22T12:31:57Z</time>
      </trkpt>
      <trkpt lat="47.61976" lon="-2.6844">
        <ele>6</ele>
        <time>2026-08-22T12:31:58Z</time>
      </trkpt>
      <trkpt lat="47.61979" lon="-2.68442">
        <ele>6</ele>
        <time>2026-08-22T12:31:59Z</time>
      </trkpt>
      <trkpt lat="47.61983" lon="-2.68445">
        <ele>6</ele>
        <time>2026-08-22T12:32:00Z</time>
      </trkpt>
      <trkpt lat="47.61986" lon="-2.68447">
        <ele>6.1</ele>
        <time>2026-08-22T12:32:01Z</time>
      </trkpt>
      <trkpt lat="47.61989" lon="-2.68449">
        <ele>6.2</ele>
        <time>2026-08-22T12:32:02Z</time>
      </trkpt>
      <trkpt lat="47.61993" lon="-2.68452">
        <ele>6.3</ele>
        <time>2026-08-22T12:32:03Z</time>
      </trkpt>
      <trkpt lat="47.61996" lon="-2.68454">
        <ele>6.3</ele>
        <time>2026-08-22T12:32:04Z</time>
      </trkpt>
      <trkpt lat="47.61999" lon="-2.68457">
        <ele>6.5</ele>
        <time>2026-08-22T12:32:05Z</time>
      </trkpt>
      <trkpt lat="47.62003" lon="-2.68459">
        <ele>6.6</ele>
        <time>2026-08-22T12:32:06Z</time>
      </trkpt>
      <trkpt lat="47.62006" lon="-2.68461">
        <ele>6.7</ele>
        <time>2026-08-22T12:32:07Z</time>
      </trkpt>
      <trkpt lat="47.62009" lon="-2.68464">
        <ele>6.8</ele>
        <time>2026-08-22T12:32:08Z</time>
      </trkpt>
      <trkpt lat="47.62013" lon="-2.68465">
        <ele>6.9</ele>
        <time>2026-08-22T12:32:09Z</time>
      </trkpt>
      <trkpt lat="47.62016" lon="-2.68466">
        <ele>6.9</ele>
        <time>2026-08-22T12:32:10Z</time>
      </trkpt>
      <trkpt lat="47.62019" lon="-2.68464">
        <ele>6.9</ele>
        <time>2026-08-22T12:32:11Z</time>
      </trkpt>
      <trkpt lat="47.62023" lon="-2.68461">
        <ele>6.9</ele>
        <time>2026-08-22T12:32:12Z</time>
      </trkpt>
      <trkpt lat="47.62026" lon="-2.68458">
        <ele>7</ele>
        <time>2026-08-22T12:32:13Z</time>
      </trkpt>
      <trkpt lat="47.62029" lon="-2.68454">
        <ele>7</ele>
        <time>2026-08-22T12:32:14Z</time>
      </trkpt>
      <trkpt lat="47.62032" lon="-2.68451">
        <ele>7</ele>
        <time>2026-08-22T12:32:15Z</time>
      </trkpt>
      <trkpt lat="47.62035" lon="-2.68447">
        <ele>7</ele>
        <time>2026-08-22T12:32:16Z</time>
      </trkpt>
      <trkpt lat="47.62038" lon="-2.68443">
        <ele>7</ele>
        <time>2026-08-22T12:32:17Z</time>
      </trkpt>
      <trkpt lat="47.62041" lon="-2.68439">
        <ele>6.9</ele>
        <time>2026-08-22T12:32:18Z</time>
      </trkpt>
      <trkpt lat="47.62044" lon="-2.68435">
        <ele>6.9</ele>
        <time>2026-08-22T12:32:19Z</time>
      </trkpt>
      <trkpt lat="47.62048" lon="-2.68431">
        <ele>6.9</ele>
        <time>2026-08-22T12:32:20Z</time>
      </trkpt>
      <trkpt lat="47.62051" lon="-2.68427">
        <ele>6.9</ele>
        <time>2026-08-22T12:32:21Z</time>
      </trkpt>
      <trkpt lat="47.62054" lon="-2.68423">
        <ele>7</ele>
        <time>2026-08-22T12:32:22Z</time>
      </trkpt>
      <trkpt lat="47.62057" lon="-2.68419">
        <ele>7</ele>
        <time>2026-08-22T12:32:23Z</time>
      </trkpt>
      <trkpt lat="47.6206" lon="-2.68416">
        <ele>7</ele>
        <time>2026-08-22T12:32:24Z</time>
      </trkpt>
      <trkpt lat="47.62064" lon="-2.68413">
        <ele>7</ele>
        <time>2026-08-22T12:32:25Z</time>
      </trkpt>
      <trkpt lat="47.62067" lon="-2.68409">
        <ele>7.1</ele>
        <time>2026-08-22T12:32:26Z</time>
      </trkpt>
      <trkpt lat="47.6207" lon="-2.68406">
        <ele>7.2</ele>
        <time>2026-08-22T12:32:27Z</time>
      </trkpt>
      <trkpt lat="47.62073" lon="-2.68402">
        <ele>7.3</ele>
        <time>2026-08-22T12:32:28Z</time>
      </trkpt>
      <trkpt lat="47.62076" lon="-2.68399">
        <ele>7.5</ele>
        <time>2026-08-22T12:32:29Z</time>
      </trkpt>
      <trkpt lat="47.62079" lon="-2.68395">
        <ele>7.7</ele>
        <time>2026-08-22T12:32:30Z</time>
      </trkpt>
      <trkpt lat="47.62082" lon="-2.68392">
        <ele>7.8</ele>
        <time>2026-08-22T12:32:31Z</time>
      </trkpt>
      <trkpt lat="47.62085" lon="-2.68388">
        <ele>8</ele>
        <time>2026-08-22T12:32:32Z</time>
      </trkpt>
      <trkpt lat="47.62087" lon="-2.68385">
        <ele>8</ele>
        <time>2026-08-22T12:32:33Z</time>
      </trkpt>
      <trkpt lat="47.6209" lon="-2.68382">
        <ele>8.1</ele>
        <time>2026-08-22T12:32:34Z</time>
      </trkpt>
      <trkpt lat="47.62093" lon="-2.68379">
        <ele>8.1</ele>
        <time>2026-08-22T12:32:35Z</time>
      </trkpt>
      <trkpt lat="47.62096" lon="-2.68376">
        <ele>8.2</ele>
        <time>2026-08-22T12:32:36Z</time>
      </trkpt>
      <trkpt lat="47.62098" lon="-2.68373">
        <ele>8.3</ele>
        <time>2026-08-22T12:32:37Z</time>
      </trkpt>
      <trkpt lat="47.62101" lon="-2.6837">
        <ele>8.4</ele>
        <time>2026-08-22T12:32:38Z</time>
      </trkpt>
      <trkpt lat="47.62104" lon="-2.68367">
        <ele>8.6</ele>
        <time>2026-08-22T12:32:39Z</time>
      </trkpt>
      <trkpt lat="47.62107" lon="-2.68364">
        <ele>8.8</ele>
        <time>2026-08-22T12:32:40Z</time>
      </trkpt>
      <trkpt lat="47.62109" lon="-2.68361">
        <ele>8.9</ele>
        <time>2026-08-22T12:32:41Z</time>
      </trkpt>
      <trkpt lat="47.62112" lon="-2.68358">
        <ele>9</ele>
        <time>2026-08-22T12:32:42Z</time>
      </trkpt>
      <trkpt lat="47.62114" lon="-2.68355">
        <ele>9.1</ele>
        <time>2026-08-22T12:32:43Z</time>
      </trkpt>
      <trkpt lat="47.62117" lon="-2.68351">
        <ele>9.2</ele>
        <time>2026-08-22T12:32:44Z</time>
      </trkpt>
      <trkpt lat="47.6212" lon="-2.68348">
        <ele>9.3</ele>
        <time>2026-08-22T12:32:45Z</time>
      </trkpt>
      <trkpt lat="47.62122" lon="-2.68345">
        <ele>9.4</ele>
        <time>2026-08-22T12:32:46Z</time>
      </trkpt>
      <trkpt lat="47.62125" lon="-2.68342">
        <ele>9.5</ele>
        <time>2026-08-22T12:32:47Z</time>
      </trkpt>
      <trkpt lat="47.62128" lon="-2.68339">
        <ele>9.6</ele>
        <time>2026-08-22T12:32:48Z</time>
      </trkpt>
      <trkpt lat="47.6213" lon="-2.68336">
        <ele>9.7</ele>
        <time>2026-08-22T12:32:49Z</time>
      </trkpt>
      <trkpt lat="47.62133" lon="-2.68333">
        <ele>9.8</ele>
        <time>2026-08-22T12:32:50Z</time>
      </trkpt>
      <trkpt lat="47.62135" lon="-2.6833">
        <ele>10</ele>
        <time>2026-08-22T12:32:51Z</time>
      </trkpt>
      <trkpt lat="47.62138" lon="-2.68327">
        <ele>10.2</ele>
        <time>2026-08-22T12:32:52Z</time>
      </trkpt>
      <trkpt lat="47.6214" lon="-2.68325">
        <ele>10.3</ele>
        <time>2026-08-22T12:32:53Z</time>
      </trkpt>
      <trkpt lat="47.62143" lon="-2.68322">
        <ele>10.6</ele>
        <time>2026-08-22T12:32:54Z</time>
      </trkpt>
      <trkpt lat="47.62145" lon="-2.68319">
        <ele>10.7</ele>
        <time>2026-08-22T12:32:55Z</time>
      </trkpt>
      <trkpt lat="47.62148" lon="-2.68316">
        <ele>11</ele>
        <time>2026-08-22T12:32:56Z</time>
      </trkpt>
      <trkpt lat="47.6215" lon="-2.68313">
        <ele>11.1</ele>
        <time>2026-08-22T12:32:57Z</time>
      </trkpt>
      <trkpt lat="47.62153" lon="-2.6831">
        <ele>11.3</ele>
        <time>2026-08-22T12:32:58Z</time>
      </trkpt>
      <trkpt lat="47.62155" lon="-2.68307">
        <ele>11.5</ele>
        <time>2026-08-22T12:32:59Z</time>
      </trkpt>
      <trkpt lat="47.62158" lon="-2.68304">
        <ele>11.7</ele>
        <time>2026-08-22T12:33:00Z</time>
      </trkpt>
      <trkpt lat="47.6216" lon="-2.68302">
        <ele>11.8</ele>
        <time>2026-08-22T12:33:01Z</time>
      </trkpt>
      <trkpt lat="47.62163" lon="-2.68299">
        <ele>11.9</ele>
        <time>2026-08-22T12:33:02Z</time>
      </trkpt>
      <trkpt lat="47.62165" lon="-2.68296">
        <ele>11.9</ele>
        <time>2026-08-22T12:33:03Z</time>
      </trkpt>
      <trkpt lat="47.62168" lon="-2.68293">
        <ele>12</ele>
        <time>2026-08-22T12:33:04Z</time>
      </trkpt>
      <trkpt lat="47.6217" lon="-2.6829">
        <ele>12.1</ele>
        <time>2026-08-22T12:33:05Z</time>
      </trkpt>
      <trkpt lat="47.62172" lon="-2.68287">
        <ele>12.1</ele>
        <time>2026-08-22T12:33:06Z</time>
      </trkpt>
      <trkpt lat="47.62175" lon="-2.68284">
        <ele>12.2</ele>
        <time>2026-08-22T12:33:07Z</time>
      </trkpt>
      <trkpt lat="47.62177" lon="-2.68282">
        <ele>12.3</ele>
        <time>2026-08-22T12:33:08Z</time>
      </trkpt>
      <trkpt lat="47.6218" lon="-2.68279">
        <ele>12.5</ele>
        <time>2026-08-22T12:33:09Z</time>
      </trkpt>
      <trkpt lat="47.62182" lon="-2.68276">
        <ele>12.6</ele>
        <time>2026-08-22T12:33:10Z</time>
      </trkpt>
      <trkpt lat="47.62184" lon="-2.68274">
        <ele>12.6</ele>
        <time>2026-08-22T12:33:11Z</time>
      </trkpt>
      <trkpt lat="47.62187" lon="-2.68271">
        <ele>12.7</ele>
        <time>2026-08-22T12:33:12Z</time>
      </trkpt>
      <trkpt lat="47.62189" lon="-2.68268">
        <ele>12.8</ele>
        <time>2026-08-22T12:33:13Z</time>
      </trkpt>
      <trkpt lat="47.62191" lon="-2.68265">
        <ele>12.9</ele>
        <time>2026-08-22T12:33:14Z</time>
      </trkpt>
      <trkpt lat="47.62193" lon="-2.68262">
        <ele>12.9</ele>
        <time>2026-08-22T12:33:15Z</time>
      </trkpt>
      <trkpt lat="47.62194" lon="-2.68258">
        <ele>13</ele>
        <time>2026-08-22T12:33:16Z</time>
      </trkpt>
      <trkpt lat="47.62193" lon="-2.68254">
        <ele>12.9</ele>
        <time>2026-08-22T12:33:17Z</time>
      </trkpt>
      <trkpt lat="47.62192" lon="-2.6825">
        <ele>12.9</ele>
        <time>2026-08-22T12:33:18Z</time>
      </trkpt>
      <trkpt lat="47.62191" lon="-2.68246">
        <ele>12.9</ele>
        <time>2026-08-22T12:33:19Z</time>
      </trkpt>
      <trkpt lat="47.62189" lon="-2.68243">
        <ele>12.8</ele>
        <time>2026-08-22T12:33:20Z</time>
      </trkpt>
      <trkpt lat="47.62187" lon="-2.68239">
        <ele>12.7</ele>
        <time>2026-08-22T12:33:21Z</time>
      </trkpt>
      <trkpt lat="47.62185" lon="-2.68236">
        <ele>12.7</ele>
        <time>2026-08-22T12:33:22Z</time>
      </trkpt>
      <trkpt lat="47.62183" lon="-2.68232">
        <ele>12.6</ele>
        <time>2026-08-22T12:33:23Z</time>
      </trkpt>
      <trkpt lat="47.62181" lon="-2.68228">
        <ele>12.5</ele>
        <time>2026-08-22T12:33:24Z</time>
      </trkpt>
      <trkpt lat="47.62179" lon="-2.68224">
        <ele>12.4</ele>
        <time>2026-08-22T12:33:25Z</time>
      </trkpt>
      <trkpt lat="47.62176" lon="-2.6822">
        <ele>12.3</ele>
        <time>2026-08-22T12:33:26Z</time>
      </trkpt>
      <trkpt lat="47.62174" lon="-2.68215">
        <ele>12.3</ele>
        <time>2026-08-22T12:33:27Z</time>
      </trkpt>
      <trkpt lat="47.62172" lon="-2.68211">
        <ele>12.2</ele>
        <time>2026-08-22T12:33:28Z</time>
      </trkpt>
      <trkpt lat="47.62169" lon="-2.68206">
        <ele>12.1</ele>
        <time>2026-08-22T12:33:29Z</time>
      </trkpt>
      <trkpt lat="47.62167" lon="-2.68201">
        <ele>12</ele>
        <time>2026-08-22T12:33:30Z</time>
      </trkpt>
      <trkpt lat="47.62164" lon="-2.68196">
        <ele>11.9</ele>
        <time>2026-08-22T12:33:31Z</time>
      </trkpt>
      <trkpt lat="47.62162" lon="-2.68191">
        <ele>11.8</ele>
        <time>2026-08-22T12:33:32Z</time>
      </trkpt>
      <trkpt lat="47.62159" lon="-2.68186">
        <ele>11.7</ele>
        <time>2026-08-22T12:33:33Z</time>
      </trkpt>
      <trkpt lat="47.62156" lon="-2.68181">
        <ele>11.6</ele>
        <time>2026-08-22T12:33:34Z</time>
      </trkpt>
      <trkpt lat="47.62153" lon="-2.68175">
        <ele>11.5</ele>
        <time>2026-08-22T12:33:35Z</time>
      </trkpt>
      <trkpt lat="47.62151" lon="-2.6817">
        <ele>11.4</ele>
        <time>2026-08-22T12:33:36Z</time>
      </trkpt>
      <trkpt lat="47.62147" lon="-2.68164">
        <ele>11.3</ele>
        <time>2026-08-22T12:33:37Z</time>
      </trkpt>
      <trkpt lat="47.62144" lon="-2.68158">
        <ele>11.2</ele>
        <time>2026-08-22T12:33:38Z</time>
      </trkpt>
      <trkpt lat="47.62141" lon="-2.68153">
        <ele>11.1</ele>
        <time>2026-08-22T12:33:39Z</time>
      </trkpt>
      <trkpt lat="47.62138" lon="-2.68147">
        <ele>11</ele>
        <time>2026-08-22T12:33:40Z</time>
      </trkpt>
      <trkpt lat="47.62135" lon="-2.68141">
        <ele>10.8</ele>
        <time>2026-08-22T12:33:41Z</time>
      </trkpt>
      <trkpt lat="47.62132" lon="-2.68135">
        <ele>10.8</ele>
        <time>2026-08-22T12:33:42Z</time>
      </trkpt>
      <trkpt lat="47.62129" lon="-2.6813">
        <ele>10.6</ele>
        <time>2026-08-22T12:33:43Z</time>
      </trkpt>
      <trkpt lat="47.62126" lon="-2.68124">
        <ele>10.5</ele>
        <time>2026-08-22T12:33:44Z</time>
      </trkpt>
      <trkpt lat="47.62123" lon="-2.68118">
        <ele>10.4</ele>
        <time>2026-08-22T12:33:45Z</time>
      </trkpt>
      <trkpt lat="47.6212" lon="-2.68113">
        <ele>10.3</ele>
        <time>2026-08-22T12:33:46Z</time>
      </trkpt>
      <trkpt lat="47.62118" lon="-2.68107">
        <ele>10.3</ele>
        <time>2026-08-22T12:33:47Z</time>
      </trkpt>
      <trkpt lat="47.62115" lon="-2.68102">
        <ele>10.2</ele>
        <time>2026-08-22T12:33:48Z</time>
      </trkpt>
      <trkpt lat="47.62112" lon="-2.68097">
        <ele>10</ele>
        <time>2026-08-22T12:33:49Z</time>
      </trkpt>
      <trkpt lat="47.6211" lon="-2.68092">
        <ele>10</ele>
        <time>2026-08-22T12:33:50Z</time>
      </trkpt>
      <trkpt lat="47.62107" lon="-2.68087">
        <ele>9.9</ele>
        <time>2026-08-22T12:33:51Z</time>
      </trkpt>
      <trkpt lat="47.62105" lon="-2.68083">
        <ele>9.8</ele>
        <time>2026-08-22T12:33:52Z</time>
      </trkpt>
      <trkpt lat="47.62102" lon="-2.68077">
        <ele>9.9</ele>
        <time>2026-08-22T12:33:53Z</time>
      </trkpt>
      <trkpt lat="47.62099" lon="-2.68072">
        <ele>10</ele>
        <time>2026-08-22T12:33:54Z</time>
      </trkpt>
      <trkpt lat="47.62097" lon="-2.68067">
        <ele>10.1</ele>
        <time>2026-08-22T12:33:55Z</time>
      </trkpt>
      <trkpt lat="47.62094" lon="-2.68062">
        <ele>10.2</ele>
        <time>2026-08-22T12:33:56Z</time>
      </trkpt>
      <trkpt lat="47.62092" lon="-2.68057">
        <ele>10.3</ele>
        <time>2026-08-22T12:33:57Z</time>
      </trkpt>
      <trkpt lat="47.62089" lon="-2.68052">
        <ele>10.2</ele>
        <time>2026-08-22T12:33:58Z</time>
      </trkpt>
      <trkpt lat="47.62087" lon="-2.68047">
        <ele>10.1</ele>
        <time>2026-08-22T12:33:59Z</time>
      </trkpt>
      <trkpt lat="47.62084" lon="-2.68043">
        <ele>10</ele>
        <time>2026-08-22T12:34:00Z</time>
      </trkpt>
      <trkpt lat="47.62082" lon="-2.68038">
        <ele>10</ele>
        <time>2026-08-22T12:34:01Z</time>
      </trkpt>
      <trkpt lat="47.62079" lon="-2.68033">
        <ele>9.8</ele>
        <time>2026-08-22T12:34:02Z</time>
      </trkpt>
      <trkpt lat="47.62077" lon="-2.68028">
        <ele>9.8</ele>
        <time>2026-08-22T12:34:03Z</time>
      </trkpt>
      <trkpt lat="47.62075" lon="-2.68024">
        <ele>9.8</ele>
        <time>2026-08-22T12:34:04Z</time>
      </trkpt>
      <trkpt lat="47.62072" lon="-2.68019">
        <ele>9.9</ele>
        <time>2026-08-22T12:34:05Z</time>
      </trkpt>
      <trkpt lat="47.6207" lon="-2.68014">
        <ele>10</ele>
        <time>2026-08-22T12:34:06Z</time>
      </trkpt>
      <trkpt lat="47.62067" lon="-2.68009">
        <ele>10.1</ele>
        <time>2026-08-22T12:34:07Z</time>
      </trkpt>
      <trkpt lat="47.62065" lon="-2.68004">
        <ele>10.2</ele>
        <time>2026-08-22T12:34:08Z</time>
      </trkpt>
      <trkpt lat="47.62062" lon="-2.68">
        <ele>10.2</ele>
        <time>2026-08-22T12:34:09Z</time>
      </trkpt>
      <trkpt lat="47.6206" lon="-2.67995">
        <ele>10</ele>
        <time>2026-08-22T12:34:10Z</time>
      </trkpt>
      <trkpt lat="47.62057" lon="-2.6799">
        <ele>9.7</ele>
        <time>2026-08-22T12:34:11Z</time>
      </trkpt>
      <trkpt lat="47.62054" lon="-2.67985">
        <ele>9.4</ele>
        <time>2026-08-22T12:34:12Z</time>
      </trkpt>
      <trkpt lat="47.62053" lon="-2.67978">
        <ele>9.1</ele>
        <time>2026-08-22T12:34:13Z</time>
      </trkpt>
      <trkpt lat="47.62054" lon="-2.67972">
        <ele>9</ele>
        <time>2026-08-22T12:34:14Z</time>
      </trkpt>
      <trkpt lat="47.62056" lon="-2.67967">
        <ele>9.2</ele>
        <time>2026-08-22T12:34:15Z</time>
      </trkpt>
      <trkpt lat="47.62059" lon="-2.67963">
        <ele>9.5</ele>
        <time>2026-08-22T12:34:16Z</time>
      </trkpt>
      <trkpt lat="47.62062" lon="-2.6796">
        <ele>9.8</ele>
        <time>2026-08-22T12:34:17Z</time>
      </trkpt>
      <trkpt lat="47.62065" lon="-2.67956">
        <ele>10.1</ele>
        <time>2026-08-22T12:34:18Z</time>
      </trkpt>
      <trkpt lat="47.62068" lon="-2.67954">
        <ele>10.3</ele>
        <time>2026-08-22T12:34:19Z</time>
      </trkpt>
      <trkpt lat="47.62071" lon="-2.67951">
        <ele>10.5</ele>
        <time>2026-08-22T12:34:20Z</time>
      </trkpt>
      <trkpt lat="47.62073" lon="-2.67948">
        <ele>10.6</ele>
        <time>2026-08-22T12:34:21Z</time>
      </trkpt>
      <trkpt lat="47.62076" lon="-2.67945">
        <ele>10.7</ele>
        <time>2026-08-22T12:34:22Z</time>
      </trkpt>
      <trkpt lat="47.62079" lon="-2.67942">
        <ele>10.8</ele>
        <time>2026-08-22T12:34:23Z</time>
      </trkpt>
      <trkpt lat="47.62081" lon="-2.67939">
        <ele>10.7</ele>
        <time>2026-08-22T12:34:24Z</time>
      </trkpt>
      <trkpt lat="47.62084" lon="-2.67936">
        <ele>10.7</ele>
        <time>2026-08-22T12:34:25Z</time>
      </trkpt>
      <trkpt lat="47.62086" lon="-2.67934">
        <ele>10.8</ele>
        <time>2026-08-22T12:34:26Z</time>
      </trkpt>
      <trkpt lat="47.62088" lon="-2.67932">
        <ele>10.8</ele>
        <time>2026-08-22T12:34:27Z</time>
      </trkpt>
      <trkpt lat="47.6209" lon="-2.67929">
        <ele>10.8</ele>
        <time>2026-08-22T12:34:28Z</time>
      </trkpt>
      <trkpt lat="47.6209" lon="-2.67927">
        <ele>10.8</ele>
        <time>2026-08-22T12:34:29Z</time>
      </trkpt>
      <trkpt lat="47.6209" lon="-2.67925">
        <ele>10.7</ele>
        <time>2026-08-22T12:34:30Z</time>
      </trkpt>
      <trkpt lat="47.6209" lon="-2.67924">
        <ele>10.7</ele>
        <time>2026-08-22T12:34:31Z</time>
      </trkpt>
      <trkpt lat="47.62089" lon="-2.67923">
        <ele>10.6</ele>
        <time>2026-08-22T12:34:32Z</time>
      </trkpt>
      <trkpt lat="47.62089" lon="-2.67921">
        <ele>10.5</ele>
        <time>2026-08-22T12:34:33Z</time>
      </trkpt>
      <trkpt lat="47.62086" lon="-2.67917">
        <ele>10.2</ele>
        <time>2026-08-22T12:34:35Z</time>
      </trkpt>
      <trkpt lat="47.62084" lon="-2.67914">
        <ele>10.1</ele>
        <time>2026-08-22T12:34:36Z</time>
      </trkpt>
      <trkpt lat="47.62084" lon="-2.67911">
        <ele>10.2</ele>
        <time>2026-08-22T12:34:37Z</time>
      </trkpt>
      <trkpt lat="47.62084" lon="-2.67907">
        <ele>10.4</ele>
        <time>2026-08-22T12:34:38Z</time>
      </trkpt>
      <trkpt lat="47.62086" lon="-2.67904">
        <ele>10.6</ele>
        <time>2026-08-22T12:34:39Z</time>
      </trkpt>
      <trkpt lat="47.62088" lon="-2.67902">
        <ele>10.7</ele>
        <time>2026-08-22T12:34:40Z</time>
      </trkpt>
      <trkpt lat="47.6209" lon="-2.67899">
        <ele>10.8</ele>
        <time>2026-08-22T12:34:41Z</time>
      </trkpt>
      <trkpt lat="47.62093" lon="-2.67897">
        <ele>10.9</ele>
        <time>2026-08-22T12:34:42Z</time>
      </trkpt>
      <trkpt lat="47.62096" lon="-2.67893">
        <ele>11</ele>
        <time>2026-08-22T12:34:43Z</time>
      </trkpt>
      <trkpt lat="47.62099" lon="-2.6789">
        <ele>11</ele>
        <time>2026-08-22T12:34:44Z</time>
      </trkpt>
      <trkpt lat="47.62102" lon="-2.67887">
        <ele>11</ele>
        <time>2026-08-22T12:34:45Z</time>
      </trkpt>
      <trkpt lat="47.62105" lon="-2.67884">
        <ele>11</ele>
        <time>2026-08-22T12:34:46Z</time>
      </trkpt>
      <trkpt lat="47.62107" lon="-2.67881">
        <ele>11</ele>
        <time>2026-08-22T12:34:47Z</time>
      </trkpt>
      <trkpt lat="47.6211" lon="-2.67878">
        <ele>11</ele>
        <time>2026-08-22T12:34:48Z</time>
      </trkpt>
      <trkpt lat="47.62112" lon="-2.67875">
        <ele>11</ele>
        <time>2026-08-22T12:34:49Z</time>
      </trkpt>
      <trkpt lat="47.62115" lon="-2.67872">
        <ele>11.1</ele>
        <time>2026-08-22T12:34:50Z</time>
      </trkpt>
      <trkpt lat="47.62117" lon="-2.67868">
        <ele>11.1</ele>
        <time>2026-08-22T12:34:51Z</time>
      </trkpt>
      <trkpt lat="47.62119" lon="-2.67865">
        <ele>11</ele>
        <time>2026-08-22T12:34:52Z</time>
      </trkpt>
      <trkpt lat="47.62121" lon="-2.67862">
        <ele>11</ele>
        <time>2026-08-22T12:34:53Z</time>
      </trkpt>
      <trkpt lat="47.62124" lon="-2.67859">
        <ele>11</ele>
        <time>2026-08-22T12:34:54Z</time>
      </trkpt>
      <trkpt lat="47.62127" lon="-2.67856">
        <ele>10.9</ele>
        <time>2026-08-22T12:34:55Z</time>
      </trkpt>
      <trkpt lat="47.6213" lon="-2.67853">
        <ele>10.9</ele>
        <time>2026-08-22T12:34:56Z</time>
      </trkpt>
      <trkpt lat="47.62133" lon="-2.67849">
        <ele>10.9</ele>
        <time>2026-08-22T12:34:57Z</time>
      </trkpt>
      <trkpt lat="47.62136" lon="-2.67846">
        <ele>10.9</ele>
        <time>2026-08-22T12:34:58Z</time>
      </trkpt>
      <trkpt lat="47.62139" lon="-2.67842">
        <ele>11</ele>
        <time>2026-08-22T12:34:59Z</time>
      </trkpt>
      <trkpt lat="47.62142" lon="-2.67839">
        <ele>11.1</ele>
        <time>2026-08-22T12:35:00Z</time>
      </trkpt>
      <trkpt lat="47.62146" lon="-2.67835">
        <ele>11.3</ele>
        <time>2026-08-22T12:35:01Z</time>
      </trkpt>
      <trkpt lat="47.62149" lon="-2.67832">
        <ele>11.3</ele>
        <time>2026-08-22T12:35:02Z</time>
      </trkpt>
      <trkpt lat="47.62152" lon="-2.67829">
        <ele>11.3</ele>
        <time>2026-08-22T12:35:03Z</time>
      </trkpt>
      <trkpt lat="47.62155" lon="-2.67825">
        <ele>11.3</ele>
        <time>2026-08-22T12:35:04Z</time>
      </trkpt>
      <trkpt lat="47.62158" lon="-2.67821">
        <ele>11.2</ele>
        <time>2026-08-22T12:35:05Z</time>
      </trkpt>
      <trkpt lat="47.62161" lon="-2.67817">
        <ele>11.2</ele>
        <time>2026-08-22T12:35:06Z</time>
      </trkpt>
      <trkpt lat="47.62164" lon="-2.67814">
        <ele>11.2</ele>
        <time>2026-08-22T12:35:07Z</time>
      </trkpt>
      <trkpt lat="47.62167" lon="-2.6781">
        <ele>11.2</ele>
        <time>2026-08-22T12:35:08Z</time>
      </trkpt>
      <trkpt lat="47.6217" lon="-2.67807">
        <ele>11.2</ele>
        <time>2026-08-22T12:35:09Z</time>
      </trkpt>
      <trkpt lat="47.62173" lon="-2.67803">
        <ele>11.2</ele>
        <time>2026-08-22T12:35:10Z</time>
      </trkpt>
      <trkpt lat="47.62176" lon="-2.678">
        <ele>11.3</ele>
        <time>2026-08-22T12:35:11Z</time>
      </trkpt>
      <trkpt lat="47.62179" lon="-2.67797">
        <ele>11.3</ele>
        <time>2026-08-22T12:35:12Z</time>
      </trkpt>
      <trkpt lat="47.62182" lon="-2.67793">
        <ele>11.3</ele>
        <time>2026-08-22T12:35:13Z</time>
      </trkpt>
      <trkpt lat="47.62185" lon="-2.6779">
        <ele>11.3</ele>
        <time>2026-08-22T12:35:14Z</time>
      </trkpt>
      <trkpt lat="47.62187" lon="-2.67787">
        <ele>11.2</ele>
        <time>2026-08-22T12:35:15Z</time>
      </trkpt>
      <trkpt lat="47.6219" lon="-2.67783">
        <ele>11.2</ele>
        <time>2026-08-22T12:35:16Z</time>
      </trkpt>
      <trkpt lat="47.62193" lon="-2.6778">
        <ele>11.1</ele>
        <time>2026-08-22T12:35:17Z</time>
      </trkpt>
      <trkpt lat="47.62195" lon="-2.67777">
        <ele>11</ele>
        <time>2026-08-22T12:35:18Z</time>
      </trkpt>
      <trkpt lat="47.62198" lon="-2.67773">
        <ele>11.1</ele>
        <time>2026-08-22T12:35:19Z</time>
      </trkpt>
      <trkpt lat="47.622" lon="-2.6777">
        <ele>11.2</ele>
        <time>2026-08-22T12:35:20Z</time>
      </trkpt>
      <trkpt lat="47.62203" lon="-2.67767">
        <ele>11.3</ele>
        <time>2026-08-22T12:35:21Z</time>
      </trkpt>
      <trkpt lat="47.62206" lon="-2.67763">
        <ele>11.4</ele>
        <time>2026-08-22T12:35:22Z</time>
      </trkpt>
      <trkpt lat="47.62209" lon="-2.6776">
        <ele>11.5</ele>
        <time>2026-08-22T12:35:23Z</time>
      </trkpt>
      <trkpt lat="47.62212" lon="-2.67756">
        <ele>11.6</ele>
        <time>2026-08-22T12:35:24Z</time>
      </trkpt>
      <trkpt lat="47.62215" lon="-2.67753">
        <ele>11.7</ele>
        <time>2026-08-22T12:35:25Z</time>
      </trkpt>
      <trkpt lat="47.62218" lon="-2.6775">
        <ele>11.8</ele>
        <time>2026-08-22T12:35:26Z</time>
      </trkpt>
      <trkpt lat="47.62222" lon="-2.67746">
        <ele>11.8</ele>
        <time>2026-08-22T12:35:27Z</time>
      </trkpt>
      <trkpt lat="47.62224" lon="-2.67743">
        <ele>11.8</ele>
        <time>2026-08-22T12:35:28Z</time>
      </trkpt>
      <trkpt lat="47.62227" lon="-2.67739">
        <ele>11.7</ele>
        <time>2026-08-22T12:35:29Z</time>
      </trkpt>
      <trkpt lat="47.6223" lon="-2.67736">
        <ele>11.6</ele>
        <time>2026-08-22T12:35:30Z</time>
      </trkpt>
      <trkpt lat="47.62233" lon="-2.67733">
        <ele>11.6</ele>
        <time>2026-08-22T12:35:31Z</time>
      </trkpt>
      <trkpt lat="47.62236" lon="-2.67729">
        <ele>11.6</ele>
        <time>2026-08-22T12:35:32Z</time>
      </trkpt>
      <trkpt lat="47.62238" lon="-2.67726">
        <ele>11.6</ele>
        <time>2026-08-22T12:35:33Z</time>
      </trkpt>
      <trkpt lat="47.62241" lon="-2.67723">
        <ele>11.7</ele>
        <time>2026-08-22T12:35:34Z</time>
      </trkpt>
      <trkpt lat="47.62244" lon="-2.6772">
        <ele>11.8</ele>
        <time>2026-08-22T12:35:35Z</time>
      </trkpt>
      <trkpt lat="47.62247" lon="-2.67717">
        <ele>11.9</ele>
        <time>2026-08-22T12:35:36Z</time>
      </trkpt>
      <trkpt lat="47.62249" lon="-2.67714">
        <ele>12</ele>
        <time>2026-08-22T12:35:37Z</time>
      </trkpt>
      <trkpt lat="47.62251" lon="-2.6771">
        <ele>12</ele>
        <time>2026-08-22T12:35:38Z</time>
      </trkpt>
      <trkpt lat="47.62253" lon="-2.67706">
        <ele>12</ele>
        <time>2026-08-22T12:35:39Z</time>
      </trkpt>
      <trkpt lat="47.62254" lon="-2.67701">
        <ele>12</ele>
        <time>2026-08-22T12:35:40Z</time>
      </trkpt>
      <trkpt lat="47.62254" lon="-2.67696">
        <ele>12</ele>
        <time>2026-08-22T12:35:41Z</time>
      </trkpt>
      <trkpt lat="47.62254" lon="-2.67691">
        <ele>12</ele>
        <time>2026-08-22T12:35:42Z</time>
      </trkpt>
      <trkpt lat="47.62252" lon="-2.67685">
        <ele>12</ele>
        <time>2026-08-22T12:35:43Z</time>
      </trkpt>
      <trkpt lat="47.6225" lon="-2.6768">
        <ele>12</ele>
        <time>2026-08-22T12:35:44Z</time>
      </trkpt>
      <trkpt lat="47.62249" lon="-2.67675">
        <ele>12</ele>
        <time>2026-08-22T12:35:45Z</time>
      </trkpt>
      <trkpt lat="47.62247" lon="-2.67669">
        <ele>11.9</ele>
        <time>2026-08-22T12:35:46Z</time>
      </trkpt>
      <trkpt lat="47.62245" lon="-2.67664">
        <ele>11.8</ele>
        <time>2026-08-22T12:35:47Z</time>
      </trkpt>
      <trkpt lat="47.62243" lon="-2.67658">
        <ele>11.7</ele>
        <time>2026-08-22T12:35:48Z</time>
      </trkpt>
      <trkpt lat="47.62241" lon="-2.67653">
        <ele>11.7</ele>
        <time>2026-08-22T12:35:49Z</time>
      </trkpt>
      <trkpt lat="47.62239" lon="-2.67647">
        <ele>11.6</ele>
        <time>2026-08-22T12:35:50Z</time>
      </trkpt>
      <trkpt lat="47.62237" lon="-2.67641">
        <ele>11.5</ele>
        <time>2026-08-22T12:35:51Z</time>
      </trkpt>
      <trkpt lat="47.62235" lon="-2.67635">
        <ele>11.5</ele>
        <time>2026-08-22T12:35:52Z</time>
      </trkpt>
      <trkpt lat="47.62233" lon="-2.67629">
        <ele>11.5</ele>
        <time>2026-08-22T12:35:53Z</time>
      </trkpt>
      <trkpt lat="47.62231" lon="-2.67622">
        <ele>11.5</ele>
        <time>2026-08-22T12:35:54Z</time>
      </trkpt>
      <trkpt lat="47.62229" lon="-2.67616">
        <ele>11.4</ele>
        <time>2026-08-22T12:35:55Z</time>
      </trkpt>
      <trkpt lat="47.62226" lon="-2.67609">
        <ele>11.3</ele>
        <time>2026-08-22T12:35:56Z</time>
      </trkpt>
      <trkpt lat="47.62224" lon="-2.67603">
        <ele>11.1</ele>
        <time>2026-08-22T12:35:57Z</time>
      </trkpt>
      <trkpt lat="47.62221" lon="-2.67596">
        <ele>10.9</ele>
        <time>2026-08-22T12:35:58Z</time>
      </trkpt>
      <trkpt lat="47.62219" lon="-2.6759">
        <ele>10.8</ele>
        <time>2026-08-22T12:35:59Z</time>
      </trkpt>
      <trkpt lat="47.62217" lon="-2.67584">
        <ele>10.6</ele>
        <time>2026-08-22T12:36:00Z</time>
      </trkpt>
      <trkpt lat="47.62214" lon="-2.67577">
        <ele>10.5</ele>
        <time>2026-08-22T12:36:01Z</time>
      </trkpt>
      <trkpt lat="47.62212" lon="-2.67571">
        <ele>10.4</ele>
        <time>2026-08-22T12:36:02Z</time>
      </trkpt>
      <trkpt lat="47.6221" lon="-2.67564">
        <ele>10.4</ele>
        <time>2026-08-22T12:36:03Z</time>
      </trkpt>
      <trkpt lat="47.62208" lon="-2.67558">
        <ele>10.4</ele>
        <time>2026-08-22T12:36:04Z</time>
      </trkpt>
      <trkpt lat="47.62205" lon="-2.67551">
        <ele>10.5</ele>
        <time>2026-08-22T12:36:05Z</time>
      </trkpt>
      <trkpt lat="47.62203" lon="-2.67545">
        <ele>10.6</ele>
        <time>2026-08-22T12:36:06Z</time>
      </trkpt>
      <trkpt lat="47.622" lon="-2.67538">
        <ele>10.7</ele>
        <time>2026-08-22T12:36:07Z</time>
      </trkpt>
      <trkpt lat="47.62198" lon="-2.67532">
        <ele>10.9</ele>
        <time>2026-08-22T12:36:08Z</time>
      </trkpt>
      <trkpt lat="47.62195" lon="-2.67526">
        <ele>10.9</ele>
        <time>2026-08-22T12:36:09Z</time>
      </trkpt>
      <trkpt lat="47.62193" lon="-2.6752">
        <ele>10.6</ele>
        <time>2026-08-22T12:36:10Z</time>
      </trkpt>
      <trkpt lat="47.6219" lon="-2.67513">
        <ele>10.1</ele>
        <time>2026-08-22T12:36:11Z</time>
      </trkpt>
      <trkpt lat="47.62187" lon="-2.67507">
        <ele>9.7</ele>
        <time>2026-08-22T12:36:12Z</time>
      </trkpt>
      <trkpt lat="47.62184" lon="-2.675">
        <ele>9.2</ele>
        <time>2026-08-22T12:36:13Z</time>
      </trkpt>
      <trkpt lat="47.62181" lon="-2.67493">
        <ele>9.2</ele>
        <time>2026-08-22T12:36:14Z</time>
      </trkpt>
      <trkpt lat="47.62178" lon="-2.67486">
        <ele>9.1</ele>
        <time>2026-08-22T12:36:15Z</time>
      </trkpt>
      <trkpt lat="47.62175" lon="-2.67479">
        <ele>9.1</ele>
        <time>2026-08-22T12:36:16Z</time>
      </trkpt>
      <trkpt lat="47.62172" lon="-2.67472">
        <ele>9.2</ele>
        <time>2026-08-22T12:36:17Z</time>
      </trkpt>
      <trkpt lat="47.62169" lon="-2.67465">
        <ele>8.8</ele>
        <time>2026-08-22T12:36:18Z</time>
      </trkpt>
      <trkpt lat="47.62166" lon="-2.67458">
        <ele>8.5</ele>
        <time>2026-08-22T12:36:19Z</time>
      </trkpt>
      <trkpt lat="47.62163" lon="-2.6745">
        <ele>8</ele>
        <time>2026-08-22T12:36:20Z</time>
      </trkpt>
      <trkpt lat="47.6216" lon="-2.67443">
        <ele>7.8</ele>
        <time>2026-08-22T12:36:21Z</time>
      </trkpt>
      <trkpt lat="47.62157" lon="-2.67436">
        <ele>7.9</ele>
        <time>2026-08-22T12:36:22Z</time>
      </trkpt>
      <trkpt lat="47.62154" lon="-2.67429">
        <ele>7.8</ele>
        <time>2026-08-22T12:36:23Z</time>
      </trkpt>
      <trkpt lat="47.62152" lon="-2.67422">
        <ele>7.9</ele>
        <time>2026-08-22T12:36:24Z</time>
      </trkpt>
      <trkpt lat="47.62149" lon="-2.67415">
        <ele>7.8</ele>
        <time>2026-08-22T12:36:25Z</time>
      </trkpt>
      <trkpt lat="47.62146" lon="-2.67408">
        <ele>7.7</ele>
        <time>2026-08-22T12:36:26Z</time>
      </trkpt>
      <trkpt lat="47.62143" lon="-2.67402">
        <ele>7.7</ele>
        <time>2026-08-22T12:36:27Z</time>
      </trkpt>
      <trkpt lat="47.6214" lon="-2.67396">
        <ele>7.8</ele>
        <time>2026-08-22T12:36:28Z</time>
      </trkpt>
      <trkpt lat="47.62138" lon="-2.6739">
        <ele>7.9</ele>
        <time>2026-08-22T12:36:29Z</time>
      </trkpt>
      <trkpt lat="47.62135" lon="-2.67383">
        <ele>7.9</ele>
        <time>2026-08-22T12:36:30Z</time>
      </trkpt>
      <trkpt lat="47.62133" lon="-2.67377">
        <ele>7.8</ele>
        <time>2026-08-22T12:36:31Z</time>
      </trkpt>
      <trkpt lat="47.6213" lon="-2.67371">
        <ele>7.7</ele>
        <time>2026-08-22T12:36:32Z</time>
      </trkpt>
      <trkpt lat="47.62127" lon="-2.67365">
        <ele>7.6</ele>
        <time>2026-08-22T12:36:33Z</time>
      </trkpt>
      <trkpt lat="47.62125" lon="-2.67359">
        <ele>7.5</ele>
        <time>2026-08-22T12:36:34Z</time>
      </trkpt>
      <trkpt lat="47.62122" lon="-2.67354">
        <ele>7.4</ele>
        <time>2026-08-22T12:36:35Z</time>
      </trkpt>
      <trkpt lat="47.6212" lon="-2.67348">
        <ele>7.3</ele>
        <time>2026-08-22T12:36:36Z</time>
      </trkpt>
      <trkpt lat="47.62118" lon="-2.67343">
        <ele>7.2</ele>
        <time>2026-08-22T12:36:37Z</time>
      </trkpt>
      <trkpt lat="47.62117" lon="-2.67337">
        <ele>7.2</ele>
        <time>2026-08-22T12:36:38Z</time>
      </trkpt>
      <trkpt lat="47.62116" lon="-2.67332">
        <ele>7.2</ele>
        <time>2026-08-22T12:36:39Z</time>
      </trkpt>
      <trkpt lat="47.62116" lon="-2.67327">
        <ele>7.2</ele>
        <time>2026-08-22T12:36:40Z</time>
      </trkpt>
      <trkpt lat="47.62116" lon="-2.67321">
        <ele>7.2</ele>
        <time>2026-08-22T12:36:41Z</time>
      </trkpt>
      <trkpt lat="47.62115" lon="-2.67316">
        <ele>7.1</ele>
        <time>2026-08-22T12:36:42Z</time>
      </trkpt>
      <trkpt lat="47.62113" lon="-2.67311">
        <ele>7.1</ele>
        <time>2026-08-22T12:36:43Z</time>
      </trkpt>
      <trkpt lat="47.62111" lon="-2.67305">
        <ele>7</ele>
        <time>2026-08-22T12:36:44Z</time>
      </trkpt>
      <trkpt lat="47.6211" lon="-2.673">
        <ele>7</ele>
        <time>2026-08-22T12:36:45Z</time>
      </trkpt>
      <trkpt lat="47.62108" lon="-2.67294">
        <ele>7</ele>
        <time>2026-08-22T12:36:46Z</time>
      </trkpt>
      <trkpt lat="47.62106" lon="-2.67288">
        <ele>7</ele>
        <time>2026-08-22T12:36:47Z</time>
      </trkpt>
      <trkpt lat="47.62105" lon="-2.67282">
        <ele>7</ele>
        <time>2026-08-22T12:36:48Z</time>
      </trkpt>
      <trkpt lat="47.62103" lon="-2.67276">
        <ele>7</ele>
        <time>2026-08-22T12:36:49Z</time>
      </trkpt>
      <trkpt lat="47.62101" lon="-2.6727">
        <ele>7.2</ele>
        <time>2026-08-22T12:36:50Z</time>
      </trkpt>
      <trkpt lat="47.621" lon="-2.67264">
        <ele>7.3</ele>
        <time>2026-08-22T12:36:51Z</time>
      </trkpt>
      <trkpt lat="47.62098" lon="-2.67258">
        <ele>7.4</ele>
        <time>2026-08-22T12:36:52Z</time>
      </trkpt>
      <trkpt lat="47.62097" lon="-2.67251">
        <ele>7.5</ele>
        <time>2026-08-22T12:36:53Z</time>
      </trkpt>
      <trkpt lat="47.62096" lon="-2.67245">
        <ele>7.5</ele>
        <time>2026-08-22T12:36:54Z</time>
      </trkpt>
      <trkpt lat="47.62095" lon="-2.67238">
        <ele>7.4</ele>
        <time>2026-08-22T12:36:55Z</time>
      </trkpt>
      <trkpt lat="47.62093" lon="-2.67232">
        <ele>7.3</ele>
        <time>2026-08-22T12:36:56Z</time>
      </trkpt>
      <trkpt lat="47.62092" lon="-2.67226">
        <ele>7.3</ele>
        <time>2026-08-22T12:36:57Z</time>
      </trkpt>
      <trkpt lat="47.6209" lon="-2.67219">
        <ele>7.2</ele>
        <time>2026-08-22T12:36:58Z</time>
      </trkpt>
      <trkpt lat="47.62089" lon="-2.67213">
        <ele>7.2</ele>
        <time>2026-08-22T12:36:59Z</time>
      </trkpt>
      <trkpt lat="47.62088" lon="-2.67206">
        <ele>7.2</ele>
        <time>2026-08-22T12:37:00Z</time>
      </trkpt>
      <trkpt lat="47.62087" lon="-2.672">
        <ele>7.1</ele>
        <time>2026-08-22T12:37:01Z</time>
      </trkpt>
      <trkpt lat="47.62086" lon="-2.67193">
        <ele>7.1</ele>
        <time>2026-08-22T12:37:02Z</time>
      </trkpt>
      <trkpt lat="47.62084" lon="-2.67187">
        <ele>7</ele>
        <time>2026-08-22T12:37:03Z</time>
      </trkpt>
      <trkpt lat="47.62083" lon="-2.6718">
        <ele>7</ele>
        <time>2026-08-22T12:37:04Z</time>
      </trkpt>
      <trkpt lat="47.62082" lon="-2.67174">
        <ele>7</ele>
        <time>2026-08-22T12:37:05Z</time>
      </trkpt>
      <trkpt lat="47.62081" lon="-2.67168">
        <ele>7</ele>
        <time>2026-08-22T12:37:06Z</time>
      </trkpt>
      <trkpt lat="47.62079" lon="-2.67161">
        <ele>7</ele>
        <time>2026-08-22T12:37:07Z</time>
      </trkpt>
      <trkpt lat="47.62078" lon="-2.67155">
        <ele>7</ele>
        <time>2026-08-22T12:37:08Z</time>
      </trkpt>
      <trkpt lat="47.62077" lon="-2.67148">
        <ele>7</ele>
        <time>2026-08-22T12:37:09Z</time>
      </trkpt>
      <trkpt lat="47.62076" lon="-2.67142">
        <ele>7</ele>
        <time>2026-08-22T12:37:10Z</time>
      </trkpt>
      <trkpt lat="47.62075" lon="-2.67136">
        <ele>7</ele>
        <time>2026-08-22T12:37:11Z</time>
      </trkpt>
      <trkpt lat="47.62074" lon="-2.6713">
        <ele>7</ele>
        <time>2026-08-22T12:37:12Z</time>
      </trkpt>
      <trkpt lat="47.62073" lon="-2.67123">
        <ele>7</ele>
        <time>2026-08-22T12:37:13Z</time>
      </trkpt>
      <trkpt lat="47.62073" lon="-2.67117">
        <ele>7</ele>
        <time>2026-08-22T12:37:14Z</time>
      </trkpt>
      <trkpt lat="47.62072" lon="-2.6711">
        <ele>7</ele>
        <time>2026-08-22T12:37:15Z</time>
      </trkpt>
      <trkpt lat="47.62071" lon="-2.67104">
        <ele>6.9</ele>
        <time>2026-08-22T12:37:16Z</time>
      </trkpt>
      <trkpt lat="47.6207" lon="-2.67097">
        <ele>6.8</ele>
        <time>2026-08-22T12:37:17Z</time>
      </trkpt>
      <trkpt lat="47.62069" lon="-2.67091">
        <ele>6.6</ele>
        <time>2026-08-22T12:37:18Z</time>
      </trkpt>
      <trkpt lat="47.62069" lon="-2.67084">
        <ele>6.5</ele>
        <time>2026-08-22T12:37:19Z</time>
      </trkpt>
      <trkpt lat="47.62068" lon="-2.67078">
        <ele>6.6</ele>
        <time>2026-08-22T12:37:20Z</time>
      </trkpt>
      <trkpt lat="47.62067" lon="-2.67071">
        <ele>6.9</ele>
        <time>2026-08-22T12:37:21Z</time>
      </trkpt>
      <trkpt lat="47.62066" lon="-2.67065">
        <ele>7</ele>
        <time>2026-08-22T12:37:22Z</time>
      </trkpt>
      <trkpt lat="47.62065" lon="-2.67059">
        <ele>7.2</ele>
        <time>2026-08-22T12:37:23Z</time>
      </trkpt>
      <trkpt lat="47.62065" lon="-2.67053">
        <ele>7.4</ele>
        <time>2026-08-22T12:37:24Z</time>
      </trkpt>
      <trkpt lat="47.62064" lon="-2.67048">
        <ele>7.5</ele>
        <time>2026-08-22T12:37:25Z</time>
      </trkpt>
      <trkpt lat="47.62063" lon="-2.67042">
        <ele>7.6</ele>
        <time>2026-08-22T12:37:26Z</time>
      </trkpt>
      <trkpt lat="47.62063" lon="-2.67037">
        <ele>7.8</ele>
        <time>2026-08-22T12:37:27Z</time>
      </trkpt>
      <trkpt lat="47.62063" lon="-2.67032">
        <ele>7.9</ele>
        <time>2026-08-22T12:37:28Z</time>
      </trkpt>
      <trkpt lat="47.62063" lon="-2.67027">
        <ele>8</ele>
        <time>2026-08-22T12:37:29Z</time>
      </trkpt>
      <trkpt lat="47.62063" lon="-2.67023">
        <ele>8.2</ele>
        <time>2026-08-22T12:37:30Z</time>
      </trkpt>
      <trkpt lat="47.62063" lon="-2.67018">
        <ele>8.4</ele>
        <time>2026-08-22T12:37:31Z</time>
      </trkpt>
      <trkpt lat="47.62062" lon="-2.67014">
        <ele>8.5</ele>
        <time>2026-08-22T12:37:32Z</time>
      </trkpt>
      <trkpt lat="47.62062" lon="-2.67009">
        <ele>8.7</ele>
        <time>2026-08-22T12:37:33Z</time>
      </trkpt>
      <trkpt lat="47.62062" lon="-2.67004">
        <ele>8.9</ele>
        <time>2026-08-22T12:37:34Z</time>
      </trkpt>
      <trkpt lat="47.62063" lon="-2.67">
        <ele>9</ele>
        <time>2026-08-22T12:37:35Z</time>
      </trkpt>
      <trkpt lat="47.62063" lon="-2.66995">
        <ele>9.2</ele>
        <time>2026-08-22T12:37:36Z</time>
      </trkpt>
      <trkpt lat="47.62063" lon="-2.6699">
        <ele>9.4</ele>
        <time>2026-08-22T12:37:37Z</time>
      </trkpt>
      <trkpt lat="47.62063" lon="-2.66985">
        <ele>9.5</ele>
        <time>2026-08-22T12:37:38Z</time>
      </trkpt>
      <trkpt lat="47.62063" lon="-2.66981">
        <ele>9.7</ele>
        <time>2026-08-22T12:37:39Z</time>
      </trkpt>
      <trkpt lat="47.62064" lon="-2.66976">
        <ele>9.9</ele>
        <time>2026-08-22T12:37:40Z</time>
      </trkpt>
      <trkpt lat="47.62064" lon="-2.66972">
        <ele>10</ele>
        <time>2026-08-22T12:37:41Z</time>
      </trkpt>
      <trkpt lat="47.62064" lon="-2.66967">
        <ele>10.3</ele>
        <time>2026-08-22T12:37:42Z</time>
      </trkpt>
      <trkpt lat="47.62065" lon="-2.66962">
        <ele>10.6</ele>
        <time>2026-08-22T12:37:43Z</time>
      </trkpt>
      <trkpt lat="47.62065" lon="-2.66957">
        <ele>10.9</ele>
        <time>2026-08-22T12:37:44Z</time>
      </trkpt>
      <trkpt lat="47.62066" lon="-2.66952">
        <ele>11.2</ele>
        <time>2026-08-22T12:37:45Z</time>
      </trkpt>
      <trkpt lat="47.62066" lon="-2.66947">
        <ele>11.5</ele>
        <time>2026-08-22T12:37:46Z</time>
      </trkpt>
      <trkpt lat="47.62067" lon="-2.66942">
        <ele>11.7</ele>
        <time>2026-08-22T12:37:47Z</time>
      </trkpt>
      <trkpt lat="47.62067" lon="-2.66937">
        <ele>11.9</ele>
        <time>2026-08-22T12:37:48Z</time>
      </trkpt>
      <trkpt lat="47.62068" lon="-2.66932">
        <ele>12</ele>
        <time>2026-08-22T12:37:49Z</time>
      </trkpt>
      <trkpt lat="47.62068" lon="-2.66927">
        <ele>12.2</ele>
        <time>2026-08-22T12:37:50Z</time>
      </trkpt>
      <trkpt lat="47.62068" lon="-2.66922">
        <ele>12.4</ele>
        <time>2026-08-22T12:37:51Z</time>
      </trkpt>
      <trkpt lat="47.62068" lon="-2.66918">
        <ele>12.5</ele>
        <time>2026-08-22T12:37:52Z</time>
      </trkpt>
      <trkpt lat="47.62068" lon="-2.66913">
        <ele>12.6</ele>
        <time>2026-08-22T12:37:53Z</time>
      </trkpt>
      <trkpt lat="47.62068" lon="-2.66909">
        <ele>12.6</ele>
        <time>2026-08-22T12:37:54Z</time>
      </trkpt>
      <trkpt lat="47.62068" lon="-2.66904">
        <ele>12.6</ele>
        <time>2026-08-22T12:37:55Z</time>
      </trkpt>
      <trkpt lat="47.62068" lon="-2.669">
        <ele>12.6</ele>
        <time>2026-08-22T12:37:56Z</time>
      </trkpt>
      <trkpt lat="47.62069" lon="-2.66896">
        <ele>12.5</ele>
        <time>2026-08-22T12:37:57Z</time>
      </trkpt>
      <trkpt lat="47.62069" lon="-2.66891">
        <ele>12.5</ele>
        <time>2026-08-22T12:37:58Z</time>
      </trkpt>
      <trkpt lat="47.62069" lon="-2.66887">
        <ele>12.5</ele>
        <time>2026-08-22T12:37:59Z</time>
      </trkpt>
      <trkpt lat="47.62069" lon="-2.66882">
        <ele>12.5</ele>
        <time>2026-08-22T12:38:00Z</time>
      </trkpt>
      <trkpt lat="47.6207" lon="-2.66878">
        <ele>12.5</ele>
        <time>2026-08-22T12:38:01Z</time>
      </trkpt>
      <trkpt lat="47.6207" lon="-2.66873">
        <ele>12.5</ele>
        <time>2026-08-22T12:38:02Z</time>
      </trkpt>
      <trkpt lat="47.62071" lon="-2.66868">
        <ele>12.4</ele>
        <time>2026-08-22T12:38:03Z</time>
      </trkpt>
      <trkpt lat="47.62071" lon="-2.66864">
        <ele>12.4</ele>
        <time>2026-08-22T12:38:04Z</time>
      </trkpt>
      <trkpt lat="47.62072" lon="-2.66859">
        <ele>12.4</ele>
        <time>2026-08-22T12:38:05Z</time>
      </trkpt>
      <trkpt lat="47.62073" lon="-2.66854">
        <ele>12.4</ele>
        <time>2026-08-22T12:38:06Z</time>
      </trkpt>
      <trkpt lat="47.62073" lon="-2.66849">
        <ele>12.5</ele>
        <time>2026-08-22T12:38:07Z</time>
      </trkpt>
      <trkpt lat="47.62074" lon="-2.66844">
        <ele>12.5</ele>
        <time>2026-08-22T12:38:08Z</time>
      </trkpt>
      <trkpt lat="47.62075" lon="-2.66839">
        <ele>12.6</ele>
        <time>2026-08-22T12:38:09Z</time>
      </trkpt>
      <trkpt lat="47.62076" lon="-2.66834">
        <ele>12.7</ele>
        <time>2026-08-22T12:38:10Z</time>
      </trkpt>
      <trkpt lat="47.62077" lon="-2.66829">
        <ele>12.7</ele>
        <time>2026-08-22T12:38:11Z</time>
      </trkpt>
      <trkpt lat="47.62078" lon="-2.66824">
        <ele>12.6</ele>
        <time>2026-08-22T12:38:12Z</time>
      </trkpt>
      <trkpt lat="47.62079" lon="-2.66819">
        <ele>12.5</ele>
        <time>2026-08-22T12:38:13Z</time>
      </trkpt>
      <trkpt lat="47.6208" lon="-2.66814">
        <ele>12.4</ele>
        <time>2026-08-22T12:38:14Z</time>
      </trkpt>
      <trkpt lat="47.62081" lon="-2.66809">
        <ele>12.2</ele>
        <time>2026-08-22T12:38:15Z</time>
      </trkpt>
      <trkpt lat="47.62082" lon="-2.66804">
        <ele>12.1</ele>
        <time>2026-08-22T12:38:16Z</time>
      </trkpt>
      <trkpt lat="47.62083" lon="-2.66799">
        <ele>12.2</ele>
        <time>2026-08-22T12:38:17Z</time>
      </trkpt>
      <trkpt lat="47.62084" lon="-2.66793">
        <ele>12.5</ele>
        <time>2026-08-22T12:38:18Z</time>
      </trkpt>
      <trkpt lat="47.62086" lon="-2.66788">
        <ele>12.7</ele>
        <time>2026-08-22T12:38:19Z</time>
      </trkpt>
      <trkpt lat="47.62088" lon="-2.66783">
        <ele>12.8</ele>
        <time>2026-08-22T12:38:20Z</time>
      </trkpt>
      <trkpt lat="47.6209" lon="-2.66778">
        <ele>13</ele>
        <time>2026-08-22T12:38:21Z</time>
      </trkpt>
      <trkpt lat="47.62091" lon="-2.66774">
        <ele>13</ele>
        <time>2026-08-22T12:38:22Z</time>
      </trkpt>
      <trkpt lat="47.62093" lon="-2.66769">
        <ele>13</ele>
        <time>2026-08-22T12:38:23Z</time>
      </trkpt>
      <trkpt lat="47.62095" lon="-2.66765">
        <ele>13</ele>
        <time>2026-08-22T12:38:24Z</time>
      </trkpt>
      <trkpt lat="47.62097" lon="-2.6676">
        <ele>13</ele>
        <time>2026-08-22T12:38:25Z</time>
      </trkpt>
      <trkpt lat="47.62099" lon="-2.66755">
        <ele>13</ele>
        <time>2026-08-22T12:38:26Z</time>
      </trkpt>
      <trkpt lat="47.62101" lon="-2.66751">
        <ele>13</ele>
        <time>2026-08-22T12:38:27Z</time>
      </trkpt>
      <trkpt lat="47.62103" lon="-2.66747">
        <ele>13.1</ele>
        <time>2026-08-22T12:38:28Z</time>
      </trkpt>
      <trkpt lat="47.62104" lon="-2.66743">
        <ele>13.2</ele>
        <time>2026-08-22T12:38:29Z</time>
      </trkpt>
      <trkpt lat="47.62106" lon="-2.66739">
        <ele>13.3</ele>
        <time>2026-08-22T12:38:30Z</time>
      </trkpt>
      <trkpt lat="47.62108" lon="-2.66735">
        <ele>13.5</ele>
        <time>2026-08-22T12:38:31Z</time>
      </trkpt>
      <trkpt lat="47.62109" lon="-2.66731">
        <ele>13.6</ele>
        <time>2026-08-22T12:38:32Z</time>
      </trkpt>
      <trkpt lat="47.62111" lon="-2.66726">
        <ele>13.9</ele>
        <time>2026-08-22T12:38:33Z</time>
      </trkpt>
      <trkpt lat="47.62113" lon="-2.66722">
        <ele>14</ele>
        <time>2026-08-22T12:38:34Z</time>
      </trkpt>
      <trkpt lat="47.62114" lon="-2.66718">
        <ele>14</ele>
        <time>2026-08-22T12:38:35Z</time>
      </trkpt>
      <trkpt lat="47.62116" lon="-2.66714">
        <ele>14.1</ele>
        <time>2026-08-22T12:38:36Z</time>
      </trkpt>
      <trkpt lat="47.62117" lon="-2.6671">
        <ele>14.1</ele>
        <time>2026-08-22T12:38:37Z</time>
      </trkpt>
      <trkpt lat="47.62119" lon="-2.66705">
        <ele>14.2</ele>
        <time>2026-08-22T12:38:38Z</time>
      </trkpt>
      <trkpt lat="47.6212" lon="-2.66701">
        <ele>14.2</ele>
        <time>2026-08-22T12:38:39Z</time>
      </trkpt>
      <trkpt lat="47.62121" lon="-2.66697">
        <ele>14.3</ele>
        <time>2026-08-22T12:38:40Z</time>
      </trkpt>
      <trkpt lat="47.62123" lon="-2.66692">
        <ele>14.5</ele>
        <time>2026-08-22T12:38:41Z</time>
      </trkpt>
      <trkpt lat="47.62124" lon="-2.66687">
        <ele>14.6</ele>
        <time>2026-08-22T12:38:42Z</time>
      </trkpt>
      <trkpt lat="47.62125" lon="-2.66683">
        <ele>14.7</ele>
        <time>2026-08-22T12:38:43Z</time>
      </trkpt>
      <trkpt lat="47.62125" lon="-2.66678">
        <ele>14.8</ele>
        <time>2026-08-22T12:38:44Z</time>
      </trkpt>
      <trkpt lat="47.62126" lon="-2.66673">
        <ele>14.9</ele>
        <time>2026-08-22T12:38:45Z</time>
      </trkpt>
      <trkpt lat="47.62127" lon="-2.66668">
        <ele>15</ele>
        <time>2026-08-22T12:38:46Z</time>
      </trkpt>
      <trkpt lat="47.62127" lon="-2.66664">
        <ele>15.1</ele>
        <time>2026-08-22T12:38:47Z</time>
      </trkpt>
      <trkpt lat="47.62127" lon="-2.66659">
        <ele>15.2</ele>
        <time>2026-08-22T12:38:48Z</time>
      </trkpt>
      <trkpt lat="47.62128" lon="-2.66654">
        <ele>15.3</ele>
        <time>2026-08-22T12:38:49Z</time>
      </trkpt>
      <trkpt lat="47.62129" lon="-2.66649">
        <ele>15.4</ele>
        <time>2026-08-22T12:38:50Z</time>
      </trkpt>
      <trkpt lat="47.62129" lon="-2.66644">
        <ele>15.5</ele>
        <time>2026-08-22T12:38:51Z</time>
      </trkpt>
      <trkpt lat="47.62129" lon="-2.66639">
        <ele>15.6</ele>
        <time>2026-08-22T12:38:52Z</time>
      </trkpt>
      <trkpt lat="47.6213" lon="-2.66634">
        <ele>15.5</ele>
        <time>2026-08-22T12:38:53Z</time>
      </trkpt>
      <trkpt lat="47.62131" lon="-2.66629">
        <ele>15.4</ele>
        <time>2026-08-22T12:38:54Z</time>
      </trkpt>
      <trkpt lat="47.62131" lon="-2.66623">
        <ele>15.1</ele>
        <time>2026-08-22T12:38:55Z</time>
      </trkpt>
      <trkpt lat="47.62132" lon="-2.66618">
        <ele>15</ele>
        <time>2026-08-22T12:38:56Z</time>
      </trkpt>
      <trkpt lat="47.62132" lon="-2.66612">
        <ele>14.8</ele>
        <time>2026-08-22T12:38:57Z</time>
      </trkpt>
      <trkpt lat="47.62133" lon="-2.66606">
        <ele>14.6</ele>
        <time>2026-08-22T12:38:58Z</time>
      </trkpt>
      <trkpt lat="47.62133" lon="-2.666">
        <ele>14.5</ele>
        <time>2026-08-22T12:38:59Z</time>
      </trkpt>
      <trkpt lat="47.62134" lon="-2.66594">
        <ele>14.3</ele>
        <time>2026-08-22T12:39:00Z</time>
      </trkpt>
      <trkpt lat="47.62134" lon="-2.66588">
        <ele>14.1</ele>
        <time>2026-08-22T12:39:01Z</time>
      </trkpt>
      <trkpt lat="47.62134" lon="-2.66582">
        <ele>14</ele>
        <time>2026-08-22T12:39:02Z</time>
      </trkpt>
      <trkpt lat="47.62135" lon="-2.66576">
        <ele>13.7</ele>
        <time>2026-08-22T12:39:03Z</time>
      </trkpt>
      <trkpt lat="47.62136" lon="-2.6657">
        <ele>13.5</ele>
        <time>2026-08-22T12:39:04Z</time>
      </trkpt>
      <trkpt lat="47.62136" lon="-2.66564">
        <ele>13.3</ele>
        <time>2026-08-22T12:39:05Z</time>
      </trkpt>
      <trkpt lat="47.62137" lon="-2.66556">
        <ele>13</ele>
        <time>2026-08-22T12:39:06Z</time>
      </trkpt>
      <trkpt lat="47.62138" lon="-2.66549">
        <ele>12.8</ele>
        <time>2026-08-22T12:39:07Z</time>
      </trkpt>
      <trkpt lat="47.62138" lon="-2.66542">
        <ele>12.5</ele>
        <time>2026-08-22T12:39:08Z</time>
      </trkpt>
      <trkpt lat="47.62139" lon="-2.66535">
        <ele>12.3</ele>
        <time>2026-08-22T12:39:09Z</time>
      </trkpt>
      <trkpt lat="47.6214" lon="-2.66528">
        <ele>12</ele>
        <time>2026-08-22T12:39:10Z</time>
      </trkpt>
      <trkpt lat="47.6214" lon="-2.66521">
        <ele>12</ele>
        <time>2026-08-22T12:39:11Z</time>
      </trkpt>
      <trkpt lat="47.62141" lon="-2.66513">
        <ele>12.1</ele>
        <time>2026-08-22T12:39:12Z</time>
      </trkpt>
      <trkpt lat="47.62141" lon="-2.66504">
        <ele>12.1</ele>
        <time>2026-08-22T12:39:13Z</time>
      </trkpt>
      <trkpt lat="47.62142" lon="-2.66496">
        <ele>12</ele>
        <time>2026-08-22T12:39:14Z</time>
      </trkpt>
      <trkpt lat="47.62143" lon="-2.66487">
        <ele>11.7</ele>
        <time>2026-08-22T12:39:15Z</time>
      </trkpt>
      <trkpt lat="47.62143" lon="-2.66478">
        <ele>11.4</ele>
        <time>2026-08-22T12:39:16Z</time>
      </trkpt>
      <trkpt lat="47.62144" lon="-2.66469">
        <ele>11.1</ele>
        <time>2026-08-22T12:39:17Z</time>
      </trkpt>
      <trkpt lat="47.62145" lon="-2.6646">
        <ele>10.8</ele>
        <time>2026-08-22T12:39:18Z</time>
      </trkpt>
      <trkpt lat="47.62146" lon="-2.66452">
        <ele>10.5</ele>
        <time>2026-08-22T12:39:19Z</time>
      </trkpt>
      <trkpt lat="47.62147" lon="-2.66444">
        <ele>10.3</ele>
        <time>2026-08-22T12:39:20Z</time>
      </trkpt>
      <trkpt lat="47.62149" lon="-2.66438">
        <ele>10.2</ele>
        <time>2026-08-22T12:39:21Z</time>
      </trkpt>
      <trkpt lat="47.62151" lon="-2.66434">
        <ele>10.2</ele>
        <time>2026-08-22T12:39:22Z</time>
      </trkpt>
      <trkpt lat="47.62155" lon="-2.66432">
        <ele>10.4</ele>
        <time>2026-08-22T12:39:23Z</time>
      </trkpt>
      <trkpt lat="47.62158" lon="-2.66431">
        <ele>10.5</ele>
        <time>2026-08-22T12:39:24Z</time>
      </trkpt>
      <trkpt lat="47.62162" lon="-2.66431">
        <ele>10.8</ele>
        <time>2026-08-22T12:39:25Z</time>
      </trkpt>
      <trkpt lat="47.62164" lon="-2.66431">
        <ele>10.9</ele>
        <time>2026-08-22T12:39:26Z</time>
      </trkpt>
      <trkpt lat="47.62167" lon="-2.66431">
        <ele>11</ele>
        <time>2026-08-22T12:39:27Z</time>
      </trkpt>
      <trkpt lat="47.6217" lon="-2.66432">
        <ele>11.2</ele>
        <time>2026-08-22T12:39:28Z</time>
      </trkpt>
      <trkpt lat="47.62173" lon="-2.66432">
        <ele>11.5</ele>
        <time>2026-08-22T12:39:29Z</time>
      </trkpt>
      <trkpt lat="47.62177" lon="-2.66432">
        <ele>11.7</ele>
        <time>2026-08-22T12:39:30Z</time>
      </trkpt>
      <trkpt lat="47.6218" lon="-2.66433">
        <ele>12</ele>
        <time>2026-08-22T12:39:31Z</time>
      </trkpt>
      <trkpt lat="47.62183" lon="-2.66433">
        <ele>12.2</ele>
        <time>2026-08-22T12:39:32Z</time>
      </trkpt>
      <trkpt lat="47.62187" lon="-2.66433">
        <ele>12.5</ele>
        <time>2026-08-22T12:39:33Z</time>
      </trkpt>
      <trkpt lat="47.6219" lon="-2.66433">
        <ele>12.7</ele>
        <time>2026-08-22T12:39:34Z</time>
      </trkpt>
      <trkpt lat="47.62193" lon="-2.66433">
        <ele>12.9</ele>
        <time>2026-08-22T12:39:35Z</time>
      </trkpt>
      <trkpt lat="47.62195" lon="-2.66433">
        <ele>13</ele>
        <time>2026-08-22T12:39:36Z</time>
      </trkpt>
      <trkpt lat="47.62198" lon="-2.66432">
        <ele>13.2</ele>
        <time>2026-08-22T12:39:37Z</time>
      </trkpt>
      <trkpt lat="47.62201" lon="-2.66432">
        <ele>13.3</ele>
        <time>2026-08-22T12:39:38Z</time>
      </trkpt>
      <trkpt lat="47.62205" lon="-2.66432">
        <ele>13.6</ele>
        <time>2026-08-22T12:39:39Z</time>
      </trkpt>
      <trkpt lat="47.62208" lon="-2.66432">
        <ele>13.7</ele>
        <time>2026-08-22T12:39:40Z</time>
      </trkpt>
      <trkpt lat="47.62211" lon="-2.66432">
        <ele>13.9</ele>
        <time>2026-08-22T12:39:41Z</time>
      </trkpt>
      <trkpt lat="47.62214" lon="-2.66432">
        <ele>14</ele>
        <time>2026-08-22T12:39:42Z</time>
      </trkpt>
      <trkpt lat="47.62217" lon="-2.66432">
        <ele>14.2</ele>
        <time>2026-08-22T12:39:43Z</time>
      </trkpt>
      <trkpt lat="47.6222" lon="-2.66433">
        <ele>14.3</ele>
        <time>2026-08-22T12:39:44Z</time>
      </trkpt>
      <trkpt lat="47.62223" lon="-2.66433">
        <ele>14.5</ele>
        <time>2026-08-22T12:39:45Z</time>
      </trkpt>
      <trkpt lat="47.62227" lon="-2.66433">
        <ele>14.8</ele>
        <time>2026-08-22T12:39:46Z</time>
      </trkpt>
      <trkpt lat="47.6223" lon="-2.66433">
        <ele>15</ele>
        <time>2026-08-22T12:39:47Z</time>
      </trkpt>
      <trkpt lat="47.62234" lon="-2.66434">
        <ele>15.2</ele>
        <time>2026-08-22T12:39:48Z</time>
      </trkpt>
      <trkpt lat="47.62237" lon="-2.66434">
        <ele>15.4</ele>
        <time>2026-08-22T12:39:49Z</time>
      </trkpt>
      <trkpt lat="47.62239" lon="-2.66433">
        <ele>15.6</ele>
        <time>2026-08-22T12:39:50Z</time>
      </trkpt>
      <trkpt lat="47.62241" lon="-2.66433">
        <ele>15.8</ele>
        <time>2026-08-22T12:39:51Z</time>
      </trkpt>
      <trkpt lat="47.62244" lon="-2.66432">
        <ele>16</ele>
        <time>2026-08-22T12:39:52Z</time>
      </trkpt>
      <trkpt lat="47.62247" lon="-2.66432">
        <ele>16.2</ele>
        <time>2026-08-22T12:39:53Z</time>
      </trkpt>
      <trkpt lat="47.62249" lon="-2.66432">
        <ele>16.4</ele>
        <time>2026-08-22T12:39:54Z</time>
      </trkpt>
      <trkpt lat="47.62251" lon="-2.66431">
        <ele>16.6</ele>
        <time>2026-08-22T12:39:55Z</time>
      </trkpt>
      <trkpt lat="47.62254" lon="-2.66432">
        <ele>16.7</ele>
        <time>2026-08-22T12:39:56Z</time>
      </trkpt>
      <trkpt lat="47.62256" lon="-2.66432">
        <ele>16.9</ele>
        <time>2026-08-22T12:39:57Z</time>
      </trkpt>
      <trkpt lat="47.62259" lon="-2.66433">
        <ele>17.1</ele>
        <time>2026-08-22T12:39:58Z</time>
      </trkpt>
      <trkpt lat="47.62262" lon="-2.66433">
        <ele>17.3</ele>
        <time>2026-08-22T12:39:59Z</time>
      </trkpt>
      <trkpt lat="47.62265" lon="-2.66434">
        <ele>17.5</ele>
        <time>2026-08-22T12:40:00Z</time>
      </trkpt>
      <trkpt lat="47.62268" lon="-2.66433">
        <ele>17.7</ele>
        <time>2026-08-22T12:40:01Z</time>
      </trkpt>
      <trkpt lat="47.62271" lon="-2.66432">
        <ele>18</ele>
        <time>2026-08-22T12:40:02Z</time>
      </trkpt>
      <trkpt lat="47.62273" lon="-2.66431">
        <ele>18.1</ele>
        <time>2026-08-22T12:40:03Z</time>
      </trkpt>
      <trkpt lat="47.62275" lon="-2.66429">
        <ele>18.4</ele>
        <time>2026-08-22T12:40:04Z</time>
      </trkpt>
      <trkpt lat="47.62277" lon="-2.66426">
        <ele>18.6</ele>
        <time>2026-08-22T12:40:05Z</time>
      </trkpt>
      <trkpt lat="47.62278" lon="-2.66423">
        <ele>18.8</ele>
        <time>2026-08-22T12:40:06Z</time>
      </trkpt>
      <trkpt lat="47.62279" lon="-2.6642">
        <ele>18.8</ele>
        <time>2026-08-22T12:40:07Z</time>
      </trkpt>
      <trkpt lat="47.6228" lon="-2.66417">
        <ele>18.9</ele>
        <time>2026-08-22T12:40:08Z</time>
      </trkpt>
      <trkpt lat="47.62281" lon="-2.66413">
        <ele>18.9</ele>
        <time>2026-08-22T12:40:09Z</time>
      </trkpt>
      <trkpt lat="47.62281" lon="-2.66409">
        <ele>18.9</ele>
        <time>2026-08-22T12:40:10Z</time>
      </trkpt>
      <trkpt lat="47.62282" lon="-2.66405">
        <ele>18.8</ele>
        <time>2026-08-22T12:40:11Z</time>
      </trkpt>
      <trkpt lat="47.62282" lon="-2.66401">
        <ele>18.8</ele>
        <time>2026-08-22T12:40:12Z</time>
      </trkpt>
      <trkpt lat="47.62282" lon="-2.66397">
        <ele>18.8</ele>
        <time>2026-08-22T12:40:13Z</time>
      </trkpt>
      <trkpt lat="47.62283" lon="-2.66392">
        <ele>18.8</ele>
        <time>2026-08-22T12:40:14Z</time>
      </trkpt>
      <trkpt lat="47.62283" lon="-2.66387">
        <ele>18.8</ele>
        <time>2026-08-22T12:40:15Z</time>
      </trkpt>
      <trkpt lat="47.62283" lon="-2.66382">
        <ele>18.6</ele>
        <time>2026-08-22T12:40:16Z</time>
      </trkpt>
      <trkpt lat="47.62283" lon="-2.66377">
        <ele>18.5</ele>
        <time>2026-08-22T12:40:17Z</time>
      </trkpt>
      <trkpt lat="47.62284" lon="-2.66372">
        <ele>18.3</ele>
        <time>2026-08-22T12:40:18Z</time>
      </trkpt>
      <trkpt lat="47.62284" lon="-2.66367">
        <ele>18.2</ele>
        <time>2026-08-22T12:40:19Z</time>
      </trkpt>
      <trkpt lat="47.62285" lon="-2.66361">
        <ele>18</ele>
        <time>2026-08-22T12:40:20Z</time>
      </trkpt>
      <trkpt lat="47.62287" lon="-2.66356">
        <ele>17.8</ele>
        <time>2026-08-22T12:40:21Z</time>
      </trkpt>
      <trkpt lat="47.62289" lon="-2.66351">
        <ele>17.6</ele>
        <time>2026-08-22T12:40:22Z</time>
      </trkpt>
      <trkpt lat="47.6229" lon="-2.66346">
        <ele>17.5</ele>
        <time>2026-08-22T12:40:23Z</time>
      </trkpt>
      <trkpt lat="47.62292" lon="-2.66341">
        <ele>17.3</ele>
        <time>2026-08-22T12:40:24Z</time>
      </trkpt>
      <trkpt lat="47.62294" lon="-2.66336">
        <ele>17.1</ele>
        <time>2026-08-22T12:40:25Z</time>
      </trkpt>
      <trkpt lat="47.62296" lon="-2.66332">
        <ele>17</ele>
        <time>2026-08-22T12:40:26Z</time>
      </trkpt>
      <trkpt lat="47.62298" lon="-2.66327">
        <ele>17</ele>
        <time>2026-08-22T12:40:27Z</time>
      </trkpt>
      <trkpt lat="47.62301" lon="-2.66321">
        <ele>17</ele>
        <time>2026-08-22T12:40:28Z</time>
      </trkpt>
      <trkpt lat="47.62303" lon="-2.66315">
        <ele>17</ele>
        <time>2026-08-22T12:40:29Z</time>
      </trkpt>
      <trkpt lat="47.62305" lon="-2.6631">
        <ele>17</ele>
        <time>2026-08-22T12:40:30Z</time>
      </trkpt>
      <trkpt lat="47.62308" lon="-2.66303">
        <ele>17</ele>
        <time>2026-08-22T12:40:31Z</time>
      </trkpt>
      <trkpt lat="47.6231" lon="-2.66296">
        <ele>16.9</ele>
        <time>2026-08-22T12:40:32Z</time>
      </trkpt>
      <trkpt lat="47.62311" lon="-2.6629">
        <ele>16.7</ele>
        <time>2026-08-22T12:40:33Z</time>
      </trkpt>
      <trkpt lat="47.62313" lon="-2.66282">
        <ele>16.6</ele>
        <time>2026-08-22T12:40:34Z</time>
      </trkpt>
      <trkpt lat="47.62315" lon="-2.66275">
        <ele>16.5</ele>
        <time>2026-08-22T12:40:35Z</time>
      </trkpt>
      <trkpt lat="47.62318" lon="-2.66267">
        <ele>16.2</ele>
        <time>2026-08-22T12:40:36Z</time>
      </trkpt>
      <trkpt lat="47.62322" lon="-2.6626">
        <ele>15.8</ele>
        <time>2026-08-22T12:40:37Z</time>
      </trkpt>
      <trkpt lat="47.62326" lon="-2.66253">
        <ele>15.3</ele>
        <time>2026-08-22T12:40:38Z</time>
      </trkpt>
      <trkpt lat="47.6233" lon="-2.66247">
        <ele>14.8</ele>
        <time>2026-08-22T12:40:39Z</time>
      </trkpt>
      <trkpt lat="47.62334" lon="-2.6624">
        <ele>14.3</ele>
        <time>2026-08-22T12:40:40Z</time>
      </trkpt>
      <trkpt lat="47.62337" lon="-2.66234">
        <ele>14.2</ele>
        <time>2026-08-22T12:40:41Z</time>
      </trkpt>
      <trkpt lat="47.6234" lon="-2.66226">
        <ele>13.8</ele>
        <time>2026-08-22T12:40:42Z</time>
      </trkpt>
      <trkpt lat="47.62342" lon="-2.66218">
        <ele>13.5</ele>
        <time>2026-08-22T12:40:43Z</time>
      </trkpt>
      <trkpt lat="47.62344" lon="-2.6621">
        <ele>13.5</ele>
        <time>2026-08-22T12:40:44Z</time>
      </trkpt>
      <trkpt lat="47.62346" lon="-2.66202">
        <ele>13.5</ele>
        <time>2026-08-22T12:40:45Z</time>
      </trkpt>
      <trkpt lat="47.62348" lon="-2.66194">
        <ele>13.6</ele>
        <time>2026-08-22T12:40:46Z</time>
      </trkpt>
      <trkpt lat="47.6235" lon="-2.66187">
        <ele>13.4</ele>
        <time>2026-08-22T12:40:47Z</time>
      </trkpt>
      <trkpt lat="47.62352" lon="-2.6618">
        <ele>13.3</ele>
        <time>2026-08-22T12:40:48Z</time>
      </trkpt>
      <trkpt lat="47.62354" lon="-2.66172">
        <ele>13.2</ele>
        <time>2026-08-22T12:40:49Z</time>
      </trkpt>
      <trkpt lat="47.62356" lon="-2.66165">
        <ele>13.2</ele>
        <time>2026-08-22T12:40:50Z</time>
      </trkpt>
      <trkpt lat="47.62358" lon="-2.66159">
        <ele>13.2</ele>
        <time>2026-08-22T12:40:51Z</time>
      </trkpt>
      <trkpt lat="47.62359" lon="-2.66154">
        <ele>13.2</ele>
        <time>2026-08-22T12:40:52Z</time>
      </trkpt>
      <trkpt lat="47.62361" lon="-2.66148">
        <ele>13.3</ele>
        <time>2026-08-22T12:40:53Z</time>
      </trkpt>
      <trkpt lat="47.62363" lon="-2.66141">
        <ele>13.1</ele>
        <time>2026-08-22T12:40:54Z</time>
      </trkpt>
      <trkpt lat="47.62365" lon="-2.66135">
        <ele>12.8</ele>
        <time>2026-08-22T12:40:55Z</time>
      </trkpt>
      <trkpt lat="47.62367" lon="-2.66129">
        <ele>12.4</ele>
        <time>2026-08-22T12:40:56Z</time>
      </trkpt>
      <trkpt lat="47.62368" lon="-2.66123">
        <ele>12.1</ele>
        <time>2026-08-22T12:40:57Z</time>
      </trkpt>
      <trkpt lat="47.6237" lon="-2.66118">
        <ele>12</ele>
        <time>2026-08-22T12:40:58Z</time>
      </trkpt>
      <trkpt lat="47.62372" lon="-2.66112">
        <ele>11.8</ele>
        <time>2026-08-22T12:40:59Z</time>
      </trkpt>
      <trkpt lat="47.62374" lon="-2.66106">
        <ele>11.6</ele>
        <time>2026-08-22T12:41:00Z</time>
      </trkpt>
      <trkpt lat="47.62376" lon="-2.661">
        <ele>11.5</ele>
        <time>2026-08-22T12:41:01Z</time>
      </trkpt>
      <trkpt lat="47.62379" lon="-2.66095">
        <ele>11.5</ele>
        <time>2026-08-22T12:41:02Z</time>
      </trkpt>
      <trkpt lat="47.62382" lon="-2.6609">
        <ele>11.6</ele>
        <time>2026-08-22T12:41:03Z</time>
      </trkpt>
      <trkpt lat="47.62384" lon="-2.66085">
        <ele>11.5</ele>
        <time>2026-08-22T12:41:04Z</time>
      </trkpt>
      <trkpt lat="47.62388" lon="-2.66081">
        <ele>11.7</ele>
        <time>2026-08-22T12:41:05Z</time>
      </trkpt>
      <trkpt lat="47.62392" lon="-2.66077">
        <ele>11.3</ele>
        <time>2026-08-22T12:41:06Z</time>
      </trkpt>
      <trkpt lat="47.62397" lon="-2.66072">
        <ele>10.9</ele>
        <time>2026-08-22T12:41:07Z</time>
      </trkpt>
      <trkpt lat="47.62401" lon="-2.66069">
        <ele>10.7</ele>
        <time>2026-08-22T12:41:08Z</time>
      </trkpt>
      <trkpt lat="47.62407" lon="-2.66066">
        <ele>10.5</ele>
        <time>2026-08-22T12:41:09Z</time>
      </trkpt>
      <trkpt lat="47.62412" lon="-2.66064">
        <ele>10.5</ele>
        <time>2026-08-22T12:41:10Z</time>
      </trkpt>
      <trkpt lat="47.62418" lon="-2.66063">
        <ele>10.5</ele>
        <time>2026-08-22T12:41:11Z</time>
      </trkpt>
      <trkpt lat="47.62424" lon="-2.66062">
        <ele>10.3</ele>
        <time>2026-08-22T12:41:12Z</time>
      </trkpt>
      <trkpt lat="47.6243" lon="-2.66062">
        <ele>10.1</ele>
        <time>2026-08-22T12:41:13Z</time>
      </trkpt>
      <trkpt lat="47.62435" lon="-2.66062">
        <ele>10</ele>
        <time>2026-08-22T12:41:14Z</time>
      </trkpt>
      <trkpt lat="47.62441" lon="-2.66063">
        <ele>9.9</ele>
        <time>2026-08-22T12:41:15Z</time>
      </trkpt>
      <trkpt lat="47.62447" lon="-2.66063">
        <ele>9.8</ele>
        <time>2026-08-22T12:41:16Z</time>
      </trkpt>
      <trkpt lat="47.62453" lon="-2.66063">
        <ele>9.6</ele>
        <time>2026-08-22T12:41:17Z</time>
      </trkpt>
      <trkpt lat="47.62459" lon="-2.66062">
        <ele>9.5</ele>
        <time>2026-08-22T12:41:18Z</time>
      </trkpt>
      <trkpt lat="47.62464" lon="-2.66061">
        <ele>9.3</ele>
        <time>2026-08-22T12:41:19Z</time>
      </trkpt>
      <trkpt lat="47.6247" lon="-2.6606">
        <ele>9.2</ele>
        <time>2026-08-22T12:41:20Z</time>
      </trkpt>
      <trkpt lat="47.62475" lon="-2.66058">
        <ele>9</ele>
        <time>2026-08-22T12:41:21Z</time>
      </trkpt>
      <trkpt lat="47.62479" lon="-2.66053">
        <ele>8.5</ele>
        <time>2026-08-22T12:41:22Z</time>
      </trkpt>
      <trkpt lat="47.62483" lon="-2.66047">
        <ele>7.8</ele>
        <time>2026-08-22T12:41:23Z</time>
      </trkpt>
      <trkpt lat="47.62485" lon="-2.66039">
        <ele>7</ele>
        <time>2026-08-22T12:41:24Z</time>
      </trkpt>
      <trkpt lat="47.62487" lon="-2.6603">
        <ele>6.2</ele>
        <time>2026-08-22T12:41:25Z</time>
      </trkpt>
      <trkpt lat="47.62488" lon="-2.6602">
        <ele>5.4</ele>
        <time>2026-08-22T12:41:26Z</time>
      </trkpt>
      <trkpt lat="47.6249" lon="-2.66012">
        <ele>4.9</ele>
        <time>2026-08-22T12:41:27Z</time>
      </trkpt>
      <trkpt lat="47.62492" lon="-2.66006">
        <ele>4.4</ele>
        <time>2026-08-22T12:41:28Z</time>
      </trkpt>
      <trkpt lat="47.62495" lon="-2.66001">
        <ele>4.1</ele>
        <time>2026-08-22T12:41:29Z</time>
      </trkpt>
      <trkpt lat="47.62499" lon="-2.65998">
        <ele>4.1</ele>
        <time>2026-08-22T12:41:30Z</time>
      </trkpt>
      <trkpt lat="47.62503" lon="-2.65996">
        <ele>4.1</ele>
        <time>2026-08-22T12:41:31Z</time>
      </trkpt>
      <trkpt lat="47.62507" lon="-2.65996">
        <ele>3.9</ele>
        <time>2026-08-22T12:41:32Z</time>
      </trkpt>
      <trkpt lat="47.62511" lon="-2.65996">
        <ele>3.8</ele>
        <time>2026-08-22T12:41:33Z</time>
      </trkpt>
      <trkpt lat="47.62515" lon="-2.65997">
        <ele>3.6</ele>
        <time>2026-08-22T12:41:34Z</time>
      </trkpt>
      <trkpt lat="47.62519" lon="-2.65997">
        <ele>3.5</ele>
        <time>2026-08-22T12:41:35Z</time>
      </trkpt>
      <trkpt lat="47.62523" lon="-2.65998">
        <ele>3.3</ele>
        <time>2026-08-22T12:41:36Z</time>
      </trkpt>
      <trkpt lat="47.62527" lon="-2.66">
        <ele>3</ele>
        <time>2026-08-22T12:41:37Z</time>
      </trkpt>
      <trkpt lat="47.62531" lon="-2.66002">
        <ele>3.1</ele>
        <time>2026-08-22T12:41:38Z</time>
      </trkpt>
      <trkpt lat="47.62535" lon="-2.66005">
        <ele>3.3</ele>
        <time>2026-08-22T12:41:39Z</time>
      </trkpt>
      <trkpt lat="47.62539" lon="-2.66008">
        <ele>3.5</ele>
        <time>2026-08-22T12:41:40Z</time>
      </trkpt>
      <trkpt lat="47.62543" lon="-2.6601">
        <ele>3.5</ele>
        <time>2026-08-22T12:41:41Z</time>
      </trkpt>
      <trkpt lat="47.62546" lon="-2.66012">
        <ele>3.6</ele>
        <time>2026-08-22T12:41:42Z</time>
      </trkpt>
      <trkpt lat="47.6255" lon="-2.66014">
        <ele>3.6</ele>
        <time>2026-08-22T12:41:43Z</time>
      </trkpt>
      <trkpt lat="47.62554" lon="-2.66015">
        <ele>3.6</ele>
        <time>2026-08-22T12:41:44Z</time>
      </trkpt>
      <trkpt lat="47.62559" lon="-2.66016">
        <ele>3.6</ele>
        <time>2026-08-22T12:41:45Z</time>
      </trkpt>
      <trkpt lat="47.62563" lon="-2.66017">
        <ele>3.6</ele>
        <time>2026-08-22T12:41:46Z</time>
      </trkpt>
      <trkpt lat="47.62567" lon="-2.66017">
        <ele>3.6</ele>
        <time>2026-08-22T12:41:47Z</time>
      </trkpt>
      <trkpt lat="47.62572" lon="-2.66017">
        <ele>3.6</ele>
        <time>2026-08-22T12:41:48Z</time>
      </trkpt>
      <trkpt lat="47.62576" lon="-2.66017">
        <ele>3.6</ele>
        <time>2026-08-22T12:41:49Z</time>
      </trkpt>
      <trkpt lat="47.6258" lon="-2.66016">
        <ele>3.6</ele>
        <time>2026-08-22T12:41:50Z</time>
      </trkpt>
      <trkpt lat="47.62585" lon="-2.66015">
        <ele>3.5</ele>
        <time>2026-08-22T12:41:51Z</time>
      </trkpt>
      <trkpt lat="47.62589" lon="-2.66014">
        <ele>3.5</ele>
        <time>2026-08-22T12:41:52Z</time>
      </trkpt>
      <trkpt lat="47.62593" lon="-2.66013">
        <ele>3.5</ele>
        <time>2026-08-22T12:41:53Z</time>
      </trkpt>
      <trkpt lat="47.62597" lon="-2.66012">
        <ele>3.4</ele>
        <time>2026-08-22T12:41:54Z</time>
      </trkpt>
      <trkpt lat="47.62601" lon="-2.6601">
        <ele>3.4</ele>
        <time>2026-08-22T12:41:55Z</time>
      </trkpt>
      <trkpt lat="47.62605" lon="-2.66009">
        <ele>3.3</ele>
        <time>2026-08-22T12:41:56Z</time>
      </trkpt>
      <trkpt lat="47.62608" lon="-2.66007">
        <ele>3.3</ele>
        <time>2026-08-22T12:41:57Z</time>
      </trkpt>
      <trkpt lat="47.62612" lon="-2.66006">
        <ele>3.2</ele>
        <time>2026-08-22T12:41:58Z</time>
      </trkpt>
      <trkpt lat="47.62616" lon="-2.66004">
        <ele>3.1</ele>
        <time>2026-08-22T12:41:59Z</time>
      </trkpt>
      <trkpt lat="47.6262" lon="-2.66002">
        <ele>3</ele>
        <time>2026-08-22T12:42:00Z</time>
      </trkpt>
      <trkpt lat="47.62624" lon="-2.66">
        <ele>3</ele>
        <time>2026-08-22T12:42:01Z</time>
      </trkpt>
      <trkpt lat="47.62628" lon="-2.65998">
        <ele>3.1</ele>
        <time>2026-08-22T12:42:02Z</time>
      </trkpt>
      <trkpt lat="47.62632" lon="-2.65996">
        <ele>3.2</ele>
        <time>2026-08-22T12:42:03Z</time>
      </trkpt>
      <trkpt lat="47.62635" lon="-2.65993">
        <ele>3.3</ele>
        <time>2026-08-22T12:42:04Z</time>
      </trkpt>
      <trkpt lat="47.62639" lon="-2.65991">
        <ele>3.3</ele>
        <time>2026-08-22T12:42:05Z</time>
      </trkpt>
      <trkpt lat="47.62642" lon="-2.65988">
        <ele>3.4</ele>
        <time>2026-08-22T12:42:06Z</time>
      </trkpt>
      <trkpt lat="47.62646" lon="-2.65986">
        <ele>3.4</ele>
        <time>2026-08-22T12:42:07Z</time>
      </trkpt>
      <trkpt lat="47.6265" lon="-2.65984">
        <ele>3.3</ele>
        <time>2026-08-22T12:42:08Z</time>
      </trkpt>
      <trkpt lat="47.62653" lon="-2.65982">
        <ele>3.3</ele>
        <time>2026-08-22T12:42:09Z</time>
      </trkpt>
      <trkpt lat="47.62657" lon="-2.65979">
        <ele>3.3</ele>
        <time>2026-08-22T12:42:10Z</time>
      </trkpt>
      <trkpt lat="47.62661" lon="-2.65976">
        <ele>3.2</ele>
        <time>2026-08-22T12:42:11Z</time>
      </trkpt>
      <trkpt lat="47.62666" lon="-2.65973">
        <ele>3</ele>
        <time>2026-08-22T12:42:12Z</time>
      </trkpt>
      <trkpt lat="47.6267" lon="-2.65972">
        <ele>3</ele>
        <time>2026-08-22T12:42:13Z</time>
      </trkpt>
      <trkpt lat="47.62675" lon="-2.65972">
        <ele>3</ele>
        <time>2026-08-22T12:42:14Z</time>
      </trkpt>
      <trkpt lat="47.62679" lon="-2.65971">
        <ele>3</ele>
        <time>2026-08-22T12:42:15Z</time>
      </trkpt>
      <trkpt lat="47.62684" lon="-2.65971">
        <ele>3</ele>
        <time>2026-08-22T12:42:16Z</time>
      </trkpt>
      <trkpt lat="47.62688" lon="-2.65972">
        <ele>3</ele>
        <time>2026-08-22T12:42:17Z</time>
      </trkpt>
      <trkpt lat="47.62693" lon="-2.65973">
        <ele>3</ele>
        <time>2026-08-22T12:42:18Z</time>
      </trkpt>
      <trkpt lat="47.62697" lon="-2.65974">
        <ele>3.2</ele>
        <time>2026-08-22T12:42:19Z</time>
      </trkpt>
      <trkpt lat="47.62701" lon="-2.65975">
        <ele>3.3</ele>
        <time>2026-08-22T12:42:20Z</time>
      </trkpt>
      <trkpt lat="47.62705" lon="-2.65976">
        <ele>3.5</ele>
        <time>2026-08-22T12:42:21Z</time>
      </trkpt>
      <trkpt lat="47.6271" lon="-2.65978">
        <ele>3.7</ele>
        <time>2026-08-22T12:42:22Z</time>
      </trkpt>
      <trkpt lat="47.62714" lon="-2.65979">
        <ele>3.8</ele>
        <time>2026-08-22T12:42:23Z</time>
      </trkpt>
      <trkpt lat="47.62718" lon="-2.65981">
        <ele>3.9</ele>
        <time>2026-08-22T12:42:24Z</time>
      </trkpt>
      <trkpt lat="47.62722" lon="-2.65982">
        <ele>4</ele>
        <time>2026-08-22T12:42:25Z</time>
      </trkpt>
      <trkpt lat="47.62726" lon="-2.65983">
        <ele>4</ele>
        <time>2026-08-22T12:42:26Z</time>
      </trkpt>
      <trkpt lat="47.6273" lon="-2.65983">
        <ele>4</ele>
        <time>2026-08-22T12:42:27Z</time>
      </trkpt>
      <trkpt lat="47.62734" lon="-2.65984">
        <ele>4</ele>
        <time>2026-08-22T12:42:28Z</time>
      </trkpt>
      <trkpt lat="47.62738" lon="-2.65985">
        <ele>4</ele>
        <time>2026-08-22T12:42:29Z</time>
      </trkpt>
      <trkpt lat="47.62745" lon="-2.65986">
        <ele>4</ele>
        <time>2026-08-22T12:42:30Z</time>
      </trkpt>
      <trkpt lat="47.62748" lon="-2.65987">
        <ele>4</ele>
        <time>2026-08-22T12:42:31Z</time>
      </trkpt>
      <trkpt lat="47.62752" lon="-2.65989">
        <ele>4</ele>
        <time>2026-08-22T12:42:32Z</time>
      </trkpt>
      <trkpt lat="47.62755" lon="-2.6599">
        <ele>4</ele>
        <time>2026-08-22T12:42:33Z</time>
      </trkpt>
      <trkpt lat="47.62759" lon="-2.65992">
        <ele>4</ele>
        <time>2026-08-22T12:42:34Z</time>
      </trkpt>
      <trkpt lat="47.62764" lon="-2.65994">
        <ele>4</ele>
        <time>2026-08-22T12:42:35Z</time>
      </trkpt>
      <trkpt lat="47.62768" lon="-2.65997">
        <ele>4</ele>
        <time>2026-08-22T12:42:36Z</time>
      </trkpt>
      <trkpt lat="47.62772" lon="-2.65999">
        <ele>4</ele>
        <time>2026-08-22T12:42:37Z</time>
      </trkpt>
      <trkpt lat="47.62776" lon="-2.66">
        <ele>4</ele>
        <time>2026-08-22T12:42:38Z</time>
      </trkpt>
      <trkpt lat="47.6278" lon="-2.66001">
        <ele>4.1</ele>
        <time>2026-08-22T12:42:39Z</time>
      </trkpt>
      <trkpt lat="47.62783" lon="-2.66002">
        <ele>4.2</ele>
        <time>2026-08-22T12:42:40Z</time>
      </trkpt>
      <trkpt lat="47.62787" lon="-2.66003">
        <ele>4.3</ele>
        <time>2026-08-22T12:42:41Z</time>
      </trkpt>
      <trkpt lat="47.62789" lon="-2.66003">
        <ele>4.4</ele>
        <time>2026-08-22T12:42:42Z</time>
      </trkpt>
      <trkpt lat="47.62792" lon="-2.66004">
        <ele>4.5</ele>
        <time>2026-08-22T12:42:43Z</time>
      </trkpt>
      <trkpt lat="47.62794" lon="-2.66004">
        <ele>4.6</ele>
        <time>2026-08-22T12:42:44Z</time>
      </trkpt>
      <trkpt lat="47.62796" lon="-2.66004">
        <ele>4.7</ele>
        <time>2026-08-22T12:42:45Z</time>
      </trkpt>
      <trkpt lat="47.62798" lon="-2.66005">
        <ele>4.7</ele>
        <time>2026-08-22T12:42:46Z</time>
      </trkpt>
      <trkpt lat="47.62799" lon="-2.66005">
        <ele>4.8</ele>
        <time>2026-08-22T12:42:47Z</time>
      </trkpt>
      <trkpt lat="47.628" lon="-2.66005">
        <ele>4.8</ele>
        <time>2026-08-22T12:42:48Z</time>
      </trkpt>
      <trkpt lat="47.62802" lon="-2.66005">
        <ele>4.9</ele>
        <time>2026-08-22T12:42:49Z</time>
      </trkpt>
      <trkpt lat="47.62804" lon="-2.66005">
        <ele>4.9</ele>
        <time>2026-08-22T12:42:50Z</time>
      </trkpt>
      <trkpt lat="47.62806" lon="-2.66004">
        <ele>5</ele>
        <time>2026-08-22T12:42:51Z</time>
      </trkpt>
      <trkpt lat="47.62808" lon="-2.66003">
        <ele>5</ele>
        <time>2026-08-22T12:42:52Z</time>
      </trkpt>
      <trkpt lat="47.62811" lon="-2.66002">
        <ele>5</ele>
        <time>2026-08-22T12:42:53Z</time>
      </trkpt>
      <trkpt lat="47.62814" lon="-2.66001">
        <ele>5</ele>
        <time>2026-08-22T12:42:54Z</time>
      </trkpt>
      <trkpt lat="47.62816" lon="-2.65999">
        <ele>5</ele>
        <time>2026-08-22T12:42:55Z</time>
      </trkpt>
      <trkpt lat="47.62819" lon="-2.65998">
        <ele>5</ele>
        <time>2026-08-22T12:42:56Z</time>
      </trkpt>
      <trkpt lat="47.62822" lon="-2.65995">
        <ele>5</ele>
        <time>2026-08-22T12:42:57Z</time>
      </trkpt>
      <trkpt lat="47.62825" lon="-2.65993">
        <ele>5</ele>
        <time>2026-08-22T12:42:58Z</time>
      </trkpt>
      <trkpt lat="47.62828" lon="-2.6599">
        <ele>5</ele>
        <time>2026-08-22T12:42:59Z</time>
      </trkpt>
      <trkpt lat="47.62832" lon="-2.65987">
        <ele>5</ele>
        <time>2026-08-22T12:43:00Z</time>
      </trkpt>
      <trkpt lat="47.62835" lon="-2.65984">
        <ele>5</ele>
        <time>2026-08-22T12:43:01Z</time>
      </trkpt>
      <trkpt lat="47.62839" lon="-2.65982">
        <ele>5</ele>
        <time>2026-08-22T12:43:02Z</time>
      </trkpt>
      <trkpt lat="47.62842" lon="-2.65979">
        <ele>5</ele>
        <time>2026-08-22T12:43:03Z</time>
      </trkpt>
      <trkpt lat="47.62846" lon="-2.65976">
        <ele>5</ele>
        <time>2026-08-22T12:43:04Z</time>
      </trkpt>
      <trkpt lat="47.62849" lon="-2.65973">
        <ele>5</ele>
        <time>2026-08-22T12:43:05Z</time>
      </trkpt>
      <trkpt lat="47.62852" lon="-2.65971">
        <ele>5</ele>
        <time>2026-08-22T12:43:06Z</time>
      </trkpt>
      <trkpt lat="47.62855" lon="-2.65968">
        <ele>5</ele>
        <time>2026-08-22T12:43:07Z</time>
      </trkpt>
      <trkpt lat="47.62858" lon="-2.65966">
        <ele>5</ele>
        <time>2026-08-22T12:43:08Z</time>
      </trkpt>
      <trkpt lat="47.62861" lon="-2.65963">
        <ele>5</ele>
        <time>2026-08-22T12:43:09Z</time>
      </trkpt>
      <trkpt lat="47.62864" lon="-2.65961">
        <ele>5</ele>
        <time>2026-08-22T12:43:10Z</time>
      </trkpt>
      <trkpt lat="47.62868" lon="-2.65958">
        <ele>5</ele>
        <time>2026-08-22T12:43:11Z</time>
      </trkpt>
      <trkpt lat="47.62871" lon="-2.65955">
        <ele>5</ele>
        <time>2026-08-22T12:43:12Z</time>
      </trkpt>
      <trkpt lat="47.62874" lon="-2.65953">
        <ele>5</ele>
        <time>2026-08-22T12:43:13Z</time>
      </trkpt>
      <trkpt lat="47.62877" lon="-2.6595">
        <ele>5</ele>
        <time>2026-08-22T12:43:14Z</time>
      </trkpt>
      <trkpt lat="47.62881" lon="-2.65948">
        <ele>5</ele>
        <time>2026-08-22T12:43:15Z</time>
      </trkpt>
      <trkpt lat="47.62884" lon="-2.65945">
        <ele>5</ele>
        <time>2026-08-22T12:43:16Z</time>
      </trkpt>
      <trkpt lat="47.62887" lon="-2.65942">
        <ele>5</ele>
        <time>2026-08-22T12:43:17Z</time>
      </trkpt>
      <trkpt lat="47.62891" lon="-2.6594">
        <ele>5.1</ele>
        <time>2026-08-22T12:43:18Z</time>
      </trkpt>
      <trkpt lat="47.62894" lon="-2.65937">
        <ele>5.2</ele>
        <time>2026-08-22T12:43:19Z</time>
      </trkpt>
      <trkpt lat="47.62897" lon="-2.65934">
        <ele>5.3</ele>
        <time>2026-08-22T12:43:20Z</time>
      </trkpt>
      <trkpt lat="47.629" lon="-2.65932">
        <ele>5.4</ele>
        <time>2026-08-22T12:43:21Z</time>
      </trkpt>
      <trkpt lat="47.62903" lon="-2.65929">
        <ele>5.5</ele>
        <time>2026-08-22T12:43:22Z</time>
      </trkpt>
      <trkpt lat="47.62907" lon="-2.65927">
        <ele>5.7</ele>
        <time>2026-08-22T12:43:23Z</time>
      </trkpt>
      <trkpt lat="47.6291" lon="-2.65925">
        <ele>5.8</ele>
        <time>2026-08-22T12:43:24Z</time>
      </trkpt>
      <trkpt lat="47.62914" lon="-2.65923">
        <ele>5.9</ele>
        <time>2026-08-22T12:43:25Z</time>
      </trkpt>
      <trkpt lat="47.62917" lon="-2.6592">
        <ele>6</ele>
        <time>2026-08-22T12:43:26Z</time>
      </trkpt>
      <trkpt lat="47.6292" lon="-2.65918">
        <ele>6</ele>
        <time>2026-08-22T12:43:27Z</time>
      </trkpt>
      <trkpt lat="47.62923" lon="-2.65915">
        <ele>6</ele>
        <time>2026-08-22T12:43:28Z</time>
      </trkpt>
      <trkpt lat="47.62926" lon="-2.65912">
        <ele>6</ele>
        <time>2026-08-22T12:43:29Z</time>
      </trkpt>
      <trkpt lat="47.62929" lon="-2.6591">
        <ele>6</ele>
        <time>2026-08-22T12:43:30Z</time>
      </trkpt>
      <trkpt lat="47.62933" lon="-2.65907">
        <ele>6</ele>
        <time>2026-08-22T12:43:31Z</time>
      </trkpt>
      <trkpt lat="47.62936" lon="-2.65905">
        <ele>6</ele>
        <time>2026-08-22T12:43:32Z</time>
      </trkpt>
      <trkpt lat="47.62939" lon="-2.65902">
        <ele>6</ele>
        <time>2026-08-22T12:43:33Z</time>
      </trkpt>
      <trkpt lat="47.62943" lon="-2.659">
        <ele>6</ele>
        <time>2026-08-22T12:43:34Z</time>
      </trkpt>
      <trkpt lat="47.62946" lon="-2.65897">
        <ele>6</ele>
        <time>2026-08-22T12:43:35Z</time>
      </trkpt>
      <trkpt lat="47.62949" lon="-2.65895">
        <ele>6</ele>
        <time>2026-08-22T12:43:36Z</time>
      </trkpt>
      <trkpt lat="47.62952" lon="-2.65893">
        <ele>6</ele>
        <time>2026-08-22T12:43:37Z</time>
      </trkpt>
      <trkpt lat="47.62956" lon="-2.6589">
        <ele>6</ele>
        <time>2026-08-22T12:43:38Z</time>
      </trkpt>
      <trkpt lat="47.62959" lon="-2.65887">
        <ele>6</ele>
        <time>2026-08-22T12:43:39Z</time>
      </trkpt>
      <trkpt lat="47.62962" lon="-2.65885">
        <ele>6</ele>
        <time>2026-08-22T12:43:40Z</time>
      </trkpt>
      <trkpt lat="47.62965" lon="-2.65882">
        <ele>6</ele>
        <time>2026-08-22T12:43:41Z</time>
      </trkpt>
      <trkpt lat="47.62969" lon="-2.6588">
        <ele>6</ele>
        <time>2026-08-22T12:43:42Z</time>
      </trkpt>
      <trkpt lat="47.62972" lon="-2.65878">
        <ele>6</ele>
        <time>2026-08-22T12:43:43Z</time>
      </trkpt>
      <trkpt lat="47.62975" lon="-2.65875">
        <ele>6</ele>
        <time>2026-08-22T12:43:44Z</time>
      </trkpt>
      <trkpt lat="47.62979" lon="-2.65873">
        <ele>6</ele>
        <time>2026-08-22T12:43:45Z</time>
      </trkpt>
      <trkpt lat="47.62982" lon="-2.65871">
        <ele>6</ele>
        <time>2026-08-22T12:43:46Z</time>
      </trkpt>
      <trkpt lat="47.62985" lon="-2.65868">
        <ele>6</ele>
        <time>2026-08-22T12:43:47Z</time>
      </trkpt>
      <trkpt lat="47.62988" lon="-2.65866">
        <ele>6</ele>
        <time>2026-08-22T12:43:48Z</time>
      </trkpt>
      <trkpt lat="47.62992" lon="-2.65863">
        <ele>6</ele>
        <time>2026-08-22T12:43:49Z</time>
      </trkpt>
      <trkpt lat="47.62995" lon="-2.65861">
        <ele>6</ele>
        <time>2026-08-22T12:43:50Z</time>
      </trkpt>
      <trkpt lat="47.62998" lon="-2.65859">
        <ele>6.1</ele>
        <time>2026-08-22T12:43:51Z</time>
      </trkpt>
      <trkpt lat="47.63001" lon="-2.65856">
        <ele>6.2</ele>
        <time>2026-08-22T12:43:52Z</time>
      </trkpt>
      <trkpt lat="47.63005" lon="-2.65854">
        <ele>6.4</ele>
        <time>2026-08-22T12:43:53Z</time>
      </trkpt>
      <trkpt lat="47.63008" lon="-2.65851">
        <ele>6.5</ele>
        <time>2026-08-22T12:43:54Z</time>
      </trkpt>
      <trkpt lat="47.63011" lon="-2.65849">
        <ele>6.7</ele>
        <time>2026-08-22T12:43:55Z</time>
      </trkpt>
      <trkpt lat="47.63014" lon="-2.65846">
        <ele>6.8</ele>
        <time>2026-08-22T12:43:56Z</time>
      </trkpt>
      <trkpt lat="47.63018" lon="-2.65844">
        <ele>6.9</ele>
        <time>2026-08-22T12:43:57Z</time>
      </trkpt>
      <trkpt lat="47.63021" lon="-2.65841">
        <ele>6.9</ele>
        <time>2026-08-22T12:43:58Z</time>
      </trkpt>
      <trkpt lat="47.63024" lon="-2.65839">
        <ele>7</ele>
        <time>2026-08-22T12:43:59Z</time>
      </trkpt>
      <trkpt lat="47.63027" lon="-2.65836">
        <ele>7</ele>
        <time>2026-08-22T12:44:00Z</time>
      </trkpt>
      <trkpt lat="47.6303" lon="-2.65834">
        <ele>7</ele>
        <time>2026-08-22T12:44:01Z</time>
      </trkpt>
      <trkpt lat="47.63033" lon="-2.65832">
        <ele>7</ele>
        <time>2026-08-22T12:44:02Z</time>
      </trkpt>
      <trkpt lat="47.63036" lon="-2.65829">
        <ele>7</ele>
        <time>2026-08-22T12:44:03Z</time>
      </trkpt>
      <trkpt lat="47.63039" lon="-2.65826">
        <ele>7.1</ele>
        <time>2026-08-22T12:44:04Z</time>
      </trkpt>
      <trkpt lat="47.63042" lon="-2.65824">
        <ele>7.2</ele>
        <time>2026-08-22T12:44:05Z</time>
      </trkpt>
      <trkpt lat="47.63046" lon="-2.65821">
        <ele>7.3</ele>
        <time>2026-08-22T12:44:06Z</time>
      </trkpt>
      <trkpt lat="47.63049" lon="-2.65819">
        <ele>7.4</ele>
        <time>2026-08-22T12:44:07Z</time>
      </trkpt>
      <trkpt lat="47.63052" lon="-2.65818">
        <ele>7.5</ele>
        <time>2026-08-22T12:44:08Z</time>
      </trkpt>
      <trkpt lat="47.63055" lon="-2.65816">
        <ele>7.6</ele>
        <time>2026-08-22T12:44:09Z</time>
      </trkpt>
      <trkpt lat="47.63058" lon="-2.65815">
        <ele>7.7</ele>
        <time>2026-08-22T12:44:10Z</time>
      </trkpt>
      <trkpt lat="47.6306" lon="-2.65815">
        <ele>7.7</ele>
        <time>2026-08-22T12:44:11Z</time>
      </trkpt>
      <trkpt lat="47.63062" lon="-2.65816">
        <ele>7.7</ele>
        <time>2026-08-22T12:44:12Z</time>
      </trkpt>
      <trkpt lat="47.63064" lon="-2.65819">
        <ele>7.7</ele>
        <time>2026-08-22T12:44:13Z</time>
      </trkpt>
      <trkpt lat="47.63066" lon="-2.65822">
        <ele>7.6</ele>
        <time>2026-08-22T12:44:14Z</time>
      </trkpt>
      <trkpt lat="47.63067" lon="-2.65825">
        <ele>7.6</ele>
        <time>2026-08-22T12:44:15Z</time>
      </trkpt>
      <trkpt lat="47.63068" lon="-2.65828">
        <ele>7.6</ele>
        <time>2026-08-22T12:44:16Z</time>
      </trkpt>
      <trkpt lat="47.6307" lon="-2.65831">
        <ele>7.6</ele>
        <time>2026-08-22T12:44:17Z</time>
      </trkpt>
      <trkpt lat="47.63071" lon="-2.65834">
        <ele>7.6</ele>
        <time>2026-08-22T12:44:18Z</time>
      </trkpt>
      <trkpt lat="47.63072" lon="-2.65837">
        <ele>7.6</ele>
        <time>2026-08-22T12:44:19Z</time>
      </trkpt>
      <trkpt lat="47.63074" lon="-2.65839">
        <ele>7.7</ele>
        <time>2026-08-22T12:44:20Z</time>
      </trkpt>
      <trkpt lat="47.63076" lon="-2.65839">
        <ele>7.7</ele>
        <time>2026-08-22T12:44:21Z</time>
      </trkpt>
      <trkpt lat="47.63077" lon="-2.65837">
        <ele>7.8</ele>
        <time>2026-08-22T12:44:22Z</time>
      </trkpt>
      <trkpt lat="47.6308" lon="-2.65835">
        <ele>7.9</ele>
        <time>2026-08-22T12:44:23Z</time>
      </trkpt>
      <trkpt lat="47.63082" lon="-2.65833">
        <ele>8</ele>
        <time>2026-08-22T12:44:24Z</time>
      </trkpt>
      <trkpt lat="47.63085" lon="-2.65833">
        <ele>8</ele>
        <time>2026-08-22T12:44:25Z</time>
      </trkpt>
      <trkpt lat="47.63088" lon="-2.65834">
        <ele>8</ele>
        <time>2026-08-22T12:44:26Z</time>
      </trkpt>
      <trkpt lat="47.6309" lon="-2.65837">
        <ele>8</ele>
        <time>2026-08-22T12:44:27Z</time>
      </trkpt>
      <trkpt lat="47.63092" lon="-2.65841">
        <ele>8</ele>
        <time>2026-08-22T12:44:28Z</time>
      </trkpt>
      <trkpt lat="47.63094" lon="-2.65845">
        <ele>8</ele>
        <time>2026-08-22T12:44:29Z</time>
      </trkpt>
      <trkpt lat="47.63096" lon="-2.65849">
        <ele>8</ele>
        <time>2026-08-22T12:44:30Z</time>
      </trkpt>
      <trkpt lat="47.63098" lon="-2.65853">
        <ele>8</ele>
        <time>2026-08-22T12:44:31Z</time>
      </trkpt>
      <trkpt lat="47.631" lon="-2.65858">
        <ele>8</ele>
        <time>2026-08-22T12:44:32Z</time>
      </trkpt>
      <trkpt lat="47.63102" lon="-2.65862">
        <ele>8</ele>
        <time>2026-08-22T12:44:33Z</time>
      </trkpt>
      <trkpt lat="47.63104" lon="-2.65867">
        <ele>8</ele>
        <time>2026-08-22T12:44:34Z</time>
      </trkpt>
      <trkpt lat="47.63105" lon="-2.65872">
        <ele>8</ele>
        <time>2026-08-22T12:44:35Z</time>
      </trkpt>
      <trkpt lat="47.63107" lon="-2.65877">
        <ele>8</ele>
        <time>2026-08-22T12:44:36Z</time>
      </trkpt>
      <trkpt lat="47.63108" lon="-2.65882">
        <ele>8</ele>
        <time>2026-08-22T12:44:37Z</time>
      </trkpt>
      <trkpt lat="47.63109" lon="-2.65886">
        <ele>8</ele>
        <time>2026-08-22T12:44:38Z</time>
      </trkpt>
      <trkpt lat="47.63111" lon="-2.65892">
        <ele>7.9</ele>
        <time>2026-08-22T12:44:39Z</time>
      </trkpt>
      <trkpt lat="47.63112" lon="-2.65898">
        <ele>7.7</ele>
        <time>2026-08-22T12:44:40Z</time>
      </trkpt>
      <trkpt lat="47.63114" lon="-2.65903">
        <ele>7.5</ele>
        <time>2026-08-22T12:44:41Z</time>
      </trkpt>
      <trkpt lat="47.63116" lon="-2.65909">
        <ele>7.4</ele>
        <time>2026-08-22T12:44:42Z</time>
      </trkpt>
      <trkpt lat="47.63117" lon="-2.65914">
        <ele>7.3</ele>
        <time>2026-08-22T12:44:43Z</time>
      </trkpt>
      <trkpt lat="47.63119" lon="-2.65919">
        <ele>7.3</ele>
        <time>2026-08-22T12:44:44Z</time>
      </trkpt>
      <trkpt lat="47.6312" lon="-2.65924">
        <ele>7.5</ele>
        <time>2026-08-22T12:44:45Z</time>
      </trkpt>
      <trkpt lat="47.63122" lon="-2.65929">
        <ele>7.7</ele>
        <time>2026-08-22T12:44:46Z</time>
      </trkpt>
      <trkpt lat="47.63123" lon="-2.65934">
        <ele>7.8</ele>
        <time>2026-08-22T12:44:47Z</time>
      </trkpt>
      <trkpt lat="47.63124" lon="-2.65939">
        <ele>7.9</ele>
        <time>2026-08-22T12:44:48Z</time>
      </trkpt>
      <trkpt lat="47.63126" lon="-2.65944">
        <ele>8</ele>
        <time>2026-08-22T12:44:49Z</time>
      </trkpt>
      <trkpt lat="47.63128" lon="-2.65949">
        <ele>8</ele>
        <time>2026-08-22T12:44:50Z</time>
      </trkpt>
      <trkpt lat="47.63129" lon="-2.65954">
        <ele>8</ele>
        <time>2026-08-22T12:44:51Z</time>
      </trkpt>
      <trkpt lat="47.63131" lon="-2.65959">
        <ele>8</ele>
        <time>2026-08-22T12:44:52Z</time>
      </trkpt>
      <trkpt lat="47.63133" lon="-2.65965">
        <ele>8</ele>
        <time>2026-08-22T12:44:53Z</time>
      </trkpt>
      <trkpt lat="47.63135" lon="-2.6597">
        <ele>8</ele>
        <time>2026-08-22T12:44:54Z</time>
      </trkpt>
      <trkpt lat="47.63137" lon="-2.65975">
        <ele>8</ele>
        <time>2026-08-22T12:44:55Z</time>
      </trkpt>
      <trkpt lat="47.63138" lon="-2.6598">
        <ele>8</ele>
        <time>2026-08-22T12:44:56Z</time>
      </trkpt>
      <trkpt lat="47.6314" lon="-2.65986">
        <ele>8</ele>
        <time>2026-08-22T12:44:57Z</time>
      </trkpt>
      <trkpt lat="47.63142" lon="-2.65991">
        <ele>8.1</ele>
        <time>2026-08-22T12:44:58Z</time>
      </trkpt>
      <trkpt lat="47.63144" lon="-2.65997">
        <ele>8.2</ele>
        <time>2026-08-22T12:44:59Z</time>
      </trkpt>
      <trkpt lat="47.63145" lon="-2.66003">
        <ele>8.2</ele>
        <time>2026-08-22T12:45:00Z</time>
      </trkpt>
      <trkpt lat="47.63146" lon="-2.66009">
        <ele>8.3</ele>
        <time>2026-08-22T12:45:01Z</time>
      </trkpt>
      <trkpt lat="47.63148" lon="-2.66015">
        <ele>8.3</ele>
        <time>2026-08-22T12:45:02Z</time>
      </trkpt>
      <trkpt lat="47.63149" lon="-2.66021">
        <ele>8.4</ele>
        <time>2026-08-22T12:45:03Z</time>
      </trkpt>
      <trkpt lat="47.63151" lon="-2.66026">
        <ele>8.4</ele>
        <time>2026-08-22T12:45:04Z</time>
      </trkpt>
      <trkpt lat="47.63152" lon="-2.66032">
        <ele>8.4</ele>
        <time>2026-08-22T12:45:05Z</time>
      </trkpt>
      <trkpt lat="47.63154" lon="-2.66038">
        <ele>8.3</ele>
        <time>2026-08-22T12:45:06Z</time>
      </trkpt>
      <trkpt lat="47.63156" lon="-2.66044">
        <ele>8.3</ele>
        <time>2026-08-22T12:45:07Z</time>
      </trkpt>
      <trkpt lat="47.63158" lon="-2.6605">
        <ele>8.1</ele>
        <time>2026-08-22T12:45:08Z</time>
      </trkpt>
      <trkpt lat="47.6316" lon="-2.66055">
        <ele>8</ele>
        <time>2026-08-22T12:45:09Z</time>
      </trkpt>
      <trkpt lat="47.63162" lon="-2.66061">
        <ele>8</ele>
        <time>2026-08-22T12:45:10Z</time>
      </trkpt>
      <trkpt lat="47.63163" lon="-2.66067">
        <ele>8</ele>
        <time>2026-08-22T12:45:11Z</time>
      </trkpt>
      <trkpt lat="47.63165" lon="-2.66073">
        <ele>8</ele>
        <time>2026-08-22T12:45:12Z</time>
      </trkpt>
      <trkpt lat="47.63167" lon="-2.66078">
        <ele>8</ele>
        <time>2026-08-22T12:45:13Z</time>
      </trkpt>
      <trkpt lat="47.63168" lon="-2.66085">
        <ele>8</ele>
        <time>2026-08-22T12:45:14Z</time>
      </trkpt>
      <trkpt lat="47.63169" lon="-2.66091">
        <ele>8.1</ele>
        <time>2026-08-22T12:45:15Z</time>
      </trkpt>
      <trkpt lat="47.63171" lon="-2.66097">
        <ele>8.2</ele>
        <time>2026-08-22T12:45:16Z</time>
      </trkpt>
      <trkpt lat="47.63173" lon="-2.66103">
        <ele>8.2</ele>
        <time>2026-08-22T12:45:17Z</time>
      </trkpt>
      <trkpt lat="47.63174" lon="-2.66109">
        <ele>8.3</ele>
        <time>2026-08-22T12:45:18Z</time>
      </trkpt>
      <trkpt lat="47.63176" lon="-2.66115">
        <ele>8.3</ele>
        <time>2026-08-22T12:45:19Z</time>
      </trkpt>
      <trkpt lat="47.63178" lon="-2.6612">
        <ele>8.3</ele>
        <time>2026-08-22T12:45:20Z</time>
      </trkpt>
      <trkpt lat="47.6318" lon="-2.66126">
        <ele>8.2</ele>
        <time>2026-08-22T12:45:21Z</time>
      </trkpt>
      <trkpt lat="47.63182" lon="-2.66132">
        <ele>8.1</ele>
        <time>2026-08-22T12:45:22Z</time>
      </trkpt>
      <trkpt lat="47.63182" lon="-2.66138">
        <ele>8</ele>
        <time>2026-08-22T12:45:23Z</time>
      </trkpt>
      <trkpt lat="47.63182" lon="-2.66144">
        <ele>8</ele>
        <time>2026-08-22T12:45:24Z</time>
      </trkpt>
      <trkpt lat="47.63182" lon="-2.66151">
        <ele>8</ele>
        <time>2026-08-22T12:45:25Z</time>
      </trkpt>
      <trkpt lat="47.63182" lon="-2.66156">
        <ele>8</ele>
        <time>2026-08-22T12:45:26Z</time>
      </trkpt>
      <trkpt lat="47.63183" lon="-2.66163">
        <ele>8</ele>
        <time>2026-08-22T12:45:27Z</time>
      </trkpt>
      <trkpt lat="47.63184" lon="-2.66169">
        <ele>8</ele>
        <time>2026-08-22T12:45:28Z</time>
      </trkpt>
      <trkpt lat="47.63186" lon="-2.66174">
        <ele>8</ele>
        <time>2026-08-22T12:45:29Z</time>
      </trkpt>
      <trkpt lat="47.63189" lon="-2.66178">
        <ele>8</ele>
        <time>2026-08-22T12:45:30Z</time>
      </trkpt>
      <trkpt lat="47.63191" lon="-2.66182">
        <ele>8</ele>
        <time>2026-08-22T12:45:31Z</time>
      </trkpt>
      <trkpt lat="47.63194" lon="-2.66186">
        <ele>8</ele>
        <time>2026-08-22T12:45:32Z</time>
      </trkpt>
      <trkpt lat="47.63196" lon="-2.6619">
        <ele>8.1</ele>
        <time>2026-08-22T12:45:33Z</time>
      </trkpt>
      <trkpt lat="47.63198" lon="-2.66193">
        <ele>8.1</ele>
        <time>2026-08-22T12:45:34Z</time>
      </trkpt>
      <trkpt lat="47.63201" lon="-2.66196">
        <ele>8.2</ele>
        <time>2026-08-22T12:45:35Z</time>
      </trkpt>
      <trkpt lat="47.63204" lon="-2.66198">
        <ele>8.3</ele>
        <time>2026-08-22T12:45:36Z</time>
      </trkpt>
      <trkpt lat="47.63206" lon="-2.66201">
        <ele>8.4</ele>
        <time>2026-08-22T12:45:37Z</time>
      </trkpt>
      <trkpt lat="47.63207" lon="-2.66204">
        <ele>8.5</ele>
        <time>2026-08-22T12:45:38Z</time>
      </trkpt>
      <trkpt lat="47.63207" lon="-2.66208">
        <ele>8.5</ele>
        <time>2026-08-22T12:45:39Z</time>
      </trkpt>
      <trkpt lat="47.63207" lon="-2.66213">
        <ele>8.5</ele>
        <time>2026-08-22T12:45:40Z</time>
      </trkpt>
      <trkpt lat="47.63206" lon="-2.66217">
        <ele>8.4</ele>
        <time>2026-08-22T12:45:41Z</time>
      </trkpt>
      <trkpt lat="47.63205" lon="-2.66222">
        <ele>8.4</ele>
        <time>2026-08-22T12:45:42Z</time>
      </trkpt>
      <trkpt lat="47.63203" lon="-2.66226">
        <ele>8.3</ele>
        <time>2026-08-22T12:45:43Z</time>
      </trkpt>
      <trkpt lat="47.63201" lon="-2.6623">
        <ele>8.2</ele>
        <time>2026-08-22T12:45:44Z</time>
      </trkpt>
      <trkpt lat="47.632" lon="-2.66235">
        <ele>8.2</ele>
        <time>2026-08-22T12:45:45Z</time>
      </trkpt>
      <trkpt lat="47.63198" lon="-2.6624">
        <ele>8.1</ele>
        <time>2026-08-22T12:45:46Z</time>
      </trkpt>
      <trkpt lat="47.63196" lon="-2.66246">
        <ele>8.1</ele>
        <time>2026-08-22T12:45:47Z</time>
      </trkpt>
      <trkpt lat="47.63194" lon="-2.66252">
        <ele>8</ele>
        <time>2026-08-22T12:45:48Z</time>
      </trkpt>
      <trkpt lat="47.63193" lon="-2.66258">
        <ele>8</ele>
        <time>2026-08-22T12:45:49Z</time>
      </trkpt>
      <trkpt lat="47.63192" lon="-2.66265">
        <ele>8</ele>
        <time>2026-08-22T12:45:50Z</time>
      </trkpt>
      <trkpt lat="47.63191" lon="-2.66271">
        <ele>8</ele>
        <time>2026-08-22T12:45:51Z</time>
      </trkpt>
      <trkpt lat="47.63191" lon="-2.66278">
        <ele>8</ele>
        <time>2026-08-22T12:45:52Z</time>
      </trkpt>
      <trkpt lat="47.63192" lon="-2.66285">
        <ele>8</ele>
        <time>2026-08-22T12:45:53Z</time>
      </trkpt>
      <trkpt lat="47.63193" lon="-2.66291">
        <ele>8</ele>
        <time>2026-08-22T12:45:54Z</time>
      </trkpt>
      <trkpt lat="47.63194" lon="-2.66297">
        <ele>8</ele>
        <time>2026-08-22T12:45:55Z</time>
      </trkpt>
      <trkpt lat="47.63195" lon="-2.66304">
        <ele>8</ele>
        <time>2026-08-22T12:45:56Z</time>
      </trkpt>
      <trkpt lat="47.63195" lon="-2.6631">
        <ele>8</ele>
        <time>2026-08-22T12:45:57Z</time>
      </trkpt>
      <trkpt lat="47.63196" lon="-2.66317">
        <ele>8.1</ele>
        <time>2026-08-22T12:45:58Z</time>
      </trkpt>
      <trkpt lat="47.63197" lon="-2.66323">
        <ele>8.2</ele>
        <time>2026-08-22T12:45:59Z</time>
      </trkpt>
      <trkpt lat="47.63198" lon="-2.66329">
        <ele>8.3</ele>
        <time>2026-08-22T12:46:00Z</time>
      </trkpt>
      <trkpt lat="47.63198" lon="-2.66336">
        <ele>8.3</ele>
        <time>2026-08-22T12:46:01Z</time>
      </trkpt>
      <trkpt lat="47.63199" lon="-2.66342">
        <ele>8.6</ele>
        <time>2026-08-22T12:46:02Z</time>
      </trkpt>
      <trkpt lat="47.632" lon="-2.66349">
        <ele>8.9</ele>
        <time>2026-08-22T12:46:03Z</time>
      </trkpt>
      <trkpt lat="47.63201" lon="-2.66355">
        <ele>9.1</ele>
        <time>2026-08-22T12:46:04Z</time>
      </trkpt>
      <trkpt lat="47.63201" lon="-2.66362">
        <ele>9.2</ele>
        <time>2026-08-22T12:46:05Z</time>
      </trkpt>
      <trkpt lat="47.63202" lon="-2.66368">
        <ele>9.3</ele>
        <time>2026-08-22T12:46:06Z</time>
      </trkpt>
      <trkpt lat="47.63203" lon="-2.66374">
        <ele>9.3</ele>
        <time>2026-08-22T12:46:07Z</time>
      </trkpt>
      <trkpt lat="47.63203" lon="-2.6638">
        <ele>9.3</ele>
        <time>2026-08-22T12:46:08Z</time>
      </trkpt>
      <trkpt lat="47.63203" lon="-2.66387">
        <ele>9.3</ele>
        <time>2026-08-22T12:46:09Z</time>
      </trkpt>
      <trkpt lat="47.63204" lon="-2.66393">
        <ele>9.3</ele>
        <time>2026-08-22T12:46:10Z</time>
      </trkpt>
      <trkpt lat="47.63205" lon="-2.66399">
        <ele>9.4</ele>
        <time>2026-08-22T12:46:11Z</time>
      </trkpt>
      <trkpt lat="47.63206" lon="-2.66405">
        <ele>9.4</ele>
        <time>2026-08-22T12:46:12Z</time>
      </trkpt>
      <trkpt lat="47.63206" lon="-2.66412">
        <ele>9.4</ele>
        <time>2026-08-22T12:46:13Z</time>
      </trkpt>
      <trkpt lat="47.63207" lon="-2.66418">
        <ele>9.5</ele>
        <time>2026-08-22T12:46:14Z</time>
      </trkpt>
      <trkpt lat="47.63207" lon="-2.66424">
        <ele>9.6</ele>
        <time>2026-08-22T12:46:15Z</time>
      </trkpt>
      <trkpt lat="47.63208" lon="-2.6643">
        <ele>9.7</ele>
        <time>2026-08-22T12:46:16Z</time>
      </trkpt>
      <trkpt lat="47.63208" lon="-2.66437">
        <ele>9.9</ele>
        <time>2026-08-22T12:46:17Z</time>
      </trkpt>
      <trkpt lat="47.63208" lon="-2.66443">
        <ele>10</ele>
        <time>2026-08-22T12:46:18Z</time>
      </trkpt>
      <trkpt lat="47.63208" lon="-2.66449">
        <ele>10.1</ele>
        <time>2026-08-22T12:46:19Z</time>
      </trkpt>
      <trkpt lat="47.63208" lon="-2.66454">
        <ele>10.2</ele>
        <time>2026-08-22T12:46:20Z</time>
      </trkpt>
      <trkpt lat="47.63207" lon="-2.6646">
        <ele>10.3</ele>
        <time>2026-08-22T12:46:21Z</time>
      </trkpt>
      <trkpt lat="47.63207" lon="-2.66466">
        <ele>10.4</ele>
        <time>2026-08-22T12:46:22Z</time>
      </trkpt>
      <trkpt lat="47.63207" lon="-2.66472">
        <ele>10.4</ele>
        <time>2026-08-22T12:46:23Z</time>
      </trkpt>
      <trkpt lat="47.63208" lon="-2.66477">
        <ele>10.6</ele>
        <time>2026-08-22T12:46:24Z</time>
      </trkpt>
      <trkpt lat="47.63208" lon="-2.66483">
        <ele>10.7</ele>
        <time>2026-08-22T12:46:25Z</time>
      </trkpt>
      <trkpt lat="47.63209" lon="-2.66489">
        <ele>10.8</ele>
        <time>2026-08-22T12:46:26Z</time>
      </trkpt>
      <trkpt lat="47.63209" lon="-2.66495">
        <ele>10.9</ele>
        <time>2026-08-22T12:46:27Z</time>
      </trkpt>
      <trkpt lat="47.6321" lon="-2.66501">
        <ele>11</ele>
        <time>2026-08-22T12:46:28Z</time>
      </trkpt>
      <trkpt lat="47.6321" lon="-2.66507">
        <ele>11.1</ele>
        <time>2026-08-22T12:46:29Z</time>
      </trkpt>
      <trkpt lat="47.63211" lon="-2.66512">
        <ele>11.3</ele>
        <time>2026-08-22T12:46:30Z</time>
      </trkpt>
      <trkpt lat="47.63213" lon="-2.66518">
        <ele>11.4</ele>
        <time>2026-08-22T12:46:31Z</time>
      </trkpt>
      <trkpt lat="47.63214" lon="-2.66524">
        <ele>11.6</ele>
        <time>2026-08-22T12:46:32Z</time>
      </trkpt>
      <trkpt lat="47.63217" lon="-2.66528">
        <ele>11.8</ele>
        <time>2026-08-22T12:46:33Z</time>
      </trkpt>
      <trkpt lat="47.63219" lon="-2.66532">
        <ele>11.9</ele>
        <time>2026-08-22T12:46:34Z</time>
      </trkpt>
      <trkpt lat="47.63222" lon="-2.66535">
        <ele>12</ele>
        <time>2026-08-22T12:46:35Z</time>
      </trkpt>
      <trkpt lat="47.63224" lon="-2.66539">
        <ele>12.1</ele>
        <time>2026-08-22T12:46:36Z</time>
      </trkpt>
      <trkpt lat="47.63226" lon="-2.66543">
        <ele>12.1</ele>
        <time>2026-08-22T12:46:37Z</time>
      </trkpt>
      <trkpt lat="47.63227" lon="-2.66549">
        <ele>12.2</ele>
        <time>2026-08-22T12:46:38Z</time>
      </trkpt>
      <trkpt lat="47.63228" lon="-2.66554">
        <ele>12.2</ele>
        <time>2026-08-22T12:46:39Z</time>
      </trkpt>
      <trkpt lat="47.63228" lon="-2.6656">
        <ele>12.4</ele>
        <time>2026-08-22T12:46:40Z</time>
      </trkpt>
      <trkpt lat="47.63228" lon="-2.66566">
        <ele>12.6</ele>
        <time>2026-08-22T12:46:41Z</time>
      </trkpt>
      <trkpt lat="47.63228" lon="-2.66572">
        <ele>12.8</ele>
        <time>2026-08-22T12:46:42Z</time>
      </trkpt>
      <trkpt lat="47.63229" lon="-2.66578">
        <ele>13.1</ele>
        <time>2026-08-22T12:46:43Z</time>
      </trkpt>
      <trkpt lat="47.6323" lon="-2.66584">
        <ele>13.3</ele>
        <time>2026-08-22T12:46:44Z</time>
      </trkpt>
      <trkpt lat="47.63232" lon="-2.66589">
        <ele>13.4</ele>
        <time>2026-08-22T12:46:45Z</time>
      </trkpt>
      <trkpt lat="47.63233" lon="-2.66594">
        <ele>13.4</ele>
        <time>2026-08-22T12:46:46Z</time>
      </trkpt>
      <trkpt lat="47.63235" lon="-2.66599">
        <ele>13.5</ele>
        <time>2026-08-22T12:46:47Z</time>
      </trkpt>
      <trkpt lat="47.63236" lon="-2.66605">
        <ele>13.5</ele>
        <time>2026-08-22T12:46:48Z</time>
      </trkpt>
      <trkpt lat="47.63237" lon="-2.66611">
        <ele>13.5</ele>
        <time>2026-08-22T12:46:49Z</time>
      </trkpt>
      <trkpt lat="47.63237" lon="-2.66616">
        <ele>13.5</ele>
        <time>2026-08-22T12:46:50Z</time>
      </trkpt>
      <trkpt lat="47.63236" lon="-2.66621">
        <ele>13.5</ele>
        <time>2026-08-22T12:46:51Z</time>
      </trkpt>
      <trkpt lat="47.63235" lon="-2.66626">
        <ele>13.5</ele>
        <time>2026-08-22T12:46:52Z</time>
      </trkpt>
      <trkpt lat="47.63234" lon="-2.66631">
        <ele>13.4</ele>
        <time>2026-08-22T12:46:53Z</time>
      </trkpt>
      <trkpt lat="47.63234" lon="-2.66637">
        <ele>13.4</ele>
        <time>2026-08-22T12:46:54Z</time>
      </trkpt>
      <trkpt lat="47.63234" lon="-2.66642">
        <ele>13.4</ele>
        <time>2026-08-22T12:46:55Z</time>
      </trkpt>
      <trkpt lat="47.63234" lon="-2.66647">
        <ele>13.4</ele>
        <time>2026-08-22T12:46:56Z</time>
      </trkpt>
      <trkpt lat="47.63235" lon="-2.66652">
        <ele>13.5</ele>
        <time>2026-08-22T12:46:57Z</time>
      </trkpt>
      <trkpt lat="47.63235" lon="-2.66656">
        <ele>13.5</ele>
        <time>2026-08-22T12:46:58Z</time>
      </trkpt>
      <trkpt lat="47.63236" lon="-2.66661">
        <ele>13.5</ele>
        <time>2026-08-22T12:46:59Z</time>
      </trkpt>
      <trkpt lat="47.63237" lon="-2.66666">
        <ele>13.5</ele>
        <time>2026-08-22T12:47:00Z</time>
      </trkpt>
      <trkpt lat="47.63237" lon="-2.66672">
        <ele>13.4</ele>
        <time>2026-08-22T12:47:01Z</time>
      </trkpt>
      <trkpt lat="47.63237" lon="-2.66678">
        <ele>13.3</ele>
        <time>2026-08-22T12:47:02Z</time>
      </trkpt>
      <trkpt lat="47.63237" lon="-2.66685">
        <ele>13.2</ele>
        <time>2026-08-22T12:47:03Z</time>
      </trkpt>
      <trkpt lat="47.63237" lon="-2.66691">
        <ele>13.1</ele>
        <time>2026-08-22T12:47:04Z</time>
      </trkpt>
      <trkpt lat="47.63238" lon="-2.66698">
        <ele>13.1</ele>
        <time>2026-08-22T12:47:05Z</time>
      </trkpt>
      <trkpt lat="47.63238" lon="-2.66704">
        <ele>13.2</ele>
        <time>2026-08-22T12:47:06Z</time>
      </trkpt>
      <trkpt lat="47.63239" lon="-2.6671">
        <ele>13.3</ele>
        <time>2026-08-22T12:47:07Z</time>
      </trkpt>
      <trkpt lat="47.6324" lon="-2.66716">
        <ele>13.5</ele>
        <time>2026-08-22T12:47:08Z</time>
      </trkpt>
      <trkpt lat="47.6324" lon="-2.66722">
        <ele>13.6</ele>
        <time>2026-08-22T12:47:09Z</time>
      </trkpt>
      <trkpt lat="47.63241" lon="-2.66727">
        <ele>13.7</ele>
        <time>2026-08-22T12:47:10Z</time>
      </trkpt>
      <trkpt lat="47.63242" lon="-2.66733">
        <ele>13.7</ele>
        <time>2026-08-22T12:47:11Z</time>
      </trkpt>
      <trkpt lat="47.63243" lon="-2.66739">
        <ele>13.7</ele>
        <time>2026-08-22T12:47:12Z</time>
      </trkpt>
      <trkpt lat="47.63244" lon="-2.66745">
        <ele>13.8</ele>
        <time>2026-08-22T12:47:13Z</time>
      </trkpt>
      <trkpt lat="47.63244" lon="-2.66751">
        <ele>13.8</ele>
        <time>2026-08-22T12:47:14Z</time>
      </trkpt>
      <trkpt lat="47.63244" lon="-2.66757">
        <ele>13.8</ele>
        <time>2026-08-22T12:47:15Z</time>
      </trkpt>
      <trkpt lat="47.63245" lon="-2.66763">
        <ele>13.8</ele>
        <time>2026-08-22T12:47:16Z</time>
      </trkpt>
      <trkpt lat="47.63245" lon="-2.66768">
        <ele>13.8</ele>
        <time>2026-08-22T12:47:17Z</time>
      </trkpt>
      <trkpt lat="47.63246" lon="-2.66773">
        <ele>13.9</ele>
        <time>2026-08-22T12:47:18Z</time>
      </trkpt>
      <trkpt lat="47.63246" lon="-2.66779">
        <ele>13.9</ele>
        <time>2026-08-22T12:47:19Z</time>
      </trkpt>
      <trkpt lat="47.63247" lon="-2.66784">
        <ele>14.1</ele>
        <time>2026-08-22T12:47:20Z</time>
      </trkpt>
      <trkpt lat="47.63247" lon="-2.66789">
        <ele>14.3</ele>
        <time>2026-08-22T12:47:21Z</time>
      </trkpt>
      <trkpt lat="47.63247" lon="-2.66795">
        <ele>14.5</ele>
        <time>2026-08-22T12:47:22Z</time>
      </trkpt>
      <trkpt lat="47.63248" lon="-2.668">
        <ele>14.7</ele>
        <time>2026-08-22T12:47:23Z</time>
      </trkpt>
      <trkpt lat="47.63248" lon="-2.66805">
        <ele>14.9</ele>
        <time>2026-08-22T12:47:24Z</time>
      </trkpt>
      <trkpt lat="47.63248" lon="-2.66811">
        <ele>15.1</ele>
        <time>2026-08-22T12:47:25Z</time>
      </trkpt>
      <trkpt lat="47.63248" lon="-2.66816">
        <ele>15.2</ele>
        <time>2026-08-22T12:47:26Z</time>
      </trkpt>
      <trkpt lat="47.63248" lon="-2.66822">
        <ele>15.4</ele>
        <time>2026-08-22T12:47:27Z</time>
      </trkpt>
      <trkpt lat="47.63249" lon="-2.66827">
        <ele>15.7</ele>
        <time>2026-08-22T12:47:28Z</time>
      </trkpt>
      <trkpt lat="47.63249" lon="-2.66832">
        <ele>15.8</ele>
        <time>2026-08-22T12:47:29Z</time>
      </trkpt>
      <trkpt lat="47.63249" lon="-2.66837">
        <ele>15.8</ele>
        <time>2026-08-22T12:47:30Z</time>
      </trkpt>
      <trkpt lat="47.63249" lon="-2.66843">
        <ele>15.6</ele>
        <time>2026-08-22T12:47:31Z</time>
      </trkpt>
      <trkpt lat="47.63249" lon="-2.66848">
        <ele>15.4</ele>
        <time>2026-08-22T12:47:32Z</time>
      </trkpt>
      <trkpt lat="47.63249" lon="-2.66853">
        <ele>15.2</ele>
        <time>2026-08-22T12:47:33Z</time>
      </trkpt>
      <trkpt lat="47.6325" lon="-2.66859">
        <ele>15.1</ele>
        <time>2026-08-22T12:47:34Z</time>
      </trkpt>
      <trkpt lat="47.6325" lon="-2.66865">
        <ele>15</ele>
        <time>2026-08-22T12:47:35Z</time>
      </trkpt>
      <trkpt lat="47.63251" lon="-2.66871">
        <ele>15.1</ele>
        <time>2026-08-22T12:47:36Z</time>
      </trkpt>
      <trkpt lat="47.63251" lon="-2.66877">
        <ele>15.1</ele>
        <time>2026-08-22T12:47:37Z</time>
      </trkpt>
      <trkpt lat="47.63252" lon="-2.66883">
        <ele>15.2</ele>
        <time>2026-08-22T12:47:38Z</time>
      </trkpt>
      <trkpt lat="47.63252" lon="-2.66889">
        <ele>15.2</ele>
        <time>2026-08-22T12:47:39Z</time>
      </trkpt>
      <trkpt lat="47.63253" lon="-2.66894">
        <ele>15.3</ele>
        <time>2026-08-22T12:47:40Z</time>
      </trkpt>
      <trkpt lat="47.63254" lon="-2.66899">
        <ele>15.3</ele>
        <time>2026-08-22T12:47:41Z</time>
      </trkpt>
      <trkpt lat="47.63255" lon="-2.66904">
        <ele>15.3</ele>
        <time>2026-08-22T12:47:42Z</time>
      </trkpt>
      <trkpt lat="47.63257" lon="-2.66908">
        <ele>15.4</ele>
        <time>2026-08-22T12:47:43Z</time>
      </trkpt>
      <trkpt lat="47.6326" lon="-2.66911">
        <ele>15.5</ele>
        <time>2026-08-22T12:47:44Z</time>
      </trkpt>
      <trkpt lat="47.63262" lon="-2.66914">
        <ele>15.5</ele>
        <time>2026-08-22T12:47:45Z</time>
      </trkpt>
      <trkpt lat="47.63264" lon="-2.66918">
        <ele>15.5</ele>
        <time>2026-08-22T12:47:46Z</time>
      </trkpt>
      <trkpt lat="47.63265" lon="-2.66924">
        <ele>15.5</ele>
        <time>2026-08-22T12:47:47Z</time>
      </trkpt>
      <trkpt lat="47.63266" lon="-2.66929">
        <ele>15.6</ele>
        <time>2026-08-22T12:47:48Z</time>
      </trkpt>
      <trkpt lat="47.63266" lon="-2.66935">
        <ele>15.6</ele>
        <time>2026-08-22T12:47:49Z</time>
      </trkpt>
      <trkpt lat="47.63266" lon="-2.66941">
        <ele>15.6</ele>
        <time>2026-08-22T12:47:50Z</time>
      </trkpt>
      <trkpt lat="47.63266" lon="-2.66946">
        <ele>15.6</ele>
        <time>2026-08-22T12:47:51Z</time>
      </trkpt>
      <trkpt lat="47.63266" lon="-2.66952">
        <ele>15.6</ele>
        <time>2026-08-22T12:47:52Z</time>
      </trkpt>
      <trkpt lat="47.63266" lon="-2.66957">
        <ele>15.6</ele>
        <time>2026-08-22T12:47:53Z</time>
      </trkpt>
      <trkpt lat="47.63266" lon="-2.66963">
        <ele>15.6</ele>
        <time>2026-08-22T12:47:54Z</time>
      </trkpt>
      <trkpt lat="47.63267" lon="-2.66968">
        <ele>15.6</ele>
        <time>2026-08-22T12:47:55Z</time>
      </trkpt>
      <trkpt lat="47.63267" lon="-2.66974">
        <ele>15.6</ele>
        <time>2026-08-22T12:47:56Z</time>
      </trkpt>
      <trkpt lat="47.63267" lon="-2.6698">
        <ele>15.6</ele>
        <time>2026-08-22T12:47:57Z</time>
      </trkpt>
      <trkpt lat="47.63268" lon="-2.66986">
        <ele>15.6</ele>
        <time>2026-08-22T12:47:58Z</time>
      </trkpt>
      <trkpt lat="47.63268" lon="-2.66992">
        <ele>15.6</ele>
        <time>2026-08-22T12:47:59Z</time>
      </trkpt>
      <trkpt lat="47.63269" lon="-2.66999">
        <ele>15.7</ele>
        <time>2026-08-22T12:48:00Z</time>
      </trkpt>
      <trkpt lat="47.63269" lon="-2.67005">
        <ele>15.7</ele>
        <time>2026-08-22T12:48:01Z</time>
      </trkpt>
      <trkpt lat="47.6327" lon="-2.67011">
        <ele>15.7</ele>
        <time>2026-08-22T12:48:02Z</time>
      </trkpt>
      <trkpt lat="47.63271" lon="-2.67017">
        <ele>15.8</ele>
        <time>2026-08-22T12:48:03Z</time>
      </trkpt>
      <trkpt lat="47.63272" lon="-2.67023">
        <ele>15.8</ele>
        <time>2026-08-22T12:48:04Z</time>
      </trkpt>
      <trkpt lat="47.63272" lon="-2.67029">
        <ele>15.8</ele>
        <time>2026-08-22T12:48:05Z</time>
      </trkpt>
      <trkpt lat="47.63273" lon="-2.67035">
        <ele>15.6</ele>
        <time>2026-08-22T12:48:06Z</time>
      </trkpt>
      <trkpt lat="47.63273" lon="-2.67041">
        <ele>15.4</ele>
        <time>2026-08-22T12:48:07Z</time>
      </trkpt>
      <trkpt lat="47.63274" lon="-2.67047">
        <ele>15.3</ele>
        <time>2026-08-22T12:48:08Z</time>
      </trkpt>
      <trkpt lat="47.63274" lon="-2.67053">
        <ele>15.1</ele>
        <time>2026-08-22T12:48:09Z</time>
      </trkpt>
      <trkpt lat="47.63275" lon="-2.6706">
        <ele>15.2</ele>
        <time>2026-08-22T12:48:10Z</time>
      </trkpt>
      <trkpt lat="47.63276" lon="-2.67066">
        <ele>15.4</ele>
        <time>2026-08-22T12:48:11Z</time>
      </trkpt>
      <trkpt lat="47.63276" lon="-2.67072">
        <ele>15.6</ele>
        <time>2026-08-22T12:48:12Z</time>
      </trkpt>
      <trkpt lat="47.63277" lon="-2.67078">
        <ele>15.8</ele>
        <time>2026-08-22T12:48:13Z</time>
      </trkpt>
      <trkpt lat="47.63277" lon="-2.67085">
        <ele>16</ele>
        <time>2026-08-22T12:48:14Z</time>
      </trkpt>
      <trkpt lat="47.63278" lon="-2.67091">
        <ele>16</ele>
        <time>2026-08-22T12:48:15Z</time>
      </trkpt>
      <trkpt lat="47.63279" lon="-2.67097">
        <ele>16</ele>
        <time>2026-08-22T12:48:16Z</time>
      </trkpt>
      <trkpt lat="47.63279" lon="-2.67102">
        <ele>16</ele>
        <time>2026-08-22T12:48:17Z</time>
      </trkpt>
      <trkpt lat="47.6328" lon="-2.67108">
        <ele>16</ele>
        <time>2026-08-22T12:48:18Z</time>
      </trkpt>
      <trkpt lat="47.63281" lon="-2.67114">
        <ele>16.1</ele>
        <time>2026-08-22T12:48:19Z</time>
      </trkpt>
      <trkpt lat="47.63281" lon="-2.67119">
        <ele>16.3</ele>
        <time>2026-08-22T12:48:20Z</time>
      </trkpt>
      <trkpt lat="47.63282" lon="-2.67125">
        <ele>16.4</ele>
        <time>2026-08-22T12:48:21Z</time>
      </trkpt>
      <trkpt lat="47.63282" lon="-2.67131">
        <ele>16.6</ele>
        <time>2026-08-22T12:48:22Z</time>
      </trkpt>
      <trkpt lat="47.63283" lon="-2.67137">
        <ele>16.8</ele>
        <time>2026-08-22T12:48:23Z</time>
      </trkpt>
      <trkpt lat="47.63283" lon="-2.67143">
        <ele>16.8</ele>
        <time>2026-08-22T12:48:24Z</time>
      </trkpt>
      <trkpt lat="47.63284" lon="-2.67149">
        <ele>16.9</ele>
        <time>2026-08-22T12:48:25Z</time>
      </trkpt>
      <trkpt lat="47.63284" lon="-2.67154">
        <ele>16.9</ele>
        <time>2026-08-22T12:48:26Z</time>
      </trkpt>
      <trkpt lat="47.63285" lon="-2.6716">
        <ele>16.9</ele>
        <time>2026-08-22T12:48:27Z</time>
      </trkpt>
      <trkpt lat="47.63286" lon="-2.67165">
        <ele>17</ele>
        <time>2026-08-22T12:48:28Z</time>
      </trkpt>
      <trkpt lat="47.63286" lon="-2.67171">
        <ele>17.2</ele>
        <time>2026-08-22T12:48:29Z</time>
      </trkpt>
      <trkpt lat="47.63287" lon="-2.67177">
        <ele>17.4</ele>
        <time>2026-08-22T12:48:30Z</time>
      </trkpt>
      <trkpt lat="47.63288" lon="-2.67183">
        <ele>17.6</ele>
        <time>2026-08-22T12:48:31Z</time>
      </trkpt>
      <trkpt lat="47.63288" lon="-2.67188">
        <ele>17.8</ele>
        <time>2026-08-22T12:48:32Z</time>
      </trkpt>
      <trkpt lat="47.63289" lon="-2.67194">
        <ele>18</ele>
        <time>2026-08-22T12:48:33Z</time>
      </trkpt>
      <trkpt lat="47.63289" lon="-2.672">
        <ele>18</ele>
        <time>2026-08-22T12:48:34Z</time>
      </trkpt>
      <trkpt lat="47.6329" lon="-2.67206">
        <ele>18</ele>
        <time>2026-08-22T12:48:35Z</time>
      </trkpt>
      <trkpt lat="47.63291" lon="-2.67211">
        <ele>18</ele>
        <time>2026-08-22T12:48:36Z</time>
      </trkpt>
      <trkpt lat="47.63291" lon="-2.67217">
        <ele>18</ele>
        <time>2026-08-22T12:48:37Z</time>
      </trkpt>
      <trkpt lat="47.63292" lon="-2.67223">
        <ele>18</ele>
        <time>2026-08-22T12:48:38Z</time>
      </trkpt>
      <trkpt lat="47.63293" lon="-2.67229">
        <ele>18.2</ele>
        <time>2026-08-22T12:48:39Z</time>
      </trkpt>
      <trkpt lat="47.63294" lon="-2.67234">
        <ele>18.4</ele>
        <time>2026-08-22T12:48:40Z</time>
      </trkpt>
      <trkpt lat="47.63295" lon="-2.6724">
        <ele>18.6</ele>
        <time>2026-08-22T12:48:41Z</time>
      </trkpt>
      <trkpt lat="47.63295" lon="-2.67246">
        <ele>18.9</ele>
        <time>2026-08-22T12:48:42Z</time>
      </trkpt>
      <trkpt lat="47.63296" lon="-2.67251">
        <ele>19</ele>
        <time>2026-08-22T12:48:43Z</time>
      </trkpt>
      <trkpt lat="47.63297" lon="-2.67257">
        <ele>19</ele>
        <time>2026-08-22T12:48:44Z</time>
      </trkpt>
      <trkpt lat="47.63297" lon="-2.67262">
        <ele>19</ele>
        <time>2026-08-22T12:48:45Z</time>
      </trkpt>
      <trkpt lat="47.63298" lon="-2.67268">
        <ele>19</ele>
        <time>2026-08-22T12:48:46Z</time>
      </trkpt>
      <trkpt lat="47.63299" lon="-2.67274">
        <ele>19</ele>
        <time>2026-08-22T12:48:47Z</time>
      </trkpt>
      <trkpt lat="47.633" lon="-2.6728">
        <ele>19</ele>
        <time>2026-08-22T12:48:48Z</time>
      </trkpt>
      <trkpt lat="47.63301" lon="-2.67286">
        <ele>19</ele>
        <time>2026-08-22T12:48:49Z</time>
      </trkpt>
      <trkpt lat="47.63302" lon="-2.67291">
        <ele>19</ele>
        <time>2026-08-22T12:48:50Z</time>
      </trkpt>
      <trkpt lat="47.63304" lon="-2.67297">
        <ele>19</ele>
        <time>2026-08-22T12:48:51Z</time>
      </trkpt>
      <trkpt lat="47.63305" lon="-2.67302">
        <ele>19</ele>
        <time>2026-08-22T12:48:52Z</time>
      </trkpt>
      <trkpt lat="47.63307" lon="-2.67308">
        <ele>19.1</ele>
        <time>2026-08-22T12:48:53Z</time>
      </trkpt>
      <trkpt lat="47.63308" lon="-2.67313">
        <ele>19.3</ele>
        <time>2026-08-22T12:48:54Z</time>
      </trkpt>
      <trkpt lat="47.6331" lon="-2.67319">
        <ele>19.5</ele>
        <time>2026-08-22T12:48:55Z</time>
      </trkpt>
      <trkpt lat="47.63311" lon="-2.67324">
        <ele>19.7</ele>
        <time>2026-08-22T12:48:56Z</time>
      </trkpt>
      <trkpt lat="47.63313" lon="-2.67329">
        <ele>19.8</ele>
        <time>2026-08-22T12:48:57Z</time>
      </trkpt>
      <trkpt lat="47.63314" lon="-2.67335">
        <ele>20</ele>
        <time>2026-08-22T12:48:58Z</time>
      </trkpt>
      <trkpt lat="47.63316" lon="-2.6734">
        <ele>20</ele>
        <time>2026-08-22T12:48:59Z</time>
      </trkpt>
      <trkpt lat="47.63317" lon="-2.67346">
        <ele>20</ele>
        <time>2026-08-22T12:49:00Z</time>
      </trkpt>
      <trkpt lat="47.63319" lon="-2.67351">
        <ele>20</ele>
        <time>2026-08-22T12:49:01Z</time>
      </trkpt>
      <trkpt lat="47.6332" lon="-2.67357">
        <ele>20</ele>
        <time>2026-08-22T12:49:02Z</time>
      </trkpt>
      <trkpt lat="47.63322" lon="-2.67362">
        <ele>20</ele>
        <time>2026-08-22T12:49:03Z</time>
      </trkpt>
      <trkpt lat="47.63323" lon="-2.67368">
        <ele>20</ele>
        <time>2026-08-22T12:49:04Z</time>
      </trkpt>
      <trkpt lat="47.63325" lon="-2.67373">
        <ele>20</ele>
        <time>2026-08-22T12:49:05Z</time>
      </trkpt>
      <trkpt lat="47.63326" lon="-2.67379">
        <ele>20</ele>
        <time>2026-08-22T12:49:06Z</time>
      </trkpt>
      <trkpt lat="47.63327" lon="-2.67385">
        <ele>20</ele>
        <time>2026-08-22T12:49:07Z</time>
      </trkpt>
      <trkpt lat="47.63329" lon="-2.6739">
        <ele>20</ele>
        <time>2026-08-22T12:49:08Z</time>
      </trkpt>
      <trkpt lat="47.6333" lon="-2.67396">
        <ele>20</ele>
        <time>2026-08-22T12:49:09Z</time>
      </trkpt>
      <trkpt lat="47.63332" lon="-2.67401">
        <ele>20</ele>
        <time>2026-08-22T12:49:10Z</time>
      </trkpt>
      <trkpt lat="47.63333" lon="-2.67407">
        <ele>20</ele>
        <time>2026-08-22T12:49:11Z</time>
      </trkpt>
      <trkpt lat="47.63335" lon="-2.67413">
        <ele>20</ele>
        <time>2026-08-22T12:49:12Z</time>
      </trkpt>
      <trkpt lat="47.63337" lon="-2.67418">
        <ele>20</ele>
        <time>2026-08-22T12:49:13Z</time>
      </trkpt>
      <trkpt lat="47.63338" lon="-2.67424">
        <ele>20.2</ele>
        <time>2026-08-22T12:49:14Z</time>
      </trkpt>
      <trkpt lat="47.6334" lon="-2.6743">
        <ele>20.4</ele>
        <time>2026-08-22T12:49:15Z</time>
      </trkpt>
      <trkpt lat="47.63341" lon="-2.67435">
        <ele>20.5</ele>
        <time>2026-08-22T12:49:16Z</time>
      </trkpt>
      <trkpt lat="47.63343" lon="-2.67441">
        <ele>20.6</ele>
        <time>2026-08-22T12:49:17Z</time>
      </trkpt>
      <trkpt lat="47.63345" lon="-2.67447">
        <ele>20.5</ele>
        <time>2026-08-22T12:49:18Z</time>
      </trkpt>
      <trkpt lat="47.63346" lon="-2.67453">
        <ele>20.4</ele>
        <time>2026-08-22T12:49:19Z</time>
      </trkpt>
      <trkpt lat="47.63348" lon="-2.67459">
        <ele>20.2</ele>
        <time>2026-08-22T12:49:20Z</time>
      </trkpt>
      <trkpt lat="47.63349" lon="-2.67464">
        <ele>20.1</ele>
        <time>2026-08-22T12:49:21Z</time>
      </trkpt>
      <trkpt lat="47.63351" lon="-2.6747">
        <ele>20</ele>
        <time>2026-08-22T12:49:22Z</time>
      </trkpt>
      <trkpt lat="47.63352" lon="-2.67476">
        <ele>20.1</ele>
        <time>2026-08-22T12:49:23Z</time>
      </trkpt>
      <trkpt lat="47.63354" lon="-2.67482">
        <ele>20.3</ele>
        <time>2026-08-22T12:49:24Z</time>
      </trkpt>
      <trkpt lat="47.63355" lon="-2.67488">
        <ele>20.4</ele>
        <time>2026-08-22T12:49:25Z</time>
      </trkpt>
      <trkpt lat="47.63357" lon="-2.67494">
        <ele>20.7</ele>
        <time>2026-08-22T12:49:26Z</time>
      </trkpt>
      <trkpt lat="47.63358" lon="-2.675">
        <ele>20.9</ele>
        <time>2026-08-22T12:49:27Z</time>
      </trkpt>
      <trkpt lat="47.6336" lon="-2.67506">
        <ele>21</ele>
        <time>2026-08-22T12:49:28Z</time>
      </trkpt>
      <trkpt lat="47.63362" lon="-2.67512">
        <ele>21</ele>
        <time>2026-08-22T12:49:29Z</time>
      </trkpt>
      <trkpt lat="47.63364" lon="-2.67519">
        <ele>20.9</ele>
        <time>2026-08-22T12:49:30Z</time>
      </trkpt>
      <trkpt lat="47.63365" lon="-2.67525">
        <ele>20.9</ele>
        <time>2026-08-22T12:49:31Z</time>
      </trkpt>
      <trkpt lat="47.63367" lon="-2.67532">
        <ele>20.8</ele>
        <time>2026-08-22T12:49:32Z</time>
      </trkpt>
      <trkpt lat="47.63369" lon="-2.67538">
        <ele>20.7</ele>
        <time>2026-08-22T12:49:33Z</time>
      </trkpt>
      <trkpt lat="47.6337" lon="-2.67545">
        <ele>20.7</ele>
        <time>2026-08-22T12:49:34Z</time>
      </trkpt>
      <trkpt lat="47.63372" lon="-2.67552">
        <ele>20.6</ele>
        <time>2026-08-22T12:49:35Z</time>
      </trkpt>
      <trkpt lat="47.63374" lon="-2.67558">
        <ele>20.5</ele>
        <time>2026-08-22T12:49:36Z</time>
      </trkpt>
      <trkpt lat="47.63376" lon="-2.67565">
        <ele>20.3</ele>
        <time>2026-08-22T12:49:37Z</time>
      </trkpt>
      <trkpt lat="47.63377" lon="-2.67571">
        <ele>20.2</ele>
        <time>2026-08-22T12:49:38Z</time>
      </trkpt>
      <trkpt lat="47.63379" lon="-2.67578">
        <ele>20.1</ele>
        <time>2026-08-22T12:49:39Z</time>
      </trkpt>
      <trkpt lat="47.63381" lon="-2.67584">
        <ele>20</ele>
        <time>2026-08-22T12:49:40Z</time>
      </trkpt>
      <trkpt lat="47.63383" lon="-2.6759">
        <ele>20</ele>
        <time>2026-08-22T12:49:41Z</time>
      </trkpt>
      <trkpt lat="47.63385" lon="-2.67596">
        <ele>20</ele>
        <time>2026-08-22T12:49:42Z</time>
      </trkpt>
      <trkpt lat="47.63387" lon="-2.67602">
        <ele>20</ele>
        <time>2026-08-22T12:49:43Z</time>
      </trkpt>
      <trkpt lat="47.63389" lon="-2.67608">
        <ele>20</ele>
        <time>2026-08-22T12:49:44Z</time>
      </trkpt>
      <trkpt lat="47.63391" lon="-2.67615">
        <ele>20.1</ele>
        <time>2026-08-22T12:49:45Z</time>
      </trkpt>
      <trkpt lat="47.63393" lon="-2.67621">
        <ele>20.3</ele>
        <time>2026-08-22T12:49:46Z</time>
      </trkpt>
      <trkpt lat="47.63395" lon="-2.67628">
        <ele>20.5</ele>
        <time>2026-08-22T12:49:47Z</time>
      </trkpt>
      <trkpt lat="47.63396" lon="-2.67635">
        <ele>20.6</ele>
        <time>2026-08-22T12:49:48Z</time>
      </trkpt>
      <trkpt lat="47.63398" lon="-2.67641">
        <ele>20.6</ele>
        <time>2026-08-22T12:49:49Z</time>
      </trkpt>
      <trkpt lat="47.634" lon="-2.67648">
        <ele>20.4</ele>
        <time>2026-08-22T12:49:50Z</time>
      </trkpt>
      <trkpt lat="47.63402" lon="-2.67654">
        <ele>20.2</ele>
        <time>2026-08-22T12:49:51Z</time>
      </trkpt>
      <trkpt lat="47.63404" lon="-2.67661">
        <ele>20.1</ele>
        <time>2026-08-22T12:49:52Z</time>
      </trkpt>
      <trkpt lat="47.63406" lon="-2.67667">
        <ele>20</ele>
        <time>2026-08-22T12:49:53Z</time>
      </trkpt>
      <trkpt lat="47.63408" lon="-2.67674">
        <ele>20</ele>
        <time>2026-08-22T12:49:54Z</time>
      </trkpt>
      <trkpt lat="47.63409" lon="-2.67681">
        <ele>20</ele>
        <time>2026-08-22T12:49:55Z</time>
      </trkpt>
      <trkpt lat="47.63411" lon="-2.67687">
        <ele>20</ele>
        <time>2026-08-22T12:49:56Z</time>
      </trkpt>
      <trkpt lat="47.63413" lon="-2.67694">
        <ele>20</ele>
        <time>2026-08-22T12:49:57Z</time>
      </trkpt>
      <trkpt lat="47.63414" lon="-2.67701">
        <ele>20</ele>
        <time>2026-08-22T12:49:58Z</time>
      </trkpt>
      <trkpt lat="47.63416" lon="-2.67707">
        <ele>20</ele>
        <time>2026-08-22T12:49:59Z</time>
      </trkpt>
      <trkpt lat="47.63418" lon="-2.67714">
        <ele>20</ele>
        <time>2026-08-22T12:50:00Z</time>
      </trkpt>
      <trkpt lat="47.63419" lon="-2.6772">
        <ele>20</ele>
        <time>2026-08-22T12:50:01Z</time>
      </trkpt>
      <trkpt lat="47.63421" lon="-2.67726">
        <ele>20</ele>
        <time>2026-08-22T12:50:02Z</time>
      </trkpt>
      <trkpt lat="47.63423" lon="-2.67732">
        <ele>20</ele>
        <time>2026-08-22T12:50:03Z</time>
      </trkpt>
      <trkpt lat="47.63424" lon="-2.67738">
        <ele>20</ele>
        <time>2026-08-22T12:50:04Z</time>
      </trkpt>
      <trkpt lat="47.63426" lon="-2.67744">
        <ele>20</ele>
        <time>2026-08-22T12:50:05Z</time>
      </trkpt>
      <trkpt lat="47.63428" lon="-2.6775">
        <ele>20</ele>
        <time>2026-08-22T12:50:06Z</time>
      </trkpt>
      <trkpt lat="47.6343" lon="-2.67757">
        <ele>19.7</ele>
        <time>2026-08-22T12:50:07Z</time>
      </trkpt>
      <trkpt lat="47.63432" lon="-2.67765">
        <ele>19.5</ele>
        <time>2026-08-22T12:50:08Z</time>
      </trkpt>
      <trkpt lat="47.63434" lon="-2.67772">
        <ele>19.2</ele>
        <time>2026-08-22T12:50:09Z</time>
      </trkpt>
      <trkpt lat="47.63436" lon="-2.6778">
        <ele>18.9</ele>
        <time>2026-08-22T12:50:10Z</time>
      </trkpt>
      <trkpt lat="47.63437" lon="-2.67787">
        <ele>18.7</ele>
        <time>2026-08-22T12:50:11Z</time>
      </trkpt>
      <trkpt lat="47.6344" lon="-2.67795">
        <ele>18.4</ele>
        <time>2026-08-22T12:50:12Z</time>
      </trkpt>
      <trkpt lat="47.63442" lon="-2.67802">
        <ele>18.1</ele>
        <time>2026-08-22T12:50:13Z</time>
      </trkpt>
      <trkpt lat="47.63444" lon="-2.6781">
        <ele>18</ele>
        <time>2026-08-22T12:50:14Z</time>
      </trkpt>
      <trkpt lat="47.63446" lon="-2.67818">
        <ele>18</ele>
        <time>2026-08-22T12:50:15Z</time>
      </trkpt>
      <trkpt lat="47.63448" lon="-2.67826">
        <ele>18</ele>
        <time>2026-08-22T12:50:16Z</time>
      </trkpt>
      <trkpt lat="47.6345" lon="-2.67833">
        <ele>18</ele>
        <time>2026-08-22T12:50:17Z</time>
      </trkpt>
      <trkpt lat="47.63453" lon="-2.6784">
        <ele>17.8</ele>
        <time>2026-08-22T12:50:18Z</time>
      </trkpt>
      <trkpt lat="47.63456" lon="-2.67848">
        <ele>17.5</ele>
        <time>2026-08-22T12:50:19Z</time>
      </trkpt>
      <trkpt lat="47.63458" lon="-2.67856">
        <ele>17.2</ele>
        <time>2026-08-22T12:50:20Z</time>
      </trkpt>
      <trkpt lat="47.63461" lon="-2.67864">
        <ele>17</ele>
        <time>2026-08-22T12:50:21Z</time>
      </trkpt>
      <trkpt lat="47.63464" lon="-2.67871">
        <ele>17</ele>
        <time>2026-08-22T12:50:22Z</time>
      </trkpt>
      <trkpt lat="47.63467" lon="-2.67879">
        <ele>17</ele>
        <time>2026-08-22T12:50:23Z</time>
      </trkpt>
      <trkpt lat="47.6347" lon="-2.67887">
        <ele>17</ele>
        <time>2026-08-22T12:50:24Z</time>
      </trkpt>
      <trkpt lat="47.63473" lon="-2.67895">
        <ele>16.8</ele>
        <time>2026-08-22T12:50:25Z</time>
      </trkpt>
      <trkpt lat="47.63477" lon="-2.67903">
        <ele>16.4</ele>
        <time>2026-08-22T12:50:26Z</time>
      </trkpt>
      <trkpt lat="47.6348" lon="-2.67911">
        <ele>16.1</ele>
        <time>2026-08-22T12:50:27Z</time>
      </trkpt>
      <trkpt lat="47.63484" lon="-2.67919">
        <ele>16</ele>
        <time>2026-08-22T12:50:28Z</time>
      </trkpt>
      <trkpt lat="47.63488" lon="-2.67927">
        <ele>15.8</ele>
        <time>2026-08-22T12:50:29Z</time>
      </trkpt>
      <trkpt lat="47.63492" lon="-2.67935">
        <ele>15.5</ele>
        <time>2026-08-22T12:50:30Z</time>
      </trkpt>
      <trkpt lat="47.63497" lon="-2.67943">
        <ele>15.2</ele>
        <time>2026-08-22T12:50:31Z</time>
      </trkpt>
      <trkpt lat="47.63502" lon="-2.6795">
        <ele>15</ele>
        <time>2026-08-22T12:50:32Z</time>
      </trkpt>
      <trkpt lat="47.63506" lon="-2.67958">
        <ele>14.9</ele>
        <time>2026-08-22T12:50:33Z</time>
      </trkpt>
      <trkpt lat="47.63512" lon="-2.67965">
        <ele>14.7</ele>
        <time>2026-08-22T12:50:34Z</time>
      </trkpt>
      <trkpt lat="47.63517" lon="-2.67971">
        <ele>14.4</ele>
        <time>2026-08-22T12:50:35Z</time>
      </trkpt>
      <trkpt lat="47.63522" lon="-2.67978">
        <ele>14.2</ele>
        <time>2026-08-22T12:50:36Z</time>
      </trkpt>
      <trkpt lat="47.63527" lon="-2.67984">
        <ele>14</ele>
        <time>2026-08-22T12:50:37Z</time>
      </trkpt>
      <trkpt lat="47.63533" lon="-2.6799">
        <ele>14.1</ele>
        <time>2026-08-22T12:50:38Z</time>
      </trkpt>
      <trkpt lat="47.63538" lon="-2.67996">
        <ele>14.1</ele>
        <time>2026-08-22T12:50:39Z</time>
      </trkpt>
      <trkpt lat="47.63544" lon="-2.68001">
        <ele>14</ele>
        <time>2026-08-22T12:50:40Z</time>
      </trkpt>
      <trkpt lat="47.6355" lon="-2.68006">
        <ele>13.8</ele>
        <time>2026-08-22T12:50:41Z</time>
      </trkpt>
      <trkpt lat="47.63555" lon="-2.6801">
        <ele>13.6</ele>
        <time>2026-08-22T12:50:42Z</time>
      </trkpt>
      <trkpt lat="47.63561" lon="-2.68014">
        <ele>13.5</ele>
        <time>2026-08-22T12:50:43Z</time>
      </trkpt>
      <trkpt lat="47.63567" lon="-2.68018">
        <ele>13.4</ele>
        <time>2026-08-22T12:50:44Z</time>
      </trkpt>
      <trkpt lat="47.63572" lon="-2.68022">
        <ele>13.2</ele>
        <time>2026-08-22T12:50:45Z</time>
      </trkpt>
      <trkpt lat="47.63578" lon="-2.68026">
        <ele>13.1</ele>
        <time>2026-08-22T12:50:46Z</time>
      </trkpt>
      <trkpt lat="47.63583" lon="-2.68029">
        <ele>13</ele>
        <time>2026-08-22T12:50:47Z</time>
      </trkpt>
      <trkpt lat="47.63589" lon="-2.68033">
        <ele>12.8</ele>
        <time>2026-08-22T12:50:48Z</time>
      </trkpt>
      <trkpt lat="47.63594" lon="-2.68036">
        <ele>12.7</ele>
        <time>2026-08-22T12:50:49Z</time>
      </trkpt>
      <trkpt lat="47.63599" lon="-2.68039">
        <ele>12.6</ele>
        <time>2026-08-22T12:50:50Z</time>
      </trkpt>
      <trkpt lat="47.63605" lon="-2.68042">
        <ele>12.5</ele>
        <time>2026-08-22T12:50:51Z</time>
      </trkpt>
      <trkpt lat="47.6361" lon="-2.68045">
        <ele>12.4</ele>
        <time>2026-08-22T12:50:52Z</time>
      </trkpt>
      <trkpt lat="47.63615" lon="-2.68049">
        <ele>12.2</ele>
        <time>2026-08-22T12:50:53Z</time>
      </trkpt>
      <trkpt lat="47.6362" lon="-2.68052">
        <ele>12.1</ele>
        <time>2026-08-22T12:50:54Z</time>
      </trkpt>
      <trkpt lat="47.63626" lon="-2.68055">
        <ele>12</ele>
        <time>2026-08-22T12:50:55Z</time>
      </trkpt>
      <trkpt lat="47.63631" lon="-2.68058">
        <ele>11.8</ele>
        <time>2026-08-22T12:50:56Z</time>
      </trkpt>
      <trkpt lat="47.63636" lon="-2.68061">
        <ele>11.6</ele>
        <time>2026-08-22T12:50:57Z</time>
      </trkpt>
      <trkpt lat="47.63642" lon="-2.68065">
        <ele>11.4</ele>
        <time>2026-08-22T12:50:58Z</time>
      </trkpt>
      <trkpt lat="47.63647" lon="-2.68068">
        <ele>11.2</ele>
        <time>2026-08-22T12:50:59Z</time>
      </trkpt>
      <trkpt lat="47.63652" lon="-2.68071">
        <ele>11.2</ele>
        <time>2026-08-22T12:51:00Z</time>
      </trkpt>
      <trkpt lat="47.63658" lon="-2.68074">
        <ele>11.1</ele>
        <time>2026-08-22T12:51:01Z</time>
      </trkpt>
      <trkpt lat="47.63663" lon="-2.68078">
        <ele>11.1</ele>
        <time>2026-08-22T12:51:02Z</time>
      </trkpt>
      <trkpt lat="47.63668" lon="-2.68083">
        <ele>10.9</ele>
        <time>2026-08-22T12:51:03Z</time>
      </trkpt>
      <trkpt lat="47.63673" lon="-2.68088">
        <ele>10.2</ele>
        <time>2026-08-22T12:51:04Z</time>
      </trkpt>
      <trkpt lat="47.63679" lon="-2.68094">
        <ele>9.5</ele>
        <time>2026-08-22T12:51:05Z</time>
      </trkpt>
      <trkpt lat="47.63685" lon="-2.681">
        <ele>8.9</ele>
        <time>2026-08-22T12:51:06Z</time>
      </trkpt>
      <trkpt lat="47.63691" lon="-2.68107">
        <ele>8.3</ele>
        <time>2026-08-22T12:51:07Z</time>
      </trkpt>
      <trkpt lat="47.63698" lon="-2.68113">
        <ele>7.8</ele>
        <time>2026-08-22T12:51:08Z</time>
      </trkpt>
      <trkpt lat="47.63705" lon="-2.6812">
        <ele>7.3</ele>
        <time>2026-08-22T12:51:09Z</time>
      </trkpt>
      <trkpt lat="47.63711" lon="-2.68128">
        <ele>6.8</ele>
        <time>2026-08-22T12:51:10Z</time>
      </trkpt>
      <trkpt lat="47.63717" lon="-2.68137">
        <ele>6.3</ele>
        <time>2026-08-22T12:51:11Z</time>
      </trkpt>
      <trkpt lat="47.63723" lon="-2.68147">
        <ele>6</ele>
        <time>2026-08-22T12:51:12Z</time>
      </trkpt>
      <trkpt lat="47.63727" lon="-2.68157">
        <ele>5.8</ele>
        <time>2026-08-22T12:51:13Z</time>
      </trkpt>
      <trkpt lat="47.63729" lon="-2.68167">
        <ele>5.7</ele>
        <time>2026-08-22T12:51:14Z</time>
      </trkpt>
      <trkpt lat="47.6373" lon="-2.68178">
        <ele>5.4</ele>
        <time>2026-08-22T12:51:15Z</time>
      </trkpt>
      <trkpt lat="47.6373" lon="-2.68187">
        <ele>5.2</ele>
        <time>2026-08-22T12:51:16Z</time>
      </trkpt>
      <trkpt lat="47.63729" lon="-2.68196">
        <ele>5</ele>
        <time>2026-08-22T12:51:17Z</time>
      </trkpt>
      <trkpt lat="47.63727" lon="-2.68202">
        <ele>5</ele>
        <time>2026-08-22T12:51:18Z</time>
      </trkpt>
      <trkpt lat="47.63724" lon="-2.68208">
        <ele>5</ele>
        <time>2026-08-22T12:51:19Z</time>
      </trkpt>
      <trkpt lat="47.6372" lon="-2.68213">
        <ele>5.2</ele>
        <time>2026-08-22T12:51:20Z</time>
      </trkpt>
      <trkpt lat="47.63716" lon="-2.68216">
        <ele>5.6</ele>
        <time>2026-08-22T12:51:21Z</time>
      </trkpt>
      <trkpt lat="47.63711" lon="-2.68218">
        <ele>6.2</ele>
        <time>2026-08-22T12:51:22Z</time>
      </trkpt>
      <trkpt lat="47.63706" lon="-2.68219">
        <ele>6.7</ele>
        <time>2026-08-22T12:51:23Z</time>
      </trkpt>
      <trkpt lat="47.63687" lon="-2.68223">
        <ele>7.5</ele>
        <time>2026-08-22T12:51:27Z</time>
      </trkpt>
      <trkpt lat="47.63683" lon="-2.68224">
        <ele>7.2</ele>
        <time>2026-08-22T12:51:28Z</time>
      </trkpt>
      <trkpt lat="47.63679" lon="-2.68225">
        <ele>6.9</ele>
        <time>2026-08-22T12:51:29Z</time>
      </trkpt>
      <trkpt lat="47.63675" lon="-2.68225">
        <ele>6.6</ele>
        <time>2026-08-22T12:51:30Z</time>
      </trkpt>
      <trkpt lat="47.63671" lon="-2.68225">
        <ele>6.3</ele>
        <time>2026-08-22T12:51:31Z</time>
      </trkpt>
      <trkpt lat="47.63666" lon="-2.68225">
        <ele>6</ele>
        <time>2026-08-22T12:51:32Z</time>
      </trkpt>
      <trkpt lat="47.63663" lon="-2.68225">
        <ele>6.1</ele>
        <time>2026-08-22T12:51:33Z</time>
      </trkpt>
      <trkpt lat="47.63659" lon="-2.68225">
        <ele>6.2</ele>
        <time>2026-08-22T12:51:34Z</time>
      </trkpt>
      <trkpt lat="47.63655" lon="-2.68224">
        <ele>6.4</ele>
        <time>2026-08-22T12:51:35Z</time>
      </trkpt>
      <trkpt lat="47.63651" lon="-2.68223">
        <ele>6.5</ele>
        <time>2026-08-22T12:51:36Z</time>
      </trkpt>
      <trkpt lat="47.63648" lon="-2.68223">
        <ele>6.6</ele>
        <time>2026-08-22T12:51:37Z</time>
      </trkpt>
      <trkpt lat="47.63645" lon="-2.68225">
        <ele>6.6</ele>
        <time>2026-08-22T12:51:38Z</time>
      </trkpt>
      <trkpt lat="47.63642" lon="-2.68228">
        <ele>6.5</ele>
        <time>2026-08-22T12:51:39Z</time>
      </trkpt>
      <trkpt lat="47.63641" lon="-2.68232">
        <ele>6.3</ele>
        <time>2026-08-22T12:51:40Z</time>
      </trkpt>
      <trkpt lat="47.6364" lon="-2.68237">
        <ele>5.9</ele>
        <time>2026-08-22T12:51:41Z</time>
      </trkpt>
      <trkpt lat="47.6364" lon="-2.68242">
        <ele>5.6</ele>
        <time>2026-08-22T12:51:42Z</time>
      </trkpt>
      <trkpt lat="47.6364" lon="-2.68248">
        <ele>5.2</ele>
        <time>2026-08-22T12:51:43Z</time>
      </trkpt>
      <trkpt lat="47.6364" lon="-2.68256">
        <ele>5.1</ele>
        <time>2026-08-22T12:51:44Z</time>
      </trkpt>
      <trkpt lat="47.63639" lon="-2.68263">
        <ele>5</ele>
        <time>2026-08-22T12:51:45Z</time>
      </trkpt>
      <trkpt lat="47.63638" lon="-2.6827">
        <ele>5.1</ele>
        <time>2026-08-22T12:51:46Z</time>
      </trkpt>
      <trkpt lat="47.63637" lon="-2.68277">
        <ele>5.2</ele>
        <time>2026-08-22T12:51:47Z</time>
      </trkpt>
      <trkpt lat="47.63636" lon="-2.68283">
        <ele>5.3</ele>
        <time>2026-08-22T12:51:48Z</time>
      </trkpt>
      <trkpt lat="47.63635" lon="-2.68289">
        <ele>5.3</ele>
        <time>2026-08-22T12:51:49Z</time>
      </trkpt>
      <trkpt lat="47.63635" lon="-2.68296">
        <ele>5.1</ele>
        <time>2026-08-22T12:51:50Z</time>
      </trkpt>
      <trkpt lat="47.63633" lon="-2.6831">
        <ele>5</ele>
        <time>2026-08-22T12:51:52Z</time>
      </trkpt>
      <trkpt lat="47.63632" lon="-2.68316">
        <ele>5.1</ele>
        <time>2026-08-22T12:51:53Z</time>
      </trkpt>
      <trkpt lat="47.63629" lon="-2.68321">
        <ele>5.2</ele>
        <time>2026-08-22T12:51:54Z</time>
      </trkpt>
      <trkpt lat="47.63626" lon="-2.68323">
        <ele>5.3</ele>
        <time>2026-08-22T12:51:55Z</time>
      </trkpt>
      <trkpt lat="47.63623" lon="-2.68325">
        <ele>5.4</ele>
        <time>2026-08-22T12:51:56Z</time>
      </trkpt>
      <trkpt lat="47.63619" lon="-2.68325">
        <ele>5.5</ele>
        <time>2026-08-22T12:51:57Z</time>
      </trkpt>
      <trkpt lat="47.63616" lon="-2.68326">
        <ele>5.6</ele>
        <time>2026-08-22T12:51:58Z</time>
      </trkpt>
      <trkpt lat="47.63614" lon="-2.68328">
        <ele>5.7</ele>
        <time>2026-08-22T12:51:59Z</time>
      </trkpt>
      <trkpt lat="47.63611" lon="-2.68329">
        <ele>5.8</ele>
        <time>2026-08-22T12:52:00Z</time>
      </trkpt>
      <trkpt lat="47.63608" lon="-2.68329">
        <ele>6</ele>
        <time>2026-08-22T12:52:01Z</time>
      </trkpt>
      <trkpt lat="47.63605" lon="-2.68328">
        <ele>6.1</ele>
        <time>2026-08-22T12:52:02Z</time>
      </trkpt>
      <trkpt lat="47.63602" lon="-2.68325">
        <ele>6.1</ele>
        <time>2026-08-22T12:52:03Z</time>
      </trkpt>
      <trkpt lat="47.63598" lon="-2.68322">
        <ele>6.3</ele>
        <time>2026-08-22T12:52:04Z</time>
      </trkpt>
      <trkpt lat="47.63595" lon="-2.68319">
        <ele>6.4</ele>
        <time>2026-08-22T12:52:05Z</time>
      </trkpt>
      <trkpt lat="47.63592" lon="-2.68317">
        <ele>6.5</ele>
        <time>2026-08-22T12:52:06Z</time>
      </trkpt>
      <trkpt lat="47.63589" lon="-2.68315">
        <ele>6.7</ele>
        <time>2026-08-22T12:52:07Z</time>
      </trkpt>
      <trkpt lat="47.63586" lon="-2.68313">
        <ele>6.8</ele>
        <time>2026-08-22T12:52:08Z</time>
      </trkpt>
      <trkpt lat="47.63582" lon="-2.68312">
        <ele>7</ele>
        <time>2026-08-22T12:52:09Z</time>
      </trkpt>
      <trkpt lat="47.63579" lon="-2.68311">
        <ele>7.2</ele>
        <time>2026-08-22T12:52:10Z</time>
      </trkpt>
      <trkpt lat="47.63575" lon="-2.68311">
        <ele>7.3</ele>
        <time>2026-08-22T12:52:11Z</time>
      </trkpt>
      <trkpt lat="47.63571" lon="-2.68311">
        <ele>7.4</ele>
        <time>2026-08-22T12:52:12Z</time>
      </trkpt>
      <trkpt lat="47.63568" lon="-2.68311">
        <ele>7.6</ele>
        <time>2026-08-22T12:52:13Z</time>
      </trkpt>
      <trkpt lat="47.63564" lon="-2.68312">
        <ele>7.7</ele>
        <time>2026-08-22T12:52:14Z</time>
      </trkpt>
      <trkpt lat="47.63561" lon="-2.68313">
        <ele>7.8</ele>
        <time>2026-08-22T12:52:15Z</time>
      </trkpt>
      <trkpt lat="47.63557" lon="-2.68314">
        <ele>7.9</ele>
        <time>2026-08-22T12:52:16Z</time>
      </trkpt>
      <trkpt lat="47.63554" lon="-2.68315">
        <ele>8.1</ele>
        <time>2026-08-22T12:52:17Z</time>
      </trkpt>
      <trkpt lat="47.6355" lon="-2.68316">
        <ele>8.2</ele>
        <time>2026-08-22T12:52:18Z</time>
      </trkpt>
      <trkpt lat="47.63546" lon="-2.68318">
        <ele>8.3</ele>
        <time>2026-08-22T12:52:19Z</time>
      </trkpt>
      <trkpt lat="47.63543" lon="-2.6832">
        <ele>8.5</ele>
        <time>2026-08-22T12:52:20Z</time>
      </trkpt>
      <trkpt lat="47.63541" lon="-2.68323">
        <ele>8.5</ele>
        <time>2026-08-22T12:52:21Z</time>
      </trkpt>
      <trkpt lat="47.63539" lon="-2.68327">
        <ele>8.6</ele>
        <time>2026-08-22T12:52:22Z</time>
      </trkpt>
      <trkpt lat="47.63537" lon="-2.68331">
        <ele>8.7</ele>
        <time>2026-08-22T12:52:23Z</time>
      </trkpt>
      <trkpt lat="47.63536" lon="-2.68336">
        <ele>8.7</ele>
        <time>2026-08-22T12:52:24Z</time>
      </trkpt>
      <trkpt lat="47.63536" lon="-2.68341">
        <ele>8.7</ele>
        <time>2026-08-22T12:52:25Z</time>
      </trkpt>
      <trkpt lat="47.63536" lon="-2.68346">
        <ele>8.7</ele>
        <time>2026-08-22T12:52:26Z</time>
      </trkpt>
      <trkpt lat="47.63536" lon="-2.68351">
        <ele>8.7</ele>
        <time>2026-08-22T12:52:27Z</time>
      </trkpt>
      <trkpt lat="47.63537" lon="-2.68356">
        <ele>8.7</ele>
        <time>2026-08-22T12:52:28Z</time>
      </trkpt>
      <trkpt lat="47.63537" lon="-2.68362">
        <ele>8.7</ele>
        <time>2026-08-22T12:52:29Z</time>
      </trkpt>
      <trkpt lat="47.63538" lon="-2.68367">
        <ele>8.6</ele>
        <time>2026-08-22T12:52:30Z</time>
      </trkpt>
      <trkpt lat="47.63539" lon="-2.68373">
        <ele>8.6</ele>
        <time>2026-08-22T12:52:31Z</time>
      </trkpt>
      <trkpt lat="47.6354" lon="-2.68379">
        <ele>8.6</ele>
        <time>2026-08-22T12:52:32Z</time>
      </trkpt>
      <trkpt lat="47.6354" lon="-2.68384">
        <ele>8.6</ele>
        <time>2026-08-22T12:52:33Z</time>
      </trkpt>
      <trkpt lat="47.63541" lon="-2.6839">
        <ele>8.5</ele>
        <time>2026-08-22T12:52:34Z</time>
      </trkpt>
      <trkpt lat="47.63542" lon="-2.68396">
        <ele>8.5</ele>
        <time>2026-08-22T12:52:35Z</time>
      </trkpt>
      <trkpt lat="47.63543" lon="-2.68401">
        <ele>8.5</ele>
        <time>2026-08-22T12:52:36Z</time>
      </trkpt>
      <trkpt lat="47.63543" lon="-2.68407">
        <ele>8.5</ele>
        <time>2026-08-22T12:52:37Z</time>
      </trkpt>
      <trkpt lat="47.63544" lon="-2.68413">
        <ele>8.4</ele>
        <time>2026-08-22T12:52:38Z</time>
      </trkpt>
      <trkpt lat="47.63545" lon="-2.68419">
        <ele>8.4</ele>
        <time>2026-08-22T12:52:39Z</time>
      </trkpt>
      <trkpt lat="47.63546" lon="-2.68425">
        <ele>8.3</ele>
        <time>2026-08-22T12:52:40Z</time>
      </trkpt>
      <trkpt lat="47.63547" lon="-2.68431">
        <ele>8.3</ele>
        <time>2026-08-22T12:52:41Z</time>
      </trkpt>
      <trkpt lat="47.63548" lon="-2.68437">
        <ele>8.3</ele>
        <time>2026-08-22T12:52:42Z</time>
      </trkpt>
      <trkpt lat="47.63549" lon="-2.68443">
        <ele>8.2</ele>
        <time>2026-08-22T12:52:43Z</time>
      </trkpt>
      <trkpt lat="47.6355" lon="-2.6845">
        <ele>8</ele>
        <time>2026-08-22T12:52:44Z</time>
      </trkpt>
      <trkpt lat="47.63551" lon="-2.68456">
        <ele>7.8</ele>
        <time>2026-08-22T12:52:45Z</time>
      </trkpt>
      <trkpt lat="47.63552" lon="-2.68462">
        <ele>7.6</ele>
        <time>2026-08-22T12:52:46Z</time>
      </trkpt>
      <trkpt lat="47.63553" lon="-2.68469">
        <ele>7.3</ele>
        <time>2026-08-22T12:52:47Z</time>
      </trkpt>
      <trkpt lat="47.63554" lon="-2.68475">
        <ele>7.2</ele>
        <time>2026-08-22T12:52:48Z</time>
      </trkpt>
      <trkpt lat="47.63555" lon="-2.68482">
        <ele>7.4</ele>
        <time>2026-08-22T12:52:49Z</time>
      </trkpt>
      <trkpt lat="47.63556" lon="-2.68489">
        <ele>7.6</ele>
        <time>2026-08-22T12:52:50Z</time>
      </trkpt>
      <trkpt lat="47.63557" lon="-2.68495">
        <ele>7.7</ele>
        <time>2026-08-22T12:52:51Z</time>
      </trkpt>
      <trkpt lat="47.63558" lon="-2.68502">
        <ele>7.8</ele>
        <time>2026-08-22T12:52:52Z</time>
      </trkpt>
      <trkpt lat="47.63559" lon="-2.68508">
        <ele>7.8</ele>
        <time>2026-08-22T12:52:53Z</time>
      </trkpt>
      <trkpt lat="47.6356" lon="-2.68515">
        <ele>7.7</ele>
        <time>2026-08-22T12:52:54Z</time>
      </trkpt>
      <trkpt lat="47.63561" lon="-2.68522">
        <ele>7.6</ele>
        <time>2026-08-22T12:52:55Z</time>
      </trkpt>
      <trkpt lat="47.63562" lon="-2.68529">
        <ele>7.5</ele>
        <time>2026-08-22T12:52:56Z</time>
      </trkpt>
      <trkpt lat="47.63564" lon="-2.68536">
        <ele>7.4</ele>
        <time>2026-08-22T12:52:57Z</time>
      </trkpt>
      <trkpt lat="47.63565" lon="-2.68543">
        <ele>7.3</ele>
        <time>2026-08-22T12:52:58Z</time>
      </trkpt>
      <trkpt lat="47.63567" lon="-2.68549">
        <ele>7.2</ele>
        <time>2026-08-22T12:52:59Z</time>
      </trkpt>
      <trkpt lat="47.63569" lon="-2.68556">
        <ele>7</ele>
        <time>2026-08-22T12:53:00Z</time>
      </trkpt>
      <trkpt lat="47.6357" lon="-2.68563">
        <ele>7</ele>
        <time>2026-08-22T12:53:01Z</time>
      </trkpt>
      <trkpt lat="47.63572" lon="-2.6857">
        <ele>6.8</ele>
        <time>2026-08-22T12:53:02Z</time>
      </trkpt>
      <trkpt lat="47.63574" lon="-2.68577">
        <ele>6.7</ele>
        <time>2026-08-22T12:53:03Z</time>
      </trkpt>
      <trkpt lat="47.63576" lon="-2.68584">
        <ele>6.5</ele>
        <time>2026-08-22T12:53:04Z</time>
      </trkpt>
      <trkpt lat="47.63577" lon="-2.68591">
        <ele>6.7</ele>
        <time>2026-08-22T12:53:05Z</time>
      </trkpt>
      <trkpt lat="47.63579" lon="-2.68598">
        <ele>6.8</ele>
        <time>2026-08-22T12:53:06Z</time>
      </trkpt>
      <trkpt lat="47.63581" lon="-2.68605">
        <ele>6.9</ele>
        <time>2026-08-22T12:53:07Z</time>
      </trkpt>
      <trkpt lat="47.63584" lon="-2.68613">
        <ele>6.9</ele>
        <time>2026-08-22T12:53:08Z</time>
      </trkpt>
      <trkpt lat="47.63586" lon="-2.6862">
        <ele>6.5</ele>
        <time>2026-08-22T12:53:09Z</time>
      </trkpt>
      <trkpt lat="47.63588" lon="-2.68627">
        <ele>6.1</ele>
        <time>2026-08-22T12:53:10Z</time>
      </trkpt>
      <trkpt lat="47.6359" lon="-2.68634">
        <ele>5.9</ele>
        <time>2026-08-22T12:53:11Z</time>
      </trkpt>
      <trkpt lat="47.63592" lon="-2.68641">
        <ele>5.8</ele>
        <time>2026-08-22T12:53:12Z</time>
      </trkpt>
      <trkpt lat="47.63594" lon="-2.68648">
        <ele>5.9</ele>
        <time>2026-08-22T12:53:13Z</time>
      </trkpt>
      <trkpt lat="47.63597" lon="-2.68655">
        <ele>6.1</ele>
        <time>2026-08-22T12:53:14Z</time>
      </trkpt>
      <trkpt lat="47.63599" lon="-2.68662">
        <ele>6.3</ele>
        <time>2026-08-22T12:53:15Z</time>
      </trkpt>
      <trkpt lat="47.63601" lon="-2.68668">
        <ele>6.4</ele>
        <time>2026-08-22T12:53:16Z</time>
      </trkpt>
      <trkpt lat="47.63603" lon="-2.68675">
        <ele>6.7</ele>
        <time>2026-08-22T12:53:17Z</time>
      </trkpt>
      <trkpt lat="47.63606" lon="-2.68681">
        <ele>6.8</ele>
        <time>2026-08-22T12:53:18Z</time>
      </trkpt>
      <trkpt lat="47.63608" lon="-2.68688">
        <ele>7</ele>
        <time>2026-08-22T12:53:19Z</time>
      </trkpt>
      <trkpt lat="47.6361" lon="-2.68694">
        <ele>7.1</ele>
        <time>2026-08-22T12:53:20Z</time>
      </trkpt>
      <trkpt lat="47.63612" lon="-2.68701">
        <ele>7.4</ele>
        <time>2026-08-22T12:53:21Z</time>
      </trkpt>
      <trkpt lat="47.63615" lon="-2.68707">
        <ele>7.6</ele>
        <time>2026-08-22T12:53:22Z</time>
      </trkpt>
      <trkpt lat="47.63617" lon="-2.68712">
        <ele>7.8</ele>
        <time>2026-08-22T12:53:23Z</time>
      </trkpt>
      <trkpt lat="47.6362" lon="-2.68718">
        <ele>8.1</ele>
        <time>2026-08-22T12:53:24Z</time>
      </trkpt>
      <trkpt lat="47.63623" lon="-2.68723">
        <ele>8.2</ele>
        <time>2026-08-22T12:53:25Z</time>
      </trkpt>
      <trkpt lat="47.63626" lon="-2.68729">
        <ele>8.4</ele>
        <time>2026-08-22T12:53:26Z</time>
      </trkpt>
      <trkpt lat="47.63628" lon="-2.68735">
        <ele>8.6</ele>
        <time>2026-08-22T12:53:27Z</time>
      </trkpt>
      <trkpt lat="47.63631" lon="-2.6874">
        <ele>8.6</ele>
        <time>2026-08-22T12:53:28Z</time>
      </trkpt>
      <trkpt lat="47.63634" lon="-2.68747">
        <ele>8.6</ele>
        <time>2026-08-22T12:53:29Z</time>
      </trkpt>
      <trkpt lat="47.63637" lon="-2.68753">
        <ele>8.2</ele>
        <time>2026-08-22T12:53:30Z</time>
      </trkpt>
      <trkpt lat="47.6364" lon="-2.6876">
        <ele>7.5</ele>
        <time>2026-08-22T12:53:31Z</time>
      </trkpt>
      <trkpt lat="47.63643" lon="-2.68766">
        <ele>7.1</ele>
        <time>2026-08-22T12:53:32Z</time>
      </trkpt>
      <trkpt lat="47.63645" lon="-2.68773">
        <ele>6.7</ele>
        <time>2026-08-22T12:53:33Z</time>
      </trkpt>
      <trkpt lat="47.63647" lon="-2.6878">
        <ele>6.4</ele>
        <time>2026-08-22T12:53:34Z</time>
      </trkpt>
      <trkpt lat="47.6365" lon="-2.68786">
        <ele>6.2</ele>
        <time>2026-08-22T12:53:35Z</time>
      </trkpt>
      <trkpt lat="47.63653" lon="-2.68793">
        <ele>6</ele>
        <time>2026-08-22T12:53:36Z</time>
      </trkpt>
      <trkpt lat="47.63656" lon="-2.688">
        <ele>5.8</ele>
        <time>2026-08-22T12:53:37Z</time>
      </trkpt>
      <trkpt lat="47.6366" lon="-2.68807">
        <ele>5.5</ele>
        <time>2026-08-22T12:53:38Z</time>
      </trkpt>
      <trkpt lat="47.63664" lon="-2.68814">
        <ele>5.2</ele>
        <time>2026-08-22T12:53:39Z</time>
      </trkpt>
      <trkpt lat="47.63667" lon="-2.6882">
        <ele>5</ele>
        <time>2026-08-22T12:53:40Z</time>
      </trkpt>
      <trkpt lat="47.63671" lon="-2.68827">
        <ele>4.8</ele>
        <time>2026-08-22T12:53:41Z</time>
      </trkpt>
      <trkpt lat="47.63674" lon="-2.68834">
        <ele>4.7</ele>
        <time>2026-08-22T12:53:42Z</time>
      </trkpt>
      <trkpt lat="47.63677" lon="-2.68841">
        <ele>4.6</ele>
        <time>2026-08-22T12:53:43Z</time>
      </trkpt>
      <trkpt lat="47.63681" lon="-2.68847">
        <ele>4.5</ele>
        <time>2026-08-22T12:53:44Z</time>
      </trkpt>
      <trkpt lat="47.63684" lon="-2.68852">
        <ele>4.4</ele>
        <time>2026-08-22T12:53:45Z</time>
      </trkpt>
      <trkpt lat="47.63687" lon="-2.68858">
        <ele>4.3</ele>
        <time>2026-08-22T12:53:46Z</time>
      </trkpt>
      <trkpt lat="47.6369" lon="-2.68863">
        <ele>4.1</ele>
        <time>2026-08-22T12:53:47Z</time>
      </trkpt>
      <trkpt lat="47.63692" lon="-2.68867">
        <ele>4.1</ele>
        <time>2026-08-22T12:53:48Z</time>
      </trkpt>
      <trkpt lat="47.63695" lon="-2.6887">
        <ele>4</ele>
        <time>2026-08-22T12:53:49Z</time>
      </trkpt>
      <trkpt lat="47.63698" lon="-2.68874">
        <ele>4</ele>
        <time>2026-08-22T12:53:50Z</time>
      </trkpt>
      <trkpt lat="47.63701" lon="-2.68877">
        <ele>4</ele>
        <time>2026-08-22T12:53:51Z</time>
      </trkpt>
      <trkpt lat="47.63704" lon="-2.68882">
        <ele>4</ele>
        <time>2026-08-22T12:53:52Z</time>
      </trkpt>
      <trkpt lat="47.63708" lon="-2.68887">
        <ele>4</ele>
        <time>2026-08-22T12:53:53Z</time>
      </trkpt>
      <trkpt lat="47.63711" lon="-2.68892">
        <ele>4</ele>
        <time>2026-08-22T12:53:54Z</time>
      </trkpt>
      <trkpt lat="47.63714" lon="-2.68897">
        <ele>4</ele>
        <time>2026-08-22T12:53:55Z</time>
      </trkpt>
      <trkpt lat="47.63718" lon="-2.68902">
        <ele>4</ele>
        <time>2026-08-22T12:53:56Z</time>
      </trkpt>
      <trkpt lat="47.63721" lon="-2.68908">
        <ele>4</ele>
        <time>2026-08-22T12:53:57Z</time>
      </trkpt>
      <trkpt lat="47.63724" lon="-2.68913">
        <ele>4</ele>
        <time>2026-08-22T12:53:58Z</time>
      </trkpt>
      <trkpt lat="47.63728" lon="-2.68918">
        <ele>3.8</ele>
        <time>2026-08-22T12:53:59Z</time>
      </trkpt>
      <trkpt lat="47.63731" lon="-2.68924">
        <ele>3.5</ele>
        <time>2026-08-22T12:54:00Z</time>
      </trkpt>
      <trkpt lat="47.63734" lon="-2.68929">
        <ele>3.3</ele>
        <time>2026-08-22T12:54:01Z</time>
      </trkpt>
      <trkpt lat="47.63737" lon="-2.68934">
        <ele>3.2</ele>
        <time>2026-08-22T12:54:02Z</time>
      </trkpt>
      <trkpt lat="47.63741" lon="-2.68939">
        <ele>3.1</ele>
        <time>2026-08-22T12:54:03Z</time>
      </trkpt>
      <trkpt lat="47.63744" lon="-2.68944">
        <ele>3</ele>
        <time>2026-08-22T12:54:04Z</time>
      </trkpt>
      <trkpt lat="47.63748" lon="-2.68949">
        <ele>3</ele>
        <time>2026-08-22T12:54:05Z</time>
      </trkpt>
      <trkpt lat="47.63751" lon="-2.68954">
        <ele>3</ele>
        <time>2026-08-22T12:54:06Z</time>
      </trkpt>
      <trkpt lat="47.63755" lon="-2.68959">
        <ele>2.9</ele>
        <time>2026-08-22T12:54:07Z</time>
      </trkpt>
      <trkpt lat="47.63759" lon="-2.68964">
        <ele>2.8</ele>
        <time>2026-08-22T12:54:08Z</time>
      </trkpt>
      <trkpt lat="47.63763" lon="-2.68969">
        <ele>2.6</ele>
        <time>2026-08-22T12:54:09Z</time>
      </trkpt>
      <trkpt lat="47.63767" lon="-2.68973">
        <ele>2.4</ele>
        <time>2026-08-22T12:54:10Z</time>
      </trkpt>
      <trkpt lat="47.63771" lon="-2.68978">
        <ele>2.4</ele>
        <time>2026-08-22T12:54:11Z</time>
      </trkpt>
      <trkpt lat="47.63775" lon="-2.68983">
        <ele>2.4</ele>
        <time>2026-08-22T12:54:12Z</time>
      </trkpt>
      <trkpt lat="47.63779" lon="-2.68988">
        <ele>2.6</ele>
        <time>2026-08-22T12:54:13Z</time>
      </trkpt>
      <trkpt lat="47.63783" lon="-2.68993">
        <ele>2.8</ele>
        <time>2026-08-22T12:54:14Z</time>
      </trkpt>
      <trkpt lat="47.63787" lon="-2.68997">
        <ele>2.9</ele>
        <time>2026-08-22T12:54:15Z</time>
      </trkpt>
      <trkpt lat="47.63791" lon="-2.69002">
        <ele>3</ele>
        <time>2026-08-22T12:54:16Z</time>
      </trkpt>
      <trkpt lat="47.63795" lon="-2.69006">
        <ele>3</ele>
        <time>2026-08-22T12:54:17Z</time>
      </trkpt>
      <trkpt lat="47.63799" lon="-2.6901">
        <ele>3</ele>
        <time>2026-08-22T12:54:18Z</time>
      </trkpt>
      <trkpt lat="47.63803" lon="-2.69014">
        <ele>3</ele>
        <time>2026-08-22T12:54:19Z</time>
      </trkpt>
      <trkpt lat="47.63807" lon="-2.69019">
        <ele>3</ele>
        <time>2026-08-22T12:54:20Z</time>
      </trkpt>
      <trkpt lat="47.63812" lon="-2.69023">
        <ele>3</ele>
        <time>2026-08-22T12:54:21Z</time>
      </trkpt>
      <trkpt lat="47.63816" lon="-2.69026">
        <ele>3</ele>
        <time>2026-08-22T12:54:22Z</time>
      </trkpt>
      <trkpt lat="47.6382" lon="-2.6903">
        <ele>3</ele>
        <time>2026-08-22T12:54:23Z</time>
      </trkpt>
      <trkpt lat="47.63824" lon="-2.69034">
        <ele>3</ele>
        <time>2026-08-22T12:54:24Z</time>
      </trkpt>
      <trkpt lat="47.63828" lon="-2.69038">
        <ele>3</ele>
        <time>2026-08-22T12:54:25Z</time>
      </trkpt>
      <trkpt lat="47.63832" lon="-2.69041">
        <ele>3</ele>
        <time>2026-08-22T12:54:26Z</time>
      </trkpt>
      <trkpt lat="47.63836" lon="-2.69045">
        <ele>3.1</ele>
        <time>2026-08-22T12:54:27Z</time>
      </trkpt>
      <trkpt lat="47.6384" lon="-2.69049">
        <ele>3.2</ele>
        <time>2026-08-22T12:54:28Z</time>
      </trkpt>
      <trkpt lat="47.63844" lon="-2.69053">
        <ele>3.3</ele>
        <time>2026-08-22T12:54:29Z</time>
      </trkpt>
      <trkpt lat="47.63848" lon="-2.69056">
        <ele>3.5</ele>
        <time>2026-08-22T12:54:30Z</time>
      </trkpt>
      <trkpt lat="47.63852" lon="-2.6906">
        <ele>3.7</ele>
        <time>2026-08-22T12:54:31Z</time>
      </trkpt>
      <trkpt lat="47.63856" lon="-2.69064">
        <ele>3.8</ele>
        <time>2026-08-22T12:54:32Z</time>
      </trkpt>
      <trkpt lat="47.6386" lon="-2.69068">
        <ele>4</ele>
        <time>2026-08-22T12:54:33Z</time>
      </trkpt>
      <trkpt lat="47.63864" lon="-2.69072">
        <ele>4</ele>
        <time>2026-08-22T12:54:34Z</time>
      </trkpt>
      <trkpt lat="47.63868" lon="-2.69076">
        <ele>4</ele>
        <time>2026-08-22T12:54:35Z</time>
      </trkpt>
      <trkpt lat="47.63872" lon="-2.6908">
        <ele>4</ele>
        <time>2026-08-22T12:54:36Z</time>
      </trkpt>
      <trkpt lat="47.63876" lon="-2.69084">
        <ele>4</ele>
        <time>2026-08-22T12:54:37Z</time>
      </trkpt>
      <trkpt lat="47.6388" lon="-2.69088">
        <ele>3.9</ele>
        <time>2026-08-22T12:54:38Z</time>
      </trkpt>
      <trkpt lat="47.63884" lon="-2.69091">
        <ele>4</ele>
        <time>2026-08-22T12:54:39Z</time>
      </trkpt>
      <trkpt lat="47.63887" lon="-2.69095">
        <ele>4</ele>
        <time>2026-08-22T12:54:40Z</time>
      </trkpt>
      <trkpt lat="47.63891" lon="-2.69099">
        <ele>4</ele>
        <time>2026-08-22T12:54:41Z</time>
      </trkpt>
      <trkpt lat="47.63895" lon="-2.69104">
        <ele>4</ele>
        <time>2026-08-22T12:54:42Z</time>
      </trkpt>
      <trkpt lat="47.63899" lon="-2.69108">
        <ele>4</ele>
        <time>2026-08-22T12:54:43Z</time>
      </trkpt>
      <trkpt lat="47.63902" lon="-2.69112">
        <ele>4</ele>
        <time>2026-08-22T12:54:44Z</time>
      </trkpt>
      <trkpt lat="47.63906" lon="-2.69117">
        <ele>4</ele>
        <time>2026-08-22T12:54:45Z</time>
      </trkpt>
      <trkpt lat="47.63909" lon="-2.69122">
        <ele>4</ele>
        <time>2026-08-22T12:54:46Z</time>
      </trkpt>
      <trkpt lat="47.63912" lon="-2.69127">
        <ele>4</ele>
        <time>2026-08-22T12:54:47Z</time>
      </trkpt>
      <trkpt lat="47.63915" lon="-2.69133">
        <ele>4</ele>
        <time>2026-08-22T12:54:48Z</time>
      </trkpt>
      <trkpt lat="47.63918" lon="-2.69138">
        <ele>4</ele>
        <time>2026-08-22T12:54:49Z</time>
      </trkpt>
      <trkpt lat="47.63921" lon="-2.69144">
        <ele>4.2</ele>
        <time>2026-08-22T12:54:50Z</time>
      </trkpt>
      <trkpt lat="47.63924" lon="-2.6915">
        <ele>4.3</ele>
        <time>2026-08-22T12:54:51Z</time>
      </trkpt>
      <trkpt lat="47.63926" lon="-2.69156">
        <ele>4.3</ele>
        <time>2026-08-22T12:54:52Z</time>
      </trkpt>
      <trkpt lat="47.63929" lon="-2.69161">
        <ele>4.4</ele>
        <time>2026-08-22T12:54:53Z</time>
      </trkpt>
      <trkpt lat="47.63931" lon="-2.69166">
        <ele>4.5</ele>
        <time>2026-08-22T12:54:54Z</time>
      </trkpt>
      <trkpt lat="47.63934" lon="-2.69172">
        <ele>4.6</ele>
        <time>2026-08-22T12:54:55Z</time>
      </trkpt>
      <trkpt lat="47.63936" lon="-2.69178">
        <ele>4.7</ele>
        <time>2026-08-22T12:54:56Z</time>
      </trkpt>
      <trkpt lat="47.63938" lon="-2.69184">
        <ele>4.8</ele>
        <time>2026-08-22T12:54:57Z</time>
      </trkpt>
      <trkpt lat="47.6394" lon="-2.6919">
        <ele>4.8</ele>
        <time>2026-08-22T12:54:58Z</time>
      </trkpt>
      <trkpt lat="47.63942" lon="-2.69196">
        <ele>4.9</ele>
        <time>2026-08-22T12:54:59Z</time>
      </trkpt>
      <trkpt lat="47.63943" lon="-2.69203">
        <ele>4.7</ele>
        <time>2026-08-22T12:55:00Z</time>
      </trkpt>
      <trkpt lat="47.63944" lon="-2.6921">
        <ele>4.4</ele>
        <time>2026-08-22T12:55:01Z</time>
      </trkpt>
      <trkpt lat="47.63946" lon="-2.69217">
        <ele>4.2</ele>
        <time>2026-08-22T12:55:02Z</time>
      </trkpt>
      <trkpt lat="47.63947" lon="-2.69224">
        <ele>4.1</ele>
        <time>2026-08-22T12:55:03Z</time>
      </trkpt>
      <trkpt lat="47.63948" lon="-2.69231">
        <ele>4.1</ele>
        <time>2026-08-22T12:55:04Z</time>
      </trkpt>
      <trkpt lat="47.63949" lon="-2.69238">
        <ele>4.2</ele>
        <time>2026-08-22T12:55:05Z</time>
      </trkpt>
      <trkpt lat="47.6395" lon="-2.69245">
        <ele>4.2</ele>
        <time>2026-08-22T12:55:06Z</time>
      </trkpt>
      <trkpt lat="47.63951" lon="-2.69253">
        <ele>4.2</ele>
        <time>2026-08-22T12:55:07Z</time>
      </trkpt>
      <trkpt lat="47.63952" lon="-2.6926">
        <ele>4.3</ele>
        <time>2026-08-22T12:55:08Z</time>
      </trkpt>
      <trkpt lat="47.63953" lon="-2.69267">
        <ele>4.3</ele>
        <time>2026-08-22T12:55:09Z</time>
      </trkpt>
      <trkpt lat="47.63953" lon="-2.69274">
        <ele>4.3</ele>
        <time>2026-08-22T12:55:10Z</time>
      </trkpt>
      <trkpt lat="47.63954" lon="-2.69281">
        <ele>4.3</ele>
        <time>2026-08-22T12:55:11Z</time>
      </trkpt>
      <trkpt lat="47.63954" lon="-2.69288">
        <ele>4.3</ele>
        <time>2026-08-22T12:55:12Z</time>
      </trkpt>
      <trkpt lat="47.63954" lon="-2.69295">
        <ele>4.3</ele>
        <time>2026-08-22T12:55:13Z</time>
      </trkpt>
      <trkpt lat="47.63954" lon="-2.69302">
        <ele>4.3</ele>
        <time>2026-08-22T12:55:14Z</time>
      </trkpt>
      <trkpt lat="47.63954" lon="-2.69309">
        <ele>4.3</ele>
        <time>2026-08-22T12:55:15Z</time>
      </trkpt>
      <trkpt lat="47.63954" lon="-2.69316">
        <ele>4.3</ele>
        <time>2026-08-22T12:55:16Z</time>
      </trkpt>
      <trkpt lat="47.63954" lon="-2.69323">
        <ele>4.3</ele>
        <time>2026-08-22T12:55:17Z</time>
      </trkpt>
      <trkpt lat="47.63953" lon="-2.6933">
        <ele>4.3</ele>
        <time>2026-08-22T12:55:18Z</time>
      </trkpt>
      <trkpt lat="47.63953" lon="-2.69336">
        <ele>4.3</ele>
        <time>2026-08-22T12:55:19Z</time>
      </trkpt>
      <trkpt lat="47.63952" lon="-2.69343">
        <ele>4.3</ele>
        <time>2026-08-22T12:55:20Z</time>
      </trkpt>
      <trkpt lat="47.63952" lon="-2.69351">
        <ele>4.3</ele>
        <time>2026-08-22T12:55:21Z</time>
      </trkpt>
      <trkpt lat="47.63951" lon="-2.69358">
        <ele>4.2</ele>
        <time>2026-08-22T12:55:22Z</time>
      </trkpt>
      <trkpt lat="47.63951" lon="-2.69365">
        <ele>4.4</ele>
        <time>2026-08-22T12:55:23Z</time>
      </trkpt>
      <trkpt lat="47.6395" lon="-2.69372">
        <ele>4.6</ele>
        <time>2026-08-22T12:55:24Z</time>
      </trkpt>
      <trkpt lat="47.63949" lon="-2.69379">
        <ele>4.8</ele>
        <time>2026-08-22T12:55:25Z</time>
      </trkpt>
      <trkpt lat="47.63948" lon="-2.69385">
        <ele>5</ele>
        <time>2026-08-22T12:55:26Z</time>
      </trkpt>
      <trkpt lat="47.63947" lon="-2.69392">
        <ele>5.1</ele>
        <time>2026-08-22T12:55:27Z</time>
      </trkpt>
      <trkpt lat="47.63947" lon="-2.69399">
        <ele>5.1</ele>
        <time>2026-08-22T12:55:28Z</time>
      </trkpt>
      <trkpt lat="47.63946" lon="-2.69406">
        <ele>5.1</ele>
        <time>2026-08-22T12:55:29Z</time>
      </trkpt>
      <trkpt lat="47.63945" lon="-2.69413">
        <ele>5</ele>
        <time>2026-08-22T12:55:30Z</time>
      </trkpt>
      <trkpt lat="47.63944" lon="-2.6942">
        <ele>5</ele>
        <time>2026-08-22T12:55:31Z</time>
      </trkpt>
      <trkpt lat="47.63943" lon="-2.69427">
        <ele>4.9</ele>
        <time>2026-08-22T12:55:32Z</time>
      </trkpt>
      <trkpt lat="47.63942" lon="-2.69434">
        <ele>4.9</ele>
        <time>2026-08-22T12:55:33Z</time>
      </trkpt>
      <trkpt lat="47.63941" lon="-2.69442">
        <ele>4.9</ele>
        <time>2026-08-22T12:55:34Z</time>
      </trkpt>
      <trkpt lat="47.6394" lon="-2.69449">
        <ele>4.8</ele>
        <time>2026-08-22T12:55:35Z</time>
      </trkpt>
      <trkpt lat="47.63939" lon="-2.69456">
        <ele>4.8</ele>
        <time>2026-08-22T12:55:36Z</time>
      </trkpt>
      <trkpt lat="47.63938" lon="-2.69463">
        <ele>4.8</ele>
        <time>2026-08-22T12:55:37Z</time>
      </trkpt>
      <trkpt lat="47.63937" lon="-2.69471">
        <ele>4.7</ele>
        <time>2026-08-22T12:55:38Z</time>
      </trkpt>
      <trkpt lat="47.63937" lon="-2.69478">
        <ele>4.7</ele>
        <time>2026-08-22T12:55:39Z</time>
      </trkpt>
      <trkpt lat="47.63936" lon="-2.69485">
        <ele>4.7</ele>
        <time>2026-08-22T12:55:40Z</time>
      </trkpt>
      <trkpt lat="47.63935" lon="-2.69493">
        <ele>4.7</ele>
        <time>2026-08-22T12:55:41Z</time>
      </trkpt>
      <trkpt lat="47.63934" lon="-2.695">
        <ele>4.6</ele>
        <time>2026-08-22T12:55:42Z</time>
      </trkpt>
      <trkpt lat="47.63933" lon="-2.69507">
        <ele>4.7</ele>
        <time>2026-08-22T12:55:43Z</time>
      </trkpt>
      <trkpt lat="47.63932" lon="-2.69514">
        <ele>4.8</ele>
        <time>2026-08-22T12:55:44Z</time>
      </trkpt>
      <trkpt lat="47.63931" lon="-2.69521">
        <ele>4.9</ele>
        <time>2026-08-22T12:55:45Z</time>
      </trkpt>
      <trkpt lat="47.6393" lon="-2.69528">
        <ele>5</ele>
        <time>2026-08-22T12:55:46Z</time>
      </trkpt>
      <trkpt lat="47.6393" lon="-2.69535">
        <ele>4.9</ele>
        <time>2026-08-22T12:55:47Z</time>
      </trkpt>
      <trkpt lat="47.63929" lon="-2.69541">
        <ele>4.7</ele>
        <time>2026-08-22T12:55:48Z</time>
      </trkpt>
      <trkpt lat="47.63928" lon="-2.69548">
        <ele>4.6</ele>
        <time>2026-08-22T12:55:49Z</time>
      </trkpt>
      <trkpt lat="47.63928" lon="-2.69555">
        <ele>4.4</ele>
        <time>2026-08-22T12:55:50Z</time>
      </trkpt>
      <trkpt lat="47.63927" lon="-2.69563">
        <ele>4.4</ele>
        <time>2026-08-22T12:55:51Z</time>
      </trkpt>
      <trkpt lat="47.63927" lon="-2.6957">
        <ele>4.4</ele>
        <time>2026-08-22T12:55:52Z</time>
      </trkpt>
      <trkpt lat="47.63926" lon="-2.69577">
        <ele>4.3</ele>
        <time>2026-08-22T12:55:53Z</time>
      </trkpt>
      <trkpt lat="47.63925" lon="-2.69584">
        <ele>4.3</ele>
        <time>2026-08-22T12:55:54Z</time>
      </trkpt>
      <trkpt lat="47.63924" lon="-2.69591">
        <ele>4.3</ele>
        <time>2026-08-22T12:55:55Z</time>
      </trkpt>
      <trkpt lat="47.63924" lon="-2.69598">
        <ele>4.3</ele>
        <time>2026-08-22T12:55:56Z</time>
      </trkpt>
      <trkpt lat="47.63923" lon="-2.69605">
        <ele>4.2</ele>
        <time>2026-08-22T12:55:57Z</time>
      </trkpt>
      <trkpt lat="47.63923" lon="-2.69612">
        <ele>4.2</ele>
        <time>2026-08-22T12:55:58Z</time>
      </trkpt>
      <trkpt lat="47.63922" lon="-2.69619">
        <ele>4.2</ele>
        <time>2026-08-22T12:55:59Z</time>
      </trkpt>
      <trkpt lat="47.63921" lon="-2.69626">
        <ele>4.2</ele>
        <time>2026-08-22T12:56:00Z</time>
      </trkpt>
      <trkpt lat="47.6392" lon="-2.69632">
        <ele>4.1</ele>
        <time>2026-08-22T12:56:01Z</time>
      </trkpt>
      <trkpt lat="47.6392" lon="-2.6964">
        <ele>4.1</ele>
        <time>2026-08-22T12:56:02Z</time>
      </trkpt>
      <trkpt lat="47.63919" lon="-2.69648">
        <ele>4.1</ele>
        <time>2026-08-22T12:56:03Z</time>
      </trkpt>
      <trkpt lat="47.63918" lon="-2.69655">
        <ele>4</ele>
        <time>2026-08-22T12:56:04Z</time>
      </trkpt>
      <trkpt lat="47.63918" lon="-2.69662">
        <ele>4</ele>
        <time>2026-08-22T12:56:05Z</time>
      </trkpt>
      <trkpt lat="47.63917" lon="-2.69669">
        <ele>4.1</ele>
        <time>2026-08-22T12:56:06Z</time>
      </trkpt>
      <trkpt lat="47.63916" lon="-2.69676">
        <ele>4.3</ele>
        <time>2026-08-22T12:56:07Z</time>
      </trkpt>
      <trkpt lat="47.63915" lon="-2.69683">
        <ele>4.6</ele>
        <time>2026-08-22T12:56:08Z</time>
      </trkpt>
      <trkpt lat="47.63915" lon="-2.6969">
        <ele>4.8</ele>
        <time>2026-08-22T12:56:09Z</time>
      </trkpt>
      <trkpt lat="47.63914" lon="-2.69697">
        <ele>4.9</ele>
        <time>2026-08-22T12:56:10Z</time>
      </trkpt>
      <trkpt lat="47.63914" lon="-2.69704">
        <ele>4.9</ele>
        <time>2026-08-22T12:56:11Z</time>
      </trkpt>
      <trkpt lat="47.63913" lon="-2.69711">
        <ele>4.9</ele>
        <time>2026-08-22T12:56:12Z</time>
      </trkpt>
      <trkpt lat="47.63913" lon="-2.69719">
        <ele>4.9</ele>
        <time>2026-08-22T12:56:13Z</time>
      </trkpt>
      <trkpt lat="47.63912" lon="-2.69725">
        <ele>4.8</ele>
        <time>2026-08-22T12:56:14Z</time>
      </trkpt>
      <trkpt lat="47.63913" lon="-2.69731">
        <ele>4.9</ele>
        <time>2026-08-22T12:56:15Z</time>
      </trkpt>
      <trkpt lat="47.63913" lon="-2.69738">
        <ele>4.9</ele>
        <time>2026-08-22T12:56:16Z</time>
      </trkpt>
      <trkpt lat="47.63913" lon="-2.69745">
        <ele>4.9</ele>
        <time>2026-08-22T12:56:17Z</time>
      </trkpt>
      <trkpt lat="47.63913" lon="-2.69752">
        <ele>4.9</ele>
        <time>2026-08-22T12:56:18Z</time>
      </trkpt>
      <trkpt lat="47.63913" lon="-2.69759">
        <ele>4.9</ele>
        <time>2026-08-22T12:56:19Z</time>
      </trkpt>
      <trkpt lat="47.63913" lon="-2.69767">
        <ele>4.9</ele>
        <time>2026-08-22T12:56:20Z</time>
      </trkpt>
      <trkpt lat="47.63914" lon="-2.69774">
        <ele>4.9</ele>
        <time>2026-08-22T12:56:21Z</time>
      </trkpt>
      <trkpt lat="47.63914" lon="-2.69781">
        <ele>4.9</ele>
        <time>2026-08-22T12:56:22Z</time>
      </trkpt>
      <trkpt lat="47.63914" lon="-2.69788">
        <ele>4.9</ele>
        <time>2026-08-22T12:56:23Z</time>
      </trkpt>
      <trkpt lat="47.63915" lon="-2.69795">
        <ele>4.9</ele>
        <time>2026-08-22T12:56:24Z</time>
      </trkpt>
      <trkpt lat="47.63915" lon="-2.69802">
        <ele>4.9</ele>
        <time>2026-08-22T12:56:25Z</time>
      </trkpt>
      <trkpt lat="47.63916" lon="-2.69809">
        <ele>5</ele>
        <time>2026-08-22T12:56:26Z</time>
      </trkpt>
      <trkpt lat="47.63917" lon="-2.69816">
        <ele>5</ele>
        <time>2026-08-22T12:56:27Z</time>
      </trkpt>
      <trkpt lat="47.63918" lon="-2.69823">
        <ele>5.1</ele>
        <time>2026-08-22T12:56:28Z</time>
      </trkpt>
      <trkpt lat="47.63919" lon="-2.6983">
        <ele>5.2</ele>
        <time>2026-08-22T12:56:29Z</time>
      </trkpt>
      <trkpt lat="47.6392" lon="-2.69837">
        <ele>5.2</ele>
        <time>2026-08-22T12:56:30Z</time>
      </trkpt>
      <trkpt lat="47.63922" lon="-2.69844">
        <ele>5.3</ele>
        <time>2026-08-22T12:56:31Z</time>
      </trkpt>
      <trkpt lat="47.63923" lon="-2.69851">
        <ele>5.3</ele>
        <time>2026-08-22T12:56:32Z</time>
      </trkpt>
      <trkpt lat="47.63924" lon="-2.69857">
        <ele>5.3</ele>
        <time>2026-08-22T12:56:33Z</time>
      </trkpt>
      <trkpt lat="47.63926" lon="-2.69864">
        <ele>5.3</ele>
        <time>2026-08-22T12:56:34Z</time>
      </trkpt>
      <trkpt lat="47.63927" lon="-2.69871">
        <ele>5.4</ele>
        <time>2026-08-22T12:56:35Z</time>
      </trkpt>
      <trkpt lat="47.63929" lon="-2.69877">
        <ele>5.4</ele>
        <time>2026-08-22T12:56:36Z</time>
      </trkpt>
      <trkpt lat="47.6393" lon="-2.69884">
        <ele>5.5</ele>
        <time>2026-08-22T12:56:37Z</time>
      </trkpt>
      <trkpt lat="47.63932" lon="-2.6989">
        <ele>5.6</ele>
        <time>2026-08-22T12:56:38Z</time>
      </trkpt>
      <trkpt lat="47.63933" lon="-2.69897">
        <ele>5.6</ele>
        <time>2026-08-22T12:56:39Z</time>
      </trkpt>
      <trkpt lat="47.63935" lon="-2.69903">
        <ele>5.7</ele>
        <time>2026-08-22T12:56:40Z</time>
      </trkpt>
      <trkpt lat="47.63937" lon="-2.6991">
        <ele>5.7</ele>
        <time>2026-08-22T12:56:41Z</time>
      </trkpt>
      <trkpt lat="47.63939" lon="-2.69916">
        <ele>5.8</ele>
        <time>2026-08-22T12:56:42Z</time>
      </trkpt>
      <trkpt lat="47.63941" lon="-2.69923">
        <ele>5.9</ele>
        <time>2026-08-22T12:56:43Z</time>
      </trkpt>
      <trkpt lat="47.63944" lon="-2.69929">
        <ele>6</ele>
        <time>2026-08-22T12:56:44Z</time>
      </trkpt>
      <trkpt lat="47.63945" lon="-2.69935">
        <ele>6</ele>
        <time>2026-08-22T12:56:45Z</time>
      </trkpt>
      <trkpt lat="47.63948" lon="-2.69941">
        <ele>6.3</ele>
        <time>2026-08-22T12:56:46Z</time>
      </trkpt>
      <trkpt lat="47.6395" lon="-2.69947">
        <ele>6.4</ele>
        <time>2026-08-22T12:56:47Z</time>
      </trkpt>
      <trkpt lat="47.63952" lon="-2.69953">
        <ele>6.5</ele>
        <time>2026-08-22T12:56:48Z</time>
      </trkpt>
      <trkpt lat="47.63954" lon="-2.69958">
        <ele>6.5</ele>
        <time>2026-08-22T12:56:49Z</time>
      </trkpt>
      <trkpt lat="47.63956" lon="-2.69964">
        <ele>6.5</ele>
        <time>2026-08-22T12:56:50Z</time>
      </trkpt>
      <trkpt lat="47.63959" lon="-2.69969">
        <ele>6.6</ele>
        <time>2026-08-22T12:56:51Z</time>
      </trkpt>
      <trkpt lat="47.63962" lon="-2.69974">
        <ele>6.6</ele>
        <time>2026-08-22T12:56:52Z</time>
      </trkpt>
      <trkpt lat="47.63965" lon="-2.6998">
        <ele>6.7</ele>
        <time>2026-08-22T12:56:53Z</time>
      </trkpt>
      <trkpt lat="47.63967" lon="-2.69985">
        <ele>6.8</ele>
        <time>2026-08-22T12:56:54Z</time>
      </trkpt>
      <trkpt lat="47.6397" lon="-2.6999">
        <ele>6.9</ele>
        <time>2026-08-22T12:56:55Z</time>
      </trkpt>
      <trkpt lat="47.63973" lon="-2.69996">
        <ele>7</ele>
        <time>2026-08-22T12:56:56Z</time>
      </trkpt>
      <trkpt lat="47.63976" lon="-2.70001">
        <ele>7.1</ele>
        <time>2026-08-22T12:56:57Z</time>
      </trkpt>
      <trkpt lat="47.63979" lon="-2.70007">
        <ele>7</ele>
        <time>2026-08-22T12:56:58Z</time>
      </trkpt>
      <trkpt lat="47.63982" lon="-2.70012">
        <ele>6.9</ele>
        <time>2026-08-22T12:56:59Z</time>
      </trkpt>
      <trkpt lat="47.63986" lon="-2.70017">
        <ele>6.9</ele>
        <time>2026-08-22T12:57:00Z</time>
      </trkpt>
      <trkpt lat="47.63989" lon="-2.70023">
        <ele>6.8</ele>
        <time>2026-08-22T12:57:01Z</time>
      </trkpt>
      <trkpt lat="47.63992" lon="-2.70028">
        <ele>6.7</ele>
        <time>2026-08-22T12:57:02Z</time>
      </trkpt>
      <trkpt lat="47.63995" lon="-2.70033">
        <ele>6.7</ele>
        <time>2026-08-22T12:57:03Z</time>
      </trkpt>
      <trkpt lat="47.63999" lon="-2.70038">
        <ele>6.6</ele>
        <time>2026-08-22T12:57:04Z</time>
      </trkpt>
      <trkpt lat="47.64002" lon="-2.70043">
        <ele>6.5</ele>
        <time>2026-08-22T12:57:05Z</time>
      </trkpt>
      <trkpt lat="47.64005" lon="-2.70048">
        <ele>6.5</ele>
        <time>2026-08-22T12:57:06Z</time>
      </trkpt>
      <trkpt lat="47.64009" lon="-2.70053">
        <ele>6.4</ele>
        <time>2026-08-22T12:57:07Z</time>
      </trkpt>
      <trkpt lat="47.64013" lon="-2.70058">
        <ele>6.4</ele>
        <time>2026-08-22T12:57:08Z</time>
      </trkpt>
      <trkpt lat="47.64017" lon="-2.70064">
        <ele>6.3</ele>
        <time>2026-08-22T12:57:09Z</time>
      </trkpt>
      <trkpt lat="47.64021" lon="-2.70069">
        <ele>6.3</ele>
        <time>2026-08-22T12:57:10Z</time>
      </trkpt>
      <trkpt lat="47.64024" lon="-2.70074">
        <ele>6.2</ele>
        <time>2026-08-22T12:57:11Z</time>
      </trkpt>
      <trkpt lat="47.64028" lon="-2.7008">
        <ele>6.1</ele>
        <time>2026-08-22T12:57:12Z</time>
      </trkpt>
      <trkpt lat="47.64031" lon="-2.70085">
        <ele>5.8</ele>
        <time>2026-08-22T12:57:13Z</time>
      </trkpt>
      <trkpt lat="47.64035" lon="-2.7009">
        <ele>5.6</ele>
        <time>2026-08-22T12:57:14Z</time>
      </trkpt>
      <trkpt lat="47.64039" lon="-2.70095">
        <ele>5.3</ele>
        <time>2026-08-22T12:57:15Z</time>
      </trkpt>
      <trkpt lat="47.64043" lon="-2.70101">
        <ele>5.2</ele>
        <time>2026-08-22T12:57:16Z</time>
      </trkpt>
      <trkpt lat="47.64046" lon="-2.70106">
        <ele>5.1</ele>
        <time>2026-08-22T12:57:17Z</time>
      </trkpt>
      <trkpt lat="47.6405" lon="-2.70111">
        <ele>5</ele>
        <time>2026-08-22T12:57:18Z</time>
      </trkpt>
      <trkpt lat="47.64054" lon="-2.70117">
        <ele>4.8</ele>
        <time>2026-08-22T12:57:19Z</time>
      </trkpt>
      <trkpt lat="47.64058" lon="-2.70122">
        <ele>4.6</ele>
        <time>2026-08-22T12:57:20Z</time>
      </trkpt>
      <trkpt lat="47.64062" lon="-2.70128">
        <ele>4.3</ele>
        <time>2026-08-22T12:57:21Z</time>
      </trkpt>
      <trkpt lat="47.64066" lon="-2.70133">
        <ele>4.1</ele>
        <time>2026-08-22T12:57:22Z</time>
      </trkpt>
      <trkpt lat="47.6407" lon="-2.70139">
        <ele>4</ele>
        <time>2026-08-22T12:57:23Z</time>
      </trkpt>
      <trkpt lat="47.64074" lon="-2.70144">
        <ele>4</ele>
        <time>2026-08-22T12:57:24Z</time>
      </trkpt>
      <trkpt lat="47.64078" lon="-2.7015">
        <ele>4</ele>
        <time>2026-08-22T12:57:25Z</time>
      </trkpt>
      <trkpt lat="47.64081" lon="-2.70155">
        <ele>4</ele>
        <time>2026-08-22T12:57:26Z</time>
      </trkpt>
      <trkpt lat="47.64085" lon="-2.7016">
        <ele>4</ele>
        <time>2026-08-22T12:57:27Z</time>
      </trkpt>
      <trkpt lat="47.64089" lon="-2.70165">
        <ele>4</ele>
        <time>2026-08-22T12:57:28Z</time>
      </trkpt>
      <trkpt lat="47.64092" lon="-2.70171">
        <ele>4</ele>
        <time>2026-08-22T12:57:29Z</time>
      </trkpt>
      <trkpt lat="47.64096" lon="-2.70176">
        <ele>4</ele>
        <time>2026-08-22T12:57:30Z</time>
      </trkpt>
      <trkpt lat="47.641" lon="-2.70182">
        <ele>4</ele>
        <time>2026-08-22T12:57:31Z</time>
      </trkpt>
      <trkpt lat="47.64103" lon="-2.70187">
        <ele>4</ele>
        <time>2026-08-22T12:57:32Z</time>
      </trkpt>
      <trkpt lat="47.64107" lon="-2.70192">
        <ele>4</ele>
        <time>2026-08-22T12:57:33Z</time>
      </trkpt>
      <trkpt lat="47.6411" lon="-2.70198">
        <ele>4</ele>
        <time>2026-08-22T12:57:34Z</time>
      </trkpt>
      <trkpt lat="47.64114" lon="-2.70203">
        <ele>4</ele>
        <time>2026-08-22T12:57:35Z</time>
      </trkpt>
      <trkpt lat="47.64117" lon="-2.70207">
        <ele>4</ele>
        <time>2026-08-22T12:57:36Z</time>
      </trkpt>
      <trkpt lat="47.6412" lon="-2.70212">
        <ele>4</ele>
        <time>2026-08-22T12:57:37Z</time>
      </trkpt>
      <trkpt lat="47.64123" lon="-2.70216">
        <ele>4</ele>
        <time>2026-08-22T12:57:38Z</time>
      </trkpt>
      <trkpt lat="47.64126" lon="-2.70221">
        <ele>4</ele>
        <time>2026-08-22T12:57:39Z</time>
      </trkpt>
      <trkpt lat="47.6413" lon="-2.70227">
        <ele>4.1</ele>
        <time>2026-08-22T12:57:40Z</time>
      </trkpt>
      <trkpt lat="47.64134" lon="-2.70232">
        <ele>4.3</ele>
        <time>2026-08-22T12:57:41Z</time>
      </trkpt>
      <trkpt lat="47.64138" lon="-2.70238">
        <ele>4.5</ele>
        <time>2026-08-22T12:57:42Z</time>
      </trkpt>
      <trkpt lat="47.64141" lon="-2.70244">
        <ele>4.8</ele>
        <time>2026-08-22T12:57:43Z</time>
      </trkpt>
      <trkpt lat="47.64145" lon="-2.70249">
        <ele>5</ele>
        <time>2026-08-22T12:57:44Z</time>
      </trkpt>
      <trkpt lat="47.64149" lon="-2.70255">
        <ele>5</ele>
        <time>2026-08-22T12:57:45Z</time>
      </trkpt>
      <trkpt lat="47.64152" lon="-2.70261">
        <ele>5</ele>
        <time>2026-08-22T12:57:46Z</time>
      </trkpt>
      <trkpt lat="47.64155" lon="-2.70266">
        <ele>5</ele>
        <time>2026-08-22T12:57:47Z</time>
      </trkpt>
      <trkpt lat="47.64158" lon="-2.70271">
        <ele>5</ele>
        <time>2026-08-22T12:57:48Z</time>
      </trkpt>
      <trkpt lat="47.64162" lon="-2.70276">
        <ele>5</ele>
        <time>2026-08-22T12:57:49Z</time>
      </trkpt>
      <trkpt lat="47.64165" lon="-2.70281">
        <ele>5.1</ele>
        <time>2026-08-22T12:57:50Z</time>
      </trkpt>
      <trkpt lat="47.64169" lon="-2.70286">
        <ele>5.4</ele>
        <time>2026-08-22T12:57:51Z</time>
      </trkpt>
      <trkpt lat="47.64172" lon="-2.7029">
        <ele>5.6</ele>
        <time>2026-08-22T12:57:52Z</time>
      </trkpt>
      <trkpt lat="47.64176" lon="-2.70295">
        <ele>6</ele>
        <time>2026-08-22T12:57:53Z</time>
      </trkpt>
      <trkpt lat="47.64179" lon="-2.703">
        <ele>6.2</ele>
        <time>2026-08-22T12:57:54Z</time>
      </trkpt>
      <trkpt lat="47.64182" lon="-2.70305">
        <ele>6.5</ele>
        <time>2026-08-22T12:57:55Z</time>
      </trkpt>
      <trkpt lat="47.64185" lon="-2.70309">
        <ele>6.6</ele>
        <time>2026-08-22T12:57:56Z</time>
      </trkpt>
      <trkpt lat="47.64189" lon="-2.70314">
        <ele>6.6</ele>
        <time>2026-08-22T12:57:57Z</time>
      </trkpt>
      <trkpt lat="47.64193" lon="-2.70319">
        <ele>6.5</ele>
        <time>2026-08-22T12:57:58Z</time>
      </trkpt>
      <trkpt lat="47.64196" lon="-2.70324">
        <ele>6.4</ele>
        <time>2026-08-22T12:57:59Z</time>
      </trkpt>
      <trkpt lat="47.642" lon="-2.70329">
        <ele>6.5</ele>
        <time>2026-08-22T12:58:00Z</time>
      </trkpt>
      <trkpt lat="47.64203" lon="-2.70334">
        <ele>6.6</ele>
        <time>2026-08-22T12:58:01Z</time>
      </trkpt>
      <trkpt lat="47.64207" lon="-2.70339">
        <ele>6.8</ele>
        <time>2026-08-22T12:58:02Z</time>
      </trkpt>
      <trkpt lat="47.6421" lon="-2.70344">
        <ele>6.9</ele>
        <time>2026-08-22T12:58:03Z</time>
      </trkpt>
      <trkpt lat="47.64213" lon="-2.70349">
        <ele>6.8</ele>
        <time>2026-08-22T12:58:04Z</time>
      </trkpt>
      <trkpt lat="47.64217" lon="-2.70354">
        <ele>6.6</ele>
        <time>2026-08-22T12:58:05Z</time>
      </trkpt>
      <trkpt lat="47.6422" lon="-2.70359">
        <ele>6.2</ele>
        <time>2026-08-22T12:58:06Z</time>
      </trkpt>
      <trkpt lat="47.64224" lon="-2.70365">
        <ele>6.1</ele>
        <time>2026-08-22T12:58:07Z</time>
      </trkpt>
      <trkpt lat="47.64227" lon="-2.7037">
        <ele>6.3</ele>
        <time>2026-08-22T12:58:08Z</time>
      </trkpt>
      <trkpt lat="47.64231" lon="-2.70375">
        <ele>6.3</ele>
        <time>2026-08-22T12:58:09Z</time>
      </trkpt>
      <trkpt lat="47.64235" lon="-2.7038">
        <ele>6.4</ele>
        <time>2026-08-22T12:58:10Z</time>
      </trkpt>
      <trkpt lat="47.64239" lon="-2.70386">
        <ele>6.4</ele>
        <time>2026-08-22T12:58:11Z</time>
      </trkpt>
      <trkpt lat="47.64243" lon="-2.70391">
        <ele>6.3</ele>
        <time>2026-08-22T12:58:12Z</time>
      </trkpt>
      <trkpt lat="47.64247" lon="-2.70397">
        <ele>6.1</ele>
        <time>2026-08-22T12:58:13Z</time>
      </trkpt>
      <trkpt lat="47.64251" lon="-2.70403">
        <ele>6</ele>
        <time>2026-08-22T12:58:14Z</time>
      </trkpt>
      <trkpt lat="47.64255" lon="-2.70408">
        <ele>5.8</ele>
        <time>2026-08-22T12:58:15Z</time>
      </trkpt>
      <trkpt lat="47.64259" lon="-2.70414">
        <ele>5.7</ele>
        <time>2026-08-22T12:58:16Z</time>
      </trkpt>
      <trkpt lat="47.64263" lon="-2.7042">
        <ele>5.4</ele>
        <time>2026-08-22T12:58:17Z</time>
      </trkpt>
      <trkpt lat="47.64267" lon="-2.70425">
        <ele>5.1</ele>
        <time>2026-08-22T12:58:18Z</time>
      </trkpt>
      <trkpt lat="47.64271" lon="-2.70431">
        <ele>4.7</ele>
        <time>2026-08-22T12:58:19Z</time>
      </trkpt>
      <trkpt lat="47.64276" lon="-2.70437">
        <ele>4.3</ele>
        <time>2026-08-22T12:58:20Z</time>
      </trkpt>
      <trkpt lat="47.6428" lon="-2.70443">
        <ele>4.1</ele>
        <time>2026-08-22T12:58:21Z</time>
      </trkpt>
      <trkpt lat="47.64285" lon="-2.70449">
        <ele>4</ele>
        <time>2026-08-22T12:58:22Z</time>
      </trkpt>
      <trkpt lat="47.64289" lon="-2.70456">
        <ele>4</ele>
        <time>2026-08-22T12:58:23Z</time>
      </trkpt>
      <trkpt lat="47.64293" lon="-2.70463">
        <ele>4</ele>
        <time>2026-08-22T12:58:24Z</time>
      </trkpt>
      <trkpt lat="47.64297" lon="-2.7047">
        <ele>4</ele>
        <time>2026-08-22T12:58:25Z</time>
      </trkpt>
      <trkpt lat="47.64302" lon="-2.70477">
        <ele>3.8</ele>
        <time>2026-08-22T12:58:26Z</time>
      </trkpt>
      <trkpt lat="47.64306" lon="-2.70483">
        <ele>3.6</ele>
        <time>2026-08-22T12:58:27Z</time>
      </trkpt>
      <trkpt lat="47.6431" lon="-2.7049">
        <ele>3.4</ele>
        <time>2026-08-22T12:58:28Z</time>
      </trkpt>
      <trkpt lat="47.64314" lon="-2.70496">
        <ele>3.1</ele>
        <time>2026-08-22T12:58:29Z</time>
      </trkpt>
      <trkpt lat="47.64318" lon="-2.70502">
        <ele>3</ele>
        <time>2026-08-22T12:58:30Z</time>
      </trkpt>
      <trkpt lat="47.64321" lon="-2.70507">
        <ele>3</ele>
        <time>2026-08-22T12:58:31Z</time>
      </trkpt>
      <trkpt lat="47.64325" lon="-2.70513">
        <ele>3</ele>
        <time>2026-08-22T12:58:32Z</time>
      </trkpt>
      <trkpt lat="47.64328" lon="-2.70519">
        <ele>3</ele>
        <time>2026-08-22T12:58:33Z</time>
      </trkpt>
      <trkpt lat="47.64331" lon="-2.70524">
        <ele>3</ele>
        <time>2026-08-22T12:58:34Z</time>
      </trkpt>
      <trkpt lat="47.64335" lon="-2.7053">
        <ele>3.1</ele>
        <time>2026-08-22T12:58:35Z</time>
      </trkpt>
      <trkpt lat="47.64338" lon="-2.70535">
        <ele>3.2</ele>
        <time>2026-08-22T12:58:36Z</time>
      </trkpt>
      <trkpt lat="47.64342" lon="-2.7054">
        <ele>3.3</ele>
        <time>2026-08-22T12:58:37Z</time>
      </trkpt>
      <trkpt lat="47.64346" lon="-2.70544">
        <ele>3.5</ele>
        <time>2026-08-22T12:58:38Z</time>
      </trkpt>
      <trkpt lat="47.64349" lon="-2.70549">
        <ele>3.6</ele>
        <time>2026-08-22T12:58:39Z</time>
      </trkpt>
      <trkpt lat="47.64353" lon="-2.70552">
        <ele>3.7</ele>
        <time>2026-08-22T12:58:40Z</time>
      </trkpt>
      <trkpt lat="47.64356" lon="-2.70557">
        <ele>3.8</ele>
        <time>2026-08-22T12:58:41Z</time>
      </trkpt>
      <trkpt lat="47.6436" lon="-2.70561">
        <ele>3.8</ele>
        <time>2026-08-22T12:58:42Z</time>
      </trkpt>
      <trkpt lat="47.64363" lon="-2.70567">
        <ele>3.6</ele>
        <time>2026-08-22T12:58:43Z</time>
      </trkpt>
      <trkpt lat="47.64366" lon="-2.70572">
        <ele>3.5</ele>
        <time>2026-08-22T12:58:44Z</time>
      </trkpt>
      <trkpt lat="47.6437" lon="-2.70577">
        <ele>3.5</ele>
        <time>2026-08-22T12:58:45Z</time>
      </trkpt>
      <trkpt lat="47.64374" lon="-2.70583">
        <ele>3.5</ele>
        <time>2026-08-22T12:58:46Z</time>
      </trkpt>
      <trkpt lat="47.64378" lon="-2.70587">
        <ele>3.6</ele>
        <time>2026-08-22T12:58:47Z</time>
      </trkpt>
      <trkpt lat="47.64381" lon="-2.70593">
        <ele>3.7</ele>
        <time>2026-08-22T12:58:48Z</time>
      </trkpt>
      <trkpt lat="47.64385" lon="-2.70598">
        <ele>3.9</ele>
        <time>2026-08-22T12:58:49Z</time>
      </trkpt>
      <trkpt lat="47.64389" lon="-2.70604">
        <ele>4</ele>
        <time>2026-08-22T12:58:50Z</time>
      </trkpt>
      <trkpt lat="47.64393" lon="-2.7061">
        <ele>4.1</ele>
        <time>2026-08-22T12:58:51Z</time>
      </trkpt>
      <trkpt lat="47.64396" lon="-2.70615">
        <ele>4.1</ele>
        <time>2026-08-22T12:58:52Z</time>
      </trkpt>
      <trkpt lat="47.644" lon="-2.7062">
        <ele>4.1</ele>
        <time>2026-08-22T12:58:53Z</time>
      </trkpt>
      <trkpt lat="47.64403" lon="-2.70626">
        <ele>4</ele>
        <time>2026-08-22T12:58:54Z</time>
      </trkpt>
      <trkpt lat="47.64407" lon="-2.70631">
        <ele>3.9</ele>
        <time>2026-08-22T12:58:55Z</time>
      </trkpt>
      <trkpt lat="47.64411" lon="-2.70636">
        <ele>3.9</ele>
        <time>2026-08-22T12:58:56Z</time>
      </trkpt>
      <trkpt lat="47.64414" lon="-2.70641">
        <ele>3.8</ele>
        <time>2026-08-22T12:58:57Z</time>
      </trkpt>
      <trkpt lat="47.64418" lon="-2.70647">
        <ele>3.8</ele>
        <time>2026-08-22T12:58:58Z</time>
      </trkpt>
      <trkpt lat="47.64422" lon="-2.70652">
        <ele>3.7</ele>
        <time>2026-08-22T12:58:59Z</time>
      </trkpt>
      <trkpt lat="47.64425" lon="-2.70657">
        <ele>3.6</ele>
        <time>2026-08-22T12:59:00Z</time>
      </trkpt>
      <trkpt lat="47.64429" lon="-2.70662">
        <ele>3.6</ele>
        <time>2026-08-22T12:59:01Z</time>
      </trkpt>
      <trkpt lat="47.64432" lon="-2.70667">
        <ele>3.5</ele>
        <time>2026-08-22T12:59:02Z</time>
      </trkpt>
      <trkpt lat="47.64435" lon="-2.70672">
        <ele>3.6</ele>
        <time>2026-08-22T12:59:03Z</time>
      </trkpt>
      <trkpt lat="47.64438" lon="-2.70677">
        <ele>3.7</ele>
        <time>2026-08-22T12:59:04Z</time>
      </trkpt>
      <trkpt lat="47.64441" lon="-2.70682">
        <ele>3.8</ele>
        <time>2026-08-22T12:59:05Z</time>
      </trkpt>
      <trkpt lat="47.64445" lon="-2.70687">
        <ele>4</ele>
        <time>2026-08-22T12:59:06Z</time>
      </trkpt>
      <trkpt lat="47.64448" lon="-2.70692">
        <ele>4.1</ele>
        <time>2026-08-22T12:59:07Z</time>
      </trkpt>
      <trkpt lat="47.64451" lon="-2.70696">
        <ele>4.2</ele>
        <time>2026-08-22T12:59:08Z</time>
      </trkpt>
      <trkpt lat="47.64454" lon="-2.70701">
        <ele>4.1</ele>
        <time>2026-08-22T12:59:09Z</time>
      </trkpt>
      <trkpt lat="47.64457" lon="-2.70705">
        <ele>4.1</ele>
        <time>2026-08-22T12:59:10Z</time>
      </trkpt>
      <trkpt lat="47.64461" lon="-2.70711">
        <ele>4</ele>
        <time>2026-08-22T12:59:11Z</time>
      </trkpt>
      <trkpt lat="47.64464" lon="-2.70715">
        <ele>4</ele>
        <time>2026-08-22T12:59:12Z</time>
      </trkpt>
      <trkpt lat="47.64467" lon="-2.7072">
        <ele>3.9</ele>
        <time>2026-08-22T12:59:13Z</time>
      </trkpt>
      <trkpt lat="47.6447" lon="-2.70725">
        <ele>3.8</ele>
        <time>2026-08-22T12:59:14Z</time>
      </trkpt>
      <trkpt lat="47.64474" lon="-2.70729">
        <ele>3.8</ele>
        <time>2026-08-22T12:59:15Z</time>
      </trkpt>
      <trkpt lat="47.64478" lon="-2.70734">
        <ele>3.8</ele>
        <time>2026-08-22T12:59:16Z</time>
      </trkpt>
      <trkpt lat="47.64481" lon="-2.70739">
        <ele>3.7</ele>
        <time>2026-08-22T12:59:17Z</time>
      </trkpt>
      <trkpt lat="47.64485" lon="-2.70744">
        <ele>3.7</ele>
        <time>2026-08-22T12:59:18Z</time>
      </trkpt>
      <trkpt lat="47.64488" lon="-2.70749">
        <ele>3.6</ele>
        <time>2026-08-22T12:59:19Z</time>
      </trkpt>
      <trkpt lat="47.64491" lon="-2.70754">
        <ele>3.6</ele>
        <time>2026-08-22T12:59:20Z</time>
      </trkpt>
      <trkpt lat="47.64495" lon="-2.70759">
        <ele>3.6</ele>
        <time>2026-08-22T12:59:21Z</time>
      </trkpt>
      <trkpt lat="47.64498" lon="-2.70764">
        <ele>3.5</ele>
        <time>2026-08-22T12:59:22Z</time>
      </trkpt>
      <trkpt lat="47.64502" lon="-2.70769">
        <ele>3.4</ele>
        <time>2026-08-22T12:59:23Z</time>
      </trkpt>
      <trkpt lat="47.64506" lon="-2.70774">
        <ele>3.4</ele>
        <time>2026-08-22T12:59:24Z</time>
      </trkpt>
      <trkpt lat="47.64509" lon="-2.70779">
        <ele>3.3</ele>
        <time>2026-08-22T12:59:25Z</time>
      </trkpt>
      <trkpt lat="47.64512" lon="-2.70784">
        <ele>3.4</ele>
        <time>2026-08-22T12:59:26Z</time>
      </trkpt>
      <trkpt lat="47.64516" lon="-2.70789">
        <ele>3.6</ele>
        <time>2026-08-22T12:59:27Z</time>
      </trkpt>
      <trkpt lat="47.64519" lon="-2.70794">
        <ele>3.7</ele>
        <time>2026-08-22T12:59:28Z</time>
      </trkpt>
      <trkpt lat="47.64522" lon="-2.70799">
        <ele>3.8</ele>
        <time>2026-08-22T12:59:29Z</time>
      </trkpt>
      <trkpt lat="47.64526" lon="-2.70804">
        <ele>3.9</ele>
        <time>2026-08-22T12:59:30Z</time>
      </trkpt>
      <trkpt lat="47.6453" lon="-2.7081">
        <ele>3.9</ele>
        <time>2026-08-22T12:59:31Z</time>
      </trkpt>
      <trkpt lat="47.64533" lon="-2.70815">
        <ele>3.8</ele>
        <time>2026-08-22T12:59:32Z</time>
      </trkpt>
      <trkpt lat="47.64537" lon="-2.7082">
        <ele>3.8</ele>
        <time>2026-08-22T12:59:33Z</time>
      </trkpt>
      <trkpt lat="47.64541" lon="-2.70825">
        <ele>3.8</ele>
        <time>2026-08-22T12:59:34Z</time>
      </trkpt>
      <trkpt lat="47.64544" lon="-2.7083">
        <ele>3.7</ele>
        <time>2026-08-22T12:59:35Z</time>
      </trkpt>
      <trkpt lat="47.64548" lon="-2.70836">
        <ele>3.7</ele>
        <time>2026-08-22T12:59:36Z</time>
      </trkpt>
      <trkpt lat="47.64551" lon="-2.70841">
        <ele>3.8</ele>
        <time>2026-08-22T12:59:37Z</time>
      </trkpt>
      <trkpt lat="47.64555" lon="-2.70846">
        <ele>4</ele>
        <time>2026-08-22T12:59:38Z</time>
      </trkpt>
      <trkpt lat="47.64558" lon="-2.70851">
        <ele>4.1</ele>
        <time>2026-08-22T12:59:39Z</time>
      </trkpt>
      <trkpt lat="47.64562" lon="-2.70856">
        <ele>4.2</ele>
        <time>2026-08-22T12:59:40Z</time>
      </trkpt>
      <trkpt lat="47.64565" lon="-2.70861">
        <ele>4.3</ele>
        <time>2026-08-22T12:59:41Z</time>
      </trkpt>
      <trkpt lat="47.64568" lon="-2.70866">
        <ele>4.4</ele>
        <time>2026-08-22T12:59:42Z</time>
      </trkpt>
      <trkpt lat="47.64572" lon="-2.70871">
        <ele>4.4</ele>
        <time>2026-08-22T12:59:43Z</time>
      </trkpt>
      <trkpt lat="47.64575" lon="-2.70876">
        <ele>4.3</ele>
        <time>2026-08-22T12:59:44Z</time>
      </trkpt>
      <trkpt lat="47.64579" lon="-2.70881">
        <ele>4.2</ele>
        <time>2026-08-22T12:59:45Z</time>
      </trkpt>
      <trkpt lat="47.64582" lon="-2.70886">
        <ele>4.1</ele>
        <time>2026-08-22T12:59:46Z</time>
      </trkpt>
      <trkpt lat="47.64586" lon="-2.70891">
        <ele>4.2</ele>
        <time>2026-08-22T12:59:47Z</time>
      </trkpt>
      <trkpt lat="47.64589" lon="-2.70895">
        <ele>4.3</ele>
        <time>2026-08-22T12:59:48Z</time>
      </trkpt>
      <trkpt lat="47.64593" lon="-2.709">
        <ele>4.4</ele>
        <time>2026-08-22T12:59:49Z</time>
      </trkpt>
      <trkpt lat="47.64596" lon="-2.70905">
        <ele>4.4</ele>
        <time>2026-08-22T12:59:50Z</time>
      </trkpt>
      <trkpt lat="47.64599" lon="-2.7091">
        <ele>4.3</ele>
        <time>2026-08-22T12:59:51Z</time>
      </trkpt>
      <trkpt lat="47.64603" lon="-2.70915">
        <ele>4.1</ele>
        <time>2026-08-22T12:59:52Z</time>
      </trkpt>
      <trkpt lat="47.64606" lon="-2.70919">
        <ele>4</ele>
        <time>2026-08-22T12:59:53Z</time>
      </trkpt>
      <trkpt lat="47.64609" lon="-2.70924">
        <ele>4</ele>
        <time>2026-08-22T12:59:54Z</time>
      </trkpt>
      <trkpt lat="47.64613" lon="-2.70929">
        <ele>4.1</ele>
        <time>2026-08-22T12:59:55Z</time>
      </trkpt>
      <trkpt lat="47.64616" lon="-2.70934">
        <ele>4.3</ele>
        <time>2026-08-22T12:59:56Z</time>
      </trkpt>
      <trkpt lat="47.64619" lon="-2.70938">
        <ele>4.5</ele>
        <time>2026-08-22T12:59:57Z</time>
      </trkpt>
      <trkpt lat="47.64622" lon="-2.70943">
        <ele>4.8</ele>
        <time>2026-08-22T12:59:58Z</time>
      </trkpt>
      <trkpt lat="47.64625" lon="-2.70948">
        <ele>4.9</ele>
        <time>2026-08-22T12:59:59Z</time>
      </trkpt>
      <trkpt lat="47.64629" lon="-2.70952">
        <ele>4.9</ele>
        <time>2026-08-22T13:00:00Z</time>
      </trkpt>
      <trkpt lat="47.64632" lon="-2.70957">
        <ele>4.8</ele>
        <time>2026-08-22T13:00:01Z</time>
      </trkpt>
      <trkpt lat="47.64635" lon="-2.70962">
        <ele>4.6</ele>
        <time>2026-08-22T13:00:02Z</time>
      </trkpt>
      <trkpt lat="47.64639" lon="-2.70967">
        <ele>4.4</ele>
        <time>2026-08-22T13:00:03Z</time>
      </trkpt>
      <trkpt lat="47.64642" lon="-2.70972">
        <ele>4.1</ele>
        <time>2026-08-22T13:00:04Z</time>
      </trkpt>
      <trkpt lat="47.64645" lon="-2.70977">
        <ele>4.3</ele>
        <time>2026-08-22T13:00:05Z</time>
      </trkpt>
      <trkpt lat="47.64648" lon="-2.70982">
        <ele>4.4</ele>
        <time>2026-08-22T13:00:06Z</time>
      </trkpt>
      <trkpt lat="47.64652" lon="-2.70987">
        <ele>4.7</ele>
        <time>2026-08-22T13:00:07Z</time>
      </trkpt>
      <trkpt lat="47.64655" lon="-2.70991">
        <ele>5</ele>
        <time>2026-08-22T13:00:08Z</time>
      </trkpt>
      <trkpt lat="47.64658" lon="-2.70996">
        <ele>5.3</ele>
        <time>2026-08-22T13:00:09Z</time>
      </trkpt>
      <trkpt lat="47.64662" lon="-2.71001">
        <ele>5.6</ele>
        <time>2026-08-22T13:00:10Z</time>
      </trkpt>
      <trkpt lat="47.64665" lon="-2.71005">
        <ele>5.7</ele>
        <time>2026-08-22T13:00:11Z</time>
      </trkpt>
      <trkpt lat="47.64668" lon="-2.71009">
        <ele>5.8</ele>
        <time>2026-08-22T13:00:12Z</time>
      </trkpt>
      <trkpt lat="47.64672" lon="-2.71013">
        <ele>5.9</ele>
        <time>2026-08-22T13:00:13Z</time>
      </trkpt>
      <trkpt lat="47.64675" lon="-2.71017">
        <ele>6</ele>
        <time>2026-08-22T13:00:14Z</time>
      </trkpt>
      <trkpt lat="47.64678" lon="-2.71022">
        <ele>6</ele>
        <time>2026-08-22T13:00:15Z</time>
      </trkpt>
      <trkpt lat="47.64681" lon="-2.71026">
        <ele>6.1</ele>
        <time>2026-08-22T13:00:16Z</time>
      </trkpt>
      <trkpt lat="47.64684" lon="-2.7103">
        <ele>6.1</ele>
        <time>2026-08-22T13:00:17Z</time>
      </trkpt>
      <trkpt lat="47.64687" lon="-2.71034">
        <ele>6.1</ele>
        <time>2026-08-22T13:00:18Z</time>
      </trkpt>
      <trkpt lat="47.6469" lon="-2.71038">
        <ele>6</ele>
        <time>2026-08-22T13:00:19Z</time>
      </trkpt>
      <trkpt lat="47.64694" lon="-2.71042">
        <ele>6</ele>
        <time>2026-08-22T13:00:20Z</time>
      </trkpt>
      <trkpt lat="47.64697" lon="-2.71045">
        <ele>5.9</ele>
        <time>2026-08-22T13:00:21Z</time>
      </trkpt>
      <trkpt lat="47.64701" lon="-2.71048">
        <ele>6</ele>
        <time>2026-08-22T13:00:22Z</time>
      </trkpt>
      <trkpt lat="47.64704" lon="-2.71051">
        <ele>6</ele>
        <time>2026-08-22T13:00:23Z</time>
      </trkpt>
      <trkpt lat="47.64708" lon="-2.71054">
        <ele>6.1</ele>
        <time>2026-08-22T13:00:24Z</time>
      </trkpt>
      <trkpt lat="47.64711" lon="-2.71057">
        <ele>6.2</ele>
        <time>2026-08-22T13:00:25Z</time>
      </trkpt>
      <trkpt lat="47.64715" lon="-2.71059">
        <ele>6.5</ele>
        <time>2026-08-22T13:00:26Z</time>
      </trkpt>
      <trkpt lat="47.64718" lon="-2.71061">
        <ele>6.7</ele>
        <time>2026-08-22T13:00:27Z</time>
      </trkpt>
      <trkpt lat="47.64721" lon="-2.71062">
        <ele>6.9</ele>
        <time>2026-08-22T13:00:28Z</time>
      </trkpt>
      <trkpt lat="47.64725" lon="-2.71064">
        <ele>7.1</ele>
        <time>2026-08-22T13:00:29Z</time>
      </trkpt>
      <trkpt lat="47.64729" lon="-2.71067">
        <ele>7.2</ele>
        <time>2026-08-22T13:00:30Z</time>
      </trkpt>
      <trkpt lat="47.64732" lon="-2.71068">
        <ele>7.2</ele>
        <time>2026-08-22T13:00:31Z</time>
      </trkpt>
      <trkpt lat="47.64737" lon="-2.7107">
        <ele>7.2</ele>
        <time>2026-08-22T13:00:32Z</time>
      </trkpt>
      <trkpt lat="47.64741" lon="-2.71072">
        <ele>7.2</ele>
        <time>2026-08-22T13:00:33Z</time>
      </trkpt>
      <trkpt lat="47.64745" lon="-2.71073">
        <ele>7.1</ele>
        <time>2026-08-22T13:00:34Z</time>
      </trkpt>
      <trkpt lat="47.64748" lon="-2.71074">
        <ele>7</ele>
        <time>2026-08-22T13:00:35Z</time>
      </trkpt>
      <trkpt lat="47.64752" lon="-2.71075">
        <ele>6.9</ele>
        <time>2026-08-22T13:00:36Z</time>
      </trkpt>
      <trkpt lat="47.64757" lon="-2.71076">
        <ele>6.9</ele>
        <time>2026-08-22T13:00:37Z</time>
      </trkpt>
      <trkpt lat="47.64762" lon="-2.71076">
        <ele>6.9</ele>
        <time>2026-08-22T13:00:38Z</time>
      </trkpt>
      <trkpt lat="47.64766" lon="-2.71076">
        <ele>6.9</ele>
        <time>2026-08-22T13:00:39Z</time>
      </trkpt>
      <trkpt lat="47.6477" lon="-2.71076">
        <ele>7</ele>
        <time>2026-08-22T13:00:40Z</time>
      </trkpt>
      <trkpt lat="47.64774" lon="-2.71076">
        <ele>7</ele>
        <time>2026-08-22T13:00:41Z</time>
      </trkpt>
      <trkpt lat="47.64779" lon="-2.71076">
        <ele>7</ele>
        <time>2026-08-22T13:00:42Z</time>
      </trkpt>
      <trkpt lat="47.64784" lon="-2.71075">
        <ele>6.7</ele>
        <time>2026-08-22T13:00:43Z</time>
      </trkpt>
      <trkpt lat="47.64788" lon="-2.71074">
        <ele>6.5</ele>
        <time>2026-08-22T13:00:44Z</time>
      </trkpt>
      <trkpt lat="47.64792" lon="-2.71073">
        <ele>6.3</ele>
        <time>2026-08-22T13:00:45Z</time>
      </trkpt>
      <trkpt lat="47.64796" lon="-2.71072">
        <ele>6.1</ele>
        <time>2026-08-22T13:00:46Z</time>
      </trkpt>
      <trkpt lat="47.648" lon="-2.7107">
        <ele>5.9</ele>
        <time>2026-08-22T13:00:47Z</time>
      </trkpt>
      <trkpt lat="47.64804" lon="-2.71069">
        <ele>5.7</ele>
        <time>2026-08-22T13:00:48Z</time>
      </trkpt>
      <trkpt lat="47.64808" lon="-2.71068">
        <ele>5.4</ele>
        <time>2026-08-22T13:00:49Z</time>
      </trkpt>
      <trkpt lat="47.64812" lon="-2.71066">
        <ele>5.3</ele>
        <time>2026-08-22T13:00:50Z</time>
      </trkpt>
      <trkpt lat="47.64816" lon="-2.71064">
        <ele>5.1</ele>
        <time>2026-08-22T13:00:51Z</time>
      </trkpt>
      <trkpt lat="47.6482" lon="-2.71062">
        <ele>4.9</ele>
        <time>2026-08-22T13:00:52Z</time>
      </trkpt>
      <trkpt lat="47.64824" lon="-2.7106">
        <ele>4.6</ele>
        <time>2026-08-22T13:00:53Z</time>
      </trkpt>
      <trkpt lat="47.64829" lon="-2.71058">
        <ele>4.3</ele>
        <time>2026-08-22T13:00:54Z</time>
      </trkpt>
      <trkpt lat="47.64833" lon="-2.71056">
        <ele>4</ele>
        <time>2026-08-22T13:00:55Z</time>
      </trkpt>
      <trkpt lat="47.64838" lon="-2.71054">
        <ele>3.8</ele>
        <time>2026-08-22T13:00:56Z</time>
      </trkpt>
      <trkpt lat="47.64842" lon="-2.71051">
        <ele>3.6</ele>
        <time>2026-08-22T13:00:57Z</time>
      </trkpt>
      <trkpt lat="47.64846" lon="-2.71048">
        <ele>3.4</ele>
        <time>2026-08-22T13:00:58Z</time>
      </trkpt>
      <trkpt lat="47.6485" lon="-2.71046">
        <ele>3.1</ele>
        <time>2026-08-22T13:00:59Z</time>
      </trkpt>
      <trkpt lat="47.64854" lon="-2.71044">
        <ele>2.7</ele>
        <time>2026-08-22T13:01:00Z</time>
      </trkpt>
      <trkpt lat="47.64859" lon="-2.71041">
        <ele>2.2</ele>
        <time>2026-08-22T13:01:01Z</time>
      </trkpt>
      <trkpt lat="47.64863" lon="-2.71038">
        <ele>2.1</ele>
        <time>2026-08-22T13:01:02Z</time>
      </trkpt>
      <trkpt lat="47.64867" lon="-2.71036">
        <ele>2.3</ele>
        <time>2026-08-22T13:01:03Z</time>
      </trkpt>
      <trkpt lat="47.6487" lon="-2.71033">
        <ele>2.5</ele>
        <time>2026-08-22T13:01:04Z</time>
      </trkpt>
      <trkpt lat="47.64875" lon="-2.71031">
        <ele>2.9</ele>
        <time>2026-08-22T13:01:05Z</time>
      </trkpt>
      <trkpt lat="47.64879" lon="-2.71029">
        <ele>3.2</ele>
        <time>2026-08-22T13:01:06Z</time>
      </trkpt>
      <trkpt lat="47.64882" lon="-2.71027">
        <ele>3.5</ele>
        <time>2026-08-22T13:01:07Z</time>
      </trkpt>
      <trkpt lat="47.64885" lon="-2.71023">
        <ele>3.9</ele>
        <time>2026-08-22T13:01:08Z</time>
      </trkpt>
      <trkpt lat="47.64889" lon="-2.71022">
        <ele>4.2</ele>
        <time>2026-08-22T13:01:09Z</time>
      </trkpt>
      <trkpt lat="47.64892" lon="-2.7102">
        <ele>4.2</ele>
        <time>2026-08-22T13:01:10Z</time>
      </trkpt>
      <trkpt lat="47.64895" lon="-2.71019">
        <ele>4.2</ele>
        <time>2026-08-22T13:01:11Z</time>
      </trkpt>
      <trkpt lat="47.64898" lon="-2.71019">
        <ele>4.2</ele>
        <time>2026-08-22T13:01:12Z</time>
      </trkpt>
      <trkpt lat="47.649" lon="-2.7102">
        <ele>4.2</ele>
        <time>2026-08-22T13:01:13Z</time>
      </trkpt>
      <trkpt lat="47.64902" lon="-2.71023">
        <ele>4.1</ele>
        <time>2026-08-22T13:01:14Z</time>
      </trkpt>
      <trkpt lat="47.64904" lon="-2.71026">
        <ele>4</ele>
        <time>2026-08-22T13:01:15Z</time>
      </trkpt>
      <trkpt lat="47.64905" lon="-2.7103">
        <ele>4</ele>
        <time>2026-08-22T13:01:16Z</time>
      </trkpt>
      <trkpt lat="47.64907" lon="-2.71035">
        <ele>4</ele>
        <time>2026-08-22T13:01:17Z</time>
      </trkpt>
      <trkpt lat="47.64908" lon="-2.7104">
        <ele>4</ele>
        <time>2026-08-22T13:01:18Z</time>
      </trkpt>
      <trkpt lat="47.64909" lon="-2.71045">
        <ele>4.1</ele>
        <time>2026-08-22T13:01:19Z</time>
      </trkpt>
      <trkpt lat="47.6491" lon="-2.71051">
        <ele>4.2</ele>
        <time>2026-08-22T13:01:20Z</time>
      </trkpt>
      <trkpt lat="47.64911" lon="-2.71056">
        <ele>4.4</ele>
        <time>2026-08-22T13:01:21Z</time>
      </trkpt>
      <trkpt lat="47.64912" lon="-2.71063">
        <ele>4.5</ele>
        <time>2026-08-22T13:01:22Z</time>
      </trkpt>
      <trkpt lat="47.64913" lon="-2.71069">
        <ele>4.6</ele>
        <time>2026-08-22T13:01:23Z</time>
      </trkpt>
      <trkpt lat="47.64914" lon="-2.71075">
        <ele>4.7</ele>
        <time>2026-08-22T13:01:24Z</time>
      </trkpt>
      <trkpt lat="47.64915" lon="-2.71081">
        <ele>4.8</ele>
        <time>2026-08-22T13:01:25Z</time>
      </trkpt>
      <trkpt lat="47.64916" lon="-2.71087">
        <ele>4.9</ele>
        <time>2026-08-22T13:01:26Z</time>
      </trkpt>
      <trkpt lat="47.64916" lon="-2.71094">
        <ele>4.9</ele>
        <time>2026-08-22T13:01:27Z</time>
      </trkpt>
      <trkpt lat="47.64917" lon="-2.71101">
        <ele>5</ele>
        <time>2026-08-22T13:01:28Z</time>
      </trkpt>
      <trkpt lat="47.64918" lon="-2.71107">
        <ele>5</ele>
        <time>2026-08-22T13:01:29Z</time>
      </trkpt>
      <trkpt lat="47.64918" lon="-2.71114">
        <ele>4.9</ele>
        <time>2026-08-22T13:01:30Z</time>
      </trkpt>
      <trkpt lat="47.64919" lon="-2.71121">
        <ele>4.6</ele>
        <time>2026-08-22T13:01:31Z</time>
      </trkpt>
      <trkpt lat="47.64919" lon="-2.71127">
        <ele>4.4</ele>
        <time>2026-08-22T13:01:32Z</time>
      </trkpt>
      <trkpt lat="47.6492" lon="-2.71134">
        <ele>4.3</ele>
        <time>2026-08-22T13:01:33Z</time>
      </trkpt>
      <trkpt lat="47.64921" lon="-2.71141">
        <ele>4.2</ele>
        <time>2026-08-22T13:01:34Z</time>
      </trkpt>
      <trkpt lat="47.64921" lon="-2.71147">
        <ele>4.2</ele>
        <time>2026-08-22T13:01:35Z</time>
      </trkpt>
      <trkpt lat="47.64921" lon="-2.71154">
        <ele>4.2</ele>
        <time>2026-08-22T13:01:36Z</time>
      </trkpt>
      <trkpt lat="47.64922" lon="-2.71161">
        <ele>4.3</ele>
        <time>2026-08-22T13:01:37Z</time>
      </trkpt>
      <trkpt lat="47.64922" lon="-2.71167">
        <ele>4.4</ele>
        <time>2026-08-22T13:01:38Z</time>
      </trkpt>
      <trkpt lat="47.64922" lon="-2.71173">
        <ele>4.6</ele>
        <time>2026-08-22T13:01:39Z</time>
      </trkpt>
      <trkpt lat="47.64922" lon="-2.71179">
        <ele>4.8</ele>
        <time>2026-08-22T13:01:40Z</time>
      </trkpt>
      <trkpt lat="47.64922" lon="-2.71185">
        <ele>5</ele>
        <time>2026-08-22T13:01:41Z</time>
      </trkpt>
      <trkpt lat="47.64923" lon="-2.71191">
        <ele>5.3</ele>
        <time>2026-08-22T13:01:42Z</time>
      </trkpt>
      <trkpt lat="47.64923" lon="-2.71197">
        <ele>5.6</ele>
        <time>2026-08-22T13:01:43Z</time>
      </trkpt>
      <trkpt lat="47.64923" lon="-2.71202">
        <ele>5.9</ele>
        <time>2026-08-22T13:01:44Z</time>
      </trkpt>
      <trkpt lat="47.64923" lon="-2.71208">
        <ele>6.3</ele>
        <time>2026-08-22T13:01:45Z</time>
      </trkpt>
      <trkpt lat="47.64923" lon="-2.71213">
        <ele>6.6</ele>
        <time>2026-08-22T13:01:46Z</time>
      </trkpt>
      <trkpt lat="47.64924" lon="-2.71218">
        <ele>7</ele>
        <time>2026-08-22T13:01:47Z</time>
      </trkpt>
      <trkpt lat="47.64924" lon="-2.71223">
        <ele>7.3</ele>
        <time>2026-08-22T13:01:48Z</time>
      </trkpt>
      <trkpt lat="47.64923" lon="-2.71228">
        <ele>7.5</ele>
        <time>2026-08-22T13:01:49Z</time>
      </trkpt>
      <trkpt lat="47.64922" lon="-2.71232">
        <ele>7.6</ele>
        <time>2026-08-22T13:01:50Z</time>
      </trkpt>
      <trkpt lat="47.6492" lon="-2.71236">
        <ele>7.7</ele>
        <time>2026-08-22T13:01:51Z</time>
      </trkpt>
      <trkpt lat="47.64918" lon="-2.71238">
        <ele>7.6</ele>
        <time>2026-08-22T13:01:52Z</time>
      </trkpt>
      <trkpt lat="47.64915" lon="-2.71241">
        <ele>7.6</ele>
        <time>2026-08-22T13:01:53Z</time>
      </trkpt>
      <trkpt lat="47.64912" lon="-2.71243">
        <ele>7.5</ele>
        <time>2026-08-22T13:01:54Z</time>
      </trkpt>
      <trkpt lat="47.64908" lon="-2.71246">
        <ele>7.5</ele>
        <time>2026-08-22T13:01:55Z</time>
      </trkpt>
      <trkpt lat="47.64905" lon="-2.71249">
        <ele>7.5</ele>
        <time>2026-08-22T13:01:56Z</time>
      </trkpt>
      <trkpt lat="47.64902" lon="-2.71252">
        <ele>7.6</ele>
        <time>2026-08-22T13:01:57Z</time>
      </trkpt>
      <trkpt lat="47.64899" lon="-2.71255">
        <ele>7.8</ele>
        <time>2026-08-22T13:01:58Z</time>
      </trkpt>
      <trkpt lat="47.64896" lon="-2.71258">
        <ele>8</ele>
        <time>2026-08-22T13:01:59Z</time>
      </trkpt>
      <trkpt lat="47.64893" lon="-2.71262">
        <ele>8.3</ele>
        <time>2026-08-22T13:02:00Z</time>
      </trkpt>
      <trkpt lat="47.6489" lon="-2.71265">
        <ele>8.6</ele>
        <time>2026-08-22T13:02:01Z</time>
      </trkpt>
      <trkpt lat="47.64888" lon="-2.71269">
        <ele>9.1</ele>
        <time>2026-08-22T13:02:02Z</time>
      </trkpt>
      <trkpt lat="47.64886" lon="-2.71272">
        <ele>9.5</ele>
        <time>2026-08-22T13:02:03Z</time>
      </trkpt>
      <trkpt lat="47.64884" lon="-2.71275">
        <ele>9.9</ele>
        <time>2026-08-22T13:02:04Z</time>
      </trkpt>
      <trkpt lat="47.64882" lon="-2.71278">
        <ele>10.3</ele>
        <time>2026-08-22T13:02:05Z</time>
      </trkpt>
      <trkpt lat="47.6488" lon="-2.7128">
        <ele>10.4</ele>
        <time>2026-08-22T13:02:06Z</time>
      </trkpt>
      <trkpt lat="47.64877" lon="-2.71281">
        <ele>10.5</ele>
        <time>2026-08-22T13:02:07Z</time>
      </trkpt>
      <trkpt lat="47.64875" lon="-2.71282">
        <ele>10.7</ele>
        <time>2026-08-22T13:02:08Z</time>
      </trkpt>
      <trkpt lat="47.64872" lon="-2.71281">
        <ele>10.7</ele>
        <time>2026-08-22T13:02:09Z</time>
      </trkpt>
      <trkpt lat="47.6487" lon="-2.7128">
        <ele>10.8</ele>
        <time>2026-08-22T13:02:10Z</time>
      </trkpt>
      <trkpt lat="47.64868" lon="-2.71279">
        <ele>10.8</ele>
        <time>2026-08-22T13:02:11Z</time>
      </trkpt>
      <trkpt lat="47.64865" lon="-2.71279">
        <ele>10.9</ele>
        <time>2026-08-22T13:02:12Z</time>
      </trkpt>
      <trkpt lat="47.64863" lon="-2.71278">
        <ele>10.9</ele>
        <time>2026-08-22T13:02:13Z</time>
      </trkpt>
      <trkpt lat="47.6486" lon="-2.71277">
        <ele>10.9</ele>
        <time>2026-08-22T13:02:14Z</time>
      </trkpt>
      <trkpt lat="47.64856" lon="-2.71276">
        <ele>10.8</ele>
        <time>2026-08-22T13:02:15Z</time>
      </trkpt>
      <trkpt lat="47.64852" lon="-2.71274">
        <ele>10.5</ele>
        <time>2026-08-22T13:02:16Z</time>
      </trkpt>
      <trkpt lat="47.64848" lon="-2.71273">
        <ele>10.5</ele>
        <time>2026-08-22T13:02:17Z</time>
      </trkpt>
      <trkpt lat="47.64845" lon="-2.71272">
        <ele>10.4</ele>
        <time>2026-08-22T13:02:18Z</time>
      </trkpt>
      <trkpt lat="47.64841" lon="-2.71272">
        <ele>10.5</ele>
        <time>2026-08-22T13:02:19Z</time>
      </trkpt>
      <trkpt lat="47.64838" lon="-2.71272">
        <ele>10.5</ele>
        <time>2026-08-22T13:02:20Z</time>
      </trkpt>
      <trkpt lat="47.64835" lon="-2.71273">
        <ele>10.6</ele>
        <time>2026-08-22T13:02:21Z</time>
      </trkpt>
      <trkpt lat="47.64832" lon="-2.71273">
        <ele>10.6</ele>
        <time>2026-08-22T13:02:22Z</time>
      </trkpt>
      <trkpt lat="47.64829" lon="-2.71274">
        <ele>10.5</ele>
        <time>2026-08-22T13:02:23Z</time>
      </trkpt>
      <trkpt lat="47.64826" lon="-2.71275">
        <ele>10.5</ele>
        <time>2026-08-22T13:02:24Z</time>
      </trkpt>
      <trkpt lat="47.64823" lon="-2.71277">
        <ele>10.5</ele>
        <time>2026-08-22T13:02:25Z</time>
      </trkpt>
      <trkpt lat="47.6482" lon="-2.71279">
        <ele>10.6</ele>
        <time>2026-08-22T13:02:26Z</time>
      </trkpt>
      <trkpt lat="47.64816" lon="-2.7128">
        <ele>10.5</ele>
        <time>2026-08-22T13:02:27Z</time>
      </trkpt>
      <trkpt lat="47.64813" lon="-2.71282">
        <ele>10.6</ele>
        <time>2026-08-22T13:02:28Z</time>
      </trkpt>
      <trkpt lat="47.6481" lon="-2.71283">
        <ele>10.5</ele>
        <time>2026-08-22T13:02:29Z</time>
      </trkpt>
      <trkpt lat="47.64806" lon="-2.71284">
        <ele>10.5</ele>
        <time>2026-08-22T13:02:30Z</time>
      </trkpt>
      <trkpt lat="47.64802" lon="-2.71286">
        <ele>10.4</ele>
        <time>2026-08-22T13:02:31Z</time>
      </trkpt>
      <trkpt lat="47.64799" lon="-2.71287">
        <ele>10.3</ele>
        <time>2026-08-22T13:02:32Z</time>
      </trkpt>
      <trkpt lat="47.64795" lon="-2.71289">
        <ele>10.2</ele>
        <time>2026-08-22T13:02:33Z</time>
      </trkpt>
      <trkpt lat="47.64792" lon="-2.71291">
        <ele>10.2</ele>
        <time>2026-08-22T13:02:34Z</time>
      </trkpt>
      <trkpt lat="47.64788" lon="-2.71292">
        <ele>10.1</ele>
        <time>2026-08-22T13:02:35Z</time>
      </trkpt>
      <trkpt lat="47.64783" lon="-2.71294">
        <ele>10</ele>
        <time>2026-08-22T13:02:36Z</time>
      </trkpt>
      <trkpt lat="47.64779" lon="-2.71295">
        <ele>9.9</ele>
        <time>2026-08-22T13:02:37Z</time>
      </trkpt>
      <trkpt lat="47.64775" lon="-2.71297">
        <ele>10</ele>
        <time>2026-08-22T13:02:38Z</time>
      </trkpt>
      <trkpt lat="47.64771" lon="-2.71298">
        <ele>9.9</ele>
        <time>2026-08-22T13:02:39Z</time>
      </trkpt>
      <trkpt lat="47.64767" lon="-2.71298">
        <ele>9.8</ele>
        <time>2026-08-22T13:02:40Z</time>
      </trkpt>
      <trkpt lat="47.64762" lon="-2.71298">
        <ele>9.6</ele>
        <time>2026-08-22T13:02:41Z</time>
      </trkpt>
      <trkpt lat="47.64758" lon="-2.71299">
        <ele>9.6</ele>
        <time>2026-08-22T13:02:42Z</time>
      </trkpt>
      <trkpt lat="47.64753" lon="-2.71299">
        <ele>9.4</ele>
        <time>2026-08-22T13:02:43Z</time>
      </trkpt>
      <trkpt lat="47.64749" lon="-2.713">
        <ele>9.4</ele>
        <time>2026-08-22T13:02:44Z</time>
      </trkpt>
      <trkpt lat="47.64745" lon="-2.713">
        <ele>9.3</ele>
        <time>2026-08-22T13:02:45Z</time>
      </trkpt>
      <trkpt lat="47.64741" lon="-2.71301">
        <ele>9.2</ele>
        <time>2026-08-22T13:02:46Z</time>
      </trkpt>
      <trkpt lat="47.64737" lon="-2.71302">
        <ele>9.2</ele>
        <time>2026-08-22T13:02:47Z</time>
      </trkpt>
      <trkpt lat="47.64733" lon="-2.71304">
        <ele>9.3</ele>
        <time>2026-08-22T13:02:48Z</time>
      </trkpt>
      <trkpt lat="47.64729" lon="-2.71304">
        <ele>9.1</ele>
        <time>2026-08-22T13:02:49Z</time>
      </trkpt>
      <trkpt lat="47.64724" lon="-2.71305">
        <ele>9</ele>
        <time>2026-08-22T13:02:50Z</time>
      </trkpt>
      <trkpt lat="47.6472" lon="-2.71305">
        <ele>8.9</ele>
        <time>2026-08-22T13:02:51Z</time>
      </trkpt>
      <trkpt lat="47.64717" lon="-2.71307">
        <ele>8.9</ele>
        <time>2026-08-22T13:02:52Z</time>
      </trkpt>
      <trkpt lat="47.64713" lon="-2.71308">
        <ele>8.8</ele>
        <time>2026-08-22T13:02:53Z</time>
      </trkpt>
      <trkpt lat="47.64709" lon="-2.71308">
        <ele>8.7</ele>
        <time>2026-08-22T13:02:54Z</time>
      </trkpt>
      <trkpt lat="47.64705" lon="-2.71308">
        <ele>8.5</ele>
        <time>2026-08-22T13:02:55Z</time>
      </trkpt>
      <trkpt lat="47.64699" lon="-2.71307">
        <ele>8.2</ele>
        <time>2026-08-22T13:02:56Z</time>
      </trkpt>
      <trkpt lat="47.64695" lon="-2.71307">
        <ele>8.1</ele>
        <time>2026-08-22T13:02:57Z</time>
      </trkpt>
      <trkpt lat="47.64691" lon="-2.71306">
        <ele>7.9</ele>
        <time>2026-08-22T13:02:58Z</time>
      </trkpt>
      <trkpt lat="47.64687" lon="-2.71306">
        <ele>7.7</ele>
        <time>2026-08-22T13:02:59Z</time>
      </trkpt>
      <trkpt lat="47.64683" lon="-2.71306">
        <ele>7.6</ele>
        <time>2026-08-22T13:03:00Z</time>
      </trkpt>
      <trkpt lat="47.64678" lon="-2.71306">
        <ele>7.4</ele>
        <time>2026-08-22T13:03:01Z</time>
      </trkpt>
      <trkpt lat="47.64671" lon="-2.71307">
        <ele>7.2</ele>
        <time>2026-08-22T13:03:02Z</time>
      </trkpt>
      <trkpt lat="47.64665" lon="-2.71309">
        <ele>7.1</ele>
        <time>2026-08-22T13:03:03Z</time>
      </trkpt>
      <trkpt lat="47.64659" lon="-2.71312">
        <ele>6.9</ele>
        <time>2026-08-22T13:03:04Z</time>
      </trkpt>
      <trkpt lat="47.64653" lon="-2.71315">
        <ele>6.7</ele>
        <time>2026-08-22T13:03:05Z</time>
      </trkpt>
      <trkpt lat="47.64646" lon="-2.71319">
        <ele>6.4</ele>
        <time>2026-08-22T13:03:06Z</time>
      </trkpt>
      <trkpt lat="47.6464" lon="-2.71323">
        <ele>6.1</ele>
        <time>2026-08-22T13:03:07Z</time>
      </trkpt>
      <trkpt lat="47.64633" lon="-2.71327">
        <ele>5.6</ele>
        <time>2026-08-22T13:03:08Z</time>
      </trkpt>
      <trkpt lat="47.64626" lon="-2.71331">
        <ele>5.1</ele>
        <time>2026-08-22T13:03:09Z</time>
      </trkpt>
      <trkpt lat="47.64619" lon="-2.71333">
        <ele>4.6</ele>
        <time>2026-08-22T13:03:10Z</time>
      </trkpt>
      <trkpt lat="47.64613" lon="-2.71335">
        <ele>4.2</ele>
        <time>2026-08-22T13:03:11Z</time>
      </trkpt>
      <trkpt lat="47.64609" lon="-2.71338">
        <ele>4.1</ele>
        <time>2026-08-22T13:03:12Z</time>
      </trkpt>
      <trkpt lat="47.64605" lon="-2.7134">
        <ele>4.1</ele>
        <time>2026-08-22T13:03:13Z</time>
      </trkpt>
      <trkpt lat="47.64602" lon="-2.71341">
        <ele>4.1</ele>
        <time>2026-08-22T13:03:14Z</time>
      </trkpt>
      <trkpt lat="47.64601" lon="-2.71342">
        <ele>4.1</ele>
        <time>2026-08-22T13:03:15Z</time>
      </trkpt>
      <trkpt lat="47.64601" lon="-2.71342">
        <ele>4.1</ele>
        <time>2026-08-22T13:03:16Z</time>
      </trkpt>
      <trkpt lat="47.64601" lon="-2.71342">
        <ele>4.1</ele>
        <time>2026-08-22T13:03:17Z</time>
      </trkpt>
      <trkpt lat="47.64594" lon="-2.7134">
        <ele>3.9</ele>
        <time>2026-08-22T13:04:53Z</time>
      </trkpt>
      <trkpt lat="47.64592" lon="-2.71341">
        <ele>3.9</ele>
        <time>2026-08-22T13:04:54Z</time>
      </trkpt>
      <trkpt lat="47.6459" lon="-2.71341">
        <ele>3.9</ele>
        <time>2026-08-22T13:04:55Z</time>
      </trkpt>
      <trkpt lat="47.64587" lon="-2.71342">
        <ele>3.8</ele>
        <time>2026-08-22T13:04:56Z</time>
      </trkpt>
      <trkpt lat="47.64584" lon="-2.71342">
        <ele>3.7</ele>
        <time>2026-08-22T13:04:57Z</time>
      </trkpt>
      <trkpt lat="47.64581" lon="-2.71343">
        <ele>3.6</ele>
        <time>2026-08-22T13:04:58Z</time>
      </trkpt>
      <trkpt lat="47.64578" lon="-2.71343">
        <ele>3.6</ele>
        <time>2026-08-22T13:04:59Z</time>
      </trkpt>
      <trkpt lat="47.64574" lon="-2.71343">
        <ele>3.5</ele>
        <time>2026-08-22T13:05:00Z</time>
      </trkpt>
      <trkpt lat="47.64571" lon="-2.71343">
        <ele>3.5</ele>
        <time>2026-08-22T13:05:01Z</time>
      </trkpt>
      <trkpt lat="47.64566" lon="-2.71343">
        <ele>3.5</ele>
        <time>2026-08-22T13:05:02Z</time>
      </trkpt>
      <trkpt lat="47.64563" lon="-2.71343">
        <ele>3.4</ele>
        <time>2026-08-22T13:05:03Z</time>
      </trkpt>
      <trkpt lat="47.64559" lon="-2.71343">
        <ele>3.4</ele>
        <time>2026-08-22T13:05:04Z</time>
      </trkpt>
      <trkpt lat="47.64556" lon="-2.71344">
        <ele>3.4</ele>
        <time>2026-08-22T13:05:05Z</time>
      </trkpt>
      <trkpt lat="47.64553" lon="-2.71344">
        <ele>3.4</ele>
        <time>2026-08-22T13:05:06Z</time>
      </trkpt>
      <trkpt lat="47.6455" lon="-2.71344">
        <ele>3.5</ele>
        <time>2026-08-22T13:05:07Z</time>
      </trkpt>
      <trkpt lat="47.64547" lon="-2.71344">
        <ele>3.6</ele>
        <time>2026-08-22T13:05:08Z</time>
      </trkpt>
      <trkpt lat="47.64543" lon="-2.71345">
        <ele>3.7</ele>
        <time>2026-08-22T13:05:09Z</time>
      </trkpt>
      <trkpt lat="47.6454" lon="-2.71346">
        <ele>3.8</ele>
        <time>2026-08-22T13:05:10Z</time>
      </trkpt>
      <trkpt lat="47.64537" lon="-2.71346">
        <ele>3.8</ele>
        <time>2026-08-22T13:05:11Z</time>
      </trkpt>
      <trkpt lat="47.64533" lon="-2.71346">
        <ele>3.9</ele>
        <time>2026-08-22T13:05:12Z</time>
      </trkpt>
      <trkpt lat="47.6453" lon="-2.71346">
        <ele>4</ele>
        <time>2026-08-22T13:05:13Z</time>
      </trkpt>
      <trkpt lat="47.64527" lon="-2.71347">
        <ele>4</ele>
        <time>2026-08-22T13:05:14Z</time>
      </trkpt>
      <trkpt lat="47.64524" lon="-2.71347">
        <ele>4</ele>
        <time>2026-08-22T13:05:15Z</time>
      </trkpt>
      <trkpt lat="47.6452" lon="-2.71348">
        <ele>4</ele>
        <time>2026-08-22T13:05:16Z</time>
      </trkpt>
      <trkpt lat="47.64516" lon="-2.71348">
        <ele>4</ele>
        <time>2026-08-22T13:05:17Z</time>
      </trkpt>
      <trkpt lat="47.64512" lon="-2.71349">
        <ele>4</ele>
        <time>2026-08-22T13:05:18Z</time>
      </trkpt>
      <trkpt lat="47.64508" lon="-2.71349">
        <ele>4</ele>
        <time>2026-08-22T13:05:19Z</time>
      </trkpt>
      <trkpt lat="47.64504" lon="-2.71351">
        <ele>4</ele>
        <time>2026-08-22T13:05:20Z</time>
      </trkpt>
      <trkpt lat="47.64499" lon="-2.71351">
        <ele>4</ele>
        <time>2026-08-22T13:05:21Z</time>
      </trkpt>
      <trkpt lat="47.64493" lon="-2.71352">
        <ele>4.2</ele>
        <time>2026-08-22T13:05:22Z</time>
      </trkpt>
      <trkpt lat="47.64489" lon="-2.71354">
        <ele>4.3</ele>
        <time>2026-08-22T13:05:23Z</time>
      </trkpt>
      <trkpt lat="47.64486" lon="-2.71357">
        <ele>4.4</ele>
        <time>2026-08-22T13:05:24Z</time>
      </trkpt>
      <trkpt lat="47.64482" lon="-2.7136">
        <ele>4.6</ele>
        <time>2026-08-22T13:05:25Z</time>
      </trkpt>
      <trkpt lat="47.64479" lon="-2.71363">
        <ele>4.8</ele>
        <time>2026-08-22T13:05:26Z</time>
      </trkpt>
      <trkpt lat="47.64476" lon="-2.71363">
        <ele>4.9</ele>
        <time>2026-08-22T13:05:27Z</time>
      </trkpt>
      <trkpt lat="47.64473" lon="-2.71363">
        <ele>5</ele>
        <time>2026-08-22T13:05:28Z</time>
      </trkpt>
      <trkpt lat="47.6447" lon="-2.71365">
        <ele>5</ele>
        <time>2026-08-22T13:05:29Z</time>
      </trkpt>
      <trkpt lat="47.64467" lon="-2.71367">
        <ele>5</ele>
        <time>2026-08-22T13:05:30Z</time>
      </trkpt>
      <trkpt lat="47.64465" lon="-2.71371">
        <ele>5.1</ele>
        <time>2026-08-22T13:05:31Z</time>
      </trkpt>
      <trkpt lat="47.64463" lon="-2.71374">
        <ele>5.2</ele>
        <time>2026-08-22T13:05:32Z</time>
      </trkpt>
      <trkpt lat="47.64462" lon="-2.71378">
        <ele>5.2</ele>
        <time>2026-08-22T13:05:33Z</time>
      </trkpt>
      <trkpt lat="47.64461" lon="-2.71382">
        <ele>5.3</ele>
        <time>2026-08-22T13:05:34Z</time>
      </trkpt>
      <trkpt lat="47.64461" lon="-2.71385">
        <ele>5.3</ele>
        <time>2026-08-22T13:05:35Z</time>
      </trkpt>
      <trkpt lat="47.64461" lon="-2.71388">
        <ele>5.4</ele>
        <time>2026-08-22T13:05:36Z</time>
      </trkpt>
      <trkpt lat="47.64462" lon="-2.71391">
        <ele>5.4</ele>
        <time>2026-08-22T13:05:37Z</time>
      </trkpt>
      <trkpt lat="47.64461" lon="-2.71396">
        <ele>5.4</ele>
        <time>2026-08-22T13:05:38Z</time>
      </trkpt>
      <trkpt lat="47.64461" lon="-2.71401">
        <ele>5.4</ele>
        <time>2026-08-22T13:05:39Z</time>
      </trkpt>
      <trkpt lat="47.6446" lon="-2.71405">
        <ele>5.4</ele>
        <time>2026-08-22T13:05:40Z</time>
      </trkpt>
      <trkpt lat="47.6446" lon="-2.71409">
        <ele>5.4</ele>
        <time>2026-08-22T13:05:41Z</time>
      </trkpt>
      <trkpt lat="47.64459" lon="-2.71413">
        <ele>5.5</ele>
        <time>2026-08-22T13:05:42Z</time>
      </trkpt>
      <trkpt lat="47.64459" lon="-2.71416">
        <ele>5.5</ele>
        <time>2026-08-22T13:05:43Z</time>
      </trkpt>
      <trkpt lat="47.64459" lon="-2.71419">
        <ele>5.5</ele>
        <time>2026-08-22T13:05:44Z</time>
      </trkpt>
      <trkpt lat="47.6446" lon="-2.71424">
        <ele>5.4</ele>
        <time>2026-08-22T13:05:45Z</time>
      </trkpt>
      <trkpt lat="47.64461" lon="-2.71428">
        <ele>5.4</ele>
        <time>2026-08-22T13:05:46Z</time>
      </trkpt>
      <trkpt lat="47.64461" lon="-2.71433">
        <ele>5.4</ele>
        <time>2026-08-22T13:05:47Z</time>
      </trkpt>
      <trkpt lat="47.64461" lon="-2.71438">
        <ele>5.4</ele>
        <time>2026-08-22T13:05:48Z</time>
      </trkpt>
      <trkpt lat="47.64461" lon="-2.71443">
        <ele>5.4</ele>
        <time>2026-08-22T13:05:49Z</time>
      </trkpt>
      <trkpt lat="47.64462" lon="-2.71448">
        <ele>5.4</ele>
        <time>2026-08-22T13:05:50Z</time>
      </trkpt>
      <trkpt lat="47.64463" lon="-2.71451">
        <ele>5.5</ele>
        <time>2026-08-22T13:05:51Z</time>
      </trkpt>
      <trkpt lat="47.64464" lon="-2.71454">
        <ele>5.5</ele>
        <time>2026-08-22T13:05:52Z</time>
      </trkpt>
      <trkpt lat="47.64463" lon="-2.71459">
        <ele>5.7</ele>
        <time>2026-08-22T13:05:53Z</time>
      </trkpt>
      <trkpt lat="47.64463" lon="-2.71464">
        <ele>5.8</ele>
        <time>2026-08-22T13:05:54Z</time>
      </trkpt>
      <trkpt lat="47.64463" lon="-2.7147">
        <ele>5.9</ele>
        <time>2026-08-22T13:05:55Z</time>
      </trkpt>
      <trkpt lat="47.64462" lon="-2.71476">
        <ele>6</ele>
        <time>2026-08-22T13:05:56Z</time>
      </trkpt>
      <trkpt lat="47.64462" lon="-2.71482">
        <ele>6</ele>
        <time>2026-08-22T13:05:57Z</time>
      </trkpt>
      <trkpt lat="47.64462" lon="-2.71489">
        <ele>6</ele>
        <time>2026-08-22T13:05:58Z</time>
      </trkpt>
      <trkpt lat="47.64463" lon="-2.71495">
        <ele>6</ele>
        <time>2026-08-22T13:05:59Z</time>
      </trkpt>
      <trkpt lat="47.64464" lon="-2.715">
        <ele>6</ele>
        <time>2026-08-22T13:06:00Z</time>
      </trkpt>
      <trkpt lat="47.64464" lon="-2.71507">
        <ele>6.1</ele>
        <time>2026-08-22T13:06:01Z</time>
      </trkpt>
      <trkpt lat="47.64464" lon="-2.71513">
        <ele>6.1</ele>
        <time>2026-08-22T13:06:02Z</time>
      </trkpt>
      <trkpt lat="47.64463" lon="-2.71518">
        <ele>6.2</ele>
        <time>2026-08-22T13:06:03Z</time>
      </trkpt>
      <trkpt lat="47.64465" lon="-2.71522">
        <ele>6.2</ele>
        <time>2026-08-22T13:06:04Z</time>
      </trkpt>
      <trkpt lat="47.64465" lon="-2.71528">
        <ele>6.3</ele>
        <time>2026-08-22T13:06:05Z</time>
      </trkpt>
      <trkpt lat="47.64465" lon="-2.71531">
        <ele>6.3</ele>
        <time>2026-08-22T13:06:06Z</time>
      </trkpt>
      <trkpt lat="47.64461" lon="-2.71538">
        <ele>6.4</ele>
        <time>2026-08-22T13:06:07Z</time>
      </trkpt>
      <trkpt lat="47.64459" lon="-2.7154">
        <ele>6.5</ele>
        <time>2026-08-22T13:06:08Z</time>
      </trkpt>
      <trkpt lat="47.64457" lon="-2.71543">
        <ele>6.5</ele>
        <time>2026-08-22T13:06:09Z</time>
      </trkpt>
      <trkpt lat="47.64455" lon="-2.71545">
        <ele>6.6</ele>
        <time>2026-08-22T13:06:10Z</time>
      </trkpt>
      <trkpt lat="47.64452" lon="-2.71547">
        <ele>6.7</ele>
        <time>2026-08-22T13:06:11Z</time>
      </trkpt>
      <trkpt lat="47.64451" lon="-2.7155">
        <ele>6.8</ele>
        <time>2026-08-22T13:06:12Z</time>
      </trkpt>
      <trkpt lat="47.64449" lon="-2.71553">
        <ele>6.8</ele>
        <time>2026-08-22T13:06:13Z</time>
      </trkpt>
      <trkpt lat="47.64448" lon="-2.71556">
        <ele>6.9</ele>
        <time>2026-08-22T13:06:14Z</time>
      </trkpt>
      <trkpt lat="47.64446" lon="-2.71559">
        <ele>6.9</ele>
        <time>2026-08-22T13:06:15Z</time>
      </trkpt>
      <trkpt lat="47.64444" lon="-2.7156">
        <ele>7</ele>
        <time>2026-08-22T13:06:16Z</time>
      </trkpt>
      <trkpt lat="47.64442" lon="-2.71562">
        <ele>7.1</ele>
        <time>2026-08-22T13:06:17Z</time>
      </trkpt>
      <trkpt lat="47.64439" lon="-2.71564">
        <ele>7.3</ele>
        <time>2026-08-22T13:06:18Z</time>
      </trkpt>
      <trkpt lat="47.64437" lon="-2.71566">
        <ele>7.4</ele>
        <time>2026-08-22T13:06:19Z</time>
      </trkpt>
      <trkpt lat="47.64434" lon="-2.71568">
        <ele>7.5</ele>
        <time>2026-08-22T13:06:20Z</time>
      </trkpt>
      <trkpt lat="47.64433" lon="-2.7157">
        <ele>7.6</ele>
        <time>2026-08-22T13:06:21Z</time>
      </trkpt>
      <trkpt lat="47.64432" lon="-2.71573">
        <ele>7.7</ele>
        <time>2026-08-22T13:06:22Z</time>
      </trkpt>
      <trkpt lat="47.64431" lon="-2.71576">
        <ele>7.8</ele>
        <time>2026-08-22T13:06:23Z</time>
      </trkpt>
      <trkpt lat="47.6443" lon="-2.71578">
        <ele>7.9</ele>
        <time>2026-08-22T13:06:24Z</time>
      </trkpt>
      <trkpt lat="47.6443" lon="-2.71581">
        <ele>8</ele>
        <time>2026-08-22T13:06:25Z</time>
      </trkpt>
      <trkpt lat="47.64431" lon="-2.71584">
        <ele>8</ele>
        <time>2026-08-22T13:06:26Z</time>
      </trkpt>
      <trkpt lat="47.64432" lon="-2.71586">
        <ele>7.9</ele>
        <time>2026-08-22T13:06:27Z</time>
      </trkpt>
      <trkpt lat="47.64433" lon="-2.71588">
        <ele>7.8</ele>
        <time>2026-08-22T13:06:28Z</time>
      </trkpt>
      <trkpt lat="47.64434" lon="-2.7159">
        <ele>7.8</ele>
        <time>2026-08-22T13:06:29Z</time>
      </trkpt>
      <trkpt lat="47.64436" lon="-2.71593">
        <ele>7.6</ele>
        <time>2026-08-22T13:06:30Z</time>
      </trkpt>
      <trkpt lat="47.64437" lon="-2.71595">
        <ele>7.5</ele>
        <time>2026-08-22T13:06:31Z</time>
      </trkpt>
      <trkpt lat="47.64438" lon="-2.71598">
        <ele>7.5</ele>
        <time>2026-08-22T13:06:32Z</time>
      </trkpt>
      <trkpt lat="47.64439" lon="-2.71602">
        <ele>7.4</ele>
        <time>2026-08-22T13:06:33Z</time>
      </trkpt>
      <trkpt lat="47.64439" lon="-2.71605">
        <ele>7.4</ele>
        <time>2026-08-22T13:06:34Z</time>
      </trkpt>
      <trkpt lat="47.64439" lon="-2.71608">
        <ele>7.4</ele>
        <time>2026-08-22T13:06:35Z</time>
      </trkpt>
      <trkpt lat="47.64438" lon="-2.71612">
        <ele>7.5</ele>
        <time>2026-08-22T13:06:36Z</time>
      </trkpt>
      <trkpt lat="47.64437" lon="-2.71617">
        <ele>7.5</ele>
        <time>2026-08-22T13:06:37Z</time>
      </trkpt>
      <trkpt lat="47.64435" lon="-2.71619">
        <ele>7.7</ele>
        <time>2026-08-22T13:06:38Z</time>
      </trkpt>
      <trkpt lat="47.64433" lon="-2.71621">
        <ele>7.8</ele>
        <time>2026-08-22T13:06:39Z</time>
      </trkpt>
      <trkpt lat="47.6443" lon="-2.71623">
        <ele>8</ele>
        <time>2026-08-22T13:06:40Z</time>
      </trkpt>
      <trkpt lat="47.64427" lon="-2.71624">
        <ele>8.3</ele>
        <time>2026-08-22T13:06:41Z</time>
      </trkpt>
      <trkpt lat="47.64425" lon="-2.71625">
        <ele>8.4</ele>
        <time>2026-08-22T13:06:42Z</time>
      </trkpt>
      <trkpt lat="47.64422" lon="-2.71626">
        <ele>8.6</ele>
        <time>2026-08-22T13:06:43Z</time>
      </trkpt>
      <trkpt lat="47.6442" lon="-2.71627">
        <ele>8.8</ele>
        <time>2026-08-22T13:06:44Z</time>
      </trkpt>
      <trkpt lat="47.64416" lon="-2.71629">
        <ele>9</ele>
        <time>2026-08-22T13:06:45Z</time>
      </trkpt>
      <trkpt lat="47.64413" lon="-2.71631">
        <ele>9.3</ele>
        <time>2026-08-22T13:06:46Z</time>
      </trkpt>
      <trkpt lat="47.64411" lon="-2.71632">
        <ele>9.4</ele>
        <time>2026-08-22T13:06:47Z</time>
      </trkpt>
      <trkpt lat="47.64409" lon="-2.71634">
        <ele>9.6</ele>
        <time>2026-08-22T13:06:48Z</time>
      </trkpt>
      <trkpt lat="47.64406" lon="-2.71635">
        <ele>9.8</ele>
        <time>2026-08-22T13:06:49Z</time>
      </trkpt>
      <trkpt lat="47.64403" lon="-2.71637">
        <ele>10</ele>
        <time>2026-08-22T13:06:50Z</time>
      </trkpt>
      <trkpt lat="47.644" lon="-2.71639">
        <ele>10.2</ele>
        <time>2026-08-22T13:06:51Z</time>
      </trkpt>
      <trkpt lat="47.64397" lon="-2.71642">
        <ele>10.3</ele>
        <time>2026-08-22T13:06:52Z</time>
      </trkpt>
      <trkpt lat="47.64395" lon="-2.71644">
        <ele>10.3</ele>
        <time>2026-08-22T13:06:53Z</time>
      </trkpt>
      <trkpt lat="47.64392" lon="-2.71647">
        <ele>10.5</ele>
        <time>2026-08-22T13:06:54Z</time>
      </trkpt>
      <trkpt lat="47.64391" lon="-2.7165">
        <ele>10.4</ele>
        <time>2026-08-22T13:06:55Z</time>
      </trkpt>
      <trkpt lat="47.64391" lon="-2.71652">
        <ele>10.3</ele>
        <time>2026-08-22T13:06:56Z</time>
      </trkpt>
      <trkpt lat="47.6439" lon="-2.71655">
        <ele>10.3</ele>
        <time>2026-08-22T13:06:57Z</time>
      </trkpt>
      <trkpt lat="47.6439" lon="-2.7166">
        <ele>10.1</ele>
        <time>2026-08-22T13:06:58Z</time>
      </trkpt>
      <trkpt lat="47.64389" lon="-2.71664">
        <ele>10.1</ele>
        <time>2026-08-22T13:06:59Z</time>
      </trkpt>
      <trkpt lat="47.64389" lon="-2.71669">
        <ele>9.9</ele>
        <time>2026-08-22T13:07:00Z</time>
      </trkpt>
      <trkpt lat="47.64388" lon="-2.71675">
        <ele>9.8</ele>
        <time>2026-08-22T13:07:01Z</time>
      </trkpt>
      <trkpt lat="47.64389" lon="-2.7168">
        <ele>9.5</ele>
        <time>2026-08-22T13:07:02Z</time>
      </trkpt>
      <trkpt lat="47.64388" lon="-2.71685">
        <ele>9.5</ele>
        <time>2026-08-22T13:07:03Z</time>
      </trkpt>
      <trkpt lat="47.64385" lon="-2.71689">
        <ele>9.7</ele>
        <time>2026-08-22T13:07:04Z</time>
      </trkpt>
      <trkpt lat="47.64382" lon="-2.71693">
        <ele>10</ele>
        <time>2026-08-22T13:07:05Z</time>
      </trkpt>
      <trkpt lat="47.6438" lon="-2.71697">
        <ele>10.1</ele>
        <time>2026-08-22T13:07:06Z</time>
      </trkpt>
      <trkpt lat="47.64378" lon="-2.717">
        <ele>10.2</ele>
        <time>2026-08-22T13:07:07Z</time>
      </trkpt>
      <trkpt lat="47.64376" lon="-2.71703">
        <ele>10.3</ele>
        <time>2026-08-22T13:07:08Z</time>
      </trkpt>
      <trkpt lat="47.64372" lon="-2.71706">
        <ele>10.5</ele>
        <time>2026-08-22T13:07:09Z</time>
      </trkpt>
      <trkpt lat="47.64368" lon="-2.71712">
        <ele>10.4</ele>
        <time>2026-08-22T13:07:10Z</time>
      </trkpt>
      <trkpt lat="47.64365" lon="-2.71715">
        <ele>10.4</ele>
        <time>2026-08-22T13:07:11Z</time>
      </trkpt>
      <trkpt lat="47.64362" lon="-2.71719">
        <ele>10.3</ele>
        <time>2026-08-22T13:07:12Z</time>
      </trkpt>
      <trkpt lat="47.64359" lon="-2.71723">
        <ele>10.2</ele>
        <time>2026-08-22T13:07:13Z</time>
      </trkpt>
      <trkpt lat="47.64356" lon="-2.71726">
        <ele>10.4</ele>
        <time>2026-08-22T13:07:14Z</time>
      </trkpt>
      <trkpt lat="47.64354" lon="-2.71729">
        <ele>10.5</ele>
        <time>2026-08-22T13:07:15Z</time>
      </trkpt>
      <trkpt lat="47.64351" lon="-2.71733">
        <ele>10.6</ele>
        <time>2026-08-22T13:07:16Z</time>
      </trkpt>
      <trkpt lat="47.64348" lon="-2.71737">
        <ele>10.6</ele>
        <time>2026-08-22T13:07:17Z</time>
      </trkpt>
      <trkpt lat="47.64345" lon="-2.7174">
        <ele>10.7</ele>
        <time>2026-08-22T13:07:18Z</time>
      </trkpt>
      <trkpt lat="47.64342" lon="-2.71742">
        <ele>10.9</ele>
        <time>2026-08-22T13:07:19Z</time>
      </trkpt>
      <trkpt lat="47.64339" lon="-2.71745">
        <ele>10.9</ele>
        <time>2026-08-22T13:07:20Z</time>
      </trkpt>
      <trkpt lat="47.64335" lon="-2.71746">
        <ele>11.2</ele>
        <time>2026-08-22T13:07:21Z</time>
      </trkpt>
      <trkpt lat="47.64332" lon="-2.71748">
        <ele>11.3</ele>
        <time>2026-08-22T13:07:22Z</time>
      </trkpt>
      <trkpt lat="47.64329" lon="-2.71751">
        <ele>11.5</ele>
        <time>2026-08-22T13:07:23Z</time>
      </trkpt>
      <trkpt lat="47.64327" lon="-2.71753">
        <ele>11.7</ele>
        <time>2026-08-22T13:07:24Z</time>
      </trkpt>
      <trkpt lat="47.64324" lon="-2.71758">
        <ele>11.9</ele>
        <time>2026-08-22T13:07:25Z</time>
      </trkpt>
      <trkpt lat="47.64322" lon="-2.71761">
        <ele>12.1</ele>
        <time>2026-08-22T13:07:26Z</time>
      </trkpt>
      <trkpt lat="47.64319" lon="-2.71763">
        <ele>12.3</ele>
        <time>2026-08-22T13:07:27Z</time>
      </trkpt>
      <trkpt lat="47.64317" lon="-2.71765">
        <ele>12.4</ele>
        <time>2026-08-22T13:07:28Z</time>
      </trkpt>
      <trkpt lat="47.64314" lon="-2.71767">
        <ele>12.7</ele>
        <time>2026-08-22T13:07:29Z</time>
      </trkpt>
      <trkpt lat="47.64311" lon="-2.71769">
        <ele>12.9</ele>
        <time>2026-08-22T13:07:30Z</time>
      </trkpt>
      <trkpt lat="47.64309" lon="-2.71771">
        <ele>13</ele>
        <time>2026-08-22T13:07:31Z</time>
      </trkpt>
      <trkpt lat="47.64307" lon="-2.71772">
        <ele>13.1</ele>
        <time>2026-08-22T13:07:32Z</time>
      </trkpt>
      <trkpt lat="47.64305" lon="-2.71774">
        <ele>13.2</ele>
        <time>2026-08-22T13:07:33Z</time>
      </trkpt>
      <trkpt lat="47.64302" lon="-2.71776">
        <ele>13.3</ele>
        <time>2026-08-22T13:07:34Z</time>
      </trkpt>
      <trkpt lat="47.64301" lon="-2.71777">
        <ele>13.4</ele>
        <time>2026-08-22T13:07:35Z</time>
      </trkpt>
      <trkpt lat="47.64299" lon="-2.71778">
        <ele>13.5</ele>
        <time>2026-08-22T13:07:36Z</time>
      </trkpt>
      <trkpt lat="47.64298" lon="-2.7178">
        <ele>13.5</ele>
        <time>2026-08-22T13:07:37Z</time>
      </trkpt>
      <trkpt lat="47.64298" lon="-2.7178">
        <ele>13.5</ele>
        <time>2026-08-22T13:07:38Z</time>
      </trkpt>
      <trkpt lat="47.64298" lon="-2.7178">
        <ele>13.5</ele>
        <time>2026-08-22T13:07:39Z</time>
      </trkpt>
      <trkpt lat="47.64298" lon="-2.7178">
        <ele>13.5</ele>
        <time>2026-08-22T13:07:40Z</time>
      </trkpt>
      <trkpt lat="47.64298" lon="-2.71788">
        <ele>13.2</ele>
        <time>2026-08-22T13:08:03Z</time>
      </trkpt>
      <trkpt lat="47.64299" lon="-2.71792">
        <ele>13</ele>
        <time>2026-08-22T13:08:04Z</time>
      </trkpt>
      <trkpt lat="47.643" lon="-2.71797">
        <ele>12.7</ele>
        <time>2026-08-22T13:08:05Z</time>
      </trkpt>
      <trkpt lat="47.64302" lon="-2.71803">
        <ele>12.3</ele>
        <time>2026-08-22T13:08:06Z</time>
      </trkpt>
      <trkpt lat="47.64304" lon="-2.71809">
        <ele>12</ele>
        <time>2026-08-22T13:08:07Z</time>
      </trkpt>
      <trkpt lat="47.64306" lon="-2.71815">
        <ele>11.6</ele>
        <time>2026-08-22T13:08:08Z</time>
      </trkpt>
      <trkpt lat="47.64308" lon="-2.71822">
        <ele>11.3</ele>
        <time>2026-08-22T13:08:09Z</time>
      </trkpt>
      <trkpt lat="47.64311" lon="-2.71829">
        <ele>10.9</ele>
        <time>2026-08-22T13:08:10Z</time>
      </trkpt>
      <trkpt lat="47.64314" lon="-2.71836">
        <ele>10.7</ele>
        <time>2026-08-22T13:08:11Z</time>
      </trkpt>
      <trkpt lat="47.64317" lon="-2.71843">
        <ele>10.6</ele>
        <time>2026-08-22T13:08:12Z</time>
      </trkpt>
      <trkpt lat="47.6432" lon="-2.7185">
        <ele>10.5</ele>
        <time>2026-08-22T13:08:13Z</time>
      </trkpt>
      <trkpt lat="47.64324" lon="-2.71856">
        <ele>10.3</ele>
        <time>2026-08-22T13:08:14Z</time>
      </trkpt>
      <trkpt lat="47.64327" lon="-2.71863">
        <ele>10.2</ele>
        <time>2026-08-22T13:08:15Z</time>
      </trkpt>
      <trkpt lat="47.64331" lon="-2.71869">
        <ele>10.1</ele>
        <time>2026-08-22T13:08:16Z</time>
      </trkpt>
      <trkpt lat="47.64334" lon="-2.71875">
        <ele>10</ele>
        <time>2026-08-22T13:08:17Z</time>
      </trkpt>
      <trkpt lat="47.64338" lon="-2.71881">
        <ele>10</ele>
        <time>2026-08-22T13:08:18Z</time>
      </trkpt>
      <trkpt lat="47.64341" lon="-2.71886">
        <ele>10</ele>
        <time>2026-08-22T13:08:19Z</time>
      </trkpt>
      <trkpt lat="47.64343" lon="-2.71892">
        <ele>10.1</ele>
        <time>2026-08-22T13:08:20Z</time>
      </trkpt>
      <trkpt lat="47.64346" lon="-2.71897">
        <ele>10.3</ele>
        <time>2026-08-22T13:08:21Z</time>
      </trkpt>
      <trkpt lat="47.64349" lon="-2.71903">
        <ele>10.5</ele>
        <time>2026-08-22T13:08:22Z</time>
      </trkpt>
      <trkpt lat="47.64352" lon="-2.71909">
        <ele>10.7</ele>
        <time>2026-08-22T13:08:23Z</time>
      </trkpt>
      <trkpt lat="47.64354" lon="-2.71915">
        <ele>10.9</ele>
        <time>2026-08-22T13:08:24Z</time>
      </trkpt>
      <trkpt lat="47.64357" lon="-2.7192">
        <ele>11</ele>
        <time>2026-08-22T13:08:25Z</time>
      </trkpt>
      <trkpt lat="47.64359" lon="-2.71926">
        <ele>11</ele>
        <time>2026-08-22T13:08:26Z</time>
      </trkpt>
      <trkpt lat="47.64361" lon="-2.71932">
        <ele>11</ele>
        <time>2026-08-22T13:08:27Z</time>
      </trkpt>
      <trkpt lat="47.64364" lon="-2.71938">
        <ele>11.1</ele>
        <time>2026-08-22T13:08:28Z</time>
      </trkpt>
      <trkpt lat="47.64366" lon="-2.71945">
        <ele>11.2</ele>
        <time>2026-08-22T13:08:29Z</time>
      </trkpt>
      <trkpt lat="47.64368" lon="-2.71951">
        <ele>11.5</ele>
        <time>2026-08-22T13:08:30Z</time>
      </trkpt>
      <trkpt lat="47.6437" lon="-2.71957">
        <ele>11.8</ele>
        <time>2026-08-22T13:08:31Z</time>
      </trkpt>
      <trkpt lat="47.64372" lon="-2.71962">
        <ele>12</ele>
        <time>2026-08-22T13:08:32Z</time>
      </trkpt>
      <trkpt lat="47.64374" lon="-2.71967">
        <ele>12.3</ele>
        <time>2026-08-22T13:08:33Z</time>
      </trkpt>
      <trkpt lat="47.64376" lon="-2.71972">
        <ele>12.5</ele>
        <time>2026-08-22T13:08:34Z</time>
      </trkpt>
      <trkpt lat="47.64377" lon="-2.71978">
        <ele>12.7</ele>
        <time>2026-08-22T13:08:35Z</time>
      </trkpt>
      <trkpt lat="47.64379" lon="-2.71983">
        <ele>12.8</ele>
        <time>2026-08-22T13:08:36Z</time>
      </trkpt>
      <trkpt lat="47.6438" lon="-2.71989">
        <ele>12.9</ele>
        <time>2026-08-22T13:08:37Z</time>
      </trkpt>
      <trkpt lat="47.64382" lon="-2.71994">
        <ele>12.9</ele>
        <time>2026-08-22T13:08:38Z</time>
      </trkpt>
      <trkpt lat="47.64384" lon="-2.72">
        <ele>13</ele>
        <time>2026-08-22T13:08:39Z</time>
      </trkpt>
      <trkpt lat="47.64385" lon="-2.72005">
        <ele>13.2</ele>
        <time>2026-08-22T13:08:40Z</time>
      </trkpt>
      <trkpt lat="47.64387" lon="-2.72011">
        <ele>13.4</ele>
        <time>2026-08-22T13:08:41Z</time>
      </trkpt>
      <trkpt lat="47.64388" lon="-2.72016">
        <ele>13.6</ele>
        <time>2026-08-22T13:08:42Z</time>
      </trkpt>
      <trkpt lat="47.6439" lon="-2.72022">
        <ele>13.8</ele>
        <time>2026-08-22T13:08:43Z</time>
      </trkpt>
      <trkpt lat="47.64391" lon="-2.72027">
        <ele>14</ele>
        <time>2026-08-22T13:08:44Z</time>
      </trkpt>
      <trkpt lat="47.64393" lon="-2.72033">
        <ele>14</ele>
        <time>2026-08-22T13:08:45Z</time>
      </trkpt>
      <trkpt lat="47.64394" lon="-2.72038">
        <ele>14.1</ele>
        <time>2026-08-22T13:08:46Z</time>
      </trkpt>
      <trkpt lat="47.64396" lon="-2.72044">
        <ele>14.1</ele>
        <time>2026-08-22T13:08:47Z</time>
      </trkpt>
      <trkpt lat="47.64396" lon="-2.72049">
        <ele>14.2</ele>
        <time>2026-08-22T13:08:48Z</time>
      </trkpt>
      <trkpt lat="47.64397" lon="-2.72055">
        <ele>14.3</ele>
        <time>2026-08-22T13:08:49Z</time>
      </trkpt>
      <trkpt lat="47.64396" lon="-2.7206">
        <ele>14.4</ele>
        <time>2026-08-22T13:08:50Z</time>
      </trkpt>
      <trkpt lat="47.64394" lon="-2.72064">
        <ele>14.4</ele>
        <time>2026-08-22T13:08:51Z</time>
      </trkpt>
      <trkpt lat="47.64391" lon="-2.72068">
        <ele>14.5</ele>
        <time>2026-08-22T13:08:52Z</time>
      </trkpt>
      <trkpt lat="47.64387" lon="-2.72071">
        <ele>14.5</ele>
        <time>2026-08-22T13:08:53Z</time>
      </trkpt>
      <trkpt lat="47.64383" lon="-2.72073">
        <ele>14.5</ele>
        <time>2026-08-22T13:08:54Z</time>
      </trkpt>
      <trkpt lat="47.64379" lon="-2.72076">
        <ele>14.5</ele>
        <time>2026-08-22T13:08:55Z</time>
      </trkpt>
      <trkpt lat="47.64375" lon="-2.72078">
        <ele>14.4</ele>
        <time>2026-08-22T13:08:56Z</time>
      </trkpt>
      <trkpt lat="47.64371" lon="-2.72081">
        <ele>14.3</ele>
        <time>2026-08-22T13:08:57Z</time>
      </trkpt>
      <trkpt lat="47.64367" lon="-2.72084">
        <ele>14.2</ele>
        <time>2026-08-22T13:08:58Z</time>
      </trkpt>
      <trkpt lat="47.64362" lon="-2.72087">
        <ele>14</ele>
        <time>2026-08-22T13:08:59Z</time>
      </trkpt>
      <trkpt lat="47.64358" lon="-2.7209">
        <ele>13.9</ele>
        <time>2026-08-22T13:09:00Z</time>
      </trkpt>
      <trkpt lat="47.64354" lon="-2.72093">
        <ele>13.7</ele>
        <time>2026-08-22T13:09:01Z</time>
      </trkpt>
      <trkpt lat="47.64349" lon="-2.72096">
        <ele>13.6</ele>
        <time>2026-08-22T13:09:02Z</time>
      </trkpt>
      <trkpt lat="47.64345" lon="-2.72099">
        <ele>13.4</ele>
        <time>2026-08-22T13:09:03Z</time>
      </trkpt>
      <trkpt lat="47.6434" lon="-2.72102">
        <ele>13.2</ele>
        <time>2026-08-22T13:09:04Z</time>
      </trkpt>
      <trkpt lat="47.64335" lon="-2.72106">
        <ele>13.1</ele>
        <time>2026-08-22T13:09:05Z</time>
      </trkpt>
      <trkpt lat="47.6433" lon="-2.72109">
        <ele>12.9</ele>
        <time>2026-08-22T13:09:06Z</time>
      </trkpt>
      <trkpt lat="47.64326" lon="-2.72113">
        <ele>12.7</ele>
        <time>2026-08-22T13:09:07Z</time>
      </trkpt>
      <trkpt lat="47.64321" lon="-2.72117">
        <ele>12.6</ele>
        <time>2026-08-22T13:09:08Z</time>
      </trkpt>
      <trkpt lat="47.64318" lon="-2.72122">
        <ele>12.4</ele>
        <time>2026-08-22T13:09:09Z</time>
      </trkpt>
      <trkpt lat="47.64316" lon="-2.72128">
        <ele>12.4</ele>
        <time>2026-08-22T13:09:10Z</time>
      </trkpt>
      <trkpt lat="47.64314" lon="-2.72134">
        <ele>12.3</ele>
        <time>2026-08-22T13:09:11Z</time>
      </trkpt>
      <trkpt lat="47.64312" lon="-2.7214">
        <ele>12.2</ele>
        <time>2026-08-22T13:09:12Z</time>
      </trkpt>
      <trkpt lat="47.64311" lon="-2.72147">
        <ele>12.2</ele>
        <time>2026-08-22T13:09:13Z</time>
      </trkpt>
      <trkpt lat="47.64312" lon="-2.72152">
        <ele>12.2</ele>
        <time>2026-08-22T13:09:14Z</time>
      </trkpt>
      <trkpt lat="47.64313" lon="-2.72158">
        <ele>12.3</ele>
        <time>2026-08-22T13:09:15Z</time>
      </trkpt>
      <trkpt lat="47.64315" lon="-2.72162">
        <ele>12.3</ele>
        <time>2026-08-22T13:09:16Z</time>
      </trkpt>
      <trkpt lat="47.64317" lon="-2.72167">
        <ele>12.4</ele>
        <time>2026-08-22T13:09:17Z</time>
      </trkpt>
      <trkpt lat="47.64319" lon="-2.7217">
        <ele>12.5</ele>
        <time>2026-08-22T13:09:18Z</time>
      </trkpt>
      <trkpt lat="47.64321" lon="-2.72173">
        <ele>12.7</ele>
        <time>2026-08-22T13:09:19Z</time>
      </trkpt>
      <trkpt lat="47.64322" lon="-2.72176">
        <ele>12.7</ele>
        <time>2026-08-22T13:09:20Z</time>
      </trkpt>
      <trkpt lat="47.64321" lon="-2.72179">
        <ele>12.8</ele>
        <time>2026-08-22T13:09:21Z</time>
      </trkpt>
      <trkpt lat="47.6432" lon="-2.72182">
        <ele>12.8</ele>
        <time>2026-08-22T13:09:22Z</time>
      </trkpt>
      <trkpt lat="47.6432" lon="-2.72184">
        <ele>12.8</ele>
        <time>2026-08-22T13:09:23Z</time>
      </trkpt>
      <trkpt lat="47.6432" lon="-2.72187">
        <ele>12.9</ele>
        <time>2026-08-22T13:09:24Z</time>
      </trkpt>
      <trkpt lat="47.64321" lon="-2.7219">
        <ele>12.9</ele>
        <time>2026-08-22T13:09:25Z</time>
      </trkpt>
      <trkpt lat="47.64322" lon="-2.72194">
        <ele>13</ele>
        <time>2026-08-22T13:09:26Z</time>
      </trkpt>
      <trkpt lat="47.64322" lon="-2.72198">
        <ele>12.9</ele>
        <time>2026-08-22T13:09:27Z</time>
      </trkpt>
      <trkpt lat="47.64321" lon="-2.72201">
        <ele>12.8</ele>
        <time>2026-08-22T13:09:28Z</time>
      </trkpt>
      <trkpt lat="47.64319" lon="-2.72204">
        <ele>12.7</ele>
        <time>2026-08-22T13:09:29Z</time>
      </trkpt>
      <trkpt lat="47.64316" lon="-2.72205">
        <ele>12.6</ele>
        <time>2026-08-22T13:09:30Z</time>
      </trkpt>
      <trkpt lat="47.64313" lon="-2.72207">
        <ele>12.5</ele>
        <time>2026-08-22T13:09:31Z</time>
      </trkpt>
      <trkpt lat="47.6431" lon="-2.7221">
        <ele>12.4</ele>
        <time>2026-08-22T13:09:32Z</time>
      </trkpt>
      <trkpt lat="47.64307" lon="-2.72214">
        <ele>12.3</ele>
        <time>2026-08-22T13:09:33Z</time>
      </trkpt>
      <trkpt lat="47.64305" lon="-2.72218">
        <ele>12.1</ele>
        <time>2026-08-22T13:09:34Z</time>
      </trkpt>
      <trkpt lat="47.64302" lon="-2.72223">
        <ele>12</ele>
        <time>2026-08-22T13:09:35Z</time>
      </trkpt>
      <trkpt lat="47.64299" lon="-2.72227">
        <ele>12.1</ele>
        <time>2026-08-22T13:09:36Z</time>
      </trkpt>
      <trkpt lat="47.64296" lon="-2.72232">
        <ele>12.2</ele>
        <time>2026-08-22T13:09:37Z</time>
      </trkpt>
      <trkpt lat="47.64293" lon="-2.72237">
        <ele>12.3</ele>
        <time>2026-08-22T13:09:38Z</time>
      </trkpt>
      <trkpt lat="47.64291" lon="-2.72244">
        <ele>12.4</ele>
        <time>2026-08-22T13:09:39Z</time>
      </trkpt>
      <trkpt lat="47.64291" lon="-2.72251">
        <ele>12.5</ele>
        <time>2026-08-22T13:09:40Z</time>
      </trkpt>
      <trkpt lat="47.64291" lon="-2.72257">
        <ele>12.5</ele>
        <time>2026-08-22T13:09:41Z</time>
      </trkpt>
      <trkpt lat="47.64292" lon="-2.72264">
        <ele>12.5</ele>
        <time>2026-08-22T13:09:42Z</time>
      </trkpt>
      <trkpt lat="47.64293" lon="-2.72271">
        <ele>12.5</ele>
        <time>2026-08-22T13:09:43Z</time>
      </trkpt>
      <trkpt lat="47.64294" lon="-2.72277">
        <ele>12.4</ele>
        <time>2026-08-22T13:09:44Z</time>
      </trkpt>
      <trkpt lat="47.64294" lon="-2.72284">
        <ele>12.5</ele>
        <time>2026-08-22T13:09:45Z</time>
      </trkpt>
      <trkpt lat="47.64294" lon="-2.72291">
        <ele>12.7</ele>
        <time>2026-08-22T13:09:46Z</time>
      </trkpt>
      <trkpt lat="47.64295" lon="-2.72298">
        <ele>12.8</ele>
        <time>2026-08-22T13:09:47Z</time>
      </trkpt>
      <trkpt lat="47.64295" lon="-2.72305">
        <ele>13</ele>
        <time>2026-08-22T13:09:48Z</time>
      </trkpt>
      <trkpt lat="47.64295" lon="-2.72313">
        <ele>12.8</ele>
        <time>2026-08-22T13:09:49Z</time>
      </trkpt>
      <trkpt lat="47.64295" lon="-2.7232">
        <ele>12.7</ele>
        <time>2026-08-22T13:09:50Z</time>
      </trkpt>
      <trkpt lat="47.64295" lon="-2.72327">
        <ele>12.5</ele>
        <time>2026-08-22T13:09:51Z</time>
      </trkpt>
      <trkpt lat="47.64295" lon="-2.72334">
        <ele>12.4</ele>
        <time>2026-08-22T13:09:52Z</time>
      </trkpt>
      <trkpt lat="47.64296" lon="-2.72341">
        <ele>12.5</ele>
        <time>2026-08-22T13:09:53Z</time>
      </trkpt>
      <trkpt lat="47.64296" lon="-2.72349">
        <ele>12.7</ele>
        <time>2026-08-22T13:09:54Z</time>
      </trkpt>
      <trkpt lat="47.64296" lon="-2.72356">
        <ele>12.9</ele>
        <time>2026-08-22T13:09:55Z</time>
      </trkpt>
      <trkpt lat="47.64296" lon="-2.72363">
        <ele>13</ele>
        <time>2026-08-22T13:09:56Z</time>
      </trkpt>
      <trkpt lat="47.64297" lon="-2.7237">
        <ele>13</ele>
        <time>2026-08-22T13:09:57Z</time>
      </trkpt>
      <trkpt lat="47.64297" lon="-2.72377">
        <ele>13</ele>
        <time>2026-08-22T13:09:58Z</time>
      </trkpt>
      <trkpt lat="47.64298" lon="-2.72384">
        <ele>13</ele>
        <time>2026-08-22T13:09:59Z</time>
      </trkpt>
      <trkpt lat="47.64298" lon="-2.72391">
        <ele>13</ele>
        <time>2026-08-22T13:10:00Z</time>
      </trkpt>
      <trkpt lat="47.64298" lon="-2.72399">
        <ele>13</ele>
        <time>2026-08-22T13:10:01Z</time>
      </trkpt>
      <trkpt lat="47.64298" lon="-2.72406">
        <ele>13</ele>
        <time>2026-08-22T13:10:02Z</time>
      </trkpt>
      <trkpt lat="47.64299" lon="-2.72413">
        <ele>13</ele>
        <time>2026-08-22T13:10:03Z</time>
      </trkpt>
      <trkpt lat="47.64299" lon="-2.7242">
        <ele>13</ele>
        <time>2026-08-22T13:10:04Z</time>
      </trkpt>
      <trkpt lat="47.64299" lon="-2.72428">
        <ele>13</ele>
        <time>2026-08-22T13:10:05Z</time>
      </trkpt>
      <trkpt lat="47.643" lon="-2.72435">
        <ele>13</ele>
        <time>2026-08-22T13:10:06Z</time>
      </trkpt>
      <trkpt lat="47.643" lon="-2.72443">
        <ele>13</ele>
        <time>2026-08-22T13:10:07Z</time>
      </trkpt>
      <trkpt lat="47.643" lon="-2.7245">
        <ele>13</ele>
        <time>2026-08-22T13:10:08Z</time>
      </trkpt>
      <trkpt lat="47.643" lon="-2.72457">
        <ele>13</ele>
        <time>2026-08-22T13:10:09Z</time>
      </trkpt>
      <trkpt lat="47.64301" lon="-2.72465">
        <ele>13</ele>
        <time>2026-08-22T13:10:10Z</time>
      </trkpt>
      <trkpt lat="47.64302" lon="-2.72472">
        <ele>13</ele>
        <time>2026-08-22T13:10:11Z</time>
      </trkpt>
      <trkpt lat="47.64304" lon="-2.72478">
        <ele>12.8</ele>
        <time>2026-08-22T13:10:12Z</time>
      </trkpt>
      <trkpt lat="47.64307" lon="-2.72484">
        <ele>12.5</ele>
        <time>2026-08-22T13:10:13Z</time>
      </trkpt>
      <trkpt lat="47.64311" lon="-2.72488">
        <ele>12.3</ele>
        <time>2026-08-22T13:10:14Z</time>
      </trkpt>
      <trkpt lat="47.64315" lon="-2.7249">
        <ele>12.2</ele>
        <time>2026-08-22T13:10:15Z</time>
      </trkpt>
      <trkpt lat="47.64319" lon="-2.72491">
        <ele>12.2</ele>
        <time>2026-08-22T13:10:16Z</time>
      </trkpt>
      <trkpt lat="47.64323" lon="-2.72491">
        <ele>12.1</ele>
        <time>2026-08-22T13:10:17Z</time>
      </trkpt>
      <trkpt lat="47.64325" lon="-2.72494">
        <ele>12.1</ele>
        <time>2026-08-22T13:10:18Z</time>
      </trkpt>
      <trkpt lat="47.64326" lon="-2.72498">
        <ele>12</ele>
        <time>2026-08-22T13:10:19Z</time>
      </trkpt>
      <trkpt lat="47.64325" lon="-2.72501">
        <ele>12</ele>
        <time>2026-08-22T13:10:20Z</time>
      </trkpt>
      <trkpt lat="47.64322" lon="-2.72504">
        <ele>12</ele>
        <time>2026-08-22T13:10:21Z</time>
      </trkpt>
      <trkpt lat="47.64318" lon="-2.72506">
        <ele>12</ele>
        <time>2026-08-22T13:10:22Z</time>
      </trkpt>
      <trkpt lat="47.64314" lon="-2.72508">
        <ele>12</ele>
        <time>2026-08-22T13:10:23Z</time>
      </trkpt>
      <trkpt lat="47.6431" lon="-2.72511">
        <ele>12</ele>
        <time>2026-08-22T13:10:24Z</time>
      </trkpt>
      <trkpt lat="47.64307" lon="-2.72515">
        <ele>12</ele>
        <time>2026-08-22T13:10:25Z</time>
      </trkpt>
      <trkpt lat="47.64306" lon="-2.7252">
        <ele>12</ele>
        <time>2026-08-22T13:10:26Z</time>
      </trkpt>
      <trkpt lat="47.64305" lon="-2.72525">
        <ele>12</ele>
        <time>2026-08-22T13:10:27Z</time>
      </trkpt>
      <trkpt lat="47.64304" lon="-2.7253">
        <ele>12</ele>
        <time>2026-08-22T13:10:28Z</time>
      </trkpt>
      <trkpt lat="47.64304" lon="-2.72535">
        <ele>12</ele>
        <time>2026-08-22T13:10:29Z</time>
      </trkpt>
      <trkpt lat="47.64303" lon="-2.72541">
        <ele>12</ele>
        <time>2026-08-22T13:10:30Z</time>
      </trkpt>
      <trkpt lat="47.64303" lon="-2.72546">
        <ele>12</ele>
        <time>2026-08-22T13:10:31Z</time>
      </trkpt>
      <trkpt lat="47.64303" lon="-2.72553">
        <ele>12.1</ele>
        <time>2026-08-22T13:10:32Z</time>
      </trkpt>
      <trkpt lat="47.64303" lon="-2.72559">
        <ele>12.1</ele>
        <time>2026-08-22T13:10:33Z</time>
      </trkpt>
      <trkpt lat="47.64302" lon="-2.72564">
        <ele>12.1</ele>
        <time>2026-08-22T13:10:34Z</time>
      </trkpt>
      <trkpt lat="47.64302" lon="-2.7257">
        <ele>12.1</ele>
        <time>2026-08-22T13:10:35Z</time>
      </trkpt>
      <trkpt lat="47.64301" lon="-2.72577">
        <ele>12.2</ele>
        <time>2026-08-22T13:10:36Z</time>
      </trkpt>
      <trkpt lat="47.643" lon="-2.72583">
        <ele>12.2</ele>
        <time>2026-08-22T13:10:37Z</time>
      </trkpt>
      <trkpt lat="47.643" lon="-2.7259">
        <ele>12.2</ele>
        <time>2026-08-22T13:10:38Z</time>
      </trkpt>
      <trkpt lat="47.64299" lon="-2.72597">
        <ele>12.2</ele>
        <time>2026-08-22T13:10:39Z</time>
      </trkpt>
      <trkpt lat="47.64299" lon="-2.72604">
        <ele>12.2</ele>
        <time>2026-08-22T13:10:40Z</time>
      </trkpt>
      <trkpt lat="47.64299" lon="-2.72611">
        <ele>12.2</ele>
        <time>2026-08-22T13:10:41Z</time>
      </trkpt>
      <trkpt lat="47.64298" lon="-2.72618">
        <ele>12.3</ele>
        <time>2026-08-22T13:10:42Z</time>
      </trkpt>
      <trkpt lat="47.64298" lon="-2.72625">
        <ele>12.3</ele>
        <time>2026-08-22T13:10:43Z</time>
      </trkpt>
      <trkpt lat="47.64298" lon="-2.72632">
        <ele>12.3</ele>
        <time>2026-08-22T13:10:44Z</time>
      </trkpt>
      <trkpt lat="47.64297" lon="-2.72639">
        <ele>12.3</ele>
        <time>2026-08-22T13:10:45Z</time>
      </trkpt>
      <trkpt lat="47.64297" lon="-2.72646">
        <ele>12.2</ele>
        <time>2026-08-22T13:10:46Z</time>
      </trkpt>
      <trkpt lat="47.64296" lon="-2.72653">
        <ele>12.2</ele>
        <time>2026-08-22T13:10:47Z</time>
      </trkpt>
      <trkpt lat="47.64296" lon="-2.72661">
        <ele>12.1</ele>
        <time>2026-08-22T13:10:48Z</time>
      </trkpt>
      <trkpt lat="47.64295" lon="-2.72668">
        <ele>12</ele>
        <time>2026-08-22T13:10:49Z</time>
      </trkpt>
      <trkpt lat="47.64294" lon="-2.72676">
        <ele>12</ele>
        <time>2026-08-22T13:10:50Z</time>
      </trkpt>
      <trkpt lat="47.64294" lon="-2.72684">
        <ele>12</ele>
        <time>2026-08-22T13:10:51Z</time>
      </trkpt>
      <trkpt lat="47.64293" lon="-2.72691">
        <ele>12</ele>
        <time>2026-08-22T13:10:52Z</time>
      </trkpt>
      <trkpt lat="47.64292" lon="-2.72699">
        <ele>11.8</ele>
        <time>2026-08-22T13:10:53Z</time>
      </trkpt>
      <trkpt lat="47.64292" lon="-2.72707">
        <ele>11.5</ele>
        <time>2026-08-22T13:10:54Z</time>
      </trkpt>
      <trkpt lat="47.64291" lon="-2.72715">
        <ele>11.3</ele>
        <time>2026-08-22T13:10:55Z</time>
      </trkpt>
      <trkpt lat="47.6429" lon="-2.72724">
        <ele>10.9</ele>
        <time>2026-08-22T13:10:56Z</time>
      </trkpt>
      <trkpt lat="47.64289" lon="-2.72732">
        <ele>10.7</ele>
        <time>2026-08-22T13:10:57Z</time>
      </trkpt>
      <trkpt lat="47.64288" lon="-2.72741">
        <ele>10.5</ele>
        <time>2026-08-22T13:10:58Z</time>
      </trkpt>
      <trkpt lat="47.64287" lon="-2.7275">
        <ele>10.3</ele>
        <time>2026-08-22T13:10:59Z</time>
      </trkpt>
      <trkpt lat="47.64285" lon="-2.72759">
        <ele>10.6</ele>
        <time>2026-08-22T13:11:00Z</time>
      </trkpt>
      <trkpt lat="47.64284" lon="-2.72768">
        <ele>10.7</ele>
        <time>2026-08-22T13:11:01Z</time>
      </trkpt>
      <trkpt lat="47.64283" lon="-2.72777">
        <ele>10.8</ele>
        <time>2026-08-22T13:11:02Z</time>
      </trkpt>
      <trkpt lat="47.64281" lon="-2.72786">
        <ele>10.6</ele>
        <time>2026-08-22T13:11:03Z</time>
      </trkpt>
      <trkpt lat="47.6428" lon="-2.72796">
        <ele>10.3</ele>
        <time>2026-08-22T13:11:04Z</time>
      </trkpt>
      <trkpt lat="47.64279" lon="-2.72805">
        <ele>10</ele>
        <time>2026-08-22T13:11:05Z</time>
      </trkpt>
      <trkpt lat="47.64277" lon="-2.72814">
        <ele>10</ele>
        <time>2026-08-22T13:11:06Z</time>
      </trkpt>
      <trkpt lat="47.64276" lon="-2.72824">
        <ele>9.9</ele>
        <time>2026-08-22T13:11:07Z</time>
      </trkpt>
      <trkpt lat="47.64275" lon="-2.72833">
        <ele>9.9</ele>
        <time>2026-08-22T13:11:08Z</time>
      </trkpt>
      <trkpt lat="47.64274" lon="-2.72842">
        <ele>9.9</ele>
        <time>2026-08-22T13:11:09Z</time>
      </trkpt>
      <trkpt lat="47.64272" lon="-2.72852">
        <ele>9.8</ele>
        <time>2026-08-22T13:11:10Z</time>
      </trkpt>
      <trkpt lat="47.64271" lon="-2.72861">
        <ele>9.8</ele>
        <time>2026-08-22T13:11:11Z</time>
      </trkpt>
      <trkpt lat="47.6427" lon="-2.7287">
        <ele>9.8</ele>
        <time>2026-08-22T13:11:12Z</time>
      </trkpt>
      <trkpt lat="47.64269" lon="-2.72879">
        <ele>9.9</ele>
        <time>2026-08-22T13:11:13Z</time>
      </trkpt>
      <trkpt lat="47.64267" lon="-2.72888">
        <ele>10</ele>
        <time>2026-08-22T13:11:14Z</time>
      </trkpt>
      <trkpt lat="47.64266" lon="-2.72898">
        <ele>10.2</ele>
        <time>2026-08-22T13:11:15Z</time>
      </trkpt>
      <trkpt lat="47.64265" lon="-2.72907">
        <ele>10.4</ele>
        <time>2026-08-22T13:11:16Z</time>
      </trkpt>
      <trkpt lat="47.64264" lon="-2.72916">
        <ele>10.5</ele>
        <time>2026-08-22T13:11:17Z</time>
      </trkpt>
      <trkpt lat="47.64263" lon="-2.72926">
        <ele>10.5</ele>
        <time>2026-08-22T13:11:18Z</time>
      </trkpt>
      <trkpt lat="47.64262" lon="-2.72935">
        <ele>10.4</ele>
        <time>2026-08-22T13:11:19Z</time>
      </trkpt>
      <trkpt lat="47.64261" lon="-2.72944">
        <ele>10.4</ele>
        <time>2026-08-22T13:11:20Z</time>
      </trkpt>
      <trkpt lat="47.6426" lon="-2.72953">
        <ele>10.5</ele>
        <time>2026-08-22T13:11:21Z</time>
      </trkpt>
      <trkpt lat="47.64259" lon="-2.72962">
        <ele>10.5</ele>
        <time>2026-08-22T13:11:22Z</time>
      </trkpt>
      <trkpt lat="47.64258" lon="-2.72972">
        <ele>10.6</ele>
        <time>2026-08-22T13:11:23Z</time>
      </trkpt>
      <trkpt lat="47.64257" lon="-2.7298">
        <ele>10.5</ele>
        <time>2026-08-22T13:11:24Z</time>
      </trkpt>
      <trkpt lat="47.64257" lon="-2.72989">
        <ele>10.5</ele>
        <time>2026-08-22T13:11:25Z</time>
      </trkpt>
      <trkpt lat="47.64256" lon="-2.72998">
        <ele>10.4</ele>
        <time>2026-08-22T13:11:26Z</time>
      </trkpt>
      <trkpt lat="47.64255" lon="-2.73006">
        <ele>10.6</ele>
        <time>2026-08-22T13:11:27Z</time>
      </trkpt>
      <trkpt lat="47.64254" lon="-2.73015">
        <ele>10.8</ele>
        <time>2026-08-22T13:11:28Z</time>
      </trkpt>
      <trkpt lat="47.64253" lon="-2.73023">
        <ele>11</ele>
        <time>2026-08-22T13:11:29Z</time>
      </trkpt>
      <trkpt lat="47.64252" lon="-2.73031">
        <ele>11.1</ele>
        <time>2026-08-22T13:11:30Z</time>
      </trkpt>
      <trkpt lat="47.64251" lon="-2.73039">
        <ele>11.1</ele>
        <time>2026-08-22T13:11:31Z</time>
      </trkpt>
      <trkpt lat="47.6425" lon="-2.73046">
        <ele>11</ele>
        <time>2026-08-22T13:11:32Z</time>
      </trkpt>
      <trkpt lat="47.64249" lon="-2.73054">
        <ele>11</ele>
        <time>2026-08-22T13:11:33Z</time>
      </trkpt>
      <trkpt lat="47.64248" lon="-2.73061">
        <ele>11.2</ele>
        <time>2026-08-22T13:11:34Z</time>
      </trkpt>
      <trkpt lat="47.64246" lon="-2.73069">
        <ele>11.3</ele>
        <time>2026-08-22T13:11:35Z</time>
      </trkpt>
      <trkpt lat="47.64245" lon="-2.73077">
        <ele>11.4</ele>
        <time>2026-08-22T13:11:36Z</time>
      </trkpt>
      <trkpt lat="47.64244" lon="-2.73085">
        <ele>11.3</ele>
        <time>2026-08-22T13:11:37Z</time>
      </trkpt>
      <trkpt lat="47.64244" lon="-2.73093">
        <ele>10.8</ele>
        <time>2026-08-22T13:11:38Z</time>
      </trkpt>
      <trkpt lat="47.64246" lon="-2.73099">
        <ele>10.6</ele>
        <time>2026-08-22T13:11:39Z</time>
      </trkpt>
      <trkpt lat="47.64248" lon="-2.73104">
        <ele>10.4</ele>
        <time>2026-08-22T13:11:40Z</time>
      </trkpt>
      <trkpt lat="47.6425" lon="-2.73107">
        <ele>10.3</ele>
        <time>2026-08-22T13:11:41Z</time>
      </trkpt>
      <trkpt lat="47.64251" lon="-2.73111">
        <ele>10</ele>
        <time>2026-08-22T13:11:42Z</time>
      </trkpt>
      <trkpt lat="47.64251" lon="-2.73116">
        <ele>10</ele>
        <time>2026-08-22T13:11:43Z</time>
      </trkpt>
      <trkpt lat="47.64252" lon="-2.73121">
        <ele>10.1</ele>
        <time>2026-08-22T13:11:44Z</time>
      </trkpt>
      <trkpt lat="47.64251" lon="-2.73127">
        <ele>10</ele>
        <time>2026-08-22T13:11:45Z</time>
      </trkpt>
      <trkpt lat="47.64248" lon="-2.73132">
        <ele>9.9</ele>
        <time>2026-08-22T13:11:46Z</time>
      </trkpt>
      <trkpt lat="47.64245" lon="-2.73138">
        <ele>9.8</ele>
        <time>2026-08-22T13:11:47Z</time>
      </trkpt>
      <trkpt lat="47.64242" lon="-2.73143">
        <ele>9.6</ele>
        <time>2026-08-22T13:11:48Z</time>
      </trkpt>
      <trkpt lat="47.64238" lon="-2.73149">
        <ele>9.4</ele>
        <time>2026-08-22T13:11:49Z</time>
      </trkpt>
      <trkpt lat="47.64235" lon="-2.73155">
        <ele>9.2</ele>
        <time>2026-08-22T13:11:50Z</time>
      </trkpt>
      <trkpt lat="47.64233" lon="-2.73162">
        <ele>9.1</ele>
        <time>2026-08-22T13:11:51Z</time>
      </trkpt>
      <trkpt lat="47.64231" lon="-2.73169">
        <ele>9.1</ele>
        <time>2026-08-22T13:11:52Z</time>
      </trkpt>
      <trkpt lat="47.6423" lon="-2.73178">
        <ele>9.2</ele>
        <time>2026-08-22T13:11:53Z</time>
      </trkpt>
      <trkpt lat="47.64229" lon="-2.73186">
        <ele>9.3</ele>
        <time>2026-08-22T13:11:54Z</time>
      </trkpt>
      <trkpt lat="47.64228" lon="-2.73194">
        <ele>9.4</ele>
        <time>2026-08-22T13:11:55Z</time>
      </trkpt>
      <trkpt lat="47.64227" lon="-2.73203">
        <ele>9.2</ele>
        <time>2026-08-22T13:11:56Z</time>
      </trkpt>
      <trkpt lat="47.64226" lon="-2.73212">
        <ele>9.1</ele>
        <time>2026-08-22T13:11:57Z</time>
      </trkpt>
      <trkpt lat="47.64225" lon="-2.73221">
        <ele>9</ele>
        <time>2026-08-22T13:11:58Z</time>
      </trkpt>
      <trkpt lat="47.64224" lon="-2.7323">
        <ele>8.7</ele>
        <time>2026-08-22T13:11:59Z</time>
      </trkpt>
      <trkpt lat="47.64223" lon="-2.73239">
        <ele>8.4</ele>
        <time>2026-08-22T13:12:00Z</time>
      </trkpt>
      <trkpt lat="47.64222" lon="-2.73249">
        <ele>8</ele>
        <time>2026-08-22T13:12:01Z</time>
      </trkpt>
      <trkpt lat="47.64221" lon="-2.73258">
        <ele>8</ele>
        <time>2026-08-22T13:12:02Z</time>
      </trkpt>
      <trkpt lat="47.6422" lon="-2.73267">
        <ele>7.9</ele>
        <time>2026-08-22T13:12:03Z</time>
      </trkpt>
      <trkpt lat="47.6422" lon="-2.73276">
        <ele>7.9</ele>
        <time>2026-08-22T13:12:04Z</time>
      </trkpt>
      <trkpt lat="47.64219" lon="-2.73285">
        <ele>7.9</ele>
        <time>2026-08-22T13:12:05Z</time>
      </trkpt>
      <trkpt lat="47.64219" lon="-2.73294">
        <ele>7.9</ele>
        <time>2026-08-22T13:12:06Z</time>
      </trkpt>
      <trkpt lat="47.64219" lon="-2.73303">
        <ele>7.9</ele>
        <time>2026-08-22T13:12:07Z</time>
      </trkpt>
      <trkpt lat="47.64218" lon="-2.73312">
        <ele>7.9</ele>
        <time>2026-08-22T13:12:08Z</time>
      </trkpt>
      <trkpt lat="47.64218" lon="-2.73322">
        <ele>7.9</ele>
        <time>2026-08-22T13:12:09Z</time>
      </trkpt>
      <trkpt lat="47.64218" lon="-2.73331">
        <ele>8</ele>
        <time>2026-08-22T13:12:10Z</time>
      </trkpt>
      <trkpt lat="47.64218" lon="-2.7334">
        <ele>8</ele>
        <time>2026-08-22T13:12:11Z</time>
      </trkpt>
      <trkpt lat="47.64219" lon="-2.73349">
        <ele>7.9</ele>
        <time>2026-08-22T13:12:12Z</time>
      </trkpt>
      <trkpt lat="47.64219" lon="-2.73358">
        <ele>7.9</ele>
        <time>2026-08-22T13:12:13Z</time>
      </trkpt>
      <trkpt lat="47.64219" lon="-2.73367">
        <ele>7.9</ele>
        <time>2026-08-22T13:12:14Z</time>
      </trkpt>
      <trkpt lat="47.6422" lon="-2.73376">
        <ele>7.9</ele>
        <time>2026-08-22T13:12:15Z</time>
      </trkpt>
      <trkpt lat="47.6422" lon="-2.73385">
        <ele>7.9</ele>
        <time>2026-08-22T13:12:16Z</time>
      </trkpt>
      <trkpt lat="47.64221" lon="-2.73394">
        <ele>7.8</ele>
        <time>2026-08-22T13:12:17Z</time>
      </trkpt>
      <trkpt lat="47.64222" lon="-2.73403">
        <ele>7.5</ele>
        <time>2026-08-22T13:12:18Z</time>
      </trkpt>
      <trkpt lat="47.64223" lon="-2.73412">
        <ele>7.2</ele>
        <time>2026-08-22T13:12:19Z</time>
      </trkpt>
      <trkpt lat="47.64224" lon="-2.7342">
        <ele>7</ele>
        <time>2026-08-22T13:12:20Z</time>
      </trkpt>
      <trkpt lat="47.64225" lon="-2.73429">
        <ele>7</ele>
        <time>2026-08-22T13:12:21Z</time>
      </trkpt>
      <trkpt lat="47.64226" lon="-2.73438">
        <ele>7</ele>
        <time>2026-08-22T13:12:22Z</time>
      </trkpt>
      <trkpt lat="47.64228" lon="-2.73447">
        <ele>7</ele>
        <time>2026-08-22T13:12:23Z</time>
      </trkpt>
      <trkpt lat="47.64229" lon="-2.73455">
        <ele>6.9</ele>
        <time>2026-08-22T13:12:24Z</time>
      </trkpt>
      <trkpt lat="47.64231" lon="-2.73464">
        <ele>6.8</ele>
        <time>2026-08-22T13:12:25Z</time>
      </trkpt>
      <trkpt lat="47.64232" lon="-2.73472">
        <ele>6.7</ele>
        <time>2026-08-22T13:12:26Z</time>
      </trkpt>
      <trkpt lat="47.64234" lon="-2.73481">
        <ele>6.6</ele>
        <time>2026-08-22T13:12:27Z</time>
      </trkpt>
      <trkpt lat="47.64236" lon="-2.73489">
        <ele>6.5</ele>
        <time>2026-08-22T13:12:28Z</time>
      </trkpt>
      <trkpt lat="47.64238" lon="-2.73498">
        <ele>6.4</ele>
        <time>2026-08-22T13:12:29Z</time>
      </trkpt>
      <trkpt lat="47.6424" lon="-2.73506">
        <ele>6.5</ele>
        <time>2026-08-22T13:12:30Z</time>
      </trkpt>
      <trkpt lat="47.64242" lon="-2.73514">
        <ele>6.6</ele>
        <time>2026-08-22T13:12:31Z</time>
      </trkpt>
      <trkpt lat="47.64244" lon="-2.73521">
        <ele>6.8</ele>
        <time>2026-08-22T13:12:32Z</time>
      </trkpt>
      <trkpt lat="47.64247" lon="-2.73529">
        <ele>7</ele>
        <time>2026-08-22T13:12:33Z</time>
      </trkpt>
      <trkpt lat="47.64249" lon="-2.73537">
        <ele>7</ele>
        <time>2026-08-22T13:12:34Z</time>
      </trkpt>
      <trkpt lat="47.64251" lon="-2.73545">
        <ele>7</ele>
        <time>2026-08-22T13:12:35Z</time>
      </trkpt>
      <trkpt lat="47.64254" lon="-2.73553">
        <ele>7</ele>
        <time>2026-08-22T13:12:36Z</time>
      </trkpt>
      <trkpt lat="47.64256" lon="-2.7356">
        <ele>7</ele>
        <time>2026-08-22T13:12:37Z</time>
      </trkpt>
      <trkpt lat="47.64259" lon="-2.73568">
        <ele>7</ele>
        <time>2026-08-22T13:12:38Z</time>
      </trkpt>
      <trkpt lat="47.64261" lon="-2.73576">
        <ele>7</ele>
        <time>2026-08-22T13:12:39Z</time>
      </trkpt>
      <trkpt lat="47.64264" lon="-2.73584">
        <ele>7</ele>
        <time>2026-08-22T13:12:40Z</time>
      </trkpt>
      <trkpt lat="47.64266" lon="-2.73592">
        <ele>7</ele>
        <time>2026-08-22T13:12:41Z</time>
      </trkpt>
      <trkpt lat="47.64269" lon="-2.73599">
        <ele>7</ele>
        <time>2026-08-22T13:12:42Z</time>
      </trkpt>
      <trkpt lat="47.64272" lon="-2.73606">
        <ele>7</ele>
        <time>2026-08-22T13:12:43Z</time>
      </trkpt>
      <trkpt lat="47.64274" lon="-2.73613">
        <ele>7</ele>
        <time>2026-08-22T13:12:44Z</time>
      </trkpt>
      <trkpt lat="47.64277" lon="-2.73621">
        <ele>7</ele>
        <time>2026-08-22T13:12:45Z</time>
      </trkpt>
      <trkpt lat="47.6428" lon="-2.73628">
        <ele>7</ele>
        <time>2026-08-22T13:12:46Z</time>
      </trkpt>
      <trkpt lat="47.64283" lon="-2.73635">
        <ele>7</ele>
        <time>2026-08-22T13:12:47Z</time>
      </trkpt>
      <trkpt lat="47.64286" lon="-2.73642">
        <ele>7</ele>
        <time>2026-08-22T13:12:48Z</time>
      </trkpt>
      <trkpt lat="47.64289" lon="-2.73649">
        <ele>7</ele>
        <time>2026-08-22T13:12:49Z</time>
      </trkpt>
      <trkpt lat="47.64292" lon="-2.73656">
        <ele>7</ele>
        <time>2026-08-22T13:12:50Z</time>
      </trkpt>
      <trkpt lat="47.64295" lon="-2.73663">
        <ele>7</ele>
        <time>2026-08-22T13:12:51Z</time>
      </trkpt>
      <trkpt lat="47.64298" lon="-2.7367">
        <ele>7.1</ele>
        <time>2026-08-22T13:12:52Z</time>
      </trkpt>
      <trkpt lat="47.643" lon="-2.73677">
        <ele>7.3</ele>
        <time>2026-08-22T13:12:53Z</time>
      </trkpt>
      <trkpt lat="47.64303" lon="-2.73683">
        <ele>7.5</ele>
        <time>2026-08-22T13:12:54Z</time>
      </trkpt>
      <trkpt lat="47.64306" lon="-2.7369">
        <ele>7.8</ele>
        <time>2026-08-22T13:12:55Z</time>
      </trkpt>
      <trkpt lat="47.64309" lon="-2.73697">
        <ele>8</ele>
        <time>2026-08-22T13:12:56Z</time>
      </trkpt>
      <trkpt lat="47.64312" lon="-2.73704">
        <ele>8</ele>
        <time>2026-08-22T13:12:57Z</time>
      </trkpt>
      <trkpt lat="47.64315" lon="-2.7371">
        <ele>8</ele>
        <time>2026-08-22T13:12:58Z</time>
      </trkpt>
      <trkpt lat="47.64317" lon="-2.73717">
        <ele>8</ele>
        <time>2026-08-22T13:12:59Z</time>
      </trkpt>
      <trkpt lat="47.6432" lon="-2.73724">
        <ele>8</ele>
        <time>2026-08-22T13:13:00Z</time>
      </trkpt>
      <trkpt lat="47.64323" lon="-2.7373">
        <ele>8</ele>
        <time>2026-08-22T13:13:01Z</time>
      </trkpt>
      <trkpt lat="47.64325" lon="-2.73737">
        <ele>8</ele>
        <time>2026-08-22T13:13:02Z</time>
      </trkpt>
      <trkpt lat="47.64328" lon="-2.73743">
        <ele>8</ele>
        <time>2026-08-22T13:13:03Z</time>
      </trkpt>
      <trkpt lat="47.6433" lon="-2.7375">
        <ele>8</ele>
        <time>2026-08-22T13:13:04Z</time>
      </trkpt>
      <trkpt lat="47.64333" lon="-2.73757">
        <ele>8.2</ele>
        <time>2026-08-22T13:13:05Z</time>
      </trkpt>
      <trkpt lat="47.64335" lon="-2.73763">
        <ele>8.5</ele>
        <time>2026-08-22T13:13:06Z</time>
      </trkpt>
      <trkpt lat="47.64338" lon="-2.73769">
        <ele>8.7</ele>
        <time>2026-08-22T13:13:07Z</time>
      </trkpt>
      <trkpt lat="47.6434" lon="-2.73775">
        <ele>8.9</ele>
        <time>2026-08-22T13:13:08Z</time>
      </trkpt>
      <trkpt lat="47.64343" lon="-2.73782">
        <ele>9</ele>
        <time>2026-08-22T13:13:09Z</time>
      </trkpt>
      <trkpt lat="47.64346" lon="-2.73788">
        <ele>9</ele>
        <time>2026-08-22T13:13:10Z</time>
      </trkpt>
      <trkpt lat="47.64348" lon="-2.73794">
        <ele>9</ele>
        <time>2026-08-22T13:13:11Z</time>
      </trkpt>
      <trkpt lat="47.64351" lon="-2.73801">
        <ele>9</ele>
        <time>2026-08-22T13:13:12Z</time>
      </trkpt>
      <trkpt lat="47.64354" lon="-2.73807">
        <ele>9</ele>
        <time>2026-08-22T13:13:13Z</time>
      </trkpt>
      <trkpt lat="47.64356" lon="-2.73813">
        <ele>9</ele>
        <time>2026-08-22T13:13:14Z</time>
      </trkpt>
      <trkpt lat="47.64359" lon="-2.73819">
        <ele>9</ele>
        <time>2026-08-22T13:13:15Z</time>
      </trkpt>
      <trkpt lat="47.64362" lon="-2.73825">
        <ele>9</ele>
        <time>2026-08-22T13:13:16Z</time>
      </trkpt>
      <trkpt lat="47.64365" lon="-2.73831">
        <ele>9.2</ele>
        <time>2026-08-22T13:13:17Z</time>
      </trkpt>
      <trkpt lat="47.64368" lon="-2.73838">
        <ele>9.2</ele>
        <time>2026-08-22T13:13:18Z</time>
      </trkpt>
      <trkpt lat="47.6437" lon="-2.73844">
        <ele>9.3</ele>
        <time>2026-08-22T13:13:19Z</time>
      </trkpt>
      <trkpt lat="47.64373" lon="-2.7385">
        <ele>9.4</ele>
        <time>2026-08-22T13:13:20Z</time>
      </trkpt>
      <trkpt lat="47.64375" lon="-2.73856">
        <ele>9.5</ele>
        <time>2026-08-22T13:13:21Z</time>
      </trkpt>
      <trkpt lat="47.64378" lon="-2.73863">
        <ele>9.6</ele>
        <time>2026-08-22T13:13:22Z</time>
      </trkpt>
      <trkpt lat="47.6438" lon="-2.73869">
        <ele>9.8</ele>
        <time>2026-08-22T13:13:23Z</time>
      </trkpt>
      <trkpt lat="47.64383" lon="-2.73875">
        <ele>9.9</ele>
        <time>2026-08-22T13:13:24Z</time>
      </trkpt>
      <trkpt lat="47.64385" lon="-2.73881">
        <ele>10</ele>
        <time>2026-08-22T13:13:25Z</time>
      </trkpt>
      <trkpt lat="47.64388" lon="-2.73887">
        <ele>10</ele>
        <time>2026-08-22T13:13:26Z</time>
      </trkpt>
      <trkpt lat="47.6439" lon="-2.73894">
        <ele>10</ele>
        <time>2026-08-22T13:13:27Z</time>
      </trkpt>
      <trkpt lat="47.64392" lon="-2.739">
        <ele>10.1</ele>
        <time>2026-08-22T13:13:28Z</time>
      </trkpt>
      <trkpt lat="47.64395" lon="-2.73907">
        <ele>10.2</ele>
        <time>2026-08-22T13:13:29Z</time>
      </trkpt>
      <trkpt lat="47.64397" lon="-2.73913">
        <ele>10.3</ele>
        <time>2026-08-22T13:13:30Z</time>
      </trkpt>
      <trkpt lat="47.64399" lon="-2.73919">
        <ele>10.3</ele>
        <time>2026-08-22T13:13:31Z</time>
      </trkpt>
      <trkpt lat="47.64401" lon="-2.73926">
        <ele>10.3</ele>
        <time>2026-08-22T13:13:32Z</time>
      </trkpt>
      <trkpt lat="47.64403" lon="-2.73933">
        <ele>10.2</ele>
        <time>2026-08-22T13:13:33Z</time>
      </trkpt>
      <trkpt lat="47.64405" lon="-2.7394">
        <ele>10.1</ele>
        <time>2026-08-22T13:13:34Z</time>
      </trkpt>
      <trkpt lat="47.64407" lon="-2.73947">
        <ele>10</ele>
        <time>2026-08-22T13:13:35Z</time>
      </trkpt>
      <trkpt lat="47.64409" lon="-2.73955">
        <ele>10</ele>
        <time>2026-08-22T13:13:36Z</time>
      </trkpt>
      <trkpt lat="47.64411" lon="-2.73962">
        <ele>10</ele>
        <time>2026-08-22T13:13:37Z</time>
      </trkpt>
      <trkpt lat="47.64413" lon="-2.73969">
        <ele>10</ele>
        <time>2026-08-22T13:13:38Z</time>
      </trkpt>
      <trkpt lat="47.64414" lon="-2.73977">
        <ele>10</ele>
        <time>2026-08-22T13:13:39Z</time>
      </trkpt>
      <trkpt lat="47.64416" lon="-2.73985">
        <ele>10</ele>
        <time>2026-08-22T13:13:40Z</time>
      </trkpt>
      <trkpt lat="47.64418" lon="-2.73992">
        <ele>10</ele>
        <time>2026-08-22T13:13:41Z</time>
      </trkpt>
      <trkpt lat="47.6442" lon="-2.74">
        <ele>10</ele>
        <time>2026-08-22T13:13:42Z</time>
      </trkpt>
      <trkpt lat="47.64421" lon="-2.74008">
        <ele>10</ele>
        <time>2026-08-22T13:13:43Z</time>
      </trkpt>
      <trkpt lat="47.64423" lon="-2.74016">
        <ele>10</ele>
        <time>2026-08-22T13:13:44Z</time>
      </trkpt>
      <trkpt lat="47.64424" lon="-2.74025">
        <ele>10</ele>
        <time>2026-08-22T13:13:45Z</time>
      </trkpt>
      <trkpt lat="47.64426" lon="-2.74033">
        <ele>10</ele>
        <time>2026-08-22T13:13:46Z</time>
      </trkpt>
      <trkpt lat="47.64427" lon="-2.74041">
        <ele>10</ele>
        <time>2026-08-22T13:13:47Z</time>
      </trkpt>
      <trkpt lat="47.64428" lon="-2.74049">
        <ele>10</ele>
        <time>2026-08-22T13:13:48Z</time>
      </trkpt>
      <trkpt lat="47.64429" lon="-2.74058">
        <ele>10</ele>
        <time>2026-08-22T13:13:49Z</time>
      </trkpt>
      <trkpt lat="47.6443" lon="-2.74066">
        <ele>10</ele>
        <time>2026-08-22T13:13:50Z</time>
      </trkpt>
      <trkpt lat="47.64431" lon="-2.74074">
        <ele>10</ele>
        <time>2026-08-22T13:13:51Z</time>
      </trkpt>
      <trkpt lat="47.64432" lon="-2.74081">
        <ele>10</ele>
        <time>2026-08-22T13:13:52Z</time>
      </trkpt>
      <trkpt lat="47.64432" lon="-2.74089">
        <ele>10</ele>
        <time>2026-08-22T13:13:53Z</time>
      </trkpt>
      <trkpt lat="47.64433" lon="-2.74096">
        <ele>10</ele>
        <time>2026-08-22T13:13:54Z</time>
      </trkpt>
      <trkpt lat="47.64434" lon="-2.74104">
        <ele>10</ele>
        <time>2026-08-22T13:13:55Z</time>
      </trkpt>
      <trkpt lat="47.64434" lon="-2.74112">
        <ele>10</ele>
        <time>2026-08-22T13:13:56Z</time>
      </trkpt>
      <trkpt lat="47.64435" lon="-2.7412">
        <ele>10</ele>
        <time>2026-08-22T13:13:57Z</time>
      </trkpt>
      <trkpt lat="47.64435" lon="-2.74128">
        <ele>10</ele>
        <time>2026-08-22T13:13:58Z</time>
      </trkpt>
      <trkpt lat="47.64436" lon="-2.74135">
        <ele>10</ele>
        <time>2026-08-22T13:13:59Z</time>
      </trkpt>
      <trkpt lat="47.64436" lon="-2.74143">
        <ele>10.1</ele>
        <time>2026-08-22T13:14:00Z</time>
      </trkpt>
      <trkpt lat="47.64436" lon="-2.74151">
        <ele>10.4</ele>
        <time>2026-08-22T13:14:01Z</time>
      </trkpt>
      <trkpt lat="47.64436" lon="-2.74159">
        <ele>10.7</ele>
        <time>2026-08-22T13:14:02Z</time>
      </trkpt>
      <trkpt lat="47.64436" lon="-2.74167">
        <ele>11</ele>
        <time>2026-08-22T13:14:03Z</time>
      </trkpt>
      <trkpt lat="47.64436" lon="-2.74175">
        <ele>11</ele>
        <time>2026-08-22T13:14:04Z</time>
      </trkpt>
      <trkpt lat="47.64436" lon="-2.74183">
        <ele>11</ele>
        <time>2026-08-22T13:14:05Z</time>
      </trkpt>
      <trkpt lat="47.64436" lon="-2.74191">
        <ele>11</ele>
        <time>2026-08-22T13:14:06Z</time>
      </trkpt>
      <trkpt lat="47.64436" lon="-2.74198">
        <ele>11.1</ele>
        <time>2026-08-22T13:14:07Z</time>
      </trkpt>
      <trkpt lat="47.64435" lon="-2.74206">
        <ele>11.3</ele>
        <time>2026-08-22T13:14:08Z</time>
      </trkpt>
      <trkpt lat="47.64435" lon="-2.74213">
        <ele>11.4</ele>
        <time>2026-08-22T13:14:09Z</time>
      </trkpt>
      <trkpt lat="47.64435" lon="-2.7422">
        <ele>11.6</ele>
        <time>2026-08-22T13:14:10Z</time>
      </trkpt>
      <trkpt lat="47.64435" lon="-2.74228">
        <ele>11.7</ele>
        <time>2026-08-22T13:14:11Z</time>
      </trkpt>
      <trkpt lat="47.64435" lon="-2.74236">
        <ele>11.8</ele>
        <time>2026-08-22T13:14:12Z</time>
      </trkpt>
      <trkpt lat="47.64435" lon="-2.74243">
        <ele>11.9</ele>
        <time>2026-08-22T13:14:13Z</time>
      </trkpt>
      <trkpt lat="47.64435" lon="-2.74251">
        <ele>12</ele>
        <time>2026-08-22T13:14:14Z</time>
      </trkpt>
      <trkpt lat="47.64435" lon="-2.74258">
        <ele>12.2</ele>
        <time>2026-08-22T13:14:15Z</time>
      </trkpt>
      <trkpt lat="47.64435" lon="-2.74265">
        <ele>12.4</ele>
        <time>2026-08-22T13:14:16Z</time>
      </trkpt>
      <trkpt lat="47.64435" lon="-2.74273">
        <ele>12.5</ele>
        <time>2026-08-22T13:14:17Z</time>
      </trkpt>
      <trkpt lat="47.64435" lon="-2.7428">
        <ele>12.7</ele>
        <time>2026-08-22T13:14:18Z</time>
      </trkpt>
      <trkpt lat="47.64434" lon="-2.74288">
        <ele>12.9</ele>
        <time>2026-08-22T13:14:19Z</time>
      </trkpt>
      <trkpt lat="47.64434" lon="-2.74295">
        <ele>13</ele>
        <time>2026-08-22T13:14:20Z</time>
      </trkpt>
      <trkpt lat="47.64434" lon="-2.74302">
        <ele>13.2</ele>
        <time>2026-08-22T13:14:21Z</time>
      </trkpt>
      <trkpt lat="47.64434" lon="-2.7431">
        <ele>13.2</ele>
        <time>2026-08-22T13:14:22Z</time>
      </trkpt>
      <trkpt lat="47.64434" lon="-2.74317">
        <ele>13.2</ele>
        <time>2026-08-22T13:14:23Z</time>
      </trkpt>
      <trkpt lat="47.64434" lon="-2.74323">
        <ele>13.2</ele>
        <time>2026-08-22T13:14:24Z</time>
      </trkpt>
      <trkpt lat="47.64434" lon="-2.7433">
        <ele>13.2</ele>
        <time>2026-08-22T13:14:25Z</time>
      </trkpt>
      <trkpt lat="47.64435" lon="-2.74336">
        <ele>13.3</ele>
        <time>2026-08-22T13:14:26Z</time>
      </trkpt>
      <trkpt lat="47.64435" lon="-2.74342">
        <ele>13.2</ele>
        <time>2026-08-22T13:14:27Z</time>
      </trkpt>
      <trkpt lat="47.64436" lon="-2.74348">
        <ele>13.2</ele>
        <time>2026-08-22T13:14:28Z</time>
      </trkpt>
      <trkpt lat="47.64437" lon="-2.74353">
        <ele>13.1</ele>
        <time>2026-08-22T13:14:29Z</time>
      </trkpt>
      <trkpt lat="47.64438" lon="-2.74357">
        <ele>13.1</ele>
        <time>2026-08-22T13:14:30Z</time>
      </trkpt>
      <trkpt lat="47.6444" lon="-2.74362">
        <ele>13</ele>
        <time>2026-08-22T13:14:31Z</time>
      </trkpt>
      <trkpt lat="47.64441" lon="-2.74366">
        <ele>13</ele>
        <time>2026-08-22T13:14:32Z</time>
      </trkpt>
      <trkpt lat="47.64444" lon="-2.74369">
        <ele>13</ele>
        <time>2026-08-22T13:14:33Z</time>
      </trkpt>
      <trkpt lat="47.64446" lon="-2.74372">
        <ele>13.1</ele>
        <time>2026-08-22T13:14:34Z</time>
      </trkpt>
      <trkpt lat="47.64448" lon="-2.74375">
        <ele>13.2</ele>
        <time>2026-08-22T13:14:35Z</time>
      </trkpt>
      <trkpt lat="47.6445" lon="-2.74378">
        <ele>13.3</ele>
        <time>2026-08-22T13:14:36Z</time>
      </trkpt>
      <trkpt lat="47.6445" lon="-2.74383">
        <ele>13.2</ele>
        <time>2026-08-22T13:14:37Z</time>
      </trkpt>
      <trkpt lat="47.6445" lon="-2.74388">
        <ele>13.2</ele>
        <time>2026-08-22T13:14:38Z</time>
      </trkpt>
      <trkpt lat="47.6445" lon="-2.74393">
        <ele>13.3</ele>
        <time>2026-08-22T13:14:39Z</time>
      </trkpt>
      <trkpt lat="47.6445" lon="-2.74398">
        <ele>13.4</ele>
        <time>2026-08-22T13:14:40Z</time>
      </trkpt>
      <trkpt lat="47.6445" lon="-2.74403">
        <ele>13.5</ele>
        <time>2026-08-22T13:14:41Z</time>
      </trkpt>
      <trkpt lat="47.64451" lon="-2.74408">
        <ele>13.7</ele>
        <time>2026-08-22T13:14:42Z</time>
      </trkpt>
      <trkpt lat="47.6445" lon="-2.74413">
        <ele>13.7</ele>
        <time>2026-08-22T13:14:43Z</time>
      </trkpt>
      <trkpt lat="47.64449" lon="-2.74418">
        <ele>13.8</ele>
        <time>2026-08-22T13:14:44Z</time>
      </trkpt>
      <trkpt lat="47.64447" lon="-2.74422">
        <ele>13.8</ele>
        <time>2026-08-22T13:14:45Z</time>
      </trkpt>
      <trkpt lat="47.64445" lon="-2.74426">
        <ele>13.8</ele>
        <time>2026-08-22T13:14:46Z</time>
      </trkpt>
      <trkpt lat="47.64442" lon="-2.7443">
        <ele>14</ele>
        <time>2026-08-22T13:14:47Z</time>
      </trkpt>
      <trkpt lat="47.6444" lon="-2.74434">
        <ele>14.2</ele>
        <time>2026-08-22T13:14:48Z</time>
      </trkpt>
      <trkpt lat="47.64438" lon="-2.74437">
        <ele>14.4</ele>
        <time>2026-08-22T13:14:49Z</time>
      </trkpt>
      <trkpt lat="47.64436" lon="-2.7444">
        <ele>14.5</ele>
        <time>2026-08-22T13:14:50Z</time>
      </trkpt>
      <trkpt lat="47.64435" lon="-2.74442">
        <ele>14.5</ele>
        <time>2026-08-22T13:14:51Z</time>
      </trkpt>
      <trkpt lat="47.64434" lon="-2.74445">
        <ele>14.6</ele>
        <time>2026-08-22T13:14:52Z</time>
      </trkpt>
      <trkpt lat="47.64433" lon="-2.74447">
        <ele>14.7</ele>
        <time>2026-08-22T13:14:53Z</time>
      </trkpt>
      <trkpt lat="47.64432" lon="-2.7445">
        <ele>14.8</ele>
        <time>2026-08-22T13:14:54Z</time>
      </trkpt>
      <trkpt lat="47.64431" lon="-2.74453">
        <ele>14.8</ele>
        <time>2026-08-22T13:14:55Z</time>
      </trkpt>
      <trkpt lat="47.64431" lon="-2.74457">
        <ele>15</ele>
        <time>2026-08-22T13:14:56Z</time>
      </trkpt>
      <trkpt lat="47.64431" lon="-2.74461">
        <ele>15.1</ele>
        <time>2026-08-22T13:14:57Z</time>
      </trkpt>
      <trkpt lat="47.6443" lon="-2.74466">
        <ele>15.2</ele>
        <time>2026-08-22T13:14:58Z</time>
      </trkpt>
      <trkpt lat="47.6443" lon="-2.74471">
        <ele>15.4</ele>
        <time>2026-08-22T13:14:59Z</time>
      </trkpt>
      <trkpt lat="47.6443" lon="-2.74477">
        <ele>15.4</ele>
        <time>2026-08-22T13:15:00Z</time>
      </trkpt>
      <trkpt lat="47.6443" lon="-2.74482">
        <ele>15.4</ele>
        <time>2026-08-22T13:15:01Z</time>
      </trkpt>
      <trkpt lat="47.64429" lon="-2.74488">
        <ele>15.3</ele>
        <time>2026-08-22T13:15:02Z</time>
      </trkpt>
      <trkpt lat="47.64429" lon="-2.74494">
        <ele>15.3</ele>
        <time>2026-08-22T13:15:03Z</time>
      </trkpt>
      <trkpt lat="47.64429" lon="-2.745">
        <ele>15.3</ele>
        <time>2026-08-22T13:15:04Z</time>
      </trkpt>
      <trkpt lat="47.64429" lon="-2.74506">
        <ele>15.3</ele>
        <time>2026-08-22T13:15:05Z</time>
      </trkpt>
      <trkpt lat="47.64428" lon="-2.74512">
        <ele>15.2</ele>
        <time>2026-08-22T13:15:06Z</time>
      </trkpt>
      <trkpt lat="47.64428" lon="-2.74518">
        <ele>15.2</ele>
        <time>2026-08-22T13:15:07Z</time>
      </trkpt>
      <trkpt lat="47.64428" lon="-2.74524">
        <ele>15.2</ele>
        <time>2026-08-22T13:15:08Z</time>
      </trkpt>
      <trkpt lat="47.64428" lon="-2.74531">
        <ele>15.3</ele>
        <time>2026-08-22T13:15:09Z</time>
      </trkpt>
      <trkpt lat="47.64427" lon="-2.74537">
        <ele>15.3</ele>
        <time>2026-08-22T13:15:10Z</time>
      </trkpt>
      <trkpt lat="47.64427" lon="-2.74543">
        <ele>15.5</ele>
        <time>2026-08-22T13:15:11Z</time>
      </trkpt>
      <trkpt lat="47.64427" lon="-2.74549">
        <ele>15.6</ele>
        <time>2026-08-22T13:15:12Z</time>
      </trkpt>
      <trkpt lat="47.64427" lon="-2.74555">
        <ele>15.7</ele>
        <time>2026-08-22T13:15:13Z</time>
      </trkpt>
      <trkpt lat="47.64426" lon="-2.74562">
        <ele>15.7</ele>
        <time>2026-08-22T13:15:14Z</time>
      </trkpt>
      <trkpt lat="47.64426" lon="-2.74568">
        <ele>15.7</ele>
        <time>2026-08-22T13:15:15Z</time>
      </trkpt>
      <trkpt lat="47.64426" lon="-2.74574">
        <ele>15.7</ele>
        <time>2026-08-22T13:15:16Z</time>
      </trkpt>
      <trkpt lat="47.64425" lon="-2.7458">
        <ele>15.6</ele>
        <time>2026-08-22T13:15:17Z</time>
      </trkpt>
      <trkpt lat="47.64425" lon="-2.74586">
        <ele>15.6</ele>
        <time>2026-08-22T13:15:18Z</time>
      </trkpt>
      <trkpt lat="47.64425" lon="-2.74593">
        <ele>15.6</ele>
        <time>2026-08-22T13:15:19Z</time>
      </trkpt>
      <trkpt lat="47.64425" lon="-2.74599">
        <ele>15.6</ele>
        <time>2026-08-22T13:15:20Z</time>
      </trkpt>
      <trkpt lat="47.64424" lon="-2.74606">
        <ele>15.5</ele>
        <time>2026-08-22T13:15:21Z</time>
      </trkpt>
      <trkpt lat="47.64424" lon="-2.74612">
        <ele>15.6</ele>
        <time>2026-08-22T13:15:22Z</time>
      </trkpt>
      <trkpt lat="47.64424" lon="-2.74619">
        <ele>15.7</ele>
        <time>2026-08-22T13:15:23Z</time>
      </trkpt>
      <trkpt lat="47.64424" lon="-2.74625">
        <ele>15.9</ele>
        <time>2026-08-22T13:15:24Z</time>
      </trkpt>
      <trkpt lat="47.64424" lon="-2.74631">
        <ele>16.1</ele>
        <time>2026-08-22T13:15:25Z</time>
      </trkpt>
      <trkpt lat="47.64423" lon="-2.74637">
        <ele>16.2</ele>
        <time>2026-08-22T13:15:26Z</time>
      </trkpt>
      <trkpt lat="47.64423" lon="-2.74644">
        <ele>16.2</ele>
        <time>2026-08-22T13:15:27Z</time>
      </trkpt>
      <trkpt lat="47.64423" lon="-2.7465">
        <ele>16.2</ele>
        <time>2026-08-22T13:15:28Z</time>
      </trkpt>
      <trkpt lat="47.64423" lon="-2.74656">
        <ele>16.2</ele>
        <time>2026-08-22T13:15:29Z</time>
      </trkpt>
      <trkpt lat="47.64424" lon="-2.74663">
        <ele>16.3</ele>
        <time>2026-08-22T13:15:30Z</time>
      </trkpt>
      <trkpt lat="47.64424" lon="-2.74669">
        <ele>16.3</ele>
        <time>2026-08-22T13:15:31Z</time>
      </trkpt>
      <trkpt lat="47.64424" lon="-2.74676">
        <ele>16.3</ele>
        <time>2026-08-22T13:15:32Z</time>
      </trkpt>
      <trkpt lat="47.64423" lon="-2.74682">
        <ele>16.2</ele>
        <time>2026-08-22T13:15:33Z</time>
      </trkpt>
      <trkpt lat="47.64423" lon="-2.74688">
        <ele>16.2</ele>
        <time>2026-08-22T13:15:34Z</time>
      </trkpt>
      <trkpt lat="47.64423" lon="-2.74695">
        <ele>16.2</ele>
        <time>2026-08-22T13:15:35Z</time>
      </trkpt>
      <trkpt lat="47.64422" lon="-2.74701">
        <ele>16.2</ele>
        <time>2026-08-22T13:15:36Z</time>
      </trkpt>
      <trkpt lat="47.64422" lon="-2.74708">
        <ele>16.2</ele>
        <time>2026-08-22T13:15:37Z</time>
      </trkpt>
      <trkpt lat="47.64421" lon="-2.74714">
        <ele>16.2</ele>
        <time>2026-08-22T13:15:38Z</time>
      </trkpt>
      <trkpt lat="47.64421" lon="-2.74721">
        <ele>16.2</ele>
        <time>2026-08-22T13:15:39Z</time>
      </trkpt>
      <trkpt lat="47.64421" lon="-2.74727">
        <ele>16.3</ele>
        <time>2026-08-22T13:15:40Z</time>
      </trkpt>
      <trkpt lat="47.6442" lon="-2.74734">
        <ele>16.5</ele>
        <time>2026-08-22T13:15:41Z</time>
      </trkpt>
      <trkpt lat="47.6442" lon="-2.7474">
        <ele>16.7</ele>
        <time>2026-08-22T13:15:42Z</time>
      </trkpt>
      <trkpt lat="47.6442" lon="-2.74747">
        <ele>16.9</ele>
        <time>2026-08-22T13:15:43Z</time>
      </trkpt>
      <trkpt lat="47.6442" lon="-2.74754">
        <ele>17</ele>
        <time>2026-08-22T13:15:44Z</time>
      </trkpt>
      <trkpt lat="47.6442" lon="-2.7476">
        <ele>17</ele>
        <time>2026-08-22T13:15:45Z</time>
      </trkpt>
      <trkpt lat="47.6442" lon="-2.74766">
        <ele>16.9</ele>
        <time>2026-08-22T13:15:46Z</time>
      </trkpt>
      <trkpt lat="47.6442" lon="-2.74773">
        <ele>16.9</ele>
        <time>2026-08-22T13:15:47Z</time>
      </trkpt>
      <trkpt lat="47.6442" lon="-2.74779">
        <ele>16.9</ele>
        <time>2026-08-22T13:15:48Z</time>
      </trkpt>
      <trkpt lat="47.64419" lon="-2.74785">
        <ele>16.9</ele>
        <time>2026-08-22T13:15:49Z</time>
      </trkpt>
      <trkpt lat="47.64419" lon="-2.74792">
        <ele>16.9</ele>
        <time>2026-08-22T13:15:50Z</time>
      </trkpt>
      <trkpt lat="47.64419" lon="-2.74798">
        <ele>16.9</ele>
        <time>2026-08-22T13:15:51Z</time>
      </trkpt>
      <trkpt lat="47.64419" lon="-2.74805">
        <ele>16.9</ele>
        <time>2026-08-22T13:15:52Z</time>
      </trkpt>
      <trkpt lat="47.64419" lon="-2.74811">
        <ele>16.9</ele>
        <time>2026-08-22T13:15:53Z</time>
      </trkpt>
      <trkpt lat="47.64418" lon="-2.74817">
        <ele>17</ele>
        <time>2026-08-22T13:15:54Z</time>
      </trkpt>
      <trkpt lat="47.64418" lon="-2.74824">
        <ele>17</ele>
        <time>2026-08-22T13:15:55Z</time>
      </trkpt>
      <trkpt lat="47.64417" lon="-2.7483">
        <ele>17</ele>
        <time>2026-08-22T13:15:56Z</time>
      </trkpt>
      <trkpt lat="47.64417" lon="-2.74836">
        <ele>17</ele>
        <time>2026-08-22T13:15:57Z</time>
      </trkpt>
      <trkpt lat="47.64416" lon="-2.74843">
        <ele>17</ele>
        <time>2026-08-22T13:15:58Z</time>
      </trkpt>
      <trkpt lat="47.64416" lon="-2.74849">
        <ele>17</ele>
        <time>2026-08-22T13:15:59Z</time>
      </trkpt>
      <trkpt lat="47.64415" lon="-2.74855">
        <ele>17</ele>
        <time>2026-08-22T13:16:00Z</time>
      </trkpt>
      <trkpt lat="47.64414" lon="-2.74861">
        <ele>17</ele>
        <time>2026-08-22T13:16:01Z</time>
      </trkpt>
      <trkpt lat="47.64414" lon="-2.74868">
        <ele>17</ele>
        <time>2026-08-22T13:16:02Z</time>
      </trkpt>
      <trkpt lat="47.64413" lon="-2.74874">
        <ele>17.1</ele>
        <time>2026-08-22T13:16:03Z</time>
      </trkpt>
      <trkpt lat="47.64412" lon="-2.7488">
        <ele>17.1</ele>
        <time>2026-08-22T13:16:04Z</time>
      </trkpt>
      <trkpt lat="47.64411" lon="-2.74886">
        <ele>17.2</ele>
        <time>2026-08-22T13:16:05Z</time>
      </trkpt>
      <trkpt lat="47.6441" lon="-2.74893">
        <ele>17.2</ele>
        <time>2026-08-22T13:16:06Z</time>
      </trkpt>
      <trkpt lat="47.64409" lon="-2.74899">
        <ele>17.3</ele>
        <time>2026-08-22T13:16:07Z</time>
      </trkpt>
      <trkpt lat="47.64408" lon="-2.74905">
        <ele>17.3</ele>
        <time>2026-08-22T13:16:08Z</time>
      </trkpt>
      <trkpt lat="47.64406" lon="-2.74911">
        <ele>17.4</ele>
        <time>2026-08-22T13:16:09Z</time>
      </trkpt>
      <trkpt lat="47.64405" lon="-2.74918">
        <ele>17.4</ele>
        <time>2026-08-22T13:16:10Z</time>
      </trkpt>
      <trkpt lat="47.64404" lon="-2.74924">
        <ele>17.6</ele>
        <time>2026-08-22T13:16:11Z</time>
      </trkpt>
      <trkpt lat="47.64403" lon="-2.7493">
        <ele>17.7</ele>
        <time>2026-08-22T13:16:12Z</time>
      </trkpt>
      <trkpt lat="47.64401" lon="-2.74936">
        <ele>18</ele>
        <time>2026-08-22T13:16:13Z</time>
      </trkpt>
      <trkpt lat="47.644" lon="-2.74943">
        <ele>18.2</ele>
        <time>2026-08-22T13:16:14Z</time>
      </trkpt>
      <trkpt lat="47.64398" lon="-2.74949">
        <ele>18.3</ele>
        <time>2026-08-22T13:16:15Z</time>
      </trkpt>
      <trkpt lat="47.64397" lon="-2.74955">
        <ele>18.4</ele>
        <time>2026-08-22T13:16:16Z</time>
      </trkpt>
      <trkpt lat="47.64395" lon="-2.74961">
        <ele>18.6</ele>
        <time>2026-08-22T13:16:17Z</time>
      </trkpt>
      <trkpt lat="47.64393" lon="-2.74967">
        <ele>18.7</ele>
        <time>2026-08-22T13:16:18Z</time>
      </trkpt>
      <trkpt lat="47.64392" lon="-2.74973">
        <ele>18.8</ele>
        <time>2026-08-22T13:16:19Z</time>
      </trkpt>
      <trkpt lat="47.6439" lon="-2.74979">
        <ele>18.7</ele>
        <time>2026-08-22T13:16:20Z</time>
      </trkpt>
      <trkpt lat="47.64388" lon="-2.74985">
        <ele>18.6</ele>
        <time>2026-08-22T13:16:21Z</time>
      </trkpt>
      <trkpt lat="47.64386" lon="-2.74991">
        <ele>18.4</ele>
        <time>2026-08-22T13:16:22Z</time>
      </trkpt>
      <trkpt lat="47.64385" lon="-2.74997">
        <ele>18.2</ele>
        <time>2026-08-22T13:16:23Z</time>
      </trkpt>
      <trkpt lat="47.64383" lon="-2.75004">
        <ele>18.2</ele>
        <time>2026-08-22T13:16:24Z</time>
      </trkpt>
      <trkpt lat="47.64382" lon="-2.75009">
        <ele>18.2</ele>
        <time>2026-08-22T13:16:25Z</time>
      </trkpt>
      <trkpt lat="47.6438" lon="-2.75015">
        <ele>18.3</ele>
        <time>2026-08-22T13:16:26Z</time>
      </trkpt>
      <trkpt lat="47.64379" lon="-2.75021">
        <ele>18.4</ele>
        <time>2026-08-22T13:16:27Z</time>
      </trkpt>
      <trkpt lat="47.64377" lon="-2.75027">
        <ele>18.4</ele>
        <time>2026-08-22T13:16:28Z</time>
      </trkpt>
      <trkpt lat="47.64376" lon="-2.75033">
        <ele>18.6</ele>
        <time>2026-08-22T13:16:29Z</time>
      </trkpt>
      <trkpt lat="47.64374" lon="-2.75039">
        <ele>18.8</ele>
        <time>2026-08-22T13:16:30Z</time>
      </trkpt>
      <trkpt lat="47.64372" lon="-2.75045">
        <ele>19</ele>
        <time>2026-08-22T13:16:31Z</time>
      </trkpt>
      <trkpt lat="47.64371" lon="-2.75051">
        <ele>19.2</ele>
        <time>2026-08-22T13:16:32Z</time>
      </trkpt>
      <trkpt lat="47.6437" lon="-2.75057">
        <ele>19.4</ele>
        <time>2026-08-22T13:16:33Z</time>
      </trkpt>
      <trkpt lat="47.64368" lon="-2.75063">
        <ele>19.6</ele>
        <time>2026-08-22T13:16:34Z</time>
      </trkpt>
      <trkpt lat="47.64366" lon="-2.75069">
        <ele>19.7</ele>
        <time>2026-08-22T13:16:35Z</time>
      </trkpt>
      <trkpt lat="47.64364" lon="-2.75075">
        <ele>19.9</ele>
        <time>2026-08-22T13:16:36Z</time>
      </trkpt>
      <trkpt lat="47.64362" lon="-2.75081">
        <ele>20</ele>
        <time>2026-08-22T13:16:37Z</time>
      </trkpt>
      <trkpt lat="47.64361" lon="-2.75087">
        <ele>20</ele>
        <time>2026-08-22T13:16:38Z</time>
      </trkpt>
      <trkpt lat="47.64359" lon="-2.75093">
        <ele>20</ele>
        <time>2026-08-22T13:16:39Z</time>
      </trkpt>
      <trkpt lat="47.64357" lon="-2.75099">
        <ele>20.1</ele>
        <time>2026-08-22T13:16:40Z</time>
      </trkpt>
      <trkpt lat="47.64356" lon="-2.75104">
        <ele>20</ele>
        <time>2026-08-22T13:16:41Z</time>
      </trkpt>
      <trkpt lat="47.64354" lon="-2.7511">
        <ele>20</ele>
        <time>2026-08-22T13:16:42Z</time>
      </trkpt>
      <trkpt lat="47.64352" lon="-2.75116">
        <ele>20</ele>
        <time>2026-08-22T13:16:43Z</time>
      </trkpt>
      <trkpt lat="47.64351" lon="-2.75122">
        <ele>20</ele>
        <time>2026-08-22T13:16:44Z</time>
      </trkpt>
      <trkpt lat="47.6435" lon="-2.75127">
        <ele>20</ele>
        <time>2026-08-22T13:16:45Z</time>
      </trkpt>
      <trkpt lat="47.64349" lon="-2.75133">
        <ele>20</ele>
        <time>2026-08-22T13:16:46Z</time>
      </trkpt>
      <trkpt lat="47.64348" lon="-2.75139">
        <ele>20</ele>
        <time>2026-08-22T13:16:47Z</time>
      </trkpt>
      <trkpt lat="47.64347" lon="-2.75145">
        <ele>20.1</ele>
        <time>2026-08-22T13:16:48Z</time>
      </trkpt>
      <trkpt lat="47.64346" lon="-2.75151">
        <ele>20.2</ele>
        <time>2026-08-22T13:16:49Z</time>
      </trkpt>
      <trkpt lat="47.64346" lon="-2.75157">
        <ele>20.4</ele>
        <time>2026-08-22T13:16:50Z</time>
      </trkpt>
      <trkpt lat="47.64346" lon="-2.75163">
        <ele>20.5</ele>
        <time>2026-08-22T13:16:51Z</time>
      </trkpt>
      <trkpt lat="47.64347" lon="-2.75169">
        <ele>20.5</ele>
        <time>2026-08-22T13:16:52Z</time>
      </trkpt>
      <trkpt lat="47.64348" lon="-2.75174">
        <ele>20.6</ele>
        <time>2026-08-22T13:16:53Z</time>
      </trkpt>
      <trkpt lat="47.6435" lon="-2.7518">
        <ele>20.7</ele>
        <time>2026-08-22T13:16:54Z</time>
      </trkpt>
      <trkpt lat="47.64351" lon="-2.75185">
        <ele>20.8</ele>
        <time>2026-08-22T13:16:55Z</time>
      </trkpt>
      <trkpt lat="47.64353" lon="-2.75191">
        <ele>20.9</ele>
        <time>2026-08-22T13:16:56Z</time>
      </trkpt>
      <trkpt lat="47.64355" lon="-2.75196">
        <ele>21</ele>
        <time>2026-08-22T13:16:57Z</time>
      </trkpt>
      <trkpt lat="47.64357" lon="-2.752">
        <ele>21</ele>
        <time>2026-08-22T13:16:58Z</time>
      </trkpt>
      <trkpt lat="47.6436" lon="-2.75205">
        <ele>21</ele>
        <time>2026-08-22T13:16:59Z</time>
      </trkpt>
      <trkpt lat="47.64363" lon="-2.75209">
        <ele>21</ele>
        <time>2026-08-22T13:17:00Z</time>
      </trkpt>
      <trkpt lat="47.64366" lon="-2.75213">
        <ele>20.9</ele>
        <time>2026-08-22T13:17:01Z</time>
      </trkpt>
      <trkpt lat="47.64369" lon="-2.75218">
        <ele>21</ele>
        <time>2026-08-22T13:17:02Z</time>
      </trkpt>
      <trkpt lat="47.64372" lon="-2.75222">
        <ele>21</ele>
        <time>2026-08-22T13:17:03Z</time>
      </trkpt>
      <trkpt lat="47.64376" lon="-2.75226">
        <ele>21</ele>
        <time>2026-08-22T13:17:04Z</time>
      </trkpt>
      <trkpt lat="47.64379" lon="-2.7523">
        <ele>21</ele>
        <time>2026-08-22T13:17:05Z</time>
      </trkpt>
      <trkpt lat="47.64382" lon="-2.75235">
        <ele>21</ele>
        <time>2026-08-22T13:17:06Z</time>
      </trkpt>
      <trkpt lat="47.64385" lon="-2.75239">
        <ele>21</ele>
        <time>2026-08-22T13:17:07Z</time>
      </trkpt>
      <trkpt lat="47.64388" lon="-2.75243">
        <ele>21</ele>
        <time>2026-08-22T13:17:08Z</time>
      </trkpt>
      <trkpt lat="47.64391" lon="-2.75248">
        <ele>21.1</ele>
        <time>2026-08-22T13:17:09Z</time>
      </trkpt>
      <trkpt lat="47.64394" lon="-2.75252">
        <ele>21.2</ele>
        <time>2026-08-22T13:17:10Z</time>
      </trkpt>
      <trkpt lat="47.64397" lon="-2.75255">
        <ele>21.3</ele>
        <time>2026-08-22T13:17:11Z</time>
      </trkpt>
      <trkpt lat="47.644" lon="-2.75259">
        <ele>21.4</ele>
        <time>2026-08-22T13:17:12Z</time>
      </trkpt>
      <trkpt lat="47.64403" lon="-2.75262">
        <ele>21.5</ele>
        <time>2026-08-22T13:17:13Z</time>
      </trkpt>
      <trkpt lat="47.64407" lon="-2.75266">
        <ele>21.7</ele>
        <time>2026-08-22T13:17:14Z</time>
      </trkpt>
      <trkpt lat="47.6441" lon="-2.75269">
        <ele>21.8</ele>
        <time>2026-08-22T13:17:15Z</time>
      </trkpt>
      <trkpt lat="47.64413" lon="-2.75273">
        <ele>21.9</ele>
        <time>2026-08-22T13:17:16Z</time>
      </trkpt>
      <trkpt lat="47.64416" lon="-2.75277">
        <ele>22</ele>
        <time>2026-08-22T13:17:17Z</time>
      </trkpt>
      <trkpt lat="47.6442" lon="-2.7528">
        <ele>22</ele>
        <time>2026-08-22T13:17:18Z</time>
      </trkpt>
      <trkpt lat="47.64424" lon="-2.75283">
        <ele>22</ele>
        <time>2026-08-22T13:17:19Z</time>
      </trkpt>
      <trkpt lat="47.64427" lon="-2.75286">
        <ele>22.1</ele>
        <time>2026-08-22T13:17:20Z</time>
      </trkpt>
      <trkpt lat="47.64431" lon="-2.75288">
        <ele>22.2</ele>
        <time>2026-08-22T13:17:21Z</time>
      </trkpt>
      <trkpt lat="47.64435" lon="-2.75291">
        <ele>22.3</ele>
        <time>2026-08-22T13:17:22Z</time>
      </trkpt>
      <trkpt lat="47.64438" lon="-2.75295">
        <ele>22.5</ele>
        <time>2026-08-22T13:17:23Z</time>
      </trkpt>
      <trkpt lat="47.64441" lon="-2.75298">
        <ele>22.6</ele>
        <time>2026-08-22T13:17:24Z</time>
      </trkpt>
      <trkpt lat="47.64445" lon="-2.75301">
        <ele>22.9</ele>
        <time>2026-08-22T13:17:25Z</time>
      </trkpt>
      <trkpt lat="47.64448" lon="-2.75304">
        <ele>23.1</ele>
        <time>2026-08-22T13:17:26Z</time>
      </trkpt>
      <trkpt lat="47.64451" lon="-2.75308">
        <ele>23.2</ele>
        <time>2026-08-22T13:17:27Z</time>
      </trkpt>
      <trkpt lat="47.64454" lon="-2.75311">
        <ele>23.3</ele>
        <time>2026-08-22T13:17:28Z</time>
      </trkpt>
      <trkpt lat="47.64458" lon="-2.75314">
        <ele>23.5</ele>
        <time>2026-08-22T13:17:29Z</time>
      </trkpt>
      <trkpt lat="47.64462" lon="-2.75317">
        <ele>23.6</ele>
        <time>2026-08-22T13:17:30Z</time>
      </trkpt>
      <trkpt lat="47.64466" lon="-2.75319">
        <ele>23.8</ele>
        <time>2026-08-22T13:17:31Z</time>
      </trkpt>
      <trkpt lat="47.6447" lon="-2.75321">
        <ele>23.9</ele>
        <time>2026-08-22T13:17:32Z</time>
      </trkpt>
      <trkpt lat="47.64473" lon="-2.75323">
        <ele>24</ele>
        <time>2026-08-22T13:17:33Z</time>
      </trkpt>
      <trkpt lat="47.64477" lon="-2.75326">
        <ele>24.2</ele>
        <time>2026-08-22T13:17:34Z</time>
      </trkpt>
      <trkpt lat="47.64481" lon="-2.75328">
        <ele>24.3</ele>
        <time>2026-08-22T13:17:35Z</time>
      </trkpt>
      <trkpt lat="47.64485" lon="-2.7533">
        <ele>24.5</ele>
        <time>2026-08-22T13:17:36Z</time>
      </trkpt>
      <trkpt lat="47.64489" lon="-2.75332">
        <ele>24.6</ele>
        <time>2026-08-22T13:17:37Z</time>
      </trkpt>
      <trkpt lat="47.64494" lon="-2.75334">
        <ele>24.8</ele>
        <time>2026-08-22T13:17:38Z</time>
      </trkpt>
      <trkpt lat="47.64498" lon="-2.75335">
        <ele>24.9</ele>
        <time>2026-08-22T13:17:39Z</time>
      </trkpt>
      <trkpt lat="47.64502" lon="-2.75337">
        <ele>25</ele>
        <time>2026-08-22T13:17:40Z</time>
      </trkpt>
      <trkpt lat="47.64507" lon="-2.75338">
        <ele>25</ele>
        <time>2026-08-22T13:17:41Z</time>
      </trkpt>
      <trkpt lat="47.64511" lon="-2.75339">
        <ele>24.9</ele>
        <time>2026-08-22T13:17:42Z</time>
      </trkpt>
      <trkpt lat="47.64516" lon="-2.7534">
        <ele>24.9</ele>
        <time>2026-08-22T13:17:43Z</time>
      </trkpt>
      <trkpt lat="47.6452" lon="-2.75341">
        <ele>24.8</ele>
        <time>2026-08-22T13:17:44Z</time>
      </trkpt>
      <trkpt lat="47.64525" lon="-2.75342">
        <ele>24.7</ele>
        <time>2026-08-22T13:17:45Z</time>
      </trkpt>
      <trkpt lat="47.64529" lon="-2.75342">
        <ele>24.7</ele>
        <time>2026-08-22T13:17:46Z</time>
      </trkpt>
      <trkpt lat="47.64534" lon="-2.75343">
        <ele>24.5</ele>
        <time>2026-08-22T13:17:47Z</time>
      </trkpt>
      <trkpt lat="47.64539" lon="-2.75344">
        <ele>24.4</ele>
        <time>2026-08-22T13:17:48Z</time>
      </trkpt>
      <trkpt lat="47.64543" lon="-2.75344">
        <ele>24.3</ele>
        <time>2026-08-22T13:17:49Z</time>
      </trkpt>
      <trkpt lat="47.64548" lon="-2.75345">
        <ele>24.2</ele>
        <time>2026-08-22T13:17:50Z</time>
      </trkpt>
      <trkpt lat="47.64553" lon="-2.75345">
        <ele>24.1</ele>
        <time>2026-08-22T13:17:51Z</time>
      </trkpt>
      <trkpt lat="47.64558" lon="-2.75346">
        <ele>24</ele>
        <time>2026-08-22T13:17:52Z</time>
      </trkpt>
      <trkpt lat="47.64562" lon="-2.75347">
        <ele>23.9</ele>
        <time>2026-08-22T13:17:53Z</time>
      </trkpt>
      <trkpt lat="47.64567" lon="-2.75347">
        <ele>23.8</ele>
        <time>2026-08-22T13:17:54Z</time>
      </trkpt>
      <trkpt lat="47.64572" lon="-2.75347">
        <ele>23.7</ele>
        <time>2026-08-22T13:17:55Z</time>
      </trkpt>
      <trkpt lat="47.64577" lon="-2.75348">
        <ele>23.6</ele>
        <time>2026-08-22T13:17:56Z</time>
      </trkpt>
      <trkpt lat="47.64582" lon="-2.75348">
        <ele>23.5</ele>
        <time>2026-08-22T13:17:57Z</time>
      </trkpt>
      <trkpt lat="47.64587" lon="-2.75349">
        <ele>23.2</ele>
        <time>2026-08-22T13:17:58Z</time>
      </trkpt>
      <trkpt lat="47.64592" lon="-2.75349">
        <ele>23</ele>
        <time>2026-08-22T13:17:59Z</time>
      </trkpt>
      <trkpt lat="47.64598" lon="-2.75349">
        <ele>22.7</ele>
        <time>2026-08-22T13:18:00Z</time>
      </trkpt>
      <trkpt lat="47.64603" lon="-2.7535">
        <ele>22.4</ele>
        <time>2026-08-22T13:18:01Z</time>
      </trkpt>
      <trkpt lat="47.64609" lon="-2.7535">
        <ele>22.1</ele>
        <time>2026-08-22T13:18:02Z</time>
      </trkpt>
      <trkpt lat="47.64614" lon="-2.75351">
        <ele>22</ele>
        <time>2026-08-22T13:18:03Z</time>
      </trkpt>
      <trkpt lat="47.6462" lon="-2.75351">
        <ele>22</ele>
        <time>2026-08-22T13:18:04Z</time>
      </trkpt>
      <trkpt lat="47.64625" lon="-2.75352">
        <ele>22</ele>
        <time>2026-08-22T13:18:05Z</time>
      </trkpt>
      <trkpt lat="47.64631" lon="-2.75352">
        <ele>22</ele>
        <time>2026-08-22T13:18:06Z</time>
      </trkpt>
      <trkpt lat="47.64636" lon="-2.75353">
        <ele>22</ele>
        <time>2026-08-22T13:18:07Z</time>
      </trkpt>
      <trkpt lat="47.64642" lon="-2.75354">
        <ele>21.9</ele>
        <time>2026-08-22T13:18:08Z</time>
      </trkpt>
      <trkpt lat="47.64647" lon="-2.75355">
        <ele>21.9</ele>
        <time>2026-08-22T13:18:09Z</time>
      </trkpt>
      <trkpt lat="47.64652" lon="-2.75357">
        <ele>21.9</ele>
        <time>2026-08-22T13:18:10Z</time>
      </trkpt>
      <trkpt lat="47.64657" lon="-2.75358">
        <ele>21.9</ele>
        <time>2026-08-22T13:18:11Z</time>
      </trkpt>
      <trkpt lat="47.64663" lon="-2.75359">
        <ele>21.9</ele>
        <time>2026-08-22T13:18:12Z</time>
      </trkpt>
      <trkpt lat="47.64668" lon="-2.75359">
        <ele>21.8</ele>
        <time>2026-08-22T13:18:13Z</time>
      </trkpt>
      <trkpt lat="47.64673" lon="-2.7536">
        <ele>21.9</ele>
        <time>2026-08-22T13:18:14Z</time>
      </trkpt>
      <trkpt lat="47.64679" lon="-2.75362">
        <ele>22</ele>
        <time>2026-08-22T13:18:15Z</time>
      </trkpt>
      <trkpt lat="47.64684" lon="-2.75363">
        <ele>21.9</ele>
        <time>2026-08-22T13:18:16Z</time>
      </trkpt>
      <trkpt lat="47.64689" lon="-2.75364">
        <ele>21.9</ele>
        <time>2026-08-22T13:18:17Z</time>
      </trkpt>
      <trkpt lat="47.64694" lon="-2.75366">
        <ele>21.8</ele>
        <time>2026-08-22T13:18:18Z</time>
      </trkpt>
      <trkpt lat="47.64699" lon="-2.75367">
        <ele>21.7</ele>
        <time>2026-08-22T13:18:19Z</time>
      </trkpt>
      <trkpt lat="47.64703" lon="-2.75369">
        <ele>21.6</ele>
        <time>2026-08-22T13:18:20Z</time>
      </trkpt>
      <trkpt lat="47.64708" lon="-2.75371">
        <ele>21.5</ele>
        <time>2026-08-22T13:18:21Z</time>
      </trkpt>
      <trkpt lat="47.64713" lon="-2.75372">
        <ele>21.5</ele>
        <time>2026-08-22T13:18:22Z</time>
      </trkpt>
      <trkpt lat="47.64717" lon="-2.75374">
        <ele>21.5</ele>
        <time>2026-08-22T13:18:23Z</time>
      </trkpt>
      <trkpt lat="47.64722" lon="-2.75377">
        <ele>21.6</ele>
        <time>2026-08-22T13:18:24Z</time>
      </trkpt>
      <trkpt lat="47.64727" lon="-2.75379">
        <ele>21.7</ele>
        <time>2026-08-22T13:18:25Z</time>
      </trkpt>
      <trkpt lat="47.64732" lon="-2.75381">
        <ele>21.8</ele>
        <time>2026-08-22T13:18:26Z</time>
      </trkpt>
      <trkpt lat="47.64736" lon="-2.75383">
        <ele>21.9</ele>
        <time>2026-08-22T13:18:27Z</time>
      </trkpt>
      <trkpt lat="47.64741" lon="-2.75383">
        <ele>21.9</ele>
        <time>2026-08-22T13:18:28Z</time>
      </trkpt>
      <trkpt lat="47.64745" lon="-2.75382">
        <ele>22</ele>
        <time>2026-08-22T13:18:29Z</time>
      </trkpt>
      <trkpt lat="47.64749" lon="-2.75379">
        <ele>22</ele>
        <time>2026-08-22T13:18:30Z</time>
      </trkpt>
      <trkpt lat="47.64754" lon="-2.75377">
        <ele>22.1</ele>
        <time>2026-08-22T13:18:31Z</time>
      </trkpt>
      <trkpt lat="47.64759" lon="-2.75376">
        <ele>22.2</ele>
        <time>2026-08-22T13:18:32Z</time>
      </trkpt>
      <trkpt lat="47.64764" lon="-2.75375">
        <ele>22.3</ele>
        <time>2026-08-22T13:18:33Z</time>
      </trkpt>
      <trkpt lat="47.64769" lon="-2.75375">
        <ele>22.3</ele>
        <time>2026-08-22T13:18:34Z</time>
      </trkpt>
      <trkpt lat="47.64774" lon="-2.75375">
        <ele>22.4</ele>
        <time>2026-08-22T13:18:35Z</time>
      </trkpt>
      <trkpt lat="47.64778" lon="-2.75375">
        <ele>22.5</ele>
        <time>2026-08-22T13:18:36Z</time>
      </trkpt>
      <trkpt lat="47.64783" lon="-2.75375">
        <ele>22.6</ele>
        <time>2026-08-22T13:18:37Z</time>
      </trkpt>
      <trkpt lat="47.64788" lon="-2.75375">
        <ele>22.7</ele>
        <time>2026-08-22T13:18:38Z</time>
      </trkpt>
      <trkpt lat="47.64793" lon="-2.75375">
        <ele>22.8</ele>
        <time>2026-08-22T13:18:39Z</time>
      </trkpt>
      <trkpt lat="47.64797" lon="-2.75375">
        <ele>22.8</ele>
        <time>2026-08-22T13:18:40Z</time>
      </trkpt>
      <trkpt lat="47.64801" lon="-2.75375">
        <ele>22.9</ele>
        <time>2026-08-22T13:18:41Z</time>
      </trkpt>
      <trkpt lat="47.64806" lon="-2.75374">
        <ele>23</ele>
        <time>2026-08-22T13:18:42Z</time>
      </trkpt>
      <trkpt lat="47.64811" lon="-2.75373">
        <ele>23</ele>
        <time>2026-08-22T13:18:43Z</time>
      </trkpt>
      <trkpt lat="47.64816" lon="-2.75373">
        <ele>23</ele>
        <time>2026-08-22T13:18:44Z</time>
      </trkpt>
      <trkpt lat="47.64821" lon="-2.75372">
        <ele>23</ele>
        <time>2026-08-22T13:18:45Z</time>
      </trkpt>
      <trkpt lat="47.64826" lon="-2.75371">
        <ele>23</ele>
        <time>2026-08-22T13:18:46Z</time>
      </trkpt>
      <trkpt lat="47.64831" lon="-2.75371">
        <ele>23</ele>
        <time>2026-08-22T13:18:47Z</time>
      </trkpt>
      <trkpt lat="47.64836" lon="-2.75371">
        <ele>22.9</ele>
        <time>2026-08-22T13:18:48Z</time>
      </trkpt>
      <trkpt lat="47.64841" lon="-2.7537">
        <ele>22.7</ele>
        <time>2026-08-22T13:18:49Z</time>
      </trkpt>
      <trkpt lat="47.64847" lon="-2.75371">
        <ele>22.5</ele>
        <time>2026-08-22T13:18:50Z</time>
      </trkpt>
      <trkpt lat="47.64852" lon="-2.75372">
        <ele>22.3</ele>
        <time>2026-08-22T13:18:51Z</time>
      </trkpt>
      <trkpt lat="47.64857" lon="-2.75373">
        <ele>22.1</ele>
        <time>2026-08-22T13:18:52Z</time>
      </trkpt>
      <trkpt lat="47.64862" lon="-2.75374">
        <ele>22</ele>
        <time>2026-08-22T13:18:53Z</time>
      </trkpt>
      <trkpt lat="47.64867" lon="-2.75375">
        <ele>22</ele>
        <time>2026-08-22T13:18:54Z</time>
      </trkpt>
      <trkpt lat="47.64871" lon="-2.75375">
        <ele>22</ele>
        <time>2026-08-22T13:18:55Z</time>
      </trkpt>
      <trkpt lat="47.64875" lon="-2.75376">
        <ele>22</ele>
        <time>2026-08-22T13:18:56Z</time>
      </trkpt>
      <trkpt lat="47.6488" lon="-2.75376">
        <ele>22</ele>
        <time>2026-08-22T13:18:57Z</time>
      </trkpt>
      <trkpt lat="47.64884" lon="-2.75377">
        <ele>22</ele>
        <time>2026-08-22T13:18:58Z</time>
      </trkpt>
      <trkpt lat="47.64888" lon="-2.75378">
        <ele>22</ele>
        <time>2026-08-22T13:18:59Z</time>
      </trkpt>
      <trkpt lat="47.64891" lon="-2.75379">
        <ele>22</ele>
        <time>2026-08-22T13:19:00Z</time>
      </trkpt>
      <trkpt lat="47.64895" lon="-2.7538">
        <ele>22</ele>
        <time>2026-08-22T13:19:01Z</time>
      </trkpt>
      <trkpt lat="47.64899" lon="-2.7538">
        <ele>22</ele>
        <time>2026-08-22T13:19:02Z</time>
      </trkpt>
      <trkpt lat="47.64903" lon="-2.7538">
        <ele>22</ele>
        <time>2026-08-22T13:19:03Z</time>
      </trkpt>
      <trkpt lat="47.64907" lon="-2.75381">
        <ele>22</ele>
        <time>2026-08-22T13:19:04Z</time>
      </trkpt>
      <trkpt lat="47.64912" lon="-2.75381">
        <ele>22</ele>
        <time>2026-08-22T13:19:05Z</time>
      </trkpt>
      <trkpt lat="47.64916" lon="-2.75382">
        <ele>22</ele>
        <time>2026-08-22T13:19:06Z</time>
      </trkpt>
      <trkpt lat="47.64921" lon="-2.75383">
        <ele>22</ele>
        <time>2026-08-22T13:19:07Z</time>
      </trkpt>
      <trkpt lat="47.64926" lon="-2.75384">
        <ele>22</ele>
        <time>2026-08-22T13:19:08Z</time>
      </trkpt>
      <trkpt lat="47.6493" lon="-2.75385">
        <ele>22</ele>
        <time>2026-08-22T13:19:09Z</time>
      </trkpt>
      <trkpt lat="47.64934" lon="-2.75386">
        <ele>22</ele>
        <time>2026-08-22T13:19:10Z</time>
      </trkpt>
      <trkpt lat="47.64937" lon="-2.75387">
        <ele>22</ele>
        <time>2026-08-22T13:19:11Z</time>
      </trkpt>
      <trkpt lat="47.6494" lon="-2.75389">
        <ele>22</ele>
        <time>2026-08-22T13:19:12Z</time>
      </trkpt>
      <trkpt lat="47.64943" lon="-2.75389">
        <ele>22</ele>
        <time>2026-08-22T13:19:13Z</time>
      </trkpt>
      <trkpt lat="47.64947" lon="-2.75388">
        <ele>22</ele>
        <time>2026-08-22T13:19:14Z</time>
      </trkpt>
      <trkpt lat="47.6495" lon="-2.75388">
        <ele>22</ele>
        <time>2026-08-22T13:19:15Z</time>
      </trkpt>
      <trkpt lat="47.64954" lon="-2.75389">
        <ele>22</ele>
        <time>2026-08-22T13:19:16Z</time>
      </trkpt>
      <trkpt lat="47.64958" lon="-2.7539">
        <ele>22</ele>
        <time>2026-08-22T13:19:17Z</time>
      </trkpt>
      <trkpt lat="47.64963" lon="-2.75389">
        <ele>22</ele>
        <time>2026-08-22T13:19:18Z</time>
      </trkpt>
      <trkpt lat="47.64967" lon="-2.75389">
        <ele>22</ele>
        <time>2026-08-22T13:19:19Z</time>
      </trkpt>
      <trkpt lat="47.64972" lon="-2.75388">
        <ele>22</ele>
        <time>2026-08-22T13:19:20Z</time>
      </trkpt>
      <trkpt lat="47.64976" lon="-2.75388">
        <ele>22</ele>
        <time>2026-08-22T13:19:21Z</time>
      </trkpt>
      <trkpt lat="47.64981" lon="-2.75388">
        <ele>22</ele>
        <time>2026-08-22T13:19:22Z</time>
      </trkpt>
      <trkpt lat="47.64986" lon="-2.75388">
        <ele>22</ele>
        <time>2026-08-22T13:19:23Z</time>
      </trkpt>
      <trkpt lat="47.6499" lon="-2.75388">
        <ele>22</ele>
        <time>2026-08-22T13:19:24Z</time>
      </trkpt>
      <trkpt lat="47.64995" lon="-2.75387">
        <ele>22</ele>
        <time>2026-08-22T13:19:25Z</time>
      </trkpt>
      <trkpt lat="47.65" lon="-2.75387">
        <ele>22</ele>
        <time>2026-08-22T13:19:26Z</time>
      </trkpt>
      <trkpt lat="47.65004" lon="-2.75386">
        <ele>21.9</ele>
        <time>2026-08-22T13:19:27Z</time>
      </trkpt>
      <trkpt lat="47.65009" lon="-2.75386">
        <ele>21.7</ele>
        <time>2026-08-22T13:19:28Z</time>
      </trkpt>
      <trkpt lat="47.65013" lon="-2.75386">
        <ele>21.6</ele>
        <time>2026-08-22T13:19:29Z</time>
      </trkpt>
      <trkpt lat="47.65018" lon="-2.75385">
        <ele>21.4</ele>
        <time>2026-08-22T13:19:30Z</time>
      </trkpt>
      <trkpt lat="47.65022" lon="-2.75384">
        <ele>21.3</ele>
        <time>2026-08-22T13:19:31Z</time>
      </trkpt>
      <trkpt lat="47.65026" lon="-2.75384">
        <ele>21.2</ele>
        <time>2026-08-22T13:19:32Z</time>
      </trkpt>
      <trkpt lat="47.6503" lon="-2.75385">
        <ele>21.2</ele>
        <time>2026-08-22T13:19:33Z</time>
      </trkpt>
      <trkpt lat="47.65034" lon="-2.75385">
        <ele>21.3</ele>
        <time>2026-08-22T13:19:34Z</time>
      </trkpt>
      <trkpt lat="47.65038" lon="-2.75386">
        <ele>21.4</ele>
        <time>2026-08-22T13:19:35Z</time>
      </trkpt>
      <trkpt lat="47.65042" lon="-2.75387">
        <ele>21.5</ele>
        <time>2026-08-22T13:19:36Z</time>
      </trkpt>
      <trkpt lat="47.65046" lon="-2.75388">
        <ele>21.7</ele>
        <time>2026-08-22T13:19:37Z</time>
      </trkpt>
      <trkpt lat="47.6505" lon="-2.75389">
        <ele>21.8</ele>
        <time>2026-08-22T13:19:38Z</time>
      </trkpt>
      <trkpt lat="47.65054" lon="-2.7539">
        <ele>21.9</ele>
        <time>2026-08-22T13:19:39Z</time>
      </trkpt>
      <trkpt lat="47.65059" lon="-2.75392">
        <ele>21.9</ele>
        <time>2026-08-22T13:19:40Z</time>
      </trkpt>
      <trkpt lat="47.65063" lon="-2.75394">
        <ele>21.9</ele>
        <time>2026-08-22T13:19:41Z</time>
      </trkpt>
      <trkpt lat="47.65067" lon="-2.75395">
        <ele>21.9</ele>
        <time>2026-08-22T13:19:42Z</time>
      </trkpt>
      <trkpt lat="47.65072" lon="-2.75396">
        <ele>21.9</ele>
        <time>2026-08-22T13:19:43Z</time>
      </trkpt>
      <trkpt lat="47.65076" lon="-2.75397">
        <ele>21.9</ele>
        <time>2026-08-22T13:19:44Z</time>
      </trkpt>
      <trkpt lat="47.65081" lon="-2.75398">
        <ele>22</ele>
        <time>2026-08-22T13:19:45Z</time>
      </trkpt>
      <trkpt lat="47.65085" lon="-2.754">
        <ele>22</ele>
        <time>2026-08-22T13:19:46Z</time>
      </trkpt>
      <trkpt lat="47.6509" lon="-2.75401">
        <ele>22.1</ele>
        <time>2026-08-22T13:19:47Z</time>
      </trkpt>
      <trkpt lat="47.65095" lon="-2.75403">
        <ele>22.2</ele>
        <time>2026-08-22T13:19:48Z</time>
      </trkpt>
      <trkpt lat="47.65099" lon="-2.75404">
        <ele>22.3</ele>
        <time>2026-08-22T13:19:49Z</time>
      </trkpt>
      <trkpt lat="47.65104" lon="-2.75406">
        <ele>22.3</ele>
        <time>2026-08-22T13:19:50Z</time>
      </trkpt>
      <trkpt lat="47.65108" lon="-2.75408">
        <ele>22.3</ele>
        <time>2026-08-22T13:19:51Z</time>
      </trkpt>
      <trkpt lat="47.65112" lon="-2.7541">
        <ele>22.3</ele>
        <time>2026-08-22T13:19:52Z</time>
      </trkpt>
      <trkpt lat="47.65116" lon="-2.75412">
        <ele>22.3</ele>
        <time>2026-08-22T13:19:53Z</time>
      </trkpt>
      <trkpt lat="47.6512" lon="-2.75414">
        <ele>22.4</ele>
        <time>2026-08-22T13:19:54Z</time>
      </trkpt>
      <trkpt lat="47.65124" lon="-2.75416">
        <ele>22.5</ele>
        <time>2026-08-22T13:19:55Z</time>
      </trkpt>
      <trkpt lat="47.65127" lon="-2.75418">
        <ele>22.5</ele>
        <time>2026-08-22T13:19:56Z</time>
      </trkpt>
      <trkpt lat="47.6513" lon="-2.7542">
        <ele>22.6</ele>
        <time>2026-08-22T13:19:57Z</time>
      </trkpt>
      <trkpt lat="47.65133" lon="-2.75422">
        <ele>22.6</ele>
        <time>2026-08-22T13:19:58Z</time>
      </trkpt>
      <trkpt lat="47.65136" lon="-2.75423">
        <ele>22.7</ele>
        <time>2026-08-22T13:19:59Z</time>
      </trkpt>
      <trkpt lat="47.65139" lon="-2.75424">
        <ele>22.7</ele>
        <time>2026-08-22T13:20:00Z</time>
      </trkpt>
      <trkpt lat="47.65142" lon="-2.75426">
        <ele>22.7</ele>
        <time>2026-08-22T13:20:01Z</time>
      </trkpt>
      <trkpt lat="47.65144" lon="-2.75428">
        <ele>22.7</ele>
        <time>2026-08-22T13:20:02Z</time>
      </trkpt>
      <trkpt lat="47.65147" lon="-2.7543">
        <ele>22.7</ele>
        <time>2026-08-22T13:20:03Z</time>
      </trkpt>
      <trkpt lat="47.65149" lon="-2.75435">
        <ele>22.6</ele>
        <time>2026-08-22T13:20:04Z</time>
      </trkpt>
      <trkpt lat="47.65149" lon="-2.75441">
        <ele>22.4</ele>
        <time>2026-08-22T13:20:05Z</time>
      </trkpt>
      <trkpt lat="47.65149" lon="-2.75447">
        <ele>22.2</ele>
        <time>2026-08-22T13:20:06Z</time>
      </trkpt>
      <trkpt lat="47.65149" lon="-2.75452">
        <ele>21.9</ele>
        <time>2026-08-22T13:20:07Z</time>
      </trkpt>
      <trkpt lat="47.65149" lon="-2.75458">
        <ele>21.6</ele>
        <time>2026-08-22T13:20:08Z</time>
      </trkpt>
      <trkpt lat="47.65148" lon="-2.75463">
        <ele>21.2</ele>
        <time>2026-08-22T13:20:09Z</time>
      </trkpt>
      <trkpt lat="47.65148" lon="-2.75469">
        <ele>20.8</ele>
        <time>2026-08-22T13:20:10Z</time>
      </trkpt>
      <trkpt lat="47.65148" lon="-2.75474">
        <ele>20.5</ele>
        <time>2026-08-22T13:20:11Z</time>
      </trkpt>
      <trkpt lat="47.65148" lon="-2.75479">
        <ele>20.1</ele>
        <time>2026-08-22T13:20:12Z</time>
      </trkpt>
      <trkpt lat="47.65147" lon="-2.75483">
        <ele>19.6</ele>
        <time>2026-08-22T13:20:13Z</time>
      </trkpt>
      <trkpt lat="47.65147" lon="-2.75486">
        <ele>19.4</ele>
        <time>2026-08-22T13:20:14Z</time>
      </trkpt>
      <trkpt lat="47.65147" lon="-2.7549">
        <ele>19</ele>
        <time>2026-08-22T13:20:15Z</time>
      </trkpt>
      <trkpt lat="47.65146" lon="-2.75493">
        <ele>18.7</ele>
        <time>2026-08-22T13:20:16Z</time>
      </trkpt>
      <trkpt lat="47.65146" lon="-2.75495">
        <ele>18.5</ele>
        <time>2026-08-22T13:20:17Z</time>
      </trkpt>
      <trkpt lat="47.65146" lon="-2.75499">
        <ele>18.1</ele>
        <time>2026-08-22T13:20:18Z</time>
      </trkpt>
      <trkpt lat="47.65146" lon="-2.75504">
        <ele>17.9</ele>
        <time>2026-08-22T13:20:19Z</time>
      </trkpt>
      <trkpt lat="47.65146" lon="-2.75509">
        <ele>17.7</ele>
        <time>2026-08-22T13:20:20Z</time>
      </trkpt>
      <trkpt lat="47.65145" lon="-2.75514">
        <ele>17.4</ele>
        <time>2026-08-22T13:20:21Z</time>
      </trkpt>
      <trkpt lat="47.65145" lon="-2.7552">
        <ele>17.2</ele>
        <time>2026-08-22T13:20:22Z</time>
      </trkpt>
      <trkpt lat="47.65145" lon="-2.75527">
        <ele>16.9</ele>
        <time>2026-08-22T13:20:23Z</time>
      </trkpt>
      <trkpt lat="47.65144" lon="-2.75533">
        <ele>16.4</ele>
        <time>2026-08-22T13:20:24Z</time>
      </trkpt>
      <trkpt lat="47.65144" lon="-2.7554">
        <ele>15.9</ele>
        <time>2026-08-22T13:20:25Z</time>
      </trkpt>
      <trkpt lat="47.65143" lon="-2.75547">
        <ele>15.3</ele>
        <time>2026-08-22T13:20:26Z</time>
      </trkpt>
      <trkpt lat="47.65143" lon="-2.75555">
        <ele>14.8</ele>
        <time>2026-08-22T13:20:27Z</time>
      </trkpt>
      <trkpt lat="47.65142" lon="-2.75562">
        <ele>14.1</ele>
        <time>2026-08-22T13:20:28Z</time>
      </trkpt>
      <trkpt lat="47.65142" lon="-2.75568">
        <ele>13.6</ele>
        <time>2026-08-22T13:20:29Z</time>
      </trkpt>
      <trkpt lat="47.65142" lon="-2.75575">
        <ele>13.1</ele>
        <time>2026-08-22T13:20:30Z</time>
      </trkpt>
      <trkpt lat="47.65141" lon="-2.75581">
        <ele>12.5</ele>
        <time>2026-08-22T13:20:31Z</time>
      </trkpt>
      <trkpt lat="47.65141" lon="-2.75587">
        <ele>12</ele>
        <time>2026-08-22T13:20:32Z</time>
      </trkpt>
      <trkpt lat="47.65141" lon="-2.75594">
        <ele>11.5</ele>
        <time>2026-08-22T13:20:33Z</time>
      </trkpt>
      <trkpt lat="47.6514" lon="-2.75601">
        <ele>10.8</ele>
        <time>2026-08-22T13:20:34Z</time>
      </trkpt>
      <trkpt lat="47.6514" lon="-2.75608">
        <ele>10.3</ele>
        <time>2026-08-22T13:20:35Z</time>
      </trkpt>
      <trkpt lat="47.65139" lon="-2.75613">
        <ele>9.9</ele>
        <time>2026-08-22T13:20:36Z</time>
      </trkpt>
      <trkpt lat="47.65139" lon="-2.75616">
        <ele>9.7</ele>
        <time>2026-08-22T13:20:37Z</time>
      </trkpt>
      <trkpt lat="47.65139" lon="-2.7562">
        <ele>9.4</ele>
        <time>2026-08-22T13:20:38Z</time>
      </trkpt>
      <trkpt lat="47.65139" lon="-2.75622">
        <ele>9.2</ele>
        <time>2026-08-22T13:20:39Z</time>
      </trkpt>
      <trkpt lat="47.65138" lon="-2.75625">
        <ele>9</ele>
        <time>2026-08-22T13:20:40Z</time>
      </trkpt>
      <trkpt lat="47.65137" lon="-2.75628">
        <ele>8.8</ele>
        <time>2026-08-22T13:20:41Z</time>
      </trkpt>
      <trkpt lat="47.65137" lon="-2.75631">
        <ele>8.6</ele>
        <time>2026-08-22T13:20:42Z</time>
      </trkpt>
      <trkpt lat="47.65137" lon="-2.75635">
        <ele>8.3</ele>
        <time>2026-08-22T13:20:43Z</time>
      </trkpt>
      <trkpt lat="47.65139" lon="-2.7564">
        <ele>7.9</ele>
        <time>2026-08-22T13:20:44Z</time>
      </trkpt>
      <trkpt lat="47.6514" lon="-2.75645">
        <ele>7.4</ele>
        <time>2026-08-22T13:20:45Z</time>
      </trkpt>
      <trkpt lat="47.65143" lon="-2.75652">
        <ele>6.8</ele>
        <time>2026-08-22T13:20:46Z</time>
      </trkpt>
      <trkpt lat="47.65145" lon="-2.75659">
        <ele>6</ele>
        <time>2026-08-22T13:20:47Z</time>
      </trkpt>
      <trkpt lat="47.65148" lon="-2.75667">
        <ele>5</ele>
        <time>2026-08-22T13:20:48Z</time>
      </trkpt>
      <trkpt lat="47.65151" lon="-2.75676">
        <ele>4.8</ele>
        <time>2026-08-22T13:20:49Z</time>
      </trkpt>
      <trkpt lat="47.65155" lon="-2.75685">
        <ele>4.7</ele>
        <time>2026-08-22T13:20:50Z</time>
      </trkpt>
      <trkpt lat="47.65159" lon="-2.75692">
        <ele>4.7</ele>
        <time>2026-08-22T13:20:51Z</time>
      </trkpt>
      <trkpt lat="47.65165" lon="-2.75698">
        <ele>4.8</ele>
        <time>2026-08-22T13:20:52Z</time>
      </trkpt>
      <trkpt lat="47.65171" lon="-2.75702">
        <ele>4.7</ele>
        <time>2026-08-22T13:20:53Z</time>
      </trkpt>
      <trkpt lat="47.65177" lon="-2.75705">
        <ele>4.6</ele>
        <time>2026-08-22T13:20:54Z</time>
      </trkpt>
      <trkpt lat="47.65184" lon="-2.75708">
        <ele>4.5</ele>
        <time>2026-08-22T13:20:55Z</time>
      </trkpt>
      <trkpt lat="47.6519" lon="-2.7571">
        <ele>4.4</ele>
        <time>2026-08-22T13:20:56Z</time>
      </trkpt>
      <trkpt lat="47.65196" lon="-2.75713">
        <ele>4.4</ele>
        <time>2026-08-22T13:20:57Z</time>
      </trkpt>
      <trkpt lat="47.65202" lon="-2.75716">
        <ele>4.3</ele>
        <time>2026-08-22T13:20:58Z</time>
      </trkpt>
      <trkpt lat="47.65208" lon="-2.75719">
        <ele>4.2</ele>
        <time>2026-08-22T13:20:59Z</time>
      </trkpt>
      <trkpt lat="47.65213" lon="-2.75721">
        <ele>4.1</ele>
        <time>2026-08-22T13:21:00Z</time>
      </trkpt>
      <trkpt lat="47.65219" lon="-2.75724">
        <ele>4</ele>
        <time>2026-08-22T13:21:01Z</time>
      </trkpt>
      <trkpt lat="47.65225" lon="-2.75726">
        <ele>4</ele>
        <time>2026-08-22T13:21:02Z</time>
      </trkpt>
      <trkpt lat="47.65231" lon="-2.75728">
        <ele>4</ele>
        <time>2026-08-22T13:21:03Z</time>
      </trkpt>
      <trkpt lat="47.65236" lon="-2.7573">
        <ele>4</ele>
        <time>2026-08-22T13:21:04Z</time>
      </trkpt>
      <trkpt lat="47.65242" lon="-2.75732">
        <ele>4</ele>
        <time>2026-08-22T13:21:05Z</time>
      </trkpt>
      <trkpt lat="47.65248" lon="-2.75733">
        <ele>4</ele>
        <time>2026-08-22T13:21:06Z</time>
      </trkpt>
      <trkpt lat="47.65253" lon="-2.75735">
        <ele>4.1</ele>
        <time>2026-08-22T13:21:07Z</time>
      </trkpt>
      <trkpt lat="47.65258" lon="-2.75738">
        <ele>4.1</ele>
        <time>2026-08-22T13:21:08Z</time>
      </trkpt>
      <trkpt lat="47.65263" lon="-2.7574">
        <ele>4.2</ele>
        <time>2026-08-22T13:21:09Z</time>
      </trkpt>
      <trkpt lat="47.65268" lon="-2.75742">
        <ele>4.2</ele>
        <time>2026-08-22T13:21:10Z</time>
      </trkpt>
      <trkpt lat="47.65272" lon="-2.75744">
        <ele>4.2</ele>
        <time>2026-08-22T13:21:11Z</time>
      </trkpt>
      <trkpt lat="47.65277" lon="-2.75746">
        <ele>4.1</ele>
        <time>2026-08-22T13:21:12Z</time>
      </trkpt>
      <trkpt lat="47.65282" lon="-2.75748">
        <ele>4.1</ele>
        <time>2026-08-22T13:21:13Z</time>
      </trkpt>
      <trkpt lat="47.65286" lon="-2.75749">
        <ele>4</ele>
        <time>2026-08-22T13:21:14Z</time>
      </trkpt>
      <trkpt lat="47.6529" lon="-2.75751">
        <ele>4</ele>
        <time>2026-08-22T13:21:15Z</time>
      </trkpt>
      <trkpt lat="47.65294" lon="-2.75752">
        <ele>3.9</ele>
        <time>2026-08-22T13:21:16Z</time>
      </trkpt>
      <trkpt lat="47.65298" lon="-2.75754">
        <ele>3.9</ele>
        <time>2026-08-22T13:21:17Z</time>
      </trkpt>
      <trkpt lat="47.65302" lon="-2.75756">
        <ele>3.8</ele>
        <time>2026-08-22T13:21:18Z</time>
      </trkpt>
      <trkpt lat="47.65306" lon="-2.75757">
        <ele>3.8</ele>
        <time>2026-08-22T13:21:19Z</time>
      </trkpt>
      <trkpt lat="47.65309" lon="-2.75758">
        <ele>3.8</ele>
        <time>2026-08-22T13:21:20Z</time>
      </trkpt>
      <trkpt lat="47.65313" lon="-2.75759">
        <ele>3.9</ele>
        <time>2026-08-22T13:21:21Z</time>
      </trkpt>
      <trkpt lat="47.65317" lon="-2.75761">
        <ele>3.9</ele>
        <time>2026-08-22T13:21:22Z</time>
      </trkpt>
      <trkpt lat="47.6532" lon="-2.75762">
        <ele>3.9</ele>
        <time>2026-08-22T13:21:23Z</time>
      </trkpt>
      <trkpt lat="47.65324" lon="-2.75763">
        <ele>3.9</ele>
        <time>2026-08-22T13:21:24Z</time>
      </trkpt>
      <trkpt lat="47.65328" lon="-2.75764">
        <ele>3.9</ele>
        <time>2026-08-22T13:21:25Z</time>
      </trkpt>
      <trkpt lat="47.65332" lon="-2.75766">
        <ele>3.8</ele>
        <time>2026-08-22T13:21:26Z</time>
      </trkpt>
      <trkpt lat="47.65336" lon="-2.75767">
        <ele>3.7</ele>
        <time>2026-08-22T13:21:27Z</time>
      </trkpt>
      <trkpt lat="47.65339" lon="-2.75767">
        <ele>3.7</ele>
        <time>2026-08-22T13:21:28Z</time>
      </trkpt>
      <trkpt lat="47.65343" lon="-2.75768">
        <ele>3.6</ele>
        <time>2026-08-22T13:21:29Z</time>
      </trkpt>
      <trkpt lat="47.65346" lon="-2.75768">
        <ele>3.5</ele>
        <time>2026-08-22T13:21:30Z</time>
      </trkpt>
      <trkpt lat="47.6535" lon="-2.75768">
        <ele>3.5</ele>
        <time>2026-08-22T13:21:31Z</time>
      </trkpt>
      <trkpt lat="47.65353" lon="-2.75768">
        <ele>3.5</ele>
        <time>2026-08-22T13:21:32Z</time>
      </trkpt>
      <trkpt lat="47.65357" lon="-2.75768">
        <ele>3.4</ele>
        <time>2026-08-22T13:21:33Z</time>
      </trkpt>
      <trkpt lat="47.6536" lon="-2.75768">
        <ele>3.4</ele>
        <time>2026-08-22T13:21:34Z</time>
      </trkpt>
      <trkpt lat="47.65363" lon="-2.75768">
        <ele>3.4</ele>
        <time>2026-08-22T13:21:35Z</time>
      </trkpt>
      <trkpt lat="47.65366" lon="-2.75769">
        <ele>3.4</ele>
        <time>2026-08-22T13:21:36Z</time>
      </trkpt>
      <trkpt lat="47.65369" lon="-2.75769">
        <ele>3.4</ele>
        <time>2026-08-22T13:21:37Z</time>
      </trkpt>
      <trkpt lat="47.65372" lon="-2.75769">
        <ele>3.4</ele>
        <time>2026-08-22T13:21:38Z</time>
      </trkpt>
      <trkpt lat="47.65375" lon="-2.7577">
        <ele>3.4</ele>
        <time>2026-08-22T13:21:39Z</time>
      </trkpt>
      <trkpt lat="47.65378" lon="-2.7577">
        <ele>3.5</ele>
        <time>2026-08-22T13:21:40Z</time>
      </trkpt>
      <trkpt lat="47.6538" lon="-2.7577">
        <ele>3.5</ele>
        <time>2026-08-22T13:21:41Z</time>
      </trkpt>
      <trkpt lat="47.65382" lon="-2.7577">
        <ele>3.5</ele>
        <time>2026-08-22T13:21:42Z</time>
      </trkpt>
      <trkpt lat="47.65384" lon="-2.75771">
        <ele>3.4</ele>
        <time>2026-08-22T13:21:43Z</time>
      </trkpt>
      <trkpt lat="47.65385" lon="-2.75771">
        <ele>3.5</ele>
        <time>2026-08-22T13:21:44Z</time>
      </trkpt>
      <trkpt lat="47.65385" lon="-2.75771">
        <ele>3.5</ele>
        <time>2026-08-22T13:21:45Z</time>
      </trkpt>
      <trkpt lat="47.65385" lon="-2.75771">
        <ele>3.5</ele>
        <time>2026-08-22T13:21:46Z</time>
      </trkpt>
      <trkpt lat="47.6539" lon="-2.75771">
        <ele>3.5</ele>
        <time>2026-08-22T13:22:24Z</time>
      </trkpt>
      <trkpt lat="47.65392" lon="-2.75771">
        <ele>3.6</ele>
        <time>2026-08-22T13:22:25Z</time>
      </trkpt>
      <trkpt lat="47.65396" lon="-2.75771">
        <ele>3.7</ele>
        <time>2026-08-22T13:22:26Z</time>
      </trkpt>
      <trkpt lat="47.65399" lon="-2.75772">
        <ele>3.7</ele>
        <time>2026-08-22T13:22:27Z</time>
      </trkpt>
      <trkpt lat="47.65402" lon="-2.75772">
        <ele>3.8</ele>
        <time>2026-08-22T13:22:28Z</time>
      </trkpt>
      <trkpt lat="47.65405" lon="-2.75773">
        <ele>3.8</ele>
        <time>2026-08-22T13:22:29Z</time>
      </trkpt>
      <trkpt lat="47.65408" lon="-2.75774">
        <ele>3.9</ele>
        <time>2026-08-22T13:22:30Z</time>
      </trkpt>
      <trkpt lat="47.65411" lon="-2.75774">
        <ele>4</ele>
        <time>2026-08-22T13:22:31Z</time>
      </trkpt>
      <trkpt lat="47.65414" lon="-2.75776">
        <ele>4</ele>
        <time>2026-08-22T13:22:32Z</time>
      </trkpt>
      <trkpt lat="47.65417" lon="-2.75776">
        <ele>4.1</ele>
        <time>2026-08-22T13:22:33Z</time>
      </trkpt>
      <trkpt lat="47.65419" lon="-2.75777">
        <ele>4</ele>
        <time>2026-08-22T13:22:34Z</time>
      </trkpt>
      <trkpt lat="47.65421" lon="-2.75778">
        <ele>4</ele>
        <time>2026-08-22T13:22:35Z</time>
      </trkpt>
      <trkpt lat="47.65422" lon="-2.75779">
        <ele>4</ele>
        <time>2026-08-22T13:22:36Z</time>
      </trkpt>
      <trkpt lat="47.65423" lon="-2.75781">
        <ele>4</ele>
        <time>2026-08-22T13:22:37Z</time>
      </trkpt>
      <trkpt lat="47.65424" lon="-2.75783">
        <ele>4</ele>
        <time>2026-08-22T13:22:38Z</time>
      </trkpt>
      <trkpt lat="47.65424" lon="-2.75785">
        <ele>4</ele>
        <time>2026-08-22T13:22:39Z</time>
      </trkpt>
      <trkpt lat="47.65425" lon="-2.75787">
        <ele>4</ele>
        <time>2026-08-22T13:22:40Z</time>
      </trkpt>
      <trkpt lat="47.65425" lon="-2.75788">
        <ele>4</ele>
        <time>2026-08-22T13:22:41Z</time>
      </trkpt>
      <trkpt lat="47.65425" lon="-2.75788">
        <ele>4</ele>
        <time>2026-08-22T13:22:42Z</time>
      </trkpt>
      <trkpt lat="47.65424" lon="-2.75795">
        <ele>4</ele>
        <time>2026-08-22T13:22:48Z</time>
      </trkpt>
      <trkpt lat="47.65424" lon="-2.75799">
        <ele>4</ele>
        <time>2026-08-22T13:22:49Z</time>
      </trkpt>
      <trkpt lat="47.65424" lon="-2.75802">
        <ele>4</ele>
        <time>2026-08-22T13:22:50Z</time>
      </trkpt>
      <trkpt lat="47.65423" lon="-2.75806">
        <ele>4</ele>
        <time>2026-08-22T13:22:51Z</time>
      </trkpt>
      <trkpt lat="47.65423" lon="-2.75811">
        <ele>4</ele>
        <time>2026-08-22T13:22:52Z</time>
      </trkpt>
      <trkpt lat="47.65423" lon="-2.75816">
        <ele>4</ele>
        <time>2026-08-22T13:22:53Z</time>
      </trkpt>
      <trkpt lat="47.65423" lon="-2.75821">
        <ele>4</ele>
        <time>2026-08-22T13:22:54Z</time>
      </trkpt>
      <trkpt lat="47.65423" lon="-2.75827">
        <ele>4</ele>
        <time>2026-08-22T13:22:55Z</time>
      </trkpt>
      <trkpt lat="47.65422" lon="-2.75832">
        <ele>4</ele>
        <time>2026-08-22T13:22:56Z</time>
      </trkpt>
      <trkpt lat="47.65421" lon="-2.75837">
        <ele>3.9</ele>
        <time>2026-08-22T13:22:57Z</time>
      </trkpt>
      <trkpt lat="47.65419" lon="-2.75843">
        <ele>3.7</ele>
        <time>2026-08-22T13:22:58Z</time>
      </trkpt>
      <trkpt lat="47.65417" lon="-2.75848">
        <ele>3.5</ele>
        <time>2026-08-22T13:22:59Z</time>
      </trkpt>
      <trkpt lat="47.65415" lon="-2.75853">
        <ele>3.2</ele>
        <time>2026-08-22T13:23:00Z</time>
      </trkpt>
      <trkpt lat="47.65412" lon="-2.75858">
        <ele>3.1</ele>
        <time>2026-08-22T13:23:01Z</time>
      </trkpt>
      <trkpt lat="47.65409" lon="-2.75862">
        <ele>3</ele>
        <time>2026-08-22T13:23:02Z</time>
      </trkpt>
      <trkpt lat="47.65406" lon="-2.75867">
        <ele>3</ele>
        <time>2026-08-22T13:23:03Z</time>
      </trkpt>
      <trkpt lat="47.65403" lon="-2.75871">
        <ele>3</ele>
        <time>2026-08-22T13:23:04Z</time>
      </trkpt>
      <trkpt lat="47.65399" lon="-2.75875">
        <ele>3</ele>
        <time>2026-08-22T13:23:05Z</time>
      </trkpt>
      <trkpt lat="47.65396" lon="-2.7588">
        <ele>3</ele>
        <time>2026-08-22T13:23:06Z</time>
      </trkpt>
      <trkpt lat="47.65393" lon="-2.75884">
        <ele>3</ele>
        <time>2026-08-22T13:23:07Z</time>
      </trkpt>
      <trkpt lat="47.65389" lon="-2.75888">
        <ele>3</ele>
        <time>2026-08-22T13:23:08Z</time>
      </trkpt>
      <trkpt lat="47.65386" lon="-2.75891">
        <ele>3.1</ele>
        <time>2026-08-22T13:23:09Z</time>
      </trkpt>
      <trkpt lat="47.65383" lon="-2.75895">
        <ele>3.2</ele>
        <time>2026-08-22T13:23:10Z</time>
      </trkpt>
      <trkpt lat="47.6538" lon="-2.75898">
        <ele>3.3</ele>
        <time>2026-08-22T13:23:11Z</time>
      </trkpt>
      <trkpt lat="47.65378" lon="-2.75902">
        <ele>3.4</ele>
        <time>2026-08-22T13:23:12Z</time>
      </trkpt>
      <trkpt lat="47.65375" lon="-2.75905">
        <ele>3.5</ele>
        <time>2026-08-22T13:23:13Z</time>
      </trkpt>
      <trkpt lat="47.65372" lon="-2.75909">
        <ele>3.6</ele>
        <time>2026-08-22T13:23:14Z</time>
      </trkpt>
      <trkpt lat="47.65369" lon="-2.75914">
        <ele>3.7</ele>
        <time>2026-08-22T13:23:15Z</time>
      </trkpt>
      <trkpt lat="47.65367" lon="-2.75919">
        <ele>3.8</ele>
        <time>2026-08-22T13:23:16Z</time>
      </trkpt>
      <trkpt lat="47.65366" lon="-2.75924">
        <ele>3.8</ele>
        <time>2026-08-22T13:23:17Z</time>
      </trkpt>
      <trkpt lat="47.65365" lon="-2.75929">
        <ele>3.9</ele>
        <time>2026-08-22T13:23:18Z</time>
      </trkpt>
      <trkpt lat="47.65364" lon="-2.75934">
        <ele>3.9</ele>
        <time>2026-08-22T13:23:19Z</time>
      </trkpt>
      <trkpt lat="47.65363" lon="-2.75938">
        <ele>3.9</ele>
        <time>2026-08-22T13:23:20Z</time>
      </trkpt>
      <trkpt lat="47.65361" lon="-2.75941">
        <ele>4</ele>
        <time>2026-08-22T13:23:21Z</time>
      </trkpt>
      <trkpt lat="47.65359" lon="-2.75943">
        <ele>4</ele>
        <time>2026-08-22T13:23:22Z</time>
      </trkpt>
      <trkpt lat="47.65356" lon="-2.75944">
        <ele>4</ele>
        <time>2026-08-22T13:23:23Z</time>
      </trkpt>
      <trkpt lat="47.65353" lon="-2.75942">
        <ele>4</ele>
        <time>2026-08-22T13:23:24Z</time>
      </trkpt>
      <trkpt lat="47.65351" lon="-2.75939">
        <ele>4</ele>
        <time>2026-08-22T13:23:25Z</time>
      </trkpt>
      <trkpt lat="47.6535" lon="-2.75936">
        <ele>4</ele>
        <time>2026-08-22T13:23:26Z</time>
      </trkpt>
      <trkpt lat="47.65349" lon="-2.75932">
        <ele>4</ele>
        <time>2026-08-22T13:23:27Z</time>
      </trkpt>
      <trkpt lat="47.65349" lon="-2.75928">
        <ele>4</ele>
        <time>2026-08-22T13:23:28Z</time>
      </trkpt>
      <trkpt lat="47.65349" lon="-2.75923">
        <ele>4</ele>
        <time>2026-08-22T13:23:29Z</time>
      </trkpt>
      <trkpt lat="47.65348" lon="-2.75919">
        <ele>4</ele>
        <time>2026-08-22T13:23:30Z</time>
      </trkpt>
      <trkpt lat="47.65346" lon="-2.75916">
        <ele>4</ele>
        <time>2026-08-22T13:23:31Z</time>
      </trkpt>
      <trkpt lat="47.65345" lon="-2.75914">
        <ele>4</ele>
        <time>2026-08-22T13:23:32Z</time>
      </trkpt>
      <trkpt lat="47.65344" lon="-2.75913">
        <ele>4</ele>
        <time>2026-08-22T13:23:33Z</time>
      </trkpt>
      <trkpt lat="47.65342" lon="-2.75913">
        <ele>4</ele>
        <time>2026-08-22T13:23:34Z</time>
      </trkpt>
      <trkpt lat="47.6534" lon="-2.75912">
        <ele>4</ele>
        <time>2026-08-22T13:23:35Z</time>
      </trkpt>
      <trkpt lat="47.65339" lon="-2.75912">
        <ele>4</ele>
        <time>2026-08-22T13:23:36Z</time>
      </trkpt>
      <trkpt lat="47.65338" lon="-2.75912">
        <ele>4</ele>
        <time>2026-08-22T13:23:37Z</time>
      </trkpt>
      <trkpt lat="47.65336" lon="-2.75912">
        <ele>4</ele>
        <time>2026-08-22T13:23:38Z</time>
      </trkpt>
      <trkpt lat="47.65335" lon="-2.75911">
        <ele>4</ele>
        <time>2026-08-22T13:23:39Z</time>
      </trkpt>
      <trkpt lat="47.65333" lon="-2.7591">
        <ele>4</ele>
        <time>2026-08-22T13:23:40Z</time>
      </trkpt>
      <trkpt lat="47.65332" lon="-2.75908">
        <ele>4</ele>
        <time>2026-08-22T13:23:41Z</time>
      </trkpt>
      <trkpt lat="47.65331" lon="-2.75908">
        <ele>3.9</ele>
        <time>2026-08-22T13:23:42Z</time>
      </trkpt>
      <trkpt lat="47.6533" lon="-2.75907">
        <ele>3.9</ele>
        <time>2026-08-22T13:23:43Z</time>
      </trkpt>
      <trkpt lat="47.65329" lon="-2.75905">
        <ele>3.9</ele>
        <time>2026-08-22T13:23:44Z</time>
      </trkpt>
      <trkpt lat="47.65327" lon="-2.75902">
        <ele>3.9</ele>
        <time>2026-08-22T13:23:45Z</time>
      </trkpt>
      <trkpt lat="47.65326" lon="-2.759">
        <ele>3.9</ele>
        <time>2026-08-22T13:23:46Z</time>
      </trkpt>
      <trkpt lat="47.65324" lon="-2.75898">
        <ele>3.9</ele>
        <time>2026-08-22T13:23:47Z</time>
      </trkpt>
      <trkpt lat="47.65321" lon="-2.75899">
        <ele>3.8</ele>
        <time>2026-08-22T13:23:48Z</time>
      </trkpt>
      <trkpt lat="47.65318" lon="-2.759">
        <ele>3.8</ele>
        <time>2026-08-22T13:23:49Z</time>
      </trkpt>
      <trkpt lat="47.65316" lon="-2.759">
        <ele>3.8</ele>
        <time>2026-08-22T13:23:50Z</time>
      </trkpt>
      <trkpt lat="47.65312" lon="-2.759">
        <ele>3.7</ele>
        <time>2026-08-22T13:23:51Z</time>
      </trkpt>
      <trkpt lat="47.65309" lon="-2.759">
        <ele>3.6</ele>
        <time>2026-08-22T13:23:52Z</time>
      </trkpt>
      <trkpt lat="47.65306" lon="-2.759">
        <ele>3.6</ele>
        <time>2026-08-22T13:23:53Z</time>
      </trkpt>
      <trkpt lat="47.65302" lon="-2.75899">
        <ele>3.6</ele>
        <time>2026-08-22T13:23:54Z</time>
      </trkpt>
      <trkpt lat="47.65298" lon="-2.75899">
        <ele>3.6</ele>
        <time>2026-08-22T13:23:55Z</time>
      </trkpt>
      <trkpt lat="47.65295" lon="-2.75899">
        <ele>3.6</ele>
        <time>2026-08-22T13:23:56Z</time>
      </trkpt>
      <trkpt lat="47.65292" lon="-2.75899">
        <ele>3.6</ele>
        <time>2026-08-22T13:23:57Z</time>
      </trkpt>
      <trkpt lat="47.65289" lon="-2.75899">
        <ele>3.6</ele>
        <time>2026-08-22T13:23:58Z</time>
      </trkpt>
      <trkpt lat="47.65286" lon="-2.75899">
        <ele>3.6</ele>
        <time>2026-08-22T13:23:59Z</time>
      </trkpt>
      <trkpt lat="47.65283" lon="-2.75899">
        <ele>3.6</ele>
        <time>2026-08-22T13:24:00Z</time>
      </trkpt>
      <trkpt lat="47.65281" lon="-2.75899">
        <ele>3.6</ele>
        <time>2026-08-22T13:24:01Z</time>
      </trkpt>
      <trkpt lat="47.6528" lon="-2.75899">
        <ele>3.6</ele>
        <time>2026-08-22T13:24:02Z</time>
      </trkpt>
      <trkpt lat="47.65279" lon="-2.75898">
        <ele>3.7</ele>
        <time>2026-08-22T13:24:03Z</time>
      </trkpt>
      <trkpt lat="47.65278" lon="-2.75897">
        <ele>3.7</ele>
        <time>2026-08-22T13:24:04Z</time>
      </trkpt>
      <trkpt lat="47.65278" lon="-2.75896">
        <ele>3.7</ele>
        <time>2026-08-22T13:24:05Z</time>
      </trkpt>
      <trkpt lat="47.65279" lon="-2.75893">
        <ele>3.9</ele>
        <time>2026-08-22T13:24:06Z</time>
      </trkpt>
      <trkpt lat="47.65281" lon="-2.75891">
        <ele>3.9</ele>
        <time>2026-08-22T13:24:07Z</time>
      </trkpt>
      <trkpt lat="47.65283" lon="-2.7589">
        <ele>4</ele>
        <time>2026-08-22T13:24:08Z</time>
      </trkpt>
      <trkpt lat="47.65285" lon="-2.75889">
        <ele>4</ele>
        <time>2026-08-22T13:24:09Z</time>
      </trkpt>
      <trkpt lat="47.65288" lon="-2.75888">
        <ele>4</ele>
        <time>2026-08-22T13:24:10Z</time>
      </trkpt>
      <trkpt lat="47.6529" lon="-2.75889">
        <ele>4</ele>
        <time>2026-08-22T13:24:11Z</time>
      </trkpt>
      <trkpt lat="47.65292" lon="-2.75889">
        <ele>4</ele>
        <time>2026-08-22T13:24:12Z</time>
      </trkpt>
      <trkpt lat="47.65295" lon="-2.75888">
        <ele>4</ele>
        <time>2026-08-22T13:24:13Z</time>
      </trkpt>
      <trkpt lat="47.65296" lon="-2.75886">
        <ele>4</ele>
        <time>2026-08-22T13:24:14Z</time>
      </trkpt>
      <trkpt lat="47.65298" lon="-2.75884">
        <ele>4</ele>
        <time>2026-08-22T13:24:15Z</time>
      </trkpt>
      <trkpt lat="47.65299" lon="-2.75882">
        <ele>4</ele>
        <time>2026-08-22T13:24:16Z</time>
      </trkpt>
      <trkpt lat="47.653" lon="-2.7588">
        <ele>4</ele>
        <time>2026-08-22T13:24:17Z</time>
      </trkpt>
      <trkpt lat="47.65301" lon="-2.75879">
        <ele>4</ele>
        <time>2026-08-22T13:24:18Z</time>
      </trkpt>
      <trkpt lat="47.65301" lon="-2.75879">
        <ele>4</ele>
        <time>2026-08-22T13:24:19Z</time>
      </trkpt>
      <trkpt lat="47.65301" lon="-2.75879">
        <ele>4</ele>
        <time>2026-08-22T13:24:20Z</time>
      </trkpt>
      <trkpt lat="47.65303" lon="-2.75885">
        <ele>4</ele>
        <time>2026-08-22T13:24:59Z</time>
      </trkpt>
      <trkpt lat="47.65302" lon="-2.75886">
        <ele>4</ele>
        <time>2026-08-22T13:25:00Z</time>
      </trkpt>
      <trkpt lat="47.65301" lon="-2.75886">
        <ele>4</ele>
        <time>2026-08-22T13:25:01Z</time>
      </trkpt>
      <trkpt lat="47.653" lon="-2.75886">
        <ele>4</ele>
        <time>2026-08-22T13:25:02Z</time>
      </trkpt>
      <trkpt lat="47.653" lon="-2.75886">
        <ele>4</ele>
        <time>2026-08-22T13:25:03Z</time>
      </trkpt>
      <trkpt lat="47.65297" lon="-2.75888">
        <ele>4</ele>
        <time>2026-08-22T13:25:10Z</time>
      </trkpt>
      <trkpt lat="47.65295" lon="-2.75888">
        <ele>4</ele>
        <time>2026-08-22T13:25:11Z</time>
      </trkpt>
      <trkpt lat="47.65293" lon="-2.75888">
        <ele>4</ele>
        <time>2026-08-22T13:25:12Z</time>
      </trkpt>
      <trkpt lat="47.6529" lon="-2.75888">
        <ele>4</ele>
        <time>2026-08-22T13:25:13Z</time>
      </trkpt>
      <trkpt lat="47.65288" lon="-2.75888">
        <ele>4</ele>
        <time>2026-08-22T13:25:14Z</time>
      </trkpt>
      <trkpt lat="47.65285" lon="-2.75888">
        <ele>4</ele>
        <time>2026-08-22T13:25:15Z</time>
      </trkpt>
      <trkpt lat="47.65283" lon="-2.75888">
        <ele>4</ele>
        <time>2026-08-22T13:25:16Z</time>
      </trkpt>
      <trkpt lat="47.65281" lon="-2.7589">
        <ele>4</ele>
        <time>2026-08-22T13:25:17Z</time>
      </trkpt>
      <trkpt lat="47.65279" lon="-2.75892">
        <ele>3.9</ele>
        <time>2026-08-22T13:25:18Z</time>
      </trkpt>
      <trkpt lat="47.65277" lon="-2.75893">
        <ele>3.9</ele>
        <time>2026-08-22T13:25:19Z</time>
      </trkpt>
      <trkpt lat="47.65275" lon="-2.75895">
        <ele>3.8</ele>
        <time>2026-08-22T13:25:20Z</time>
      </trkpt>
      <trkpt lat="47.65273" lon="-2.75897">
        <ele>3.7</ele>
        <time>2026-08-22T13:25:21Z</time>
      </trkpt>
      <trkpt lat="47.65271" lon="-2.75898">
        <ele>3.7</ele>
        <time>2026-08-22T13:25:22Z</time>
      </trkpt>
      <trkpt lat="47.65269" lon="-2.75898">
        <ele>3.7</ele>
        <time>2026-08-22T13:25:23Z</time>
      </trkpt>
      <trkpt lat="47.65266" lon="-2.75899">
        <ele>3.6</ele>
        <time>2026-08-22T13:25:24Z</time>
      </trkpt>
      <trkpt lat="47.65264" lon="-2.75899">
        <ele>3.6</ele>
        <time>2026-08-22T13:25:25Z</time>
      </trkpt>
      <trkpt lat="47.65262" lon="-2.75899">
        <ele>3.6</ele>
        <time>2026-08-22T13:25:26Z</time>
      </trkpt>
      <trkpt lat="47.65259" lon="-2.75898">
        <ele>3.7</ele>
        <time>2026-08-22T13:25:27Z</time>
      </trkpt>
      <trkpt lat="47.65256" lon="-2.75898">
        <ele>3.7</ele>
        <time>2026-08-22T13:25:28Z</time>
      </trkpt>
      <trkpt lat="47.65253" lon="-2.75896">
        <ele>3.7</ele>
        <time>2026-08-22T13:25:29Z</time>
      </trkpt>
      <trkpt lat="47.6525" lon="-2.75894">
        <ele>3.8</ele>
        <time>2026-08-22T13:25:30Z</time>
      </trkpt>
      <trkpt lat="47.65248" lon="-2.75892">
        <ele>3.8</ele>
        <time>2026-08-22T13:25:31Z</time>
      </trkpt>
      <trkpt lat="47.65244" lon="-2.7589">
        <ele>3.8</ele>
        <time>2026-08-22T13:25:32Z</time>
      </trkpt>
      <trkpt lat="47.65241" lon="-2.7589">
        <ele>3.6</ele>
        <time>2026-08-22T13:25:33Z</time>
      </trkpt>
      <trkpt lat="47.65237" lon="-2.7589">
        <ele>3.5</ele>
        <time>2026-08-22T13:25:34Z</time>
      </trkpt>
      <trkpt lat="47.65234" lon="-2.7589">
        <ele>3.4</ele>
        <time>2026-08-22T13:25:35Z</time>
      </trkpt>
      <trkpt lat="47.6523" lon="-2.75891">
        <ele>3.3</ele>
        <time>2026-08-22T13:25:36Z</time>
      </trkpt>
      <trkpt lat="47.65226" lon="-2.75893">
        <ele>3.1</ele>
        <time>2026-08-22T13:25:37Z</time>
      </trkpt>
      <trkpt lat="47.65222" lon="-2.75895">
        <ele>3</ele>
        <time>2026-08-22T13:25:38Z</time>
      </trkpt>
      <trkpt lat="47.65218" lon="-2.75896">
        <ele>3</ele>
        <time>2026-08-22T13:25:39Z</time>
      </trkpt>
      <trkpt lat="47.65215" lon="-2.75897">
        <ele>3</ele>
        <time>2026-08-22T13:25:40Z</time>
      </trkpt>
      <trkpt lat="47.65211" lon="-2.75898">
        <ele>3</ele>
        <time>2026-08-22T13:25:41Z</time>
      </trkpt>
      <trkpt lat="47.65208" lon="-2.75898">
        <ele>3</ele>
        <time>2026-08-22T13:25:42Z</time>
      </trkpt>
      <trkpt lat="47.65205" lon="-2.75897">
        <ele>3</ele>
        <time>2026-08-22T13:25:43Z</time>
      </trkpt>
      <trkpt lat="47.65202" lon="-2.75897">
        <ele>3</ele>
        <time>2026-08-22T13:25:44Z</time>
      </trkpt>
      <trkpt lat="47.65199" lon="-2.75897">
        <ele>3</ele>
        <time>2026-08-22T13:25:45Z</time>
      </trkpt>
      <trkpt lat="47.65196" lon="-2.75898">
        <ele>3</ele>
        <time>2026-08-22T13:25:46Z</time>
      </trkpt>
      <trkpt lat="47.65192" lon="-2.75898">
        <ele>3</ele>
        <time>2026-08-22T13:25:47Z</time>
      </trkpt>
      <trkpt lat="47.65189" lon="-2.75897">
        <ele>3.1</ele>
        <time>2026-08-22T13:25:48Z</time>
      </trkpt>
      <trkpt lat="47.65185" lon="-2.75897">
        <ele>3.1</ele>
        <time>2026-08-22T13:25:49Z</time>
      </trkpt>
      <trkpt lat="47.65181" lon="-2.75896">
        <ele>3.1</ele>
        <time>2026-08-22T13:25:50Z</time>
      </trkpt>
      <trkpt lat="47.65178" lon="-2.75896">
        <ele>3.2</ele>
        <time>2026-08-22T13:25:51Z</time>
      </trkpt>
      <trkpt lat="47.65174" lon="-2.75895">
        <ele>3.2</ele>
        <time>2026-08-22T13:25:52Z</time>
      </trkpt>
      <trkpt lat="47.65171" lon="-2.75895">
        <ele>3.2</ele>
        <time>2026-08-22T13:25:53Z</time>
      </trkpt>
      <trkpt lat="47.65168" lon="-2.75894">
        <ele>3.2</ele>
        <time>2026-08-22T13:25:54Z</time>
      </trkpt>
      <trkpt lat="47.65165" lon="-2.75894">
        <ele>3.2</ele>
        <time>2026-08-22T13:25:55Z</time>
      </trkpt>
      <trkpt lat="47.65162" lon="-2.75894">
        <ele>3.2</ele>
        <time>2026-08-22T13:25:56Z</time>
      </trkpt>
      <trkpt lat="47.65159" lon="-2.75894">
        <ele>3.2</ele>
        <time>2026-08-22T13:25:57Z</time>
      </trkpt>
      <trkpt lat="47.65156" lon="-2.75893">
        <ele>3.1</ele>
        <time>2026-08-22T13:25:58Z</time>
      </trkpt>
      <trkpt lat="47.65152" lon="-2.75893">
        <ele>3.1</ele>
        <time>2026-08-22T13:25:59Z</time>
      </trkpt>
      <trkpt lat="47.65148" lon="-2.75893">
        <ele>3.1</ele>
        <time>2026-08-22T13:26:00Z</time>
      </trkpt>
      <trkpt lat="47.65144" lon="-2.75893">
        <ele>3.1</ele>
        <time>2026-08-22T13:26:01Z</time>
      </trkpt>
      <trkpt lat="47.6514" lon="-2.75893">
        <ele>3.1</ele>
        <time>2026-08-22T13:26:02Z</time>
      </trkpt>
      <trkpt lat="47.65137" lon="-2.75892">
        <ele>3.1</ele>
        <time>2026-08-22T13:26:03Z</time>
      </trkpt>
      <trkpt lat="47.65133" lon="-2.75892">
        <ele>3.1</ele>
        <time>2026-08-22T13:26:04Z</time>
      </trkpt>
      <trkpt lat="47.65129" lon="-2.75891">
        <ele>3</ele>
        <time>2026-08-22T13:26:05Z</time>
      </trkpt>
      <trkpt lat="47.65125" lon="-2.75891">
        <ele>3</ele>
        <time>2026-08-22T13:26:06Z</time>
      </trkpt>
      <trkpt lat="47.65121" lon="-2.7589">
        <ele>3</ele>
        <time>2026-08-22T13:26:07Z</time>
      </trkpt>
      <trkpt lat="47.65117" lon="-2.75889">
        <ele>3</ele>
        <time>2026-08-22T13:26:08Z</time>
      </trkpt>
      <trkpt lat="47.65113" lon="-2.75887">
        <ele>3</ele>
        <time>2026-08-22T13:26:09Z</time>
      </trkpt>
      <trkpt lat="47.65109" lon="-2.75886">
        <ele>3</ele>
        <time>2026-08-22T13:26:10Z</time>
      </trkpt>
      <trkpt lat="47.65104" lon="-2.75885">
        <ele>3</ele>
        <time>2026-08-22T13:26:11Z</time>
      </trkpt>
      <trkpt lat="47.651" lon="-2.75884">
        <ele>3</ele>
        <time>2026-08-22T13:26:12Z</time>
      </trkpt>
      <trkpt lat="47.65096" lon="-2.75883">
        <ele>3</ele>
        <time>2026-08-22T13:26:13Z</time>
      </trkpt>
      <trkpt lat="47.65092" lon="-2.75882">
        <ele>3</ele>
        <time>2026-08-22T13:26:14Z</time>
      </trkpt>
      <trkpt lat="47.65088" lon="-2.75881">
        <ele>3</ele>
        <time>2026-08-22T13:26:15Z</time>
      </trkpt>
      <trkpt lat="47.65085" lon="-2.7588">
        <ele>3</ele>
        <time>2026-08-22T13:26:16Z</time>
      </trkpt>
      <trkpt lat="47.65081" lon="-2.7588">
        <ele>3</ele>
        <time>2026-08-22T13:26:17Z</time>
      </trkpt>
      <trkpt lat="47.65077" lon="-2.7588">
        <ele>3</ele>
        <time>2026-08-22T13:26:18Z</time>
      </trkpt>
      <trkpt lat="47.65074" lon="-2.75879">
        <ele>3</ele>
        <time>2026-08-22T13:26:19Z</time>
      </trkpt>
      <trkpt lat="47.6507" lon="-2.75879">
        <ele>3</ele>
        <time>2026-08-22T13:26:20Z</time>
      </trkpt>
      <trkpt lat="47.65066" lon="-2.75878">
        <ele>3</ele>
        <time>2026-08-22T13:26:21Z</time>
      </trkpt>
      <trkpt lat="47.65062" lon="-2.75877">
        <ele>3</ele>
        <time>2026-08-22T13:26:22Z</time>
      </trkpt>
      <trkpt lat="47.65058" lon="-2.75876">
        <ele>3</ele>
        <time>2026-08-22T13:26:23Z</time>
      </trkpt>
      <trkpt lat="47.65055" lon="-2.75874">
        <ele>3</ele>
        <time>2026-08-22T13:26:24Z</time>
      </trkpt>
      <trkpt lat="47.65051" lon="-2.75871">
        <ele>3.1</ele>
        <time>2026-08-22T13:26:25Z</time>
      </trkpt>
      <trkpt lat="47.65048" lon="-2.75868">
        <ele>3.1</ele>
        <time>2026-08-22T13:26:26Z</time>
      </trkpt>
      <trkpt lat="47.65045" lon="-2.75864">
        <ele>3</ele>
        <time>2026-08-22T13:26:27Z</time>
      </trkpt>
      <trkpt lat="47.65042" lon="-2.75859">
        <ele>3</ele>
        <time>2026-08-22T13:26:28Z</time>
      </trkpt>
      <trkpt lat="47.6504" lon="-2.75854">
        <ele>3</ele>
        <time>2026-08-22T13:26:29Z</time>
      </trkpt>
      <trkpt lat="47.65038" lon="-2.75849">
        <ele>3</ele>
        <time>2026-08-22T13:26:30Z</time>
      </trkpt>
      <trkpt lat="47.65036" lon="-2.75845">
        <ele>3</ele>
        <time>2026-08-22T13:26:31Z</time>
      </trkpt>
      <trkpt lat="47.65032" lon="-2.75842">
        <ele>3</ele>
        <time>2026-08-22T13:26:32Z</time>
      </trkpt>
      <trkpt lat="47.65028" lon="-2.75841">
        <ele>3</ele>
        <time>2026-08-22T13:26:33Z</time>
      </trkpt>
      <trkpt lat="47.65025" lon="-2.75841">
        <ele>3</ele>
        <time>2026-08-22T13:26:34Z</time>
      </trkpt>
      <trkpt lat="47.65022" lon="-2.7584">
        <ele>3</ele>
        <time>2026-08-22T13:26:35Z</time>
      </trkpt>
      <trkpt lat="47.6502" lon="-2.75841">
        <ele>3</ele>
        <time>2026-08-22T13:26:36Z</time>
      </trkpt>
      <trkpt lat="47.65019" lon="-2.75843">
        <ele>3</ele>
        <time>2026-08-22T13:26:37Z</time>
      </trkpt>
      <trkpt lat="47.65019" lon="-2.75845">
        <ele>3</ele>
        <time>2026-08-22T13:26:38Z</time>
      </trkpt>
      <trkpt lat="47.6502" lon="-2.75848">
        <ele>3</ele>
        <time>2026-08-22T13:26:39Z</time>
      </trkpt>
      <trkpt lat="47.65021" lon="-2.7585">
        <ele>3</ele>
        <time>2026-08-22T13:26:40Z</time>
      </trkpt>
      <trkpt lat="47.65022" lon="-2.75851">
        <ele>3</ele>
        <time>2026-08-22T13:26:41Z</time>
      </trkpt>
      <trkpt lat="47.65023" lon="-2.75853">
        <ele>3</ele>
        <time>2026-08-22T13:26:42Z</time>
      </trkpt>
      <trkpt lat="47.65023" lon="-2.75854">
        <ele>3</ele>
        <time>2026-08-22T13:26:43Z</time>
      </trkpt>
      <trkpt lat="47.65023" lon="-2.75854">
        <ele>3</ele>
        <time>2026-08-22T13:26:44Z</time>
      </trkpt>
      <trkpt lat="47.6502" lon="-2.75847">
        <ele>3</ele>
        <time>2026-08-22T13:30:14Z</time>
      </trkpt>
      <trkpt lat="47.65019" lon="-2.75845">
        <ele>3</ele>
        <time>2026-08-22T13:30:15Z</time>
      </trkpt>
      <trkpt lat="47.65018" lon="-2.75843">
        <ele>3</ele>
        <time>2026-08-22T13:30:16Z</time>
      </trkpt>
      <trkpt lat="47.65016" lon="-2.7584">
        <ele>3</ele>
        <time>2026-08-22T13:30:17Z</time>
      </trkpt>
      <trkpt lat="47.65014" lon="-2.75839">
        <ele>3</ele>
        <time>2026-08-22T13:30:18Z</time>
      </trkpt>
      <trkpt lat="47.65011" lon="-2.75839">
        <ele>3</ele>
        <time>2026-08-22T13:30:19Z</time>
      </trkpt>
      <trkpt lat="47.65007" lon="-2.75838">
        <ele>3</ele>
        <time>2026-08-22T13:30:20Z</time>
      </trkpt>
      <trkpt lat="47.65003" lon="-2.75838">
        <ele>3</ele>
        <time>2026-08-22T13:30:21Z</time>
      </trkpt>
      <trkpt lat="47.65" lon="-2.75838">
        <ele>3</ele>
        <time>2026-08-22T13:30:22Z</time>
      </trkpt>
      <trkpt lat="47.64996" lon="-2.75837">
        <ele>3</ele>
        <time>2026-08-22T13:30:23Z</time>
      </trkpt>
      <trkpt lat="47.64991" lon="-2.75836">
        <ele>3</ele>
        <time>2026-08-22T13:30:24Z</time>
      </trkpt>
      <trkpt lat="47.64987" lon="-2.75835">
        <ele>3</ele>
        <time>2026-08-22T13:30:25Z</time>
      </trkpt>
      <trkpt lat="47.64983" lon="-2.75835">
        <ele>3</ele>
        <time>2026-08-22T13:30:26Z</time>
      </trkpt>
      <trkpt lat="47.64979" lon="-2.75834">
        <ele>3</ele>
        <time>2026-08-22T13:30:27Z</time>
      </trkpt>
      <trkpt lat="47.64974" lon="-2.75834">
        <ele>3</ele>
        <time>2026-08-22T13:30:28Z</time>
      </trkpt>
      <trkpt lat="47.6497" lon="-2.75833">
        <ele>3</ele>
        <time>2026-08-22T13:30:29Z</time>
      </trkpt>
      <trkpt lat="47.64966" lon="-2.75832">
        <ele>2.9</ele>
        <time>2026-08-22T13:30:30Z</time>
      </trkpt>
      <trkpt lat="47.64962" lon="-2.75832">
        <ele>2.9</ele>
        <time>2026-08-22T13:30:31Z</time>
      </trkpt>
      <trkpt lat="47.64958" lon="-2.75831">
        <ele>2.8</ele>
        <time>2026-08-22T13:30:32Z</time>
      </trkpt>
      <trkpt lat="47.64954" lon="-2.7583">
        <ele>2.8</ele>
        <time>2026-08-22T13:30:33Z</time>
      </trkpt>
      <trkpt lat="47.64949" lon="-2.7583">
        <ele>2.8</ele>
        <time>2026-08-22T13:30:34Z</time>
      </trkpt>
      <trkpt lat="47.64945" lon="-2.75829">
        <ele>2.7</ele>
        <time>2026-08-22T13:30:35Z</time>
      </trkpt>
      <trkpt lat="47.64941" lon="-2.75829">
        <ele>2.7</ele>
        <time>2026-08-22T13:30:36Z</time>
      </trkpt>
      <trkpt lat="47.64937" lon="-2.75829">
        <ele>2.7</ele>
        <time>2026-08-22T13:30:37Z</time>
      </trkpt>
      <trkpt lat="47.64932" lon="-2.75828">
        <ele>2.6</ele>
        <time>2026-08-22T13:30:38Z</time>
      </trkpt>
      <trkpt lat="47.64928" lon="-2.75828">
        <ele>2.6</ele>
        <time>2026-08-22T13:30:39Z</time>
      </trkpt>
      <trkpt lat="47.64924" lon="-2.75827">
        <ele>2.5</ele>
        <time>2026-08-22T13:30:40Z</time>
      </trkpt>
      <trkpt lat="47.64919" lon="-2.75827">
        <ele>2.5</ele>
        <time>2026-08-22T13:30:41Z</time>
      </trkpt>
      <trkpt lat="47.64914" lon="-2.75826">
        <ele>2.5</ele>
        <time>2026-08-22T13:30:42Z</time>
      </trkpt>
      <trkpt lat="47.6491" lon="-2.75826">
        <ele>2.5</ele>
        <time>2026-08-22T13:30:43Z</time>
      </trkpt>
      <trkpt lat="47.64905" lon="-2.75825">
        <ele>2.5</ele>
        <time>2026-08-22T13:30:44Z</time>
      </trkpt>
      <trkpt lat="47.64901" lon="-2.75825">
        <ele>2.6</ele>
        <time>2026-08-22T13:30:45Z</time>
      </trkpt>
      <trkpt lat="47.64896" lon="-2.75824">
        <ele>2.6</ele>
        <time>2026-08-22T13:30:46Z</time>
      </trkpt>
      <trkpt lat="47.64892" lon="-2.75824">
        <ele>2.6</ele>
        <time>2026-08-22T13:30:47Z</time>
      </trkpt>
      <trkpt lat="47.64887" lon="-2.75823">
        <ele>2.6</ele>
        <time>2026-08-22T13:30:48Z</time>
      </trkpt>
      <trkpt lat="47.64882" lon="-2.75823">
        <ele>2.6</ele>
        <time>2026-08-22T13:30:49Z</time>
      </trkpt>
      <trkpt lat="47.64878" lon="-2.75822">
        <ele>2.6</ele>
        <time>2026-08-22T13:30:50Z</time>
      </trkpt>
      <trkpt lat="47.64873" lon="-2.75821">
        <ele>2.6</ele>
        <time>2026-08-22T13:30:51Z</time>
      </trkpt>
      <trkpt lat="47.64868" lon="-2.75821">
        <ele>2.6</ele>
        <time>2026-08-22T13:30:52Z</time>
      </trkpt>
      <trkpt lat="47.64863" lon="-2.7582">
        <ele>2.5</ele>
        <time>2026-08-22T13:30:53Z</time>
      </trkpt>
      <trkpt lat="47.64859" lon="-2.75819">
        <ele>2.5</ele>
        <time>2026-08-22T13:30:54Z</time>
      </trkpt>
      <trkpt lat="47.64854" lon="-2.75819">
        <ele>2.6</ele>
        <time>2026-08-22T13:30:55Z</time>
      </trkpt>
      <trkpt lat="47.64849" lon="-2.75819">
        <ele>2.7</ele>
        <time>2026-08-22T13:30:56Z</time>
      </trkpt>
      <trkpt lat="47.64844" lon="-2.75819">
        <ele>2.8</ele>
        <time>2026-08-22T13:30:57Z</time>
      </trkpt>
      <trkpt lat="47.64839" lon="-2.75819">
        <ele>2.9</ele>
        <time>2026-08-22T13:30:58Z</time>
      </trkpt>
      <trkpt lat="47.64834" lon="-2.75819">
        <ele>3</ele>
        <time>2026-08-22T13:30:59Z</time>
      </trkpt>
      <trkpt lat="47.64829" lon="-2.75818">
        <ele>3.1</ele>
        <time>2026-08-22T13:31:00Z</time>
      </trkpt>
      <trkpt lat="47.64825" lon="-2.75818">
        <ele>3.1</ele>
        <time>2026-08-22T13:31:01Z</time>
      </trkpt>
      <trkpt lat="47.6482" lon="-2.75818">
        <ele>3.2</ele>
        <time>2026-08-22T13:31:02Z</time>
      </trkpt>
      <trkpt lat="47.64815" lon="-2.75817">
        <ele>3.3</ele>
        <time>2026-08-22T13:31:03Z</time>
      </trkpt>
      <trkpt lat="47.6481" lon="-2.75817">
        <ele>3.3</ele>
        <time>2026-08-22T13:31:04Z</time>
      </trkpt>
      <trkpt lat="47.64805" lon="-2.75816">
        <ele>3.4</ele>
        <time>2026-08-22T13:31:05Z</time>
      </trkpt>
      <trkpt lat="47.64799" lon="-2.75816">
        <ele>3.1</ele>
        <time>2026-08-22T13:31:06Z</time>
      </trkpt>
      <trkpt lat="47.64794" lon="-2.75815">
        <ele>2.9</ele>
        <time>2026-08-22T13:31:07Z</time>
      </trkpt>
      <trkpt lat="47.64789" lon="-2.75815">
        <ele>2.7</ele>
        <time>2026-08-22T13:31:08Z</time>
      </trkpt>
      <trkpt lat="47.64784" lon="-2.75815">
        <ele>2.6</ele>
        <time>2026-08-22T13:31:09Z</time>
      </trkpt>
      <trkpt lat="47.64779" lon="-2.75816">
        <ele>2.4</ele>
        <time>2026-08-22T13:31:10Z</time>
      </trkpt>
      <trkpt lat="47.64774" lon="-2.75816">
        <ele>2.4</ele>
        <time>2026-08-22T13:31:11Z</time>
      </trkpt>
      <trkpt lat="47.64769" lon="-2.75817">
        <ele>2.4</ele>
        <time>2026-08-22T13:31:12Z</time>
      </trkpt>
      <trkpt lat="47.64764" lon="-2.75817">
        <ele>2.4</ele>
        <time>2026-08-22T13:31:13Z</time>
      </trkpt>
      <trkpt lat="47.64759" lon="-2.75818">
        <ele>2.4</ele>
        <time>2026-08-22T13:31:14Z</time>
      </trkpt>
      <trkpt lat="47.64754" lon="-2.75819">
        <ele>2.5</ele>
        <time>2026-08-22T13:31:15Z</time>
      </trkpt>
      <trkpt lat="47.6475" lon="-2.7582">
        <ele>2.5</ele>
        <time>2026-08-22T13:31:16Z</time>
      </trkpt>
      <trkpt lat="47.64745" lon="-2.75821">
        <ele>2.5</ele>
        <time>2026-08-22T13:31:17Z</time>
      </trkpt>
      <trkpt lat="47.6474" lon="-2.75822">
        <ele>2.4</ele>
        <time>2026-08-22T13:31:18Z</time>
      </trkpt>
      <trkpt lat="47.64736" lon="-2.75824">
        <ele>2.5</ele>
        <time>2026-08-22T13:31:19Z</time>
      </trkpt>
      <trkpt lat="47.64731" lon="-2.75826">
        <ele>2.6</ele>
        <time>2026-08-22T13:31:20Z</time>
      </trkpt>
      <trkpt lat="47.64726" lon="-2.75827">
        <ele>2.6</ele>
        <time>2026-08-22T13:31:21Z</time>
      </trkpt>
      <trkpt lat="47.64721" lon="-2.75829">
        <ele>2.7</ele>
        <time>2026-08-22T13:31:22Z</time>
      </trkpt>
      <trkpt lat="47.64716" lon="-2.75831">
        <ele>2.8</ele>
        <time>2026-08-22T13:31:23Z</time>
      </trkpt>
      <trkpt lat="47.64711" lon="-2.75833">
        <ele>3</ele>
        <time>2026-08-22T13:31:24Z</time>
      </trkpt>
      <trkpt lat="47.64706" lon="-2.75835">
        <ele>3</ele>
        <time>2026-08-22T13:31:25Z</time>
      </trkpt>
      <trkpt lat="47.64701" lon="-2.75837">
        <ele>3</ele>
        <time>2026-08-22T13:31:26Z</time>
      </trkpt>
      <trkpt lat="47.64696" lon="-2.75839">
        <ele>3</ele>
        <time>2026-08-22T13:31:27Z</time>
      </trkpt>
      <trkpt lat="47.64692" lon="-2.75841">
        <ele>2.9</ele>
        <time>2026-08-22T13:31:28Z</time>
      </trkpt>
      <trkpt lat="47.64687" lon="-2.75843">
        <ele>2.8</ele>
        <time>2026-08-22T13:31:29Z</time>
      </trkpt>
      <trkpt lat="47.64682" lon="-2.75845">
        <ele>2.7</ele>
        <time>2026-08-22T13:31:30Z</time>
      </trkpt>
      <trkpt lat="47.64677" lon="-2.75847">
        <ele>2.7</ele>
        <time>2026-08-22T13:31:31Z</time>
      </trkpt>
      <trkpt lat="47.64672" lon="-2.7585">
        <ele>2.7</ele>
        <time>2026-08-22T13:31:32Z</time>
      </trkpt>
      <trkpt lat="47.64667" lon="-2.75852">
        <ele>2.7</ele>
        <time>2026-08-22T13:31:33Z</time>
      </trkpt>
      <trkpt lat="47.64662" lon="-2.75855">
        <ele>2.7</ele>
        <time>2026-08-22T13:31:34Z</time>
      </trkpt>
      <trkpt lat="47.64658" lon="-2.75858">
        <ele>2.9</ele>
        <time>2026-08-22T13:31:35Z</time>
      </trkpt>
      <trkpt lat="47.64653" lon="-2.7586">
        <ele>2.9</ele>
        <time>2026-08-22T13:31:36Z</time>
      </trkpt>
      <trkpt lat="47.64649" lon="-2.75863">
        <ele>3.1</ele>
        <time>2026-08-22T13:31:37Z</time>
      </trkpt>
      <trkpt lat="47.64644" lon="-2.75865">
        <ele>3.1</ele>
        <time>2026-08-22T13:31:38Z</time>
      </trkpt>
      <trkpt lat="47.6464" lon="-2.75868">
        <ele>3.2</ele>
        <time>2026-08-22T13:31:39Z</time>
      </trkpt>
      <trkpt lat="47.64635" lon="-2.7587">
        <ele>3.1</ele>
        <time>2026-08-22T13:31:40Z</time>
      </trkpt>
      <trkpt lat="47.64631" lon="-2.75872">
        <ele>3</ele>
        <time>2026-08-22T13:31:41Z</time>
      </trkpt>
      <trkpt lat="47.64626" lon="-2.75874">
        <ele>3</ele>
        <time>2026-08-22T13:31:42Z</time>
      </trkpt>
      <trkpt lat="47.64622" lon="-2.75876">
        <ele>3</ele>
        <time>2026-08-22T13:31:43Z</time>
      </trkpt>
      <trkpt lat="47.64617" lon="-2.75878">
        <ele>3</ele>
        <time>2026-08-22T13:31:44Z</time>
      </trkpt>
      <trkpt lat="47.64613" lon="-2.7588">
        <ele>3.1</ele>
        <time>2026-08-22T13:31:45Z</time>
      </trkpt>
      <trkpt lat="47.64608" lon="-2.75882">
        <ele>3.2</ele>
        <time>2026-08-22T13:31:46Z</time>
      </trkpt>
      <trkpt lat="47.64603" lon="-2.75884">
        <ele>3.3</ele>
        <time>2026-08-22T13:31:47Z</time>
      </trkpt>
      <trkpt lat="47.64599" lon="-2.75887">
        <ele>3.4</ele>
        <time>2026-08-22T13:31:48Z</time>
      </trkpt>
      <trkpt lat="47.64594" lon="-2.75889">
        <ele>3.4</ele>
        <time>2026-08-22T13:31:49Z</time>
      </trkpt>
      <trkpt lat="47.64589" lon="-2.75892">
        <ele>3.3</ele>
        <time>2026-08-22T13:31:50Z</time>
      </trkpt>
      <trkpt lat="47.64585" lon="-2.75895">
        <ele>3.3</ele>
        <time>2026-08-22T13:31:51Z</time>
      </trkpt>
      <trkpt lat="47.6458" lon="-2.75897">
        <ele>3.2</ele>
        <time>2026-08-22T13:31:52Z</time>
      </trkpt>
      <trkpt lat="47.64575" lon="-2.759">
        <ele>3.2</ele>
        <time>2026-08-22T13:31:53Z</time>
      </trkpt>
      <trkpt lat="47.6457" lon="-2.75902">
        <ele>3.2</ele>
        <time>2026-08-22T13:31:54Z</time>
      </trkpt>
      <trkpt lat="47.64565" lon="-2.75904">
        <ele>3.2</ele>
        <time>2026-08-22T13:31:55Z</time>
      </trkpt>
      <trkpt lat="47.6456" lon="-2.75907">
        <ele>3.4</ele>
        <time>2026-08-22T13:31:56Z</time>
      </trkpt>
      <trkpt lat="47.64555" lon="-2.7591">
        <ele>3.5</ele>
        <time>2026-08-22T13:31:57Z</time>
      </trkpt>
      <trkpt lat="47.6455" lon="-2.75913">
        <ele>3.5</ele>
        <time>2026-08-22T13:31:58Z</time>
      </trkpt>
      <trkpt lat="47.64546" lon="-2.75915">
        <ele>3.5</ele>
        <time>2026-08-22T13:31:59Z</time>
      </trkpt>
      <trkpt lat="47.64541" lon="-2.75917">
        <ele>3.5</ele>
        <time>2026-08-22T13:32:00Z</time>
      </trkpt>
      <trkpt lat="47.64536" lon="-2.7592">
        <ele>3.4</ele>
        <time>2026-08-22T13:32:01Z</time>
      </trkpt>
      <trkpt lat="47.64532" lon="-2.75922">
        <ele>3.3</ele>
        <time>2026-08-22T13:32:02Z</time>
      </trkpt>
      <trkpt lat="47.64527" lon="-2.75925">
        <ele>3.3</ele>
        <time>2026-08-22T13:32:03Z</time>
      </trkpt>
      <trkpt lat="47.64522" lon="-2.75927">
        <ele>3.1</ele>
        <time>2026-08-22T13:32:04Z</time>
      </trkpt>
      <trkpt lat="47.64517" lon="-2.7593">
        <ele>3.1</ele>
        <time>2026-08-22T13:32:05Z</time>
      </trkpt>
      <trkpt lat="47.64512" lon="-2.75932">
        <ele>3</ele>
        <time>2026-08-22T13:32:06Z</time>
      </trkpt>
      <trkpt lat="47.64507" lon="-2.75935">
        <ele>3.2</ele>
        <time>2026-08-22T13:32:07Z</time>
      </trkpt>
      <trkpt lat="47.64503" lon="-2.75938">
        <ele>3.4</ele>
        <time>2026-08-22T13:32:08Z</time>
      </trkpt>
      <trkpt lat="47.64498" lon="-2.75941">
        <ele>3.6</ele>
        <time>2026-08-22T13:32:09Z</time>
      </trkpt>
      <trkpt lat="47.64493" lon="-2.75943">
        <ele>3.6</ele>
        <time>2026-08-22T13:32:10Z</time>
      </trkpt>
      <trkpt lat="47.64489" lon="-2.75946">
        <ele>3.6</ele>
        <time>2026-08-22T13:32:11Z</time>
      </trkpt>
      <trkpt lat="47.64484" lon="-2.75948">
        <ele>3.5</ele>
        <time>2026-08-22T13:32:12Z</time>
      </trkpt>
      <trkpt lat="47.64479" lon="-2.75951">
        <ele>3.4</ele>
        <time>2026-08-22T13:32:13Z</time>
      </trkpt>
      <trkpt lat="47.64474" lon="-2.75953">
        <ele>3.4</ele>
        <time>2026-08-22T13:32:14Z</time>
      </trkpt>
      <trkpt lat="47.6447" lon="-2.75956">
        <ele>3.3</ele>
        <time>2026-08-22T13:32:15Z</time>
      </trkpt>
      <trkpt lat="47.64465" lon="-2.75958">
        <ele>3.1</ele>
        <time>2026-08-22T13:32:16Z</time>
      </trkpt>
      <trkpt lat="47.6446" lon="-2.75961">
        <ele>3</ele>
        <time>2026-08-22T13:32:17Z</time>
      </trkpt>
      <trkpt lat="47.64456" lon="-2.75963">
        <ele>2.9</ele>
        <time>2026-08-22T13:32:18Z</time>
      </trkpt>
      <trkpt lat="47.64451" lon="-2.75965">
        <ele>2.8</ele>
        <time>2026-08-22T13:32:19Z</time>
      </trkpt>
      <trkpt lat="47.64447" lon="-2.75968">
        <ele>2.8</ele>
        <time>2026-08-22T13:32:20Z</time>
      </trkpt>
      <trkpt lat="47.64442" lon="-2.7597">
        <ele>2.8</ele>
        <time>2026-08-22T13:32:21Z</time>
      </trkpt>
      <trkpt lat="47.64437" lon="-2.75973">
        <ele>3</ele>
        <time>2026-08-22T13:32:22Z</time>
      </trkpt>
      <trkpt lat="47.64432" lon="-2.75975">
        <ele>3.1</ele>
        <time>2026-08-22T13:32:23Z</time>
      </trkpt>
      <trkpt lat="47.64428" lon="-2.75978">
        <ele>3.1</ele>
        <time>2026-08-22T13:32:24Z</time>
      </trkpt>
      <trkpt lat="47.64423" lon="-2.75981">
        <ele>3.1</ele>
        <time>2026-08-22T13:32:25Z</time>
      </trkpt>
      <trkpt lat="47.64418" lon="-2.75983">
        <ele>3</ele>
        <time>2026-08-22T13:32:26Z</time>
      </trkpt>
      <trkpt lat="47.64413" lon="-2.75986">
        <ele>2.9</ele>
        <time>2026-08-22T13:32:27Z</time>
      </trkpt>
      <trkpt lat="47.64409" lon="-2.75988">
        <ele>2.8</ele>
        <time>2026-08-22T13:32:28Z</time>
      </trkpt>
      <trkpt lat="47.64405" lon="-2.75991">
        <ele>2.7</ele>
        <time>2026-08-22T13:32:29Z</time>
      </trkpt>
      <trkpt lat="47.644" lon="-2.75994">
        <ele>2.7</ele>
        <time>2026-08-22T13:32:30Z</time>
      </trkpt>
      <trkpt lat="47.64395" lon="-2.75997">
        <ele>2.8</ele>
        <time>2026-08-22T13:32:31Z</time>
      </trkpt>
      <trkpt lat="47.6439" lon="-2.76">
        <ele>3</ele>
        <time>2026-08-22T13:32:32Z</time>
      </trkpt>
      <trkpt lat="47.64385" lon="-2.76002">
        <ele>2.9</ele>
        <time>2026-08-22T13:32:33Z</time>
      </trkpt>
      <trkpt lat="47.6438" lon="-2.76005">
        <ele>2.7</ele>
        <time>2026-08-22T13:32:34Z</time>
      </trkpt>
      <trkpt lat="47.64374" lon="-2.76006">
        <ele>2.6</ele>
        <time>2026-08-22T13:32:35Z</time>
      </trkpt>
      <trkpt lat="47.64369" lon="-2.76008">
        <ele>2.5</ele>
        <time>2026-08-22T13:32:36Z</time>
      </trkpt>
      <trkpt lat="47.64364" lon="-2.76008">
        <ele>2.4</ele>
        <time>2026-08-22T13:32:37Z</time>
      </trkpt>
      <trkpt lat="47.64359" lon="-2.7601">
        <ele>2.4</ele>
        <time>2026-08-22T13:32:38Z</time>
      </trkpt>
      <trkpt lat="47.64354" lon="-2.76011">
        <ele>2.4</ele>
        <time>2026-08-22T13:32:39Z</time>
      </trkpt>
      <trkpt lat="47.64349" lon="-2.76013">
        <ele>2.5</ele>
        <time>2026-08-22T13:32:40Z</time>
      </trkpt>
      <trkpt lat="47.64344" lon="-2.76015">
        <ele>2.5</ele>
        <time>2026-08-22T13:32:41Z</time>
      </trkpt>
      <trkpt lat="47.64339" lon="-2.76018">
        <ele>2.6</ele>
        <time>2026-08-22T13:32:42Z</time>
      </trkpt>
      <trkpt lat="47.64335" lon="-2.76022">
        <ele>2.8</ele>
        <time>2026-08-22T13:32:43Z</time>
      </trkpt>
      <trkpt lat="47.6433" lon="-2.76025">
        <ele>2.8</ele>
        <time>2026-08-22T13:32:44Z</time>
      </trkpt>
      <trkpt lat="47.64326" lon="-2.76029">
        <ele>3</ele>
        <time>2026-08-22T13:32:45Z</time>
      </trkpt>
      <trkpt lat="47.64321" lon="-2.76033">
        <ele>3</ele>
        <time>2026-08-22T13:32:46Z</time>
      </trkpt>
      <trkpt lat="47.64317" lon="-2.76036">
        <ele>3</ele>
        <time>2026-08-22T13:32:47Z</time>
      </trkpt>
      <trkpt lat="47.64313" lon="-2.7604">
        <ele>3</ele>
        <time>2026-08-22T13:32:48Z</time>
      </trkpt>
      <trkpt lat="47.64308" lon="-2.76045">
        <ele>3</ele>
        <time>2026-08-22T13:32:49Z</time>
      </trkpt>
      <trkpt lat="47.64304" lon="-2.76049">
        <ele>2.94</ele>
        <time>2026-08-22T13:32:50Z</time>
      </trkpt>
      <trkpt lat="47.643" lon="-2.76054">
        <ele>2.8</ele>
        <time>2026-08-22T13:32:51Z</time>
      </trkpt>
      <trkpt lat="47.64296" lon="-2.76059">
        <ele>2.7</ele>
        <time>2026-08-22T13:32:52Z</time>
      </trkpt>
      <trkpt lat="47.64292" lon="-2.76064">
        <ele>2.7</ele>
        <time>2026-08-22T13:32:53Z</time>
      </trkpt>
      <trkpt lat="47.64288" lon="-2.76068">
        <ele>2.7</ele>
        <time>2026-08-22T13:32:54Z</time>
      </trkpt>
      <trkpt lat="47.64284" lon="-2.76072">
        <ele>2.7</ele>
        <time>2026-08-22T13:32:55Z</time>
      </trkpt>
      <trkpt lat="47.64279" lon="-2.76076">
        <ele>2.7</ele>
        <time>2026-08-22T13:32:56Z</time>
      </trkpt>
      <trkpt lat="47.64275" lon="-2.76079">
        <ele>2.8</ele>
        <time>2026-08-22T13:32:57Z</time>
      </trkpt>
      <trkpt lat="47.6427" lon="-2.76081">
        <ele>2.7</ele>
        <time>2026-08-22T13:32:58Z</time>
      </trkpt>
      <trkpt lat="47.64265" lon="-2.76083">
        <ele>2.5</ele>
        <time>2026-08-22T13:32:59Z</time>
      </trkpt>
      <trkpt lat="47.6426" lon="-2.76084">
        <ele>2.4</ele>
        <time>2026-08-22T13:33:00Z</time>
      </trkpt>
      <trkpt lat="47.64255" lon="-2.76086">
        <ele>2.4</ele>
        <time>2026-08-22T13:33:01Z</time>
      </trkpt>
      <trkpt lat="47.64251" lon="-2.76087">
        <ele>2.3</ele>
        <time>2026-08-22T13:33:02Z</time>
      </trkpt>
      <trkpt lat="47.64246" lon="-2.76089">
        <ele>2.3</ele>
        <time>2026-08-22T13:33:03Z</time>
      </trkpt>
      <trkpt lat="47.64242" lon="-2.76091">
        <ele>2.3</ele>
        <time>2026-08-22T13:33:04Z</time>
      </trkpt>
      <trkpt lat="47.64237" lon="-2.76092">
        <ele>2.2</ele>
        <time>2026-08-22T13:33:05Z</time>
      </trkpt>
      <trkpt lat="47.64232" lon="-2.76094">
        <ele>2.1</ele>
        <time>2026-08-22T13:33:06Z</time>
      </trkpt>
      <trkpt lat="47.64227" lon="-2.76096">
        <ele>2.1</ele>
        <time>2026-08-22T13:33:07Z</time>
      </trkpt>
      <trkpt lat="47.64222" lon="-2.76097">
        <ele>2</ele>
        <time>2026-08-22T13:33:08Z</time>
      </trkpt>
      <trkpt lat="47.64217" lon="-2.76099">
        <ele>2.1</ele>
        <time>2026-08-22T13:33:09Z</time>
      </trkpt>
      <trkpt lat="47.64213" lon="-2.76101">
        <ele>2.3</ele>
        <time>2026-08-22T13:33:10Z</time>
      </trkpt>
      <trkpt lat="47.64208" lon="-2.76103">
        <ele>2.4</ele>
        <time>2026-08-22T13:33:11Z</time>
      </trkpt>
      <trkpt lat="47.64203" lon="-2.76104">
        <ele>2.5</ele>
        <time>2026-08-22T13:33:12Z</time>
      </trkpt>
      <trkpt lat="47.64198" lon="-2.76106">
        <ele>2.6</ele>
        <time>2026-08-22T13:33:13Z</time>
      </trkpt>
      <trkpt lat="47.64194" lon="-2.76107">
        <ele>2.97</ele>
        <time>2026-08-22T13:33:14Z</time>
      </trkpt>
      <trkpt lat="47.64189" lon="-2.76109">
        <ele>2.61</ele>
        <time>2026-08-22T13:33:15Z</time>
      </trkpt>
      <trkpt lat="47.64184" lon="-2.76111">
        <ele>2.25</ele>
        <time>2026-08-22T13:33:16Z</time>
      </trkpt>
      <trkpt lat="47.6418" lon="-2.76114">
        <ele>2.1</ele>
        <time>2026-08-22T13:33:17Z</time>
      </trkpt>
      <trkpt lat="47.64175" lon="-2.76116">
        <ele>1.8</ele>
        <time>2026-08-22T13:33:18Z</time>
      </trkpt>
      <trkpt lat="47.6417" lon="-2.76118">
        <ele>1.7</ele>
        <time>2026-08-22T13:33:19Z</time>
      </trkpt>
      <trkpt lat="47.64165" lon="-2.76119">
        <ele>1.6</ele>
        <time>2026-08-22T13:33:20Z</time>
      </trkpt>
      <trkpt lat="47.6416" lon="-2.76121">
        <ele>1.7</ele>
        <time>2026-08-22T13:33:21Z</time>
      </trkpt>
      <trkpt lat="47.64155" lon="-2.76123">
        <ele>1.9</ele>
        <time>2026-08-22T13:33:22Z</time>
      </trkpt>
      <trkpt lat="47.64151" lon="-2.76125">
        <ele>2</ele>
        <time>2026-08-22T13:33:23Z</time>
      </trkpt>
      <trkpt lat="47.64146" lon="-2.76127">
        <ele>2.1</ele>
        <time>2026-08-22T13:33:24Z</time>
      </trkpt>
      <trkpt lat="47.64141" lon="-2.7613">
        <ele>2.4</ele>
        <time>2026-08-22T13:33:25Z</time>
      </trkpt>
      <trkpt lat="47.64137" lon="-2.76131">
        <ele>3</ele>
        <time>2026-08-22T13:33:26Z</time>
      </trkpt>
      <trkpt lat="47.64132" lon="-2.76133">
        <ele>3</ele>
        <time>2026-08-22T13:33:27Z</time>
      </trkpt>
      <trkpt lat="47.64128" lon="-2.76134">
        <ele>3</ele>
        <time>2026-08-22T13:33:28Z</time>
      </trkpt>
      <trkpt lat="47.64123" lon="-2.76136">
        <ele>3</ele>
        <time>2026-08-22T13:33:29Z</time>
      </trkpt>
      <trkpt lat="47.64119" lon="-2.76138">
        <ele>3</ele>
        <time>2026-08-22T13:33:30Z</time>
      </trkpt>
      <trkpt lat="47.64115" lon="-2.76139">
        <ele>3</ele>
        <time>2026-08-22T13:33:31Z</time>
      </trkpt>
      <trkpt lat="47.6411" lon="-2.76141">
        <ele>2.9</ele>
        <time>2026-08-22T13:33:32Z</time>
      </trkpt>
      <trkpt lat="47.64106" lon="-2.76143">
        <ele>2.7</ele>
        <time>2026-08-22T13:33:33Z</time>
      </trkpt>
      <trkpt lat="47.64102" lon="-2.76147">
        <ele>2.5</ele>
        <time>2026-08-22T13:33:34Z</time>
      </trkpt>
      <trkpt lat="47.64098" lon="-2.7615">
        <ele>2.4</ele>
        <time>2026-08-22T13:33:35Z</time>
      </trkpt>
      <trkpt lat="47.64094" lon="-2.76154">
        <ele>2.4</ele>
        <time>2026-08-22T13:33:36Z</time>
      </trkpt>
      <trkpt lat="47.64091" lon="-2.76156">
        <ele>2.4</ele>
        <time>2026-08-22T13:33:37Z</time>
      </trkpt>
      <trkpt lat="47.64087" lon="-2.76157">
        <ele>2.4</ele>
        <time>2026-08-22T13:33:38Z</time>
      </trkpt>
      <trkpt lat="47.64083" lon="-2.76158">
        <ele>2.4</ele>
        <time>2026-08-22T13:33:39Z</time>
      </trkpt>
      <trkpt lat="47.64079" lon="-2.76158">
        <ele>2.5</ele>
        <time>2026-08-22T13:33:40Z</time>
      </trkpt>
      <trkpt lat="47.64074" lon="-2.76158">
        <ele>2.6</ele>
        <time>2026-08-22T13:33:41Z</time>
      </trkpt>
      <trkpt lat="47.64071" lon="-2.76158">
        <ele>2.7</ele>
        <time>2026-08-22T13:33:42Z</time>
      </trkpt>
      <trkpt lat="47.64067" lon="-2.76158">
        <ele>2.7</ele>
        <time>2026-08-22T13:33:43Z</time>
      </trkpt>
      <trkpt lat="47.64063" lon="-2.7616">
        <ele>2.9</ele>
        <time>2026-08-22T13:33:44Z</time>
      </trkpt>
      <trkpt lat="47.64059" lon="-2.76162">
        <ele>3</ele>
        <time>2026-08-22T13:33:45Z</time>
      </trkpt>
      <trkpt lat="47.64055" lon="-2.76163">
        <ele>3</ele>
        <time>2026-08-22T13:33:46Z</time>
      </trkpt>
      <trkpt lat="47.6405" lon="-2.76164">
        <ele>3</ele>
        <time>2026-08-22T13:33:47Z</time>
      </trkpt>
      <trkpt lat="47.64046" lon="-2.76166">
        <ele>3</ele>
        <time>2026-08-22T13:33:48Z</time>
      </trkpt>
      <trkpt lat="47.64041" lon="-2.76167">
        <ele>3</ele>
        <time>2026-08-22T13:33:49Z</time>
      </trkpt>
      <trkpt lat="47.64037" lon="-2.76169">
        <ele>3</ele>
        <time>2026-08-22T13:33:50Z</time>
      </trkpt>
      <trkpt lat="47.64032" lon="-2.76171">
        <ele>3</ele>
        <time>2026-08-22T13:33:51Z</time>
      </trkpt>
      <trkpt lat="47.64028" lon="-2.76172">
        <ele>3</ele>
        <time>2026-08-22T13:33:52Z</time>
      </trkpt>
      <trkpt lat="47.64024" lon="-2.76174">
        <ele>3</ele>
        <time>2026-08-22T13:33:53Z</time>
      </trkpt>
      <trkpt lat="47.6402" lon="-2.76176">
        <ele>3</ele>
        <time>2026-08-22T13:33:54Z</time>
      </trkpt>
      <trkpt lat="47.64016" lon="-2.76178">
        <ele>3</ele>
        <time>2026-08-22T13:33:55Z</time>
      </trkpt>
      <trkpt lat="47.64013" lon="-2.76182">
        <ele>3</ele>
        <time>2026-08-22T13:33:56Z</time>
      </trkpt>
      <trkpt lat="47.6401" lon="-2.76186">
        <ele>3</ele>
        <time>2026-08-22T13:33:57Z</time>
      </trkpt>
      <trkpt lat="47.64008" lon="-2.76191">
        <ele>3</ele>
        <time>2026-08-22T13:33:58Z</time>
      </trkpt>
      <trkpt lat="47.64006" lon="-2.76197">
        <ele>3</ele>
        <time>2026-08-22T13:33:59Z</time>
      </trkpt>
      <trkpt lat="47.64004" lon="-2.76203">
        <ele>3</ele>
        <time>2026-08-22T13:34:00Z</time>
      </trkpt>
      <trkpt lat="47.64003" lon="-2.76208">
        <ele>3</ele>
        <time>2026-08-22T13:34:01Z</time>
      </trkpt>
      <trkpt lat="47.64001" lon="-2.76213">
        <ele>3</ele>
        <time>2026-08-22T13:34:02Z</time>
      </trkpt>
      <trkpt lat="47.64" lon="-2.76219">
        <ele>3</ele>
        <time>2026-08-22T13:34:03Z</time>
      </trkpt>
      <trkpt lat="47.64" lon="-2.76224">
        <ele>3</ele>
        <time>2026-08-22T13:34:04Z</time>
      </trkpt>
      <trkpt lat="47.64" lon="-2.76228">
        <ele>3</ele>
        <time>2026-08-22T13:34:05Z</time>
      </trkpt>
      <trkpt lat="47.63999" lon="-2.76232">
        <ele>3</ele>
        <time>2026-08-22T13:34:06Z</time>
      </trkpt>
      <trkpt lat="47.63999" lon="-2.76237">
        <ele>3</ele>
        <time>2026-08-22T13:34:07Z</time>
      </trkpt>
      <trkpt lat="47.63998" lon="-2.76242">
        <ele>3</ele>
        <time>2026-08-22T13:34:08Z</time>
      </trkpt>
      <trkpt lat="47.63996" lon="-2.76246">
        <ele>3</ele>
        <time>2026-08-22T13:34:09Z</time>
      </trkpt>
      <trkpt lat="47.63993" lon="-2.76249">
        <ele>3</ele>
        <time>2026-08-22T13:34:10Z</time>
      </trkpt>
      <trkpt lat="47.6399" lon="-2.76251">
        <ele>3</ele>
        <time>2026-08-22T13:34:11Z</time>
      </trkpt>
      <trkpt lat="47.63986" lon="-2.76251">
        <ele>3</ele>
        <time>2026-08-22T13:34:12Z</time>
      </trkpt>
      <trkpt lat="47.63982" lon="-2.76251">
        <ele>3</ele>
        <time>2026-08-22T13:34:13Z</time>
      </trkpt>
      <trkpt lat="47.63979" lon="-2.76251">
        <ele>3</ele>
        <time>2026-08-22T13:34:14Z</time>
      </trkpt>
      <trkpt lat="47.63974" lon="-2.76251">
        <ele>3</ele>
        <time>2026-08-22T13:34:15Z</time>
      </trkpt>
      <trkpt lat="47.63971" lon="-2.76252">
        <ele>2.9</ele>
        <time>2026-08-22T13:34:16Z</time>
      </trkpt>
      <trkpt lat="47.63967" lon="-2.76252">
        <ele>2.9</ele>
        <time>2026-08-22T13:34:17Z</time>
      </trkpt>
      <trkpt lat="47.63963" lon="-2.76252">
        <ele>3</ele>
        <time>2026-08-22T13:34:18Z</time>
      </trkpt>
      <trkpt lat="47.6396" lon="-2.76253">
        <ele>2.9</ele>
        <time>2026-08-22T13:34:19Z</time>
      </trkpt>
      <trkpt lat="47.63956" lon="-2.76253">
        <ele>3</ele>
        <time>2026-08-22T13:34:20Z</time>
      </trkpt>
      <trkpt lat="47.63953" lon="-2.76253">
        <ele>3</ele>
        <time>2026-08-22T13:34:21Z</time>
      </trkpt>
      <trkpt lat="47.63949" lon="-2.76253">
        <ele>3</ele>
        <time>2026-08-22T13:34:22Z</time>
      </trkpt>
      <trkpt lat="47.63946" lon="-2.76253">
        <ele>3</ele>
        <time>2026-08-22T13:34:23Z</time>
      </trkpt>
      <trkpt lat="47.63942" lon="-2.76253">
        <ele>3</ele>
        <time>2026-08-22T13:34:24Z</time>
      </trkpt>
      <trkpt lat="47.63937" lon="-2.76253">
        <ele>3</ele>
        <time>2026-08-22T13:34:25Z</time>
      </trkpt>
      <trkpt lat="47.63933" lon="-2.76252">
        <ele>3</ele>
        <time>2026-08-22T13:34:26Z</time>
      </trkpt>
      <trkpt lat="47.63929" lon="-2.76251">
        <ele>3</ele>
        <time>2026-08-22T13:34:27Z</time>
      </trkpt>
      <trkpt lat="47.63925" lon="-2.76251">
        <ele>3</ele>
        <time>2026-08-22T13:34:28Z</time>
      </trkpt>
      <trkpt lat="47.63922" lon="-2.76252">
        <ele>3</ele>
        <time>2026-08-22T13:34:29Z</time>
      </trkpt>
      <trkpt lat="47.63918" lon="-2.76253">
        <ele>3</ele>
        <time>2026-08-22T13:34:30Z</time>
      </trkpt>
      <trkpt lat="47.63914" lon="-2.76255">
        <ele>3</ele>
        <time>2026-08-22T13:34:31Z</time>
      </trkpt>
      <trkpt lat="47.6391" lon="-2.76256">
        <ele>3</ele>
        <time>2026-08-22T13:34:32Z</time>
      </trkpt>
      <trkpt lat="47.63906" lon="-2.76256">
        <ele>3</ele>
        <time>2026-08-22T13:34:33Z</time>
      </trkpt>
      <trkpt lat="47.63901" lon="-2.76257">
        <ele>3</ele>
        <time>2026-08-22T13:34:34Z</time>
      </trkpt>
      <trkpt lat="47.63897" lon="-2.76257">
        <ele>3</ele>
        <time>2026-08-22T13:34:35Z</time>
      </trkpt>
      <trkpt lat="47.63892" lon="-2.76257">
        <ele>3</ele>
        <time>2026-08-22T13:34:36Z</time>
      </trkpt>
      <trkpt lat="47.63888" lon="-2.76258">
        <ele>3</ele>
        <time>2026-08-22T13:34:37Z</time>
      </trkpt>
      <trkpt lat="47.63884" lon="-2.76258">
        <ele>3</ele>
        <time>2026-08-22T13:34:38Z</time>
      </trkpt>
      <trkpt lat="47.6388" lon="-2.76258">
        <ele>3</ele>
        <time>2026-08-22T13:34:39Z</time>
      </trkpt>
      <trkpt lat="47.63876" lon="-2.76258">
        <ele>3</ele>
        <time>2026-08-22T13:34:40Z</time>
      </trkpt>
      <trkpt lat="47.63872" lon="-2.76258">
        <ele>3</ele>
        <time>2026-08-22T13:34:41Z</time>
      </trkpt>
      <trkpt lat="47.63869" lon="-2.76259">
        <ele>3</ele>
        <time>2026-08-22T13:34:42Z</time>
      </trkpt>
      <trkpt lat="47.63865" lon="-2.76259">
        <ele>3</ele>
        <time>2026-08-22T13:34:43Z</time>
      </trkpt>
      <trkpt lat="47.63861" lon="-2.7626">
        <ele>3</ele>
        <time>2026-08-22T13:34:44Z</time>
      </trkpt>
      <trkpt lat="47.63857" lon="-2.7626">
        <ele>3.1</ele>
        <time>2026-08-22T13:34:45Z</time>
      </trkpt>
      <trkpt lat="47.63853" lon="-2.76261">
        <ele>3.1</ele>
        <time>2026-08-22T13:34:46Z</time>
      </trkpt>
      <trkpt lat="47.63848" lon="-2.76261">
        <ele>3.2</ele>
        <time>2026-08-22T13:34:47Z</time>
      </trkpt>
      <trkpt lat="47.63844" lon="-2.76261">
        <ele>3.2</ele>
        <time>2026-08-22T13:34:48Z</time>
      </trkpt>
      <trkpt lat="47.63839" lon="-2.76262">
        <ele>3.3</ele>
        <time>2026-08-22T13:34:49Z</time>
      </trkpt>
      <trkpt lat="47.63835" lon="-2.76262">
        <ele>3.4</ele>
        <time>2026-08-22T13:34:50Z</time>
      </trkpt>
      <trkpt lat="47.6383" lon="-2.76263">
        <ele>3.4</ele>
        <time>2026-08-22T13:34:51Z</time>
      </trkpt>
      <trkpt lat="47.63825" lon="-2.76263">
        <ele>3.3</ele>
        <time>2026-08-22T13:34:52Z</time>
      </trkpt>
      <trkpt lat="47.63821" lon="-2.76263">
        <ele>3.3</ele>
        <time>2026-08-22T13:34:53Z</time>
      </trkpt>
      <trkpt lat="47.63816" lon="-2.76264">
        <ele>3.2</ele>
        <time>2026-08-22T13:34:54Z</time>
      </trkpt>
      <trkpt lat="47.63811" lon="-2.76265">
        <ele>3.1</ele>
        <time>2026-08-22T13:34:55Z</time>
      </trkpt>
      <trkpt lat="47.63807" lon="-2.76265">
        <ele>3</ele>
        <time>2026-08-22T13:34:56Z</time>
      </trkpt>
      <trkpt lat="47.63802" lon="-2.76265">
        <ele>3</ele>
        <time>2026-08-22T13:34:57Z</time>
      </trkpt>
      <trkpt lat="47.63797" lon="-2.76264">
        <ele>3</ele>
        <time>2026-08-22T13:34:58Z</time>
      </trkpt>
      <trkpt lat="47.63792" lon="-2.76262">
        <ele>3</ele>
        <time>2026-08-22T13:34:59Z</time>
      </trkpt>
      <trkpt lat="47.63787" lon="-2.76261">
        <ele>3</ele>
        <time>2026-08-22T13:35:00Z</time>
      </trkpt>
      <trkpt lat="47.63783" lon="-2.76259">
        <ele>3</ele>
        <time>2026-08-22T13:35:01Z</time>
      </trkpt>
      <trkpt lat="47.63779" lon="-2.76258">
        <ele>3</ele>
        <time>2026-08-22T13:35:02Z</time>
      </trkpt>
      <trkpt lat="47.63774" lon="-2.76257">
        <ele>3</ele>
        <time>2026-08-22T13:35:03Z</time>
      </trkpt>
      <trkpt lat="47.6377" lon="-2.76258">
        <ele>3</ele>
        <time>2026-08-22T13:35:04Z</time>
      </trkpt>
      <trkpt lat="47.63766" lon="-2.76259">
        <ele>3</ele>
        <time>2026-08-22T13:35:05Z</time>
      </trkpt>
      <trkpt lat="47.63761" lon="-2.76259">
        <ele>3</ele>
        <time>2026-08-22T13:35:06Z</time>
      </trkpt>
      <trkpt lat="47.63757" lon="-2.76259">
        <ele>3</ele>
        <time>2026-08-22T13:35:07Z</time>
      </trkpt>
      <trkpt lat="47.63752" lon="-2.7626">
        <ele>3</ele>
        <time>2026-08-22T13:35:08Z</time>
      </trkpt>
      <trkpt lat="47.63748" lon="-2.7626">
        <ele>3.1</ele>
        <time>2026-08-22T13:35:09Z</time>
      </trkpt>
      <trkpt lat="47.63743" lon="-2.76261">
        <ele>3.3</ele>
        <time>2026-08-22T13:35:10Z</time>
      </trkpt>
      <trkpt lat="47.63738" lon="-2.76261">
        <ele>3.4</ele>
        <time>2026-08-22T13:35:11Z</time>
      </trkpt>
      <trkpt lat="47.63733" lon="-2.76262">
        <ele>3.6</ele>
        <time>2026-08-22T13:35:12Z</time>
      </trkpt>
      <trkpt lat="47.63728" lon="-2.76262">
        <ele>3.8</ele>
        <time>2026-08-22T13:35:13Z</time>
      </trkpt>
      <trkpt lat="47.63724" lon="-2.76262">
        <ele>3.9</ele>
        <time>2026-08-22T13:35:14Z</time>
      </trkpt>
      <trkpt lat="47.63719" lon="-2.76262">
        <ele>3.9</ele>
        <time>2026-08-22T13:35:15Z</time>
      </trkpt>
      <trkpt lat="47.63714" lon="-2.76262">
        <ele>3.7</ele>
        <time>2026-08-22T13:35:16Z</time>
      </trkpt>
      <trkpt lat="47.6371" lon="-2.7626">
        <ele>3.6</ele>
        <time>2026-08-22T13:35:17Z</time>
      </trkpt>
      <trkpt lat="47.63705" lon="-2.76259">
        <ele>3.4</ele>
        <time>2026-08-22T13:35:18Z</time>
      </trkpt>
      <trkpt lat="47.637" lon="-2.76257">
        <ele>3.2</ele>
        <time>2026-08-22T13:35:19Z</time>
      </trkpt>
      <trkpt lat="47.63696" lon="-2.76255">
        <ele>3.1</ele>
        <time>2026-08-22T13:35:20Z</time>
      </trkpt>
      <trkpt lat="47.63691" lon="-2.76253">
        <ele>3.1</ele>
        <time>2026-08-22T13:35:21Z</time>
      </trkpt>
      <trkpt lat="47.63687" lon="-2.76251">
        <ele>3.3</ele>
        <time>2026-08-22T13:35:22Z</time>
      </trkpt>
      <trkpt lat="47.63683" lon="-2.76249">
        <ele>3.4</ele>
        <time>2026-08-22T13:35:23Z</time>
      </trkpt>
      <trkpt lat="47.63678" lon="-2.76247">
        <ele>3.5</ele>
        <time>2026-08-22T13:35:24Z</time>
      </trkpt>
      <trkpt lat="47.63673" lon="-2.76245">
        <ele>3.6</ele>
        <time>2026-08-22T13:35:25Z</time>
      </trkpt>
      <trkpt lat="47.63669" lon="-2.76243">
        <ele>3.7</ele>
        <time>2026-08-22T13:35:26Z</time>
      </trkpt>
      <trkpt lat="47.63664" lon="-2.76241">
        <ele>3.6</ele>
        <time>2026-08-22T13:35:27Z</time>
      </trkpt>
      <trkpt lat="47.6366" lon="-2.7624">
        <ele>3.5</ele>
        <time>2026-08-22T13:35:28Z</time>
      </trkpt>
      <trkpt lat="47.63655" lon="-2.76238">
        <ele>3.3</ele>
        <time>2026-08-22T13:35:29Z</time>
      </trkpt>
      <trkpt lat="47.63651" lon="-2.76236">
        <ele>3.2</ele>
        <time>2026-08-22T13:35:30Z</time>
      </trkpt>
      <trkpt lat="47.63647" lon="-2.76234">
        <ele>3.1</ele>
        <time>2026-08-22T13:35:31Z</time>
      </trkpt>
      <trkpt lat="47.63642" lon="-2.76232">
        <ele>3</ele>
        <time>2026-08-22T13:35:32Z</time>
      </trkpt>
      <trkpt lat="47.63638" lon="-2.7623">
        <ele>3</ele>
        <time>2026-08-22T13:35:33Z</time>
      </trkpt>
      <trkpt lat="47.63633" lon="-2.76229">
        <ele>3</ele>
        <time>2026-08-22T13:35:34Z</time>
      </trkpt>
      <trkpt lat="47.63628" lon="-2.76227">
        <ele>3</ele>
        <time>2026-08-22T13:35:35Z</time>
      </trkpt>
      <trkpt lat="47.63624" lon="-2.76225">
        <ele>3</ele>
        <time>2026-08-22T13:35:36Z</time>
      </trkpt>
      <trkpt lat="47.63619" lon="-2.76224">
        <ele>3</ele>
        <time>2026-08-22T13:35:37Z</time>
      </trkpt>
      <trkpt lat="47.63614" lon="-2.76223">
        <ele>3</ele>
        <time>2026-08-22T13:35:38Z</time>
      </trkpt>
      <trkpt lat="47.63609" lon="-2.76222">
        <ele>3</ele>
        <time>2026-08-22T13:35:39Z</time>
      </trkpt>
      <trkpt lat="47.63605" lon="-2.76222">
        <ele>3</ele>
        <time>2026-08-22T13:35:40Z</time>
      </trkpt>
      <trkpt lat="47.636" lon="-2.76222">
        <ele>3</ele>
        <time>2026-08-22T13:35:41Z</time>
      </trkpt>
      <trkpt lat="47.63595" lon="-2.76222">
        <ele>3</ele>
        <time>2026-08-22T13:35:42Z</time>
      </trkpt>
      <trkpt lat="47.6359" lon="-2.76222">
        <ele>3</ele>
        <time>2026-08-22T13:35:43Z</time>
      </trkpt>
      <trkpt lat="47.63585" lon="-2.76223">
        <ele>3</ele>
        <time>2026-08-22T13:35:44Z</time>
      </trkpt>
      <trkpt lat="47.63581" lon="-2.76224">
        <ele>2.9</ele>
        <time>2026-08-22T13:35:45Z</time>
      </trkpt>
      <trkpt lat="47.63576" lon="-2.76225">
        <ele>2.8</ele>
        <time>2026-08-22T13:35:46Z</time>
      </trkpt>
      <trkpt lat="47.63572" lon="-2.76225">
        <ele>2.6</ele>
        <time>2026-08-22T13:35:47Z</time>
      </trkpt>
      <trkpt lat="47.63567" lon="-2.76225">
        <ele>2.5</ele>
        <time>2026-08-22T13:35:48Z</time>
      </trkpt>
      <trkpt lat="47.63563" lon="-2.76225">
        <ele>2.3</ele>
        <time>2026-08-22T13:35:49Z</time>
      </trkpt>
      <trkpt lat="47.63558" lon="-2.76225">
        <ele>2.2</ele>
        <time>2026-08-22T13:35:50Z</time>
      </trkpt>
      <trkpt lat="47.63554" lon="-2.76225">
        <ele>2.2</ele>
        <time>2026-08-22T13:35:51Z</time>
      </trkpt>
      <trkpt lat="47.63549" lon="-2.76225">
        <ele>2.3</ele>
        <time>2026-08-22T13:35:52Z</time>
      </trkpt>
      <trkpt lat="47.63545" lon="-2.76225">
        <ele>2.4</ele>
        <time>2026-08-22T13:35:53Z</time>
      </trkpt>
      <trkpt lat="47.63541" lon="-2.76226">
        <ele>2.6</ele>
        <time>2026-08-22T13:35:54Z</time>
      </trkpt>
      <trkpt lat="47.63537" lon="-2.76226">
        <ele>2.7</ele>
        <time>2026-08-22T13:35:55Z</time>
      </trkpt>
      <trkpt lat="47.63534" lon="-2.76226">
        <ele>2.8</ele>
        <time>2026-08-22T13:35:56Z</time>
      </trkpt>
      <trkpt lat="47.6353" lon="-2.76227">
        <ele>2.9</ele>
        <time>2026-08-22T13:35:57Z</time>
      </trkpt>
      <trkpt lat="47.63526" lon="-2.76227">
        <ele>2.9</ele>
        <time>2026-08-22T13:35:58Z</time>
      </trkpt>
      <trkpt lat="47.63523" lon="-2.76227">
        <ele>2.7</ele>
        <time>2026-08-22T13:35:59Z</time>
      </trkpt>
      <trkpt lat="47.63519" lon="-2.76227">
        <ele>2.5</ele>
        <time>2026-08-22T13:36:00Z</time>
      </trkpt>
      <trkpt lat="47.63515" lon="-2.76228">
        <ele>2.3</ele>
        <time>2026-08-22T13:36:01Z</time>
      </trkpt>
      <trkpt lat="47.6351" lon="-2.76228">
        <ele>2</ele>
        <time>2026-08-22T13:36:02Z</time>
      </trkpt>
      <trkpt lat="47.63506" lon="-2.76229">
        <ele>1.8</ele>
        <time>2026-08-22T13:36:03Z</time>
      </trkpt>
      <trkpt lat="47.63502" lon="-2.76231">
        <ele>1.7</ele>
        <time>2026-08-22T13:36:04Z</time>
      </trkpt>
      <trkpt lat="47.63498" lon="-2.76232">
        <ele>2</ele>
        <time>2026-08-22T13:36:05Z</time>
      </trkpt>
      <trkpt lat="47.63493" lon="-2.76233">
        <ele>2.6</ele>
        <time>2026-08-22T13:36:06Z</time>
      </trkpt>
      <trkpt lat="47.63489" lon="-2.76233">
        <ele>3.1</ele>
        <time>2026-08-22T13:36:07Z</time>
      </trkpt>
      <trkpt lat="47.63485" lon="-2.76234">
        <ele>3.6</ele>
        <time>2026-08-22T13:36:08Z</time>
      </trkpt>
      <trkpt lat="47.6348" lon="-2.76235">
        <ele>4.2</ele>
        <time>2026-08-22T13:36:09Z</time>
      </trkpt>
      <trkpt lat="47.63476" lon="-2.76235">
        <ele>4.7</ele>
        <time>2026-08-22T13:36:10Z</time>
      </trkpt>
      <trkpt lat="47.63473" lon="-2.76236">
        <ele>4.9</ele>
        <time>2026-08-22T13:36:11Z</time>
      </trkpt>
      <trkpt lat="47.63468" lon="-2.76236">
        <ele>4.6</ele>
        <time>2026-08-22T13:36:12Z</time>
      </trkpt>
      <trkpt lat="47.63464" lon="-2.76237">
        <ele>4.2</ele>
        <time>2026-08-22T13:36:13Z</time>
      </trkpt>
      <trkpt lat="47.6346" lon="-2.76237">
        <ele>3.9</ele>
        <time>2026-08-22T13:36:14Z</time>
      </trkpt>
      <trkpt lat="47.63456" lon="-2.76238">
        <ele>3.5</ele>
        <time>2026-08-22T13:36:15Z</time>
      </trkpt>
      <trkpt lat="47.63452" lon="-2.76238">
        <ele>3.2</ele>
        <time>2026-08-22T13:36:16Z</time>
      </trkpt>
      <trkpt lat="47.63447" lon="-2.76238">
        <ele>2.8</ele>
        <time>2026-08-22T13:36:17Z</time>
      </trkpt>
      <trkpt lat="47.63442" lon="-2.76239">
        <ele>2.7</ele>
        <time>2026-08-22T13:36:18Z</time>
      </trkpt>
      <trkpt lat="47.63437" lon="-2.76239">
        <ele>2.8</ele>
        <time>2026-08-22T13:36:19Z</time>
      </trkpt>
      <trkpt lat="47.63432" lon="-2.76238">
        <ele>2.8</ele>
        <time>2026-08-22T13:36:20Z</time>
      </trkpt>
      <trkpt lat="47.63427" lon="-2.76238">
        <ele>2.9</ele>
        <time>2026-08-22T13:36:21Z</time>
      </trkpt>
      <trkpt lat="47.63422" lon="-2.76238">
        <ele>3</ele>
        <time>2026-08-22T13:36:22Z</time>
      </trkpt>
      <trkpt lat="47.63417" lon="-2.76238">
        <ele>3.1</ele>
        <time>2026-08-22T13:36:23Z</time>
      </trkpt>
      <trkpt lat="47.63412" lon="-2.76238">
        <ele>2.6</ele>
        <time>2026-08-22T13:36:24Z</time>
      </trkpt>
      <trkpt lat="47.63407" lon="-2.76238">
        <ele>2.5</ele>
        <time>2026-08-22T13:36:25Z</time>
      </trkpt>
      <trkpt lat="47.63402" lon="-2.76239">
        <ele>2.5</ele>
        <time>2026-08-22T13:36:26Z</time>
      </trkpt>
      <trkpt lat="47.63397" lon="-2.76241">
        <ele>2.5</ele>
        <time>2026-08-22T13:36:27Z</time>
      </trkpt>
      <trkpt lat="47.63392" lon="-2.76242">
        <ele>2.5</ele>
        <time>2026-08-22T13:36:28Z</time>
      </trkpt>
      <trkpt lat="47.63387" lon="-2.76244">
        <ele>2.6</ele>
        <time>2026-08-22T13:36:29Z</time>
      </trkpt>
      <trkpt lat="47.63383" lon="-2.76245">
        <ele>2.6</ele>
        <time>2026-08-22T13:36:30Z</time>
      </trkpt>
      <trkpt lat="47.63378" lon="-2.76247">
        <ele>2.8</ele>
        <time>2026-08-22T13:36:31Z</time>
      </trkpt>
      <trkpt lat="47.63374" lon="-2.76249">
        <ele>2.9</ele>
        <time>2026-08-22T13:36:32Z</time>
      </trkpt>
      <trkpt lat="47.63369" lon="-2.76251">
        <ele>3</ele>
        <time>2026-08-22T13:36:33Z</time>
      </trkpt>
      <trkpt lat="47.63365" lon="-2.76252">
        <ele>3</ele>
        <time>2026-08-22T13:36:34Z</time>
      </trkpt>
      <trkpt lat="47.6336" lon="-2.76253">
        <ele>3</ele>
        <time>2026-08-22T13:36:35Z</time>
      </trkpt>
      <trkpt lat="47.63356" lon="-2.76254">
        <ele>2.8</ele>
        <time>2026-08-22T13:36:36Z</time>
      </trkpt>
      <trkpt lat="47.63352" lon="-2.76254">
        <ele>2.7</ele>
        <time>2026-08-22T13:36:37Z</time>
      </trkpt>
      <trkpt lat="47.63347" lon="-2.76254">
        <ele>2.6</ele>
        <time>2026-08-22T13:36:38Z</time>
      </trkpt>
      <trkpt lat="47.63343" lon="-2.76255">
        <ele>2.5</ele>
        <time>2026-08-22T13:36:39Z</time>
      </trkpt>
      <trkpt lat="47.63338" lon="-2.76256">
        <ele>2.3</ele>
        <time>2026-08-22T13:36:40Z</time>
      </trkpt>
      <trkpt lat="47.63334" lon="-2.76257">
        <ele>2.3</ele>
        <time>2026-08-22T13:36:41Z</time>
      </trkpt>
      <trkpt lat="47.63329" lon="-2.76259">
        <ele>2.3</ele>
        <time>2026-08-22T13:36:42Z</time>
      </trkpt>
      <trkpt lat="47.63325" lon="-2.76261">
        <ele>2.4</ele>
        <time>2026-08-22T13:36:43Z</time>
      </trkpt>
      <trkpt lat="47.6332" lon="-2.76264">
        <ele>2.5</ele>
        <time>2026-08-22T13:36:44Z</time>
      </trkpt>
      <trkpt lat="47.63316" lon="-2.76266">
        <ele>2.6</ele>
        <time>2026-08-22T13:36:45Z</time>
      </trkpt>
      <trkpt lat="47.63311" lon="-2.76269">
        <ele>2.7</ele>
        <time>2026-08-22T13:36:46Z</time>
      </trkpt>
      <trkpt lat="47.63307" lon="-2.76272">
        <ele>2.8</ele>
        <time>2026-08-22T13:36:47Z</time>
      </trkpt>
      <trkpt lat="47.63302" lon="-2.76275">
        <ele>2.74</ele>
        <time>2026-08-22T13:36:48Z</time>
      </trkpt>
      <trkpt lat="47.63298" lon="-2.76278">
        <ele>2.5</ele>
        <time>2026-08-22T13:36:49Z</time>
      </trkpt>
      <trkpt lat="47.63294" lon="-2.76281">
        <ele>2.3</ele>
        <time>2026-08-22T13:36:50Z</time>
      </trkpt>
      <trkpt lat="47.63291" lon="-2.76284">
        <ele>2.2</ele>
        <time>2026-08-22T13:36:51Z</time>
      </trkpt>
      <trkpt lat="47.63287" lon="-2.76286">
        <ele>2.1</ele>
        <time>2026-08-22T13:36:52Z</time>
      </trkpt>
      <trkpt lat="47.63283" lon="-2.76289">
        <ele>2</ele>
        <time>2026-08-22T13:36:53Z</time>
      </trkpt>
      <trkpt lat="47.63279" lon="-2.76291">
        <ele>2</ele>
        <time>2026-08-22T13:36:54Z</time>
      </trkpt>
      <trkpt lat="47.63276" lon="-2.76294">
        <ele>2.1</ele>
        <time>2026-08-22T13:36:55Z</time>
      </trkpt>
      <trkpt lat="47.63272" lon="-2.76296">
        <ele>2</ele>
        <time>2026-08-22T13:36:56Z</time>
      </trkpt>
      <trkpt lat="47.63269" lon="-2.76299">
        <ele>2</ele>
        <time>2026-08-22T13:36:57Z</time>
      </trkpt>
      <trkpt lat="47.63265" lon="-2.76302">
        <ele>1.9</ele>
        <time>2026-08-22T13:36:58Z</time>
      </trkpt>
      <trkpt lat="47.63262" lon="-2.76305">
        <ele>1.8</ele>
        <time>2026-08-22T13:36:59Z</time>
      </trkpt>
      <trkpt lat="47.63259" lon="-2.76308">
        <ele>1.7</ele>
        <time>2026-08-22T13:37:00Z</time>
      </trkpt>
      <trkpt lat="47.63256" lon="-2.76312">
        <ele>1.7</ele>
        <time>2026-08-22T13:37:01Z</time>
      </trkpt>
      <trkpt lat="47.63253" lon="-2.76315">
        <ele>1.8</ele>
        <time>2026-08-22T13:37:02Z</time>
      </trkpt>
      <trkpt lat="47.6325" lon="-2.76319">
        <ele>2</ele>
        <time>2026-08-22T13:37:03Z</time>
      </trkpt>
      <trkpt lat="47.63247" lon="-2.76323">
        <ele>2.3</ele>
        <time>2026-08-22T13:37:04Z</time>
      </trkpt>
      <trkpt lat="47.63245" lon="-2.76326">
        <ele>2.5</ele>
        <time>2026-08-22T13:37:05Z</time>
      </trkpt>
      <trkpt lat="47.63241" lon="-2.7633">
        <ele>2.8</ele>
        <time>2026-08-22T13:37:06Z</time>
      </trkpt>
      <trkpt lat="47.63238" lon="-2.76333">
        <ele>3</ele>
        <time>2026-08-22T13:37:07Z</time>
      </trkpt>
      <trkpt lat="47.63235" lon="-2.76337">
        <ele>2.9</ele>
        <time>2026-08-22T13:37:08Z</time>
      </trkpt>
      <trkpt lat="47.63232" lon="-2.76341">
        <ele>2.8</ele>
        <time>2026-08-22T13:37:09Z</time>
      </trkpt>
      <trkpt lat="47.63229" lon="-2.76345">
        <ele>2.8</ele>
        <time>2026-08-22T13:37:10Z</time>
      </trkpt>
      <trkpt lat="47.63226" lon="-2.76349">
        <ele>2.8</ele>
        <time>2026-08-22T13:37:11Z</time>
      </trkpt>
      <trkpt lat="47.63223" lon="-2.76353">
        <ele>3</ele>
        <time>2026-08-22T13:37:12Z</time>
      </trkpt>
      <trkpt lat="47.6322" lon="-2.76358">
        <ele>2.84</ele>
        <time>2026-08-22T13:37:13Z</time>
      </trkpt>
      <trkpt lat="47.63218" lon="-2.76362">
        <ele>2.7</ele>
        <time>2026-08-22T13:37:14Z</time>
      </trkpt>
      <trkpt lat="47.63216" lon="-2.76366">
        <ele>2.6</ele>
        <time>2026-08-22T13:37:15Z</time>
      </trkpt>
      <trkpt lat="47.63214" lon="-2.76371">
        <ele>2.5</ele>
        <time>2026-08-22T13:37:16Z</time>
      </trkpt>
      <trkpt lat="47.63212" lon="-2.76375">
        <ele>2.4</ele>
        <time>2026-08-22T13:37:17Z</time>
      </trkpt>
      <trkpt lat="47.6321" lon="-2.76379">
        <ele>2.4</ele>
        <time>2026-08-22T13:37:18Z</time>
      </trkpt>
      <trkpt lat="47.63208" lon="-2.76382">
        <ele>2.4</ele>
        <time>2026-08-22T13:37:19Z</time>
      </trkpt>
      <trkpt lat="47.63205" lon="-2.76386">
        <ele>2.3</ele>
        <time>2026-08-22T13:37:20Z</time>
      </trkpt>
      <trkpt lat="47.63203" lon="-2.7639">
        <ele>2.4</ele>
        <time>2026-08-22T13:37:21Z</time>
      </trkpt>
      <trkpt lat="47.63202" lon="-2.76393">
        <ele>2.6</ele>
        <time>2026-08-22T13:37:22Z</time>
      </trkpt>
      <trkpt lat="47.63201" lon="-2.76397">
        <ele>2.9</ele>
        <time>2026-08-22T13:37:23Z</time>
      </trkpt>
      <trkpt lat="47.63199" lon="-2.76399">
        <ele>3.1</ele>
        <time>2026-08-22T13:37:24Z</time>
      </trkpt>
      <trkpt lat="47.63197" lon="-2.76401">
        <ele>3.3</ele>
        <time>2026-08-22T13:37:25Z</time>
      </trkpt>
      <trkpt lat="47.63194" lon="-2.76403">
        <ele>3.5</ele>
        <time>2026-08-22T13:37:26Z</time>
      </trkpt>
      <trkpt lat="47.63191" lon="-2.76406">
        <ele>3.6</ele>
        <time>2026-08-22T13:37:27Z</time>
      </trkpt>
      <trkpt lat="47.63188" lon="-2.76408">
        <ele>3.7</ele>
        <time>2026-08-22T13:37:28Z</time>
      </trkpt>
      <trkpt lat="47.63186" lon="-2.76411">
        <ele>3.8</ele>
        <time>2026-08-22T13:37:29Z</time>
      </trkpt>
      <trkpt lat="47.63183" lon="-2.76414">
        <ele>3.9</ele>
        <time>2026-08-22T13:37:30Z</time>
      </trkpt>
      <trkpt lat="47.63181" lon="-2.76416">
        <ele>4</ele>
        <time>2026-08-22T13:37:31Z</time>
      </trkpt>
      <trkpt lat="47.63178" lon="-2.76419">
        <ele>4</ele>
        <time>2026-08-22T13:37:32Z</time>
      </trkpt>
      <trkpt lat="47.63176" lon="-2.76422">
        <ele>4.1</ele>
        <time>2026-08-22T13:37:33Z</time>
      </trkpt>
      <trkpt lat="47.63174" lon="-2.76426">
        <ele>4.4</ele>
        <time>2026-08-22T13:37:34Z</time>
      </trkpt>
      <trkpt lat="47.63171" lon="-2.7643">
        <ele>4.6</ele>
        <time>2026-08-22T13:37:35Z</time>
      </trkpt>
      <trkpt lat="47.63169" lon="-2.76434">
        <ele>4.9</ele>
        <time>2026-08-22T13:37:36Z</time>
      </trkpt>
      <trkpt lat="47.63167" lon="-2.76439">
        <ele>5.4</ele>
        <time>2026-08-22T13:37:37Z</time>
      </trkpt>
      <trkpt lat="47.63166" lon="-2.76443">
        <ele>5.7</ele>
        <time>2026-08-22T13:37:38Z</time>
      </trkpt>
      <trkpt lat="47.63165" lon="-2.76448">
        <ele>5.9</ele>
        <time>2026-08-22T13:37:39Z</time>
      </trkpt>
      <trkpt lat="47.63163" lon="-2.76452">
        <ele>5.8</ele>
        <time>2026-08-22T13:37:40Z</time>
      </trkpt>
      <trkpt lat="47.63162" lon="-2.76457">
        <ele>5.9</ele>
        <time>2026-08-22T13:37:41Z</time>
      </trkpt>
      <trkpt lat="47.6316" lon="-2.76462">
        <ele>5.8</ele>
        <time>2026-08-22T13:37:42Z</time>
      </trkpt>
      <trkpt lat="47.63159" lon="-2.76467">
        <ele>5.8</ele>
        <time>2026-08-22T13:37:43Z</time>
      </trkpt>
      <trkpt lat="47.63158" lon="-2.76472">
        <ele>5.8</ele>
        <time>2026-08-22T13:37:44Z</time>
      </trkpt>
      <trkpt lat="47.63157" lon="-2.76477">
        <ele>5.7</ele>
        <time>2026-08-22T13:37:45Z</time>
      </trkpt>
      <trkpt lat="47.63156" lon="-2.76481">
        <ele>5.6</ele>
        <time>2026-08-22T13:37:46Z</time>
      </trkpt>
      <trkpt lat="47.63154" lon="-2.76486">
        <ele>5.3</ele>
        <time>2026-08-22T13:37:47Z</time>
      </trkpt>
      <trkpt lat="47.63153" lon="-2.76491">
        <ele>5.2</ele>
        <time>2026-08-22T13:37:48Z</time>
      </trkpt>
      <trkpt lat="47.63153" lon="-2.76496">
        <ele>5.4</ele>
        <time>2026-08-22T13:37:49Z</time>
      </trkpt>
      <trkpt lat="47.63152" lon="-2.76501">
        <ele>5.3</ele>
        <time>2026-08-22T13:37:50Z</time>
      </trkpt>
      <trkpt lat="47.63151" lon="-2.76507">
        <ele>5.2</ele>
        <time>2026-08-22T13:37:51Z</time>
      </trkpt>
      <trkpt lat="47.6315" lon="-2.76513">
        <ele>5.1</ele>
        <time>2026-08-22T13:37:52Z</time>
      </trkpt>
      <trkpt lat="47.6315" lon="-2.76519">
        <ele>5.2</ele>
        <time>2026-08-22T13:37:53Z</time>
      </trkpt>
      <trkpt lat="47.63149" lon="-2.76526">
        <ele>5.1</ele>
        <time>2026-08-22T13:37:54Z</time>
      </trkpt>
      <trkpt lat="47.63148" lon="-2.76533">
        <ele>5</ele>
        <time>2026-08-22T13:37:55Z</time>
      </trkpt>
      <trkpt lat="47.63147" lon="-2.7654">
        <ele>4.9</ele>
        <time>2026-08-22T13:37:56Z</time>
      </trkpt>
      <trkpt lat="47.63146" lon="-2.76547">
        <ele>4.9</ele>
        <time>2026-08-22T13:37:57Z</time>
      </trkpt>
      <trkpt lat="47.63144" lon="-2.76555">
        <ele>4.7</ele>
        <time>2026-08-22T13:37:58Z</time>
      </trkpt>
      <trkpt lat="47.63143" lon="-2.76564">
        <ele>4.8</ele>
        <time>2026-08-22T13:37:59Z</time>
      </trkpt>
      <trkpt lat="47.63142" lon="-2.76571">
        <ele>4.9</ele>
        <time>2026-08-22T13:38:00Z</time>
      </trkpt>
      <trkpt lat="47.63142" lon="-2.76577">
        <ele>5</ele>
        <time>2026-08-22T13:38:01Z</time>
      </trkpt>
      <trkpt lat="47.63139" lon="-2.76583">
        <ele>5</ele>
        <time>2026-08-22T13:38:02Z</time>
      </trkpt>
      <trkpt lat="47.63137" lon="-2.76588">
        <ele>4.9</ele>
        <time>2026-08-22T13:38:03Z</time>
      </trkpt>
      <trkpt lat="47.63135" lon="-2.76594">
        <ele>4.8</ele>
        <time>2026-08-22T13:38:04Z</time>
      </trkpt>
      <trkpt lat="47.63134" lon="-2.766">
        <ele>4.9</ele>
        <time>2026-08-22T13:38:05Z</time>
      </trkpt>
      <trkpt lat="47.63132" lon="-2.76605">
        <ele>4.8</ele>
        <time>2026-08-22T13:38:06Z</time>
      </trkpt>
      <trkpt lat="47.63132" lon="-2.7661">
        <ele>5</ele>
        <time>2026-08-22T13:38:07Z</time>
      </trkpt>
      <trkpt lat="47.63131" lon="-2.76614">
        <ele>5</ele>
        <time>2026-08-22T13:38:08Z</time>
      </trkpt>
      <trkpt lat="47.6313" lon="-2.76618">
        <ele>5</ele>
        <time>2026-08-22T13:38:09Z</time>
      </trkpt>
      <trkpt lat="47.6313" lon="-2.76622">
        <ele>5.1</ele>
        <time>2026-08-22T13:38:10Z</time>
      </trkpt>
      <trkpt lat="47.63128" lon="-2.76627">
        <ele>5</ele>
        <time>2026-08-22T13:38:11Z</time>
      </trkpt>
      <trkpt lat="47.63127" lon="-2.76631">
        <ele>5</ele>
        <time>2026-08-22T13:38:12Z</time>
      </trkpt>
      <trkpt lat="47.63125" lon="-2.76637">
        <ele>4.9</ele>
        <time>2026-08-22T13:38:13Z</time>
      </trkpt>
      <trkpt lat="47.63124" lon="-2.76642">
        <ele>5.1</ele>
        <time>2026-08-22T13:38:14Z</time>
      </trkpt>
      <trkpt lat="47.63123" lon="-2.76647">
        <ele>5.3</ele>
        <time>2026-08-22T13:38:15Z</time>
      </trkpt>
      <trkpt lat="47.63123" lon="-2.76652">
        <ele>5.7</ele>
        <time>2026-08-22T13:38:16Z</time>
      </trkpt>
      <trkpt lat="47.63123" lon="-2.76656">
        <ele>6</ele>
        <time>2026-08-22T13:38:17Z</time>
      </trkpt>
      <trkpt lat="47.63121" lon="-2.76659">
        <ele>6.1</ele>
        <time>2026-08-22T13:38:18Z</time>
      </trkpt>
      <trkpt lat="47.63118" lon="-2.76664">
        <ele>6.3</ele>
        <time>2026-08-22T13:38:19Z</time>
      </trkpt>
      <trkpt lat="47.63115" lon="-2.76668">
        <ele>6.3</ele>
        <time>2026-08-22T13:38:20Z</time>
      </trkpt>
      <trkpt lat="47.63112" lon="-2.76673">
        <ele>6.3</ele>
        <time>2026-08-22T13:38:21Z</time>
      </trkpt>
      <trkpt lat="47.63109" lon="-2.76678">
        <ele>6</ele>
        <time>2026-08-22T13:38:22Z</time>
      </trkpt>
      <trkpt lat="47.63108" lon="-2.76683">
        <ele>6</ele>
        <time>2026-08-22T13:38:23Z</time>
      </trkpt>
      <trkpt lat="47.63107" lon="-2.76687">
        <ele>5.9</ele>
        <time>2026-08-22T13:38:24Z</time>
      </trkpt>
      <trkpt lat="47.63105" lon="-2.76692">
        <ele>5.6</ele>
        <time>2026-08-22T13:38:25Z</time>
      </trkpt>
      <trkpt lat="47.631" lon="-2.76698">
        <ele>4.8</ele>
        <time>2026-08-22T13:38:26Z</time>
      </trkpt>
      <trkpt lat="47.63096" lon="-2.76704">
        <ele>4.5</ele>
        <time>2026-08-22T13:38:27Z</time>
      </trkpt>
      <trkpt lat="47.63092" lon="-2.7671">
        <ele>4.2</ele>
        <time>2026-08-22T13:38:28Z</time>
      </trkpt>
      <trkpt lat="47.6309" lon="-2.76716">
        <ele>4.4</ele>
        <time>2026-08-22T13:38:29Z</time>
      </trkpt>
      <trkpt lat="47.63088" lon="-2.76721">
        <ele>4.6</ele>
        <time>2026-08-22T13:38:30Z</time>
      </trkpt>
      <trkpt lat="47.63087" lon="-2.76726">
        <ele>4.9</ele>
        <time>2026-08-22T13:38:31Z</time>
      </trkpt>
      <trkpt lat="47.63085" lon="-2.76731">
        <ele>5.2</ele>
        <time>2026-08-22T13:38:32Z</time>
      </trkpt>
      <trkpt lat="47.63084" lon="-2.76737">
        <ele>5.7</ele>
        <time>2026-08-22T13:38:33Z</time>
      </trkpt>
      <trkpt lat="47.63082" lon="-2.76742">
        <ele>5.9</ele>
        <time>2026-08-22T13:38:34Z</time>
      </trkpt>
      <trkpt lat="47.6308" lon="-2.76746">
        <ele>6</ele>
        <time>2026-08-22T13:38:35Z</time>
      </trkpt>
      <trkpt lat="47.63079" lon="-2.7675">
        <ele>6.1</ele>
        <time>2026-08-22T13:38:36Z</time>
      </trkpt>
      <trkpt lat="47.63078" lon="-2.76753">
        <ele>6</ele>
        <time>2026-08-22T13:38:37Z</time>
      </trkpt>
      <trkpt lat="47.63077" lon="-2.76756">
        <ele>5.8</ele>
        <time>2026-08-22T13:38:38Z</time>
      </trkpt>
      <trkpt lat="47.63076" lon="-2.76759">
        <ele>5.7</ele>
        <time>2026-08-22T13:38:39Z</time>
      </trkpt>
      <trkpt lat="47.63075" lon="-2.76762">
        <ele>5.6</ele>
        <time>2026-08-22T13:38:40Z</time>
      </trkpt>
      <trkpt lat="47.63073" lon="-2.76764">
        <ele>5.3</ele>
        <time>2026-08-22T13:38:41Z</time>
      </trkpt>
      <trkpt lat="47.63072" lon="-2.76768">
        <ele>5.2</ele>
        <time>2026-08-22T13:38:42Z</time>
      </trkpt>
      <trkpt lat="47.6307" lon="-2.76773">
        <ele>4.9</ele>
        <time>2026-08-22T13:38:43Z</time>
      </trkpt>
      <trkpt lat="47.63069" lon="-2.76778">
        <ele>4.9</ele>
        <time>2026-08-22T13:38:44Z</time>
      </trkpt>
      <trkpt lat="47.63067" lon="-2.76783">
        <ele>4.7</ele>
        <time>2026-08-22T13:38:45Z</time>
      </trkpt>
      <trkpt lat="47.63065" lon="-2.76789">
        <ele>4.6</ele>
        <time>2026-08-22T13:38:46Z</time>
      </trkpt>
      <trkpt lat="47.63063" lon="-2.76794">
        <ele>4.5</ele>
        <time>2026-08-22T13:38:47Z</time>
      </trkpt>
      <trkpt lat="47.63061" lon="-2.76801">
        <ele>4.5</ele>
        <time>2026-08-22T13:38:48Z</time>
      </trkpt>
      <trkpt lat="47.6306" lon="-2.76807">
        <ele>4.7</ele>
        <time>2026-08-22T13:38:49Z</time>
      </trkpt>
      <trkpt lat="47.6306" lon="-2.76814">
        <ele>4.9</ele>
        <time>2026-08-22T13:38:50Z</time>
      </trkpt>
      <trkpt lat="47.6306" lon="-2.7682">
        <ele>5.1</ele>
        <time>2026-08-22T13:38:51Z</time>
      </trkpt>
      <trkpt lat="47.6306" lon="-2.76826">
        <ele>5.3</ele>
        <time>2026-08-22T13:38:52Z</time>
      </trkpt>
      <trkpt lat="47.6306" lon="-2.76832">
        <ele>5.4</ele>
        <time>2026-08-22T13:38:53Z</time>
      </trkpt>
      <trkpt lat="47.63059" lon="-2.76839">
        <ele>5.4</ele>
        <time>2026-08-22T13:38:54Z</time>
      </trkpt>
      <trkpt lat="47.63059" lon="-2.76845">
        <ele>5.4</ele>
        <time>2026-08-22T13:38:55Z</time>
      </trkpt>
      <trkpt lat="47.63059" lon="-2.7685">
        <ele>5.4</ele>
        <time>2026-08-22T13:38:56Z</time>
      </trkpt>
      <trkpt lat="47.63059" lon="-2.76856">
        <ele>5.4</ele>
        <time>2026-08-22T13:38:57Z</time>
      </trkpt>
      <trkpt lat="47.63058" lon="-2.76861">
        <ele>5.3</ele>
        <time>2026-08-22T13:38:58Z</time>
      </trkpt>
      <trkpt lat="47.63057" lon="-2.76866">
        <ele>5.2</ele>
        <time>2026-08-22T13:38:59Z</time>
      </trkpt>
      <trkpt lat="47.63056" lon="-2.76871">
        <ele>5</ele>
        <time>2026-08-22T13:39:00Z</time>
      </trkpt>
      <trkpt lat="47.63055" lon="-2.76877">
        <ele>4.9</ele>
        <time>2026-08-22T13:39:01Z</time>
      </trkpt>
      <trkpt lat="47.63055" lon="-2.76883">
        <ele>4.9</ele>
        <time>2026-08-22T13:39:02Z</time>
      </trkpt>
      <trkpt lat="47.63054" lon="-2.76889">
        <ele>4.8</ele>
        <time>2026-08-22T13:39:03Z</time>
      </trkpt>
      <trkpt lat="47.63052" lon="-2.76895">
        <ele>4.7</ele>
        <time>2026-08-22T13:39:04Z</time>
      </trkpt>
      <trkpt lat="47.63051" lon="-2.76901">
        <ele>4.7</ele>
        <time>2026-08-22T13:39:05Z</time>
      </trkpt>
      <trkpt lat="47.6305" lon="-2.76908">
        <ele>4.8</ele>
        <time>2026-08-22T13:39:06Z</time>
      </trkpt>
      <trkpt lat="47.63049" lon="-2.76914">
        <ele>4.7</ele>
        <time>2026-08-22T13:39:07Z</time>
      </trkpt>
      <trkpt lat="47.63048" lon="-2.76921">
        <ele>4.7</ele>
        <time>2026-08-22T13:39:08Z</time>
      </trkpt>
      <trkpt lat="47.63046" lon="-2.76928">
        <ele>4.4</ele>
        <time>2026-08-22T13:39:09Z</time>
      </trkpt>
      <trkpt lat="47.63045" lon="-2.76934">
        <ele>4.3</ele>
        <time>2026-08-22T13:39:10Z</time>
      </trkpt>
      <trkpt lat="47.63044" lon="-2.76941">
        <ele>4.3</ele>
        <time>2026-08-22T13:39:11Z</time>
      </trkpt>
      <trkpt lat="47.63042" lon="-2.76948">
        <ele>4.1</ele>
        <time>2026-08-22T13:39:12Z</time>
      </trkpt>
      <trkpt lat="47.63041" lon="-2.76955">
        <ele>4.1</ele>
        <time>2026-08-22T13:39:13Z</time>
      </trkpt>
      <trkpt lat="47.6304" lon="-2.76962">
        <ele>4.1</ele>
        <time>2026-08-22T13:39:14Z</time>
      </trkpt>
      <trkpt lat="47.63039" lon="-2.76969">
        <ele>4.1</ele>
        <time>2026-08-22T13:39:15Z</time>
      </trkpt>
      <trkpt lat="47.63039" lon="-2.76976">
        <ele>4.1</ele>
        <time>2026-08-22T13:39:16Z</time>
      </trkpt>
      <trkpt lat="47.63039" lon="-2.76984">
        <ele>3.8</ele>
        <time>2026-08-22T13:39:17Z</time>
      </trkpt>
      <trkpt lat="47.63039" lon="-2.76991">
        <ele>3.5</ele>
        <time>2026-08-22T13:39:18Z</time>
      </trkpt>
      <trkpt lat="47.63039" lon="-2.76998">
        <ele>3.3</ele>
        <time>2026-08-22T13:39:19Z</time>
      </trkpt>
      <trkpt lat="47.63038" lon="-2.77006">
        <ele>3.2</ele>
        <time>2026-08-22T13:39:20Z</time>
      </trkpt>
      <trkpt lat="47.63038" lon="-2.77013">
        <ele>3.4</ele>
        <time>2026-08-22T13:39:21Z</time>
      </trkpt>
      <trkpt lat="47.63039" lon="-2.7702">
        <ele>3.6</ele>
        <time>2026-08-22T13:39:22Z</time>
      </trkpt>
      <trkpt lat="47.63039" lon="-2.77028">
        <ele>3.8</ele>
        <time>2026-08-22T13:39:23Z</time>
      </trkpt>
      <trkpt lat="47.6304" lon="-2.77035">
        <ele>3.7</ele>
        <time>2026-08-22T13:39:24Z</time>
      </trkpt>
      <trkpt lat="47.63041" lon="-2.77042">
        <ele>3.7</ele>
        <time>2026-08-22T13:39:25Z</time>
      </trkpt>
      <trkpt lat="47.63043" lon="-2.77048">
        <ele>3.8</ele>
        <time>2026-08-22T13:39:26Z</time>
      </trkpt>
      <trkpt lat="47.63044" lon="-2.77055">
        <ele>3.8</ele>
        <time>2026-08-22T13:39:27Z</time>
      </trkpt>
      <trkpt lat="47.63046" lon="-2.77061">
        <ele>3.8</ele>
        <time>2026-08-22T13:39:28Z</time>
      </trkpt>
      <trkpt lat="47.63048" lon="-2.77067">
        <ele>3.8</ele>
        <time>2026-08-22T13:39:29Z</time>
      </trkpt>
      <trkpt lat="47.6305" lon="-2.77073">
        <ele>3.8</ele>
        <time>2026-08-22T13:39:30Z</time>
      </trkpt>
      <trkpt lat="47.63052" lon="-2.77079">
        <ele>3.8</ele>
        <time>2026-08-22T13:39:31Z</time>
      </trkpt>
      <trkpt lat="47.63053" lon="-2.77085">
        <ele>3.7</ele>
        <time>2026-08-22T13:39:32Z</time>
      </trkpt>
      <trkpt lat="47.63055" lon="-2.77091">
        <ele>3.9</ele>
        <time>2026-08-22T13:39:33Z</time>
      </trkpt>
      <trkpt lat="47.63057" lon="-2.77097">
        <ele>4.1</ele>
        <time>2026-08-22T13:39:34Z</time>
      </trkpt>
      <trkpt lat="47.63059" lon="-2.77103">
        <ele>4.2</ele>
        <time>2026-08-22T13:39:35Z</time>
      </trkpt>
      <trkpt lat="47.63061" lon="-2.77109">
        <ele>4.4</ele>
        <time>2026-08-22T13:39:36Z</time>
      </trkpt>
      <trkpt lat="47.63062" lon="-2.77115">
        <ele>4.4</ele>
        <time>2026-08-22T13:39:37Z</time>
      </trkpt>
      <trkpt lat="47.63063" lon="-2.77121">
        <ele>4.3</ele>
        <time>2026-08-22T13:39:38Z</time>
      </trkpt>
      <trkpt lat="47.63064" lon="-2.77127">
        <ele>4.2</ele>
        <time>2026-08-22T13:39:39Z</time>
      </trkpt>
      <trkpt lat="47.63065" lon="-2.77132">
        <ele>4.2</ele>
        <time>2026-08-22T13:39:40Z</time>
      </trkpt>
      <trkpt lat="47.63067" lon="-2.77138">
        <ele>4.3</ele>
        <time>2026-08-22T13:39:41Z</time>
      </trkpt>
      <trkpt lat="47.63068" lon="-2.77144">
        <ele>4.1</ele>
        <time>2026-08-22T13:39:42Z</time>
      </trkpt>
      <trkpt lat="47.63069" lon="-2.77149">
        <ele>4.1</ele>
        <time>2026-08-22T13:39:43Z</time>
      </trkpt>
      <trkpt lat="47.6307" lon="-2.77155">
        <ele>4</ele>
        <time>2026-08-22T13:39:44Z</time>
      </trkpt>
      <trkpt lat="47.6307" lon="-2.77161">
        <ele>3.8</ele>
        <time>2026-08-22T13:39:45Z</time>
      </trkpt>
      <trkpt lat="47.63071" lon="-2.77167">
        <ele>3.8</ele>
        <time>2026-08-22T13:39:46Z</time>
      </trkpt>
      <trkpt lat="47.63072" lon="-2.77174">
        <ele>4</ele>
        <time>2026-08-22T13:39:47Z</time>
      </trkpt>
      <trkpt lat="47.63074" lon="-2.77179">
        <ele>4.3</ele>
        <time>2026-08-22T13:39:48Z</time>
      </trkpt>
      <trkpt lat="47.63076" lon="-2.77185">
        <ele>4.7</ele>
        <time>2026-08-22T13:39:49Z</time>
      </trkpt>
      <trkpt lat="47.63077" lon="-2.77191">
        <ele>4.9</ele>
        <time>2026-08-22T13:39:50Z</time>
      </trkpt>
      <trkpt lat="47.63077" lon="-2.77197">
        <ele>4.8</ele>
        <time>2026-08-22T13:39:51Z</time>
      </trkpt>
      <trkpt lat="47.63078" lon="-2.77203">
        <ele>4.8</ele>
        <time>2026-08-22T13:39:52Z</time>
      </trkpt>
      <trkpt lat="47.63079" lon="-2.7721">
        <ele>4.7</ele>
        <time>2026-08-22T13:39:53Z</time>
      </trkpt>
      <trkpt lat="47.63079" lon="-2.77216">
        <ele>4.6</ele>
        <time>2026-08-22T13:39:54Z</time>
      </trkpt>
      <trkpt lat="47.6308" lon="-2.77223">
        <ele>4.5</ele>
        <time>2026-08-22T13:39:55Z</time>
      </trkpt>
      <trkpt lat="47.63081" lon="-2.77229">
        <ele>4.7</ele>
        <time>2026-08-22T13:39:56Z</time>
      </trkpt>
      <trkpt lat="47.63082" lon="-2.77236">
        <ele>4.8</ele>
        <time>2026-08-22T13:39:57Z</time>
      </trkpt>
      <trkpt lat="47.63083" lon="-2.77243">
        <ele>5</ele>
        <time>2026-08-22T13:39:58Z</time>
      </trkpt>
      <trkpt lat="47.63085" lon="-2.77249">
        <ele>5.1</ele>
        <time>2026-08-22T13:39:59Z</time>
      </trkpt>
      <trkpt lat="47.63085" lon="-2.77256">
        <ele>4.9</ele>
        <time>2026-08-22T13:40:00Z</time>
      </trkpt>
      <trkpt lat="47.63087" lon="-2.77264">
        <ele>4.7</ele>
        <time>2026-08-22T13:40:01Z</time>
      </trkpt>
      <trkpt lat="47.63088" lon="-2.77271">
        <ele>4.5</ele>
        <time>2026-08-22T13:40:02Z</time>
      </trkpt>
      <trkpt lat="47.6309" lon="-2.77278">
        <ele>4.5</ele>
        <time>2026-08-22T13:40:03Z</time>
      </trkpt>
      <trkpt lat="47.63092" lon="-2.77284">
        <ele>4.4</ele>
        <time>2026-08-22T13:40:04Z</time>
      </trkpt>
      <trkpt lat="47.63094" lon="-2.77291">
        <ele>4.3</ele>
        <time>2026-08-22T13:40:05Z</time>
      </trkpt>
      <trkpt lat="47.63097" lon="-2.77298">
        <ele>4.3</ele>
        <time>2026-08-22T13:40:06Z</time>
      </trkpt>
      <trkpt lat="47.631" lon="-2.77305">
        <ele>4.2</ele>
        <time>2026-08-22T13:40:07Z</time>
      </trkpt>
      <trkpt lat="47.63102" lon="-2.77312">
        <ele>4.1</ele>
        <time>2026-08-22T13:40:08Z</time>
      </trkpt>
      <trkpt lat="47.63105" lon="-2.77318">
        <ele>4.1</ele>
        <time>2026-08-22T13:40:09Z</time>
      </trkpt>
      <trkpt lat="47.63108" lon="-2.77324">
        <ele>4.1</ele>
        <time>2026-08-22T13:40:10Z</time>
      </trkpt>
      <trkpt lat="47.63111" lon="-2.7733">
        <ele>4.1</ele>
        <time>2026-08-22T13:40:11Z</time>
      </trkpt>
      <trkpt lat="47.63114" lon="-2.77336">
        <ele>3.9</ele>
        <time>2026-08-22T13:40:12Z</time>
      </trkpt>
      <trkpt lat="47.63117" lon="-2.77343">
        <ele>3.7</ele>
        <time>2026-08-22T13:40:13Z</time>
      </trkpt>
      <trkpt lat="47.63121" lon="-2.77348">
        <ele>3.7</ele>
        <time>2026-08-22T13:40:14Z</time>
      </trkpt>
      <trkpt lat="47.63124" lon="-2.77354">
        <ele>3.7</ele>
        <time>2026-08-22T13:40:15Z</time>
      </trkpt>
      <trkpt lat="47.63126" lon="-2.77359">
        <ele>3.7</ele>
        <time>2026-08-22T13:40:16Z</time>
      </trkpt>
      <trkpt lat="47.63129" lon="-2.77364">
        <ele>3.8</ele>
        <time>2026-08-22T13:40:17Z</time>
      </trkpt>
      <trkpt lat="47.63132" lon="-2.77368">
        <ele>4</ele>
        <time>2026-08-22T13:40:18Z</time>
      </trkpt>
      <trkpt lat="47.63135" lon="-2.77373">
        <ele>4.2</ele>
        <time>2026-08-22T13:40:19Z</time>
      </trkpt>
      <trkpt lat="47.63138" lon="-2.77378">
        <ele>4.3</ele>
        <time>2026-08-22T13:40:20Z</time>
      </trkpt>
      <trkpt lat="47.63141" lon="-2.77383">
        <ele>4.4</ele>
        <time>2026-08-22T13:40:21Z</time>
      </trkpt>
      <trkpt lat="47.63144" lon="-2.77387">
        <ele>4.6</ele>
        <time>2026-08-22T13:40:22Z</time>
      </trkpt>
      <trkpt lat="47.63147" lon="-2.77392">
        <ele>4.7</ele>
        <time>2026-08-22T13:40:23Z</time>
      </trkpt>
      <trkpt lat="47.6315" lon="-2.77396">
        <ele>4.8</ele>
        <time>2026-08-22T13:40:24Z</time>
      </trkpt>
      <trkpt lat="47.63153" lon="-2.77399">
        <ele>5</ele>
        <time>2026-08-22T13:40:25Z</time>
      </trkpt>
      <trkpt lat="47.63156" lon="-2.77403">
        <ele>5.1</ele>
        <time>2026-08-22T13:40:26Z</time>
      </trkpt>
      <trkpt lat="47.63158" lon="-2.77407">
        <ele>5.2</ele>
        <time>2026-08-22T13:40:27Z</time>
      </trkpt>
      <trkpt lat="47.63161" lon="-2.77411">
        <ele>5.4</ele>
        <time>2026-08-22T13:40:28Z</time>
      </trkpt>
      <trkpt lat="47.63163" lon="-2.77415">
        <ele>5.5</ele>
        <time>2026-08-22T13:40:29Z</time>
      </trkpt>
      <trkpt lat="47.63165" lon="-2.77419">
        <ele>5.4</ele>
        <time>2026-08-22T13:40:30Z</time>
      </trkpt>
      <trkpt lat="47.63169" lon="-2.77423">
        <ele>5.3</ele>
        <time>2026-08-22T13:40:31Z</time>
      </trkpt>
      <trkpt lat="47.63172" lon="-2.77426">
        <ele>5.2</ele>
        <time>2026-08-22T13:40:32Z</time>
      </trkpt>
      <trkpt lat="47.63175" lon="-2.7743">
        <ele>5.1</ele>
        <time>2026-08-22T13:40:33Z</time>
      </trkpt>
      <trkpt lat="47.63178" lon="-2.77435">
        <ele>5</ele>
        <time>2026-08-22T13:40:34Z</time>
      </trkpt>
      <trkpt lat="47.63181" lon="-2.77439">
        <ele>5.1</ele>
        <time>2026-08-22T13:40:35Z</time>
      </trkpt>
      <trkpt lat="47.63185" lon="-2.77443">
        <ele>5.4</ele>
        <time>2026-08-22T13:40:36Z</time>
      </trkpt>
      <trkpt lat="47.63188" lon="-2.77447">
        <ele>5.7</ele>
        <time>2026-08-22T13:40:37Z</time>
      </trkpt>
      <trkpt lat="47.6319" lon="-2.77452">
        <ele>5.9</ele>
        <time>2026-08-22T13:40:38Z</time>
      </trkpt>
      <trkpt lat="47.63193" lon="-2.77456">
        <ele>6.3</ele>
        <time>2026-08-22T13:40:39Z</time>
      </trkpt>
      <trkpt lat="47.63196" lon="-2.77461">
        <ele>6.5</ele>
        <time>2026-08-22T13:40:40Z</time>
      </trkpt>
      <trkpt lat="47.63198" lon="-2.77465">
        <ele>6.5</ele>
        <time>2026-08-22T13:40:41Z</time>
      </trkpt>
      <trkpt lat="47.632" lon="-2.7747">
        <ele>6.5</ele>
        <time>2026-08-22T13:40:42Z</time>
      </trkpt>
      <trkpt lat="47.63202" lon="-2.77475">
        <ele>6.2</ele>
        <time>2026-08-22T13:40:43Z</time>
      </trkpt>
      <trkpt lat="47.63204" lon="-2.77481">
        <ele>5.8</ele>
        <time>2026-08-22T13:40:44Z</time>
      </trkpt>
      <trkpt lat="47.63206" lon="-2.77488">
        <ele>5.3</ele>
        <time>2026-08-22T13:40:45Z</time>
      </trkpt>
      <trkpt lat="47.63208" lon="-2.77495">
        <ele>4.9</ele>
        <time>2026-08-22T13:40:46Z</time>
      </trkpt>
      <trkpt lat="47.63209" lon="-2.77501">
        <ele>4.6</ele>
        <time>2026-08-22T13:40:47Z</time>
      </trkpt>
      <trkpt lat="47.63211" lon="-2.77507">
        <ele>4.7</ele>
        <time>2026-08-22T13:40:48Z</time>
      </trkpt>
      <trkpt lat="47.63213" lon="-2.77513">
        <ele>4.9</ele>
        <time>2026-08-22T13:40:49Z</time>
      </trkpt>
      <trkpt lat="47.63216" lon="-2.7752">
        <ele>5.2</ele>
        <time>2026-08-22T13:40:50Z</time>
      </trkpt>
      <trkpt lat="47.63218" lon="-2.77526">
        <ele>5.3</ele>
        <time>2026-08-22T13:40:51Z</time>
      </trkpt>
      <trkpt lat="47.63221" lon="-2.77532">
        <ele>5.5</ele>
        <time>2026-08-22T13:40:52Z</time>
      </trkpt>
      <trkpt lat="47.63223" lon="-2.77538">
        <ele>5.4</ele>
        <time>2026-08-22T13:40:53Z</time>
      </trkpt>
      <trkpt lat="47.63225" lon="-2.77544">
        <ele>5.2</ele>
        <time>2026-08-22T13:40:54Z</time>
      </trkpt>
      <trkpt lat="47.63228" lon="-2.7755">
        <ele>5.2</ele>
        <time>2026-08-22T13:40:55Z</time>
      </trkpt>
      <trkpt lat="47.6323" lon="-2.77556">
        <ele>5.1</ele>
        <time>2026-08-22T13:40:56Z</time>
      </trkpt>
      <trkpt lat="47.63232" lon="-2.77562">
        <ele>5</ele>
        <time>2026-08-22T13:40:57Z</time>
      </trkpt>
      <trkpt lat="47.63234" lon="-2.77567">
        <ele>5</ele>
        <time>2026-08-22T13:40:58Z</time>
      </trkpt>
      <trkpt lat="47.63236" lon="-2.77573">
        <ele>5</ele>
        <time>2026-08-22T13:40:59Z</time>
      </trkpt>
      <trkpt lat="47.63239" lon="-2.77579">
        <ele>5.2</ele>
        <time>2026-08-22T13:41:00Z</time>
      </trkpt>
      <trkpt lat="47.63241" lon="-2.77584">
        <ele>5.4</ele>
        <time>2026-08-22T13:41:01Z</time>
      </trkpt>
      <trkpt lat="47.63243" lon="-2.7759">
        <ele>5.5</ele>
        <time>2026-08-22T13:41:02Z</time>
      </trkpt>
      <trkpt lat="47.63245" lon="-2.77595">
        <ele>5.7</ele>
        <time>2026-08-22T13:41:03Z</time>
      </trkpt>
      <trkpt lat="47.63247" lon="-2.776">
        <ele>5.9</ele>
        <time>2026-08-22T13:41:04Z</time>
      </trkpt>
      <trkpt lat="47.63249" lon="-2.77606">
        <ele>6</ele>
        <time>2026-08-22T13:41:05Z</time>
      </trkpt>
      <trkpt lat="47.63251" lon="-2.77611">
        <ele>6.1</ele>
        <time>2026-08-22T13:41:06Z</time>
      </trkpt>
      <trkpt lat="47.63253" lon="-2.77616">
        <ele>5.7</ele>
        <time>2026-08-22T13:41:07Z</time>
      </trkpt>
      <trkpt lat="47.63255" lon="-2.77623">
        <ele>5.2</ele>
        <time>2026-08-22T13:41:08Z</time>
      </trkpt>
      <trkpt lat="47.63257" lon="-2.77629">
        <ele>4.7</ele>
        <time>2026-08-22T13:41:09Z</time>
      </trkpt>
      <trkpt lat="47.63259" lon="-2.77636">
        <ele>4.3</ele>
        <time>2026-08-22T13:41:10Z</time>
      </trkpt>
      <trkpt lat="47.63261" lon="-2.77644">
        <ele>4</ele>
        <time>2026-08-22T13:41:11Z</time>
      </trkpt>
      <trkpt lat="47.63263" lon="-2.77651">
        <ele>4</ele>
        <time>2026-08-22T13:41:12Z</time>
      </trkpt>
      <trkpt lat="47.63267" lon="-2.77659">
        <ele>4.1</ele>
        <time>2026-08-22T13:41:13Z</time>
      </trkpt>
      <trkpt lat="47.6327" lon="-2.77667">
        <ele>4.2</ele>
        <time>2026-08-22T13:41:14Z</time>
      </trkpt>
      <trkpt lat="47.63272" lon="-2.77675">
        <ele>4.1</ele>
        <time>2026-08-22T13:41:15Z</time>
      </trkpt>
      <trkpt lat="47.63274" lon="-2.77684">
        <ele>4.1</ele>
        <time>2026-08-22T13:41:16Z</time>
      </trkpt>
      <trkpt lat="47.63276" lon="-2.77692">
        <ele>4</ele>
        <time>2026-08-22T13:41:17Z</time>
      </trkpt>
      <trkpt lat="47.63278" lon="-2.777">
        <ele>4</ele>
        <time>2026-08-22T13:41:18Z</time>
      </trkpt>
      <trkpt lat="47.6328" lon="-2.77708">
        <ele>4.1</ele>
        <time>2026-08-22T13:41:19Z</time>
      </trkpt>
      <trkpt lat="47.63282" lon="-2.77715">
        <ele>4.2</ele>
        <time>2026-08-22T13:41:20Z</time>
      </trkpt>
      <trkpt lat="47.63284" lon="-2.77722">
        <ele>4.2</ele>
        <time>2026-08-22T13:41:21Z</time>
      </trkpt>
      <trkpt lat="47.63286" lon="-2.77729">
        <ele>4.1</ele>
        <time>2026-08-22T13:41:22Z</time>
      </trkpt>
      <trkpt lat="47.63288" lon="-2.77736">
        <ele>4.1</ele>
        <time>2026-08-22T13:41:23Z</time>
      </trkpt>
      <trkpt lat="47.6329" lon="-2.77743">
        <ele>4</ele>
        <time>2026-08-22T13:41:24Z</time>
      </trkpt>
      <trkpt lat="47.63291" lon="-2.7775">
        <ele>4</ele>
        <time>2026-08-22T13:41:25Z</time>
      </trkpt>
      <trkpt lat="47.63292" lon="-2.77758">
        <ele>4</ele>
        <time>2026-08-22T13:41:26Z</time>
      </trkpt>
      <trkpt lat="47.63293" lon="-2.77765">
        <ele>4.1</ele>
        <time>2026-08-22T13:41:27Z</time>
      </trkpt>
      <trkpt lat="47.63293" lon="-2.77773">
        <ele>4.1</ele>
        <time>2026-08-22T13:41:28Z</time>
      </trkpt>
      <trkpt lat="47.63294" lon="-2.77779">
        <ele>4.1</ele>
        <time>2026-08-22T13:41:29Z</time>
      </trkpt>
      <trkpt lat="47.63295" lon="-2.77786">
        <ele>4</ele>
        <time>2026-08-22T13:41:30Z</time>
      </trkpt>
      <trkpt lat="47.63296" lon="-2.77793">
        <ele>3.9</ele>
        <time>2026-08-22T13:41:31Z</time>
      </trkpt>
      <trkpt lat="47.63296" lon="-2.77799">
        <ele>3.8</ele>
        <time>2026-08-22T13:41:32Z</time>
      </trkpt>
      <trkpt lat="47.63297" lon="-2.77806">
        <ele>3.8</ele>
        <time>2026-08-22T13:41:33Z</time>
      </trkpt>
      <trkpt lat="47.63298" lon="-2.77812">
        <ele>3.7</ele>
        <time>2026-08-22T13:41:34Z</time>
      </trkpt>
      <trkpt lat="47.63299" lon="-2.7782">
        <ele>3.7</ele>
        <time>2026-08-22T13:41:35Z</time>
      </trkpt>
      <trkpt lat="47.633" lon="-2.77827">
        <ele>3.6</ele>
        <time>2026-08-22T13:41:36Z</time>
      </trkpt>
      <trkpt lat="47.633" lon="-2.77834">
        <ele>3.4</ele>
        <time>2026-08-22T13:41:37Z</time>
      </trkpt>
      <trkpt lat="47.63299" lon="-2.77841">
        <ele>3.1</ele>
        <time>2026-08-22T13:41:38Z</time>
      </trkpt>
      <trkpt lat="47.63298" lon="-2.77848">
        <ele>2.8</ele>
        <time>2026-08-22T13:41:39Z</time>
      </trkpt>
      <trkpt lat="47.63297" lon="-2.77855">
        <ele>2.5</ele>
        <time>2026-08-22T13:41:40Z</time>
      </trkpt>
      <trkpt lat="47.63296" lon="-2.77861">
        <ele>2.3</ele>
        <time>2026-08-22T13:41:41Z</time>
      </trkpt>
      <trkpt lat="47.63296" lon="-2.77868">
        <ele>2.4</ele>
        <time>2026-08-22T13:41:42Z</time>
      </trkpt>
      <trkpt lat="47.63296" lon="-2.77873">
        <ele>2.5</ele>
        <time>2026-08-22T13:41:43Z</time>
      </trkpt>
      <trkpt lat="47.63296" lon="-2.77879">
        <ele>2.5</ele>
        <time>2026-08-22T13:41:44Z</time>
      </trkpt>
      <trkpt lat="47.63296" lon="-2.77885">
        <ele>2.6</ele>
        <time>2026-08-22T13:41:45Z</time>
      </trkpt>
      <trkpt lat="47.63295" lon="-2.77891">
        <ele>2.6</ele>
        <time>2026-08-22T13:41:46Z</time>
      </trkpt>
      <trkpt lat="47.63294" lon="-2.77899">
        <ele>2.6</ele>
        <time>2026-08-22T13:41:47Z</time>
      </trkpt>
      <trkpt lat="47.63293" lon="-2.77906">
        <ele>2.5</ele>
        <time>2026-08-22T13:41:48Z</time>
      </trkpt>
      <trkpt lat="47.63292" lon="-2.77914">
        <ele>2.5</ele>
        <time>2026-08-22T13:41:49Z</time>
      </trkpt>
      <trkpt lat="47.63292" lon="-2.77919">
        <ele>2.5</ele>
        <time>2026-08-22T13:41:50Z</time>
      </trkpt>
      <trkpt lat="47.63292" lon="-2.77925">
        <ele>2.5</ele>
        <time>2026-08-22T13:41:51Z</time>
      </trkpt>
      <trkpt lat="47.6329" lon="-2.7793">
        <ele>2.4</ele>
        <time>2026-08-22T13:41:52Z</time>
      </trkpt>
      <trkpt lat="47.63289" lon="-2.77936">
        <ele>2.4</ele>
        <time>2026-08-22T13:41:53Z</time>
      </trkpt>
      <trkpt lat="47.63288" lon="-2.77942">
        <ele>2.4</ele>
        <time>2026-08-22T13:41:54Z</time>
      </trkpt>
      <trkpt lat="47.63287" lon="-2.77948">
        <ele>2.4</ele>
        <time>2026-08-22T13:41:55Z</time>
      </trkpt>
      <trkpt lat="47.63286" lon="-2.77953">
        <ele>2.5</ele>
        <time>2026-08-22T13:41:56Z</time>
      </trkpt>
      <trkpt lat="47.63285" lon="-2.77959">
        <ele>2.6</ele>
        <time>2026-08-22T13:41:57Z</time>
      </trkpt>
      <trkpt lat="47.63283" lon="-2.77964">
        <ele>2.8</ele>
        <time>2026-08-22T13:41:58Z</time>
      </trkpt>
      <trkpt lat="47.6328" lon="-2.77969">
        <ele>2.9</ele>
        <time>2026-08-22T13:41:59Z</time>
      </trkpt>
      <trkpt lat="47.63277" lon="-2.77974">
        <ele>2.9</ele>
        <time>2026-08-22T13:42:00Z</time>
      </trkpt>
      <trkpt lat="47.63275" lon="-2.77979">
        <ele>2.6</ele>
        <time>2026-08-22T13:42:01Z</time>
      </trkpt>
      <trkpt lat="47.63272" lon="-2.77984">
        <ele>2.2</ele>
        <time>2026-08-22T13:42:02Z</time>
      </trkpt>
      <trkpt lat="47.6327" lon="-2.77988">
        <ele>2</ele>
        <time>2026-08-22T13:42:03Z</time>
      </trkpt>
      <trkpt lat="47.63268" lon="-2.77992">
        <ele>1.8</ele>
        <time>2026-08-22T13:42:04Z</time>
      </trkpt>
      <trkpt lat="47.63266" lon="-2.77996">
        <ele>1.7</ele>
        <time>2026-08-22T13:42:05Z</time>
      </trkpt>
      <trkpt lat="47.63264" lon="-2.77999">
        <ele>1.5</ele>
        <time>2026-08-22T13:42:06Z</time>
      </trkpt>
      <trkpt lat="47.63262" lon="-2.78001">
        <ele>1.5</ele>
        <time>2026-08-22T13:42:07Z</time>
      </trkpt>
      <trkpt lat="47.6326" lon="-2.78003">
        <ele>1.5</ele>
        <time>2026-08-22T13:42:08Z</time>
      </trkpt>
      <trkpt lat="47.63258" lon="-2.78005">
        <ele>1.6</ele>
        <time>2026-08-22T13:42:09Z</time>
      </trkpt>
      <trkpt lat="47.63256" lon="-2.78007">
        <ele>1.7</ele>
        <time>2026-08-22T13:42:10Z</time>
      </trkpt>
      <trkpt lat="47.63253" lon="-2.78009">
        <ele>1.7</ele>
        <time>2026-08-22T13:42:11Z</time>
      </trkpt>
      <trkpt lat="47.63251" lon="-2.78012">
        <ele>1.9</ele>
        <time>2026-08-22T13:42:12Z</time>
      </trkpt>
      <trkpt lat="47.63248" lon="-2.78015">
        <ele>2</ele>
        <time>2026-08-22T13:42:13Z</time>
      </trkpt>
      <trkpt lat="47.63245" lon="-2.78018">
        <ele>2.1</ele>
        <time>2026-08-22T13:42:14Z</time>
      </trkpt>
      <trkpt lat="47.63242" lon="-2.78021">
        <ele>2.1</ele>
        <time>2026-08-22T13:42:15Z</time>
      </trkpt>
      <trkpt lat="47.63239" lon="-2.78025">
        <ele>2.1</ele>
        <time>2026-08-22T13:42:16Z</time>
      </trkpt>
      <trkpt lat="47.63236" lon="-2.78029">
        <ele>2</ele>
        <time>2026-08-22T13:42:17Z</time>
      </trkpt>
      <trkpt lat="47.63232" lon="-2.78033">
        <ele>1.9</ele>
        <time>2026-08-22T13:42:18Z</time>
      </trkpt>
      <trkpt lat="47.63229" lon="-2.78037">
        <ele>2</ele>
        <time>2026-08-22T13:42:19Z</time>
      </trkpt>
      <trkpt lat="47.63225" lon="-2.78041">
        <ele>2.1</ele>
        <time>2026-08-22T13:42:20Z</time>
      </trkpt>
      <trkpt lat="47.63222" lon="-2.78044">
        <ele>2.2</ele>
        <time>2026-08-22T13:42:21Z</time>
      </trkpt>
      <trkpt lat="47.63218" lon="-2.78046">
        <ele>2.3</ele>
        <time>2026-08-22T13:42:22Z</time>
      </trkpt>
      <trkpt lat="47.63213" lon="-2.78047">
        <ele>2.4</ele>
        <time>2026-08-22T13:42:23Z</time>
      </trkpt>
      <trkpt lat="47.63209" lon="-2.78048">
        <ele>2.5</ele>
        <time>2026-08-22T13:42:24Z</time>
      </trkpt>
      <trkpt lat="47.63205" lon="-2.78048">
        <ele>2.5</ele>
        <time>2026-08-22T13:42:25Z</time>
      </trkpt>
      <trkpt lat="47.632" lon="-2.78049">
        <ele>2.5</ele>
        <time>2026-08-22T13:42:26Z</time>
      </trkpt>
      <trkpt lat="47.63196" lon="-2.7805">
        <ele>2.6</ele>
        <time>2026-08-22T13:42:27Z</time>
      </trkpt>
      <trkpt lat="47.63193" lon="-2.78051">
        <ele>2.6</ele>
        <time>2026-08-22T13:42:28Z</time>
      </trkpt>
      <trkpt lat="47.63188" lon="-2.78051">
        <ele>2.5</ele>
        <time>2026-08-22T13:42:29Z</time>
      </trkpt>
      <trkpt lat="47.63183" lon="-2.78051">
        <ele>2.3</ele>
        <time>2026-08-22T13:42:30Z</time>
      </trkpt>
      <trkpt lat="47.63179" lon="-2.7805">
        <ele>2.2</ele>
        <time>2026-08-22T13:42:31Z</time>
      </trkpt>
      <trkpt lat="47.63175" lon="-2.7805">
        <ele>2</ele>
        <time>2026-08-22T13:42:32Z</time>
      </trkpt>
      <trkpt lat="47.63172" lon="-2.78049">
        <ele>1.9</ele>
        <time>2026-08-22T13:42:33Z</time>
      </trkpt>
      <trkpt lat="47.63168" lon="-2.78049">
        <ele>1.8</ele>
        <time>2026-08-22T13:42:34Z</time>
      </trkpt>
      <trkpt lat="47.63165" lon="-2.78048">
        <ele>1.8</ele>
        <time>2026-08-22T13:42:35Z</time>
      </trkpt>
      <trkpt lat="47.63161" lon="-2.78048">
        <ele>1.9</ele>
        <time>2026-08-22T13:42:36Z</time>
      </trkpt>
      <trkpt lat="47.63158" lon="-2.78047">
        <ele>1.9</ele>
        <time>2026-08-22T13:42:37Z</time>
      </trkpt>
      <trkpt lat="47.63154" lon="-2.78046">
        <ele>2</ele>
        <time>2026-08-22T13:42:38Z</time>
      </trkpt>
      <trkpt lat="47.6315" lon="-2.78045">
        <ele>2</ele>
        <time>2026-08-22T13:42:39Z</time>
      </trkpt>
      <trkpt lat="47.63147" lon="-2.78044">
        <ele>2</ele>
        <time>2026-08-22T13:42:40Z</time>
      </trkpt>
      <trkpt lat="47.63143" lon="-2.78043">
        <ele>2</ele>
        <time>2026-08-22T13:42:41Z</time>
      </trkpt>
      <trkpt lat="47.63139" lon="-2.78041">
        <ele>2</ele>
        <time>2026-08-22T13:42:42Z</time>
      </trkpt>
      <trkpt lat="47.63135" lon="-2.7804">
        <ele>2</ele>
        <time>2026-08-22T13:42:43Z</time>
      </trkpt>
      <trkpt lat="47.63131" lon="-2.78039">
        <ele>2</ele>
        <time>2026-08-22T13:42:44Z</time>
      </trkpt>
      <trkpt lat="47.63128" lon="-2.78038">
        <ele>2</ele>
        <time>2026-08-22T13:42:45Z</time>
      </trkpt>
      <trkpt lat="47.63124" lon="-2.78037">
        <ele>2</ele>
        <time>2026-08-22T13:42:46Z</time>
      </trkpt>
      <trkpt lat="47.63121" lon="-2.78036">
        <ele>2</ele>
        <time>2026-08-22T13:42:47Z</time>
      </trkpt>
      <trkpt lat="47.63118" lon="-2.78034">
        <ele>2</ele>
        <time>2026-08-22T13:42:48Z</time>
      </trkpt>
      <trkpt lat="47.63115" lon="-2.78033">
        <ele>2.1</ele>
        <time>2026-08-22T13:42:49Z</time>
      </trkpt>
      <trkpt lat="47.63112" lon="-2.78032">
        <ele>2.1</ele>
        <time>2026-08-22T13:42:50Z</time>
      </trkpt>
      <trkpt lat="47.6311" lon="-2.78031">
        <ele>2.2</ele>
        <time>2026-08-22T13:42:51Z</time>
      </trkpt>
      <trkpt lat="47.63107" lon="-2.7803">
        <ele>2.2</ele>
        <time>2026-08-22T13:42:52Z</time>
      </trkpt>
      <trkpt lat="47.63105" lon="-2.78029">
        <ele>2.3</ele>
        <time>2026-08-22T13:42:53Z</time>
      </trkpt>
      <trkpt lat="47.63103" lon="-2.78028">
        <ele>2.3</ele>
        <time>2026-08-22T13:42:54Z</time>
      </trkpt>
      <trkpt lat="47.63101" lon="-2.78026">
        <ele>2.3</ele>
        <time>2026-08-22T13:42:55Z</time>
      </trkpt>
      <trkpt lat="47.63098" lon="-2.78025">
        <ele>2.4</ele>
        <time>2026-08-22T13:42:56Z</time>
      </trkpt>
      <trkpt lat="47.63096" lon="-2.78023">
        <ele>2.4</ele>
        <time>2026-08-22T13:42:57Z</time>
      </trkpt>
      <trkpt lat="47.63094" lon="-2.78022">
        <ele>2.4</ele>
        <time>2026-08-22T13:42:58Z</time>
      </trkpt>
      <trkpt lat="47.63092" lon="-2.78021">
        <ele>2.4</ele>
        <time>2026-08-22T13:42:59Z</time>
      </trkpt>
      <trkpt lat="47.6309" lon="-2.78019">
        <ele>2.4</ele>
        <time>2026-08-22T13:43:00Z</time>
      </trkpt>
      <trkpt lat="47.63088" lon="-2.78019">
        <ele>2.5</ele>
        <time>2026-08-22T13:43:01Z</time>
      </trkpt>
      <trkpt lat="47.63085" lon="-2.78018">
        <ele>2.6</ele>
        <time>2026-08-22T13:43:02Z</time>
      </trkpt>
      <trkpt lat="47.63083" lon="-2.78019">
        <ele>2.7</ele>
        <time>2026-08-22T13:43:03Z</time>
      </trkpt>
      <trkpt lat="47.63082" lon="-2.78022">
        <ele>2.8</ele>
        <time>2026-08-22T13:43:04Z</time>
      </trkpt>
      <trkpt lat="47.63082" lon="-2.78025">
        <ele>3</ele>
        <time>2026-08-22T13:43:05Z</time>
      </trkpt>
      <trkpt lat="47.63081" lon="-2.78028">
        <ele>3.1</ele>
        <time>2026-08-22T13:43:06Z</time>
      </trkpt>
      <trkpt lat="47.63081" lon="-2.78031">
        <ele>3.1</ele>
        <time>2026-08-22T13:43:07Z</time>
      </trkpt>
      <trkpt lat="47.6308" lon="-2.78034">
        <ele>3.1</ele>
        <time>2026-08-22T13:43:08Z</time>
      </trkpt>
      <trkpt lat="47.6308" lon="-2.78036">
        <ele>3.1</ele>
        <time>2026-08-22T13:43:09Z</time>
      </trkpt>
      <trkpt lat="47.6308" lon="-2.78038">
        <ele>3.1</ele>
        <time>2026-08-22T13:43:10Z</time>
      </trkpt>
      <trkpt lat="47.6308" lon="-2.78039">
        <ele>3.1</ele>
        <time>2026-08-22T13:43:11Z</time>
      </trkpt>
      <trkpt lat="47.6308" lon="-2.7804">
        <ele>3.1</ele>
        <time>2026-08-22T13:43:12Z</time>
      </trkpt>
      <trkpt lat="47.6308" lon="-2.78051">
        <ele>3.1</ele>
        <time>2026-08-22T13:43:20Z</time>
      </trkpt>
      <trkpt lat="47.6308" lon="-2.78054">
        <ele>3.1</ele>
        <time>2026-08-22T13:43:21Z</time>
      </trkpt>
      <trkpt lat="47.63079" lon="-2.78057">
        <ele>3.1</ele>
        <time>2026-08-22T13:43:22Z</time>
      </trkpt>
      <trkpt lat="47.63079" lon="-2.7806">
        <ele>2.9</ele>
        <time>2026-08-22T13:43:23Z</time>
      </trkpt>
      <trkpt lat="47.63077" lon="-2.78063">
        <ele>2.8</ele>
        <time>2026-08-22T13:43:24Z</time>
      </trkpt>
      <trkpt lat="47.63076" lon="-2.78066">
        <ele>2.7</ele>
        <time>2026-08-22T13:43:25Z</time>
      </trkpt>
      <trkpt lat="47.63075" lon="-2.78067">
        <ele>2.7</ele>
        <time>2026-08-22T13:43:26Z</time>
      </trkpt>
      <trkpt lat="47.63073" lon="-2.78067">
        <ele>2.9</ele>
        <time>2026-08-22T13:43:27Z</time>
      </trkpt>
      <trkpt lat="47.63071" lon="-2.78067">
        <ele>3</ele>
        <time>2026-08-22T13:43:28Z</time>
      </trkpt>
      <trkpt lat="47.63069" lon="-2.78067">
        <ele>3.1</ele>
        <time>2026-08-22T13:43:29Z</time>
      </trkpt>
      <trkpt lat="47.63067" lon="-2.78067">
        <ele>3.2</ele>
        <time>2026-08-22T13:43:30Z</time>
      </trkpt>
      <trkpt lat="47.63064" lon="-2.78067">
        <ele>3.4</ele>
        <time>2026-08-22T13:43:31Z</time>
      </trkpt>
      <trkpt lat="47.63062" lon="-2.78066">
        <ele>3.6</ele>
        <time>2026-08-22T13:43:32Z</time>
      </trkpt>
      <trkpt lat="47.6306" lon="-2.78065">
        <ele>3.7</ele>
        <time>2026-08-22T13:43:33Z</time>
      </trkpt>
      <trkpt lat="47.63057" lon="-2.78064">
        <ele>3.9</ele>
        <time>2026-08-22T13:43:34Z</time>
      </trkpt>
      <trkpt lat="47.63054" lon="-2.78062">
        <ele>4.1</ele>
        <time>2026-08-22T13:43:35Z</time>
      </trkpt>
      <trkpt lat="47.63051" lon="-2.78062">
        <ele>4.3</ele>
        <time>2026-08-22T13:43:36Z</time>
      </trkpt>
      <trkpt lat="47.63048" lon="-2.78062">
        <ele>4.5</ele>
        <time>2026-08-22T13:43:37Z</time>
      </trkpt>
      <trkpt lat="47.63044" lon="-2.78061">
        <ele>4.8</ele>
        <time>2026-08-22T13:43:38Z</time>
      </trkpt>
      <trkpt lat="47.63041" lon="-2.78061">
        <ele>5</ele>
        <time>2026-08-22T13:43:39Z</time>
      </trkpt>
      <trkpt lat="47.63038" lon="-2.7806">
        <ele>5.3</ele>
        <time>2026-08-22T13:43:40Z</time>
      </trkpt>
      <trkpt lat="47.63034" lon="-2.78059">
        <ele>5.6</ele>
        <time>2026-08-22T13:43:41Z</time>
      </trkpt>
      <trkpt lat="47.63031" lon="-2.78059">
        <ele>5.8</ele>
        <time>2026-08-22T13:43:42Z</time>
      </trkpt>
      <trkpt lat="47.63028" lon="-2.78058">
        <ele>6</ele>
        <time>2026-08-22T13:43:43Z</time>
      </trkpt>
      <trkpt lat="47.63025" lon="-2.78058">
        <ele>6</ele>
        <time>2026-08-22T13:43:44Z</time>
      </trkpt>
      <trkpt lat="47.63021" lon="-2.78058">
        <ele>6</ele>
        <time>2026-08-22T13:43:45Z</time>
      </trkpt>
      <trkpt lat="47.63018" lon="-2.78058">
        <ele>6</ele>
        <time>2026-08-22T13:43:46Z</time>
      </trkpt>
      <trkpt lat="47.63015" lon="-2.78058">
        <ele>6</ele>
        <time>2026-08-22T13:43:47Z</time>
      </trkpt>
      <trkpt lat="47.63012" lon="-2.78058">
        <ele>6</ele>
        <time>2026-08-22T13:43:48Z</time>
      </trkpt>
      <trkpt lat="47.63008" lon="-2.78058">
        <ele>6</ele>
        <time>2026-08-22T13:43:49Z</time>
      </trkpt>
      <trkpt lat="47.63005" lon="-2.78057">
        <ele>6</ele>
        <time>2026-08-22T13:43:50Z</time>
      </trkpt>
      <trkpt lat="47.63002" lon="-2.78057">
        <ele>6</ele>
        <time>2026-08-22T13:43:51Z</time>
      </trkpt>
      <trkpt lat="47.62999" lon="-2.78057">
        <ele>6</ele>
        <time>2026-08-22T13:43:52Z</time>
      </trkpt>
      <trkpt lat="47.62996" lon="-2.78057">
        <ele>5.8</ele>
        <time>2026-08-22T13:43:53Z</time>
      </trkpt>
      <trkpt lat="47.62994" lon="-2.78057">
        <ele>5.8</ele>
        <time>2026-08-22T13:43:54Z</time>
      </trkpt>
      <trkpt lat="47.62991" lon="-2.78057">
        <ele>5.7</ele>
        <time>2026-08-22T13:43:55Z</time>
      </trkpt>
      <trkpt lat="47.62987" lon="-2.78056">
        <ele>5.5</ele>
        <time>2026-08-22T13:43:56Z</time>
      </trkpt>
      <trkpt lat="47.62984" lon="-2.78054">
        <ele>5.4</ele>
        <time>2026-08-22T13:43:57Z</time>
      </trkpt>
      <trkpt lat="47.62981" lon="-2.78053">
        <ele>5.3</ele>
        <time>2026-08-22T13:43:58Z</time>
      </trkpt>
      <trkpt lat="47.62979" lon="-2.78052">
        <ele>5.3</ele>
        <time>2026-08-22T13:43:59Z</time>
      </trkpt>
      <trkpt lat="47.62976" lon="-2.78049">
        <ele>5.2</ele>
        <time>2026-08-22T13:44:00Z</time>
      </trkpt>
      <trkpt lat="47.62975" lon="-2.78046">
        <ele>5.1</ele>
        <time>2026-08-22T13:44:01Z</time>
      </trkpt>
      <trkpt lat="47.62973" lon="-2.78043">
        <ele>5</ele>
        <time>2026-08-22T13:44:02Z</time>
      </trkpt>
      <trkpt lat="47.62971" lon="-2.7804">
        <ele>4.9</ele>
        <time>2026-08-22T13:44:03Z</time>
      </trkpt>
      <trkpt lat="47.62969" lon="-2.78036">
        <ele>4.7</ele>
        <time>2026-08-22T13:44:04Z</time>
      </trkpt>
      <trkpt lat="47.62969" lon="-2.78036">
        <ele>4.7</ele>
        <time>2026-08-22T13:44:05Z</time>
      </trkpt>
      <trkpt lat="47.62969" lon="-2.78036">
        <ele>4.7</ele>
        <time>2026-08-22T13:44:06Z</time>
      </trkpt>
      <trkpt lat="47.62964" lon="-2.78024">
        <ele>4.2</ele>
        <time>2026-08-22T13:44:28Z</time>
      </trkpt>
      <trkpt lat="47.62962" lon="-2.78021">
        <ele>4</ele>
        <time>2026-08-22T13:44:29Z</time>
      </trkpt>
      <trkpt lat="47.6296" lon="-2.78018">
        <ele>3.8</ele>
        <time>2026-08-22T13:44:30Z</time>
      </trkpt>
      <trkpt lat="47.62958" lon="-2.78014">
        <ele>3.7</ele>
        <time>2026-08-22T13:44:31Z</time>
      </trkpt>
      <trkpt lat="47.62955" lon="-2.7801">
        <ele>3.5</ele>
        <time>2026-08-22T13:44:32Z</time>
      </trkpt>
      <trkpt lat="47.62953" lon="-2.78007">
        <ele>3.4</ele>
        <time>2026-08-22T13:44:33Z</time>
      </trkpt>
      <trkpt lat="47.62951" lon="-2.78003">
        <ele>3.4</ele>
        <time>2026-08-22T13:44:34Z</time>
      </trkpt>
      <trkpt lat="47.62949" lon="-2.77999">
        <ele>3.3</ele>
        <time>2026-08-22T13:44:35Z</time>
      </trkpt>
      <trkpt lat="47.62947" lon="-2.77995">
        <ele>3.2</ele>
        <time>2026-08-22T13:44:36Z</time>
      </trkpt>
      <trkpt lat="47.62944" lon="-2.77991">
        <ele>3</ele>
        <time>2026-08-22T13:44:37Z</time>
      </trkpt>
      <trkpt lat="47.62942" lon="-2.77987">
        <ele>3</ele>
        <time>2026-08-22T13:44:38Z</time>
      </trkpt>
      <trkpt lat="47.6294" lon="-2.77983">
        <ele>2.9</ele>
        <time>2026-08-22T13:44:39Z</time>
      </trkpt>
      <trkpt lat="47.62939" lon="-2.77978">
        <ele>3</ele>
        <time>2026-08-22T13:44:40Z</time>
      </trkpt>
      <trkpt lat="47.62937" lon="-2.77974">
        <ele>3</ele>
        <time>2026-08-22T13:44:41Z</time>
      </trkpt>
      <trkpt lat="47.62935" lon="-2.7797">
        <ele>3</ele>
        <time>2026-08-22T13:44:42Z</time>
      </trkpt>
      <trkpt lat="47.62933" lon="-2.77966">
        <ele>3</ele>
        <time>2026-08-22T13:44:43Z</time>
      </trkpt>
      <trkpt lat="47.62931" lon="-2.77963">
        <ele>3</ele>
        <time>2026-08-22T13:44:44Z</time>
      </trkpt>
      <trkpt lat="47.62929" lon="-2.77959">
        <ele>3</ele>
        <time>2026-08-22T13:44:45Z</time>
      </trkpt>
      <trkpt lat="47.62927" lon="-2.77955">
        <ele>3</ele>
        <time>2026-08-22T13:44:46Z</time>
      </trkpt>
      <trkpt lat="47.62925" lon="-2.77951">
        <ele>3</ele>
        <time>2026-08-22T13:44:47Z</time>
      </trkpt>
      <trkpt lat="47.62922" lon="-2.77948">
        <ele>3</ele>
        <time>2026-08-22T13:44:48Z</time>
      </trkpt>
      <trkpt lat="47.62919" lon="-2.77944">
        <ele>3</ele>
        <time>2026-08-22T13:44:49Z</time>
      </trkpt>
      <trkpt lat="47.62916" lon="-2.7794">
        <ele>3</ele>
        <time>2026-08-22T13:44:50Z</time>
      </trkpt>
      <trkpt lat="47.62914" lon="-2.77936">
        <ele>3</ele>
        <time>2026-08-22T13:44:51Z</time>
      </trkpt>
      <trkpt lat="47.62911" lon="-2.77931">
        <ele>3.1</ele>
        <time>2026-08-22T13:44:52Z</time>
      </trkpt>
      <trkpt lat="47.62909" lon="-2.77927">
        <ele>3.2</ele>
        <time>2026-08-22T13:44:53Z</time>
      </trkpt>
      <trkpt lat="47.62907" lon="-2.77923">
        <ele>3.3</ele>
        <time>2026-08-22T13:44:54Z</time>
      </trkpt>
      <trkpt lat="47.62905" lon="-2.77919">
        <ele>3.4</ele>
        <time>2026-08-22T13:44:55Z</time>
      </trkpt>
      <trkpt lat="47.62902" lon="-2.77915">
        <ele>3.5</ele>
        <time>2026-08-22T13:44:56Z</time>
      </trkpt>
      <trkpt lat="47.629" lon="-2.77911">
        <ele>3.6</ele>
        <time>2026-08-22T13:44:57Z</time>
      </trkpt>
      <trkpt lat="47.62898" lon="-2.77907">
        <ele>3.7</ele>
        <time>2026-08-22T13:44:58Z</time>
      </trkpt>
      <trkpt lat="47.62895" lon="-2.77902">
        <ele>3.8</ele>
        <time>2026-08-22T13:44:59Z</time>
      </trkpt>
      <trkpt lat="47.62893" lon="-2.77897">
        <ele>3.9</ele>
        <time>2026-08-22T13:45:00Z</time>
      </trkpt>
      <trkpt lat="47.62891" lon="-2.77892">
        <ele>3.9</ele>
        <time>2026-08-22T13:45:01Z</time>
      </trkpt>
      <trkpt lat="47.62889" lon="-2.77887">
        <ele>4</ele>
        <time>2026-08-22T13:45:02Z</time>
      </trkpt>
      <trkpt lat="47.62887" lon="-2.77882">
        <ele>4.1</ele>
        <time>2026-08-22T13:45:03Z</time>
      </trkpt>
      <trkpt lat="47.62885" lon="-2.77878">
        <ele>4.1</ele>
        <time>2026-08-22T13:45:04Z</time>
      </trkpt>
      <trkpt lat="47.62882" lon="-2.77873">
        <ele>4.2</ele>
        <time>2026-08-22T13:45:05Z</time>
      </trkpt>
      <trkpt lat="47.6288" lon="-2.77869">
        <ele>4.3</ele>
        <time>2026-08-22T13:45:06Z</time>
      </trkpt>
      <trkpt lat="47.62877" lon="-2.77864">
        <ele>4.4</ele>
        <time>2026-08-22T13:45:07Z</time>
      </trkpt>
      <trkpt lat="47.62875" lon="-2.7786">
        <ele>4.5</ele>
        <time>2026-08-22T13:45:08Z</time>
      </trkpt>
      <trkpt lat="47.62872" lon="-2.77855">
        <ele>4.5</ele>
        <time>2026-08-22T13:45:09Z</time>
      </trkpt>
      <trkpt lat="47.6287" lon="-2.7785">
        <ele>4.4</ele>
        <time>2026-08-22T13:45:10Z</time>
      </trkpt>
      <trkpt lat="47.62867" lon="-2.77846">
        <ele>4.4</ele>
        <time>2026-08-22T13:45:11Z</time>
      </trkpt>
      <trkpt lat="47.62865" lon="-2.77841">
        <ele>4.2</ele>
        <time>2026-08-22T13:45:12Z</time>
      </trkpt>
      <trkpt lat="47.62862" lon="-2.77836">
        <ele>4.1</ele>
        <time>2026-08-22T13:45:13Z</time>
      </trkpt>
      <trkpt lat="47.62859" lon="-2.77831">
        <ele>4</ele>
        <time>2026-08-22T13:45:14Z</time>
      </trkpt>
      <trkpt lat="47.62856" lon="-2.77826">
        <ele>4</ele>
        <time>2026-08-22T13:45:15Z</time>
      </trkpt>
      <trkpt lat="47.62853" lon="-2.77822">
        <ele>4</ele>
        <time>2026-08-22T13:45:16Z</time>
      </trkpt>
      <trkpt lat="47.62849" lon="-2.77818">
        <ele>4</ele>
        <time>2026-08-22T13:45:17Z</time>
      </trkpt>
      <trkpt lat="47.62846" lon="-2.77815">
        <ele>4</ele>
        <time>2026-08-22T13:45:18Z</time>
      </trkpt>
      <trkpt lat="47.62843" lon="-2.77811">
        <ele>4</ele>
        <time>2026-08-22T13:45:19Z</time>
      </trkpt>
      <trkpt lat="47.62839" lon="-2.77808">
        <ele>4</ele>
        <time>2026-08-22T13:45:20Z</time>
      </trkpt>
      <trkpt lat="47.62836" lon="-2.77804">
        <ele>4</ele>
        <time>2026-08-22T13:45:21Z</time>
      </trkpt>
      <trkpt lat="47.62833" lon="-2.778">
        <ele>4</ele>
        <time>2026-08-22T13:45:22Z</time>
      </trkpt>
      <trkpt lat="47.6283" lon="-2.77797">
        <ele>4</ele>
        <time>2026-08-22T13:45:23Z</time>
      </trkpt>
      <trkpt lat="47.62826" lon="-2.77795">
        <ele>3.9</ele>
        <time>2026-08-22T13:45:24Z</time>
      </trkpt>
      <trkpt lat="47.62823" lon="-2.77792">
        <ele>3.8</ele>
        <time>2026-08-22T13:45:25Z</time>
      </trkpt>
      <trkpt lat="47.62819" lon="-2.7779">
        <ele>3.7</ele>
        <time>2026-08-22T13:45:26Z</time>
      </trkpt>
      <trkpt lat="47.62815" lon="-2.77789">
        <ele>3.6</ele>
        <time>2026-08-22T13:45:27Z</time>
      </trkpt>
      <trkpt lat="47.62812" lon="-2.77788">
        <ele>3.5</ele>
        <time>2026-08-22T13:45:28Z</time>
      </trkpt>
      <trkpt lat="47.62809" lon="-2.77786">
        <ele>3.4</ele>
        <time>2026-08-22T13:45:29Z</time>
      </trkpt>
      <trkpt lat="47.62806" lon="-2.77784">
        <ele>3.2</ele>
        <time>2026-08-22T13:45:30Z</time>
      </trkpt>
      <trkpt lat="47.62804" lon="-2.77782">
        <ele>3.1</ele>
        <time>2026-08-22T13:45:31Z</time>
      </trkpt>
      <trkpt lat="47.62802" lon="-2.7778">
        <ele>2.9</ele>
        <time>2026-08-22T13:45:32Z</time>
      </trkpt>
      <trkpt lat="47.628" lon="-2.77778">
        <ele>2.8</ele>
        <time>2026-08-22T13:45:33Z</time>
      </trkpt>
      <trkpt lat="47.62799" lon="-2.77777">
        <ele>2.8</ele>
        <time>2026-08-22T13:45:34Z</time>
      </trkpt>
      <trkpt lat="47.62797" lon="-2.77775">
        <ele>2.7</ele>
        <time>2026-08-22T13:45:35Z</time>
      </trkpt>
      <trkpt lat="47.62796" lon="-2.77774">
        <ele>2.7</ele>
        <time>2026-08-22T13:45:36Z</time>
      </trkpt>
      <trkpt lat="47.62795" lon="-2.77773">
        <ele>2.7</ele>
        <time>2026-08-22T13:45:37Z</time>
      </trkpt>
      <trkpt lat="47.62795" lon="-2.77773">
        <ele>2.7</ele>
        <time>2026-08-22T13:45:38Z</time>
      </trkpt>
      <trkpt lat="47.62795" lon="-2.77773">
        <ele>2.7</ele>
        <time>2026-08-22T13:45:39Z</time>
      </trkpt>
      <trkpt lat="47.62791" lon="-2.77776">
        <ele>2.5</ele>
        <time>2026-08-22T13:46:11Z</time>
      </trkpt>
      <trkpt lat="47.6279" lon="-2.77775">
        <ele>2.5</ele>
        <time>2026-08-22T13:46:12Z</time>
      </trkpt>
      <trkpt lat="47.62789" lon="-2.77775">
        <ele>2.5</ele>
        <time>2026-08-22T13:46:13Z</time>
      </trkpt>
      <trkpt lat="47.62788" lon="-2.77773">
        <ele>2.5</ele>
        <time>2026-08-22T13:46:14Z</time>
      </trkpt>
      <trkpt lat="47.62787" lon="-2.77771">
        <ele>2.5</ele>
        <time>2026-08-22T13:46:15Z</time>
      </trkpt>
      <trkpt lat="47.62785" lon="-2.77769">
        <ele>2.5</ele>
        <time>2026-08-22T13:46:16Z</time>
      </trkpt>
      <trkpt lat="47.62784" lon="-2.77767">
        <ele>2.5</ele>
        <time>2026-08-22T13:46:17Z</time>
      </trkpt>
      <trkpt lat="47.62783" lon="-2.77765">
        <ele>2.6</ele>
        <time>2026-08-22T13:46:18Z</time>
      </trkpt>
      <trkpt lat="47.62783" lon="-2.77763">
        <ele>2.6</ele>
        <time>2026-08-22T13:46:19Z</time>
      </trkpt>
      <trkpt lat="47.62782" lon="-2.7776">
        <ele>2.7</ele>
        <time>2026-08-22T13:46:20Z</time>
      </trkpt>
      <trkpt lat="47.62781" lon="-2.77758">
        <ele>2.7</ele>
        <time>2026-08-22T13:46:21Z</time>
      </trkpt>
      <trkpt lat="47.62779" lon="-2.77755">
        <ele>2.8</ele>
        <time>2026-08-22T13:46:22Z</time>
      </trkpt>
      <trkpt lat="47.62778" lon="-2.77752">
        <ele>2.9</ele>
        <time>2026-08-22T13:46:23Z</time>
      </trkpt>
      <trkpt lat="47.62777" lon="-2.7775">
        <ele>2.9</ele>
        <time>2026-08-22T13:46:24Z</time>
      </trkpt>
      <trkpt lat="47.62776" lon="-2.77747">
        <ele>2.9</ele>
        <time>2026-08-22T13:46:25Z</time>
      </trkpt>
      <trkpt lat="47.62775" lon="-2.77745">
        <ele>2.8</ele>
        <time>2026-08-22T13:46:26Z</time>
      </trkpt>
      <trkpt lat="47.62774" lon="-2.77743">
        <ele>2.8</ele>
        <time>2026-08-22T13:46:27Z</time>
      </trkpt>
      <trkpt lat="47.62773" lon="-2.77741">
        <ele>2.7</ele>
        <time>2026-08-22T13:46:28Z</time>
      </trkpt>
      <trkpt lat="47.62772" lon="-2.77739">
        <ele>2.7</ele>
        <time>2026-08-22T13:46:29Z</time>
      </trkpt>
      <trkpt lat="47.62771" lon="-2.77736">
        <ele>2.6</ele>
        <time>2026-08-22T13:46:30Z</time>
      </trkpt>
      <trkpt lat="47.62769" lon="-2.77734">
        <ele>2.6</ele>
        <time>2026-08-22T13:46:31Z</time>
      </trkpt>
      <trkpt lat="47.62767" lon="-2.77731">
        <ele>2.5</ele>
        <time>2026-08-22T13:46:32Z</time>
      </trkpt>
      <trkpt lat="47.62765" lon="-2.77729">
        <ele>2.4</ele>
        <time>2026-08-22T13:46:33Z</time>
      </trkpt>
      <trkpt lat="47.62762" lon="-2.77726">
        <ele>2.4</ele>
        <time>2026-08-22T13:46:34Z</time>
      </trkpt>
      <trkpt lat="47.6276" lon="-2.77724">
        <ele>2.3</ele>
        <time>2026-08-22T13:46:35Z</time>
      </trkpt>
      <trkpt lat="47.62757" lon="-2.77722">
        <ele>2.3</ele>
        <time>2026-08-22T13:46:36Z</time>
      </trkpt>
      <trkpt lat="47.62755" lon="-2.77719">
        <ele>2.4</ele>
        <time>2026-08-22T13:46:37Z</time>
      </trkpt>
      <trkpt lat="47.62752" lon="-2.77717">
        <ele>2.4</ele>
        <time>2026-08-22T13:46:38Z</time>
      </trkpt>
      <trkpt lat="47.6275" lon="-2.77715">
        <ele>2.5</ele>
        <time>2026-08-22T13:46:39Z</time>
      </trkpt>
      <trkpt lat="47.62748" lon="-2.77714">
        <ele>2.5</ele>
        <time>2026-08-22T13:46:40Z</time>
      </trkpt>
      <trkpt lat="47.62747" lon="-2.77713">
        <ele>2.5</ele>
        <time>2026-08-22T13:46:41Z</time>
      </trkpt>
      <trkpt lat="47.62746" lon="-2.77713">
        <ele>2.4</ele>
        <time>2026-08-22T13:46:42Z</time>
      </trkpt>
      <trkpt lat="47.62745" lon="-2.77713">
        <ele>2.4</ele>
        <time>2026-08-22T13:46:43Z</time>
      </trkpt>
      <trkpt lat="47.62745" lon="-2.77713">
        <ele>2.4</ele>
        <time>2026-08-22T13:46:44Z</time>
      </trkpt>
      <trkpt lat="47.62696" lon="-2.77762">
        <time>2026-08-22T13:49:51Z</time>
      </trkpt>
      <trkpt lat="47.62695" lon="-2.7776">
        <time>2026-08-22T13:49:52Z</time>
      </trkpt>
      <trkpt lat="47.62694" lon="-2.77758">
        <time>2026-08-22T13:49:53Z</time>
      </trkpt>
      <trkpt lat="47.62692" lon="-2.77756">
        <time>2026-08-22T13:49:54Z</time>
      </trkpt>
      <trkpt lat="47.6269" lon="-2.77754">
        <time>2026-08-22T13:49:55Z</time>
      </trkpt>
      <trkpt lat="47.62689" lon="-2.77752">
        <time>2026-08-22T13:49:56Z</time>
      </trkpt>
      <trkpt lat="47.62687" lon="-2.7775">
        <time>2026-08-22T13:49:57Z</time>
      </trkpt>
      <trkpt lat="47.62685" lon="-2.77748">
        <time>2026-08-22T13:49:58Z</time>
      </trkpt>
      <trkpt lat="47.62684" lon="-2.77745">
        <time>2026-08-22T13:49:59Z</time>
      </trkpt>
      <trkpt lat="47.62682" lon="-2.77743">
        <time>2026-08-22T13:50:00Z</time>
      </trkpt>
      <trkpt lat="47.6268" lon="-2.77741">
        <time>2026-08-22T13:50:01Z</time>
      </trkpt>
      <trkpt lat="47.62678" lon="-2.77739">
        <time>2026-08-22T13:50:02Z</time>
      </trkpt>
      <trkpt lat="47.62677" lon="-2.77736">
        <time>2026-08-22T13:50:03Z</time>
      </trkpt>
      <trkpt lat="47.62675" lon="-2.77734">
        <time>2026-08-22T13:50:04Z</time>
      </trkpt>
      <trkpt lat="47.62673" lon="-2.77731">
        <time>2026-08-22T13:50:05Z</time>
      </trkpt>
      <trkpt lat="47.62671" lon="-2.77729">
        <time>2026-08-22T13:50:06Z</time>
      </trkpt>
      <trkpt lat="47.6267" lon="-2.77726">
        <time>2026-08-22T13:50:07Z</time>
      </trkpt>
      <trkpt lat="47.62668" lon="-2.77724">
        <time>2026-08-22T13:50:08Z</time>
      </trkpt>
      <trkpt lat="47.62667" lon="-2.77721">
        <time>2026-08-22T13:50:09Z</time>
      </trkpt>
      <trkpt lat="47.62665" lon="-2.77718">
        <ele>4</ele>
        <time>2026-08-22T13:50:10Z</time>
      </trkpt>
      <trkpt lat="47.62664" lon="-2.77716">
        <ele>4</ele>
        <time>2026-08-22T13:50:11Z</time>
      </trkpt>
      <trkpt lat="47.62663" lon="-2.77713">
        <ele>4</ele>
        <time>2026-08-22T13:50:12Z</time>
      </trkpt>
      <trkpt lat="47.62662" lon="-2.7771">
        <ele>4</ele>
        <time>2026-08-22T13:50:13Z</time>
      </trkpt>
      <trkpt lat="47.6266" lon="-2.77707">
        <ele>4</ele>
        <time>2026-08-22T13:50:14Z</time>
      </trkpt>
      <trkpt lat="47.62659" lon="-2.77704">
        <ele>4</ele>
        <time>2026-08-22T13:50:15Z</time>
      </trkpt>
      <trkpt lat="47.62659" lon="-2.77701">
        <ele>4</ele>
        <time>2026-08-22T13:50:16Z</time>
      </trkpt>
      <trkpt lat="47.62658" lon="-2.77698">
        <ele>4</ele>
        <time>2026-08-22T13:50:17Z</time>
      </trkpt>
      <trkpt lat="47.62657" lon="-2.77696">
        <ele>4</ele>
        <time>2026-08-22T13:50:18Z</time>
      </trkpt>
      <trkpt lat="47.62656" lon="-2.77693">
        <ele>4</ele>
        <time>2026-08-22T13:50:19Z</time>
      </trkpt>
      <trkpt lat="47.62656" lon="-2.7769">
        <ele>4</ele>
        <time>2026-08-22T13:50:20Z</time>
      </trkpt>
      <trkpt lat="47.62655" lon="-2.77687">
        <ele>4</ele>
        <time>2026-08-22T13:50:21Z</time>
      </trkpt>
      <trkpt lat="47.62655" lon="-2.77684">
        <ele>4</ele>
        <time>2026-08-22T13:50:22Z</time>
      </trkpt>
      <trkpt lat="47.62654" lon="-2.77681">
        <ele>4</ele>
        <time>2026-08-22T13:50:23Z</time>
      </trkpt>
      <trkpt lat="47.62654" lon="-2.77678">
        <ele>4</ele>
        <time>2026-08-22T13:50:24Z</time>
      </trkpt>
      <trkpt lat="47.62653" lon="-2.77675">
        <ele>4</ele>
        <time>2026-08-22T13:50:25Z</time>
      </trkpt>
      <trkpt lat="47.62653" lon="-2.77672">
        <ele>4</ele>
        <time>2026-08-22T13:50:26Z</time>
      </trkpt>
      <trkpt lat="47.62652" lon="-2.77669">
        <ele>4</ele>
        <time>2026-08-22T13:50:27Z</time>
      </trkpt>
      <trkpt lat="47.62652" lon="-2.77666">
        <time>2026-08-22T13:50:28Z</time>
      </trkpt>
      <trkpt lat="47.62651" lon="-2.77663">
        <time>2026-08-22T13:50:29Z</time>
      </trkpt>
      <trkpt lat="47.6265" lon="-2.7766">
        <time>2026-08-22T13:50:30Z</time>
      </trkpt>
      <trkpt lat="47.6265" lon="-2.77657">
        <time>2026-08-22T13:50:31Z</time>
      </trkpt>
      <trkpt lat="47.62649" lon="-2.77654">
        <time>2026-08-22T13:50:32Z</time>
      </trkpt>
      <trkpt lat="47.62648" lon="-2.77651">
        <time>2026-08-22T13:50:33Z</time>
      </trkpt>
      <trkpt lat="47.62648" lon="-2.77647">
        <time>2026-08-22T13:50:34Z</time>
      </trkpt>
      <trkpt lat="47.62647" lon="-2.77644">
        <time>2026-08-22T13:50:35Z</time>
      </trkpt>
      <trkpt lat="47.62647" lon="-2.77641">
        <time>2026-08-22T13:50:36Z</time>
      </trkpt>
      <trkpt lat="47.62646" lon="-2.77638">
        <time>2026-08-22T13:50:37Z</time>
      </trkpt>
      <trkpt lat="47.62646" lon="-2.77635">
        <time>2026-08-22T13:50:38Z</time>
      </trkpt>
      <trkpt lat="47.62645" lon="-2.77632">
        <time>2026-08-22T13:50:39Z</time>
      </trkpt>
      <trkpt lat="47.62645" lon="-2.77629">
        <time>2026-08-22T13:50:40Z</time>
      </trkpt>
      <trkpt lat="47.62644" lon="-2.77626">
        <time>2026-08-22T13:50:41Z</time>
      </trkpt>
      <trkpt lat="47.62644" lon="-2.77623">
        <time>2026-08-22T13:50:42Z</time>
      </trkpt>
      <trkpt lat="47.62644" lon="-2.7762">
        <time>2026-08-22T13:50:43Z</time>
      </trkpt>
      <trkpt lat="47.62643" lon="-2.77617">
        <time>2026-08-22T13:50:44Z</time>
      </trkpt>
      <trkpt lat="47.62643" lon="-2.77613">
        <time>2026-08-22T13:50:45Z</time>
      </trkpt>
      <trkpt lat="47.62642" lon="-2.7761">
        <time>2026-08-22T13:50:46Z</time>
      </trkpt>
      <trkpt lat="47.62642" lon="-2.77607">
        <time>2026-08-22T13:50:47Z</time>
      </trkpt>
      <trkpt lat="47.62641" lon="-2.77604">
        <time>2026-08-22T13:50:48Z</time>
      </trkpt>
      <trkpt lat="47.62641" lon="-2.77601">
        <time>2026-08-22T13:50:49Z</time>
      </trkpt>
      <trkpt lat="47.6264" lon="-2.77598">
        <time>2026-08-22T13:50:50Z</time>
      </trkpt>
      <trkpt lat="47.6264" lon="-2.77595">
        <time>2026-08-22T13:50:51Z</time>
      </trkpt>
      <trkpt lat="47.62639" lon="-2.77592">
        <time>2026-08-22T13:50:52Z</time>
      </trkpt>
      <trkpt lat="47.62639" lon="-2.77588">
        <time>2026-08-22T13:50:53Z</time>
      </trkpt>
      <trkpt lat="47.62638" lon="-2.77585">
        <ele>2</ele>
        <time>2026-08-22T13:50:54Z</time>
      </trkpt>
      <trkpt lat="47.62638" lon="-2.77582">
        <time>2026-08-22T13:50:55Z</time>
      </trkpt>
      <trkpt lat="47.62637" lon="-2.77579">
        <time>2026-08-22T13:50:56Z</time>
      </trkpt>
      <trkpt lat="47.62636" lon="-2.77576">
        <time>2026-08-22T13:50:57Z</time>
      </trkpt>
      <trkpt lat="47.62636" lon="-2.77573">
        <time>2026-08-22T13:50:58Z</time>
      </trkpt>
      <trkpt lat="47.62635" lon="-2.7757">
        <time>2026-08-22T13:50:59Z</time>
      </trkpt>
      <trkpt lat="47.62635" lon="-2.77567">
        <time>2026-08-22T13:51:00Z</time>
      </trkpt>
      <trkpt lat="47.62634" lon="-2.77564">
        <time>2026-08-22T13:51:01Z</time>
      </trkpt>
      <trkpt lat="47.62634" lon="-2.77561">
        <time>2026-08-22T13:51:02Z</time>
      </trkpt>
      <trkpt lat="47.62633" lon="-2.77558">
        <time>2026-08-22T13:51:03Z</time>
      </trkpt>
      <trkpt lat="47.62632" lon="-2.77555">
        <time>2026-08-22T13:51:04Z</time>
      </trkpt>
      <trkpt lat="47.62631" lon="-2.77552">
        <time>2026-08-22T13:51:05Z</time>
      </trkpt>
      <trkpt lat="47.62631" lon="-2.77549">
        <time>2026-08-22T13:51:06Z</time>
      </trkpt>
      <trkpt lat="47.6263" lon="-2.77546">
        <time>2026-08-22T13:51:07Z</time>
      </trkpt>
      <trkpt lat="47.62629" lon="-2.77543">
        <time>2026-08-22T13:51:08Z</time>
      </trkpt>
      <trkpt lat="47.62629" lon="-2.7754">
        <time>2026-08-22T13:51:09Z</time>
      </trkpt>
      <trkpt lat="47.62628" lon="-2.77537">
        <time>2026-08-22T13:51:10Z</time>
      </trkpt>
      <trkpt lat="47.62627" lon="-2.77534">
        <time>2026-08-22T13:51:11Z</time>
      </trkpt>
      <trkpt lat="47.62627" lon="-2.77531">
        <time>2026-08-22T13:51:12Z</time>
      </trkpt>
      <trkpt lat="47.62626" lon="-2.77528">
        <time>2026-08-22T13:51:13Z</time>
      </trkpt>
      <trkpt lat="47.62625" lon="-2.77525">
        <time>2026-08-22T13:51:14Z</time>
      </trkpt>
      <trkpt lat="47.62624" lon="-2.77522">
        <time>2026-08-22T13:51:15Z</time>
      </trkpt>
      <trkpt lat="47.62623" lon="-2.77519">
        <time>2026-08-22T13:51:16Z</time>
      </trkpt>
      <trkpt lat="47.62622" lon="-2.77516">
        <time>2026-08-22T13:51:17Z</time>
      </trkpt>
      <trkpt lat="47.62621" lon="-2.77513">
        <time>2026-08-22T13:51:18Z</time>
      </trkpt>
      <trkpt lat="47.6262" lon="-2.7751">
        <time>2026-08-22T13:51:19Z</time>
      </trkpt>
      <trkpt lat="47.62619" lon="-2.77507">
        <time>2026-08-22T13:51:20Z</time>
      </trkpt>
      <trkpt lat="47.62618" lon="-2.77504">
        <time>2026-08-22T13:51:21Z</time>
      </trkpt>
      <trkpt lat="47.62617" lon="-2.77501">
        <time>2026-08-22T13:51:22Z</time>
      </trkpt>
      <trkpt lat="47.62616" lon="-2.77498">
        <time>2026-08-22T13:51:23Z</time>
      </trkpt>
      <trkpt lat="47.62615" lon="-2.77495">
        <time>2026-08-22T13:51:24Z</time>
      </trkpt>
      <trkpt lat="47.62614" lon="-2.77492">
        <time>2026-08-22T13:51:25Z</time>
      </trkpt>
      <trkpt lat="47.62612" lon="-2.7749">
        <time>2026-08-22T13:51:26Z</time>
      </trkpt>
      <trkpt lat="47.62611" lon="-2.77487">
        <time>2026-08-22T13:51:27Z</time>
      </trkpt>
      <trkpt lat="47.6261" lon="-2.77484">
        <time>2026-08-22T13:51:28Z</time>
      </trkpt>
      <trkpt lat="47.62609" lon="-2.77481">
        <time>2026-08-22T13:51:29Z</time>
      </trkpt>
      <trkpt lat="47.62607" lon="-2.77479">
        <time>2026-08-22T13:51:30Z</time>
      </trkpt>
      <trkpt lat="47.62606" lon="-2.77476">
        <time>2026-08-22T13:51:31Z</time>
      </trkpt>
      <trkpt lat="47.62605" lon="-2.77473">
        <time>2026-08-22T13:51:32Z</time>
      </trkpt>
      <trkpt lat="47.62603" lon="-2.77471">
        <time>2026-08-22T13:51:33Z</time>
      </trkpt>
      <trkpt lat="47.62602" lon="-2.77468">
        <time>2026-08-22T13:51:34Z</time>
      </trkpt>
      <trkpt lat="47.626" lon="-2.77467">
        <time>2026-08-22T13:51:35Z</time>
      </trkpt>
      <trkpt lat="47.62598" lon="-2.77465">
        <time>2026-08-22T13:51:36Z</time>
      </trkpt>
      <trkpt lat="47.62596" lon="-2.77464">
        <time>2026-08-22T13:51:37Z</time>
      </trkpt>
      <trkpt lat="47.62594" lon="-2.77463">
        <time>2026-08-22T13:51:38Z</time>
      </trkpt>
      <trkpt lat="47.62592" lon="-2.77463">
        <time>2026-08-22T13:51:39Z</time>
      </trkpt>
      <trkpt lat="47.6259" lon="-2.77463">
        <time>2026-08-22T13:51:40Z</time>
      </trkpt>
      <trkpt lat="47.62588" lon="-2.77463">
        <time>2026-08-22T13:51:41Z</time>
      </trkpt>
      <trkpt lat="47.62586" lon="-2.77464">
        <time>2026-08-22T13:51:42Z</time>
      </trkpt>
      <trkpt lat="47.62584" lon="-2.77466">
        <time>2026-08-22T13:51:43Z</time>
      </trkpt>
      <trkpt lat="47.62582" lon="-2.77468">
        <ele>1</ele>
        <time>2026-08-22T13:51:44Z</time>
      </trkpt>
      <trkpt lat="47.6258" lon="-2.77469">
        <ele>1</ele>
        <time>2026-08-22T13:51:45Z</time>
      </trkpt>
      <trkpt lat="47.62578" lon="-2.7747">
        <ele>1</ele>
        <time>2026-08-22T13:51:46Z</time>
      </trkpt>
      <trkpt lat="47.62577" lon="-2.77471">
        <ele>1</ele>
        <time>2026-08-22T13:51:47Z</time>
      </trkpt>
      <trkpt lat="47.62576" lon="-2.77472">
        <ele>1</ele>
        <time>2026-08-22T13:51:48Z</time>
      </trkpt>
      <trkpt lat="47.62575" lon="-2.77473">
        <ele>1</ele>
        <time>2026-08-22T13:51:49Z</time>
      </trkpt>
      <trkpt lat="47.62574" lon="-2.77474">
        <ele>1</ele>
        <time>2026-08-22T13:51:50Z</time>
      </trkpt>
      <trkpt lat="47.62573" lon="-2.77474">
        <ele>1</ele>
        <time>2026-08-22T13:51:51Z</time>
      </trkpt>
      <trkpt lat="47.62573" lon="-2.77474">
        <ele>1</ele>
        <time>2026-08-22T13:51:52Z</time>
      </trkpt>
      <trkpt lat="47.62564" lon="-2.77484">
        <ele>1</ele>
        <time>2026-08-22T13:52:50Z</time>
      </trkpt>
      <trkpt lat="47.62562" lon="-2.77485">
        <ele>1</ele>
        <time>2026-08-22T13:52:51Z</time>
      </trkpt>
      <trkpt lat="47.62561" lon="-2.77486">
        <ele>1</ele>
        <time>2026-08-22T13:52:52Z</time>
      </trkpt>
      <trkpt lat="47.62559" lon="-2.77485">
        <ele>1</ele>
        <time>2026-08-22T13:52:53Z</time>
      </trkpt>
      <trkpt lat="47.62557" lon="-2.77485">
        <ele>1</ele>
        <time>2026-08-22T13:52:54Z</time>
      </trkpt>
      <trkpt lat="47.62556" lon="-2.77484">
        <ele>1</ele>
        <time>2026-08-22T13:52:55Z</time>
      </trkpt>
      <trkpt lat="47.62555" lon="-2.77485">
        <ele>1.1</ele>
        <time>2026-08-22T13:52:56Z</time>
      </trkpt>
      <trkpt lat="47.62553" lon="-2.77485">
        <ele>1.3</ele>
        <time>2026-08-22T13:52:57Z</time>
      </trkpt>
      <trkpt lat="47.62552" lon="-2.77485">
        <ele>1.4</ele>
        <time>2026-08-22T13:52:58Z</time>
      </trkpt>
      <trkpt lat="47.6255" lon="-2.77485">
        <ele>1.7</ele>
        <time>2026-08-22T13:52:59Z</time>
      </trkpt>
      <trkpt lat="47.62549" lon="-2.77485">
        <ele>1.8</ele>
        <time>2026-08-22T13:53:00Z</time>
      </trkpt>
      <trkpt lat="47.62548" lon="-2.77485">
        <ele>1.9</ele>
        <time>2026-08-22T13:53:01Z</time>
      </trkpt>
      <trkpt lat="47.62546" lon="-2.77485">
        <ele>2.2</ele>
        <time>2026-08-22T13:53:02Z</time>
      </trkpt>
      <trkpt lat="47.62545" lon="-2.77485">
        <ele>2.3</ele>
        <time>2026-08-22T13:53:03Z</time>
      </trkpt>
      <trkpt lat="47.62544" lon="-2.77485">
        <ele>2.4</ele>
        <time>2026-08-22T13:53:04Z</time>
      </trkpt>
      <trkpt lat="47.62543" lon="-2.77485">
        <ele>2.6</ele>
        <time>2026-08-22T13:53:05Z</time>
      </trkpt>
      <trkpt lat="47.62541" lon="-2.77486">
        <ele>2.8</ele>
        <time>2026-08-22T13:53:06Z</time>
      </trkpt>
      <trkpt lat="47.6254" lon="-2.77486">
        <ele>3</ele>
        <time>2026-08-22T13:53:07Z</time>
      </trkpt>
      <trkpt lat="47.62539" lon="-2.77486">
        <ele>3.1</ele>
        <time>2026-08-22T13:53:08Z</time>
      </trkpt>
      <trkpt lat="47.62538" lon="-2.77486">
        <ele>3.2</ele>
        <time>2026-08-22T13:53:09Z</time>
      </trkpt>
      <trkpt lat="47.62536" lon="-2.77486">
        <ele>3.5</ele>
        <time>2026-08-22T13:53:10Z</time>
      </trkpt>
      <trkpt lat="47.62535" lon="-2.77487">
        <ele>3.6</ele>
        <time>2026-08-22T13:53:11Z</time>
      </trkpt>
      <trkpt lat="47.62534" lon="-2.77487">
        <ele>3.7</ele>
        <time>2026-08-22T13:53:12Z</time>
      </trkpt>
      <trkpt lat="47.62533" lon="-2.77487">
        <ele>3.9</ele>
        <time>2026-08-22T13:53:13Z</time>
      </trkpt>
      <trkpt lat="47.62532" lon="-2.77487">
        <ele>4</ele>
        <time>2026-08-22T13:53:14Z</time>
      </trkpt>
      <trkpt lat="47.62531" lon="-2.77487">
        <ele>4.1</ele>
        <time>2026-08-22T13:53:15Z</time>
      </trkpt>
      <trkpt lat="47.6253" lon="-2.77487">
        <ele>4.2</ele>
        <time>2026-08-22T13:53:16Z</time>
      </trkpt>
      <trkpt lat="47.62528" lon="-2.77487">
        <ele>4.5</ele>
        <time>2026-08-22T13:53:17Z</time>
      </trkpt>
      <trkpt lat="47.62527" lon="-2.77489">
        <ele>4.7</ele>
        <time>2026-08-22T13:53:18Z</time>
      </trkpt>
      <trkpt lat="47.62526" lon="-2.7749">
        <ele>4.8</ele>
        <time>2026-08-22T13:53:19Z</time>
      </trkpt>
      <trkpt lat="47.62525" lon="-2.7749">
        <ele>4.8</ele>
        <time>2026-08-22T13:53:20Z</time>
      </trkpt>
      <trkpt lat="47.62524" lon="-2.77489">
        <ele>4.8</ele>
        <time>2026-08-22T13:53:21Z</time>
      </trkpt>
      <trkpt lat="47.62523" lon="-2.77487">
        <ele>4.9</ele>
        <time>2026-08-22T13:53:22Z</time>
      </trkpt>
      <trkpt lat="47.62523" lon="-2.77485">
        <ele>4.8</ele>
        <time>2026-08-22T13:53:23Z</time>
      </trkpt>
      <trkpt lat="47.62523" lon="-2.77484">
        <ele>4.8</ele>
        <time>2026-08-22T13:53:24Z</time>
      </trkpt>
      <trkpt lat="47.62524" lon="-2.77482">
        <ele>4.7</ele>
        <time>2026-08-22T13:53:25Z</time>
      </trkpt>
      <trkpt lat="47.62525" lon="-2.77482">
        <ele>4.6</ele>
        <time>2026-08-22T13:53:26Z</time>
      </trkpt>
      <trkpt lat="47.62526" lon="-2.77481">
        <ele>4.5</ele>
        <time>2026-08-22T13:53:27Z</time>
      </trkpt>
      <trkpt lat="47.62528" lon="-2.77482">
        <ele>4.3</ele>
        <time>2026-08-22T13:53:28Z</time>
      </trkpt>
      <trkpt lat="47.62529" lon="-2.77482">
        <ele>4.2</ele>
        <time>2026-08-22T13:53:29Z</time>
      </trkpt>
      <trkpt lat="47.6253" lon="-2.77482">
        <ele>4.1</ele>
        <time>2026-08-22T13:53:30Z</time>
      </trkpt>
      <trkpt lat="47.62531" lon="-2.77482">
        <ele>4</ele>
        <time>2026-08-22T13:53:31Z</time>
      </trkpt>
      <trkpt lat="47.62532" lon="-2.77482">
        <ele>3.8</ele>
        <time>2026-08-22T13:53:32Z</time>
      </trkpt>
      <trkpt lat="47.62533" lon="-2.77483">
        <ele>3.8</ele>
        <time>2026-08-22T13:53:33Z</time>
      </trkpt>
      <trkpt lat="47.62534" lon="-2.77483">
        <ele>3.6</ele>
        <time>2026-08-22T13:53:34Z</time>
      </trkpt>
      <trkpt lat="47.62534" lon="-2.77484">
        <ele>3.7</ele>
        <time>2026-08-22T13:53:35Z</time>
      </trkpt>
      <trkpt lat="47.62535" lon="-2.77485">
        <ele>3.6</ele>
        <time>2026-08-22T13:53:36Z</time>
      </trkpt>
      <trkpt lat="47.62534" lon="-2.77486">
        <ele>3.7</ele>
        <time>2026-08-22T13:53:37Z</time>
      </trkpt>
      <trkpt lat="47.62534" lon="-2.77488">
        <ele>3.8</ele>
        <time>2026-08-22T13:53:38Z</time>
      </trkpt>
      <trkpt lat="47.62532" lon="-2.77489">
        <ele>4.1</ele>
        <time>2026-08-22T13:53:39Z</time>
      </trkpt>
      <trkpt lat="47.62531" lon="-2.77489">
        <ele>4.2</ele>
        <time>2026-08-22T13:53:40Z</time>
      </trkpt>
      <trkpt lat="47.62529" lon="-2.77489">
        <ele>4.4</ele>
        <time>2026-08-22T13:53:41Z</time>
      </trkpt>
      <trkpt lat="47.62528" lon="-2.77488">
        <ele>4.5</ele>
        <time>2026-08-22T13:53:42Z</time>
      </trkpt>
      <trkpt lat="47.62527" lon="-2.77487">
        <ele>4.6</ele>
        <time>2026-08-22T13:53:43Z</time>
      </trkpt>
      <trkpt lat="47.62526" lon="-2.77485">
        <ele>4.6</ele>
        <time>2026-08-22T13:53:44Z</time>
      </trkpt>
      <trkpt lat="47.62525" lon="-2.77484">
        <ele>4.6</ele>
        <time>2026-08-22T13:53:45Z</time>
      </trkpt>
      <trkpt lat="47.62523" lon="-2.77483">
        <ele>4.8</ele>
        <time>2026-08-22T13:53:46Z</time>
      </trkpt>
      <trkpt lat="47.62521" lon="-2.77483">
        <ele>4.9</ele>
        <time>2026-08-22T13:53:47Z</time>
      </trkpt>
      <trkpt lat="47.62519" lon="-2.77482">
        <ele>5.1</ele>
        <time>2026-08-22T13:53:48Z</time>
      </trkpt>
      <trkpt lat="47.62517" lon="-2.7748">
        <ele>5.2</ele>
        <time>2026-08-22T13:53:49Z</time>
      </trkpt>
      <trkpt lat="47.62515" lon="-2.77479">
        <ele>5.4</ele>
        <time>2026-08-22T13:53:50Z</time>
      </trkpt>
      <trkpt lat="47.62513" lon="-2.77478">
        <ele>5.6</ele>
        <time>2026-08-22T13:53:51Z</time>
      </trkpt>
      <trkpt lat="47.62511" lon="-2.77478">
        <ele>5.8</ele>
        <time>2026-08-22T13:53:52Z</time>
      </trkpt>
      <trkpt lat="47.62508" lon="-2.77477">
        <ele>6.1</ele>
        <time>2026-08-22T13:53:53Z</time>
      </trkpt>
      <trkpt lat="47.62506" lon="-2.77477">
        <ele>6.3</ele>
        <time>2026-08-22T13:53:54Z</time>
      </trkpt>
      <trkpt lat="47.62504" lon="-2.77476">
        <ele>6.5</ele>
        <time>2026-08-22T13:53:55Z</time>
      </trkpt>
      <trkpt lat="47.62501" lon="-2.77475">
        <ele>6.8</ele>
        <time>2026-08-22T13:53:56Z</time>
      </trkpt>
      <trkpt lat="47.62499" lon="-2.77474">
        <ele>7</ele>
        <time>2026-08-22T13:53:57Z</time>
      </trkpt>
      <trkpt lat="47.62497" lon="-2.77474">
        <ele>7.3</ele>
        <time>2026-08-22T13:53:58Z</time>
      </trkpt>
      <trkpt lat="47.62494" lon="-2.77474">
        <ele>7.6</ele>
        <time>2026-08-22T13:53:59Z</time>
      </trkpt>
      <trkpt lat="47.62492" lon="-2.77474">
        <ele>7.8</ele>
        <time>2026-08-22T13:54:00Z</time>
      </trkpt>
      <trkpt lat="47.62489" lon="-2.77474">
        <ele>8.1</ele>
        <time>2026-08-22T13:54:01Z</time>
      </trkpt>
      <trkpt lat="47.62487" lon="-2.77474">
        <ele>8.3</ele>
        <time>2026-08-22T13:54:02Z</time>
      </trkpt>
      <trkpt lat="47.62484" lon="-2.77474">
        <ele>8.7</ele>
        <time>2026-08-22T13:54:03Z</time>
      </trkpt>
      <trkpt lat="47.62482" lon="-2.77474">
        <ele>8.9</ele>
        <time>2026-08-22T13:54:04Z</time>
      </trkpt>
      <trkpt lat="47.62479" lon="-2.77474">
        <ele>9.2</ele>
        <time>2026-08-22T13:54:05Z</time>
      </trkpt>
      <trkpt lat="47.62477" lon="-2.77474">
        <ele>9.4</ele>
        <time>2026-08-22T13:54:06Z</time>
      </trkpt>
      <trkpt lat="47.62475" lon="-2.77475">
        <ele>9.6</ele>
        <time>2026-08-22T13:54:07Z</time>
      </trkpt>
      <trkpt lat="47.62472" lon="-2.77475">
        <ele>9.9</ele>
        <time>2026-08-22T13:54:08Z</time>
      </trkpt>
      <trkpt lat="47.6247" lon="-2.77475">
        <ele>10.1</ele>
        <time>2026-08-22T13:54:09Z</time>
      </trkpt>
      <trkpt lat="47.62467" lon="-2.77476">
        <ele>10.3</ele>
        <time>2026-08-22T13:54:10Z</time>
      </trkpt>
      <trkpt lat="47.62465" lon="-2.77476">
        <ele>10.5</ele>
        <time>2026-08-22T13:54:11Z</time>
      </trkpt>
      <trkpt lat="47.62462" lon="-2.77477">
        <ele>10.7</ele>
        <time>2026-08-22T13:54:12Z</time>
      </trkpt>
      <trkpt lat="47.6246" lon="-2.77478">
        <ele>10.9</ele>
        <time>2026-08-22T13:54:13Z</time>
      </trkpt>
      <trkpt lat="47.62457" lon="-2.77479">
        <ele>11.1</ele>
        <time>2026-08-22T13:54:14Z</time>
      </trkpt>
      <trkpt lat="47.62455" lon="-2.7748">
        <ele>11.3</ele>
        <time>2026-08-22T13:54:15Z</time>
      </trkpt>
      <trkpt lat="47.62453" lon="-2.77481">
        <ele>11.5</ele>
        <time>2026-08-22T13:54:16Z</time>
      </trkpt>
      <trkpt lat="47.62451" lon="-2.77482">
        <ele>11.7</ele>
        <time>2026-08-22T13:54:17Z</time>
      </trkpt>
      <trkpt lat="47.62448" lon="-2.77483">
        <ele>12</ele>
        <time>2026-08-22T13:54:18Z</time>
      </trkpt>
      <trkpt lat="47.62446" lon="-2.77485">
        <ele>12.3</ele>
        <time>2026-08-22T13:54:19Z</time>
      </trkpt>
      <trkpt lat="47.62443" lon="-2.77486">
        <ele>12.6</ele>
        <time>2026-08-22T13:54:20Z</time>
      </trkpt>
      <trkpt lat="47.6244" lon="-2.77488">
        <ele>12.9</ele>
        <time>2026-08-22T13:54:21Z</time>
      </trkpt>
      <trkpt lat="47.62438" lon="-2.77489">
        <ele>13.1</ele>
        <time>2026-08-22T13:54:22Z</time>
      </trkpt>
      <trkpt lat="47.62436" lon="-2.77489">
        <ele>13.2</ele>
        <time>2026-08-22T13:54:23Z</time>
      </trkpt>
      <trkpt lat="47.62433" lon="-2.7749">
        <ele>13.5</ele>
        <time>2026-08-22T13:54:24Z</time>
      </trkpt>
      <trkpt lat="47.6243" lon="-2.77492">
        <ele>13.8</ele>
        <time>2026-08-22T13:54:25Z</time>
      </trkpt>
      <trkpt lat="47.62428" lon="-2.77493">
        <ele>13.9</ele>
        <time>2026-08-22T13:54:26Z</time>
      </trkpt>
      <trkpt lat="47.62425" lon="-2.77494">
        <ele>14.2</ele>
        <time>2026-08-22T13:54:27Z</time>
      </trkpt>
      <trkpt lat="47.62423" lon="-2.77495">
        <ele>14.4</ele>
        <time>2026-08-22T13:54:28Z</time>
      </trkpt>
      <trkpt lat="47.6242" lon="-2.77496">
        <ele>14.6</ele>
        <time>2026-08-22T13:54:29Z</time>
      </trkpt>
      <trkpt lat="47.62417" lon="-2.77497">
        <ele>14.9</ele>
        <time>2026-08-22T13:54:30Z</time>
      </trkpt>
      <trkpt lat="47.62415" lon="-2.77498">
        <ele>14.9</ele>
        <time>2026-08-22T13:54:31Z</time>
      </trkpt>
      <trkpt lat="47.62412" lon="-2.77499">
        <ele>15</ele>
        <time>2026-08-22T13:54:32Z</time>
      </trkpt>
      <trkpt lat="47.62409" lon="-2.775">
        <ele>15</ele>
        <time>2026-08-22T13:54:33Z</time>
      </trkpt>
      <trkpt lat="47.62406" lon="-2.77502">
        <ele>15</ele>
        <time>2026-08-22T13:54:34Z</time>
      </trkpt>
      <trkpt lat="47.62404" lon="-2.77503">
        <ele>15</ele>
        <time>2026-08-22T13:54:35Z</time>
      </trkpt>
      <trkpt lat="47.62401" lon="-2.77504">
        <ele>14.9</ele>
        <time>2026-08-22T13:54:36Z</time>
      </trkpt>
      <trkpt lat="47.62398" lon="-2.77505">
        <ele>14.9</ele>
        <time>2026-08-22T13:54:37Z</time>
      </trkpt>
      <trkpt lat="47.62395" lon="-2.77506">
        <ele>14.8</ele>
        <time>2026-08-22T13:54:38Z</time>
      </trkpt>
      <trkpt lat="47.62392" lon="-2.77506">
        <ele>14.8</ele>
        <time>2026-08-22T13:54:39Z</time>
      </trkpt>
      <trkpt lat="47.62389" lon="-2.77507">
        <ele>14.7</ele>
        <time>2026-08-22T13:54:40Z</time>
      </trkpt>
      <trkpt lat="47.62386" lon="-2.77508">
        <ele>14.6</ele>
        <time>2026-08-22T13:54:41Z</time>
      </trkpt>
      <trkpt lat="47.62383" lon="-2.77509">
        <ele>14.5</ele>
        <time>2026-08-22T13:54:42Z</time>
      </trkpt>
      <trkpt lat="47.62381" lon="-2.7751">
        <ele>14.5</ele>
        <time>2026-08-22T13:54:43Z</time>
      </trkpt>
      <trkpt lat="47.62378" lon="-2.77511">
        <ele>14.4</ele>
        <time>2026-08-22T13:54:44Z</time>
      </trkpt>
      <trkpt lat="47.62375" lon="-2.77511">
        <ele>14.3</ele>
        <time>2026-08-22T13:54:45Z</time>
      </trkpt>
      <trkpt lat="47.62372" lon="-2.77512">
        <ele>14.2</ele>
        <time>2026-08-22T13:54:46Z</time>
      </trkpt>
      <trkpt lat="47.62369" lon="-2.77512">
        <ele>14.2</ele>
        <time>2026-08-22T13:54:47Z</time>
      </trkpt>
      <trkpt lat="47.62366" lon="-2.77512">
        <ele>14.1</ele>
        <time>2026-08-22T13:54:48Z</time>
      </trkpt>
      <trkpt lat="47.62363" lon="-2.77511">
        <ele>14</ele>
        <time>2026-08-22T13:54:49Z</time>
      </trkpt>
      <trkpt lat="47.62359" lon="-2.77509">
        <ele>14</ele>
        <time>2026-08-22T13:54:50Z</time>
      </trkpt>
      <trkpt lat="47.62357" lon="-2.77506">
        <ele>14</ele>
        <time>2026-08-22T13:54:51Z</time>
      </trkpt>
      <trkpt lat="47.62355" lon="-2.77502">
        <ele>14</ele>
        <time>2026-08-22T13:54:52Z</time>
      </trkpt>
      <trkpt lat="47.62352" lon="-2.77498">
        <ele>14</ele>
        <time>2026-08-22T13:54:53Z</time>
      </trkpt>
      <trkpt lat="47.6235" lon="-2.77494">
        <ele>14.1</ele>
        <time>2026-08-22T13:54:54Z</time>
      </trkpt>
      <trkpt lat="47.62348" lon="-2.7749">
        <ele>14.2</ele>
        <time>2026-08-22T13:54:55Z</time>
      </trkpt>
      <trkpt lat="47.62346" lon="-2.77486">
        <ele>14.2</ele>
        <time>2026-08-22T13:54:56Z</time>
      </trkpt>
      <trkpt lat="47.62344" lon="-2.77482">
        <ele>14.2</ele>
        <time>2026-08-22T13:54:57Z</time>
      </trkpt>
      <trkpt lat="47.62342" lon="-2.77478">
        <ele>14.2</ele>
        <time>2026-08-22T13:54:58Z</time>
      </trkpt>
      <trkpt lat="47.62339" lon="-2.77474">
        <ele>14.2</ele>
        <time>2026-08-22T13:54:59Z</time>
      </trkpt>
      <trkpt lat="47.62338" lon="-2.7747">
        <ele>14.2</ele>
        <time>2026-08-22T13:55:00Z</time>
      </trkpt>
      <trkpt lat="47.62336" lon="-2.77467">
        <ele>14.2</ele>
        <time>2026-08-22T13:55:01Z</time>
      </trkpt>
      <trkpt lat="47.62334" lon="-2.77462">
        <ele>14.4</ele>
        <time>2026-08-22T13:55:02Z</time>
      </trkpt>
      <trkpt lat="47.62332" lon="-2.77458">
        <ele>14.5</ele>
        <time>2026-08-22T13:55:03Z</time>
      </trkpt>
      <trkpt lat="47.6233" lon="-2.77454">
        <ele>14.7</ele>
        <time>2026-08-22T13:55:04Z</time>
      </trkpt>
      <trkpt lat="47.62328" lon="-2.7745">
        <ele>14.8</ele>
        <time>2026-08-22T13:55:05Z</time>
      </trkpt>
      <trkpt lat="47.62326" lon="-2.77446">
        <ele>14.9</ele>
        <time>2026-08-22T13:55:06Z</time>
      </trkpt>
      <trkpt lat="47.62324" lon="-2.77442">
        <ele>15</ele>
        <time>2026-08-22T13:55:07Z</time>
      </trkpt>
      <trkpt lat="47.62322" lon="-2.77437">
        <ele>15</ele>
        <time>2026-08-22T13:55:08Z</time>
      </trkpt>
      <trkpt lat="47.62321" lon="-2.77433">
        <ele>15</ele>
        <time>2026-08-22T13:55:09Z</time>
      </trkpt>
      <trkpt lat="47.6232" lon="-2.77429">
        <ele>15</ele>
        <time>2026-08-22T13:55:10Z</time>
      </trkpt>
      <trkpt lat="47.62319" lon="-2.77425">
        <ele>15</ele>
        <time>2026-08-22T13:55:11Z</time>
      </trkpt>
      <trkpt lat="47.62319" lon="-2.7742">
        <ele>15</ele>
        <time>2026-08-22T13:55:12Z</time>
      </trkpt>
      <trkpt lat="47.62319" lon="-2.77417">
        <ele>15</ele>
        <time>2026-08-22T13:55:13Z</time>
      </trkpt>
      <trkpt lat="47.62319" lon="-2.77413">
        <ele>15.1</ele>
        <time>2026-08-22T13:55:14Z</time>
      </trkpt>
      <trkpt lat="47.62318" lon="-2.77409">
        <ele>15.2</ele>
        <time>2026-08-22T13:55:15Z</time>
      </trkpt>
      <trkpt lat="47.62317" lon="-2.77405">
        <ele>15.2</ele>
        <time>2026-08-22T13:55:16Z</time>
      </trkpt>
      <trkpt lat="47.62316" lon="-2.77401">
        <ele>15.4</ele>
        <time>2026-08-22T13:55:17Z</time>
      </trkpt>
      <trkpt lat="47.62315" lon="-2.77396">
        <ele>15.5</ele>
        <time>2026-08-22T13:55:18Z</time>
      </trkpt>
      <trkpt lat="47.62314" lon="-2.77392">
        <ele>15.6</ele>
        <time>2026-08-22T13:55:19Z</time>
      </trkpt>
      <trkpt lat="47.62314" lon="-2.77388">
        <ele>15.7</ele>
        <time>2026-08-22T13:55:20Z</time>
      </trkpt>
      <trkpt lat="47.62313" lon="-2.77384">
        <ele>15.7</ele>
        <time>2026-08-22T13:55:21Z</time>
      </trkpt>
      <trkpt lat="47.62312" lon="-2.7738">
        <ele>15.8</ele>
        <time>2026-08-22T13:55:22Z</time>
      </trkpt>
      <trkpt lat="47.62311" lon="-2.77376">
        <ele>15.8</ele>
        <time>2026-08-22T13:55:23Z</time>
      </trkpt>
      <trkpt lat="47.6231" lon="-2.77371">
        <ele>15.8</ele>
        <time>2026-08-22T13:55:24Z</time>
      </trkpt>
      <trkpt lat="47.62309" lon="-2.77366">
        <ele>15.9</ele>
        <time>2026-08-22T13:55:25Z</time>
      </trkpt>
      <trkpt lat="47.62308" lon="-2.77361">
        <ele>15.9</ele>
        <time>2026-08-22T13:55:26Z</time>
      </trkpt>
      <trkpt lat="47.62307" lon="-2.77356">
        <ele>15.8</ele>
        <time>2026-08-22T13:55:27Z</time>
      </trkpt>
      <trkpt lat="47.62305" lon="-2.7735">
        <ele>15.6</ele>
        <time>2026-08-22T13:55:28Z</time>
      </trkpt>
      <trkpt lat="47.62303" lon="-2.77345">
        <ele>15.4</ele>
        <time>2026-08-22T13:55:29Z</time>
      </trkpt>
      <trkpt lat="47.62301" lon="-2.77341">
        <ele>15.2</ele>
        <time>2026-08-22T13:55:30Z</time>
      </trkpt>
      <trkpt lat="47.62298" lon="-2.77337">
        <ele>15.1</ele>
        <time>2026-08-22T13:55:31Z</time>
      </trkpt>
      <trkpt lat="47.62295" lon="-2.77334">
        <ele>15</ele>
        <time>2026-08-22T13:55:32Z</time>
      </trkpt>
      <trkpt lat="47.62292" lon="-2.77331">
        <ele>14.9</ele>
        <time>2026-08-22T13:55:33Z</time>
      </trkpt>
      <trkpt lat="47.6229" lon="-2.7733">
        <ele>14.9</ele>
        <time>2026-08-22T13:55:34Z</time>
      </trkpt>
      <trkpt lat="47.62287" lon="-2.77328">
        <ele>14.8</ele>
        <time>2026-08-22T13:55:35Z</time>
      </trkpt>
      <trkpt lat="47.62284" lon="-2.77326">
        <ele>14.7</ele>
        <time>2026-08-22T13:55:36Z</time>
      </trkpt>
      <trkpt lat="47.62281" lon="-2.77323">
        <ele>14.6</ele>
        <time>2026-08-22T13:55:37Z</time>
      </trkpt>
      <trkpt lat="47.62278" lon="-2.7732">
        <ele>14.5</ele>
        <time>2026-08-22T13:55:38Z</time>
      </trkpt>
      <trkpt lat="47.62276" lon="-2.77314">
        <ele>14.3</ele>
        <time>2026-08-22T13:55:39Z</time>
      </trkpt>
      <trkpt lat="47.62275" lon="-2.77309">
        <ele>14.1</ele>
        <time>2026-08-22T13:55:40Z</time>
      </trkpt>
      <trkpt lat="47.62276" lon="-2.77303">
        <ele>14</ele>
        <time>2026-08-22T13:55:41Z</time>
      </trkpt>
      <trkpt lat="47.62278" lon="-2.77299">
        <ele>14</ele>
        <time>2026-08-22T13:55:42Z</time>
      </trkpt>
      <trkpt lat="47.62281" lon="-2.77296">
        <ele>14</ele>
        <time>2026-08-22T13:55:43Z</time>
      </trkpt>
      <trkpt lat="47.62284" lon="-2.77293">
        <ele>14</ele>
        <time>2026-08-22T13:55:44Z</time>
      </trkpt>
      <trkpt lat="47.62287" lon="-2.7729">
        <ele>14</ele>
        <time>2026-08-22T13:55:45Z</time>
      </trkpt>
      <trkpt lat="47.62291" lon="-2.77287">
        <ele>14</ele>
        <time>2026-08-22T13:55:46Z</time>
      </trkpt>
      <trkpt lat="47.62294" lon="-2.77284">
        <ele>14</ele>
        <time>2026-08-22T13:55:47Z</time>
      </trkpt>
      <trkpt lat="47.62297" lon="-2.77281">
        <ele>14</ele>
        <time>2026-08-22T13:55:48Z</time>
      </trkpt>
      <trkpt lat="47.62301" lon="-2.77277">
        <ele>14</ele>
        <time>2026-08-22T13:55:49Z</time>
      </trkpt>
      <trkpt lat="47.62304" lon="-2.77273">
        <ele>13.8</ele>
        <time>2026-08-22T13:55:50Z</time>
      </trkpt>
      <trkpt lat="47.62307" lon="-2.77269">
        <ele>13.5</ele>
        <time>2026-08-22T13:55:51Z</time>
      </trkpt>
      <trkpt lat="47.6231" lon="-2.77264">
        <ele>13</ele>
        <time>2026-08-22T13:55:52Z</time>
      </trkpt>
      <trkpt lat="47.62313" lon="-2.77259">
        <ele>12.5</ele>
        <time>2026-08-22T13:55:53Z</time>
      </trkpt>
      <trkpt lat="47.62315" lon="-2.77253">
        <ele>12.1</ele>
        <time>2026-08-22T13:55:54Z</time>
      </trkpt>
      <trkpt lat="47.62316" lon="-2.77246">
        <ele>11.9</ele>
        <time>2026-08-22T13:55:55Z</time>
      </trkpt>
      <trkpt lat="47.62316" lon="-2.77239">
        <ele>11.9</ele>
        <time>2026-08-22T13:55:56Z</time>
      </trkpt>
      <trkpt lat="47.62315" lon="-2.77234">
        <ele>12</ele>
        <time>2026-08-22T13:55:57Z</time>
      </trkpt>
      <trkpt lat="47.62313" lon="-2.77228">
        <ele>12.2</ele>
        <time>2026-08-22T13:55:58Z</time>
      </trkpt>
      <trkpt lat="47.62311" lon="-2.77223">
        <ele>12.4</ele>
        <time>2026-08-22T13:55:59Z</time>
      </trkpt>
      <trkpt lat="47.62309" lon="-2.77217">
        <ele>12.6</ele>
        <time>2026-08-22T13:56:00Z</time>
      </trkpt>
      <trkpt lat="47.62308" lon="-2.77212">
        <ele>12.7</ele>
        <time>2026-08-22T13:56:01Z</time>
      </trkpt>
      <trkpt lat="47.62306" lon="-2.77207">
        <ele>12.9</ele>
        <time>2026-08-22T13:56:02Z</time>
      </trkpt>
      <trkpt lat="47.62304" lon="-2.77201">
        <ele>13.1</ele>
        <time>2026-08-22T13:56:03Z</time>
      </trkpt>
      <trkpt lat="47.62302" lon="-2.77195">
        <ele>13.1</ele>
        <time>2026-08-22T13:56:04Z</time>
      </trkpt>
      <trkpt lat="47.62301" lon="-2.7719">
        <ele>12.9</ele>
        <time>2026-08-22T13:56:05Z</time>
      </trkpt>
      <trkpt lat="47.62299" lon="-2.77185">
        <ele>12.6</ele>
        <time>2026-08-22T13:56:06Z</time>
      </trkpt>
      <trkpt lat="47.62297" lon="-2.77179">
        <ele>12.4</ele>
        <time>2026-08-22T13:56:07Z</time>
      </trkpt>
      <trkpt lat="47.62295" lon="-2.77174">
        <ele>12.2</ele>
        <time>2026-08-22T13:56:08Z</time>
      </trkpt>
      <trkpt lat="47.62293" lon="-2.77168">
        <ele>12</ele>
        <time>2026-08-22T13:56:09Z</time>
      </trkpt>
      <trkpt lat="47.62291" lon="-2.77162">
        <ele>11.8</ele>
        <time>2026-08-22T13:56:10Z</time>
      </trkpt>
      <trkpt lat="47.62289" lon="-2.77156">
        <ele>11.7</ele>
        <time>2026-08-22T13:56:11Z</time>
      </trkpt>
      <trkpt lat="47.62287" lon="-2.7715">
        <ele>11.5</ele>
        <time>2026-08-22T13:56:12Z</time>
      </trkpt>
      <trkpt lat="47.62285" lon="-2.77143">
        <ele>11.4</ele>
        <time>2026-08-22T13:56:13Z</time>
      </trkpt>
      <trkpt lat="47.62283" lon="-2.77137">
        <ele>11.4</ele>
        <time>2026-08-22T13:56:14Z</time>
      </trkpt>
      <trkpt lat="47.6228" lon="-2.7713">
        <ele>11.7</ele>
        <time>2026-08-22T13:56:15Z</time>
      </trkpt>
      <trkpt lat="47.62278" lon="-2.77124">
        <ele>12</ele>
        <time>2026-08-22T13:56:16Z</time>
      </trkpt>
      <trkpt lat="47.62276" lon="-2.77117">
        <ele>12</ele>
        <time>2026-08-22T13:56:17Z</time>
      </trkpt>
      <trkpt lat="47.62274" lon="-2.77111">
        <ele>12</ele>
        <time>2026-08-22T13:56:18Z</time>
      </trkpt>
      <trkpt lat="47.62271" lon="-2.77104">
        <ele>11.6</ele>
        <time>2026-08-22T13:56:19Z</time>
      </trkpt>
      <trkpt lat="47.62269" lon="-2.77098">
        <ele>11.4</ele>
        <time>2026-08-22T13:56:20Z</time>
      </trkpt>
      <trkpt lat="47.62266" lon="-2.77091">
        <ele>11.2</ele>
        <time>2026-08-22T13:56:21Z</time>
      </trkpt>
      <trkpt lat="47.62263" lon="-2.77084">
        <ele>11.1</ele>
        <time>2026-08-22T13:56:22Z</time>
      </trkpt>
      <trkpt lat="47.62261" lon="-2.77077">
        <ele>11.1</ele>
        <time>2026-08-22T13:56:23Z</time>
      </trkpt>
      <trkpt lat="47.62258" lon="-2.77071">
        <ele>11.3</ele>
        <time>2026-08-22T13:56:24Z</time>
      </trkpt>
      <trkpt lat="47.62255" lon="-2.77064">
        <ele>11.5</ele>
        <time>2026-08-22T13:56:25Z</time>
      </trkpt>
      <trkpt lat="47.62253" lon="-2.77058">
        <ele>11.7</ele>
        <time>2026-08-22T13:56:26Z</time>
      </trkpt>
      <trkpt lat="47.6225" lon="-2.77052">
        <ele>12</ele>
        <time>2026-08-22T13:56:27Z</time>
      </trkpt>
      <trkpt lat="47.62248" lon="-2.77045">
        <ele>12</ele>
        <time>2026-08-22T13:56:28Z</time>
      </trkpt>
      <trkpt lat="47.62245" lon="-2.77039">
        <ele>12.1</ele>
        <time>2026-08-22T13:56:29Z</time>
      </trkpt>
      <trkpt lat="47.62242" lon="-2.77033">
        <ele>12.2</ele>
        <time>2026-08-22T13:56:30Z</time>
      </trkpt>
      <trkpt lat="47.6224" lon="-2.77027">
        <ele>12.3</ele>
        <time>2026-08-22T13:56:31Z</time>
      </trkpt>
      <trkpt lat="47.62238" lon="-2.77021">
        <ele>12.3</ele>
        <time>2026-08-22T13:56:32Z</time>
      </trkpt>
      <trkpt lat="47.62235" lon="-2.77015">
        <ele>12.3</ele>
        <time>2026-08-22T13:56:33Z</time>
      </trkpt>
      <trkpt lat="47.62233" lon="-2.77009">
        <ele>12.3</ele>
        <time>2026-08-22T13:56:34Z</time>
      </trkpt>
      <trkpt lat="47.6223" lon="-2.77003">
        <ele>12.5</ele>
        <time>2026-08-22T13:56:35Z</time>
      </trkpt>
      <trkpt lat="47.62228" lon="-2.76997">
        <ele>12.5</ele>
        <time>2026-08-22T13:56:36Z</time>
      </trkpt>
      <trkpt lat="47.62226" lon="-2.76991">
        <ele>12.4</ele>
        <time>2026-08-22T13:56:37Z</time>
      </trkpt>
      <trkpt lat="47.62224" lon="-2.76985">
        <ele>12.3</ele>
        <time>2026-08-22T13:56:38Z</time>
      </trkpt>
      <trkpt lat="47.62223" lon="-2.76978">
        <ele>12.2</ele>
        <time>2026-08-22T13:56:39Z</time>
      </trkpt>
      <trkpt lat="47.6222" lon="-2.76971">
        <ele>11.9</ele>
        <time>2026-08-22T13:56:40Z</time>
      </trkpt>
      <trkpt lat="47.62218" lon="-2.76964">
        <ele>11.5</ele>
        <time>2026-08-22T13:56:41Z</time>
      </trkpt>
      <trkpt lat="47.62216" lon="-2.76956">
        <ele>11</ele>
        <time>2026-08-22T13:56:42Z</time>
      </trkpt>
      <trkpt lat="47.62214" lon="-2.76948">
        <ele>10.5</ele>
        <time>2026-08-22T13:56:43Z</time>
      </trkpt>
      <trkpt lat="47.62211" lon="-2.7694">
        <ele>10.4</ele>
        <time>2026-08-22T13:56:44Z</time>
      </trkpt>
      <trkpt lat="47.62208" lon="-2.76932">
        <ele>10.5</ele>
        <time>2026-08-22T13:56:45Z</time>
      </trkpt>
      <trkpt lat="47.62205" lon="-2.76925">
        <ele>10.6</ele>
        <time>2026-08-22T13:56:46Z</time>
      </trkpt>
      <trkpt lat="47.62203" lon="-2.76917">
        <ele>10.7</ele>
        <time>2026-08-22T13:56:47Z</time>
      </trkpt>
      <trkpt lat="47.622" lon="-2.7691">
        <ele>10.6</ele>
        <time>2026-08-22T13:56:48Z</time>
      </trkpt>
      <trkpt lat="47.62198" lon="-2.76903">
        <ele>10.4</ele>
        <time>2026-08-22T13:56:49Z</time>
      </trkpt>
      <trkpt lat="47.62195" lon="-2.76896">
        <ele>10.2</ele>
        <time>2026-08-22T13:56:50Z</time>
      </trkpt>
      <trkpt lat="47.62192" lon="-2.76889">
        <ele>10</ele>
        <time>2026-08-22T13:56:51Z</time>
      </trkpt>
      <trkpt lat="47.6219" lon="-2.76882">
        <ele>9.8</ele>
        <time>2026-08-22T13:56:52Z</time>
      </trkpt>
      <trkpt lat="47.62187" lon="-2.76875">
        <ele>9.6</ele>
        <time>2026-08-22T13:56:53Z</time>
      </trkpt>
      <trkpt lat="47.62184" lon="-2.76868">
        <ele>9.5</ele>
        <time>2026-08-22T13:56:54Z</time>
      </trkpt>
      <trkpt lat="47.6218" lon="-2.76862">
        <ele>9.5</ele>
        <time>2026-08-22T13:56:55Z</time>
      </trkpt>
      <trkpt lat="47.62177" lon="-2.76856">
        <ele>9.6</ele>
        <time>2026-08-22T13:56:56Z</time>
      </trkpt>
      <trkpt lat="47.62172" lon="-2.76851">
        <ele>9.8</ele>
        <time>2026-08-22T13:56:57Z</time>
      </trkpt>
      <trkpt lat="47.62168" lon="-2.76846">
        <ele>10</ele>
        <time>2026-08-22T13:56:58Z</time>
      </trkpt>
      <trkpt lat="47.62163" lon="-2.76843">
        <ele>10</ele>
        <time>2026-08-22T13:56:59Z</time>
      </trkpt>
      <trkpt lat="47.62158" lon="-2.7684">
        <ele>9.9</ele>
        <time>2026-08-22T13:57:00Z</time>
      </trkpt>
      <trkpt lat="47.62153" lon="-2.76837">
        <ele>9.9</ele>
        <time>2026-08-22T13:57:01Z</time>
      </trkpt>
      <trkpt lat="47.62148" lon="-2.76835">
        <ele>10</ele>
        <time>2026-08-22T13:57:02Z</time>
      </trkpt>
      <trkpt lat="47.62143" lon="-2.76833">
        <ele>10</ele>
        <time>2026-08-22T13:57:03Z</time>
      </trkpt>
      <trkpt lat="47.62138" lon="-2.76832">
        <ele>10</ele>
        <time>2026-08-22T13:57:04Z</time>
      </trkpt>
      <trkpt lat="47.62133" lon="-2.7683">
        <ele>9.8</ele>
        <time>2026-08-22T13:57:05Z</time>
      </trkpt>
      <trkpt lat="47.62128" lon="-2.76828">
        <ele>9.5</ele>
        <time>2026-08-22T13:57:06Z</time>
      </trkpt>
      <trkpt lat="47.62123" lon="-2.76825">
        <ele>9.3</ele>
        <time>2026-08-22T13:57:07Z</time>
      </trkpt>
      <trkpt lat="47.62119" lon="-2.7682">
        <ele>8.9</ele>
        <time>2026-08-22T13:57:08Z</time>
      </trkpt>
      <trkpt lat="47.62115" lon="-2.76814">
        <ele>8.5</ele>
        <time>2026-08-22T13:57:09Z</time>
      </trkpt>
      <trkpt lat="47.6211" lon="-2.76808">
        <ele>8</ele>
        <time>2026-08-22T13:57:10Z</time>
      </trkpt>
      <trkpt lat="47.62105" lon="-2.76803">
        <ele>7.7</ele>
        <time>2026-08-22T13:57:11Z</time>
      </trkpt>
      <trkpt lat="47.621" lon="-2.76799">
        <ele>7.5</ele>
        <time>2026-08-22T13:57:12Z</time>
      </trkpt>
      <trkpt lat="47.62094" lon="-2.76796">
        <ele>7.3</ele>
        <time>2026-08-22T13:57:13Z</time>
      </trkpt>
      <trkpt lat="47.62088" lon="-2.76793">
        <ele>7.1</ele>
        <time>2026-08-22T13:57:14Z</time>
      </trkpt>
      <trkpt lat="47.62082" lon="-2.76789">
        <ele>7</ele>
        <time>2026-08-22T13:57:15Z</time>
      </trkpt>
      <trkpt lat="47.62078" lon="-2.76784">
        <ele>7</ele>
        <time>2026-08-22T13:57:16Z</time>
      </trkpt>
      <trkpt lat="47.62074" lon="-2.76777">
        <ele>7</ele>
        <time>2026-08-22T13:57:17Z</time>
      </trkpt>
      <trkpt lat="47.62071" lon="-2.7677">
        <ele>7.3</ele>
        <time>2026-08-22T13:57:18Z</time>
      </trkpt>
      <trkpt lat="47.62069" lon="-2.76763">
        <ele>7.5</ele>
        <time>2026-08-22T13:57:19Z</time>
      </trkpt>
      <trkpt lat="47.62068" lon="-2.76755">
        <ele>7.8</ele>
        <time>2026-08-22T13:57:20Z</time>
      </trkpt>
      <trkpt lat="47.62066" lon="-2.76748">
        <ele>8</ele>
        <time>2026-08-22T13:57:21Z</time>
      </trkpt>
      <trkpt lat="47.62064" lon="-2.7674">
        <ele>8</ele>
        <time>2026-08-22T13:57:22Z</time>
      </trkpt>
      <trkpt lat="47.62062" lon="-2.76733">
        <ele>8</ele>
        <time>2026-08-22T13:57:23Z</time>
      </trkpt>
      <trkpt lat="47.62059" lon="-2.76726">
        <ele>8</ele>
        <time>2026-08-22T13:57:24Z</time>
      </trkpt>
      <trkpt lat="47.62057" lon="-2.76719">
        <ele>8.1</ele>
        <time>2026-08-22T13:57:25Z</time>
      </trkpt>
      <trkpt lat="47.62055" lon="-2.76713">
        <ele>8.3</ele>
        <time>2026-08-22T13:57:26Z</time>
      </trkpt>
      <trkpt lat="47.62052" lon="-2.76707">
        <ele>8.6</ele>
        <time>2026-08-22T13:57:27Z</time>
      </trkpt>
      <trkpt lat="47.6205" lon="-2.76701">
        <ele>8.8</ele>
        <time>2026-08-22T13:57:28Z</time>
      </trkpt>
      <trkpt lat="47.62048" lon="-2.76695">
        <ele>9</ele>
        <time>2026-08-22T13:57:29Z</time>
      </trkpt>
      <trkpt lat="47.62046" lon="-2.76689">
        <ele>9.1</ele>
        <time>2026-08-22T13:57:30Z</time>
      </trkpt>
      <trkpt lat="47.62044" lon="-2.76684">
        <ele>9.2</ele>
        <time>2026-08-22T13:57:31Z</time>
      </trkpt>
      <trkpt lat="47.62042" lon="-2.76678">
        <ele>9.3</ele>
        <time>2026-08-22T13:57:32Z</time>
      </trkpt>
      <trkpt lat="47.62041" lon="-2.76672">
        <ele>9.4</ele>
        <time>2026-08-22T13:57:33Z</time>
      </trkpt>
      <trkpt lat="47.62039" lon="-2.76667">
        <ele>9.6</ele>
        <time>2026-08-22T13:57:34Z</time>
      </trkpt>
      <trkpt lat="47.62038" lon="-2.76661">
        <ele>9.7</ele>
        <time>2026-08-22T13:57:35Z</time>
      </trkpt>
      <trkpt lat="47.62037" lon="-2.76655">
        <ele>9.8</ele>
        <time>2026-08-22T13:57:36Z</time>
      </trkpt>
      <trkpt lat="47.62038" lon="-2.76649">
        <ele>9.9</ele>
        <time>2026-08-22T13:57:37Z</time>
      </trkpt>
      <trkpt lat="47.6204" lon="-2.76644">
        <ele>9.9</ele>
        <time>2026-08-22T13:57:38Z</time>
      </trkpt>
      <trkpt lat="47.62043" lon="-2.76641">
        <ele>10</ele>
        <time>2026-08-22T13:57:39Z</time>
      </trkpt>
      <trkpt lat="47.62046" lon="-2.76637">
        <ele>10</ele>
        <time>2026-08-22T13:57:40Z</time>
      </trkpt>
      <trkpt lat="47.62049" lon="-2.76634">
        <ele>10</ele>
        <time>2026-08-22T13:57:41Z</time>
      </trkpt>
      <trkpt lat="47.62052" lon="-2.7663">
        <ele>10</ele>
        <time>2026-08-22T13:57:42Z</time>
      </trkpt>
      <trkpt lat="47.62054" lon="-2.76625">
        <ele>10</ele>
        <time>2026-08-22T13:57:43Z</time>
      </trkpt>
      <trkpt lat="47.62055" lon="-2.76619">
        <ele>10</ele>
        <time>2026-08-22T13:57:44Z</time>
      </trkpt>
      <trkpt lat="47.62055" lon="-2.76613">
        <ele>10</ele>
        <time>2026-08-22T13:57:45Z</time>
      </trkpt>
      <trkpt lat="47.62054" lon="-2.76607">
        <ele>9.9</ele>
        <time>2026-08-22T13:57:46Z</time>
      </trkpt>
      <trkpt lat="47.62052" lon="-2.76602">
        <ele>9.7</ele>
        <time>2026-08-22T13:57:47Z</time>
      </trkpt>
      <trkpt lat="47.6205" lon="-2.76596">
        <ele>9.6</ele>
        <time>2026-08-22T13:57:48Z</time>
      </trkpt>
      <trkpt lat="47.62048" lon="-2.76591">
        <ele>9.5</ele>
        <time>2026-08-22T13:57:49Z</time>
      </trkpt>
      <trkpt lat="47.62046" lon="-2.76586">
        <ele>9.4</ele>
        <time>2026-08-22T13:57:50Z</time>
      </trkpt>
      <trkpt lat="47.62043" lon="-2.7658">
        <ele>9.5</ele>
        <time>2026-08-22T13:57:51Z</time>
      </trkpt>
      <trkpt lat="47.62041" lon="-2.76575">
        <ele>9.7</ele>
        <time>2026-08-22T13:57:52Z</time>
      </trkpt>
      <trkpt lat="47.62038" lon="-2.7657">
        <ele>9.9</ele>
        <time>2026-08-22T13:57:53Z</time>
      </trkpt>
      <trkpt lat="47.62036" lon="-2.76566">
        <ele>10.1</ele>
        <time>2026-08-22T13:57:54Z</time>
      </trkpt>
      <trkpt lat="47.62034" lon="-2.76561">
        <ele>10.4</ele>
        <time>2026-08-22T13:57:55Z</time>
      </trkpt>
      <trkpt lat="47.62031" lon="-2.76555">
        <ele>10.8</ele>
        <time>2026-08-22T13:57:56Z</time>
      </trkpt>
      <trkpt lat="47.62029" lon="-2.7655">
        <ele>10.7</ele>
        <time>2026-08-22T13:57:57Z</time>
      </trkpt>
      <trkpt lat="47.62026" lon="-2.76546">
        <ele>10.7</ele>
        <time>2026-08-22T13:57:58Z</time>
      </trkpt>
      <trkpt lat="47.62024" lon="-2.76541">
        <ele>10.6</ele>
        <time>2026-08-22T13:57:59Z</time>
      </trkpt>
      <trkpt lat="47.62023" lon="-2.76537">
        <ele>10.6</ele>
        <time>2026-08-22T13:58:00Z</time>
      </trkpt>
      <trkpt lat="47.62021" lon="-2.76531">
        <ele>10.5</ele>
        <time>2026-08-22T13:58:01Z</time>
      </trkpt>
      <trkpt lat="47.6202" lon="-2.76525">
        <ele>10.6</ele>
        <time>2026-08-22T13:58:02Z</time>
      </trkpt>
      <trkpt lat="47.62018" lon="-2.76519">
        <ele>10.8</ele>
        <time>2026-08-22T13:58:03Z</time>
      </trkpt>
      <trkpt lat="47.62016" lon="-2.76513">
        <ele>11.1</ele>
        <time>2026-08-22T13:58:04Z</time>
      </trkpt>
      <trkpt lat="47.62014" lon="-2.76508">
        <ele>11.3</ele>
        <time>2026-08-22T13:58:05Z</time>
      </trkpt>
      <trkpt lat="47.62013" lon="-2.76502">
        <ele>11.6</ele>
        <time>2026-08-22T13:58:06Z</time>
      </trkpt>
      <trkpt lat="47.62011" lon="-2.76496">
        <ele>11.7</ele>
        <time>2026-08-22T13:58:07Z</time>
      </trkpt>
      <trkpt lat="47.62009" lon="-2.7649">
        <ele>11.8</ele>
        <time>2026-08-22T13:58:08Z</time>
      </trkpt>
      <trkpt lat="47.62007" lon="-2.76484">
        <ele>11.8</ele>
        <time>2026-08-22T13:58:09Z</time>
      </trkpt>
      <trkpt lat="47.62006" lon="-2.76478">
        <ele>11.7</ele>
        <time>2026-08-22T13:58:10Z</time>
      </trkpt>
      <trkpt lat="47.62004" lon="-2.76472">
        <ele>11.7</ele>
        <time>2026-08-22T13:58:11Z</time>
      </trkpt>
      <trkpt lat="47.62002" lon="-2.76466">
        <ele>11.9</ele>
        <time>2026-08-22T13:58:12Z</time>
      </trkpt>
      <trkpt lat="47.62" lon="-2.7646">
        <ele>12</ele>
        <time>2026-08-22T13:58:13Z</time>
      </trkpt>
      <trkpt lat="47.61998" lon="-2.76455">
        <ele>12</ele>
        <time>2026-08-22T13:58:14Z</time>
      </trkpt>
      <trkpt lat="47.61996" lon="-2.76449">
        <ele>12.1</ele>
        <time>2026-08-22T13:58:15Z</time>
      </trkpt>
      <trkpt lat="47.61994" lon="-2.76443">
        <ele>12.2</ele>
        <time>2026-08-22T13:58:16Z</time>
      </trkpt>
      <trkpt lat="47.61992" lon="-2.76438">
        <ele>12.4</ele>
        <time>2026-08-22T13:58:17Z</time>
      </trkpt>
      <trkpt lat="47.61989" lon="-2.76432">
        <ele>12.6</ele>
        <time>2026-08-22T13:58:18Z</time>
      </trkpt>
      <trkpt lat="47.61987" lon="-2.76427">
        <ele>12.8</ele>
        <time>2026-08-22T13:58:19Z</time>
      </trkpt>
      <trkpt lat="47.61985" lon="-2.76421">
        <ele>13</ele>
        <time>2026-08-22T13:58:20Z</time>
      </trkpt>
      <trkpt lat="47.61983" lon="-2.76416">
        <ele>13.2</ele>
        <time>2026-08-22T13:58:21Z</time>
      </trkpt>
      <trkpt lat="47.61981" lon="-2.76411">
        <ele>13.2</ele>
        <time>2026-08-22T13:58:22Z</time>
      </trkpt>
      <trkpt lat="47.61978" lon="-2.76406">
        <ele>13.2</ele>
        <time>2026-08-22T13:58:23Z</time>
      </trkpt>
      <trkpt lat="47.61976" lon="-2.76401">
        <ele>13.2</ele>
        <time>2026-08-22T13:58:24Z</time>
      </trkpt>
      <trkpt lat="47.61973" lon="-2.76396">
        <ele>13.2</ele>
        <time>2026-08-22T13:58:25Z</time>
      </trkpt>
      <trkpt lat="47.61971" lon="-2.76392">
        <ele>13.1</ele>
        <time>2026-08-22T13:58:26Z</time>
      </trkpt>
      <trkpt lat="47.61968" lon="-2.76386">
        <ele>12.9</ele>
        <time>2026-08-22T13:58:27Z</time>
      </trkpt>
      <trkpt lat="47.61965" lon="-2.76381">
        <ele>12.8</ele>
        <time>2026-08-22T13:58:28Z</time>
      </trkpt>
      <trkpt lat="47.61963" lon="-2.76376">
        <ele>12.7</ele>
        <time>2026-08-22T13:58:29Z</time>
      </trkpt>
      <trkpt lat="47.6196" lon="-2.76371">
        <ele>12.6</ele>
        <time>2026-08-22T13:58:30Z</time>
      </trkpt>
      <trkpt lat="47.61957" lon="-2.76365">
        <ele>12.6</ele>
        <time>2026-08-22T13:58:31Z</time>
      </trkpt>
      <trkpt lat="47.61955" lon="-2.76359">
        <ele>12.5</ele>
        <time>2026-08-22T13:58:32Z</time>
      </trkpt>
      <trkpt lat="47.61952" lon="-2.76353">
        <ele>12.4</ele>
        <time>2026-08-22T13:58:33Z</time>
      </trkpt>
      <trkpt lat="47.61949" lon="-2.76347">
        <ele>12.2</ele>
        <time>2026-08-22T13:58:34Z</time>
      </trkpt>
      <trkpt lat="47.61946" lon="-2.76341">
        <ele>12.2</ele>
        <time>2026-08-22T13:58:35Z</time>
      </trkpt>
      <trkpt lat="47.61942" lon="-2.76335">
        <ele>12</ele>
        <time>2026-08-22T13:58:36Z</time>
      </trkpt>
      <trkpt lat="47.61939" lon="-2.76328">
        <ele>11.5</ele>
        <time>2026-08-22T13:58:37Z</time>
      </trkpt>
      <trkpt lat="47.61936" lon="-2.76321">
        <ele>11.1</ele>
        <time>2026-08-22T13:58:38Z</time>
      </trkpt>
      <trkpt lat="47.61933" lon="-2.76314">
        <ele>10.8</ele>
        <time>2026-08-22T13:58:39Z</time>
      </trkpt>
      <trkpt lat="47.6193" lon="-2.76307">
        <ele>10.6</ele>
        <time>2026-08-22T13:58:40Z</time>
      </trkpt>
      <trkpt lat="47.61928" lon="-2.76299">
        <ele>10.6</ele>
        <time>2026-08-22T13:58:41Z</time>
      </trkpt>
      <trkpt lat="47.61925" lon="-2.76291">
        <ele>10.7</ele>
        <time>2026-08-22T13:58:42Z</time>
      </trkpt>
      <trkpt lat="47.61922" lon="-2.76283">
        <ele>10.8</ele>
        <time>2026-08-22T13:58:43Z</time>
      </trkpt>
      <trkpt lat="47.6192" lon="-2.76276">
        <ele>10.9</ele>
        <time>2026-08-22T13:58:44Z</time>
      </trkpt>
      <trkpt lat="47.61918" lon="-2.76268">
        <ele>10.9</ele>
        <time>2026-08-22T13:58:45Z</time>
      </trkpt>
      <trkpt lat="47.61915" lon="-2.76261">
        <ele>11</ele>
        <time>2026-08-22T13:58:46Z</time>
      </trkpt>
      <trkpt lat="47.61913" lon="-2.76254">
        <ele>11</ele>
        <time>2026-08-22T13:58:47Z</time>
      </trkpt>
      <trkpt lat="47.61911" lon="-2.76247">
        <ele>11</ele>
        <time>2026-08-22T13:58:48Z</time>
      </trkpt>
      <trkpt lat="47.61909" lon="-2.7624">
        <ele>11</ele>
        <time>2026-08-22T13:58:49Z</time>
      </trkpt>
      <trkpt lat="47.61907" lon="-2.76232">
        <ele>11</ele>
        <time>2026-08-22T13:58:50Z</time>
      </trkpt>
      <trkpt lat="47.61904" lon="-2.76225">
        <ele>11</ele>
        <time>2026-08-22T13:58:51Z</time>
      </trkpt>
      <trkpt lat="47.61902" lon="-2.76219">
        <ele>11.1</ele>
        <time>2026-08-22T13:58:52Z</time>
      </trkpt>
      <trkpt lat="47.619" lon="-2.76212">
        <ele>11.2</ele>
        <time>2026-08-22T13:58:53Z</time>
      </trkpt>
      <trkpt lat="47.61898" lon="-2.76206">
        <ele>11.4</ele>
        <time>2026-08-22T13:58:54Z</time>
      </trkpt>
      <trkpt lat="47.61896" lon="-2.76199">
        <ele>11.6</ele>
        <time>2026-08-22T13:58:55Z</time>
      </trkpt>
      <trkpt lat="47.61895" lon="-2.76193">
        <ele>11.8</ele>
        <time>2026-08-22T13:58:56Z</time>
      </trkpt>
      <trkpt lat="47.61893" lon="-2.76186">
        <ele>11.9</ele>
        <time>2026-08-22T13:58:57Z</time>
      </trkpt>
      <trkpt lat="47.61891" lon="-2.7618">
        <ele>11.9</ele>
        <time>2026-08-22T13:58:58Z</time>
      </trkpt>
      <trkpt lat="47.6189" lon="-2.76173">
        <ele>12</ele>
        <time>2026-08-22T13:58:59Z</time>
      </trkpt>
      <trkpt lat="47.61889" lon="-2.76167">
        <ele>12</ele>
        <time>2026-08-22T13:59:00Z</time>
      </trkpt>
      <trkpt lat="47.61888" lon="-2.7616">
        <ele>12</ele>
        <time>2026-08-22T13:59:01Z</time>
      </trkpt>
      <trkpt lat="47.61888" lon="-2.76153">
        <ele>12</ele>
        <time>2026-08-22T13:59:02Z</time>
      </trkpt>
      <trkpt lat="47.61887" lon="-2.76146">
        <ele>12</ele>
        <time>2026-08-22T13:59:03Z</time>
      </trkpt>
      <trkpt lat="47.61887" lon="-2.76139">
        <ele>12</ele>
        <time>2026-08-22T13:59:04Z</time>
      </trkpt>
      <trkpt lat="47.61886" lon="-2.76132">
        <ele>12</ele>
        <time>2026-08-22T13:59:05Z</time>
      </trkpt>
      <trkpt lat="47.61885" lon="-2.76125">
        <ele>12</ele>
        <time>2026-08-22T13:59:06Z</time>
      </trkpt>
      <trkpt lat="47.61884" lon="-2.76119">
        <ele>12</ele>
        <time>2026-08-22T13:59:07Z</time>
      </trkpt>
      <trkpt lat="47.61883" lon="-2.76112">
        <ele>12</ele>
        <time>2026-08-22T13:59:08Z</time>
      </trkpt>
      <trkpt lat="47.61883" lon="-2.76105">
        <ele>12</ele>
        <time>2026-08-22T13:59:09Z</time>
      </trkpt>
      <trkpt lat="47.61882" lon="-2.76098">
        <ele>12</ele>
        <time>2026-08-22T13:59:10Z</time>
      </trkpt>
      <trkpt lat="47.61881" lon="-2.7609">
        <ele>12</ele>
        <time>2026-08-22T13:59:11Z</time>
      </trkpt>
      <trkpt lat="47.6188" lon="-2.76083">
        <ele>12</ele>
        <time>2026-08-22T13:59:12Z</time>
      </trkpt>
      <trkpt lat="47.6188" lon="-2.76076">
        <ele>11.8</ele>
        <time>2026-08-22T13:59:13Z</time>
      </trkpt>
      <trkpt lat="47.61879" lon="-2.76069">
        <ele>11.7</ele>
        <time>2026-08-22T13:59:14Z</time>
      </trkpt>
      <trkpt lat="47.61878" lon="-2.76062">
        <ele>11.5</ele>
        <time>2026-08-22T13:59:15Z</time>
      </trkpt>
      <trkpt lat="47.61878" lon="-2.76055">
        <ele>11.4</ele>
        <time>2026-08-22T13:59:16Z</time>
      </trkpt>
      <trkpt lat="47.61877" lon="-2.76048">
        <ele>11.4</ele>
        <time>2026-08-22T13:59:17Z</time>
      </trkpt>
      <trkpt lat="47.61877" lon="-2.76041">
        <ele>11.4</ele>
        <time>2026-08-22T13:59:18Z</time>
      </trkpt>
      <trkpt lat="47.61876" lon="-2.76033">
        <ele>11.5</ele>
        <time>2026-08-22T13:59:19Z</time>
      </trkpt>
      <trkpt lat="47.61875" lon="-2.76026">
        <ele>11.5</ele>
        <time>2026-08-22T13:59:20Z</time>
      </trkpt>
      <trkpt lat="47.61874" lon="-2.76019">
        <ele>11.4</ele>
        <time>2026-08-22T13:59:21Z</time>
      </trkpt>
      <trkpt lat="47.61872" lon="-2.76012">
        <ele>11.4</ele>
        <time>2026-08-22T13:59:22Z</time>
      </trkpt>
      <trkpt lat="47.61871" lon="-2.76005">
        <ele>11.4</ele>
        <time>2026-08-22T13:59:23Z</time>
      </trkpt>
      <trkpt lat="47.61868" lon="-2.75998">
        <ele>11.4</ele>
        <time>2026-08-22T13:59:24Z</time>
      </trkpt>
      <trkpt lat="47.61866" lon="-2.7599">
        <ele>10.9</ele>
        <time>2026-08-22T13:59:25Z</time>
      </trkpt>
      <trkpt lat="47.61863" lon="-2.75983">
        <ele>10.6</ele>
        <time>2026-08-22T13:59:26Z</time>
      </trkpt>
      <trkpt lat="47.6186" lon="-2.75975">
        <ele>10.2</ele>
        <time>2026-08-22T13:59:27Z</time>
      </trkpt>
      <trkpt lat="47.61858" lon="-2.75967">
        <ele>9.6</ele>
        <time>2026-08-22T13:59:28Z</time>
      </trkpt>
      <trkpt lat="47.61855" lon="-2.75958">
        <ele>9.1</ele>
        <time>2026-08-22T13:59:29Z</time>
      </trkpt>
      <trkpt lat="47.61853" lon="-2.75949">
        <ele>8.6</ele>
        <time>2026-08-22T13:59:30Z</time>
      </trkpt>
      <trkpt lat="47.61851" lon="-2.75939">
        <ele>8.2</ele>
        <time>2026-08-22T13:59:31Z</time>
      </trkpt>
      <trkpt lat="47.61849" lon="-2.75929">
        <ele>7.9</ele>
        <time>2026-08-22T13:59:32Z</time>
      </trkpt>
      <trkpt lat="47.61849" lon="-2.75918">
        <ele>7.5</ele>
        <time>2026-08-22T13:59:33Z</time>
      </trkpt>
      <trkpt lat="47.61848" lon="-2.75907">
        <ele>7.1</ele>
        <time>2026-08-22T13:59:34Z</time>
      </trkpt>
      <trkpt lat="47.61847" lon="-2.75897">
        <ele>6.8</ele>
        <time>2026-08-22T13:59:35Z</time>
      </trkpt>
      <trkpt lat="47.61846" lon="-2.75886">
        <ele>6.5</ele>
        <time>2026-08-22T13:59:36Z</time>
      </trkpt>
      <trkpt lat="47.61845" lon="-2.75876">
        <ele>6.3</ele>
        <time>2026-08-22T13:59:37Z</time>
      </trkpt>
      <trkpt lat="47.61843" lon="-2.75865">
        <ele>6.1</ele>
        <time>2026-08-22T13:59:38Z</time>
      </trkpt>
      <trkpt lat="47.6184" lon="-2.75854">
        <ele>5.7</ele>
        <time>2026-08-22T13:59:39Z</time>
      </trkpt>
      <trkpt lat="47.61837" lon="-2.75844">
        <ele>5.4</ele>
        <time>2026-08-22T13:59:40Z</time>
      </trkpt>
      <trkpt lat="47.61833" lon="-2.75834">
        <ele>5</ele>
        <time>2026-08-22T13:59:41Z</time>
      </trkpt>
      <trkpt lat="47.6183" lon="-2.75824">
        <ele>5</ele>
        <time>2026-08-22T13:59:42Z</time>
      </trkpt>
      <trkpt lat="47.61827" lon="-2.75815">
        <ele>5</ele>
        <time>2026-08-22T13:59:43Z</time>
      </trkpt>
      <trkpt lat="47.61824" lon="-2.75806">
        <ele>5</ele>
        <time>2026-08-22T13:59:44Z</time>
      </trkpt>
      <trkpt lat="47.61822" lon="-2.75797">
        <ele>4.7</ele>
        <time>2026-08-22T13:59:45Z</time>
      </trkpt>
      <trkpt lat="47.6182" lon="-2.75788">
        <ele>4.4</ele>
        <time>2026-08-22T13:59:46Z</time>
      </trkpt>
      <trkpt lat="47.61818" lon="-2.75778">
        <ele>4</ele>
        <time>2026-08-22T13:59:47Z</time>
      </trkpt>
      <trkpt lat="47.61817" lon="-2.75769">
        <ele>4</ele>
        <time>2026-08-22T13:59:48Z</time>
      </trkpt>
      <trkpt lat="47.61815" lon="-2.75759">
        <ele>4</ele>
        <time>2026-08-22T13:59:49Z</time>
      </trkpt>
      <trkpt lat="47.61813" lon="-2.7575">
        <ele>4</ele>
        <time>2026-08-22T13:59:50Z</time>
      </trkpt>
      <trkpt lat="47.61811" lon="-2.75742">
        <ele>4</ele>
        <time>2026-08-22T13:59:51Z</time>
      </trkpt>
      <trkpt lat="47.61809" lon="-2.75736">
        <ele>4</ele>
        <time>2026-08-22T13:59:52Z</time>
      </trkpt>
      <trkpt lat="47.61806" lon="-2.7573">
        <ele>4</ele>
        <time>2026-08-22T13:59:53Z</time>
      </trkpt>
      <trkpt lat="47.61805" lon="-2.75725">
        <ele>4</ele>
        <time>2026-08-22T13:59:54Z</time>
      </trkpt>
      <trkpt lat="47.61805" lon="-2.75719">
        <ele>4</ele>
        <time>2026-08-22T13:59:55Z</time>
      </trkpt>
      <trkpt lat="47.61805" lon="-2.75713">
        <ele>4</ele>
        <time>2026-08-22T13:59:56Z</time>
      </trkpt>
      <trkpt lat="47.61804" lon="-2.75707">
        <ele>4</ele>
        <time>2026-08-22T13:59:57Z</time>
      </trkpt>
      <trkpt lat="47.61801" lon="-2.75702">
        <ele>3.9</ele>
        <time>2026-08-22T13:59:58Z</time>
      </trkpt>
      <trkpt lat="47.61798" lon="-2.75696">
        <ele>3.7</ele>
        <time>2026-08-22T13:59:59Z</time>
      </trkpt>
      <trkpt lat="47.61796" lon="-2.75691">
        <ele>3.6</ele>
        <time>2026-08-22T14:00:00Z</time>
      </trkpt>
      <trkpt lat="47.61793" lon="-2.75686">
        <ele>3.4</ele>
        <time>2026-08-22T14:00:01Z</time>
      </trkpt>
      <trkpt lat="47.61789" lon="-2.75682">
        <ele>3.2</ele>
        <time>2026-08-22T14:00:02Z</time>
      </trkpt>
      <trkpt lat="47.61786" lon="-2.75678">
        <ele>3.1</ele>
        <time>2026-08-22T14:00:03Z</time>
      </trkpt>
      <trkpt lat="47.61782" lon="-2.75675">
        <ele>3</ele>
        <time>2026-08-22T14:00:04Z</time>
      </trkpt>
      <trkpt lat="47.61779" lon="-2.75673">
        <ele>3</ele>
        <time>2026-08-22T14:00:05Z</time>
      </trkpt>
      <trkpt lat="47.61775" lon="-2.75672">
        <ele>3.1</ele>
        <time>2026-08-22T14:00:06Z</time>
      </trkpt>
      <trkpt lat="47.61771" lon="-2.75672">
        <ele>3.2</ele>
        <time>2026-08-22T14:00:07Z</time>
      </trkpt>
      <trkpt lat="47.61767" lon="-2.75671">
        <ele>3.4</ele>
        <time>2026-08-22T14:00:08Z</time>
      </trkpt>
      <trkpt lat="47.61763" lon="-2.7567">
        <ele>3.5</ele>
        <time>2026-08-22T14:00:09Z</time>
      </trkpt>
      <trkpt lat="47.61759" lon="-2.75669">
        <ele>3.7</ele>
        <time>2026-08-22T14:00:10Z</time>
      </trkpt>
      <trkpt lat="47.61755" lon="-2.75668">
        <ele>3.8</ele>
        <time>2026-08-22T14:00:11Z</time>
      </trkpt>
      <trkpt lat="47.61751" lon="-2.75666">
        <ele>4</ele>
        <time>2026-08-22T14:00:12Z</time>
      </trkpt>
      <trkpt lat="47.61747" lon="-2.75664">
        <ele>4</ele>
        <time>2026-08-22T14:00:13Z</time>
      </trkpt>
      <trkpt lat="47.61743" lon="-2.75661">
        <ele>4</ele>
        <time>2026-08-22T14:00:14Z</time>
      </trkpt>
      <trkpt lat="47.6174" lon="-2.75658">
        <ele>4</ele>
        <time>2026-08-22T14:00:15Z</time>
      </trkpt>
      <trkpt lat="47.61737" lon="-2.75653">
        <ele>4</ele>
        <time>2026-08-22T14:00:16Z</time>
      </trkpt>
      <trkpt lat="47.61735" lon="-2.75648">
        <ele>4</ele>
        <time>2026-08-22T14:00:17Z</time>
      </trkpt>
      <trkpt lat="47.61733" lon="-2.75643">
        <ele>4</ele>
        <time>2026-08-22T14:00:18Z</time>
      </trkpt>
      <trkpt lat="47.61732" lon="-2.75637">
        <ele>4</ele>
        <time>2026-08-22T14:00:19Z</time>
      </trkpt>
      <trkpt lat="47.61731" lon="-2.75631">
        <ele>4.2</ele>
        <time>2026-08-22T14:00:20Z</time>
      </trkpt>
      <trkpt lat="47.61729" lon="-2.75625">
        <ele>4.4</ele>
        <time>2026-08-22T14:00:21Z</time>
      </trkpt>
      <trkpt lat="47.61727" lon="-2.7562">
        <ele>4.6</ele>
        <time>2026-08-22T14:00:22Z</time>
      </trkpt>
      <trkpt lat="47.61725" lon="-2.75615">
        <ele>4.8</ele>
        <time>2026-08-22T14:00:23Z</time>
      </trkpt>
      <trkpt lat="47.61722" lon="-2.7561">
        <ele>5</ele>
        <time>2026-08-22T14:00:24Z</time>
      </trkpt>
      <trkpt lat="47.6172" lon="-2.75605">
        <ele>5</ele>
        <time>2026-08-22T14:00:25Z</time>
      </trkpt>
      <trkpt lat="47.61719" lon="-2.756">
        <ele>5</ele>
        <time>2026-08-22T14:00:26Z</time>
      </trkpt>
      <trkpt lat="47.61717" lon="-2.75595">
        <ele>5.1</ele>
        <time>2026-08-22T14:00:27Z</time>
      </trkpt>
      <trkpt lat="47.61716" lon="-2.75591">
        <ele>5.2</ele>
        <time>2026-08-22T14:00:28Z</time>
      </trkpt>
      <trkpt lat="47.61714" lon="-2.75587">
        <ele>5.3</ele>
        <time>2026-08-22T14:00:29Z</time>
      </trkpt>
      <trkpt lat="47.61712" lon="-2.75583">
        <ele>5.4</ele>
        <time>2026-08-22T14:00:30Z</time>
      </trkpt>
      <trkpt lat="47.61711" lon="-2.75578">
        <ele>5.4</ele>
        <time>2026-08-22T14:00:31Z</time>
      </trkpt>
      <trkpt lat="47.61709" lon="-2.75573">
        <ele>5.5</ele>
        <time>2026-08-22T14:00:32Z</time>
      </trkpt>
      <trkpt lat="47.61708" lon="-2.75568">
        <ele>5.5</ele>
        <time>2026-08-22T14:00:33Z</time>
      </trkpt>
      <trkpt lat="47.61706" lon="-2.75562">
        <ele>5.6</ele>
        <time>2026-08-22T14:00:34Z</time>
      </trkpt>
      <trkpt lat="47.61705" lon="-2.75557">
        <ele>5.6</ele>
        <time>2026-08-22T14:00:35Z</time>
      </trkpt>
      <trkpt lat="47.61704" lon="-2.75551">
        <ele>5.7</ele>
        <time>2026-08-22T14:00:36Z</time>
      </trkpt>
      <trkpt lat="47.61704" lon="-2.75545">
        <ele>5.7</ele>
        <time>2026-08-22T14:00:37Z</time>
      </trkpt>
      <trkpt lat="47.61703" lon="-2.75539">
        <ele>5.7</ele>
        <time>2026-08-22T14:00:38Z</time>
      </trkpt>
      <trkpt lat="47.61703" lon="-2.75533">
        <ele>5.7</ele>
        <time>2026-08-22T14:00:39Z</time>
      </trkpt>
      <trkpt lat="47.61702" lon="-2.75527">
        <ele>5.7</ele>
        <time>2026-08-22T14:00:40Z</time>
      </trkpt>
      <trkpt lat="47.61702" lon="-2.75521">
        <ele>5.7</ele>
        <time>2026-08-22T14:00:41Z</time>
      </trkpt>
      <trkpt lat="47.61701" lon="-2.75515">
        <ele>5.8</ele>
        <time>2026-08-22T14:00:42Z</time>
      </trkpt>
      <trkpt lat="47.61701" lon="-2.75509">
        <ele>5.8</ele>
        <time>2026-08-22T14:00:43Z</time>
      </trkpt>
      <trkpt lat="47.617" lon="-2.75503">
        <ele>5.8</ele>
        <time>2026-08-22T14:00:44Z</time>
      </trkpt>
      <trkpt lat="47.61699" lon="-2.75497">
        <ele>5.8</ele>
        <time>2026-08-22T14:00:45Z</time>
      </trkpt>
      <trkpt lat="47.61699" lon="-2.75491">
        <ele>5.8</ele>
        <time>2026-08-22T14:00:46Z</time>
      </trkpt>
      <trkpt lat="47.61698" lon="-2.75485">
        <ele>5.9</ele>
        <time>2026-08-22T14:00:47Z</time>
      </trkpt>
      <trkpt lat="47.61697" lon="-2.75479">
        <ele>5.9</ele>
        <time>2026-08-22T14:00:48Z</time>
      </trkpt>
      <trkpt lat="47.61696" lon="-2.75474">
        <ele>5.9</ele>
        <time>2026-08-22T14:00:49Z</time>
      </trkpt>
      <trkpt lat="47.61695" lon="-2.75468">
        <ele>6</ele>
        <time>2026-08-22T14:00:50Z</time>
      </trkpt>
      <trkpt lat="47.61694" lon="-2.75462">
        <ele>6</ele>
        <time>2026-08-22T14:00:51Z</time>
      </trkpt>
      <trkpt lat="47.61693" lon="-2.75457">
        <ele>6.1</ele>
        <time>2026-08-22T14:00:52Z</time>
      </trkpt>
      <trkpt lat="47.61691" lon="-2.75452">
        <ele>6.2</ele>
        <time>2026-08-22T14:00:53Z</time>
      </trkpt>
      <trkpt lat="47.61689" lon="-2.75447">
        <ele>6.4</ele>
        <time>2026-08-22T14:00:54Z</time>
      </trkpt>
      <trkpt lat="47.61688" lon="-2.75443">
        <ele>6.5</ele>
        <time>2026-08-22T14:00:55Z</time>
      </trkpt>
      <trkpt lat="47.61687" lon="-2.75439">
        <ele>6.7</ele>
        <time>2026-08-22T14:00:56Z</time>
      </trkpt>
      <trkpt lat="47.61685" lon="-2.75435">
        <ele>7</ele>
        <time>2026-08-22T14:00:57Z</time>
      </trkpt>
      <trkpt lat="47.61684" lon="-2.75431">
        <ele>7.2</ele>
        <time>2026-08-22T14:00:58Z</time>
      </trkpt>
      <trkpt lat="47.61682" lon="-2.75427">
        <ele>7.5</ele>
        <time>2026-08-22T14:00:59Z</time>
      </trkpt>
      <trkpt lat="47.61681" lon="-2.75423">
        <ele>7.7</ele>
        <time>2026-08-22T14:01:00Z</time>
      </trkpt>
      <trkpt lat="47.6168" lon="-2.75418">
        <ele>8</ele>
        <time>2026-08-22T14:01:01Z</time>
      </trkpt>
      <trkpt lat="47.61679" lon="-2.75414">
        <ele>8.1</ele>
        <time>2026-08-22T14:01:02Z</time>
      </trkpt>
      <trkpt lat="47.61677" lon="-2.75409">
        <ele>8.3</ele>
        <time>2026-08-22T14:01:03Z</time>
      </trkpt>
      <trkpt lat="47.61676" lon="-2.75405">
        <ele>8.3</ele>
        <time>2026-08-22T14:01:04Z</time>
      </trkpt>
      <trkpt lat="47.61674" lon="-2.75401">
        <ele>8.5</ele>
        <time>2026-08-22T14:01:05Z</time>
      </trkpt>
      <trkpt lat="47.61673" lon="-2.75396">
        <ele>8.5</ele>
        <time>2026-08-22T14:01:06Z</time>
      </trkpt>
      <trkpt lat="47.61671" lon="-2.75391">
        <ele>8.7</ele>
        <time>2026-08-22T14:01:07Z</time>
      </trkpt>
      <trkpt lat="47.6167" lon="-2.75386">
        <ele>8.8</ele>
        <time>2026-08-22T14:01:08Z</time>
      </trkpt>
      <trkpt lat="47.61669" lon="-2.75381">
        <ele>8.8</ele>
        <time>2026-08-22T14:01:09Z</time>
      </trkpt>
      <trkpt lat="47.61668" lon="-2.75376">
        <ele>8.9</ele>
        <time>2026-08-22T14:01:10Z</time>
      </trkpt>
      <trkpt lat="47.61667" lon="-2.75371">
        <ele>9</ele>
        <time>2026-08-22T14:01:11Z</time>
      </trkpt>
      <trkpt lat="47.61666" lon="-2.75366">
        <ele>9.1</ele>
        <time>2026-08-22T14:01:12Z</time>
      </trkpt>
      <trkpt lat="47.61665" lon="-2.75362">
        <ele>9.2</ele>
        <time>2026-08-22T14:01:13Z</time>
      </trkpt>
      <trkpt lat="47.61663" lon="-2.75358">
        <ele>9.4</ele>
        <time>2026-08-22T14:01:14Z</time>
      </trkpt>
      <trkpt lat="47.61662" lon="-2.75354">
        <ele>9.5</ele>
        <time>2026-08-22T14:01:15Z</time>
      </trkpt>
      <trkpt lat="47.6166" lon="-2.7535">
        <ele>9.8</ele>
        <time>2026-08-22T14:01:16Z</time>
      </trkpt>
      <trkpt lat="47.61659" lon="-2.75346">
        <ele>10</ele>
        <time>2026-08-22T14:01:17Z</time>
      </trkpt>
      <trkpt lat="47.61657" lon="-2.75342">
        <ele>10.3</ele>
        <time>2026-08-22T14:01:18Z</time>
      </trkpt>
      <trkpt lat="47.61656" lon="-2.75337">
        <ele>10.5</ele>
        <time>2026-08-22T14:01:19Z</time>
      </trkpt>
      <trkpt lat="47.61654" lon="-2.75333">
        <ele>10.8</ele>
        <time>2026-08-22T14:01:20Z</time>
      </trkpt>
      <trkpt lat="47.61653" lon="-2.75329">
        <ele>10.9</ele>
        <time>2026-08-22T14:01:21Z</time>
      </trkpt>
      <trkpt lat="47.61651" lon="-2.75326">
        <ele>11.1</ele>
        <time>2026-08-22T14:01:22Z</time>
      </trkpt>
      <trkpt lat="47.61649" lon="-2.75322">
        <ele>11.3</ele>
        <time>2026-08-22T14:01:23Z</time>
      </trkpt>
      <trkpt lat="47.61648" lon="-2.75318">
        <ele>11.3</ele>
        <time>2026-08-22T14:01:24Z</time>
      </trkpt>
      <trkpt lat="47.61647" lon="-2.75314">
        <ele>11.3</ele>
        <time>2026-08-22T14:01:25Z</time>
      </trkpt>
      <trkpt lat="47.61645" lon="-2.7531">
        <ele>11.5</ele>
        <time>2026-08-22T14:01:26Z</time>
      </trkpt>
      <trkpt lat="47.61643" lon="-2.75306">
        <ele>11.6</ele>
        <time>2026-08-22T14:01:27Z</time>
      </trkpt>
      <trkpt lat="47.61642" lon="-2.75302">
        <ele>11.7</ele>
        <time>2026-08-22T14:01:28Z</time>
      </trkpt>
      <trkpt lat="47.6164" lon="-2.75299">
        <ele>11.9</ele>
        <time>2026-08-22T14:01:29Z</time>
      </trkpt>
      <trkpt lat="47.61637" lon="-2.75296">
        <ele>12.1</ele>
        <time>2026-08-22T14:01:30Z</time>
      </trkpt>
      <trkpt lat="47.61635" lon="-2.75293">
        <ele>12.3</ele>
        <time>2026-08-22T14:01:31Z</time>
      </trkpt>
      <trkpt lat="47.61633" lon="-2.7529">
        <ele>12.4</ele>
        <time>2026-08-22T14:01:32Z</time>
      </trkpt>
      <trkpt lat="47.61631" lon="-2.75287">
        <ele>12.6</ele>
        <time>2026-08-22T14:01:33Z</time>
      </trkpt>
      <trkpt lat="47.61628" lon="-2.75285">
        <ele>12.8</ele>
        <time>2026-08-22T14:01:34Z</time>
      </trkpt>
      <trkpt lat="47.61626" lon="-2.75282">
        <ele>12.9</ele>
        <time>2026-08-22T14:01:35Z</time>
      </trkpt>
      <trkpt lat="47.61624" lon="-2.7528">
        <ele>13.1</ele>
        <time>2026-08-22T14:01:36Z</time>
      </trkpt>
      <trkpt lat="47.61622" lon="-2.75277">
        <ele>13.2</ele>
        <time>2026-08-22T14:01:37Z</time>
      </trkpt>
      <trkpt lat="47.6162" lon="-2.75275">
        <ele>13.2</ele>
        <time>2026-08-22T14:01:38Z</time>
      </trkpt>
      <trkpt lat="47.61618" lon="-2.75274">
        <ele>13.3</ele>
        <time>2026-08-22T14:01:39Z</time>
      </trkpt>
      <trkpt lat="47.61615" lon="-2.75273">
        <ele>13.5</ele>
        <time>2026-08-22T14:01:40Z</time>
      </trkpt>
      <trkpt lat="47.61612" lon="-2.75272">
        <ele>13.7</ele>
        <time>2026-08-22T14:01:41Z</time>
      </trkpt>
      <trkpt lat="47.6161" lon="-2.7527">
        <ele>13.8</ele>
        <time>2026-08-22T14:01:42Z</time>
      </trkpt>
      <trkpt lat="47.61607" lon="-2.75268">
        <ele>13.8</ele>
        <time>2026-08-22T14:01:43Z</time>
      </trkpt>
      <trkpt lat="47.61605" lon="-2.75265">
        <ele>13.9</ele>
        <time>2026-08-22T14:01:44Z</time>
      </trkpt>
      <trkpt lat="47.61603" lon="-2.75262">
        <ele>13.9</ele>
        <time>2026-08-22T14:01:45Z</time>
      </trkpt>
      <trkpt lat="47.61601" lon="-2.75259">
        <ele>13.9</ele>
        <time>2026-08-22T14:01:46Z</time>
      </trkpt>
      <trkpt lat="47.61598" lon="-2.75256">
        <ele>14.1</ele>
        <time>2026-08-22T14:01:47Z</time>
      </trkpt>
      <trkpt lat="47.61596" lon="-2.75253">
        <ele>14.1</ele>
        <time>2026-08-22T14:01:48Z</time>
      </trkpt>
      <trkpt lat="47.61594" lon="-2.75249">
        <ele>14.2</ele>
        <time>2026-08-22T14:01:49Z</time>
      </trkpt>
      <trkpt lat="47.61592" lon="-2.75246">
        <ele>14.2</ele>
        <time>2026-08-22T14:01:50Z</time>
      </trkpt>
      <trkpt lat="47.6159" lon="-2.75243">
        <ele>14.3</ele>
        <time>2026-08-22T14:01:51Z</time>
      </trkpt>
      <trkpt lat="47.61588" lon="-2.75239">
        <ele>14.3</ele>
        <time>2026-08-22T14:01:52Z</time>
      </trkpt>
      <trkpt lat="47.61586" lon="-2.75236">
        <ele>14.3</ele>
        <time>2026-08-22T14:01:53Z</time>
      </trkpt>
      <trkpt lat="47.61584" lon="-2.75232">
        <ele>14.3</ele>
        <time>2026-08-22T14:01:54Z</time>
      </trkpt>
      <trkpt lat="47.61583" lon="-2.75229">
        <ele>14.3</ele>
        <time>2026-08-22T14:01:55Z</time>
      </trkpt>
      <trkpt lat="47.6158" lon="-2.75225">
        <ele>14.3</ele>
        <time>2026-08-22T14:01:56Z</time>
      </trkpt>
      <trkpt lat="47.61578" lon="-2.75222">
        <ele>14.4</ele>
        <time>2026-08-22T14:01:57Z</time>
      </trkpt>
      <trkpt lat="47.61576" lon="-2.75218">
        <ele>14.4</ele>
        <time>2026-08-22T14:01:58Z</time>
      </trkpt>
      <trkpt lat="47.61573" lon="-2.75214">
        <ele>14.4</ele>
        <time>2026-08-22T14:01:59Z</time>
      </trkpt>
      <trkpt lat="47.61571" lon="-2.7521">
        <ele>14.4</ele>
        <time>2026-08-22T14:02:00Z</time>
      </trkpt>
      <trkpt lat="47.61569" lon="-2.75206">
        <ele>14.4</ele>
        <time>2026-08-22T14:02:01Z</time>
      </trkpt>
      <trkpt lat="47.61566" lon="-2.75203">
        <ele>14.6</ele>
        <time>2026-08-22T14:02:02Z</time>
      </trkpt>
      <trkpt lat="47.61564" lon="-2.75198">
        <ele>14.5</ele>
        <time>2026-08-22T14:02:03Z</time>
      </trkpt>
      <trkpt lat="47.61562" lon="-2.75194">
        <ele>14.5</ele>
        <time>2026-08-22T14:02:04Z</time>
      </trkpt>
      <trkpt lat="47.61559" lon="-2.75189">
        <ele>14.6</ele>
        <time>2026-08-22T14:02:05Z</time>
      </trkpt>
      <trkpt lat="47.61557" lon="-2.75185">
        <ele>14.6</ele>
        <time>2026-08-22T14:02:06Z</time>
      </trkpt>
      <trkpt lat="47.61554" lon="-2.7518">
        <ele>14.5</ele>
        <time>2026-08-22T14:02:07Z</time>
      </trkpt>
      <trkpt lat="47.61551" lon="-2.75176">
        <ele>14.5</ele>
        <time>2026-08-22T14:02:08Z</time>
      </trkpt>
      <trkpt lat="47.61549" lon="-2.75172">
        <ele>14.4</ele>
        <time>2026-08-22T14:02:09Z</time>
      </trkpt>
      <trkpt lat="47.61546" lon="-2.75167">
        <ele>14.4</ele>
        <time>2026-08-22T14:02:10Z</time>
      </trkpt>
      <trkpt lat="47.61544" lon="-2.75163">
        <ele>14.3</ele>
        <time>2026-08-22T14:02:11Z</time>
      </trkpt>
      <trkpt lat="47.61542" lon="-2.75158">
        <ele>14.3</ele>
        <time>2026-08-22T14:02:12Z</time>
      </trkpt>
      <trkpt lat="47.61539" lon="-2.75153">
        <ele>14.4</ele>
        <time>2026-08-22T14:02:13Z</time>
      </trkpt>
      <trkpt lat="47.61537" lon="-2.75149">
        <ele>14.5</ele>
        <time>2026-08-22T14:02:14Z</time>
      </trkpt>
      <trkpt lat="47.61534" lon="-2.75144">
        <ele>14.6</ele>
        <time>2026-08-22T14:02:15Z</time>
      </trkpt>
      <trkpt lat="47.61532" lon="-2.75139">
        <ele>14.7</ele>
        <time>2026-08-22T14:02:16Z</time>
      </trkpt>
      <trkpt lat="47.6153" lon="-2.75135">
        <ele>14.7</ele>
        <time>2026-08-22T14:02:17Z</time>
      </trkpt>
      <trkpt lat="47.61527" lon="-2.7513">
        <ele>14.7</ele>
        <time>2026-08-22T14:02:18Z</time>
      </trkpt>
      <trkpt lat="47.61525" lon="-2.75125">
        <ele>14.5</ele>
        <time>2026-08-22T14:02:19Z</time>
      </trkpt>
      <trkpt lat="47.61525" lon="-2.75119">
        <ele>14.4</ele>
        <time>2026-08-22T14:02:20Z</time>
      </trkpt>
      <trkpt lat="47.61525" lon="-2.75113">
        <ele>14.2</ele>
        <time>2026-08-22T14:02:21Z</time>
      </trkpt>
      <trkpt lat="47.61527" lon="-2.75108">
        <ele>14</ele>
        <time>2026-08-22T14:02:22Z</time>
      </trkpt>
      <trkpt lat="47.6153" lon="-2.75104">
        <ele>13.8</ele>
        <time>2026-08-22T14:02:23Z</time>
      </trkpt>
      <trkpt lat="47.61535" lon="-2.751">
        <ele>13.5</ele>
        <time>2026-08-22T14:02:24Z</time>
      </trkpt>
      <trkpt lat="47.61539" lon="-2.75096">
        <ele>13.2</ele>
        <time>2026-08-22T14:02:25Z</time>
      </trkpt>
      <trkpt lat="47.61542" lon="-2.75091">
        <ele>13</ele>
        <time>2026-08-22T14:02:26Z</time>
      </trkpt>
      <trkpt lat="47.61544" lon="-2.75085">
        <ele>12.8</ele>
        <time>2026-08-22T14:02:27Z</time>
      </trkpt>
      <trkpt lat="47.61545" lon="-2.75079">
        <ele>12.8</ele>
        <time>2026-08-22T14:02:28Z</time>
      </trkpt>
      <trkpt lat="47.61545" lon="-2.75073">
        <ele>12.8</ele>
        <time>2026-08-22T14:02:29Z</time>
      </trkpt>
      <trkpt lat="47.61544" lon="-2.75067">
        <ele>12.8</ele>
        <time>2026-08-22T14:02:30Z</time>
      </trkpt>
      <trkpt lat="47.61543" lon="-2.75061">
        <ele>12.9</ele>
        <time>2026-08-22T14:02:31Z</time>
      </trkpt>
      <trkpt lat="47.61542" lon="-2.75056">
        <ele>13</ele>
        <time>2026-08-22T14:02:32Z</time>
      </trkpt>
      <trkpt lat="47.61541" lon="-2.7505">
        <ele>13.1</ele>
        <time>2026-08-22T14:02:33Z</time>
      </trkpt>
      <trkpt lat="47.6154" lon="-2.75045">
        <ele>13.3</ele>
        <time>2026-08-22T14:02:34Z</time>
      </trkpt>
      <trkpt lat="47.61539" lon="-2.75039">
        <ele>13.4</ele>
        <time>2026-08-22T14:02:35Z</time>
      </trkpt>
      <trkpt lat="47.61538" lon="-2.75034">
        <ele>13.5</ele>
        <time>2026-08-22T14:02:36Z</time>
      </trkpt>
      <trkpt lat="47.61536" lon="-2.75028">
        <ele>13.7</ele>
        <time>2026-08-22T14:02:37Z</time>
      </trkpt>
      <trkpt lat="47.61535" lon="-2.75023">
        <ele>13.9</ele>
        <time>2026-08-22T14:02:38Z</time>
      </trkpt>
      <trkpt lat="47.61534" lon="-2.75017">
        <ele>14.1</ele>
        <time>2026-08-22T14:02:39Z</time>
      </trkpt>
      <trkpt lat="47.61533" lon="-2.75012">
        <ele>14.3</ele>
        <time>2026-08-22T14:02:40Z</time>
      </trkpt>
      <trkpt lat="47.61532" lon="-2.75006">
        <ele>14.5</ele>
        <time>2026-08-22T14:02:41Z</time>
      </trkpt>
      <trkpt lat="47.6153" lon="-2.75001">
        <ele>14.8</ele>
        <time>2026-08-22T14:02:42Z</time>
      </trkpt>
      <trkpt lat="47.61529" lon="-2.74995">
        <ele>14.9</ele>
        <time>2026-08-22T14:02:43Z</time>
      </trkpt>
      <trkpt lat="47.61527" lon="-2.7499">
        <ele>15</ele>
        <time>2026-08-22T14:02:44Z</time>
      </trkpt>
      <trkpt lat="47.61526" lon="-2.74984">
        <ele>15.1</ele>
        <time>2026-08-22T14:02:45Z</time>
      </trkpt>
      <trkpt lat="47.61524" lon="-2.74979">
        <ele>15.1</ele>
        <time>2026-08-22T14:02:46Z</time>
      </trkpt>
      <trkpt lat="47.61523" lon="-2.74974">
        <ele>15.2</ele>
        <time>2026-08-22T14:02:47Z</time>
      </trkpt>
      <trkpt lat="47.61521" lon="-2.74969">
        <ele>15.2</ele>
        <time>2026-08-22T14:02:48Z</time>
      </trkpt>
      <trkpt lat="47.6152" lon="-2.74963">
        <ele>15</ele>
        <time>2026-08-22T14:02:49Z</time>
      </trkpt>
      <trkpt lat="47.61518" lon="-2.74958">
        <ele>15</ele>
        <time>2026-08-22T14:02:50Z</time>
      </trkpt>
      <trkpt lat="47.61517" lon="-2.74953">
        <ele>15</ele>
        <time>2026-08-22T14:02:51Z</time>
      </trkpt>
      <trkpt lat="47.61515" lon="-2.74947">
        <ele>15</ele>
        <time>2026-08-22T14:02:52Z</time>
      </trkpt>
      <trkpt lat="47.61514" lon="-2.74942">
        <ele>14.9</ele>
        <time>2026-08-22T14:02:53Z</time>
      </trkpt>
      <trkpt lat="47.61513" lon="-2.74937">
        <ele>14.9</ele>
        <time>2026-08-22T14:02:54Z</time>
      </trkpt>
      <trkpt lat="47.61512" lon="-2.74932">
        <ele>14.9</ele>
        <time>2026-08-22T14:02:55Z</time>
      </trkpt>
      <trkpt lat="47.61511" lon="-2.74927">
        <ele>14.8</ele>
        <time>2026-08-22T14:02:56Z</time>
      </trkpt>
      <trkpt lat="47.6151" lon="-2.74921">
        <ele>14.7</ele>
        <time>2026-08-22T14:02:57Z</time>
      </trkpt>
      <trkpt lat="47.6151" lon="-2.74915">
        <ele>14.6</ele>
        <time>2026-08-22T14:02:58Z</time>
      </trkpt>
      <trkpt lat="47.61509" lon="-2.7491">
        <ele>14.7</ele>
        <time>2026-08-22T14:02:59Z</time>
      </trkpt>
      <trkpt lat="47.61509" lon="-2.74905">
        <ele>14.7</ele>
        <time>2026-08-22T14:03:00Z</time>
      </trkpt>
      <trkpt lat="47.61508" lon="-2.74899">
        <ele>14.7</ele>
        <time>2026-08-22T14:03:01Z</time>
      </trkpt>
      <trkpt lat="47.61507" lon="-2.74893">
        <ele>14.7</ele>
        <time>2026-08-22T14:03:02Z</time>
      </trkpt>
      <trkpt lat="47.61507" lon="-2.74887">
        <ele>14.7</ele>
        <time>2026-08-22T14:03:03Z</time>
      </trkpt>
      <trkpt lat="47.61506" lon="-2.74879">
        <ele>14.4</ele>
        <time>2026-08-22T14:03:04Z</time>
      </trkpt>
      <trkpt lat="47.61505" lon="-2.74872">
        <ele>14.2</ele>
        <time>2026-08-22T14:03:05Z</time>
      </trkpt>
      <trkpt lat="47.61505" lon="-2.74864">
        <ele>13.9</ele>
        <time>2026-08-22T14:03:06Z</time>
      </trkpt>
      <trkpt lat="47.61505" lon="-2.74855">
        <ele>13.6</ele>
        <time>2026-08-22T14:03:07Z</time>
      </trkpt>
      <trkpt lat="47.61505" lon="-2.74847">
        <ele>13.2</ele>
        <time>2026-08-22T14:03:08Z</time>
      </trkpt>
      <trkpt lat="47.61505" lon="-2.74838">
        <ele>12.8</ele>
        <time>2026-08-22T14:03:09Z</time>
      </trkpt>
      <trkpt lat="47.61505" lon="-2.74828">
        <ele>12.3</ele>
        <time>2026-08-22T14:03:10Z</time>
      </trkpt>
      <trkpt lat="47.61505" lon="-2.74818">
        <ele>11.6</ele>
        <time>2026-08-22T14:03:11Z</time>
      </trkpt>
      <trkpt lat="47.61505" lon="-2.74808">
        <ele>11</ele>
        <time>2026-08-22T14:03:12Z</time>
      </trkpt>
      <trkpt lat="47.61504" lon="-2.74797">
        <ele>10.3</ele>
        <time>2026-08-22T14:03:13Z</time>
      </trkpt>
      <trkpt lat="47.61502" lon="-2.74786">
        <ele>9.6</ele>
        <time>2026-08-22T14:03:14Z</time>
      </trkpt>
      <trkpt lat="47.615" lon="-2.74775">
        <ele>8.9</ele>
        <time>2026-08-22T14:03:15Z</time>
      </trkpt>
      <trkpt lat="47.61498" lon="-2.74764">
        <ele>8.6</ele>
        <time>2026-08-22T14:03:16Z</time>
      </trkpt>
      <trkpt lat="47.61496" lon="-2.74755">
        <ele>8.3</ele>
        <time>2026-08-22T14:03:17Z</time>
      </trkpt>
      <trkpt lat="47.61493" lon="-2.74746">
        <ele>8.1</ele>
        <time>2026-08-22T14:03:18Z</time>
      </trkpt>
      <trkpt lat="47.61491" lon="-2.74739">
        <ele>7.8</ele>
        <time>2026-08-22T14:03:19Z</time>
      </trkpt>
      <trkpt lat="47.61488" lon="-2.74733">
        <ele>7.6</ele>
        <time>2026-08-22T14:03:20Z</time>
      </trkpt>
      <trkpt lat="47.61486" lon="-2.74728">
        <ele>7.3</ele>
        <time>2026-08-22T14:03:21Z</time>
      </trkpt>
      <trkpt lat="47.61483" lon="-2.74723">
        <ele>7</ele>
        <time>2026-08-22T14:03:22Z</time>
      </trkpt>
      <trkpt lat="47.6148" lon="-2.74719">
        <ele>6.9</ele>
        <time>2026-08-22T14:03:23Z</time>
      </trkpt>
      <trkpt lat="47.61476" lon="-2.74715">
        <ele>6.7</ele>
        <time>2026-08-22T14:03:24Z</time>
      </trkpt>
      <trkpt lat="47.61472" lon="-2.7471">
        <ele>6.6</ele>
        <time>2026-08-22T14:03:25Z</time>
      </trkpt>
      <trkpt lat="47.61468" lon="-2.74706">
        <ele>6.6</ele>
        <time>2026-08-22T14:03:26Z</time>
      </trkpt>
      <trkpt lat="47.61463" lon="-2.74702">
        <ele>6.6</ele>
        <time>2026-08-22T14:03:27Z</time>
      </trkpt>
      <trkpt lat="47.61458" lon="-2.74698">
        <ele>6.6</ele>
        <time>2026-08-22T14:03:28Z</time>
      </trkpt>
      <trkpt lat="47.61453" lon="-2.74694">
        <ele>6.7</ele>
        <time>2026-08-22T14:03:29Z</time>
      </trkpt>
      <trkpt lat="47.61449" lon="-2.74689">
        <ele>6.7</ele>
        <time>2026-08-22T14:03:30Z</time>
      </trkpt>
      <trkpt lat="47.61444" lon="-2.74685">
        <ele>6.7</ele>
        <time>2026-08-22T14:03:31Z</time>
      </trkpt>
      <trkpt lat="47.6144" lon="-2.7468">
        <ele>6.6</ele>
        <time>2026-08-22T14:03:32Z</time>
      </trkpt>
      <trkpt lat="47.61435" lon="-2.74676">
        <ele>6.7</ele>
        <time>2026-08-22T14:03:33Z</time>
      </trkpt>
      <trkpt lat="47.61431" lon="-2.74673">
        <ele>6.7</ele>
        <time>2026-08-22T14:03:34Z</time>
      </trkpt>
      <trkpt lat="47.61426" lon="-2.74671">
        <ele>6.8</ele>
        <time>2026-08-22T14:03:35Z</time>
      </trkpt>
      <trkpt lat="47.61422" lon="-2.74671">
        <ele>7</ele>
        <time>2026-08-22T14:03:36Z</time>
      </trkpt>
      <trkpt lat="47.61418" lon="-2.74672">
        <ele>7.1</ele>
        <time>2026-08-22T14:03:37Z</time>
      </trkpt>
      <trkpt lat="47.61415" lon="-2.74672">
        <ele>7.2</ele>
        <time>2026-08-22T14:03:38Z</time>
      </trkpt>
      <trkpt lat="47.61411" lon="-2.74673">
        <ele>7.4</ele>
        <time>2026-08-22T14:03:39Z</time>
      </trkpt>
      <trkpt lat="47.61407" lon="-2.74674">
        <ele>7.5</ele>
        <time>2026-08-22T14:03:40Z</time>
      </trkpt>
      <trkpt lat="47.61403" lon="-2.74673">
        <ele>7.6</ele>
        <time>2026-08-22T14:03:41Z</time>
      </trkpt>
      <trkpt lat="47.614" lon="-2.74671">
        <ele>7.7</ele>
        <time>2026-08-22T14:03:42Z</time>
      </trkpt>
      <trkpt lat="47.61398" lon="-2.74667">
        <ele>7.7</ele>
        <time>2026-08-22T14:03:43Z</time>
      </trkpt>
      <trkpt lat="47.61397" lon="-2.74661">
        <ele>7.5</ele>
        <time>2026-08-22T14:03:44Z</time>
      </trkpt>
      <trkpt lat="47.61396" lon="-2.74655">
        <ele>7.3</ele>
        <time>2026-08-22T14:03:45Z</time>
      </trkpt>
      <trkpt lat="47.61396" lon="-2.74648">
        <ele>7.1</ele>
        <time>2026-08-22T14:03:46Z</time>
      </trkpt>
      <trkpt lat="47.61396" lon="-2.74641">
        <ele>6.8</ele>
        <time>2026-08-22T14:03:47Z</time>
      </trkpt>
      <trkpt lat="47.61396" lon="-2.74633">
        <ele>6.7</ele>
        <time>2026-08-22T14:03:48Z</time>
      </trkpt>
      <trkpt lat="47.61396" lon="-2.74625">
        <ele>6.7</ele>
        <time>2026-08-22T14:03:49Z</time>
      </trkpt>
      <trkpt lat="47.61396" lon="-2.74618">
        <ele>6.7</ele>
        <time>2026-08-22T14:03:50Z</time>
      </trkpt>
      <trkpt lat="47.61396" lon="-2.7461">
        <ele>6.7</ele>
        <time>2026-08-22T14:03:51Z</time>
      </trkpt>
      <trkpt lat="47.61396" lon="-2.74603">
        <ele>6.7</ele>
        <time>2026-08-22T14:03:52Z</time>
      </trkpt>
      <trkpt lat="47.61396" lon="-2.74595">
        <ele>6.7</ele>
        <time>2026-08-22T14:03:53Z</time>
      </trkpt>
      <trkpt lat="47.61396" lon="-2.74588">
        <ele>6.7</ele>
        <time>2026-08-22T14:03:54Z</time>
      </trkpt>
      <trkpt lat="47.61396" lon="-2.7458">
        <ele>6.7</ele>
        <time>2026-08-22T14:03:55Z</time>
      </trkpt>
      <trkpt lat="47.61396" lon="-2.74572">
        <ele>6.4</ele>
        <time>2026-08-22T14:03:56Z</time>
      </trkpt>
      <trkpt lat="47.61397" lon="-2.74564">
        <ele>6.2</ele>
        <time>2026-08-22T14:03:57Z</time>
      </trkpt>
      <trkpt lat="47.61396" lon="-2.74556">
        <ele>6</ele>
        <time>2026-08-22T14:03:58Z</time>
      </trkpt>
      <trkpt lat="47.61397" lon="-2.74548">
        <ele>6</ele>
        <time>2026-08-22T14:03:59Z</time>
      </trkpt>
      <trkpt lat="47.61397" lon="-2.74541">
        <ele>6</ele>
        <time>2026-08-22T14:04:00Z</time>
      </trkpt>
      <trkpt lat="47.61397" lon="-2.74533">
        <ele>6</ele>
        <time>2026-08-22T14:04:01Z</time>
      </trkpt>
      <trkpt lat="47.61397" lon="-2.74526">
        <ele>6</ele>
        <time>2026-08-22T14:04:02Z</time>
      </trkpt>
      <trkpt lat="47.61397" lon="-2.74518">
        <ele>5.9</ele>
        <time>2026-08-22T14:04:03Z</time>
      </trkpt>
      <trkpt lat="47.61396" lon="-2.74511">
        <ele>5.8</ele>
        <time>2026-08-22T14:04:04Z</time>
      </trkpt>
      <trkpt lat="47.61396" lon="-2.74503">
        <ele>5.8</ele>
        <time>2026-08-22T14:04:05Z</time>
      </trkpt>
      <trkpt lat="47.61397" lon="-2.74496">
        <ele>5.6</ele>
        <time>2026-08-22T14:04:06Z</time>
      </trkpt>
      <trkpt lat="47.61397" lon="-2.74489">
        <ele>5.3</ele>
        <time>2026-08-22T14:04:07Z</time>
      </trkpt>
      <trkpt lat="47.61397" lon="-2.74481">
        <ele>5</ele>
        <time>2026-08-22T14:04:08Z</time>
      </trkpt>
      <trkpt lat="47.61397" lon="-2.74474">
        <ele>4.8</ele>
        <time>2026-08-22T14:04:09Z</time>
      </trkpt>
      <trkpt lat="47.61396" lon="-2.74467">
        <ele>4.7</ele>
        <time>2026-08-22T14:04:10Z</time>
      </trkpt>
      <trkpt lat="47.61396" lon="-2.7446">
        <ele>4.7</ele>
        <time>2026-08-22T14:04:11Z</time>
      </trkpt>
      <trkpt lat="47.61397" lon="-2.74453">
        <ele>4.7</ele>
        <time>2026-08-22T14:04:12Z</time>
      </trkpt>
      <trkpt lat="47.61397" lon="-2.74445">
        <ele>4.7</ele>
        <time>2026-08-22T14:04:13Z</time>
      </trkpt>
      <trkpt lat="47.61397" lon="-2.74439">
        <ele>4.5</ele>
        <time>2026-08-22T14:04:14Z</time>
      </trkpt>
      <trkpt lat="47.61397" lon="-2.74434">
        <ele>4.3</ele>
        <time>2026-08-22T14:04:15Z</time>
      </trkpt>
      <trkpt lat="47.61396" lon="-2.74429">
        <ele>4.2</ele>
        <time>2026-08-22T14:04:16Z</time>
      </trkpt>
      <trkpt lat="47.61396" lon="-2.74425">
        <ele>4</ele>
        <time>2026-08-22T14:04:17Z</time>
      </trkpt>
      <trkpt lat="47.61395" lon="-2.74422">
        <ele>4</ele>
        <time>2026-08-22T14:04:18Z</time>
      </trkpt>
      <trkpt lat="47.61394" lon="-2.74419">
        <ele>3.9</ele>
        <time>2026-08-22T14:04:19Z</time>
      </trkpt>
      <trkpt lat="47.61393" lon="-2.74418">
        <ele>3.9</ele>
        <time>2026-08-22T14:04:20Z</time>
      </trkpt>
      <trkpt lat="47.61392" lon="-2.74416">
        <ele>3.9</ele>
        <time>2026-08-22T14:04:21Z</time>
      </trkpt>
      <trkpt lat="47.61391" lon="-2.74415">
        <ele>3.9</ele>
        <time>2026-08-22T14:04:22Z</time>
      </trkpt>
      <trkpt lat="47.61389" lon="-2.74415">
        <ele>4</ele>
        <time>2026-08-22T14:04:23Z</time>
      </trkpt>
      <trkpt lat="47.61387" lon="-2.74416">
        <ele>4.1</ele>
        <time>2026-08-22T14:04:24Z</time>
      </trkpt>
      <trkpt lat="47.61385" lon="-2.74417">
        <ele>4.3</ele>
        <time>2026-08-22T14:04:25Z</time>
      </trkpt>
      <trkpt lat="47.61383" lon="-2.74419">
        <ele>4.5</ele>
        <time>2026-08-22T14:04:26Z</time>
      </trkpt>
      <trkpt lat="47.6138" lon="-2.7442">
        <ele>4.8</ele>
        <time>2026-08-22T14:04:27Z</time>
      </trkpt>
      <trkpt lat="47.61378" lon="-2.74422">
        <ele>5</ele>
        <time>2026-08-22T14:04:28Z</time>
      </trkpt>
      <trkpt lat="47.61375" lon="-2.74423">
        <ele>5.2</ele>
        <time>2026-08-22T14:04:29Z</time>
      </trkpt>
      <trkpt lat="47.61373" lon="-2.74423">
        <ele>5.4</ele>
        <time>2026-08-22T14:04:30Z</time>
      </trkpt>
      <trkpt lat="47.6137" lon="-2.74422">
        <ele>5.6</ele>
        <time>2026-08-22T14:04:31Z</time>
      </trkpt>
      <trkpt lat="47.61367" lon="-2.74422">
        <ele>5.8</ele>
        <time>2026-08-22T14:04:32Z</time>
      </trkpt>
      <trkpt lat="47.61364" lon="-2.74423">
        <ele>6</ele>
        <time>2026-08-22T14:04:33Z</time>
      </trkpt>
      <trkpt lat="47.6136" lon="-2.74425">
        <ele>6.4</ele>
        <time>2026-08-22T14:04:34Z</time>
      </trkpt>
      <trkpt lat="47.61357" lon="-2.74426">
        <ele>6.6</ele>
        <time>2026-08-22T14:04:35Z</time>
      </trkpt>
      <trkpt lat="47.61353" lon="-2.74427">
        <ele>6.8</ele>
        <time>2026-08-22T14:04:36Z</time>
      </trkpt>
      <trkpt lat="47.61349" lon="-2.74428">
        <ele>7.1</ele>
        <time>2026-08-22T14:04:37Z</time>
      </trkpt>
      <trkpt lat="47.61345" lon="-2.74428">
        <ele>7.3</ele>
        <time>2026-08-22T14:04:38Z</time>
      </trkpt>
      <trkpt lat="47.61341" lon="-2.74428">
        <ele>7.6</ele>
        <time>2026-08-22T14:04:39Z</time>
      </trkpt>
      <trkpt lat="47.61337" lon="-2.74428">
        <ele>7.8</ele>
        <time>2026-08-22T14:04:40Z</time>
      </trkpt>
      <trkpt lat="47.61333" lon="-2.74429">
        <ele>8</ele>
        <time>2026-08-22T14:04:41Z</time>
      </trkpt>
      <trkpt lat="47.61329" lon="-2.74429">
        <ele>8.2</ele>
        <time>2026-08-22T14:04:42Z</time>
      </trkpt>
      <trkpt lat="47.61326" lon="-2.74429">
        <ele>8.3</ele>
        <time>2026-08-22T14:04:43Z</time>
      </trkpt>
      <trkpt lat="47.61322" lon="-2.74429">
        <ele>8.4</ele>
        <time>2026-08-22T14:04:44Z</time>
      </trkpt>
      <trkpt lat="47.61318" lon="-2.7443">
        <ele>8.6</ele>
        <time>2026-08-22T14:04:45Z</time>
      </trkpt>
      <trkpt lat="47.61314" lon="-2.74431">
        <ele>8.7</ele>
        <time>2026-08-22T14:04:46Z</time>
      </trkpt>
      <trkpt lat="47.61311" lon="-2.74431">
        <ele>8.8</ele>
        <time>2026-08-22T14:04:47Z</time>
      </trkpt>
      <trkpt lat="47.61307" lon="-2.74432">
        <ele>8.9</ele>
        <time>2026-08-22T14:04:48Z</time>
      </trkpt>
      <trkpt lat="47.61303" lon="-2.74433">
        <ele>9</ele>
        <time>2026-08-22T14:04:49Z</time>
      </trkpt>
      <trkpt lat="47.61299" lon="-2.74434">
        <ele>9</ele>
        <time>2026-08-22T14:04:50Z</time>
      </trkpt>
      <trkpt lat="47.61296" lon="-2.74434">
        <ele>9</ele>
        <time>2026-08-22T14:04:51Z</time>
      </trkpt>
      <trkpt lat="47.61293" lon="-2.74435">
        <ele>9</ele>
        <time>2026-08-22T14:04:52Z</time>
      </trkpt>
      <trkpt lat="47.61289" lon="-2.74436">
        <ele>9</ele>
        <time>2026-08-22T14:04:53Z</time>
      </trkpt>
      <trkpt lat="47.61286" lon="-2.74437">
        <ele>9</ele>
        <time>2026-08-22T14:04:54Z</time>
      </trkpt>
      <trkpt lat="47.61282" lon="-2.74438">
        <ele>9</ele>
        <time>2026-08-22T14:04:55Z</time>
      </trkpt>
      <trkpt lat="47.61279" lon="-2.74438">
        <ele>9</ele>
        <time>2026-08-22T14:04:56Z</time>
      </trkpt>
      <trkpt lat="47.61276" lon="-2.74439">
        <ele>8.9</ele>
        <time>2026-08-22T14:04:57Z</time>
      </trkpt>
      <trkpt lat="47.61273" lon="-2.74439">
        <ele>8.8</ele>
        <time>2026-08-22T14:04:58Z</time>
      </trkpt>
      <trkpt lat="47.61269" lon="-2.7444">
        <ele>8.7</ele>
        <time>2026-08-22T14:04:59Z</time>
      </trkpt>
      <trkpt lat="47.61266" lon="-2.7444">
        <ele>8.6</ele>
        <time>2026-08-22T14:05:00Z</time>
      </trkpt>
      <trkpt lat="47.61263" lon="-2.74441">
        <ele>8.5</ele>
        <time>2026-08-22T14:05:01Z</time>
      </trkpt>
      <trkpt lat="47.61261" lon="-2.74442">
        <ele>8.4</ele>
        <time>2026-08-22T14:05:02Z</time>
      </trkpt>
      <trkpt lat="47.61259" lon="-2.74444">
        <ele>8.3</ele>
        <time>2026-08-22T14:05:03Z</time>
      </trkpt>
      <trkpt lat="47.61257" lon="-2.74445">
        <ele>8.3</ele>
        <time>2026-08-22T14:05:04Z</time>
      </trkpt>
      <trkpt lat="47.61256" lon="-2.74446">
        <ele>8.2</ele>
        <time>2026-08-22T14:05:05Z</time>
      </trkpt>
      <trkpt lat="47.61256" lon="-2.74446">
        <ele>8.2</ele>
        <time>2026-08-22T14:05:06Z</time>
      </trkpt>
      <trkpt lat="47.61256" lon="-2.74446">
        <ele>8.2</ele>
        <time>2026-08-22T14:05:07Z</time>
      </trkpt>
      <trkpt lat="47.61253" lon="-2.7444">
        <ele>8.1</ele>
        <time>2026-08-22T14:06:56Z</time>
      </trkpt>
      <trkpt lat="47.61252" lon="-2.74438">
        <ele>8.1</ele>
        <time>2026-08-22T14:06:57Z</time>
      </trkpt>
      <trkpt lat="47.61253" lon="-2.74434">
        <ele>8.1</ele>
        <time>2026-08-22T14:06:58Z</time>
      </trkpt>
      <trkpt lat="47.61253" lon="-2.7443">
        <ele>8.1</ele>
        <time>2026-08-22T14:06:59Z</time>
      </trkpt>
      <trkpt lat="47.61254" lon="-2.74426">
        <ele>8.1</ele>
        <time>2026-08-22T14:07:00Z</time>
      </trkpt>
      <trkpt lat="47.61255" lon="-2.74421">
        <ele>8.2</ele>
        <time>2026-08-22T14:07:01Z</time>
      </trkpt>
      <trkpt lat="47.61256" lon="-2.74416">
        <ele>8.2</ele>
        <time>2026-08-22T14:07:02Z</time>
      </trkpt>
      <trkpt lat="47.61256" lon="-2.74412">
        <ele>8.2</ele>
        <time>2026-08-22T14:07:03Z</time>
      </trkpt>
      <trkpt lat="47.61256" lon="-2.74407">
        <ele>8.2</ele>
        <time>2026-08-22T14:07:04Z</time>
      </trkpt>
      <trkpt lat="47.61257" lon="-2.74402">
        <ele>8.3</ele>
        <time>2026-08-22T14:07:05Z</time>
      </trkpt>
      <trkpt lat="47.61257" lon="-2.74397">
        <ele>8.3</ele>
        <time>2026-08-22T14:07:06Z</time>
      </trkpt>
      <trkpt lat="47.61257" lon="-2.74392">
        <ele>8.3</ele>
        <time>2026-08-22T14:07:07Z</time>
      </trkpt>
      <trkpt lat="47.61257" lon="-2.74387">
        <ele>8.2</ele>
        <time>2026-08-22T14:07:08Z</time>
      </trkpt>
      <trkpt lat="47.61258" lon="-2.74381">
        <ele>8.2</ele>
        <time>2026-08-22T14:07:09Z</time>
      </trkpt>
      <trkpt lat="47.61259" lon="-2.74375">
        <ele>8.2</ele>
        <time>2026-08-22T14:07:10Z</time>
      </trkpt>
      <trkpt lat="47.61259" lon="-2.74369">
        <ele>8.1</ele>
        <time>2026-08-22T14:07:11Z</time>
      </trkpt>
      <trkpt lat="47.6126" lon="-2.74363">
        <ele>8</ele>
        <time>2026-08-22T14:07:12Z</time>
      </trkpt>
      <trkpt lat="47.6126" lon="-2.74356">
        <ele>8.1</ele>
        <time>2026-08-22T14:07:13Z</time>
      </trkpt>
      <trkpt lat="47.61261" lon="-2.7435">
        <ele>8.2</ele>
        <time>2026-08-22T14:07:14Z</time>
      </trkpt>
      <trkpt lat="47.61261" lon="-2.74343">
        <ele>8.4</ele>
        <time>2026-08-22T14:07:15Z</time>
      </trkpt>
      <trkpt lat="47.61261" lon="-2.74337">
        <ele>8.5</ele>
        <time>2026-08-22T14:07:16Z</time>
      </trkpt>
      <trkpt lat="47.61262" lon="-2.74331">
        <ele>8.7</ele>
        <time>2026-08-22T14:07:17Z</time>
      </trkpt>
      <trkpt lat="47.61262" lon="-2.74324">
        <ele>8.9</ele>
        <time>2026-08-22T14:07:18Z</time>
      </trkpt>
      <trkpt lat="47.61261" lon="-2.74318">
        <ele>9.2</ele>
        <time>2026-08-22T14:07:19Z</time>
      </trkpt>
      <trkpt lat="47.61261" lon="-2.74312">
        <ele>9.4</ele>
        <time>2026-08-22T14:07:20Z</time>
      </trkpt>
      <trkpt lat="47.6126" lon="-2.74306">
        <ele>9.6</ele>
        <time>2026-08-22T14:07:21Z</time>
      </trkpt>
      <trkpt lat="47.61259" lon="-2.743">
        <ele>9.9</ele>
        <time>2026-08-22T14:07:22Z</time>
      </trkpt>
      <trkpt lat="47.61258" lon="-2.74294">
        <ele>10.1</ele>
        <time>2026-08-22T14:07:23Z</time>
      </trkpt>
      <trkpt lat="47.61257" lon="-2.74288">
        <ele>10.4</ele>
        <time>2026-08-22T14:07:24Z</time>
      </trkpt>
      <trkpt lat="47.61256" lon="-2.74282">
        <ele>10.6</ele>
        <time>2026-08-22T14:07:25Z</time>
      </trkpt>
      <trkpt lat="47.61254" lon="-2.74276">
        <ele>10.9</ele>
        <time>2026-08-22T14:07:26Z</time>
      </trkpt>
      <trkpt lat="47.61253" lon="-2.74271">
        <ele>10.9</ele>
        <time>2026-08-22T14:07:27Z</time>
      </trkpt>
      <trkpt lat="47.61251" lon="-2.74266">
        <ele>11</ele>
        <time>2026-08-22T14:07:28Z</time>
      </trkpt>
      <trkpt lat="47.6125" lon="-2.7426">
        <ele>11</ele>
        <time>2026-08-22T14:07:29Z</time>
      </trkpt>
      <trkpt lat="47.61248" lon="-2.74255">
        <ele>11.1</ele>
        <time>2026-08-22T14:07:30Z</time>
      </trkpt>
      <trkpt lat="47.61247" lon="-2.74249">
        <ele>11.1</ele>
        <time>2026-08-22T14:07:31Z</time>
      </trkpt>
      <trkpt lat="47.61247" lon="-2.74243">
        <ele>11.4</ele>
        <time>2026-08-22T14:07:32Z</time>
      </trkpt>
      <trkpt lat="47.61246" lon="-2.74237">
        <ele>11.6</ele>
        <time>2026-08-22T14:07:33Z</time>
      </trkpt>
      <trkpt lat="47.61246" lon="-2.74231">
        <ele>11.8</ele>
        <time>2026-08-22T14:07:34Z</time>
      </trkpt>
      <trkpt lat="47.61246" lon="-2.74225">
        <ele>12</ele>
        <time>2026-08-22T14:07:35Z</time>
      </trkpt>
      <trkpt lat="47.61246" lon="-2.74219">
        <ele>12.1</ele>
        <time>2026-08-22T14:07:36Z</time>
      </trkpt>
      <trkpt lat="47.61247" lon="-2.74214">
        <ele>12.1</ele>
        <time>2026-08-22T14:07:37Z</time>
      </trkpt>
      <trkpt lat="47.61247" lon="-2.74208">
        <ele>12.1</ele>
        <time>2026-08-22T14:07:38Z</time>
      </trkpt>
      <trkpt lat="47.61247" lon="-2.74202">
        <ele>12.1</ele>
        <time>2026-08-22T14:07:39Z</time>
      </trkpt>
      <trkpt lat="47.61248" lon="-2.74196">
        <ele>12.1</ele>
        <time>2026-08-22T14:07:40Z</time>
      </trkpt>
      <trkpt lat="47.61248" lon="-2.74189">
        <ele>12.1</ele>
        <time>2026-08-22T14:07:41Z</time>
      </trkpt>
      <trkpt lat="47.61248" lon="-2.74183">
        <ele>12.1</ele>
        <time>2026-08-22T14:07:42Z</time>
      </trkpt>
      <trkpt lat="47.61248" lon="-2.74177">
        <ele>12.1</ele>
        <time>2026-08-22T14:07:43Z</time>
      </trkpt>
      <trkpt lat="47.61248" lon="-2.7417">
        <ele>12.1</ele>
        <time>2026-08-22T14:07:44Z</time>
      </trkpt>
      <trkpt lat="47.61248" lon="-2.74164">
        <ele>12</ele>
        <time>2026-08-22T14:07:45Z</time>
      </trkpt>
      <trkpt lat="47.61248" lon="-2.74157">
        <ele>11.7</ele>
        <time>2026-08-22T14:07:46Z</time>
      </trkpt>
      <trkpt lat="47.61247" lon="-2.7415">
        <ele>11.6</ele>
        <time>2026-08-22T14:07:47Z</time>
      </trkpt>
      <trkpt lat="47.61247" lon="-2.74144">
        <ele>11.4</ele>
        <time>2026-08-22T14:07:48Z</time>
      </trkpt>
      <trkpt lat="47.61246" lon="-2.74138">
        <ele>11.3</ele>
        <time>2026-08-22T14:07:49Z</time>
      </trkpt>
      <trkpt lat="47.61246" lon="-2.74131">
        <ele>11.1</ele>
        <time>2026-08-22T14:07:50Z</time>
      </trkpt>
      <trkpt lat="47.61245" lon="-2.74124">
        <ele>11</ele>
        <time>2026-08-22T14:07:51Z</time>
      </trkpt>
      <trkpt lat="47.61244" lon="-2.74117">
        <ele>11</ele>
        <time>2026-08-22T14:07:52Z</time>
      </trkpt>
      <trkpt lat="47.61242" lon="-2.74111">
        <ele>11.2</ele>
        <time>2026-08-22T14:07:53Z</time>
      </trkpt>
      <trkpt lat="47.61239" lon="-2.74105">
        <ele>11.7</ele>
        <time>2026-08-22T14:07:54Z</time>
      </trkpt>
      <trkpt lat="47.61237" lon="-2.741">
        <ele>12.1</ele>
        <time>2026-08-22T14:07:55Z</time>
      </trkpt>
      <trkpt lat="47.61234" lon="-2.74096">
        <ele>12.5</ele>
        <time>2026-08-22T14:07:56Z</time>
      </trkpt>
      <trkpt lat="47.6123" lon="-2.74093">
        <ele>13.1</ele>
        <time>2026-08-22T14:07:57Z</time>
      </trkpt>
      <trkpt lat="47.61227" lon="-2.74091">
        <ele>13.4</ele>
        <time>2026-08-22T14:07:58Z</time>
      </trkpt>
      <trkpt lat="47.61223" lon="-2.7409">
        <ele>13.9</ele>
        <time>2026-08-22T14:07:59Z</time>
      </trkpt>
      <trkpt lat="47.6122" lon="-2.74088">
        <ele>14</ele>
        <time>2026-08-22T14:08:00Z</time>
      </trkpt>
      <trkpt lat="47.61217" lon="-2.74086">
        <ele>14</ele>
        <time>2026-08-22T14:08:01Z</time>
      </trkpt>
      <trkpt lat="47.61214" lon="-2.74085">
        <ele>14</ele>
        <time>2026-08-22T14:08:02Z</time>
      </trkpt>
      <trkpt lat="47.61212" lon="-2.74084">
        <ele>14</ele>
        <time>2026-08-22T14:08:03Z</time>
      </trkpt>
      <trkpt lat="47.61209" lon="-2.74082">
        <ele>14</ele>
        <time>2026-08-22T14:08:04Z</time>
      </trkpt>
      <trkpt lat="47.61207" lon="-2.74081">
        <ele>14</ele>
        <time>2026-08-22T14:08:05Z</time>
      </trkpt>
      <trkpt lat="47.61205" lon="-2.74079">
        <ele>13.9</ele>
        <time>2026-08-22T14:08:06Z</time>
      </trkpt>
      <trkpt lat="47.61203" lon="-2.74078">
        <ele>13.9</ele>
        <time>2026-08-22T14:08:07Z</time>
      </trkpt>
      <trkpt lat="47.61201" lon="-2.74076">
        <ele>13.9</ele>
        <time>2026-08-22T14:08:08Z</time>
      </trkpt>
      <trkpt lat="47.61199" lon="-2.74075">
        <ele>14</ele>
        <time>2026-08-22T14:08:09Z</time>
      </trkpt>
      <trkpt lat="47.61198" lon="-2.74073">
        <ele>14</ele>
        <time>2026-08-22T14:08:10Z</time>
      </trkpt>
      <trkpt lat="47.61195" lon="-2.74072">
        <ele>14</ele>
        <time>2026-08-22T14:08:11Z</time>
      </trkpt>
      <trkpt lat="47.61193" lon="-2.7407">
        <ele>14</ele>
        <time>2026-08-22T14:08:12Z</time>
      </trkpt>
      <trkpt lat="47.61191" lon="-2.74068">
        <ele>14.1</ele>
        <time>2026-08-22T14:08:13Z</time>
      </trkpt>
      <trkpt lat="47.61188" lon="-2.74066">
        <ele>14.1</ele>
        <time>2026-08-22T14:08:14Z</time>
      </trkpt>
      <trkpt lat="47.61186" lon="-2.74064">
        <ele>14.2</ele>
        <time>2026-08-22T14:08:15Z</time>
      </trkpt>
      <trkpt lat="47.61183" lon="-2.74062">
        <ele>14.3</ele>
        <time>2026-08-22T14:08:16Z</time>
      </trkpt>
      <trkpt lat="47.61181" lon="-2.7406">
        <ele>14.4</ele>
        <time>2026-08-22T14:08:17Z</time>
      </trkpt>
      <trkpt lat="47.6118" lon="-2.74057">
        <ele>14.5</ele>
        <time>2026-08-22T14:08:18Z</time>
      </trkpt>
      <trkpt lat="47.61178" lon="-2.74053">
        <ele>14.6</ele>
        <time>2026-08-22T14:08:19Z</time>
      </trkpt>
      <trkpt lat="47.61177" lon="-2.74049">
        <ele>14.7</ele>
        <time>2026-08-22T14:08:20Z</time>
      </trkpt>
      <trkpt lat="47.61175" lon="-2.74044">
        <ele>14.8</ele>
        <time>2026-08-22T14:08:21Z</time>
      </trkpt>
      <trkpt lat="47.61173" lon="-2.74039">
        <ele>14.9</ele>
        <time>2026-08-22T14:08:22Z</time>
      </trkpt>
      <trkpt lat="47.61172" lon="-2.74034">
        <ele>15</ele>
        <time>2026-08-22T14:08:23Z</time>
      </trkpt>
      <trkpt lat="47.6117" lon="-2.74028">
        <ele>15</ele>
        <time>2026-08-22T14:08:24Z</time>
      </trkpt>
      <trkpt lat="47.61169" lon="-2.74023">
        <ele>15</ele>
        <time>2026-08-22T14:08:25Z</time>
      </trkpt>
      <trkpt lat="47.61167" lon="-2.74017">
        <ele>15</ele>
        <time>2026-08-22T14:08:26Z</time>
      </trkpt>
      <trkpt lat="47.61165" lon="-2.74012">
        <ele>15</ele>
        <time>2026-08-22T14:08:27Z</time>
      </trkpt>
      <trkpt lat="47.61163" lon="-2.74007">
        <ele>15</ele>
        <time>2026-08-22T14:08:28Z</time>
      </trkpt>
      <trkpt lat="47.61161" lon="-2.74002">
        <ele>15</ele>
        <time>2026-08-22T14:08:29Z</time>
      </trkpt>
      <trkpt lat="47.61158" lon="-2.73997">
        <ele>15</ele>
        <time>2026-08-22T14:08:30Z</time>
      </trkpt>
      <trkpt lat="47.61156" lon="-2.73992">
        <ele>15</ele>
        <time>2026-08-22T14:08:31Z</time>
      </trkpt>
      <trkpt lat="47.61154" lon="-2.73987">
        <ele>15</ele>
        <time>2026-08-22T14:08:32Z</time>
      </trkpt>
      <trkpt lat="47.61151" lon="-2.73982">
        <ele>15</ele>
        <time>2026-08-22T14:08:33Z</time>
      </trkpt>
      <trkpt lat="47.61148" lon="-2.73977">
        <ele>15</ele>
        <time>2026-08-22T14:08:34Z</time>
      </trkpt>
      <trkpt lat="47.61146" lon="-2.73972">
        <ele>15</ele>
        <time>2026-08-22T14:08:35Z</time>
      </trkpt>
      <trkpt lat="47.61143" lon="-2.73967">
        <ele>15.2</ele>
        <time>2026-08-22T14:08:36Z</time>
      </trkpt>
      <trkpt lat="47.6114" lon="-2.73962">
        <ele>15.4</ele>
        <time>2026-08-22T14:08:37Z</time>
      </trkpt>
      <trkpt lat="47.61138" lon="-2.73957">
        <ele>15.5</ele>
        <time>2026-08-22T14:08:38Z</time>
      </trkpt>
      <trkpt lat="47.61136" lon="-2.73952">
        <ele>15.7</ele>
        <time>2026-08-22T14:08:39Z</time>
      </trkpt>
      <trkpt lat="47.61134" lon="-2.73946">
        <ele>15.9</ele>
        <time>2026-08-22T14:08:40Z</time>
      </trkpt>
      <trkpt lat="47.61133" lon="-2.7394">
        <ele>16</ele>
        <time>2026-08-22T14:08:41Z</time>
      </trkpt>
      <trkpt lat="47.61131" lon="-2.73934">
        <ele>16.1</ele>
        <time>2026-08-22T14:08:42Z</time>
      </trkpt>
      <trkpt lat="47.6113" lon="-2.73929">
        <ele>16.2</ele>
        <time>2026-08-22T14:08:43Z</time>
      </trkpt>
      <trkpt lat="47.61129" lon="-2.73923">
        <ele>16.3</ele>
        <time>2026-08-22T14:08:44Z</time>
      </trkpt>
      <trkpt lat="47.61128" lon="-2.73917">
        <ele>16.4</ele>
        <time>2026-08-22T14:08:45Z</time>
      </trkpt>
      <trkpt lat="47.61127" lon="-2.73911">
        <ele>16.2</ele>
        <time>2026-08-22T14:08:46Z</time>
      </trkpt>
      <trkpt lat="47.61126" lon="-2.73905">
        <ele>16</ele>
        <time>2026-08-22T14:08:47Z</time>
      </trkpt>
      <trkpt lat="47.61125" lon="-2.73899">
        <ele>15.9</ele>
        <time>2026-08-22T14:08:48Z</time>
      </trkpt>
      <trkpt lat="47.61124" lon="-2.73893">
        <ele>15.7</ele>
        <time>2026-08-22T14:08:49Z</time>
      </trkpt>
      <trkpt lat="47.61123" lon="-2.73887">
        <ele>15.5</ele>
        <time>2026-08-22T14:08:50Z</time>
      </trkpt>
      <trkpt lat="47.61122" lon="-2.73881">
        <ele>15.5</ele>
        <time>2026-08-22T14:08:51Z</time>
      </trkpt>
      <trkpt lat="47.61121" lon="-2.73874">
        <ele>15.5</ele>
        <time>2026-08-22T14:08:52Z</time>
      </trkpt>
      <trkpt lat="47.61119" lon="-2.73868">
        <ele>15.5</ele>
        <time>2026-08-22T14:08:53Z</time>
      </trkpt>
      <trkpt lat="47.61118" lon="-2.73861">
        <ele>15.5</ele>
        <time>2026-08-22T14:08:54Z</time>
      </trkpt>
      <trkpt lat="47.61116" lon="-2.73855">
        <ele>15.4</ele>
        <time>2026-08-22T14:08:55Z</time>
      </trkpt>
      <trkpt lat="47.61115" lon="-2.73848">
        <ele>15.2</ele>
        <time>2026-08-22T14:08:56Z</time>
      </trkpt>
      <trkpt lat="47.61113" lon="-2.73841">
        <ele>15.1</ele>
        <time>2026-08-22T14:08:57Z</time>
      </trkpt>
      <trkpt lat="47.61111" lon="-2.73834">
        <ele>15</ele>
        <time>2026-08-22T14:08:58Z</time>
      </trkpt>
      <trkpt lat="47.61109" lon="-2.73827">
        <ele>14.6</ele>
        <time>2026-08-22T14:08:59Z</time>
      </trkpt>
      <trkpt lat="47.61107" lon="-2.7382">
        <ele>14.1</ele>
        <time>2026-08-22T14:09:00Z</time>
      </trkpt>
      <trkpt lat="47.61105" lon="-2.73812">
        <ele>13.6</ele>
        <time>2026-08-22T14:09:01Z</time>
      </trkpt>
      <trkpt lat="47.61102" lon="-2.73804">
        <ele>13.3</ele>
        <time>2026-08-22T14:09:02Z</time>
      </trkpt>
      <trkpt lat="47.611" lon="-2.73796">
        <ele>13.1</ele>
        <time>2026-08-22T14:09:03Z</time>
      </trkpt>
      <trkpt lat="47.61097" lon="-2.73789">
        <ele>12.9</ele>
        <time>2026-08-22T14:09:04Z</time>
      </trkpt>
      <trkpt lat="47.61095" lon="-2.7378">
        <ele>12.7</ele>
        <time>2026-08-22T14:09:05Z</time>
      </trkpt>
      <trkpt lat="47.61093" lon="-2.73772">
        <ele>12.4</ele>
        <time>2026-08-22T14:09:06Z</time>
      </trkpt>
      <trkpt lat="47.61091" lon="-2.73764">
        <ele>12.2</ele>
        <time>2026-08-22T14:09:07Z</time>
      </trkpt>
      <trkpt lat="47.61088" lon="-2.73755">
        <ele>12</ele>
        <time>2026-08-22T14:09:08Z</time>
      </trkpt>
      <trkpt lat="47.61086" lon="-2.73746">
        <ele>11.8</ele>
        <time>2026-08-22T14:09:09Z</time>
      </trkpt>
      <trkpt lat="47.61083" lon="-2.73738">
        <ele>11.6</ele>
        <time>2026-08-22T14:09:10Z</time>
      </trkpt>
      <trkpt lat="47.61081" lon="-2.73729">
        <ele>11.2</ele>
        <time>2026-08-22T14:09:11Z</time>
      </trkpt>
      <trkpt lat="47.61078" lon="-2.73721">
        <ele>11</ele>
        <time>2026-08-22T14:09:12Z</time>
      </trkpt>
      <trkpt lat="47.61075" lon="-2.73713">
        <ele>10.7</ele>
        <time>2026-08-22T14:09:13Z</time>
      </trkpt>
      <trkpt lat="47.61072" lon="-2.73704">
        <ele>10.3</ele>
        <time>2026-08-22T14:09:14Z</time>
      </trkpt>
      <trkpt lat="47.61069" lon="-2.73696">
        <ele>10.1</ele>
        <time>2026-08-22T14:09:15Z</time>
      </trkpt>
      <trkpt lat="47.61065" lon="-2.73688">
        <ele>9.8</ele>
        <time>2026-08-22T14:09:16Z</time>
      </trkpt>
      <trkpt lat="47.61061" lon="-2.73679">
        <ele>9.4</ele>
        <time>2026-08-22T14:09:17Z</time>
      </trkpt>
      <trkpt lat="47.61058" lon="-2.73671">
        <ele>9.2</ele>
        <time>2026-08-22T14:09:18Z</time>
      </trkpt>
      <trkpt lat="47.61054" lon="-2.73663">
        <ele>8.9</ele>
        <time>2026-08-22T14:09:19Z</time>
      </trkpt>
      <trkpt lat="47.6105" lon="-2.73655">
        <ele>8.7</ele>
        <time>2026-08-22T14:09:20Z</time>
      </trkpt>
      <trkpt lat="47.61046" lon="-2.73647">
        <ele>8.5</ele>
        <time>2026-08-22T14:09:21Z</time>
      </trkpt>
      <trkpt lat="47.61042" lon="-2.73639">
        <ele>8.5</ele>
        <time>2026-08-22T14:09:22Z</time>
      </trkpt>
      <trkpt lat="47.61038" lon="-2.73631">
        <ele>8.5</ele>
        <time>2026-08-22T14:09:23Z</time>
      </trkpt>
      <trkpt lat="47.61034" lon="-2.73624">
        <ele>8.4</ele>
        <time>2026-08-22T14:09:24Z</time>
      </trkpt>
      <trkpt lat="47.61031" lon="-2.73617">
        <ele>8.2</ele>
        <time>2026-08-22T14:09:25Z</time>
      </trkpt>
      <trkpt lat="47.61027" lon="-2.7361">
        <ele>8</ele>
        <time>2026-08-22T14:09:26Z</time>
      </trkpt>
      <trkpt lat="47.61024" lon="-2.73603">
        <ele>8.1</ele>
        <time>2026-08-22T14:09:27Z</time>
      </trkpt>
      <trkpt lat="47.61021" lon="-2.73596">
        <ele>8.1</ele>
        <time>2026-08-22T14:09:28Z</time>
      </trkpt>
      <trkpt lat="47.61019" lon="-2.7359">
        <ele>8.1</ele>
        <time>2026-08-22T14:09:29Z</time>
      </trkpt>
      <trkpt lat="47.61017" lon="-2.73585">
        <ele>8</ele>
        <time>2026-08-22T14:09:30Z</time>
      </trkpt>
      <trkpt lat="47.61016" lon="-2.7358">
        <ele>8</ele>
        <time>2026-08-22T14:09:31Z</time>
      </trkpt>
      <trkpt lat="47.61015" lon="-2.73576">
        <ele>8</ele>
        <time>2026-08-22T14:09:32Z</time>
      </trkpt>
      <trkpt lat="47.61014" lon="-2.73574">
        <ele>8</ele>
        <time>2026-08-22T14:09:33Z</time>
      </trkpt>
      <trkpt lat="47.61012" lon="-2.73573">
        <ele>8</ele>
        <time>2026-08-22T14:09:34Z</time>
      </trkpt>
      <trkpt lat="47.61011" lon="-2.73572">
        <ele>8</ele>
        <time>2026-08-22T14:09:35Z</time>
      </trkpt>
      <trkpt lat="47.6101" lon="-2.73572">
        <ele>8</ele>
        <time>2026-08-22T14:09:36Z</time>
      </trkpt>
      <trkpt lat="47.61009" lon="-2.73571">
        <ele>8</ele>
        <time>2026-08-22T14:09:37Z</time>
      </trkpt>
      <trkpt lat="47.61009" lon="-2.73571">
        <ele>8</ele>
        <time>2026-08-22T14:09:38Z</time>
      </trkpt>
      <trkpt lat="47.61008" lon="-2.73569">
        <ele>8</ele>
        <time>2026-08-22T14:09:39Z</time>
      </trkpt>
      <trkpt lat="47.61007" lon="-2.73566">
        <ele>8</ele>
        <time>2026-08-22T14:09:40Z</time>
      </trkpt>
      <trkpt lat="47.61007" lon="-2.73563">
        <ele>8</ele>
        <time>2026-08-22T14:09:41Z</time>
      </trkpt>
      <trkpt lat="47.61008" lon="-2.73559">
        <ele>8</ele>
        <time>2026-08-22T14:09:42Z</time>
      </trkpt>
      <trkpt lat="47.61009" lon="-2.73555">
        <ele>8</ele>
        <time>2026-08-22T14:09:43Z</time>
      </trkpt>
      <trkpt lat="47.61011" lon="-2.7355">
        <ele>8.1</ele>
        <time>2026-08-22T14:09:44Z</time>
      </trkpt>
      <trkpt lat="47.61012" lon="-2.73545">
        <ele>8.2</ele>
        <time>2026-08-22T14:09:45Z</time>
      </trkpt>
      <trkpt lat="47.61013" lon="-2.73539">
        <ele>8.3</ele>
        <time>2026-08-22T14:09:46Z</time>
      </trkpt>
      <trkpt lat="47.61015" lon="-2.73534">
        <ele>8.4</ele>
        <time>2026-08-22T14:09:47Z</time>
      </trkpt>
      <trkpt lat="47.61018" lon="-2.7353">
        <ele>8.3</ele>
        <time>2026-08-22T14:09:48Z</time>
      </trkpt>
      <trkpt lat="47.61021" lon="-2.73527">
        <ele>8.3</ele>
        <time>2026-08-22T14:09:49Z</time>
      </trkpt>
      <trkpt lat="47.61025" lon="-2.73523">
        <ele>8.1</ele>
        <time>2026-08-22T14:09:50Z</time>
      </trkpt>
      <trkpt lat="47.61029" lon="-2.73519">
        <ele>8</ele>
        <time>2026-08-22T14:09:51Z</time>
      </trkpt>
      <trkpt lat="47.61033" lon="-2.73515">
        <ele>7.8</ele>
        <time>2026-08-22T14:09:52Z</time>
      </trkpt>
      <trkpt lat="47.61037" lon="-2.73511">
        <ele>7.7</ele>
        <time>2026-08-22T14:09:53Z</time>
      </trkpt>
      <trkpt lat="47.61041" lon="-2.73507">
        <ele>7.5</ele>
        <time>2026-08-22T14:09:54Z</time>
      </trkpt>
      <trkpt lat="47.61045" lon="-2.73503">
        <ele>7.4</ele>
        <time>2026-08-22T14:09:55Z</time>
      </trkpt>
      <trkpt lat="47.61048" lon="-2.73499">
        <ele>7.3</ele>
        <time>2026-08-22T14:09:56Z</time>
      </trkpt>
      <trkpt lat="47.61052" lon="-2.73495">
        <ele>7.3</ele>
        <time>2026-08-22T14:09:57Z</time>
      </trkpt>
      <trkpt lat="47.61056" lon="-2.73491">
        <ele>7.3</ele>
        <time>2026-08-22T14:09:58Z</time>
      </trkpt>
      <trkpt lat="47.61059" lon="-2.73487">
        <ele>7.3</ele>
        <time>2026-08-22T14:09:59Z</time>
      </trkpt>
      <trkpt lat="47.61061" lon="-2.73481">
        <ele>7.5</ele>
        <time>2026-08-22T14:10:00Z</time>
      </trkpt>
      <trkpt lat="47.61061" lon="-2.73475">
        <ele>7.7</ele>
        <time>2026-08-22T14:10:01Z</time>
      </trkpt>
      <trkpt lat="47.6106" lon="-2.73469">
        <ele>7.9</ele>
        <time>2026-08-22T14:10:02Z</time>
      </trkpt>
      <trkpt lat="47.61058" lon="-2.73465">
        <ele>7.9</ele>
        <time>2026-08-22T14:10:03Z</time>
      </trkpt>
      <trkpt lat="47.61056" lon="-2.7346">
        <ele>8</ele>
        <time>2026-08-22T14:10:04Z</time>
      </trkpt>
      <trkpt lat="47.61053" lon="-2.73456">
        <ele>8.1</ele>
        <time>2026-08-22T14:10:05Z</time>
      </trkpt>
      <trkpt lat="47.61051" lon="-2.73451">
        <ele>8.2</ele>
        <time>2026-08-22T14:10:06Z</time>
      </trkpt>
      <trkpt lat="47.61048" lon="-2.73447">
        <ele>8.3</ele>
        <time>2026-08-22T14:10:07Z</time>
      </trkpt>
      <trkpt lat="47.61046" lon="-2.73441">
        <ele>8.3</ele>
        <time>2026-08-22T14:10:08Z</time>
      </trkpt>
      <trkpt lat="47.61044" lon="-2.73436">
        <ele>8.4</ele>
        <time>2026-08-22T14:10:09Z</time>
      </trkpt>
      <trkpt lat="47.61041" lon="-2.73431">
        <ele>8.5</ele>
        <time>2026-08-22T14:10:10Z</time>
      </trkpt>
      <trkpt lat="47.61039" lon="-2.73426">
        <ele>8.6</ele>
        <time>2026-08-22T14:10:11Z</time>
      </trkpt>
      <trkpt lat="47.61037" lon="-2.73421">
        <ele>8.7</ele>
        <time>2026-08-22T14:10:12Z</time>
      </trkpt>
      <trkpt lat="47.61034" lon="-2.73416">
        <ele>8.8</ele>
        <time>2026-08-22T14:10:13Z</time>
      </trkpt>
      <trkpt lat="47.61032" lon="-2.7341">
        <ele>8.8</ele>
        <time>2026-08-22T14:10:14Z</time>
      </trkpt>
      <trkpt lat="47.6103" lon="-2.73406">
        <ele>8.9</ele>
        <time>2026-08-22T14:10:15Z</time>
      </trkpt>
      <trkpt lat="47.61028" lon="-2.73401">
        <ele>9</ele>
        <time>2026-08-22T14:10:16Z</time>
      </trkpt>
      <trkpt lat="47.61025" lon="-2.73396">
        <ele>9.1</ele>
        <time>2026-08-22T14:10:17Z</time>
      </trkpt>
      <trkpt lat="47.61023" lon="-2.73391">
        <ele>9.2</ele>
        <time>2026-08-22T14:10:18Z</time>
      </trkpt>
      <trkpt lat="47.61021" lon="-2.73386">
        <ele>9.2</ele>
        <time>2026-08-22T14:10:19Z</time>
      </trkpt>
      <trkpt lat="47.61019" lon="-2.7338">
        <ele>9.3</ele>
        <time>2026-08-22T14:10:20Z</time>
      </trkpt>
      <trkpt lat="47.61017" lon="-2.73374">
        <ele>9.4</ele>
        <time>2026-08-22T14:10:21Z</time>
      </trkpt>
      <trkpt lat="47.61016" lon="-2.73368">
        <ele>9.4</ele>
        <time>2026-08-22T14:10:22Z</time>
      </trkpt>
      <trkpt lat="47.61015" lon="-2.73362">
        <ele>9.5</ele>
        <time>2026-08-22T14:10:23Z</time>
      </trkpt>
      <trkpt lat="47.61014" lon="-2.73356">
        <ele>9.3</ele>
        <time>2026-08-22T14:10:24Z</time>
      </trkpt>
      <trkpt lat="47.61013" lon="-2.73349">
        <ele>9.1</ele>
        <time>2026-08-22T14:10:25Z</time>
      </trkpt>
      <trkpt lat="47.61012" lon="-2.73342">
        <ele>8.9</ele>
        <time>2026-08-22T14:10:26Z</time>
      </trkpt>
      <trkpt lat="47.61012" lon="-2.73335">
        <ele>8.6</ele>
        <time>2026-08-22T14:10:27Z</time>
      </trkpt>
      <trkpt lat="47.61011" lon="-2.73328">
        <ele>8.6</ele>
        <time>2026-08-22T14:10:28Z</time>
      </trkpt>
      <trkpt lat="47.61009" lon="-2.73321">
        <ele>8.7</ele>
        <time>2026-08-22T14:10:29Z</time>
      </trkpt>
      <trkpt lat="47.61008" lon="-2.73314">
        <ele>8.7</ele>
        <time>2026-08-22T14:10:30Z</time>
      </trkpt>
      <trkpt lat="47.61006" lon="-2.73308">
        <ele>8.8</ele>
        <time>2026-08-22T14:10:31Z</time>
      </trkpt>
      <trkpt lat="47.61005" lon="-2.73301">
        <ele>8.7</ele>
        <time>2026-08-22T14:10:32Z</time>
      </trkpt>
      <trkpt lat="47.61003" lon="-2.73295">
        <ele>8.5</ele>
        <time>2026-08-22T14:10:33Z</time>
      </trkpt>
      <trkpt lat="47.61001" lon="-2.73288">
        <ele>8.3</ele>
        <time>2026-08-22T14:10:34Z</time>
      </trkpt>
      <trkpt lat="47.60999" lon="-2.73282">
        <ele>8.2</ele>
        <time>2026-08-22T14:10:35Z</time>
      </trkpt>
      <trkpt lat="47.60997" lon="-2.73275">
        <ele>8.2</ele>
        <time>2026-08-22T14:10:36Z</time>
      </trkpt>
      <trkpt lat="47.60996" lon="-2.73269">
        <ele>8.2</ele>
        <time>2026-08-22T14:10:37Z</time>
      </trkpt>
      <trkpt lat="47.60994" lon="-2.73262">
        <ele>8.3</ele>
        <time>2026-08-22T14:10:38Z</time>
      </trkpt>
      <trkpt lat="47.60992" lon="-2.73256">
        <ele>8.4</ele>
        <time>2026-08-22T14:10:39Z</time>
      </trkpt>
      <trkpt lat="47.6099" lon="-2.73249">
        <ele>8.3</ele>
        <time>2026-08-22T14:10:40Z</time>
      </trkpt>
      <trkpt lat="47.60988" lon="-2.73243">
        <ele>8.3</ele>
        <time>2026-08-22T14:10:41Z</time>
      </trkpt>
      <trkpt lat="47.60986" lon="-2.73237">
        <ele>8.3</ele>
        <time>2026-08-22T14:10:42Z</time>
      </trkpt>
      <trkpt lat="47.60984" lon="-2.7323">
        <ele>8.3</ele>
        <time>2026-08-22T14:10:43Z</time>
      </trkpt>
      <trkpt lat="47.60983" lon="-2.73224">
        <ele>8.2</ele>
        <time>2026-08-22T14:10:44Z</time>
      </trkpt>
      <trkpt lat="47.60981" lon="-2.73218">
        <ele>8.3</ele>
        <time>2026-08-22T14:10:45Z</time>
      </trkpt>
      <trkpt lat="47.60979" lon="-2.73211">
        <ele>8.2</ele>
        <time>2026-08-22T14:10:46Z</time>
      </trkpt>
      <trkpt lat="47.60977" lon="-2.73205">
        <ele>8.1</ele>
        <time>2026-08-22T14:10:47Z</time>
      </trkpt>
      <trkpt lat="47.60975" lon="-2.73199">
        <ele>8</ele>
        <time>2026-08-22T14:10:48Z</time>
      </trkpt>
      <trkpt lat="47.60973" lon="-2.73192">
        <ele>8</ele>
        <time>2026-08-22T14:10:49Z</time>
      </trkpt>
      <trkpt lat="47.60971" lon="-2.73186">
        <ele>8.1</ele>
        <time>2026-08-22T14:10:50Z</time>
      </trkpt>
      <trkpt lat="47.60969" lon="-2.73179">
        <ele>8.2</ele>
        <time>2026-08-22T14:10:51Z</time>
      </trkpt>
      <trkpt lat="47.60967" lon="-2.73173">
        <ele>8.2</ele>
        <time>2026-08-22T14:10:52Z</time>
      </trkpt>
      <trkpt lat="47.60965" lon="-2.73166">
        <ele>8.3</ele>
        <time>2026-08-22T14:10:53Z</time>
      </trkpt>
      <trkpt lat="47.60963" lon="-2.7316">
        <ele>8.3</ele>
        <time>2026-08-22T14:10:54Z</time>
      </trkpt>
      <trkpt lat="47.6096" lon="-2.73153">
        <ele>8.4</ele>
        <time>2026-08-22T14:10:55Z</time>
      </trkpt>
      <trkpt lat="47.60958" lon="-2.73147">
        <ele>8.5</ele>
        <time>2026-08-22T14:10:56Z</time>
      </trkpt>
      <trkpt lat="47.60956" lon="-2.73141">
        <ele>8.6</ele>
        <time>2026-08-22T14:10:57Z</time>
      </trkpt>
      <trkpt lat="47.60954" lon="-2.73134">
        <ele>8.5</ele>
        <time>2026-08-22T14:10:58Z</time>
      </trkpt>
      <trkpt lat="47.60951" lon="-2.73128">
        <ele>8.4</ele>
        <time>2026-08-22T14:10:59Z</time>
      </trkpt>
      <trkpt lat="47.60949" lon="-2.73121">
        <ele>8.2</ele>
        <time>2026-08-22T14:11:00Z</time>
      </trkpt>
      <trkpt lat="47.60947" lon="-2.73115">
        <ele>8</ele>
        <time>2026-08-22T14:11:01Z</time>
      </trkpt>
      <trkpt lat="47.60945" lon="-2.73108">
        <ele>7.9</ele>
        <time>2026-08-22T14:11:02Z</time>
      </trkpt>
      <trkpt lat="47.60942" lon="-2.73102">
        <ele>7.7</ele>
        <time>2026-08-22T14:11:03Z</time>
      </trkpt>
      <trkpt lat="47.6094" lon="-2.73095">
        <ele>7.5</ele>
        <time>2026-08-22T14:11:04Z</time>
      </trkpt>
      <trkpt lat="47.60938" lon="-2.73089">
        <ele>7.4</ele>
        <time>2026-08-22T14:11:05Z</time>
      </trkpt>
      <trkpt lat="47.60936" lon="-2.73082">
        <ele>7.3</ele>
        <time>2026-08-22T14:11:06Z</time>
      </trkpt>
      <trkpt lat="47.60934" lon="-2.73076">
        <ele>7.3</ele>
        <time>2026-08-22T14:11:07Z</time>
      </trkpt>
      <trkpt lat="47.60932" lon="-2.73069">
        <ele>7.2</ele>
        <time>2026-08-22T14:11:08Z</time>
      </trkpt>
      <trkpt lat="47.6093" lon="-2.73062">
        <ele>7.1</ele>
        <time>2026-08-22T14:11:09Z</time>
      </trkpt>
      <trkpt lat="47.60927" lon="-2.73055">
        <ele>7</ele>
        <time>2026-08-22T14:11:10Z</time>
      </trkpt>
      <trkpt lat="47.60925" lon="-2.73049">
        <ele>6.9</ele>
        <time>2026-08-22T14:11:11Z</time>
      </trkpt>
      <trkpt lat="47.60924" lon="-2.73042">
        <ele>6.9</ele>
        <time>2026-08-22T14:11:12Z</time>
      </trkpt>
      <trkpt lat="47.60922" lon="-2.73036">
        <ele>6.9</ele>
        <time>2026-08-22T14:11:13Z</time>
      </trkpt>
      <trkpt lat="47.60921" lon="-2.7303">
        <ele>6.9</ele>
        <time>2026-08-22T14:11:14Z</time>
      </trkpt>
      <trkpt lat="47.60918" lon="-2.73024">
        <ele>6.8</ele>
        <time>2026-08-22T14:11:15Z</time>
      </trkpt>
      <trkpt lat="47.60916" lon="-2.73018">
        <ele>6.7</ele>
        <time>2026-08-22T14:11:16Z</time>
      </trkpt>
      <trkpt lat="47.60914" lon="-2.73013">
        <ele>6.5</ele>
        <time>2026-08-22T14:11:17Z</time>
      </trkpt>
      <trkpt lat="47.60912" lon="-2.73007">
        <ele>6.4</ele>
        <time>2026-08-22T14:11:18Z</time>
      </trkpt>
      <trkpt lat="47.60909" lon="-2.73002">
        <ele>6.3</ele>
        <time>2026-08-22T14:11:19Z</time>
      </trkpt>
      <trkpt lat="47.60907" lon="-2.72995">
        <ele>6.3</ele>
        <time>2026-08-22T14:11:20Z</time>
      </trkpt>
      <trkpt lat="47.60906" lon="-2.72989">
        <ele>6.2</ele>
        <time>2026-08-22T14:11:21Z</time>
      </trkpt>
      <trkpt lat="47.60904" lon="-2.72984">
        <ele>6.2</ele>
        <time>2026-08-22T14:11:22Z</time>
      </trkpt>
      <trkpt lat="47.60902" lon="-2.72978">
        <ele>6.1</ele>
        <time>2026-08-22T14:11:23Z</time>
      </trkpt>
      <trkpt lat="47.60901" lon="-2.72973">
        <ele>6</ele>
        <time>2026-08-22T14:11:24Z</time>
      </trkpt>
      <trkpt lat="47.60899" lon="-2.72968">
        <ele>6</ele>
        <time>2026-08-22T14:11:25Z</time>
      </trkpt>
      <trkpt lat="47.60897" lon="-2.72962">
        <ele>6</ele>
        <time>2026-08-22T14:11:26Z</time>
      </trkpt>
      <trkpt lat="47.60895" lon="-2.72956">
        <ele>6</ele>
        <time>2026-08-22T14:11:27Z</time>
      </trkpt>
      <trkpt lat="47.60893" lon="-2.72949">
        <ele>6</ele>
        <time>2026-08-22T14:11:28Z</time>
      </trkpt>
      <trkpt lat="47.60891" lon="-2.72943">
        <ele>5.9</ele>
        <time>2026-08-22T14:11:29Z</time>
      </trkpt>
      <trkpt lat="47.60888" lon="-2.72936">
        <ele>5.7</ele>
        <time>2026-08-22T14:11:30Z</time>
      </trkpt>
      <trkpt lat="47.60886" lon="-2.72929">
        <ele>5.5</ele>
        <time>2026-08-22T14:11:31Z</time>
      </trkpt>
      <trkpt lat="47.60884" lon="-2.72921">
        <ele>5.3</ele>
        <time>2026-08-22T14:11:32Z</time>
      </trkpt>
      <trkpt lat="47.60882" lon="-2.72914">
        <ele>5.2</ele>
        <time>2026-08-22T14:11:33Z</time>
      </trkpt>
      <trkpt lat="47.6088" lon="-2.72906">
        <ele>5.2</ele>
        <time>2026-08-22T14:11:34Z</time>
      </trkpt>
      <trkpt lat="47.60878" lon="-2.72898">
        <ele>5.1</ele>
        <time>2026-08-22T14:11:35Z</time>
      </trkpt>
      <trkpt lat="47.60877" lon="-2.7289">
        <ele>5</ele>
        <time>2026-08-22T14:11:36Z</time>
      </trkpt>
      <trkpt lat="47.60875" lon="-2.72883">
        <ele>5</ele>
        <time>2026-08-22T14:11:37Z</time>
      </trkpt>
      <trkpt lat="47.60872" lon="-2.72878">
        <ele>5</ele>
        <time>2026-08-22T14:11:38Z</time>
      </trkpt>
      <trkpt lat="47.60869" lon="-2.72871">
        <ele>5</ele>
        <time>2026-08-22T14:11:39Z</time>
      </trkpt>
      <trkpt lat="47.60867" lon="-2.72864">
        <ele>5</ele>
        <time>2026-08-22T14:11:40Z</time>
      </trkpt>
      <trkpt lat="47.60864" lon="-2.72858">
        <ele>5</ele>
        <time>2026-08-22T14:11:41Z</time>
      </trkpt>
      <trkpt lat="47.60863" lon="-2.7285">
        <ele>5</ele>
        <time>2026-08-22T14:11:42Z</time>
      </trkpt>
      <trkpt lat="47.60861" lon="-2.72842">
        <ele>5</ele>
        <time>2026-08-22T14:11:43Z</time>
      </trkpt>
      <trkpt lat="47.60858" lon="-2.72834">
        <ele>5</ele>
        <time>2026-08-22T14:11:44Z</time>
      </trkpt>
      <trkpt lat="47.60855" lon="-2.72828">
        <ele>4.9</ele>
        <time>2026-08-22T14:11:45Z</time>
      </trkpt>
      <trkpt lat="47.60851" lon="-2.72823">
        <ele>4.8</ele>
        <time>2026-08-22T14:11:46Z</time>
      </trkpt>
      <trkpt lat="47.60847" lon="-2.72821">
        <ele>4.8</ele>
        <time>2026-08-22T14:11:47Z</time>
      </trkpt>
      <trkpt lat="47.60843" lon="-2.72818">
        <ele>4.8</ele>
        <time>2026-08-22T14:11:48Z</time>
      </trkpt>
      <trkpt lat="47.60839" lon="-2.72816">
        <ele>4.9</ele>
        <time>2026-08-22T14:11:49Z</time>
      </trkpt>
      <trkpt lat="47.60836" lon="-2.72813">
        <ele>4.9</ele>
        <time>2026-08-22T14:11:50Z</time>
      </trkpt>
      <trkpt lat="47.60832" lon="-2.7281">
        <ele>5</ele>
        <time>2026-08-22T14:11:51Z</time>
      </trkpt>
      <trkpt lat="47.60829" lon="-2.72808">
        <ele>5</ele>
        <time>2026-08-22T14:11:52Z</time>
      </trkpt>
      <trkpt lat="47.60824" lon="-2.72806">
        <ele>5</ele>
        <time>2026-08-22T14:11:53Z</time>
      </trkpt>
      <trkpt lat="47.60818" lon="-2.72805">
        <ele>5</ele>
        <time>2026-08-22T14:11:54Z</time>
      </trkpt>
      <trkpt lat="47.60813" lon="-2.72805">
        <ele>5</ele>
        <time>2026-08-22T14:11:55Z</time>
      </trkpt>
      <trkpt lat="47.60808" lon="-2.72803">
        <ele>5.1</ele>
        <time>2026-08-22T14:11:56Z</time>
      </trkpt>
      <trkpt lat="47.60804" lon="-2.72801">
        <ele>5.2</ele>
        <time>2026-08-22T14:11:57Z</time>
      </trkpt>
      <trkpt lat="47.608" lon="-2.72797">
        <ele>5.4</ele>
        <time>2026-08-22T14:11:58Z</time>
      </trkpt>
      <trkpt lat="47.60796" lon="-2.72795">
        <ele>5.6</ele>
        <time>2026-08-22T14:11:59Z</time>
      </trkpt>
      <trkpt lat="47.60792" lon="-2.72792">
        <ele>5.7</ele>
        <time>2026-08-22T14:12:00Z</time>
      </trkpt>
      <trkpt lat="47.60789" lon="-2.7279">
        <ele>5.8</ele>
        <time>2026-08-22T14:12:01Z</time>
      </trkpt>
      <trkpt lat="47.60785" lon="-2.7279">
        <ele>5.9</ele>
        <time>2026-08-22T14:12:02Z</time>
      </trkpt>
      <trkpt lat="47.60781" lon="-2.72791">
        <ele>5.9</ele>
        <time>2026-08-22T14:12:03Z</time>
      </trkpt>
      <trkpt lat="47.60777" lon="-2.72791">
        <ele>6</ele>
        <time>2026-08-22T14:12:04Z</time>
      </trkpt>
      <trkpt lat="47.60774" lon="-2.72792">
        <ele>6.1</ele>
        <time>2026-08-22T14:12:05Z</time>
      </trkpt>
      <trkpt lat="47.6077" lon="-2.72794">
        <ele>6.3</ele>
        <time>2026-08-22T14:12:06Z</time>
      </trkpt>
      <trkpt lat="47.60766" lon="-2.72796">
        <ele>6.4</ele>
        <time>2026-08-22T14:12:07Z</time>
      </trkpt>
      <trkpt lat="47.60762" lon="-2.72798">
        <ele>6.6</ele>
        <time>2026-08-22T14:12:08Z</time>
      </trkpt>
      <trkpt lat="47.60759" lon="-2.72801">
        <ele>6.7</ele>
        <time>2026-08-22T14:12:09Z</time>
      </trkpt>
      <trkpt lat="47.60756" lon="-2.72805">
        <ele>6.8</ele>
        <time>2026-08-22T14:12:10Z</time>
      </trkpt>
      <trkpt lat="47.60752" lon="-2.72809">
        <ele>7</ele>
        <time>2026-08-22T14:12:11Z</time>
      </trkpt>
      <trkpt lat="47.6075" lon="-2.72813">
        <ele>7.3</ele>
        <time>2026-08-22T14:12:12Z</time>
      </trkpt>
      <trkpt lat="47.60747" lon="-2.72818">
        <ele>7.6</ele>
        <time>2026-08-22T14:12:13Z</time>
      </trkpt>
      <trkpt lat="47.60745" lon="-2.72823">
        <ele>7.9</ele>
        <time>2026-08-22T14:12:14Z</time>
      </trkpt>
      <trkpt lat="47.60742" lon="-2.72827">
        <ele>8.1</ele>
        <time>2026-08-22T14:12:15Z</time>
      </trkpt>
      <trkpt lat="47.60739" lon="-2.72831">
        <ele>8.3</ele>
        <time>2026-08-22T14:12:16Z</time>
      </trkpt>
      <trkpt lat="47.60736" lon="-2.72834">
        <ele>8.5</ele>
        <time>2026-08-22T14:12:17Z</time>
      </trkpt>
      <trkpt lat="47.60732" lon="-2.72837">
        <ele>8.6</ele>
        <time>2026-08-22T14:12:18Z</time>
      </trkpt>
      <trkpt lat="47.60728" lon="-2.7284">
        <ele>8.8</ele>
        <time>2026-08-22T14:12:19Z</time>
      </trkpt>
      <trkpt lat="47.60725" lon="-2.72842">
        <ele>8.9</ele>
        <time>2026-08-22T14:12:20Z</time>
      </trkpt>
      <trkpt lat="47.60721" lon="-2.72844">
        <ele>9.1</ele>
        <time>2026-08-22T14:12:21Z</time>
      </trkpt>
      <trkpt lat="47.60718" lon="-2.72847">
        <ele>9.2</ele>
        <time>2026-08-22T14:12:22Z</time>
      </trkpt>
      <trkpt lat="47.60716" lon="-2.72849">
        <ele>9.4</ele>
        <time>2026-08-22T14:12:23Z</time>
      </trkpt>
      <trkpt lat="47.60713" lon="-2.72851">
        <ele>9.5</ele>
        <time>2026-08-22T14:12:24Z</time>
      </trkpt>
      <trkpt lat="47.6071" lon="-2.72852">
        <ele>9.7</ele>
        <time>2026-08-22T14:12:25Z</time>
      </trkpt>
      <trkpt lat="47.60708" lon="-2.72852">
        <ele>9.9</ele>
        <time>2026-08-22T14:12:26Z</time>
      </trkpt>
      <trkpt lat="47.60705" lon="-2.72852">
        <ele>10</ele>
        <time>2026-08-22T14:12:27Z</time>
      </trkpt>
      <trkpt lat="47.60702" lon="-2.72852">
        <ele>10.2</ele>
        <time>2026-08-22T14:12:28Z</time>
      </trkpt>
      <trkpt lat="47.607" lon="-2.72853">
        <ele>10.4</ele>
        <time>2026-08-22T14:12:29Z</time>
      </trkpt>
      <trkpt lat="47.60698" lon="-2.72855">
        <ele>10.6</ele>
        <time>2026-08-22T14:12:30Z</time>
      </trkpt>
      <trkpt lat="47.60695" lon="-2.72856">
        <ele>10.8</ele>
        <time>2026-08-22T14:12:31Z</time>
      </trkpt>
      <trkpt lat="47.60694" lon="-2.72857">
        <ele>10.9</ele>
        <time>2026-08-22T14:12:32Z</time>
      </trkpt>
      <trkpt lat="47.60692" lon="-2.72859">
        <ele>11.2</ele>
        <time>2026-08-22T14:12:33Z</time>
      </trkpt>
      <trkpt lat="47.6069" lon="-2.7286">
        <ele>11.4</ele>
        <time>2026-08-22T14:12:34Z</time>
      </trkpt>
      <trkpt lat="47.60688" lon="-2.72862">
        <ele>11.7</ele>
        <time>2026-08-22T14:12:35Z</time>
      </trkpt>
      <trkpt lat="47.60686" lon="-2.72863">
        <ele>12</ele>
        <time>2026-08-22T14:12:36Z</time>
      </trkpt>
      <trkpt lat="47.60684" lon="-2.72865">
        <ele>12.3</ele>
        <time>2026-08-22T14:12:37Z</time>
      </trkpt>
      <trkpt lat="47.60682" lon="-2.72865">
        <ele>12.5</ele>
        <time>2026-08-22T14:12:38Z</time>
      </trkpt>
      <trkpt lat="47.6068" lon="-2.72866">
        <ele>12.7</ele>
        <time>2026-08-22T14:12:39Z</time>
      </trkpt>
      <trkpt lat="47.60678" lon="-2.72867">
        <ele>13</ele>
        <time>2026-08-22T14:12:40Z</time>
      </trkpt>
      <trkpt lat="47.60676" lon="-2.72868">
        <ele>13.2</ele>
        <time>2026-08-22T14:12:41Z</time>
      </trkpt>
      <trkpt lat="47.60674" lon="-2.72868">
        <ele>13.5</ele>
        <time>2026-08-22T14:12:42Z</time>
      </trkpt>
      <trkpt lat="47.60672" lon="-2.72869">
        <ele>13.7</ele>
        <time>2026-08-22T14:12:43Z</time>
      </trkpt>
      <trkpt lat="47.60669" lon="-2.72869">
        <ele>14</ele>
        <time>2026-08-22T14:12:44Z</time>
      </trkpt>
      <trkpt lat="47.60667" lon="-2.72869">
        <ele>14.2</ele>
        <time>2026-08-22T14:12:45Z</time>
      </trkpt>
      <trkpt lat="47.60665" lon="-2.72869">
        <ele>14.4</ele>
        <time>2026-08-22T14:12:46Z</time>
      </trkpt>
      <trkpt lat="47.60663" lon="-2.72868">
        <ele>14.5</ele>
        <time>2026-08-22T14:12:47Z</time>
      </trkpt>
      <trkpt lat="47.6066" lon="-2.72866">
        <ele>14.6</ele>
        <time>2026-08-22T14:12:48Z</time>
      </trkpt>
      <trkpt lat="47.60658" lon="-2.72865">
        <ele>14.7</ele>
        <time>2026-08-22T14:12:49Z</time>
      </trkpt>
      <trkpt lat="47.60656" lon="-2.72863">
        <ele>14.8</ele>
        <time>2026-08-22T14:12:50Z</time>
      </trkpt>
      <trkpt lat="47.60654" lon="-2.72861">
        <ele>14.9</ele>
        <time>2026-08-22T14:12:51Z</time>
      </trkpt>
      <trkpt lat="47.60652" lon="-2.72859">
        <ele>15</ele>
        <time>2026-08-22T14:12:52Z</time>
      </trkpt>
      <trkpt lat="47.6065" lon="-2.72858">
        <ele>15.1</ele>
        <time>2026-08-22T14:12:53Z</time>
      </trkpt>
      <trkpt lat="47.60648" lon="-2.72856">
        <ele>15.2</ele>
        <time>2026-08-22T14:12:54Z</time>
      </trkpt>
      <trkpt lat="47.60646" lon="-2.72854">
        <ele>15.2</ele>
        <time>2026-08-22T14:12:55Z</time>
      </trkpt>
      <trkpt lat="47.60644" lon="-2.72852">
        <ele>15.3</ele>
        <time>2026-08-22T14:12:56Z</time>
      </trkpt>
      <trkpt lat="47.60642" lon="-2.72851">
        <ele>15.4</ele>
        <time>2026-08-22T14:12:57Z</time>
      </trkpt>
      <trkpt lat="47.6064" lon="-2.72849">
        <ele>15.5</ele>
        <time>2026-08-22T14:12:58Z</time>
      </trkpt>
      <trkpt lat="47.60637" lon="-2.72848">
        <ele>15.6</ele>
        <time>2026-08-22T14:12:59Z</time>
      </trkpt>
      <trkpt lat="47.60635" lon="-2.72846">
        <ele>15.5</ele>
        <time>2026-08-22T14:13:00Z</time>
      </trkpt>
      <trkpt lat="47.60633" lon="-2.72845">
        <ele>15.5</ele>
        <time>2026-08-22T14:13:01Z</time>
      </trkpt>
      <trkpt lat="47.6063" lon="-2.72844">
        <ele>15.6</ele>
        <time>2026-08-22T14:13:02Z</time>
      </trkpt>
      <trkpt lat="47.60627" lon="-2.72842">
        <ele>15.6</ele>
        <time>2026-08-22T14:13:03Z</time>
      </trkpt>
      <trkpt lat="47.60625" lon="-2.72841">
        <ele>15.6</ele>
        <time>2026-08-22T14:13:04Z</time>
      </trkpt>
      <trkpt lat="47.60623" lon="-2.72839">
        <ele>15.7</ele>
        <time>2026-08-22T14:13:05Z</time>
      </trkpt>
      <trkpt lat="47.6062" lon="-2.72838">
        <ele>15.7</ele>
        <time>2026-08-22T14:13:06Z</time>
      </trkpt>
      <trkpt lat="47.60618" lon="-2.72836">
        <ele>15.8</ele>
        <time>2026-08-22T14:13:07Z</time>
      </trkpt>
      <trkpt lat="47.60615" lon="-2.72835">
        <ele>15.9</ele>
        <time>2026-08-22T14:13:08Z</time>
      </trkpt>
      <trkpt lat="47.60613" lon="-2.72833">
        <ele>15.9</ele>
        <time>2026-08-22T14:13:09Z</time>
      </trkpt>
      <trkpt lat="47.6061" lon="-2.72832">
        <ele>16</ele>
        <time>2026-08-22T14:13:10Z</time>
      </trkpt>
      <trkpt lat="47.60608" lon="-2.7283">
        <ele>16</ele>
        <time>2026-08-22T14:13:11Z</time>
      </trkpt>
      <trkpt lat="47.60605" lon="-2.72827">
        <ele>16</ele>
        <time>2026-08-22T14:13:12Z</time>
      </trkpt>
      <trkpt lat="47.60603" lon="-2.72824">
        <ele>16</ele>
        <time>2026-08-22T14:13:13Z</time>
      </trkpt>
      <trkpt lat="47.60601" lon="-2.72822">
        <ele>16</ele>
        <time>2026-08-22T14:13:14Z</time>
      </trkpt>
      <trkpt lat="47.60599" lon="-2.72819">
        <ele>16</ele>
        <time>2026-08-22T14:13:15Z</time>
      </trkpt>
      <trkpt lat="47.60597" lon="-2.72816">
        <ele>16</ele>
        <time>2026-08-22T14:13:16Z</time>
      </trkpt>
      <trkpt lat="47.60594" lon="-2.72812">
        <ele>16</ele>
        <time>2026-08-22T14:13:17Z</time>
      </trkpt>
      <trkpt lat="47.60592" lon="-2.72809">
        <ele>16</ele>
        <time>2026-08-22T14:13:18Z</time>
      </trkpt>
      <trkpt lat="47.60589" lon="-2.72807">
        <ele>16</ele>
        <time>2026-08-22T14:13:19Z</time>
      </trkpt>
      <trkpt lat="47.60585" lon="-2.72806">
        <ele>16</ele>
        <time>2026-08-22T14:13:20Z</time>
      </trkpt>
      <trkpt lat="47.60582" lon="-2.72804">
        <ele>15.9</ele>
        <time>2026-08-22T14:13:21Z</time>
      </trkpt>
      <trkpt lat="47.60579" lon="-2.72803">
        <ele>15.6</ele>
        <time>2026-08-22T14:13:22Z</time>
      </trkpt>
      <trkpt lat="47.60576" lon="-2.72801">
        <ele>15.4</ele>
        <time>2026-08-22T14:13:23Z</time>
      </trkpt>
      <trkpt lat="47.60573" lon="-2.72798">
        <ele>15.2</ele>
        <time>2026-08-22T14:13:24Z</time>
      </trkpt>
      <trkpt lat="47.6057" lon="-2.72796">
        <ele>15</ele>
        <time>2026-08-22T14:13:25Z</time>
      </trkpt>
      <trkpt lat="47.60567" lon="-2.72793">
        <ele>14.9</ele>
        <time>2026-08-22T14:13:26Z</time>
      </trkpt>
      <trkpt lat="47.60563" lon="-2.7279">
        <ele>14.8</ele>
        <time>2026-08-22T14:13:27Z</time>
      </trkpt>
      <trkpt lat="47.6056" lon="-2.72786">
        <ele>14.8</ele>
        <time>2026-08-22T14:13:28Z</time>
      </trkpt>
      <trkpt lat="47.60556" lon="-2.72783">
        <ele>14.8</ele>
        <time>2026-08-22T14:13:29Z</time>
      </trkpt>
      <trkpt lat="47.60553" lon="-2.72779">
        <ele>14.9</ele>
        <time>2026-08-22T14:13:30Z</time>
      </trkpt>
      <trkpt lat="47.6055" lon="-2.72775">
        <ele>15.1</ele>
        <time>2026-08-22T14:13:31Z</time>
      </trkpt>
      <trkpt lat="47.60547" lon="-2.72772">
        <ele>15.3</ele>
        <time>2026-08-22T14:13:32Z</time>
      </trkpt>
      <trkpt lat="47.60544" lon="-2.72769">
        <ele>15.4</ele>
        <time>2026-08-22T14:13:33Z</time>
      </trkpt>
      <trkpt lat="47.60542" lon="-2.72767">
        <ele>15.6</ele>
        <time>2026-08-22T14:13:34Z</time>
      </trkpt>
      <trkpt lat="47.60539" lon="-2.72763">
        <ele>15.8</ele>
        <time>2026-08-22T14:13:35Z</time>
      </trkpt>
      <trkpt lat="47.60537" lon="-2.7276">
        <ele>16.1</ele>
        <time>2026-08-22T14:13:36Z</time>
      </trkpt>
      <trkpt lat="47.60534" lon="-2.72758">
        <ele>16.3</ele>
        <time>2026-08-22T14:13:37Z</time>
      </trkpt>
      <trkpt lat="47.60532" lon="-2.72755">
        <ele>16.5</ele>
        <time>2026-08-22T14:13:38Z</time>
      </trkpt>
      <trkpt lat="47.60529" lon="-2.72752">
        <ele>16.8</ele>
        <time>2026-08-22T14:13:39Z</time>
      </trkpt>
      <trkpt lat="47.60527" lon="-2.72749">
        <ele>17.1</ele>
        <time>2026-08-22T14:13:40Z</time>
      </trkpt>
      <trkpt lat="47.60524" lon="-2.72746">
        <ele>17.3</ele>
        <time>2026-08-22T14:13:41Z</time>
      </trkpt>
      <trkpt lat="47.60521" lon="-2.72744">
        <ele>17.4</ele>
        <time>2026-08-22T14:13:42Z</time>
      </trkpt>
      <trkpt lat="47.60518" lon="-2.72741">
        <ele>17.5</ele>
        <time>2026-08-22T14:13:43Z</time>
      </trkpt>
      <trkpt lat="47.60515" lon="-2.72739">
        <ele>17.6</ele>
        <time>2026-08-22T14:13:44Z</time>
      </trkpt>
      <trkpt lat="47.60512" lon="-2.72736">
        <ele>17.7</ele>
        <time>2026-08-22T14:13:45Z</time>
      </trkpt>
      <trkpt lat="47.60509" lon="-2.72734">
        <ele>17.8</ele>
        <time>2026-08-22T14:13:46Z</time>
      </trkpt>
      <trkpt lat="47.60506" lon="-2.72732">
        <ele>17.8</ele>
        <time>2026-08-22T14:13:47Z</time>
      </trkpt>
      <trkpt lat="47.60502" lon="-2.72729">
        <ele>17.8</ele>
        <time>2026-08-22T14:13:48Z</time>
      </trkpt>
      <trkpt lat="47.60499" lon="-2.72727">
        <ele>17.8</ele>
        <time>2026-08-22T14:13:49Z</time>
      </trkpt>
      <trkpt lat="47.60496" lon="-2.72724">
        <ele>17.8</ele>
        <time>2026-08-22T14:13:50Z</time>
      </trkpt>
      <trkpt lat="47.60492" lon="-2.72722">
        <ele>17.7</ele>
        <time>2026-08-22T14:13:51Z</time>
      </trkpt>
      <trkpt lat="47.60489" lon="-2.7272">
        <ele>17.7</ele>
        <time>2026-08-22T14:13:52Z</time>
      </trkpt>
      <trkpt lat="47.60485" lon="-2.72717">
        <ele>17.5</ele>
        <time>2026-08-22T14:13:53Z</time>
      </trkpt>
      <trkpt lat="47.6048" lon="-2.72715">
        <ele>17.4</ele>
        <time>2026-08-22T14:13:54Z</time>
      </trkpt>
      <trkpt lat="47.60476" lon="-2.72712">
        <ele>17.2</ele>
        <time>2026-08-22T14:13:55Z</time>
      </trkpt>
      <trkpt lat="47.60472" lon="-2.72709">
        <ele>17</ele>
        <time>2026-08-22T14:13:56Z</time>
      </trkpt>
      <trkpt lat="47.60469" lon="-2.72705">
        <ele>16.6</ele>
        <time>2026-08-22T14:13:57Z</time>
      </trkpt>
      <trkpt lat="47.60465" lon="-2.727">
        <ele>16.2</ele>
        <time>2026-08-22T14:13:58Z</time>
      </trkpt>
      <trkpt lat="47.60461" lon="-2.72694">
        <ele>15.8</ele>
        <time>2026-08-22T14:13:59Z</time>
      </trkpt>
      <trkpt lat="47.60458" lon="-2.72687">
        <ele>15.7</ele>
        <time>2026-08-22T14:14:00Z</time>
      </trkpt>
      <trkpt lat="47.60457" lon="-2.7268">
        <ele>15.9</ele>
        <time>2026-08-22T14:14:01Z</time>
      </trkpt>
      <trkpt lat="47.60457" lon="-2.72672">
        <ele>16.2</ele>
        <time>2026-08-22T14:14:02Z</time>
      </trkpt>
      <trkpt lat="47.60457" lon="-2.72665">
        <ele>16.3</ele>
        <time>2026-08-22T14:14:03Z</time>
      </trkpt>
      <trkpt lat="47.60457" lon="-2.72658">
        <ele>16</ele>
        <time>2026-08-22T14:14:04Z</time>
      </trkpt>
      <trkpt lat="47.60457" lon="-2.7265">
        <ele>15.8</ele>
        <time>2026-08-22T14:14:05Z</time>
      </trkpt>
      <trkpt lat="47.60458" lon="-2.72642">
        <ele>15.6</ele>
        <time>2026-08-22T14:14:06Z</time>
      </trkpt>
      <trkpt lat="47.60457" lon="-2.72634">
        <ele>15.3</ele>
        <time>2026-08-22T14:14:07Z</time>
      </trkpt>
      <trkpt lat="47.60457" lon="-2.72626">
        <ele>15.1</ele>
        <time>2026-08-22T14:14:08Z</time>
      </trkpt>
      <trkpt lat="47.60456" lon="-2.72617">
        <ele>14.8</ele>
        <time>2026-08-22T14:14:09Z</time>
      </trkpt>
      <trkpt lat="47.60456" lon="-2.72609">
        <ele>14.6</ele>
        <time>2026-08-22T14:14:10Z</time>
      </trkpt>
      <trkpt lat="47.60455" lon="-2.726">
        <ele>14.4</ele>
        <time>2026-08-22T14:14:11Z</time>
      </trkpt>
      <trkpt lat="47.60455" lon="-2.72591">
        <ele>14.2</ele>
        <time>2026-08-22T14:14:12Z</time>
      </trkpt>
      <trkpt lat="47.60454" lon="-2.72581">
        <ele>13.9</ele>
        <time>2026-08-22T14:14:13Z</time>
      </trkpt>
      <trkpt lat="47.60452" lon="-2.72571">
        <ele>13.4</ele>
        <time>2026-08-22T14:14:14Z</time>
      </trkpt>
      <trkpt lat="47.60451" lon="-2.72561">
        <ele>12.9</ele>
        <time>2026-08-22T14:14:15Z</time>
      </trkpt>
      <trkpt lat="47.6045" lon="-2.7255">
        <ele>12.3</ele>
        <time>2026-08-22T14:14:16Z</time>
      </trkpt>
      <trkpt lat="47.6045" lon="-2.72539">
        <ele>11.8</ele>
        <time>2026-08-22T14:14:17Z</time>
      </trkpt>
      <trkpt lat="47.60449" lon="-2.72528">
        <ele>11.2</ele>
        <time>2026-08-22T14:14:18Z</time>
      </trkpt>
      <trkpt lat="47.60448" lon="-2.72516">
        <ele>10.6</ele>
        <time>2026-08-22T14:14:19Z</time>
      </trkpt>
      <trkpt lat="47.60447" lon="-2.72503">
        <ele>10.1</ele>
        <time>2026-08-22T14:14:20Z</time>
      </trkpt>
      <trkpt lat="47.60445" lon="-2.72491">
        <ele>9.7</ele>
        <time>2026-08-22T14:14:21Z</time>
      </trkpt>
      <trkpt lat="47.60444" lon="-2.72479">
        <ele>9.2</ele>
        <time>2026-08-22T14:14:22Z</time>
      </trkpt>
      <trkpt lat="47.60444" lon="-2.72467">
        <ele>9</ele>
        <time>2026-08-22T14:14:23Z</time>
      </trkpt>
      <trkpt lat="47.60443" lon="-2.72455">
        <ele>8.9</ele>
        <time>2026-08-22T14:14:24Z</time>
      </trkpt>
      <trkpt lat="47.60441" lon="-2.72443">
        <ele>8.9</ele>
        <time>2026-08-22T14:14:25Z</time>
      </trkpt>
      <trkpt lat="47.6044" lon="-2.72431">
        <ele>8.9</ele>
        <time>2026-08-22T14:14:26Z</time>
      </trkpt>
      <trkpt lat="47.60439" lon="-2.72408">
        <ele>8.7</ele>
        <time>2026-08-22T14:14:27Z</time>
      </trkpt>
      <trkpt lat="47.60439" lon="-2.72408">
        <ele>8.7</ele>
        <time>2026-08-22T14:14:28Z</time>
      </trkpt>
      <trkpt lat="47.60438" lon="-2.72398">
        <ele>8.5</ele>
        <time>2026-08-22T14:14:29Z</time>
      </trkpt>
      <trkpt lat="47.60438" lon="-2.72387">
        <ele>8.2</ele>
        <time>2026-08-22T14:14:30Z</time>
      </trkpt>
      <trkpt lat="47.60438" lon="-2.72376">
        <ele>7.8</ele>
        <time>2026-08-22T14:14:31Z</time>
      </trkpt>
      <trkpt lat="47.60439" lon="-2.72365">
        <ele>7.3</ele>
        <time>2026-08-22T14:14:32Z</time>
      </trkpt>
      <trkpt lat="47.6044" lon="-2.72354">
        <ele>6.9</ele>
        <time>2026-08-22T14:14:33Z</time>
      </trkpt>
      <trkpt lat="47.6044" lon="-2.72344">
        <ele>6.5</ele>
        <time>2026-08-22T14:14:34Z</time>
      </trkpt>
      <trkpt lat="47.60441" lon="-2.72332">
        <ele>6.1</ele>
        <time>2026-08-22T14:14:35Z</time>
      </trkpt>
      <trkpt lat="47.60441" lon="-2.72321">
        <ele>5.7</ele>
        <time>2026-08-22T14:14:36Z</time>
      </trkpt>
      <trkpt lat="47.60441" lon="-2.7231">
        <ele>5.3</ele>
        <time>2026-08-22T14:14:37Z</time>
      </trkpt>
      <trkpt lat="47.60441" lon="-2.723">
        <ele>4.9</ele>
        <time>2026-08-22T14:14:38Z</time>
      </trkpt>
      <trkpt lat="47.60441" lon="-2.7229">
        <ele>4.6</ele>
        <time>2026-08-22T14:14:39Z</time>
      </trkpt>
      <trkpt lat="47.60441" lon="-2.7228">
        <ele>4.2</ele>
        <time>2026-08-22T14:14:40Z</time>
      </trkpt>
      <trkpt lat="47.60441" lon="-2.72272">
        <ele>3.9</ele>
        <time>2026-08-22T14:14:41Z</time>
      </trkpt>
      <trkpt lat="47.6044" lon="-2.72264">
        <ele>3.6</ele>
        <time>2026-08-22T14:14:42Z</time>
      </trkpt>
      <trkpt lat="47.60439" lon="-2.72258">
        <ele>3.3</ele>
        <time>2026-08-22T14:14:43Z</time>
      </trkpt>
      <trkpt lat="47.60437" lon="-2.72254">
        <ele>3.2</ele>
        <time>2026-08-22T14:14:44Z</time>
      </trkpt>
      <trkpt lat="47.60435" lon="-2.7225">
        <ele>3</ele>
        <time>2026-08-22T14:14:45Z</time>
      </trkpt>
      <trkpt lat="47.60433" lon="-2.72248">
        <ele>2.9</ele>
        <time>2026-08-22T14:14:46Z</time>
      </trkpt>
      <trkpt lat="47.6043" lon="-2.72246">
        <ele>2.9</ele>
        <time>2026-08-22T14:14:47Z</time>
      </trkpt>
      <trkpt lat="47.60426" lon="-2.72246">
        <ele>2.9</ele>
        <time>2026-08-22T14:14:48Z</time>
      </trkpt>
      <trkpt lat="47.60423" lon="-2.72246">
        <ele>2.9</ele>
        <time>2026-08-22T14:14:49Z</time>
      </trkpt>
      <trkpt lat="47.60419" lon="-2.72245">
        <ele>2.8</ele>
        <time>2026-08-22T14:14:50Z</time>
      </trkpt>
      <trkpt lat="47.60415" lon="-2.72244">
        <ele>2.8</ele>
        <time>2026-08-22T14:14:51Z</time>
      </trkpt>
      <trkpt lat="47.60411" lon="-2.72243">
        <ele>2.7</ele>
        <time>2026-08-22T14:14:52Z</time>
      </trkpt>
      <trkpt lat="47.60407" lon="-2.72241">
        <ele>2.7</ele>
        <time>2026-08-22T14:14:53Z</time>
      </trkpt>
      <trkpt lat="47.60403" lon="-2.72238">
        <ele>2.6</ele>
        <time>2026-08-22T14:14:54Z</time>
      </trkpt>
      <trkpt lat="47.60398" lon="-2.72235">
        <ele>2.5</ele>
        <time>2026-08-22T14:14:55Z</time>
      </trkpt>
      <trkpt lat="47.60395" lon="-2.72231">
        <ele>2.3</ele>
        <time>2026-08-22T14:14:56Z</time>
      </trkpt>
      <trkpt lat="47.60391" lon="-2.72226">
        <ele>2.1</ele>
        <time>2026-08-22T14:14:57Z</time>
      </trkpt>
      <trkpt lat="47.60387" lon="-2.72221">
        <ele>1.9</ele>
        <time>2026-08-22T14:14:58Z</time>
      </trkpt>
      <trkpt lat="47.60384" lon="-2.72215">
        <ele>1.6</ele>
        <time>2026-08-22T14:14:59Z</time>
      </trkpt>
      <trkpt lat="47.60382" lon="-2.7221">
        <ele>1.4</ele>
        <time>2026-08-22T14:15:00Z</time>
      </trkpt>
      <trkpt lat="47.60379" lon="-2.72204">
        <ele>1.2</ele>
        <time>2026-08-22T14:15:01Z</time>
      </trkpt>
      <trkpt lat="47.60377" lon="-2.72198">
        <ele>1.1</ele>
        <time>2026-08-22T14:15:02Z</time>
      </trkpt>
      <trkpt lat="47.60375" lon="-2.72191">
        <ele>1.1</ele>
        <time>2026-08-22T14:15:03Z</time>
      </trkpt>
      <trkpt lat="47.60373" lon="-2.72185">
        <ele>1.2</ele>
        <time>2026-08-22T14:15:04Z</time>
      </trkpt>
      <trkpt lat="47.60371" lon="-2.72179">
        <ele>1.4</ele>
        <time>2026-08-22T14:15:05Z</time>
      </trkpt>
      <trkpt lat="47.60369" lon="-2.72173">
        <ele>1.6</ele>
        <time>2026-08-22T14:15:06Z</time>
      </trkpt>
      <trkpt lat="47.60367" lon="-2.72167">
        <ele>1.8</ele>
        <time>2026-08-22T14:15:07Z</time>
      </trkpt>
      <trkpt lat="47.60365" lon="-2.72162">
        <ele>1.9</ele>
        <time>2026-08-22T14:15:08Z</time>
      </trkpt>
      <trkpt lat="47.60363" lon="-2.72157">
        <ele>1.9</ele>
        <time>2026-08-22T14:15:09Z</time>
      </trkpt>
      <trkpt lat="47.60362" lon="-2.72152">
        <ele>2</ele>
        <time>2026-08-22T14:15:10Z</time>
      </trkpt>
      <trkpt lat="47.6036" lon="-2.72146">
        <ele>2</ele>
        <time>2026-08-22T14:15:11Z</time>
      </trkpt>
      <trkpt lat="47.60358" lon="-2.72141">
        <ele>1.9</ele>
        <time>2026-08-22T14:15:12Z</time>
      </trkpt>
      <trkpt lat="47.60357" lon="-2.72136">
        <ele>1.9</ele>
        <time>2026-08-22T14:15:13Z</time>
      </trkpt>
      <trkpt lat="47.60355" lon="-2.7213">
        <ele>1.9</ele>
        <time>2026-08-22T14:15:14Z</time>
      </trkpt>
      <trkpt lat="47.60353" lon="-2.72125">
        <ele>1.9</ele>
        <time>2026-08-22T14:15:15Z</time>
      </trkpt>
      <trkpt lat="47.60351" lon="-2.72119">
        <ele>1.9</ele>
        <time>2026-08-22T14:15:16Z</time>
      </trkpt>
      <trkpt lat="47.60349" lon="-2.72113">
        <ele>2</ele>
        <time>2026-08-22T14:15:17Z</time>
      </trkpt>
      <trkpt lat="47.60346" lon="-2.72107">
        <ele>2.1</ele>
        <time>2026-08-22T14:15:18Z</time>
      </trkpt>
      <trkpt lat="47.60344" lon="-2.72102">
        <ele>2.2</ele>
        <time>2026-08-22T14:15:19Z</time>
      </trkpt>
      <trkpt lat="47.60341" lon="-2.72096">
        <ele>2.4</ele>
        <time>2026-08-22T14:15:20Z</time>
      </trkpt>
      <trkpt lat="47.60339" lon="-2.72091">
        <ele>2.6</ele>
        <time>2026-08-22T14:15:21Z</time>
      </trkpt>
      <trkpt lat="47.60335" lon="-2.72086">
        <ele>2.8</ele>
        <time>2026-08-22T14:15:22Z</time>
      </trkpt>
      <trkpt lat="47.60332" lon="-2.72081">
        <ele>3</ele>
        <time>2026-08-22T14:15:23Z</time>
      </trkpt>
      <trkpt lat="47.60329" lon="-2.72076">
        <ele>2.9</ele>
        <time>2026-08-22T14:15:24Z</time>
      </trkpt>
      <trkpt lat="47.60326" lon="-2.72072">
        <ele>2.8</ele>
        <time>2026-08-22T14:15:25Z</time>
      </trkpt>
      <trkpt lat="47.60323" lon="-2.72067">
        <ele>2.8</ele>
        <time>2026-08-22T14:15:26Z</time>
      </trkpt>
      <trkpt lat="47.60319" lon="-2.72063">
        <ele>2.9</ele>
        <time>2026-08-22T14:15:27Z</time>
      </trkpt>
      <trkpt lat="47.60316" lon="-2.72059">
        <ele>2.9</ele>
        <time>2026-08-22T14:15:28Z</time>
      </trkpt>
      <trkpt lat="47.60312" lon="-2.72054">
        <ele>3</ele>
        <time>2026-08-22T14:15:29Z</time>
      </trkpt>
      <trkpt lat="47.60309" lon="-2.7205">
        <ele>3</ele>
        <time>2026-08-22T14:15:30Z</time>
      </trkpt>
      <trkpt lat="47.60305" lon="-2.72046">
        <ele>3</ele>
        <time>2026-08-22T14:15:31Z</time>
      </trkpt>
      <trkpt lat="47.60301" lon="-2.72043">
        <ele>2.9</ele>
        <time>2026-08-22T14:15:32Z</time>
      </trkpt>
      <trkpt lat="47.60298" lon="-2.72038">
        <ele>2.9</ele>
        <time>2026-08-22T14:15:33Z</time>
      </trkpt>
      <trkpt lat="47.60295" lon="-2.72033">
        <ele>2.9</ele>
        <time>2026-08-22T14:15:34Z</time>
      </trkpt>
      <trkpt lat="47.60293" lon="-2.72027">
        <ele>3</ele>
        <time>2026-08-22T14:15:35Z</time>
      </trkpt>
      <trkpt lat="47.60292" lon="-2.72021">
        <ele>3</ele>
        <time>2026-08-22T14:15:36Z</time>
      </trkpt>
      <trkpt lat="47.60291" lon="-2.72015">
        <ele>3</ele>
        <time>2026-08-22T14:15:37Z</time>
      </trkpt>
      <trkpt lat="47.6029" lon="-2.72009">
        <ele>3</ele>
        <time>2026-08-22T14:15:38Z</time>
      </trkpt>
      <trkpt lat="47.60289" lon="-2.72002">
        <ele>3</ele>
        <time>2026-08-22T14:15:39Z</time>
      </trkpt>
      <trkpt lat="47.60288" lon="-2.71996">
        <ele>3.1</ele>
        <time>2026-08-22T14:15:40Z</time>
      </trkpt>
      <trkpt lat="47.60287" lon="-2.7199">
        <ele>3.2</ele>
        <time>2026-08-22T14:15:41Z</time>
      </trkpt>
      <trkpt lat="47.60286" lon="-2.71985">
        <ele>3.4</ele>
        <time>2026-08-22T14:15:42Z</time>
      </trkpt>
      <trkpt lat="47.60285" lon="-2.7198">
        <ele>3.5</ele>
        <time>2026-08-22T14:15:43Z</time>
      </trkpt>
      <trkpt lat="47.60284" lon="-2.71974">
        <ele>3.7</ele>
        <time>2026-08-22T14:15:44Z</time>
      </trkpt>
      <trkpt lat="47.60283" lon="-2.71969">
        <ele>3.8</ele>
        <time>2026-08-22T14:15:45Z</time>
      </trkpt>
      <trkpt lat="47.60282" lon="-2.71964">
        <ele>3.8</ele>
        <time>2026-08-22T14:15:46Z</time>
      </trkpt>
      <trkpt lat="47.60281" lon="-2.71959">
        <ele>3.9</ele>
        <time>2026-08-22T14:15:47Z</time>
      </trkpt>
      <trkpt lat="47.6028" lon="-2.71954">
        <ele>3.9</ele>
        <time>2026-08-22T14:15:48Z</time>
      </trkpt>
      <trkpt lat="47.60279" lon="-2.71949">
        <ele>4</ele>
        <time>2026-08-22T14:15:49Z</time>
      </trkpt>
      <trkpt lat="47.60278" lon="-2.71944">
        <ele>4</ele>
        <time>2026-08-22T14:15:50Z</time>
      </trkpt>
      <trkpt lat="47.60277" lon="-2.71938">
        <ele>4.3</ele>
        <time>2026-08-22T14:15:51Z</time>
      </trkpt>
      <trkpt lat="47.60276" lon="-2.71933">
        <ele>4.5</ele>
        <time>2026-08-22T14:15:52Z</time>
      </trkpt>
      <trkpt lat="47.60275" lon="-2.71928">
        <ele>4.7</ele>
        <time>2026-08-22T14:15:53Z</time>
      </trkpt>
      <trkpt lat="47.60274" lon="-2.71923">
        <ele>4.9</ele>
        <time>2026-08-22T14:15:54Z</time>
      </trkpt>
      <trkpt lat="47.60273" lon="-2.71918">
        <ele>5.1</ele>
        <time>2026-08-22T14:15:55Z</time>
      </trkpt>
      <trkpt lat="47.60272" lon="-2.71913">
        <ele>5.2</ele>
        <time>2026-08-22T14:15:56Z</time>
      </trkpt>
      <trkpt lat="47.60271" lon="-2.71907">
        <ele>5.2</ele>
        <time>2026-08-22T14:15:57Z</time>
      </trkpt>
      <trkpt lat="47.6027" lon="-2.71903">
        <ele>5.3</ele>
        <time>2026-08-22T14:15:58Z</time>
      </trkpt>
      <trkpt lat="47.60269" lon="-2.71898">
        <ele>5.3</ele>
        <time>2026-08-22T14:15:59Z</time>
      </trkpt>
      <trkpt lat="47.60268" lon="-2.71893">
        <ele>5.4</ele>
        <time>2026-08-22T14:16:00Z</time>
      </trkpt>
      <trkpt lat="47.60267" lon="-2.71888">
        <ele>5.4</ele>
        <time>2026-08-22T14:16:01Z</time>
      </trkpt>
      <trkpt lat="47.60266" lon="-2.71883">
        <ele>5.4</ele>
        <time>2026-08-22T14:16:02Z</time>
      </trkpt>
      <trkpt lat="47.60265" lon="-2.71878">
        <ele>5.5</ele>
        <time>2026-08-22T14:16:03Z</time>
      </trkpt>
      <trkpt lat="47.60264" lon="-2.71874">
        <ele>5.5</ele>
        <time>2026-08-22T14:16:04Z</time>
      </trkpt>
      <trkpt lat="47.60263" lon="-2.71869">
        <ele>5.5</ele>
        <time>2026-08-22T14:16:05Z</time>
      </trkpt>
      <trkpt lat="47.60262" lon="-2.71864">
        <ele>5.6</ele>
        <time>2026-08-22T14:16:06Z</time>
      </trkpt>
      <trkpt lat="47.60261" lon="-2.7186">
        <ele>5.6</ele>
        <time>2026-08-22T14:16:07Z</time>
      </trkpt>
      <trkpt lat="47.6026" lon="-2.71855">
        <ele>5.7</ele>
        <time>2026-08-22T14:16:08Z</time>
      </trkpt>
      <trkpt lat="47.60259" lon="-2.7185">
        <ele>5.8</ele>
        <time>2026-08-22T14:16:09Z</time>
      </trkpt>
      <trkpt lat="47.60259" lon="-2.71846">
        <ele>5.9</ele>
        <time>2026-08-22T14:16:10Z</time>
      </trkpt>
      <trkpt lat="47.60258" lon="-2.71841">
        <ele>5.9</ele>
        <time>2026-08-22T14:16:11Z</time>
      </trkpt>
      <trkpt lat="47.60257" lon="-2.71836">
        <ele>6</ele>
        <time>2026-08-22T14:16:12Z</time>
      </trkpt>
      <trkpt lat="47.60256" lon="-2.71831">
        <ele>6.1</ele>
        <time>2026-08-22T14:16:13Z</time>
      </trkpt>
      <trkpt lat="47.60255" lon="-2.71827">
        <ele>6.2</ele>
        <time>2026-08-22T14:16:14Z</time>
      </trkpt>
      <trkpt lat="47.60255" lon="-2.71822">
        <ele>6.3</ele>
        <time>2026-08-22T14:16:15Z</time>
      </trkpt>
      <trkpt lat="47.60254" lon="-2.71818">
        <ele>6.5</ele>
        <time>2026-08-22T14:16:16Z</time>
      </trkpt>
      <trkpt lat="47.60253" lon="-2.71813">
        <ele>6.7</ele>
        <time>2026-08-22T14:16:17Z</time>
      </trkpt>
      <trkpt lat="47.60252" lon="-2.71808">
        <ele>6.8</ele>
        <time>2026-08-22T14:16:18Z</time>
      </trkpt>
      <trkpt lat="47.60251" lon="-2.71804">
        <ele>7</ele>
        <time>2026-08-22T14:16:19Z</time>
      </trkpt>
      <trkpt lat="47.6025" lon="-2.718">
        <ele>7.2</ele>
        <time>2026-08-22T14:16:20Z</time>
      </trkpt>
      <trkpt lat="47.6025" lon="-2.71796">
        <ele>7.3</ele>
        <time>2026-08-22T14:16:21Z</time>
      </trkpt>
      <trkpt lat="47.60249" lon="-2.71791">
        <ele>7.5</ele>
        <time>2026-08-22T14:16:22Z</time>
      </trkpt>
      <trkpt lat="47.60248" lon="-2.71787">
        <ele>7.6</ele>
        <time>2026-08-22T14:16:23Z</time>
      </trkpt>
      <trkpt lat="47.60247" lon="-2.71783">
        <ele>7.7</ele>
        <time>2026-08-22T14:16:24Z</time>
      </trkpt>
      <trkpt lat="47.60246" lon="-2.71779">
        <ele>7.8</ele>
        <time>2026-08-22T14:16:25Z</time>
      </trkpt>
      <trkpt lat="47.60245" lon="-2.71774">
        <ele>8</ele>
        <time>2026-08-22T14:16:26Z</time>
      </trkpt>
      <trkpt lat="47.60244" lon="-2.7177">
        <ele>8.1</ele>
        <time>2026-08-22T14:16:27Z</time>
      </trkpt>
      <trkpt lat="47.60242" lon="-2.71767">
        <ele>8.2</ele>
        <time>2026-08-22T14:16:28Z</time>
      </trkpt>
      <trkpt lat="47.60239" lon="-2.71766">
        <ele>8.2</ele>
        <time>2026-08-22T14:16:29Z</time>
      </trkpt>
      <trkpt lat="47.60237" lon="-2.71766">
        <ele>8.2</ele>
        <time>2026-08-22T14:16:30Z</time>
      </trkpt>
      <trkpt lat="47.60233" lon="-2.71768">
        <ele>8</ele>
        <time>2026-08-22T14:16:31Z</time>
      </trkpt>
      <trkpt lat="47.60229" lon="-2.7177">
        <ele>7.7</ele>
        <time>2026-08-22T14:16:32Z</time>
      </trkpt>
      <trkpt lat="47.60225" lon="-2.71773">
        <ele>7.4</ele>
        <time>2026-08-22T14:16:33Z</time>
      </trkpt>
      <trkpt lat="47.60221" lon="-2.71776">
        <ele>7.1</ele>
        <time>2026-08-22T14:16:34Z</time>
      </trkpt>
      <trkpt lat="47.60217" lon="-2.71778">
        <ele>7</ele>
        <time>2026-08-22T14:16:35Z</time>
      </trkpt>
      <trkpt lat="47.60212" lon="-2.71782">
        <ele>6.8</ele>
        <time>2026-08-22T14:16:36Z</time>
      </trkpt>
      <trkpt lat="47.60208" lon="-2.71786">
        <ele>6.6</ele>
        <time>2026-08-22T14:16:37Z</time>
      </trkpt>
      <trkpt lat="47.60203" lon="-2.71791">
        <ele>6.2</ele>
        <time>2026-08-22T14:16:38Z</time>
      </trkpt>
      <trkpt lat="47.60199" lon="-2.71797">
        <ele>5.7</ele>
        <time>2026-08-22T14:16:39Z</time>
      </trkpt>
      <trkpt lat="47.60195" lon="-2.71804">
        <ele>5.1</ele>
        <time>2026-08-22T14:16:40Z</time>
      </trkpt>
      <trkpt lat="47.60191" lon="-2.71811">
        <ele>5</ele>
        <time>2026-08-22T14:16:41Z</time>
      </trkpt>
      <trkpt lat="47.60187" lon="-2.71817">
        <ele>5</ele>
        <time>2026-08-22T14:16:42Z</time>
      </trkpt>
      <trkpt lat="47.60184" lon="-2.71824">
        <ele>5</ele>
        <time>2026-08-22T14:16:43Z</time>
      </trkpt>
      <trkpt lat="47.6018" lon="-2.71831">
        <ele>5</ele>
        <time>2026-08-22T14:16:44Z</time>
      </trkpt>
      <trkpt lat="47.60176" lon="-2.71837">
        <ele>4.9</ele>
        <time>2026-08-22T14:16:45Z</time>
      </trkpt>
      <trkpt lat="47.60173" lon="-2.71843">
        <ele>4.7</ele>
        <time>2026-08-22T14:16:46Z</time>
      </trkpt>
      <trkpt lat="47.60168" lon="-2.71849">
        <ele>4.4</ele>
        <time>2026-08-22T14:16:47Z</time>
      </trkpt>
      <trkpt lat="47.60164" lon="-2.71854">
        <ele>4.2</ele>
        <time>2026-08-22T14:16:48Z</time>
      </trkpt>
      <trkpt lat="47.6016" lon="-2.7186">
        <ele>3.8</ele>
        <time>2026-08-22T14:16:49Z</time>
      </trkpt>
      <trkpt lat="47.60156" lon="-2.71865">
        <ele>3.5</ele>
        <time>2026-08-22T14:16:50Z</time>
      </trkpt>
      <trkpt lat="47.60153" lon="-2.7187">
        <ele>3.3</ele>
        <time>2026-08-22T14:16:51Z</time>
      </trkpt>
      <trkpt lat="47.60149" lon="-2.71876">
        <ele>3.2</ele>
        <time>2026-08-22T14:16:52Z</time>
      </trkpt>
      <trkpt lat="47.60146" lon="-2.71882">
        <ele>3.1</ele>
        <time>2026-08-22T14:16:53Z</time>
      </trkpt>
      <trkpt lat="47.60143" lon="-2.71888">
        <ele>3</ele>
        <time>2026-08-22T14:16:54Z</time>
      </trkpt>
      <trkpt lat="47.6014" lon="-2.71894">
        <ele>3</ele>
        <time>2026-08-22T14:16:55Z</time>
      </trkpt>
      <trkpt lat="47.60136" lon="-2.719">
        <ele>3</ele>
        <time>2026-08-22T14:16:56Z</time>
      </trkpt>
      <trkpt lat="47.60133" lon="-2.71906">
        <ele>3</ele>
        <time>2026-08-22T14:16:57Z</time>
      </trkpt>
      <trkpt lat="47.6013" lon="-2.7191">
        <ele>3</ele>
        <time>2026-08-22T14:16:58Z</time>
      </trkpt>
      <trkpt lat="47.60127" lon="-2.71913">
        <ele>3</ele>
        <time>2026-08-22T14:16:59Z</time>
      </trkpt>
      <trkpt lat="47.60124" lon="-2.71914">
        <ele>3</ele>
        <time>2026-08-22T14:17:00Z</time>
      </trkpt>
      <trkpt lat="47.60122" lon="-2.71914">
        <ele>3</ele>
        <time>2026-08-22T14:17:01Z</time>
      </trkpt>
      <trkpt lat="47.60122" lon="-2.71914">
        <ele>3</ele>
        <time>2026-08-22T14:17:02Z</time>
      </trkpt>
      <trkpt lat="47.60122" lon="-2.71914">
        <ele>3</ele>
        <time>2026-08-22T14:17:03Z</time>
      </trkpt>
      <trkpt lat="47.60117" lon="-2.71914">
        <ele>3</ele>
        <time>2026-08-22T14:17:16Z</time>
      </trkpt>
      <trkpt lat="47.60115" lon="-2.71914">
        <ele>3</ele>
        <time>2026-08-22T14:17:17Z</time>
      </trkpt>
      <trkpt lat="47.60112" lon="-2.71915">
        <ele>3</ele>
        <time>2026-08-22T14:17:18Z</time>
      </trkpt>
      <trkpt lat="47.60109" lon="-2.71915">
        <ele>2.9</ele>
        <time>2026-08-22T14:17:19Z</time>
      </trkpt>
      <trkpt lat="47.60106" lon="-2.71915">
        <ele>2.8</ele>
        <time>2026-08-22T14:17:20Z</time>
      </trkpt>
      <trkpt lat="47.60102" lon="-2.71914">
        <ele>2.7</ele>
        <time>2026-08-22T14:17:21Z</time>
      </trkpt>
      <trkpt lat="47.60098" lon="-2.71912">
        <ele>2.6</ele>
        <time>2026-08-22T14:17:22Z</time>
      </trkpt>
      <trkpt lat="47.60095" lon="-2.71911">
        <ele>2.5</ele>
        <time>2026-08-22T14:17:23Z</time>
      </trkpt>
      <trkpt lat="47.60091" lon="-2.71909">
        <ele>2.5</ele>
        <time>2026-08-22T14:17:24Z</time>
      </trkpt>
      <trkpt lat="47.60087" lon="-2.71907">
        <ele>2.4</ele>
        <time>2026-08-22T14:17:25Z</time>
      </trkpt>
      <trkpt lat="47.60083" lon="-2.71906">
        <ele>2.4</ele>
        <time>2026-08-22T14:17:26Z</time>
      </trkpt>
      <trkpt lat="47.60078" lon="-2.71904">
        <ele>2.4</ele>
        <time>2026-08-22T14:17:27Z</time>
      </trkpt>
      <trkpt lat="47.60074" lon="-2.71902">
        <ele>2.4</ele>
        <time>2026-08-22T14:17:28Z</time>
      </trkpt>
      <trkpt lat="47.6007" lon="-2.719">
        <ele>2.4</ele>
        <time>2026-08-22T14:17:29Z</time>
      </trkpt>
      <trkpt lat="47.60066" lon="-2.71899">
        <ele>2.4</ele>
        <time>2026-08-22T14:17:30Z</time>
      </trkpt>
      <trkpt lat="47.60061" lon="-2.71897">
        <ele>2.5</ele>
        <time>2026-08-22T14:17:31Z</time>
      </trkpt>
      <trkpt lat="47.60057" lon="-2.71895">
        <ele>2.6</ele>
        <time>2026-08-22T14:17:32Z</time>
      </trkpt>
      <trkpt lat="47.60053" lon="-2.71893">
        <ele>2.6</ele>
        <time>2026-08-22T14:17:33Z</time>
      </trkpt>
      <trkpt lat="47.60048" lon="-2.71891">
        <ele>2.6</ele>
        <time>2026-08-22T14:17:34Z</time>
      </trkpt>
      <trkpt lat="47.60044" lon="-2.71889">
        <ele>2.6</ele>
        <time>2026-08-22T14:17:35Z</time>
      </trkpt>
      <trkpt lat="47.60039" lon="-2.71888">
        <ele>2.5</ele>
        <time>2026-08-22T14:17:36Z</time>
      </trkpt>
      <trkpt lat="47.60035" lon="-2.71886">
        <ele>2.4</ele>
        <time>2026-08-22T14:17:37Z</time>
      </trkpt>
      <trkpt lat="47.6003" lon="-2.71884">
        <ele>2.4</ele>
        <time>2026-08-22T14:17:38Z</time>
      </trkpt>
      <trkpt lat="47.60026" lon="-2.71882">
        <ele>2.4</ele>
        <time>2026-08-22T14:17:39Z</time>
      </trkpt>
      <trkpt lat="47.60021" lon="-2.7188">
        <ele>2.4</ele>
        <time>2026-08-22T14:17:40Z</time>
      </trkpt>
      <trkpt lat="47.60017" lon="-2.71878">
        <ele>2.4</ele>
        <time>2026-08-22T14:17:41Z</time>
      </trkpt>
      <trkpt lat="47.60013" lon="-2.71876">
        <ele>2.4</ele>
        <time>2026-08-22T14:17:42Z</time>
      </trkpt>
      <trkpt lat="47.60008" lon="-2.71874">
        <ele>2.4</ele>
        <time>2026-08-22T14:17:43Z</time>
      </trkpt>
      <trkpt lat="47.60004" lon="-2.71872">
        <ele>2.4</ele>
        <time>2026-08-22T14:17:44Z</time>
      </trkpt>
      <trkpt lat="47.6" lon="-2.7187">
        <ele>2.4</ele>
        <time>2026-08-22T14:17:45Z</time>
      </trkpt>
      <trkpt lat="47.59996" lon="-2.71867">
        <ele>2.5</ele>
        <time>2026-08-22T14:17:46Z</time>
      </trkpt>
      <trkpt lat="47.59992" lon="-2.71864">
        <ele>2.5</ele>
        <time>2026-08-22T14:17:47Z</time>
      </trkpt>
      <trkpt lat="47.59988" lon="-2.71861">
        <ele>2.6</ele>
        <time>2026-08-22T14:17:48Z</time>
      </trkpt>
      <trkpt lat="47.59985" lon="-2.71858">
        <ele>2.6</ele>
        <time>2026-08-22T14:17:49Z</time>
      </trkpt>
      <trkpt lat="47.59981" lon="-2.71854">
        <ele>2.6</ele>
        <time>2026-08-22T14:17:50Z</time>
      </trkpt>
      <trkpt lat="47.59978" lon="-2.7185">
        <ele>2.6</ele>
        <time>2026-08-22T14:17:51Z</time>
      </trkpt>
      <trkpt lat="47.59974" lon="-2.71845">
        <ele>2.6</ele>
        <time>2026-08-22T14:17:52Z</time>
      </trkpt>
      <trkpt lat="47.59971" lon="-2.7184">
        <ele>2.7</ele>
        <time>2026-08-22T14:17:53Z</time>
      </trkpt>
      <trkpt lat="47.59968" lon="-2.71836">
        <ele>2.6</ele>
        <time>2026-08-22T14:17:54Z</time>
      </trkpt>
      <trkpt lat="47.59965" lon="-2.71831">
        <ele>2.6</ele>
        <time>2026-08-22T14:17:55Z</time>
      </trkpt>
      <trkpt lat="47.59962" lon="-2.71827">
        <ele>2.7</ele>
        <time>2026-08-22T14:17:56Z</time>
      </trkpt>
      <trkpt lat="47.59958" lon="-2.71823">
        <ele>2.7</ele>
        <time>2026-08-22T14:17:57Z</time>
      </trkpt>
      <trkpt lat="47.59955" lon="-2.71818">
        <ele>2.9</ele>
        <time>2026-08-22T14:17:58Z</time>
      </trkpt>
      <trkpt lat="47.59952" lon="-2.71814">
        <ele>2.9</ele>
        <time>2026-08-22T14:17:59Z</time>
      </trkpt>
      <trkpt lat="47.59948" lon="-2.7181">
        <ele>2.9</ele>
        <time>2026-08-22T14:18:00Z</time>
      </trkpt>
      <trkpt lat="47.59945" lon="-2.71806">
        <ele>3</ele>
        <time>2026-08-22T14:18:01Z</time>
      </trkpt>
      <trkpt lat="47.59941" lon="-2.71802">
        <ele>3</ele>
        <time>2026-08-22T14:18:02Z</time>
      </trkpt>
      <trkpt lat="47.59937" lon="-2.71798">
        <ele>3</ele>
        <time>2026-08-22T14:18:03Z</time>
      </trkpt>
      <trkpt lat="47.59933" lon="-2.71795">
        <ele>2.9</ele>
        <time>2026-08-22T14:18:04Z</time>
      </trkpt>
      <trkpt lat="47.5993" lon="-2.71792">
        <ele>2.9</ele>
        <time>2026-08-22T14:18:05Z</time>
      </trkpt>
      <trkpt lat="47.59926" lon="-2.71789">
        <ele>2.9</ele>
        <time>2026-08-22T14:18:06Z</time>
      </trkpt>
      <trkpt lat="47.59922" lon="-2.71786">
        <ele>2.8</ele>
        <time>2026-08-22T14:18:07Z</time>
      </trkpt>
      <trkpt lat="47.59918" lon="-2.71783">
        <ele>2.7</ele>
        <time>2026-08-22T14:18:08Z</time>
      </trkpt>
      <trkpt lat="47.59914" lon="-2.7178">
        <ele>2.7</ele>
        <time>2026-08-22T14:18:09Z</time>
      </trkpt>
      <trkpt lat="47.5991" lon="-2.71778">
        <ele>2.5</ele>
        <time>2026-08-22T14:18:10Z</time>
      </trkpt>
      <trkpt lat="47.59906" lon="-2.71775">
        <ele>2.5</ele>
        <time>2026-08-22T14:18:11Z</time>
      </trkpt>
      <trkpt lat="47.59902" lon="-2.71772">
        <ele>2.5</ele>
        <time>2026-08-22T14:18:12Z</time>
      </trkpt>
      <trkpt lat="47.59898" lon="-2.7177">
        <ele>2.4</ele>
        <time>2026-08-22T14:18:13Z</time>
      </trkpt>
      <trkpt lat="47.59894" lon="-2.71767">
        <ele>2.5</ele>
        <time>2026-08-22T14:18:14Z</time>
      </trkpt>
      <trkpt lat="47.59891" lon="-2.71764">
        <ele>2.6</ele>
        <time>2026-08-22T14:18:15Z</time>
      </trkpt>
      <trkpt lat="47.59886" lon="-2.71762">
        <ele>2.6</ele>
        <time>2026-08-22T14:18:16Z</time>
      </trkpt>
      <trkpt lat="47.59882" lon="-2.7176">
        <ele>2.6</ele>
        <time>2026-08-22T14:18:17Z</time>
      </trkpt>
      <trkpt lat="47.59878" lon="-2.71757">
        <ele>2.7</ele>
        <time>2026-08-22T14:18:18Z</time>
      </trkpt>
      <trkpt lat="47.59874" lon="-2.71755">
        <ele>2.6</ele>
        <time>2026-08-22T14:18:19Z</time>
      </trkpt>
      <trkpt lat="47.5987" lon="-2.71753">
        <ele>2.5</ele>
        <time>2026-08-22T14:18:20Z</time>
      </trkpt>
      <trkpt lat="47.59866" lon="-2.71751">
        <ele>2.3</ele>
        <time>2026-08-22T14:18:21Z</time>
      </trkpt>
      <trkpt lat="47.59862" lon="-2.71748">
        <ele>2.1</ele>
        <time>2026-08-22T14:18:22Z</time>
      </trkpt>
      <trkpt lat="47.59858" lon="-2.71746">
        <ele>2.1</ele>
        <time>2026-08-22T14:18:23Z</time>
      </trkpt>
      <trkpt lat="47.59854" lon="-2.71744">
        <ele>2.2</ele>
        <time>2026-08-22T14:18:24Z</time>
      </trkpt>
      <trkpt lat="47.59849" lon="-2.71742">
        <ele>2.2</ele>
        <time>2026-08-22T14:18:25Z</time>
      </trkpt>
      <trkpt lat="47.59845" lon="-2.7174">
        <ele>2.2</ele>
        <time>2026-08-22T14:18:26Z</time>
      </trkpt>
      <trkpt lat="47.59841" lon="-2.71738">
        <ele>2.1</ele>
        <time>2026-08-22T14:18:27Z</time>
      </trkpt>
      <trkpt lat="47.59837" lon="-2.71737">
        <ele>2.1</ele>
        <time>2026-08-22T14:18:28Z</time>
      </trkpt>
      <trkpt lat="47.59833" lon="-2.71736">
        <ele>2</ele>
        <time>2026-08-22T14:18:29Z</time>
      </trkpt>
      <trkpt lat="47.59829" lon="-2.71736">
        <ele>2.1</ele>
        <time>2026-08-22T14:18:30Z</time>
      </trkpt>
      <trkpt lat="47.59825" lon="-2.71737">
        <ele>2.1</ele>
        <time>2026-08-22T14:18:31Z</time>
      </trkpt>
      <trkpt lat="47.59821" lon="-2.71737">
        <ele>2.2</ele>
        <time>2026-08-22T14:18:32Z</time>
      </trkpt>
      <trkpt lat="47.59816" lon="-2.71737">
        <ele>2.3</ele>
        <time>2026-08-22T14:18:33Z</time>
      </trkpt>
      <trkpt lat="47.59812" lon="-2.71738">
        <ele>2.3</ele>
        <time>2026-08-22T14:18:34Z</time>
      </trkpt>
      <trkpt lat="47.59808" lon="-2.71739">
        <ele>2.4</ele>
        <time>2026-08-22T14:18:35Z</time>
      </trkpt>
      <trkpt lat="47.59804" lon="-2.71741">
        <ele>2.5</ele>
        <time>2026-08-22T14:18:36Z</time>
      </trkpt>
      <trkpt lat="47.598" lon="-2.71742">
        <ele>2.8</ele>
        <time>2026-08-22T14:18:37Z</time>
      </trkpt>
      <trkpt lat="47.59796" lon="-2.71743">
        <ele>3.2</ele>
        <time>2026-08-22T14:18:38Z</time>
      </trkpt>
      <trkpt lat="47.59793" lon="-2.71744">
        <ele>3.5</ele>
        <time>2026-08-22T14:18:39Z</time>
      </trkpt>
      <trkpt lat="47.5979" lon="-2.71745">
        <ele>3.8</ele>
        <time>2026-08-22T14:18:40Z</time>
      </trkpt>
      <trkpt lat="47.59787" lon="-2.71746">
        <ele>4.1</ele>
        <time>2026-08-22T14:18:41Z</time>
      </trkpt>
      <trkpt lat="47.59784" lon="-2.71747">
        <ele>4.4</ele>
        <time>2026-08-22T14:18:42Z</time>
      </trkpt>
      <trkpt lat="47.5978" lon="-2.71748">
        <ele>4.8</ele>
        <time>2026-08-22T14:18:43Z</time>
      </trkpt>
      <trkpt lat="47.59777" lon="-2.71749">
        <ele>5.1</ele>
        <time>2026-08-22T14:18:44Z</time>
      </trkpt>
      <trkpt lat="47.59773" lon="-2.7175">
        <ele>5.3</ele>
        <time>2026-08-22T14:18:45Z</time>
      </trkpt>
      <trkpt lat="47.5977" lon="-2.71751">
        <ele>5.5</ele>
        <time>2026-08-22T14:18:46Z</time>
      </trkpt>
      <trkpt lat="47.59766" lon="-2.71751">
        <ele>5.8</ele>
        <time>2026-08-22T14:18:47Z</time>
      </trkpt>
      <trkpt lat="47.59762" lon="-2.71751">
        <ele>6.1</ele>
        <time>2026-08-22T14:18:48Z</time>
      </trkpt>
      <trkpt lat="47.59759" lon="-2.71751">
        <ele>6.4</ele>
        <time>2026-08-22T14:18:49Z</time>
      </trkpt>
      <trkpt lat="47.59755" lon="-2.71751">
        <ele>6.7</ele>
        <time>2026-08-22T14:18:50Z</time>
      </trkpt>
      <trkpt lat="47.59752" lon="-2.71751">
        <ele>6.9</ele>
        <time>2026-08-22T14:18:51Z</time>
      </trkpt>
      <trkpt lat="47.59748" lon="-2.71751">
        <ele>7.2</ele>
        <time>2026-08-22T14:18:52Z</time>
      </trkpt>
      <trkpt lat="47.59745" lon="-2.7175">
        <ele>7.4</ele>
        <time>2026-08-22T14:18:53Z</time>
      </trkpt>
      <trkpt lat="47.59741" lon="-2.7175">
        <ele>7.6</ele>
        <time>2026-08-22T14:18:54Z</time>
      </trkpt>
      <trkpt lat="47.59737" lon="-2.7175">
        <ele>7.9</ele>
        <time>2026-08-22T14:18:55Z</time>
      </trkpt>
      <trkpt lat="47.59734" lon="-2.71749">
        <ele>8.2</ele>
        <time>2026-08-22T14:18:56Z</time>
      </trkpt>
      <trkpt lat="47.59731" lon="-2.71749">
        <ele>8.4</ele>
        <time>2026-08-22T14:18:57Z</time>
      </trkpt>
      <trkpt lat="47.59727" lon="-2.71749">
        <ele>8.7</ele>
        <time>2026-08-22T14:18:58Z</time>
      </trkpt>
      <trkpt lat="47.59724" lon="-2.71748">
        <ele>8.9</ele>
        <time>2026-08-22T14:18:59Z</time>
      </trkpt>
      <trkpt lat="47.5972" lon="-2.71748">
        <ele>9.1</ele>
        <time>2026-08-22T14:19:00Z</time>
      </trkpt>
      <trkpt lat="47.59717" lon="-2.71748">
        <ele>9.2</ele>
        <time>2026-08-22T14:19:01Z</time>
      </trkpt>
      <trkpt lat="47.59713" lon="-2.71747">
        <ele>9.3</ele>
        <time>2026-08-22T14:19:02Z</time>
      </trkpt>
      <trkpt lat="47.5971" lon="-2.71747">
        <ele>9.4</ele>
        <time>2026-08-22T14:19:03Z</time>
      </trkpt>
      <trkpt lat="47.59706" lon="-2.71747">
        <ele>9.6</ele>
        <time>2026-08-22T14:19:04Z</time>
      </trkpt>
      <trkpt lat="47.59703" lon="-2.71747">
        <ele>9.7</ele>
        <time>2026-08-22T14:19:05Z</time>
      </trkpt>
      <trkpt lat="47.59699" lon="-2.71747">
        <ele>9.8</ele>
        <time>2026-08-22T14:19:06Z</time>
      </trkpt>
      <trkpt lat="47.59696" lon="-2.71747">
        <ele>9.9</ele>
        <time>2026-08-22T14:19:07Z</time>
      </trkpt>
      <trkpt lat="47.59692" lon="-2.71747">
        <ele>10.1</ele>
        <time>2026-08-22T14:19:08Z</time>
      </trkpt>
      <trkpt lat="47.59689" lon="-2.71748">
        <ele>10.2</ele>
        <time>2026-08-22T14:19:09Z</time>
      </trkpt>
      <trkpt lat="47.59686" lon="-2.71748">
        <ele>10.3</ele>
        <time>2026-08-22T14:19:10Z</time>
      </trkpt>
      <trkpt lat="47.59682" lon="-2.71749">
        <ele>10.5</ele>
        <time>2026-08-22T14:19:11Z</time>
      </trkpt>
      <trkpt lat="47.59679" lon="-2.71749">
        <ele>10.6</ele>
        <time>2026-08-22T14:19:12Z</time>
      </trkpt>
      <trkpt lat="47.59675" lon="-2.71749">
        <ele>10.7</ele>
        <time>2026-08-22T14:19:13Z</time>
      </trkpt>
      <trkpt lat="47.59672" lon="-2.7175">
        <ele>10.8</ele>
        <time>2026-08-22T14:19:14Z</time>
      </trkpt>
      <trkpt lat="47.59669" lon="-2.7175">
        <ele>10.9</ele>
        <time>2026-08-22T14:19:15Z</time>
      </trkpt>
      <trkpt lat="47.59666" lon="-2.71749">
        <ele>11.1</ele>
        <time>2026-08-22T14:19:16Z</time>
      </trkpt>
      <trkpt lat="47.59663" lon="-2.71748">
        <ele>11.2</ele>
        <time>2026-08-22T14:19:17Z</time>
      </trkpt>
      <trkpt lat="47.5966" lon="-2.71747">
        <ele>11.3</ele>
        <time>2026-08-22T14:19:18Z</time>
      </trkpt>
      <trkpt lat="47.59658" lon="-2.71746">
        <ele>11.4</ele>
        <time>2026-08-22T14:19:19Z</time>
      </trkpt>
      <trkpt lat="47.59655" lon="-2.71745">
        <ele>11.5</ele>
        <time>2026-08-22T14:19:20Z</time>
      </trkpt>
      <trkpt lat="47.59652" lon="-2.71743">
        <ele>11.6</ele>
        <time>2026-08-22T14:19:21Z</time>
      </trkpt>
      <trkpt lat="47.5965" lon="-2.71741">
        <ele>11.7</ele>
        <time>2026-08-22T14:19:22Z</time>
      </trkpt>
      <trkpt lat="47.59647" lon="-2.71739">
        <ele>11.8</ele>
        <time>2026-08-22T14:19:23Z</time>
      </trkpt>
      <trkpt lat="47.59645" lon="-2.71738">
        <ele>11.9</ele>
        <time>2026-08-22T14:19:24Z</time>
      </trkpt>
      <trkpt lat="47.59642" lon="-2.71736">
        <ele>11.9</ele>
        <time>2026-08-22T14:19:25Z</time>
      </trkpt>
      <trkpt lat="47.5964" lon="-2.71734">
        <ele>12</ele>
        <time>2026-08-22T14:19:26Z</time>
      </trkpt>
      <trkpt lat="47.59637" lon="-2.71732">
        <ele>12</ele>
        <time>2026-08-22T14:19:27Z</time>
      </trkpt>
      <trkpt lat="47.59635" lon="-2.71729">
        <ele>12</ele>
        <time>2026-08-22T14:19:28Z</time>
      </trkpt>
      <trkpt lat="47.59632" lon="-2.71726">
        <ele>12</ele>
        <time>2026-08-22T14:19:29Z</time>
      </trkpt>
      <trkpt lat="47.5963" lon="-2.71724">
        <ele>12</ele>
        <time>2026-08-22T14:19:30Z</time>
      </trkpt>
      <trkpt lat="47.59628" lon="-2.71721">
        <ele>12</ele>
        <time>2026-08-22T14:19:31Z</time>
      </trkpt>
      <trkpt lat="47.59625" lon="-2.71718">
        <ele>12.2</ele>
        <time>2026-08-22T14:19:32Z</time>
      </trkpt>
      <trkpt lat="47.59623" lon="-2.71716">
        <ele>12.2</ele>
        <time>2026-08-22T14:19:33Z</time>
      </trkpt>
      <trkpt lat="47.59621" lon="-2.71713">
        <ele>12.3</ele>
        <time>2026-08-22T14:19:34Z</time>
      </trkpt>
      <trkpt lat="47.59618" lon="-2.7171">
        <ele>12.4</ele>
        <time>2026-08-22T14:19:35Z</time>
      </trkpt>
      <trkpt lat="47.59616" lon="-2.71708">
        <ele>12.5</ele>
        <time>2026-08-22T14:19:36Z</time>
      </trkpt>
      <trkpt lat="47.59614" lon="-2.71705">
        <ele>12.6</ele>
        <time>2026-08-22T14:19:37Z</time>
      </trkpt>
      <trkpt lat="47.59612" lon="-2.71703">
        <ele>12.7</ele>
        <time>2026-08-22T14:19:38Z</time>
      </trkpt>
      <trkpt lat="47.59609" lon="-2.71701">
        <ele>12.8</ele>
        <time>2026-08-22T14:19:39Z</time>
      </trkpt>
      <trkpt lat="47.59607" lon="-2.71699">
        <ele>12.8</ele>
        <time>2026-08-22T14:19:40Z</time>
      </trkpt>
      <trkpt lat="47.59605" lon="-2.71697">
        <ele>12.9</ele>
        <time>2026-08-22T14:19:41Z</time>
      </trkpt>
      <trkpt lat="47.59603" lon="-2.71695">
        <ele>13</ele>
        <time>2026-08-22T14:19:42Z</time>
      </trkpt>
      <trkpt lat="47.59601" lon="-2.71693">
        <ele>13</ele>
        <time>2026-08-22T14:19:43Z</time>
      </trkpt>
      <trkpt lat="47.59599" lon="-2.71691">
        <ele>13.1</ele>
        <time>2026-08-22T14:19:44Z</time>
      </trkpt>
      <trkpt lat="47.59597" lon="-2.7169">
        <ele>13.1</ele>
        <time>2026-08-22T14:19:45Z</time>
      </trkpt>
      <trkpt lat="47.59595" lon="-2.7169">
        <ele>13.1</ele>
        <time>2026-08-22T14:19:46Z</time>
      </trkpt>
      <trkpt lat="47.59593" lon="-2.7169">
        <ele>13.1</ele>
        <time>2026-08-22T14:19:47Z</time>
      </trkpt>
      <trkpt lat="47.59591" lon="-2.7169">
        <ele>13.1</ele>
        <time>2026-08-22T14:19:48Z</time>
      </trkpt>
      <trkpt lat="47.59589" lon="-2.7169">
        <ele>13.1</ele>
        <time>2026-08-22T14:19:49Z</time>
      </trkpt>
      <trkpt lat="47.59587" lon="-2.71688">
        <ele>13.2</ele>
        <time>2026-08-22T14:19:50Z</time>
      </trkpt>
      <trkpt lat="47.59585" lon="-2.71686">
        <ele>13.3</ele>
        <time>2026-08-22T14:19:51Z</time>
      </trkpt>
      <trkpt lat="47.59584" lon="-2.71683">
        <ele>13.4</ele>
        <time>2026-08-22T14:19:52Z</time>
      </trkpt>
      <trkpt lat="47.59582" lon="-2.7168">
        <ele>13.5</ele>
        <time>2026-08-22T14:19:53Z</time>
      </trkpt>
      <trkpt lat="47.5958" lon="-2.71677">
        <ele>13.5</ele>
        <time>2026-08-22T14:19:54Z</time>
      </trkpt>
      <trkpt lat="47.59578" lon="-2.71674">
        <ele>13.5</ele>
        <time>2026-08-22T14:19:55Z</time>
      </trkpt>
      <trkpt lat="47.59576" lon="-2.71671">
        <ele>13.6</ele>
        <time>2026-08-22T14:19:56Z</time>
      </trkpt>
      <trkpt lat="47.59574" lon="-2.71669">
        <ele>13.6</ele>
        <time>2026-08-22T14:19:57Z</time>
      </trkpt>
      <trkpt lat="47.59571" lon="-2.71666">
        <ele>13.5</ele>
        <time>2026-08-22T14:19:58Z</time>
      </trkpt>
      <trkpt lat="47.59569" lon="-2.71664">
        <ele>13.4</ele>
        <time>2026-08-22T14:19:59Z</time>
      </trkpt>
      <trkpt lat="47.59566" lon="-2.71661">
        <ele>13.3</ele>
        <time>2026-08-22T14:20:00Z</time>
      </trkpt>
      <trkpt lat="47.59563" lon="-2.71658">
        <ele>13.2</ele>
        <time>2026-08-22T14:20:01Z</time>
      </trkpt>
      <trkpt lat="47.5956" lon="-2.71655">
        <ele>13.1</ele>
        <time>2026-08-22T14:20:02Z</time>
      </trkpt>
      <trkpt lat="47.59557" lon="-2.71652">
        <ele>13</ele>
        <time>2026-08-22T14:20:03Z</time>
      </trkpt>
      <trkpt lat="47.59554" lon="-2.7165">
        <ele>12.9</ele>
        <time>2026-08-22T14:20:04Z</time>
      </trkpt>
      <trkpt lat="47.5955" lon="-2.71647">
        <ele>12.8</ele>
        <time>2026-08-22T14:20:05Z</time>
      </trkpt>
      <trkpt lat="47.59546" lon="-2.71644">
        <ele>12.7</ele>
        <time>2026-08-22T14:20:06Z</time>
      </trkpt>
      <trkpt lat="47.59543" lon="-2.71641">
        <ele>12.5</ele>
        <time>2026-08-22T14:20:07Z</time>
      </trkpt>
      <trkpt lat="47.59539" lon="-2.71637">
        <ele>12.4</ele>
        <time>2026-08-22T14:20:08Z</time>
      </trkpt>
      <trkpt lat="47.59536" lon="-2.71633">
        <ele>12.2</ele>
        <time>2026-08-22T14:20:09Z</time>
      </trkpt>
      <trkpt lat="47.59532" lon="-2.71629">
        <ele>12.1</ele>
        <time>2026-08-22T14:20:10Z</time>
      </trkpt>
      <trkpt lat="47.59528" lon="-2.71626">
        <ele>12</ele>
        <time>2026-08-22T14:20:11Z</time>
      </trkpt>
      <trkpt lat="47.59524" lon="-2.71622">
        <ele>11.9</ele>
        <time>2026-08-22T14:20:12Z</time>
      </trkpt>
      <trkpt lat="47.5952" lon="-2.71618">
        <ele>11.7</ele>
        <time>2026-08-22T14:20:13Z</time>
      </trkpt>
      <trkpt lat="47.59516" lon="-2.71614">
        <ele>11.6</ele>
        <time>2026-08-22T14:20:14Z</time>
      </trkpt>
      <trkpt lat="47.59512" lon="-2.71612">
        <ele>11.4</ele>
        <time>2026-08-22T14:20:15Z</time>
      </trkpt>
      <trkpt lat="47.59507" lon="-2.71611">
        <ele>11.3</ele>
        <time>2026-08-22T14:20:16Z</time>
      </trkpt>
      <trkpt lat="47.59503" lon="-2.71611">
        <ele>11.1</ele>
        <time>2026-08-22T14:20:17Z</time>
      </trkpt>
      <trkpt lat="47.59498" lon="-2.71611">
        <ele>11</ele>
        <time>2026-08-22T14:20:18Z</time>
      </trkpt>
      <trkpt lat="47.59493" lon="-2.7161">
        <ele>11</ele>
        <time>2026-08-22T14:20:19Z</time>
      </trkpt>
      <trkpt lat="47.59489" lon="-2.7161">
        <ele>11</ele>
        <time>2026-08-22T14:20:20Z</time>
      </trkpt>
      <trkpt lat="47.59485" lon="-2.71609">
        <ele>11</ele>
        <time>2026-08-22T14:20:21Z</time>
      </trkpt>
      <trkpt lat="47.59481" lon="-2.71608">
        <ele>11</ele>
        <time>2026-08-22T14:20:22Z</time>
      </trkpt>
      <trkpt lat="47.59476" lon="-2.71607">
        <ele>11</ele>
        <time>2026-08-22T14:20:23Z</time>
      </trkpt>
      <trkpt lat="47.59472" lon="-2.71606">
        <ele>11</ele>
        <time>2026-08-22T14:20:24Z</time>
      </trkpt>
      <trkpt lat="47.59467" lon="-2.71605">
        <ele>10.8</ele>
        <time>2026-08-22T14:20:25Z</time>
      </trkpt>
      <trkpt lat="47.59463" lon="-2.71604">
        <ele>10.7</ele>
        <time>2026-08-22T14:20:26Z</time>
      </trkpt>
      <trkpt lat="47.59458" lon="-2.71603">
        <ele>10.5</ele>
        <time>2026-08-22T14:20:27Z</time>
      </trkpt>
      <trkpt lat="47.59454" lon="-2.71601">
        <ele>10.3</ele>
        <time>2026-08-22T14:20:28Z</time>
      </trkpt>
      <trkpt lat="47.5945" lon="-2.71599">
        <ele>10.2</ele>
        <time>2026-08-22T14:20:29Z</time>
      </trkpt>
      <trkpt lat="47.59445" lon="-2.71597">
        <ele>10</ele>
        <time>2026-08-22T14:20:30Z</time>
      </trkpt>
      <trkpt lat="47.59441" lon="-2.71596">
        <ele>9.9</ele>
        <time>2026-08-22T14:20:31Z</time>
      </trkpt>
      <trkpt lat="47.59436" lon="-2.71596">
        <ele>9.7</ele>
        <time>2026-08-22T14:20:32Z</time>
      </trkpt>
      <trkpt lat="47.59432" lon="-2.716">
        <ele>9.6</ele>
        <time>2026-08-22T14:20:33Z</time>
      </trkpt>
      <trkpt lat="47.5943" lon="-2.71605">
        <ele>9.5</ele>
        <time>2026-08-22T14:20:34Z</time>
      </trkpt>
      <trkpt lat="47.59428" lon="-2.7161">
        <ele>9.4</ele>
        <time>2026-08-22T14:20:35Z</time>
      </trkpt>
      <trkpt lat="47.59427" lon="-2.71616">
        <ele>9.5</ele>
        <time>2026-08-22T14:20:36Z</time>
      </trkpt>
      <trkpt lat="47.59426" lon="-2.71622">
        <ele>9.7</ele>
        <time>2026-08-22T14:20:37Z</time>
      </trkpt>
      <trkpt lat="47.59426" lon="-2.71629">
        <ele>10</ele>
        <time>2026-08-22T14:20:38Z</time>
      </trkpt>
      <trkpt lat="47.59426" lon="-2.71635">
        <ele>10.2</ele>
        <time>2026-08-22T14:20:39Z</time>
      </trkpt>
      <trkpt lat="47.59426" lon="-2.71642">
        <ele>10.3</ele>
        <time>2026-08-22T14:20:40Z</time>
      </trkpt>
      <trkpt lat="47.59425" lon="-2.71648">
        <ele>10.3</ele>
        <time>2026-08-22T14:20:41Z</time>
      </trkpt>
      <trkpt lat="47.59425" lon="-2.71655">
        <ele>10.3</ele>
        <time>2026-08-22T14:20:42Z</time>
      </trkpt>
      <trkpt lat="47.59425" lon="-2.71662">
        <ele>10.3</ele>
        <time>2026-08-22T14:20:43Z</time>
      </trkpt>
      <trkpt lat="47.59425" lon="-2.71669">
        <ele>10.2</ele>
        <time>2026-08-22T14:20:44Z</time>
      </trkpt>
      <trkpt lat="47.59425" lon="-2.71676">
        <ele>9.7</ele>
        <time>2026-08-22T14:20:45Z</time>
      </trkpt>
      <trkpt lat="47.59424" lon="-2.71684">
        <ele>9.2</ele>
        <time>2026-08-22T14:20:46Z</time>
      </trkpt>
      <trkpt lat="47.59423" lon="-2.71691">
        <ele>8.7</ele>
        <time>2026-08-22T14:20:47Z</time>
      </trkpt>
      <trkpt lat="47.59423" lon="-2.71699">
        <ele>8.1</ele>
        <time>2026-08-22T14:20:48Z</time>
      </trkpt>
      <trkpt lat="47.59423" lon="-2.71706">
        <ele>7.5</ele>
        <time>2026-08-22T14:20:49Z</time>
      </trkpt>
      <trkpt lat="47.59423" lon="-2.71711">
        <ele>7.1</ele>
        <time>2026-08-22T14:20:50Z</time>
      </trkpt>
      <trkpt lat="47.59423" lon="-2.71716">
        <ele>6.7</ele>
        <time>2026-08-22T14:20:51Z</time>
      </trkpt>
      <trkpt lat="47.59422" lon="-2.71719">
        <ele>6.4</ele>
        <time>2026-08-22T14:20:52Z</time>
      </trkpt>
      <trkpt lat="47.5942" lon="-2.71722">
        <ele>6.1</ele>
        <time>2026-08-22T14:20:53Z</time>
      </trkpt>
      <trkpt lat="47.59418" lon="-2.71725">
        <ele>5.9</ele>
        <time>2026-08-22T14:20:54Z</time>
      </trkpt>
      <trkpt lat="47.59414" lon="-2.71728">
        <ele>5.7</ele>
        <time>2026-08-22T14:20:55Z</time>
      </trkpt>
      <trkpt lat="47.59411" lon="-2.71729">
        <ele>5.6</ele>
        <time>2026-08-22T14:20:56Z</time>
      </trkpt>
      <trkpt lat="47.59406" lon="-2.7173">
        <ele>5.4</ele>
        <time>2026-08-22T14:20:57Z</time>
      </trkpt>
      <trkpt lat="47.59402" lon="-2.71731">
        <ele>5.3</ele>
        <time>2026-08-22T14:20:58Z</time>
      </trkpt>
      <trkpt lat="47.59397" lon="-2.71732">
        <ele>5.2</ele>
        <time>2026-08-22T14:20:59Z</time>
      </trkpt>
      <trkpt lat="47.59391" lon="-2.71734">
        <ele>5</ele>
        <time>2026-08-22T14:21:00Z</time>
      </trkpt>
      <trkpt lat="47.59386" lon="-2.71736">
        <ele>4.9</ele>
        <time>2026-08-22T14:21:01Z</time>
      </trkpt>
      <trkpt lat="47.5938" lon="-2.71738">
        <ele>4.7</ele>
        <time>2026-08-22T14:21:02Z</time>
      </trkpt>
      <trkpt lat="47.59374" lon="-2.71742">
        <ele>4.5</ele>
        <time>2026-08-22T14:21:03Z</time>
      </trkpt>
      <trkpt lat="47.59369" lon="-2.71745">
        <ele>4.3</ele>
        <time>2026-08-22T14:21:04Z</time>
      </trkpt>
      <trkpt lat="47.59363" lon="-2.71749">
        <ele>4.1</ele>
        <time>2026-08-22T14:21:05Z</time>
      </trkpt>
      <trkpt lat="47.59357" lon="-2.71754">
        <ele>3.7</ele>
        <time>2026-08-22T14:21:06Z</time>
      </trkpt>
      <trkpt lat="47.59351" lon="-2.71758">
        <ele>3.5</ele>
        <time>2026-08-22T14:21:07Z</time>
      </trkpt>
      <trkpt lat="47.59345" lon="-2.71763">
        <ele>3.2</ele>
        <time>2026-08-22T14:21:08Z</time>
      </trkpt>
      <trkpt lat="47.59339" lon="-2.71767">
        <ele>3.1</ele>
        <time>2026-08-22T14:21:09Z</time>
      </trkpt>
      <trkpt lat="47.59333" lon="-2.71772">
        <ele>3</ele>
        <time>2026-08-22T14:21:10Z</time>
      </trkpt>
      <trkpt lat="47.59327" lon="-2.71777">
        <ele>3</ele>
        <time>2026-08-22T14:21:11Z</time>
      </trkpt>
      <trkpt lat="47.59321" lon="-2.71782">
        <ele>2.9</ele>
        <time>2026-08-22T14:21:12Z</time>
      </trkpt>
      <trkpt lat="47.59315" lon="-2.71786">
        <ele>2.9</ele>
        <time>2026-08-22T14:21:13Z</time>
      </trkpt>
      <trkpt lat="47.59309" lon="-2.7179">
        <ele>2.9</ele>
        <time>2026-08-22T14:21:14Z</time>
      </trkpt>
      <trkpt lat="47.59303" lon="-2.71794">
        <ele>3</ele>
        <time>2026-08-22T14:21:15Z</time>
      </trkpt>
      <trkpt lat="47.59297" lon="-2.71797">
        <ele>2.9</ele>
        <time>2026-08-22T14:21:16Z</time>
      </trkpt>
      <trkpt lat="47.59291" lon="-2.718">
        <ele>2.9</ele>
        <time>2026-08-22T14:21:17Z</time>
      </trkpt>
      <trkpt lat="47.59285" lon="-2.71803">
        <ele>2.9</ele>
        <time>2026-08-22T14:21:18Z</time>
      </trkpt>
      <trkpt lat="47.59278" lon="-2.71805">
        <ele>3</ele>
        <time>2026-08-22T14:21:19Z</time>
      </trkpt>
      <trkpt lat="47.59272" lon="-2.71808">
        <ele>2.7</ele>
        <time>2026-08-22T14:21:20Z</time>
      </trkpt>
      <trkpt lat="47.59266" lon="-2.7181">
        <ele>2.5</ele>
        <time>2026-08-22T14:21:21Z</time>
      </trkpt>
      <trkpt lat="47.5926" lon="-2.71813">
        <ele>2.3</ele>
        <time>2026-08-22T14:21:22Z</time>
      </trkpt>
      <trkpt lat="47.59254" lon="-2.71815">
        <ele>2.1</ele>
        <time>2026-08-22T14:21:23Z</time>
      </trkpt>
      <trkpt lat="47.59248" lon="-2.71818">
        <ele>2</ele>
        <time>2026-08-22T14:21:24Z</time>
      </trkpt>
      <trkpt lat="47.59242" lon="-2.7182">
        <ele>2</ele>
        <time>2026-08-22T14:21:25Z</time>
      </trkpt>
      <trkpt lat="47.59236" lon="-2.71822">
        <ele>2.1</ele>
        <time>2026-08-22T14:21:26Z</time>
      </trkpt>
      <trkpt lat="47.5923" lon="-2.71825">
        <ele>2.3</ele>
        <time>2026-08-22T14:21:27Z</time>
      </trkpt>
      <trkpt lat="47.59224" lon="-2.71827">
        <ele>2.5</ele>
        <time>2026-08-22T14:21:28Z</time>
      </trkpt>
      <trkpt lat="47.59218" lon="-2.71829">
        <ele>2.6</ele>
        <time>2026-08-22T14:21:29Z</time>
      </trkpt>
      <trkpt lat="47.59212" lon="-2.71831">
        <ele>2.5</ele>
        <time>2026-08-22T14:21:30Z</time>
      </trkpt>
      <trkpt lat="47.59206" lon="-2.71833">
        <ele>2.4</ele>
        <time>2026-08-22T14:21:31Z</time>
      </trkpt>
      <trkpt lat="47.59201" lon="-2.71835">
        <ele>2.3</ele>
        <time>2026-08-22T14:21:32Z</time>
      </trkpt>
      <trkpt lat="47.59195" lon="-2.71837">
        <ele>2.1</ele>
        <time>2026-08-22T14:21:33Z</time>
      </trkpt>
      <trkpt lat="47.59189" lon="-2.7184">
        <ele>2.2</ele>
        <time>2026-08-22T14:21:34Z</time>
      </trkpt>
      <trkpt lat="47.59183" lon="-2.71842">
        <ele>2.3</ele>
        <time>2026-08-22T14:21:35Z</time>
      </trkpt>
      <trkpt lat="47.59178" lon="-2.71844">
        <ele>2.5</ele>
        <time>2026-08-22T14:21:36Z</time>
      </trkpt>
      <trkpt lat="47.59172" lon="-2.71846">
        <ele>2.8</ele>
        <time>2026-08-22T14:21:37Z</time>
      </trkpt>
      <trkpt lat="47.59167" lon="-2.71848">
        <ele>3.1</ele>
        <time>2026-08-22T14:21:38Z</time>
      </trkpt>
      <trkpt lat="47.59161" lon="-2.7185">
        <ele>3.4</ele>
        <time>2026-08-22T14:21:39Z</time>
      </trkpt>
      <trkpt lat="47.59156" lon="-2.71852">
        <ele>3.7</ele>
        <time>2026-08-22T14:21:40Z</time>
      </trkpt>
      <trkpt lat="47.59151" lon="-2.71853">
        <ele>3.8</ele>
        <time>2026-08-22T14:21:41Z</time>
      </trkpt>
      <trkpt lat="47.59145" lon="-2.71855">
        <ele>4.1</ele>
        <time>2026-08-22T14:21:42Z</time>
      </trkpt>
      <trkpt lat="47.59141" lon="-2.71858">
        <ele>4.6</ele>
        <time>2026-08-22T14:21:43Z</time>
      </trkpt>
      <trkpt lat="47.59136" lon="-2.7186">
        <ele>4.6</ele>
        <time>2026-08-22T14:21:44Z</time>
      </trkpt>
      <trkpt lat="47.59131" lon="-2.71862">
        <ele>4.5</ele>
        <time>2026-08-22T14:21:45Z</time>
      </trkpt>
      <trkpt lat="47.59126" lon="-2.71864">
        <ele>4.3</ele>
        <time>2026-08-22T14:21:46Z</time>
      </trkpt>
      <trkpt lat="47.59121" lon="-2.71866">
        <ele>4.1</ele>
        <time>2026-08-22T14:21:47Z</time>
      </trkpt>
      <trkpt lat="47.59117" lon="-2.71869">
        <ele>4</ele>
        <time>2026-08-22T14:21:48Z</time>
      </trkpt>
      <trkpt lat="47.59113" lon="-2.71874">
        <ele>4.1</ele>
        <time>2026-08-22T14:21:49Z</time>
      </trkpt>
      <trkpt lat="47.5911" lon="-2.71879">
        <ele>4.3</ele>
        <time>2026-08-22T14:21:50Z</time>
      </trkpt>
      <trkpt lat="47.59106" lon="-2.71886">
        <ele>4.8</ele>
        <time>2026-08-22T14:21:51Z</time>
      </trkpt>
      <trkpt lat="47.59104" lon="-2.71892">
        <ele>4.9</ele>
        <time>2026-08-22T14:21:52Z</time>
      </trkpt>
      <trkpt lat="47.59101" lon="-2.71899">
        <ele>4.5</ele>
        <time>2026-08-22T14:21:53Z</time>
      </trkpt>
      <trkpt lat="47.59099" lon="-2.71905">
        <ele>4</ele>
        <time>2026-08-22T14:21:54Z</time>
      </trkpt>
      <trkpt lat="47.59097" lon="-2.71913">
        <ele>3.2</ele>
        <time>2026-08-22T14:21:55Z</time>
      </trkpt>
      <trkpt lat="47.59096" lon="-2.71921">
        <ele>2.8</ele>
        <time>2026-08-22T14:21:56Z</time>
      </trkpt>
      <trkpt lat="47.59095" lon="-2.7193">
        <ele>2.7</ele>
        <time>2026-08-22T14:21:57Z</time>
      </trkpt>
      <trkpt lat="47.59093" lon="-2.71939">
        <ele>2.4</ele>
        <time>2026-08-22T14:21:58Z</time>
      </trkpt>
      <trkpt lat="47.59091" lon="-2.71948">
        <ele>2.2</ele>
        <time>2026-08-22T14:21:59Z</time>
      </trkpt>
      <trkpt lat="47.59089" lon="-2.71957">
        <ele>2.2</ele>
        <time>2026-08-22T14:22:00Z</time>
      </trkpt>
      <trkpt lat="47.59087" lon="-2.71966">
        <ele>2.2</ele>
        <time>2026-08-22T14:22:01Z</time>
      </trkpt>
      <trkpt lat="47.59084" lon="-2.71975">
        <ele>2.2</ele>
        <time>2026-08-22T14:22:02Z</time>
      </trkpt>
      <trkpt lat="47.59081" lon="-2.71984">
        <ele>2.3</ele>
        <time>2026-08-22T14:22:03Z</time>
      </trkpt>
      <trkpt lat="47.59078" lon="-2.71991">
        <ele>2.4</ele>
        <time>2026-08-22T14:22:04Z</time>
      </trkpt>
      <trkpt lat="47.59074" lon="-2.71998">
        <ele>2.3</ele>
        <time>2026-08-22T14:22:05Z</time>
      </trkpt>
      <trkpt lat="47.5907" lon="-2.72004">
        <ele>2.1</ele>
        <time>2026-08-22T14:22:06Z</time>
      </trkpt>
      <trkpt lat="47.59065" lon="-2.7201">
        <ele>1.9</ele>
        <time>2026-08-22T14:22:07Z</time>
      </trkpt>
      <trkpt lat="47.5906" lon="-2.72015">
        <ele>1.8</ele>
        <time>2026-08-22T14:22:08Z</time>
      </trkpt>
      <trkpt lat="47.59055" lon="-2.72019">
        <ele>1.7</ele>
        <time>2026-08-22T14:22:09Z</time>
      </trkpt>
      <trkpt lat="47.5905" lon="-2.72023">
        <ele>1.8</ele>
        <time>2026-08-22T14:22:10Z</time>
      </trkpt>
      <trkpt lat="47.59044" lon="-2.72025">
        <ele>1.9</ele>
        <time>2026-08-22T14:22:11Z</time>
      </trkpt>
      <trkpt lat="47.59039" lon="-2.72026">
        <ele>1.9</ele>
        <time>2026-08-22T14:22:12Z</time>
      </trkpt>
      <trkpt lat="47.59034" lon="-2.72026">
        <ele>1.9</ele>
        <time>2026-08-22T14:22:13Z</time>
      </trkpt>
      <trkpt lat="47.59029" lon="-2.72025">
        <ele>1.9</ele>
        <time>2026-08-22T14:22:14Z</time>
      </trkpt>
      <trkpt lat="47.59024" lon="-2.72025">
        <ele>2</ele>
        <time>2026-08-22T14:22:15Z</time>
      </trkpt>
      <trkpt lat="47.59019" lon="-2.72025">
        <ele>2.2</ele>
        <time>2026-08-22T14:22:16Z</time>
      </trkpt>
      <trkpt lat="47.59014" lon="-2.72026">
        <ele>2.4</ele>
        <time>2026-08-22T14:22:17Z</time>
      </trkpt>
      <trkpt lat="47.5901" lon="-2.72026">
        <ele>2.5</ele>
        <time>2026-08-22T14:22:18Z</time>
      </trkpt>
      <trkpt lat="47.59006" lon="-2.72026">
        <ele>2.7</ele>
        <time>2026-08-22T14:22:19Z</time>
      </trkpt>
      <trkpt lat="47.59001" lon="-2.72025">
        <ele>2.8</ele>
        <time>2026-08-22T14:22:20Z</time>
      </trkpt>
      <trkpt lat="47.58998" lon="-2.72025">
        <ele>2.7</ele>
        <time>2026-08-22T14:22:21Z</time>
      </trkpt>
      <trkpt lat="47.58995" lon="-2.72025">
        <ele>2.6</ele>
        <time>2026-08-22T14:22:22Z</time>
      </trkpt>
      <trkpt lat="47.58992" lon="-2.72025">
        <ele>2.5</ele>
        <time>2026-08-22T14:22:23Z</time>
      </trkpt>
      <trkpt lat="47.58989" lon="-2.72026">
        <ele>2.5</ele>
        <time>2026-08-22T14:22:24Z</time>
      </trkpt>
      <trkpt lat="47.58986" lon="-2.72026">
        <ele>2.4</ele>
        <time>2026-08-22T14:22:25Z</time>
      </trkpt>
      <trkpt lat="47.58984" lon="-2.72025">
        <ele>2.3</ele>
        <time>2026-08-22T14:22:26Z</time>
      </trkpt>
      <trkpt lat="47.58983" lon="-2.72025">
        <ele>2.2</ele>
        <time>2026-08-22T14:22:27Z</time>
      </trkpt>
      <trkpt lat="47.58983" lon="-2.72024">
        <ele>2.2</ele>
        <time>2026-08-22T14:22:28Z</time>
      </trkpt>
      <trkpt lat="47.58982" lon="-2.72023">
        <ele>2.1</ele>
        <time>2026-08-22T14:22:29Z</time>
      </trkpt>
      <trkpt lat="47.58982" lon="-2.72023">
        <ele>2.1</ele>
        <time>2026-08-22T14:22:30Z</time>
      </trkpt>
      <trkpt lat="47.58973" lon="-2.71954">
        <time>2026-08-22T14:30:35Z</time>
      </trkpt>
      <trkpt lat="47.58972" lon="-2.71952">
        <time>2026-08-22T14:30:36Z</time>
      </trkpt>
      <trkpt lat="47.5897" lon="-2.71951">
        <time>2026-08-22T14:30:37Z</time>
      </trkpt>
      <trkpt lat="47.58969" lon="-2.7195">
        <time>2026-08-22T14:30:38Z</time>
      </trkpt>
      <trkpt lat="47.58967" lon="-2.71949">
        <time>2026-08-22T14:30:39Z</time>
      </trkpt>
      <trkpt lat="47.58965" lon="-2.71948">
        <time>2026-08-22T14:30:40Z</time>
      </trkpt>
      <trkpt lat="47.58964" lon="-2.71946">
        <time>2026-08-22T14:30:41Z</time>
      </trkpt>
      <trkpt lat="47.58962" lon="-2.71945">
        <time>2026-08-22T14:30:42Z</time>
      </trkpt>
      <trkpt lat="47.5896" lon="-2.71943">
        <time>2026-08-22T14:30:43Z</time>
      </trkpt>
      <trkpt lat="47.58959" lon="-2.71942">
        <time>2026-08-22T14:30:44Z</time>
      </trkpt>
      <trkpt lat="47.58957" lon="-2.7194">
        <time>2026-08-22T14:30:45Z</time>
      </trkpt>
      <trkpt lat="47.58955" lon="-2.71938">
        <time>2026-08-22T14:30:46Z</time>
      </trkpt>
      <trkpt lat="47.58954" lon="-2.71936">
        <time>2026-08-22T14:30:47Z</time>
      </trkpt>
      <trkpt lat="47.58952" lon="-2.71934">
        <time>2026-08-22T14:30:48Z</time>
      </trkpt>
      <trkpt lat="47.5895" lon="-2.71932">
        <time>2026-08-22T14:30:49Z</time>
      </trkpt>
      <trkpt lat="47.58949" lon="-2.7193">
        <time>2026-08-22T14:30:50Z</time>
      </trkpt>
      <trkpt lat="47.58948" lon="-2.71928">
        <time>2026-08-22T14:30:51Z</time>
      </trkpt>
      <trkpt lat="47.58946" lon="-2.71926">
        <time>2026-08-22T14:30:52Z</time>
      </trkpt>
      <trkpt lat="47.58945" lon="-2.71924">
        <time>2026-08-22T14:30:53Z</time>
      </trkpt>
      <trkpt lat="47.58944" lon="-2.71922">
        <time>2026-08-22T14:30:54Z</time>
      </trkpt>
      <trkpt lat="47.58943" lon="-2.7192">
        <time>2026-08-22T14:30:55Z</time>
      </trkpt>
      <trkpt lat="47.58942" lon="-2.71918">
        <time>2026-08-22T14:30:56Z</time>
      </trkpt>
      <trkpt lat="47.58941" lon="-2.71915">
        <time>2026-08-22T14:30:57Z</time>
      </trkpt>
      <trkpt lat="47.58939" lon="-2.71913">
        <time>2026-08-22T14:30:58Z</time>
      </trkpt>
      <trkpt lat="47.58938" lon="-2.71911">
        <time>2026-08-22T14:30:59Z</time>
      </trkpt>
      <trkpt lat="47.58938" lon="-2.71908">
        <time>2026-08-22T14:31:00Z</time>
      </trkpt>
      <trkpt lat="47.58937" lon="-2.71906">
        <time>2026-08-22T14:31:01Z</time>
      </trkpt>
      <trkpt lat="47.58936" lon="-2.71903">
        <time>2026-08-22T14:31:02Z</time>
      </trkpt>
      <trkpt lat="47.58935" lon="-2.71901">
        <time>2026-08-22T14:31:03Z</time>
      </trkpt>
      <trkpt lat="47.58934" lon="-2.71898">
        <time>2026-08-22T14:31:04Z</time>
      </trkpt>
      <trkpt lat="47.58933" lon="-2.71896">
        <time>2026-08-22T14:31:05Z</time>
      </trkpt>
      <trkpt lat="47.58932" lon="-2.71893">
        <time>2026-08-22T14:31:06Z</time>
      </trkpt>
      <trkpt lat="47.58931" lon="-2.71891">
        <time>2026-08-22T14:31:07Z</time>
      </trkpt>
      <trkpt lat="47.5893" lon="-2.71888">
        <time>2026-08-22T14:31:08Z</time>
      </trkpt>
      <trkpt lat="47.58929" lon="-2.71886">
        <time>2026-08-22T14:31:09Z</time>
      </trkpt>
      <trkpt lat="47.58929" lon="-2.71883">
        <time>2026-08-22T14:31:10Z</time>
      </trkpt>
      <trkpt lat="47.58928" lon="-2.7188">
        <time>2026-08-22T14:31:11Z</time>
      </trkpt>
      <trkpt lat="47.58927" lon="-2.71878">
        <time>2026-08-22T14:31:12Z</time>
      </trkpt>
      <trkpt lat="47.58926" lon="-2.71875">
        <time>2026-08-22T14:31:13Z</time>
      </trkpt>
      <trkpt lat="47.58926" lon="-2.71873">
        <time>2026-08-22T14:31:14Z</time>
      </trkpt>
      <trkpt lat="47.58925" lon="-2.7187">
        <time>2026-08-22T14:31:15Z</time>
      </trkpt>
      <trkpt lat="47.58924" lon="-2.71867">
        <time>2026-08-22T14:31:16Z</time>
      </trkpt>
      <trkpt lat="47.58923" lon="-2.71865">
        <time>2026-08-22T14:31:17Z</time>
      </trkpt>
      <trkpt lat="47.58923" lon="-2.71862">
        <time>2026-08-22T14:31:18Z</time>
      </trkpt>
      <trkpt lat="47.58922" lon="-2.7186">
        <time>2026-08-22T14:31:19Z</time>
      </trkpt>
      <trkpt lat="47.58921" lon="-2.71857">
        <time>2026-08-22T14:31:20Z</time>
      </trkpt>
      <trkpt lat="47.58921" lon="-2.71855">
        <time>2026-08-22T14:31:21Z</time>
      </trkpt>
      <trkpt lat="47.5892" lon="-2.71852">
        <time>2026-08-22T14:31:22Z</time>
      </trkpt>
      <trkpt lat="47.58919" lon="-2.71849">
        <time>2026-08-22T14:31:23Z</time>
      </trkpt>
      <trkpt lat="47.58918" lon="-2.71847">
        <time>2026-08-22T14:31:24Z</time>
      </trkpt>
      <trkpt lat="47.58917" lon="-2.71844">
        <time>2026-08-22T14:31:25Z</time>
      </trkpt>
      <trkpt lat="47.58916" lon="-2.71842">
        <time>2026-08-22T14:31:26Z</time>
      </trkpt>
      <trkpt lat="47.58916" lon="-2.71839">
        <time>2026-08-22T14:31:27Z</time>
      </trkpt>
      <trkpt lat="47.58915" lon="-2.71837">
        <time>2026-08-22T14:31:28Z</time>
      </trkpt>
      <trkpt lat="47.58914" lon="-2.71834">
        <time>2026-08-22T14:31:29Z</time>
      </trkpt>
      <trkpt lat="47.58913" lon="-2.71832">
        <time>2026-08-22T14:31:30Z</time>
      </trkpt>
      <trkpt lat="47.58912" lon="-2.71829">
        <time>2026-08-22T14:31:31Z</time>
      </trkpt>
      <trkpt lat="47.58911" lon="-2.71826">
        <time>2026-08-22T14:31:32Z</time>
      </trkpt>
      <trkpt lat="47.58911" lon="-2.71824">
        <time>2026-08-22T14:31:33Z</time>
      </trkpt>
      <trkpt lat="47.5891" lon="-2.71821">
        <time>2026-08-22T14:31:34Z</time>
      </trkpt>
      <trkpt lat="47.58909" lon="-2.71818">
        <time>2026-08-22T14:31:35Z</time>
      </trkpt>
      <trkpt lat="47.58908" lon="-2.71816">
        <time>2026-08-22T14:31:36Z</time>
      </trkpt>
      <trkpt lat="47.58907" lon="-2.71813">
        <time>2026-08-22T14:31:37Z</time>
      </trkpt>
      <trkpt lat="47.58907" lon="-2.7181">
        <time>2026-08-22T14:31:38Z</time>
      </trkpt>
      <trkpt lat="47.58906" lon="-2.71808">
        <time>2026-08-22T14:31:39Z</time>
      </trkpt>
      <trkpt lat="47.58905" lon="-2.71805">
        <time>2026-08-22T14:31:40Z</time>
      </trkpt>
      <trkpt lat="47.58904" lon="-2.71803">
        <time>2026-08-22T14:31:41Z</time>
      </trkpt>
      <trkpt lat="47.58903" lon="-2.718">
        <time>2026-08-22T14:31:42Z</time>
      </trkpt>
      <trkpt lat="47.58902" lon="-2.71798">
        <time>2026-08-22T14:31:43Z</time>
      </trkpt>
      <trkpt lat="47.58901" lon="-2.71795">
        <time>2026-08-22T14:31:44Z</time>
      </trkpt>
      <trkpt lat="47.589" lon="-2.71793">
        <time>2026-08-22T14:31:45Z</time>
      </trkpt>
      <trkpt lat="47.58899" lon="-2.7179">
        <time>2026-08-22T14:31:46Z</time>
      </trkpt>
      <trkpt lat="47.58898" lon="-2.71788">
        <time>2026-08-22T14:31:47Z</time>
      </trkpt>
      <trkpt lat="47.58897" lon="-2.71785">
        <time>2026-08-22T14:31:48Z</time>
      </trkpt>
      <trkpt lat="47.58896" lon="-2.71783">
        <time>2026-08-22T14:31:49Z</time>
      </trkpt>
      <trkpt lat="47.58895" lon="-2.71781">
        <time>2026-08-22T14:31:50Z</time>
      </trkpt>
      <trkpt lat="47.58894" lon="-2.71779">
        <time>2026-08-22T14:31:51Z</time>
      </trkpt>
      <trkpt lat="47.58893" lon="-2.71777">
        <time>2026-08-22T14:31:52Z</time>
      </trkpt>
      <trkpt lat="47.58892" lon="-2.71775">
        <time>2026-08-22T14:31:53Z</time>
      </trkpt>
      <trkpt lat="47.58892" lon="-2.71773">
        <time>2026-08-22T14:31:54Z</time>
      </trkpt>
      <trkpt lat="47.58891" lon="-2.71771">
        <time>2026-08-22T14:31:55Z</time>
      </trkpt>
      <trkpt lat="47.5889" lon="-2.7177">
        <time>2026-08-22T14:31:56Z</time>
      </trkpt>
      <trkpt lat="47.58889" lon="-2.71769">
        <time>2026-08-22T14:31:57Z</time>
      </trkpt>
      <trkpt lat="47.58888" lon="-2.71767">
        <time>2026-08-22T14:31:58Z</time>
      </trkpt>
      <trkpt lat="47.58887" lon="-2.71766">
        <time>2026-08-22T14:31:59Z</time>
      </trkpt>
      <trkpt lat="47.58886" lon="-2.71765">
        <time>2026-08-22T14:32:00Z</time>
      </trkpt>
      <trkpt lat="47.58885" lon="-2.71765">
        <time>2026-08-22T14:32:01Z</time>
      </trkpt>
      <trkpt lat="47.58883" lon="-2.71764">
        <time>2026-08-22T14:32:02Z</time>
      </trkpt>
      <trkpt lat="47.58882" lon="-2.71764">
        <time>2026-08-22T14:32:03Z</time>
      </trkpt>
      <trkpt lat="47.58881" lon="-2.71763">
        <time>2026-08-22T14:32:04Z</time>
      </trkpt>
      <trkpt lat="47.5888" lon="-2.71763">
        <time>2026-08-22T14:32:05Z</time>
      </trkpt>
      <trkpt lat="47.58879" lon="-2.71763">
        <time>2026-08-22T14:32:06Z</time>
      </trkpt>
      <trkpt lat="47.58877" lon="-2.71763">
        <time>2026-08-22T14:32:07Z</time>
      </trkpt>
      <trkpt lat="47.58876" lon="-2.71763">
        <time>2026-08-22T14:32:08Z</time>
      </trkpt>
      <trkpt lat="47.58875" lon="-2.71763">
        <time>2026-08-22T14:32:09Z</time>
      </trkpt>
      <trkpt lat="47.58874" lon="-2.71763">
        <time>2026-08-22T14:32:10Z</time>
      </trkpt>
      <trkpt lat="47.58872" lon="-2.71764">
        <time>2026-08-22T14:32:11Z</time>
      </trkpt>
      <trkpt lat="47.58871" lon="-2.71764">
        <time>2026-08-22T14:32:12Z</time>
      </trkpt>
      <trkpt lat="47.5887" lon="-2.71764">
        <time>2026-08-22T14:32:13Z</time>
      </trkpt>
      <trkpt lat="47.58869" lon="-2.71764">
        <time>2026-08-22T14:32:14Z</time>
      </trkpt>
      <trkpt lat="47.58868" lon="-2.71764">
        <time>2026-08-22T14:32:15Z</time>
      </trkpt>
      <trkpt lat="47.58867" lon="-2.71764">
        <time>2026-08-22T14:32:16Z</time>
      </trkpt>
      <trkpt lat="47.58866" lon="-2.71764">
        <time>2026-08-22T14:32:17Z</time>
      </trkpt>
      <trkpt lat="47.58864" lon="-2.71765">
        <time>2026-08-22T14:32:18Z</time>
      </trkpt>
      <trkpt lat="47.58863" lon="-2.71765">
        <time>2026-08-22T14:32:19Z</time>
      </trkpt>
      <trkpt lat="47.58862" lon="-2.71765">
        <time>2026-08-22T14:32:20Z</time>
      </trkpt>
      <trkpt lat="47.58861" lon="-2.71765">
        <ele>2.5</ele>
        <time>2026-08-22T14:32:21Z</time>
      </trkpt>
      <trkpt lat="47.5886" lon="-2.71765">
        <ele>2.5</ele>
        <time>2026-08-22T14:32:22Z</time>
      </trkpt>
      <trkpt lat="47.5886" lon="-2.71766">
        <ele>2.6</ele>
        <time>2026-08-22T14:32:23Z</time>
      </trkpt>
      <trkpt lat="47.58859" lon="-2.71766">
        <ele>2.6</ele>
        <time>2026-08-22T14:32:24Z</time>
      </trkpt>
      <trkpt lat="47.58859" lon="-2.71766">
        <ele>2.6</ele>
        <time>2026-08-22T14:32:25Z</time>
      </trkpt>
      <trkpt lat="47.58859" lon="-2.71766">
        <ele>2.6</ele>
        <time>2026-08-22T14:32:26Z</time>
      </trkpt>
      <trkpt lat="47.58829" lon="-2.71766">
        <ele>3.1</ele>
        <time>2026-08-22T14:35:45Z</time>
      </trkpt>
      <trkpt lat="47.58828" lon="-2.71764">
        <ele>3.2</ele>
        <time>2026-08-22T14:35:46Z</time>
      </trkpt>
      <trkpt lat="47.58827" lon="-2.71762">
        <ele>3.2</ele>
        <time>2026-08-22T14:35:47Z</time>
      </trkpt>
      <trkpt lat="47.58826" lon="-2.71759">
        <ele>3.3</ele>
        <time>2026-08-22T14:35:48Z</time>
      </trkpt>
      <trkpt lat="47.58825" lon="-2.71755">
        <ele>3.3</ele>
        <time>2026-08-22T14:35:49Z</time>
      </trkpt>
      <trkpt lat="47.58823" lon="-2.71751">
        <ele>3.5</ele>
        <time>2026-08-22T14:35:50Z</time>
      </trkpt>
      <trkpt lat="47.58821" lon="-2.71748">
        <ele>3.9</ele>
        <time>2026-08-22T14:35:51Z</time>
      </trkpt>
      <trkpt lat="47.5882" lon="-2.71744">
        <ele>4.2</ele>
        <time>2026-08-22T14:35:52Z</time>
      </trkpt>
      <trkpt lat="47.58818" lon="-2.7174">
        <ele>4.5</ele>
        <time>2026-08-22T14:35:53Z</time>
      </trkpt>
      <trkpt lat="47.58816" lon="-2.71735">
        <ele>4.8</ele>
        <time>2026-08-22T14:35:54Z</time>
      </trkpt>
      <trkpt lat="47.58815" lon="-2.71731">
        <ele>4.9</ele>
        <time>2026-08-22T14:35:55Z</time>
      </trkpt>
      <trkpt lat="47.58813" lon="-2.71726">
        <ele>5</ele>
        <time>2026-08-22T14:35:56Z</time>
      </trkpt>
      <trkpt lat="47.58811" lon="-2.71722">
        <ele>5</ele>
        <time>2026-08-22T14:35:57Z</time>
      </trkpt>
      <trkpt lat="47.5881" lon="-2.71717">
        <ele>4.6</ele>
        <time>2026-08-22T14:35:58Z</time>
      </trkpt>
      <trkpt lat="47.58808" lon="-2.71712">
        <ele>4.3</ele>
        <time>2026-08-22T14:35:59Z</time>
      </trkpt>
      <trkpt lat="47.58807" lon="-2.71707">
        <ele>3.9</ele>
        <time>2026-08-22T14:36:00Z</time>
      </trkpt>
      <trkpt lat="47.58806" lon="-2.71702">
        <ele>3.5</ele>
        <time>2026-08-22T14:36:01Z</time>
      </trkpt>
      <trkpt lat="47.58804" lon="-2.71696">
        <ele>3.3</ele>
        <time>2026-08-22T14:36:02Z</time>
      </trkpt>
      <trkpt lat="47.58803" lon="-2.71691">
        <ele>3</ele>
        <time>2026-08-22T14:36:03Z</time>
      </trkpt>
      <trkpt lat="47.58802" lon="-2.71686">
        <ele>2.8</ele>
        <time>2026-08-22T14:36:04Z</time>
      </trkpt>
      <trkpt lat="47.58801" lon="-2.7168">
        <ele>2.5</ele>
        <time>2026-08-22T14:36:05Z</time>
      </trkpt>
      <trkpt lat="47.588" lon="-2.71675">
        <ele>2.3</ele>
        <time>2026-08-22T14:36:06Z</time>
      </trkpt>
      <trkpt lat="47.58799" lon="-2.7167">
        <ele>2.2</ele>
        <time>2026-08-22T14:36:07Z</time>
      </trkpt>
      <trkpt lat="47.58798" lon="-2.71664">
        <ele>2.1</ele>
        <time>2026-08-22T14:36:08Z</time>
      </trkpt>
      <trkpt lat="47.58797" lon="-2.71659">
        <ele>2.2</ele>
        <time>2026-08-22T14:36:09Z</time>
      </trkpt>
      <trkpt lat="47.58796" lon="-2.71653">
        <ele>2.4</ele>
        <time>2026-08-22T14:36:10Z</time>
      </trkpt>
      <trkpt lat="47.58796" lon="-2.71647">
        <ele>2.4</ele>
        <time>2026-08-22T14:36:11Z</time>
      </trkpt>
      <trkpt lat="47.58795" lon="-2.71642">
        <ele>2.5</ele>
        <time>2026-08-22T14:36:12Z</time>
      </trkpt>
      <trkpt lat="47.58794" lon="-2.71636">
        <ele>2.7</ele>
        <time>2026-08-22T14:36:13Z</time>
      </trkpt>
      <trkpt lat="47.58795" lon="-2.71631">
        <ele>2.7</ele>
        <time>2026-08-22T14:36:14Z</time>
      </trkpt>
      <trkpt lat="47.58795" lon="-2.71626">
        <ele>2.8</ele>
        <time>2026-08-22T14:36:15Z</time>
      </trkpt>
      <trkpt lat="47.58795" lon="-2.71621">
        <ele>2.9</ele>
        <time>2026-08-22T14:36:16Z</time>
      </trkpt>
      <trkpt lat="47.58796" lon="-2.71616">
        <ele>2.9</ele>
        <time>2026-08-22T14:36:17Z</time>
      </trkpt>
      <trkpt lat="47.58797" lon="-2.71611">
        <ele>2.9</ele>
        <time>2026-08-22T14:36:18Z</time>
      </trkpt>
      <trkpt lat="47.58798" lon="-2.71605">
        <ele>2.9</ele>
        <time>2026-08-22T14:36:19Z</time>
      </trkpt>
      <trkpt lat="47.58799" lon="-2.716">
        <ele>2.9</ele>
        <time>2026-08-22T14:36:20Z</time>
      </trkpt>
      <trkpt lat="47.58799" lon="-2.71595">
        <ele>3</ele>
        <time>2026-08-22T14:36:21Z</time>
      </trkpt>
      <trkpt lat="47.588" lon="-2.71591">
        <ele>3</ele>
        <time>2026-08-22T14:36:22Z</time>
      </trkpt>
      <trkpt lat="47.58801" lon="-2.71586">
        <ele>3.1</ele>
        <time>2026-08-22T14:36:23Z</time>
      </trkpt>
      <trkpt lat="47.58801" lon="-2.71581">
        <ele>3.2</ele>
        <time>2026-08-22T14:36:24Z</time>
      </trkpt>
      <trkpt lat="47.58802" lon="-2.71576">
        <ele>3.1</ele>
        <time>2026-08-22T14:36:25Z</time>
      </trkpt>
      <trkpt lat="47.58802" lon="-2.71571">
        <ele>3.1</ele>
        <time>2026-08-22T14:36:26Z</time>
      </trkpt>
      <trkpt lat="47.58803" lon="-2.71565">
        <ele>3.1</ele>
        <time>2026-08-22T14:36:27Z</time>
      </trkpt>
      <trkpt lat="47.58802" lon="-2.7156">
        <ele>3.1</ele>
        <time>2026-08-22T14:36:28Z</time>
      </trkpt>
      <trkpt lat="47.58801" lon="-2.71554">
        <ele>3.2</ele>
        <time>2026-08-22T14:36:29Z</time>
      </trkpt>
      <trkpt lat="47.588" lon="-2.71548">
        <ele>3.2</ele>
        <time>2026-08-22T14:36:30Z</time>
      </trkpt>
      <trkpt lat="47.58799" lon="-2.71542">
        <ele>3.2</ele>
        <time>2026-08-22T14:36:31Z</time>
      </trkpt>
      <trkpt lat="47.58797" lon="-2.71536">
        <ele>3.3</ele>
        <time>2026-08-22T14:36:32Z</time>
      </trkpt>
      <trkpt lat="47.58796" lon="-2.7153">
        <ele>3.3</ele>
        <time>2026-08-22T14:36:33Z</time>
      </trkpt>
      <trkpt lat="47.58795" lon="-2.71524">
        <ele>3.3</ele>
        <time>2026-08-22T14:36:34Z</time>
      </trkpt>
      <trkpt lat="47.58793" lon="-2.71519">
        <ele>3.3</ele>
        <time>2026-08-22T14:36:35Z</time>
      </trkpt>
      <trkpt lat="47.5879" lon="-2.71515">
        <ele>3.3</ele>
        <time>2026-08-22T14:36:36Z</time>
      </trkpt>
      <trkpt lat="47.58786" lon="-2.71513">
        <ele>3.3</ele>
        <time>2026-08-22T14:36:37Z</time>
      </trkpt>
      <trkpt lat="47.58782" lon="-2.71514">
        <ele>3.4</ele>
        <time>2026-08-22T14:36:38Z</time>
      </trkpt>
      <trkpt lat="47.58778" lon="-2.71515">
        <ele>3.5</ele>
        <time>2026-08-22T14:36:39Z</time>
      </trkpt>
      <trkpt lat="47.58774" lon="-2.71516">
        <ele>3.7</ele>
        <time>2026-08-22T14:36:40Z</time>
      </trkpt>
      <trkpt lat="47.5877" lon="-2.71518">
        <ele>3.8</ele>
        <time>2026-08-22T14:36:41Z</time>
      </trkpt>
      <trkpt lat="47.58766" lon="-2.71519">
        <ele>4</ele>
        <time>2026-08-22T14:36:42Z</time>
      </trkpt>
      <trkpt lat="47.58762" lon="-2.7152">
        <ele>4</ele>
        <time>2026-08-22T14:36:43Z</time>
      </trkpt>
      <trkpt lat="47.58757" lon="-2.7152">
        <ele>4.1</ele>
        <time>2026-08-22T14:36:44Z</time>
      </trkpt>
      <trkpt lat="47.58753" lon="-2.7152">
        <ele>4.2</ele>
        <time>2026-08-22T14:36:45Z</time>
      </trkpt>
      <trkpt lat="47.58749" lon="-2.7152">
        <ele>4.3</ele>
        <time>2026-08-22T14:36:46Z</time>
      </trkpt>
      <trkpt lat="47.58744" lon="-2.71519">
        <ele>4.5</ele>
        <time>2026-08-22T14:36:47Z</time>
      </trkpt>
      <trkpt lat="47.5874" lon="-2.71519">
        <ele>4.6</ele>
        <time>2026-08-22T14:36:48Z</time>
      </trkpt>
      <trkpt lat="47.58736" lon="-2.71518">
        <ele>4.7</ele>
        <time>2026-08-22T14:36:49Z</time>
      </trkpt>
      <trkpt lat="47.58732" lon="-2.71517">
        <ele>4.8</ele>
        <time>2026-08-22T14:36:50Z</time>
      </trkpt>
      <trkpt lat="47.58727" lon="-2.71517">
        <ele>4.9</ele>
        <time>2026-08-22T14:36:51Z</time>
      </trkpt>
      <trkpt lat="47.58723" lon="-2.71516">
        <ele>5</ele>
        <time>2026-08-22T14:36:52Z</time>
      </trkpt>
      <trkpt lat="47.58719" lon="-2.71515">
        <ele>5.1</ele>
        <time>2026-08-22T14:36:53Z</time>
      </trkpt>
      <trkpt lat="47.58715" lon="-2.71515">
        <ele>5.1</ele>
        <time>2026-08-22T14:36:54Z</time>
      </trkpt>
      <trkpt lat="47.5871" lon="-2.71514">
        <ele>5.2</ele>
        <time>2026-08-22T14:36:55Z</time>
      </trkpt>
      <trkpt lat="47.58706" lon="-2.71514">
        <ele>5.3</ele>
        <time>2026-08-22T14:36:56Z</time>
      </trkpt>
      <trkpt lat="47.58702" lon="-2.71514">
        <ele>5.4</ele>
        <time>2026-08-22T14:36:57Z</time>
      </trkpt>
      <trkpt lat="47.58697" lon="-2.71514">
        <ele>5.5</ele>
        <time>2026-08-22T14:36:58Z</time>
      </trkpt>
      <trkpt lat="47.58693" lon="-2.71513">
        <ele>5.6</ele>
        <time>2026-08-22T14:36:59Z</time>
      </trkpt>
      <trkpt lat="47.58689" lon="-2.71512">
        <ele>5.7</ele>
        <time>2026-08-22T14:37:00Z</time>
      </trkpt>
      <trkpt lat="47.58684" lon="-2.71511">
        <ele>5.8</ele>
        <time>2026-08-22T14:37:01Z</time>
      </trkpt>
      <trkpt lat="47.5868" lon="-2.71511">
        <ele>5.8</ele>
        <time>2026-08-22T14:37:02Z</time>
      </trkpt>
      <trkpt lat="47.58676" lon="-2.71511">
        <ele>5.9</ele>
        <time>2026-08-22T14:37:03Z</time>
      </trkpt>
      <trkpt lat="47.58672" lon="-2.71511">
        <ele>5.9</ele>
        <time>2026-08-22T14:37:04Z</time>
      </trkpt>
      <trkpt lat="47.58667" lon="-2.7151">
        <ele>6</ele>
        <time>2026-08-22T14:37:05Z</time>
      </trkpt>
      <trkpt lat="47.58663" lon="-2.7151">
        <ele>6</ele>
        <time>2026-08-22T14:37:06Z</time>
      </trkpt>
      <trkpt lat="47.58659" lon="-2.71509">
        <ele>5.9</ele>
        <time>2026-08-22T14:37:07Z</time>
      </trkpt>
      <trkpt lat="47.58654" lon="-2.71508">
        <ele>5.9</ele>
        <time>2026-08-22T14:37:08Z</time>
      </trkpt>
      <trkpt lat="47.5865" lon="-2.71507">
        <ele>5.8</ele>
        <time>2026-08-22T14:37:09Z</time>
      </trkpt>
      <trkpt lat="47.58646" lon="-2.71507">
        <ele>5.8</ele>
        <time>2026-08-22T14:37:10Z</time>
      </trkpt>
      <trkpt lat="47.58641" lon="-2.71507">
        <ele>5.8</ele>
        <time>2026-08-22T14:37:11Z</time>
      </trkpt>
      <trkpt lat="47.58636" lon="-2.71506">
        <ele>5.8</ele>
        <time>2026-08-22T14:37:12Z</time>
      </trkpt>
      <trkpt lat="47.58631" lon="-2.71506">
        <ele>5.7</ele>
        <time>2026-08-22T14:37:13Z</time>
      </trkpt>
      <trkpt lat="47.58626" lon="-2.71505">
        <ele>5.7</ele>
        <time>2026-08-22T14:37:14Z</time>
      </trkpt>
      <trkpt lat="47.58621" lon="-2.71505">
        <ele>5.7</ele>
        <time>2026-08-22T14:37:15Z</time>
      </trkpt>
      <trkpt lat="47.58616" lon="-2.71504">
        <ele>5.7</ele>
        <time>2026-08-22T14:37:16Z</time>
      </trkpt>
      <trkpt lat="47.58611" lon="-2.71503">
        <ele>5.8</ele>
        <time>2026-08-22T14:37:17Z</time>
      </trkpt>
      <trkpt lat="47.58606" lon="-2.71502">
        <ele>5.7</ele>
        <time>2026-08-22T14:37:18Z</time>
      </trkpt>
      <trkpt lat="47.586" lon="-2.71501">
        <ele>5.5</ele>
        <time>2026-08-22T14:37:19Z</time>
      </trkpt>
      <trkpt lat="47.58595" lon="-2.71501">
        <ele>5.4</ele>
        <time>2026-08-22T14:37:20Z</time>
      </trkpt>
      <trkpt lat="47.58589" lon="-2.715">
        <ele>5.2</ele>
        <time>2026-08-22T14:37:21Z</time>
      </trkpt>
      <trkpt lat="47.58584" lon="-2.71498">
        <ele>5</ele>
        <time>2026-08-22T14:37:22Z</time>
      </trkpt>
      <trkpt lat="47.58578" lon="-2.71497">
        <ele>4.8</ele>
        <time>2026-08-22T14:37:23Z</time>
      </trkpt>
      <trkpt lat="47.58573" lon="-2.71497">
        <ele>4.6</ele>
        <time>2026-08-22T14:37:24Z</time>
      </trkpt>
      <trkpt lat="47.58567" lon="-2.71496">
        <ele>4.4</ele>
        <time>2026-08-22T14:37:25Z</time>
      </trkpt>
      <trkpt lat="47.58562" lon="-2.71496">
        <ele>4.2</ele>
        <time>2026-08-22T14:37:26Z</time>
      </trkpt>
      <trkpt lat="47.58556" lon="-2.71495">
        <ele>4</ele>
        <time>2026-08-22T14:37:27Z</time>
      </trkpt>
      <trkpt lat="47.58551" lon="-2.71494">
        <ele>3.8</ele>
        <time>2026-08-22T14:37:28Z</time>
      </trkpt>
      <trkpt lat="47.58545" lon="-2.71493">
        <ele>3.6</ele>
        <time>2026-08-22T14:37:29Z</time>
      </trkpt>
      <trkpt lat="47.58539" lon="-2.71493">
        <ele>3.4</ele>
        <time>2026-08-22T14:37:30Z</time>
      </trkpt>
      <trkpt lat="47.58533" lon="-2.71492">
        <ele>3.2</ele>
        <time>2026-08-22T14:37:31Z</time>
      </trkpt>
      <trkpt lat="47.58527" lon="-2.71491">
        <ele>3</ele>
        <time>2026-08-22T14:37:32Z</time>
      </trkpt>
      <trkpt lat="47.58522" lon="-2.71491">
        <ele>3</ele>
        <time>2026-08-22T14:37:33Z</time>
      </trkpt>
      <trkpt lat="47.58516" lon="-2.7149">
        <ele>3</ele>
        <time>2026-08-22T14:37:34Z</time>
      </trkpt>
      <trkpt lat="47.5851" lon="-2.71489">
        <ele>3</ele>
        <time>2026-08-22T14:37:35Z</time>
      </trkpt>
      <trkpt lat="47.58504" lon="-2.71488">
        <ele>3</ele>
        <time>2026-08-22T14:37:36Z</time>
      </trkpt>
      <trkpt lat="47.58498" lon="-2.71488">
        <ele>3</ele>
        <time>2026-08-22T14:37:37Z</time>
      </trkpt>
      <trkpt lat="47.58492" lon="-2.71487">
        <ele>2.9</ele>
        <time>2026-08-22T14:37:38Z</time>
      </trkpt>
      <trkpt lat="47.58486" lon="-2.71486">
        <ele>2.7</ele>
        <time>2026-08-22T14:37:39Z</time>
      </trkpt>
      <trkpt lat="47.5848" lon="-2.71486">
        <ele>2.6</ele>
        <time>2026-08-22T14:37:40Z</time>
      </trkpt>
      <trkpt lat="47.58473" lon="-2.71485">
        <ele>2.5</ele>
        <time>2026-08-22T14:37:41Z</time>
      </trkpt>
      <trkpt lat="47.58467" lon="-2.71485">
        <ele>2.5</ele>
        <time>2026-08-22T14:37:42Z</time>
      </trkpt>
      <trkpt lat="47.58461" lon="-2.71484">
        <ele>2.4</ele>
        <time>2026-08-22T14:37:43Z</time>
      </trkpt>
      <trkpt lat="47.58456" lon="-2.71484">
        <ele>2.4</ele>
        <time>2026-08-22T14:37:44Z</time>
      </trkpt>
      <trkpt lat="47.58449" lon="-2.71483">
        <ele>2.4</ele>
        <time>2026-08-22T14:37:45Z</time>
      </trkpt>
      <trkpt lat="47.58444" lon="-2.71483">
        <ele>2.4</ele>
        <time>2026-08-22T14:37:46Z</time>
      </trkpt>
      <trkpt lat="47.58438" lon="-2.71482">
        <ele>2.4</ele>
        <time>2026-08-22T14:37:47Z</time>
      </trkpt>
      <trkpt lat="47.58432" lon="-2.71482">
        <ele>2.4</ele>
        <time>2026-08-22T14:37:48Z</time>
      </trkpt>
      <trkpt lat="47.58426" lon="-2.71482">
        <ele>2.4</ele>
        <time>2026-08-22T14:37:49Z</time>
      </trkpt>
      <trkpt lat="47.5842" lon="-2.71483">
        <ele>2.4</ele>
        <time>2026-08-22T14:37:50Z</time>
      </trkpt>
      <trkpt lat="47.58414" lon="-2.71484">
        <ele>2.4</ele>
        <time>2026-08-22T14:37:51Z</time>
      </trkpt>
      <trkpt lat="47.58409" lon="-2.71486">
        <ele>2.4</ele>
        <time>2026-08-22T14:37:52Z</time>
      </trkpt>
      <trkpt lat="47.58403" lon="-2.7149">
        <ele>2.3</ele>
        <time>2026-08-22T14:37:53Z</time>
      </trkpt>
      <trkpt lat="47.58398" lon="-2.71494">
        <ele>2.3</ele>
        <time>2026-08-22T14:37:54Z</time>
      </trkpt>
      <trkpt lat="47.58393" lon="-2.71499">
        <ele>2.1</ele>
        <time>2026-08-22T14:37:55Z</time>
      </trkpt>
      <trkpt lat="47.58389" lon="-2.71504">
        <ele>2.1</ele>
        <time>2026-08-22T14:37:56Z</time>
      </trkpt>
      <trkpt lat="47.58384" lon="-2.7151">
        <ele>2.3</ele>
        <time>2026-08-22T14:37:57Z</time>
      </trkpt>
      <trkpt lat="47.58379" lon="-2.71516">
        <ele>2.4</ele>
        <time>2026-08-22T14:37:58Z</time>
      </trkpt>
      <trkpt lat="47.58375" lon="-2.71522">
        <ele>2.4</ele>
        <time>2026-08-22T14:37:59Z</time>
      </trkpt>
      <trkpt lat="47.5837" lon="-2.71527">
        <ele>2.3</ele>
        <time>2026-08-22T14:38:00Z</time>
      </trkpt>
      <trkpt lat="47.58366" lon="-2.71533">
        <ele>2.4</ele>
        <time>2026-08-22T14:38:01Z</time>
      </trkpt>
      <trkpt lat="47.58361" lon="-2.71539">
        <ele>2.4</ele>
        <time>2026-08-22T14:38:02Z</time>
      </trkpt>
      <trkpt lat="47.58357" lon="-2.71545">
        <ele>2.5</ele>
        <time>2026-08-22T14:38:03Z</time>
      </trkpt>
      <trkpt lat="47.58353" lon="-2.71551">
        <ele>2.6</ele>
        <time>2026-08-22T14:38:04Z</time>
      </trkpt>
      <trkpt lat="47.58349" lon="-2.71557">
        <ele>2.6</ele>
        <time>2026-08-22T14:38:05Z</time>
      </trkpt>
      <trkpt lat="47.58344" lon="-2.71563">
        <ele>2.4</ele>
        <time>2026-08-22T14:38:06Z</time>
      </trkpt>
      <trkpt lat="47.5834" lon="-2.71569">
        <ele>2.2</ele>
        <time>2026-08-22T14:38:07Z</time>
      </trkpt>
      <trkpt lat="47.58335" lon="-2.71575">
        <ele>2.1</ele>
        <time>2026-08-22T14:38:08Z</time>
      </trkpt>
      <trkpt lat="47.58331" lon="-2.71581">
        <ele>2</ele>
        <time>2026-08-22T14:38:09Z</time>
      </trkpt>
      <trkpt lat="47.58326" lon="-2.71585">
        <ele>2.1</ele>
        <time>2026-08-22T14:38:10Z</time>
      </trkpt>
      <trkpt lat="47.58321" lon="-2.7159">
        <ele>2.2</ele>
        <time>2026-08-22T14:38:11Z</time>
      </trkpt>
      <trkpt lat="47.58315" lon="-2.71594">
        <ele>2.4</ele>
        <time>2026-08-22T14:38:12Z</time>
      </trkpt>
      <trkpt lat="47.5831" lon="-2.71597">
        <ele>2.5</ele>
        <time>2026-08-22T14:38:13Z</time>
      </trkpt>
      <trkpt lat="47.58305" lon="-2.71601">
        <ele>2.6</ele>
        <time>2026-08-22T14:38:14Z</time>
      </trkpt>
      <trkpt lat="47.583" lon="-2.71605">
        <ele>2.6</ele>
        <time>2026-08-22T14:38:15Z</time>
      </trkpt>
      <trkpt lat="47.58295" lon="-2.71609">
        <ele>2.6</ele>
        <time>2026-08-22T14:38:16Z</time>
      </trkpt>
      <trkpt lat="47.5829" lon="-2.71613">
        <ele>2.5</ele>
        <time>2026-08-22T14:38:17Z</time>
      </trkpt>
      <trkpt lat="47.58286" lon="-2.71616">
        <ele>2.4</ele>
        <time>2026-08-22T14:38:18Z</time>
      </trkpt>
      <trkpt lat="47.58281" lon="-2.71619">
        <ele>2.4</ele>
        <time>2026-08-22T14:38:19Z</time>
      </trkpt>
      <trkpt lat="47.58276" lon="-2.71621">
        <ele>2.4</ele>
        <time>2026-08-22T14:38:20Z</time>
      </trkpt>
      <trkpt lat="47.58272" lon="-2.71622">
        <ele>2.5</ele>
        <time>2026-08-22T14:38:21Z</time>
      </trkpt>
      <trkpt lat="47.58267" lon="-2.71622">
        <ele>2.6</ele>
        <time>2026-08-22T14:38:22Z</time>
      </trkpt>
      <trkpt lat="47.58263" lon="-2.71621">
        <ele>2.7</ele>
        <time>2026-08-22T14:38:23Z</time>
      </trkpt>
      <trkpt lat="47.58259" lon="-2.71618">
        <ele>2.8</ele>
        <time>2026-08-22T14:38:24Z</time>
      </trkpt>
      <trkpt lat="47.58255" lon="-2.71615">
        <ele>2.8</ele>
        <time>2026-08-22T14:38:25Z</time>
      </trkpt>
      <trkpt lat="47.5825" lon="-2.71611">
        <ele>3</ele>
        <time>2026-08-22T14:38:26Z</time>
      </trkpt>
      <trkpt lat="47.58246" lon="-2.71606">
        <ele>2.8</ele>
        <time>2026-08-22T14:38:27Z</time>
      </trkpt>
      <trkpt lat="47.58242" lon="-2.71601">
        <ele>2.7</ele>
        <time>2026-08-22T14:38:28Z</time>
      </trkpt>
      <trkpt lat="47.58237" lon="-2.71596">
        <ele>2.7</ele>
        <time>2026-08-22T14:38:29Z</time>
      </trkpt>
      <trkpt lat="47.58233" lon="-2.7159">
        <ele>2.7</ele>
        <time>2026-08-22T14:38:30Z</time>
      </trkpt>
      <trkpt lat="47.58229" lon="-2.71584">
        <ele>2.8</ele>
        <time>2026-08-22T14:38:31Z</time>
      </trkpt>
      <trkpt lat="47.58225" lon="-2.71578">
        <ele>2.7</ele>
        <time>2026-08-22T14:38:32Z</time>
      </trkpt>
      <trkpt lat="47.58221" lon="-2.71572">
        <ele>2.6</ele>
        <time>2026-08-22T14:38:33Z</time>
      </trkpt>
      <trkpt lat="47.58217" lon="-2.71567">
        <ele>2.3</ele>
        <time>2026-08-22T14:38:34Z</time>
      </trkpt>
      <trkpt lat="47.58212" lon="-2.71561">
        <ele>2.1</ele>
        <time>2026-08-22T14:38:35Z</time>
      </trkpt>
      <trkpt lat="47.58208" lon="-2.71556">
        <ele>2</ele>
        <time>2026-08-22T14:38:36Z</time>
      </trkpt>
      <trkpt lat="47.58205" lon="-2.7155">
        <ele>2.1</ele>
        <time>2026-08-22T14:38:37Z</time>
      </trkpt>
      <trkpt lat="47.58201" lon="-2.71544">
        <ele>2.3</ele>
        <time>2026-08-22T14:38:38Z</time>
      </trkpt>
      <trkpt lat="47.58197" lon="-2.71538">
        <ele>2.6</ele>
        <time>2026-08-22T14:38:39Z</time>
      </trkpt>
      <trkpt lat="47.58193" lon="-2.71532">
        <ele>2.8</ele>
        <time>2026-08-22T14:38:40Z</time>
      </trkpt>
      <trkpt lat="47.58189" lon="-2.71527">
        <ele>2.6</ele>
        <time>2026-08-22T14:38:41Z</time>
      </trkpt>
      <trkpt lat="47.58185" lon="-2.71521">
        <ele>2.5</ele>
        <time>2026-08-22T14:38:42Z</time>
      </trkpt>
      <trkpt lat="47.58181" lon="-2.71516">
        <ele>2.4</ele>
        <time>2026-08-22T14:38:43Z</time>
      </trkpt>
      <trkpt lat="47.58176" lon="-2.7151">
        <ele>2.5</ele>
        <time>2026-08-22T14:38:44Z</time>
      </trkpt>
      <trkpt lat="47.58172" lon="-2.71505">
        <ele>2.7</ele>
        <time>2026-08-22T14:38:45Z</time>
      </trkpt>
      <trkpt lat="47.58168" lon="-2.71499">
        <ele>3</ele>
        <time>2026-08-22T14:38:46Z</time>
      </trkpt>
      <trkpt lat="47.58163" lon="-2.71493">
        <ele>2.6</ele>
        <time>2026-08-22T14:38:47Z</time>
      </trkpt>
      <trkpt lat="47.58159" lon="-2.71488">
        <ele>2.3</ele>
        <time>2026-08-22T14:38:48Z</time>
      </trkpt>
      <trkpt lat="47.58154" lon="-2.71483">
        <ele>2</ele>
        <time>2026-08-22T14:38:49Z</time>
      </trkpt>
      <trkpt lat="47.5815" lon="-2.71477">
        <ele>2</ele>
        <time>2026-08-22T14:38:50Z</time>
      </trkpt>
      <trkpt lat="47.58145" lon="-2.71472">
        <ele>2</ele>
        <time>2026-08-22T14:38:51Z</time>
      </trkpt>
      <trkpt lat="47.58141" lon="-2.71466">
        <ele>2</ele>
        <time>2026-08-22T14:38:52Z</time>
      </trkpt>
      <trkpt lat="47.58137" lon="-2.71461">
        <ele>2</ele>
        <time>2026-08-22T14:38:53Z</time>
      </trkpt>
      <trkpt lat="47.58133" lon="-2.71456">
        <ele>1.9</ele>
        <time>2026-08-22T14:38:54Z</time>
      </trkpt>
      <trkpt lat="47.58128" lon="-2.7145">
        <ele>1.9</ele>
        <time>2026-08-22T14:38:55Z</time>
      </trkpt>
      <trkpt lat="47.58124" lon="-2.71445">
        <ele>2</ele>
        <time>2026-08-22T14:38:56Z</time>
      </trkpt>
      <trkpt lat="47.5812" lon="-2.71439">
        <ele>2.1</ele>
        <time>2026-08-22T14:38:57Z</time>
      </trkpt>
      <trkpt lat="47.58115" lon="-2.71434">
        <ele>2.3</ele>
        <time>2026-08-22T14:38:58Z</time>
      </trkpt>
      <trkpt lat="47.5811" lon="-2.71429">
        <ele>2.5</ele>
        <time>2026-08-22T14:38:59Z</time>
      </trkpt>
      <trkpt lat="47.58106" lon="-2.71424">
        <ele>2.6</ele>
        <time>2026-08-22T14:39:00Z</time>
      </trkpt>
      <trkpt lat="47.58101" lon="-2.7142">
        <ele>2.5</ele>
        <time>2026-08-22T14:39:01Z</time>
      </trkpt>
      <trkpt lat="47.58096" lon="-2.71415">
        <ele>2.4</ele>
        <time>2026-08-22T14:39:02Z</time>
      </trkpt>
      <trkpt lat="47.58092" lon="-2.71411">
        <ele>2.3</ele>
        <time>2026-08-22T14:39:03Z</time>
      </trkpt>
      <trkpt lat="47.58087" lon="-2.71407">
        <ele>2.3</ele>
        <time>2026-08-22T14:39:04Z</time>
      </trkpt>
      <trkpt lat="47.58082" lon="-2.71403">
        <ele>2.5</ele>
        <time>2026-08-22T14:39:05Z</time>
      </trkpt>
      <trkpt lat="47.58077" lon="-2.71399">
        <ele>2.6</ele>
        <time>2026-08-22T14:39:06Z</time>
      </trkpt>
      <trkpt lat="47.58071" lon="-2.71396">
        <ele>2.6</ele>
        <time>2026-08-22T14:39:07Z</time>
      </trkpt>
      <trkpt lat="47.58066" lon="-2.71392">
        <ele>2.8</ele>
        <time>2026-08-22T14:39:08Z</time>
      </trkpt>
      <trkpt lat="47.5806" lon="-2.71389">
        <ele>3</ele>
        <time>2026-08-22T14:39:09Z</time>
      </trkpt>
      <trkpt lat="47.58055" lon="-2.71387">
        <ele>3</ele>
        <time>2026-08-22T14:39:10Z</time>
      </trkpt>
      <trkpt lat="47.58049" lon="-2.71384">
        <ele>2.8</ele>
        <time>2026-08-22T14:39:11Z</time>
      </trkpt>
      <trkpt lat="47.58044" lon="-2.71381">
        <ele>2.8</ele>
        <time>2026-08-22T14:39:12Z</time>
      </trkpt>
      <trkpt lat="47.58038" lon="-2.71378">
        <ele>2.9</ele>
        <time>2026-08-22T14:39:13Z</time>
      </trkpt>
      <trkpt lat="47.58032" lon="-2.71376">
        <ele>2.9</ele>
        <time>2026-08-22T14:39:14Z</time>
      </trkpt>
      <trkpt lat="47.58026" lon="-2.71374">
        <ele>3</ele>
        <time>2026-08-22T14:39:15Z</time>
      </trkpt>
      <trkpt lat="47.58021" lon="-2.71371">
        <ele>3</ele>
        <time>2026-08-22T14:39:16Z</time>
      </trkpt>
      <trkpt lat="47.58015" lon="-2.71369">
        <ele>3</ele>
        <time>2026-08-22T14:39:17Z</time>
      </trkpt>
      <trkpt lat="47.58009" lon="-2.71367">
        <ele>2.9</ele>
        <time>2026-08-22T14:39:18Z</time>
      </trkpt>
      <trkpt lat="47.58004" lon="-2.71364">
        <ele>2.9</ele>
        <time>2026-08-22T14:39:19Z</time>
      </trkpt>
      <trkpt lat="47.57998" lon="-2.71362">
        <ele>2.9</ele>
        <time>2026-08-22T14:39:20Z</time>
      </trkpt>
      <trkpt lat="47.57992" lon="-2.7136">
        <ele>3</ele>
        <time>2026-08-22T14:39:21Z</time>
      </trkpt>
      <trkpt lat="47.57986" lon="-2.71358">
        <ele>3</ele>
        <time>2026-08-22T14:39:22Z</time>
      </trkpt>
      <trkpt lat="47.57981" lon="-2.71356">
        <ele>3</ele>
        <time>2026-08-22T14:39:23Z</time>
      </trkpt>
      <trkpt lat="47.57975" lon="-2.71354">
        <ele>3</ele>
        <time>2026-08-22T14:39:24Z</time>
      </trkpt>
      <trkpt lat="47.5797" lon="-2.71352">
        <ele>3.1</ele>
        <time>2026-08-22T14:39:25Z</time>
      </trkpt>
      <trkpt lat="47.57965" lon="-2.7135">
        <ele>3.3</ele>
        <time>2026-08-22T14:39:26Z</time>
      </trkpt>
      <trkpt lat="47.57955" lon="-2.71347">
        <ele>3.6</ele>
        <time>2026-08-22T14:39:27Z</time>
      </trkpt>
      <trkpt lat="47.57955" lon="-2.71347">
        <ele>3.6</ele>
        <time>2026-08-22T14:39:28Z</time>
      </trkpt>
      <trkpt lat="47.5795" lon="-2.71346">
        <ele>3.8</ele>
        <time>2026-08-22T14:39:29Z</time>
      </trkpt>
      <trkpt lat="47.57945" lon="-2.71345">
        <ele>4</ele>
        <time>2026-08-22T14:39:30Z</time>
      </trkpt>
      <trkpt lat="47.5794" lon="-2.71344">
        <ele>4</ele>
        <time>2026-08-22T14:39:31Z</time>
      </trkpt>
      <trkpt lat="47.57935" lon="-2.71343">
        <ele>4</ele>
        <time>2026-08-22T14:39:32Z</time>
      </trkpt>
      <trkpt lat="47.5793" lon="-2.71342">
        <ele>4</ele>
        <time>2026-08-22T14:39:33Z</time>
      </trkpt>
      <trkpt lat="47.57925" lon="-2.71341">
        <ele>4</ele>
        <time>2026-08-22T14:39:34Z</time>
      </trkpt>
      <trkpt lat="47.5792" lon="-2.7134">
        <ele>4</ele>
        <time>2026-08-22T14:39:35Z</time>
      </trkpt>
      <trkpt lat="47.57915" lon="-2.7134">
        <ele>4</ele>
        <time>2026-08-22T14:39:36Z</time>
      </trkpt>
      <trkpt lat="47.5791" lon="-2.7134">
        <ele>4</ele>
        <time>2026-08-22T14:39:37Z</time>
      </trkpt>
      <trkpt lat="47.57905" lon="-2.71339">
        <ele>4</ele>
        <time>2026-08-22T14:39:38Z</time>
      </trkpt>
      <trkpt lat="47.57899" lon="-2.71339">
        <ele>4</ele>
        <time>2026-08-22T14:39:39Z</time>
      </trkpt>
      <trkpt lat="47.57893" lon="-2.71338">
        <ele>4</ele>
        <time>2026-08-22T14:39:40Z</time>
      </trkpt>
      <trkpt lat="47.57888" lon="-2.71338">
        <ele>4</ele>
        <time>2026-08-22T14:39:41Z</time>
      </trkpt>
      <trkpt lat="47.57882" lon="-2.71337">
        <ele>3.8</ele>
        <time>2026-08-22T14:39:42Z</time>
      </trkpt>
      <trkpt lat="47.57877" lon="-2.71336">
        <ele>3.6</ele>
        <time>2026-08-22T14:39:43Z</time>
      </trkpt>
      <trkpt lat="47.57871" lon="-2.71333">
        <ele>3.4</ele>
        <time>2026-08-22T14:39:44Z</time>
      </trkpt>
      <trkpt lat="47.57866" lon="-2.7133">
        <ele>3.2</ele>
        <time>2026-08-22T14:39:45Z</time>
      </trkpt>
      <trkpt lat="47.57861" lon="-2.71326">
        <ele>3</ele>
        <time>2026-08-22T14:39:46Z</time>
      </trkpt>
      <trkpt lat="47.57855" lon="-2.71321">
        <ele>3</ele>
        <time>2026-08-22T14:39:47Z</time>
      </trkpt>
      <trkpt lat="47.5785" lon="-2.71317">
        <ele>3</ele>
        <time>2026-08-22T14:39:48Z</time>
      </trkpt>
      <trkpt lat="47.57846" lon="-2.71312">
        <ele>3</ele>
        <time>2026-08-22T14:39:49Z</time>
      </trkpt>
      <trkpt lat="47.57841" lon="-2.71307">
        <ele>3</ele>
        <time>2026-08-22T14:39:50Z</time>
      </trkpt>
      <trkpt lat="47.57836" lon="-2.71303">
        <ele>3</ele>
        <time>2026-08-22T14:39:51Z</time>
      </trkpt>
      <trkpt lat="47.57832" lon="-2.71298">
        <ele>3</ele>
        <time>2026-08-22T14:39:52Z</time>
      </trkpt>
      <trkpt lat="47.57827" lon="-2.71293">
        <ele>3</ele>
        <time>2026-08-22T14:39:53Z</time>
      </trkpt>
      <trkpt lat="47.57822" lon="-2.71288">
        <ele>3</ele>
        <time>2026-08-22T14:39:54Z</time>
      </trkpt>
      <trkpt lat="47.57818" lon="-2.71283">
        <ele>3</ele>
        <time>2026-08-22T14:39:55Z</time>
      </trkpt>
      <trkpt lat="47.57814" lon="-2.71279">
        <ele>3</ele>
        <time>2026-08-22T14:39:56Z</time>
      </trkpt>
      <trkpt lat="47.5781" lon="-2.71274">
        <ele>3</ele>
        <time>2026-08-22T14:39:57Z</time>
      </trkpt>
      <trkpt lat="47.57806" lon="-2.7127">
        <ele>3</ele>
        <time>2026-08-22T14:39:58Z</time>
      </trkpt>
      <trkpt lat="47.57802" lon="-2.71266">
        <ele>3.1</ele>
        <time>2026-08-22T14:39:59Z</time>
      </trkpt>
      <trkpt lat="47.57797" lon="-2.71262">
        <ele>3.1</ele>
        <time>2026-08-22T14:40:00Z</time>
      </trkpt>
      <trkpt lat="47.57793" lon="-2.71257">
        <ele>3.1</ele>
        <time>2026-08-22T14:40:01Z</time>
      </trkpt>
      <trkpt lat="47.57789" lon="-2.71253">
        <ele>3.1</ele>
        <time>2026-08-22T14:40:02Z</time>
      </trkpt>
      <trkpt lat="47.57785" lon="-2.71248">
        <ele>3</ele>
        <time>2026-08-22T14:40:03Z</time>
      </trkpt>
      <trkpt lat="47.57781" lon="-2.71244">
        <ele>3</ele>
        <time>2026-08-22T14:40:04Z</time>
      </trkpt>
      <trkpt lat="47.57777" lon="-2.7124">
        <ele>3</ele>
        <time>2026-08-22T14:40:05Z</time>
      </trkpt>
      <trkpt lat="47.57772" lon="-2.71235">
        <ele>3.2</ele>
        <time>2026-08-22T14:40:06Z</time>
      </trkpt>
      <trkpt lat="47.57768" lon="-2.71231">
        <ele>3.4</ele>
        <time>2026-08-22T14:40:07Z</time>
      </trkpt>
      <trkpt lat="47.57764" lon="-2.71226">
        <ele>3.5</ele>
        <time>2026-08-22T14:40:08Z</time>
      </trkpt>
      <trkpt lat="47.5776" lon="-2.71221">
        <ele>3.6</ele>
        <time>2026-08-22T14:40:09Z</time>
      </trkpt>
      <trkpt lat="47.57755" lon="-2.71217">
        <ele>3.8</ele>
        <time>2026-08-22T14:40:10Z</time>
      </trkpt>
      <trkpt lat="47.57751" lon="-2.71212">
        <ele>4</ele>
        <time>2026-08-22T14:40:11Z</time>
      </trkpt>
      <trkpt lat="47.57746" lon="-2.71208">
        <ele>4</ele>
        <time>2026-08-22T14:40:12Z</time>
      </trkpt>
      <trkpt lat="47.57741" lon="-2.71203">
        <ele>4</ele>
        <time>2026-08-22T14:40:13Z</time>
      </trkpt>
      <trkpt lat="47.57737" lon="-2.71199">
        <ele>4</ele>
        <time>2026-08-22T14:40:14Z</time>
      </trkpt>
      <trkpt lat="47.57732" lon="-2.71194">
        <ele>4</ele>
        <time>2026-08-22T14:40:15Z</time>
      </trkpt>
      <trkpt lat="47.57728" lon="-2.7119">
        <ele>4</ele>
        <time>2026-08-22T14:40:16Z</time>
      </trkpt>
      <trkpt lat="47.57723" lon="-2.71186">
        <ele>4</ele>
        <time>2026-08-22T14:40:17Z</time>
      </trkpt>
      <trkpt lat="47.57718" lon="-2.71183">
        <ele>4</ele>
        <time>2026-08-22T14:40:18Z</time>
      </trkpt>
      <trkpt lat="47.57713" lon="-2.71179">
        <ele>4</ele>
        <time>2026-08-22T14:40:19Z</time>
      </trkpt>
      <trkpt lat="47.57708" lon="-2.71175">
        <ele>4</ele>
        <time>2026-08-22T14:40:20Z</time>
      </trkpt>
      <trkpt lat="47.57703" lon="-2.71171">
        <ele>4</ele>
        <time>2026-08-22T14:40:21Z</time>
      </trkpt>
      <trkpt lat="47.57698" lon="-2.71168">
        <ele>4</ele>
        <time>2026-08-22T14:40:22Z</time>
      </trkpt>
      <trkpt lat="47.57693" lon="-2.71166">
        <ele>4</ele>
        <time>2026-08-22T14:40:23Z</time>
      </trkpt>
      <trkpt lat="47.57687" lon="-2.71163">
        <ele>4</ele>
        <time>2026-08-22T14:40:24Z</time>
      </trkpt>
      <trkpt lat="47.57682" lon="-2.71161">
        <ele>4</ele>
        <time>2026-08-22T14:40:25Z</time>
      </trkpt>
      <trkpt lat="47.57677" lon="-2.71158">
        <ele>4</ele>
        <time>2026-08-22T14:40:26Z</time>
      </trkpt>
      <trkpt lat="47.57672" lon="-2.71155">
        <ele>4</ele>
        <time>2026-08-22T14:40:27Z</time>
      </trkpt>
      <trkpt lat="47.57667" lon="-2.71152">
        <ele>4</ele>
        <time>2026-08-22T14:40:28Z</time>
      </trkpt>
      <trkpt lat="47.57662" lon="-2.7115">
        <ele>3.9</ele>
        <time>2026-08-22T14:40:29Z</time>
      </trkpt>
      <trkpt lat="47.57657" lon="-2.71147">
        <ele>3.8</ele>
        <time>2026-08-22T14:40:30Z</time>
      </trkpt>
      <trkpt lat="47.57651" lon="-2.71144">
        <ele>3.5</ele>
        <time>2026-08-22T14:40:31Z</time>
      </trkpt>
      <trkpt lat="47.57646" lon="-2.71141">
        <ele>3.3</ele>
        <time>2026-08-22T14:40:32Z</time>
      </trkpt>
      <trkpt lat="47.57641" lon="-2.71137">
        <ele>3.1</ele>
        <time>2026-08-22T14:40:33Z</time>
      </trkpt>
      <trkpt lat="47.57636" lon="-2.71132">
        <ele>3</ele>
        <time>2026-08-22T14:40:34Z</time>
      </trkpt>
      <trkpt lat="47.57631" lon="-2.71128">
        <ele>3</ele>
        <time>2026-08-22T14:40:35Z</time>
      </trkpt>
      <trkpt lat="47.57626" lon="-2.71123">
        <ele>3</ele>
        <time>2026-08-22T14:40:36Z</time>
      </trkpt>
      <trkpt lat="47.57621" lon="-2.71117">
        <ele>3</ele>
        <time>2026-08-22T14:40:37Z</time>
      </trkpt>
      <trkpt lat="47.57616" lon="-2.71111">
        <ele>3</ele>
        <time>2026-08-22T14:40:38Z</time>
      </trkpt>
      <trkpt lat="47.57612" lon="-2.71105">
        <ele>3</ele>
        <time>2026-08-22T14:40:39Z</time>
      </trkpt>
      <trkpt lat="47.57607" lon="-2.711">
        <ele>3</ele>
        <time>2026-08-22T14:40:40Z</time>
      </trkpt>
      <trkpt lat="47.57603" lon="-2.71094">
        <ele>3</ele>
        <time>2026-08-22T14:40:41Z</time>
      </trkpt>
      <trkpt lat="47.57599" lon="-2.71087">
        <ele>3</ele>
        <time>2026-08-22T14:40:42Z</time>
      </trkpt>
      <trkpt lat="47.57594" lon="-2.71081">
        <ele>3</ele>
        <time>2026-08-22T14:40:43Z</time>
      </trkpt>
      <trkpt lat="47.57591" lon="-2.71075">
        <ele>2.9</ele>
        <time>2026-08-22T14:40:44Z</time>
      </trkpt>
      <trkpt lat="47.57587" lon="-2.71069">
        <ele>2.9</ele>
        <time>2026-08-22T14:40:45Z</time>
      </trkpt>
      <trkpt lat="47.57583" lon="-2.71062">
        <ele>3</ele>
        <time>2026-08-22T14:40:46Z</time>
      </trkpt>
      <trkpt lat="47.5758" lon="-2.71055">
        <ele>3.1</ele>
        <time>2026-08-22T14:40:47Z</time>
      </trkpt>
      <trkpt lat="47.57577" lon="-2.71049">
        <ele>3.2</ele>
        <time>2026-08-22T14:40:48Z</time>
      </trkpt>
      <trkpt lat="47.57573" lon="-2.71042">
        <ele>3.4</ele>
        <time>2026-08-22T14:40:49Z</time>
      </trkpt>
      <trkpt lat="47.5757" lon="-2.71036">
        <ele>3.5</ele>
        <time>2026-08-22T14:40:50Z</time>
      </trkpt>
      <trkpt lat="47.57567" lon="-2.71029">
        <ele>3.6</ele>
        <time>2026-08-22T14:40:51Z</time>
      </trkpt>
      <trkpt lat="47.57564" lon="-2.71023">
        <ele>3.7</ele>
        <time>2026-08-22T14:40:52Z</time>
      </trkpt>
      <trkpt lat="47.57561" lon="-2.71017">
        <ele>3.9</ele>
        <time>2026-08-22T14:40:53Z</time>
      </trkpt>
      <trkpt lat="47.57558" lon="-2.71011">
        <ele>4</ele>
        <time>2026-08-22T14:40:54Z</time>
      </trkpt>
      <trkpt lat="47.57555" lon="-2.71006">
        <ele>4.1</ele>
        <time>2026-08-22T14:40:55Z</time>
      </trkpt>
      <trkpt lat="47.57552" lon="-2.71001">
        <ele>4.4</ele>
        <time>2026-08-22T14:40:56Z</time>
      </trkpt>
      <trkpt lat="47.5755" lon="-2.70995">
        <ele>4.7</ele>
        <time>2026-08-22T14:40:57Z</time>
      </trkpt>
      <trkpt lat="47.57547" lon="-2.70991">
        <ele>5.1</ele>
        <time>2026-08-22T14:40:58Z</time>
      </trkpt>
      <trkpt lat="47.57544" lon="-2.70986">
        <ele>5.5</ele>
        <time>2026-08-22T14:40:59Z</time>
      </trkpt>
      <trkpt lat="47.57542" lon="-2.70982">
        <ele>5.8</ele>
        <time>2026-08-22T14:41:00Z</time>
      </trkpt>
      <trkpt lat="47.57539" lon="-2.70978">
        <ele>6.1</ele>
        <time>2026-08-22T14:41:01Z</time>
      </trkpt>
      <trkpt lat="47.57535" lon="-2.70974">
        <ele>6.5</ele>
        <time>2026-08-22T14:41:02Z</time>
      </trkpt>
      <trkpt lat="47.57532" lon="-2.70972">
        <ele>6.7</ele>
        <time>2026-08-22T14:41:03Z</time>
      </trkpt>
      <trkpt lat="47.57528" lon="-2.7097">
        <ele>7</ele>
        <time>2026-08-22T14:41:04Z</time>
      </trkpt>
      <trkpt lat="47.57524" lon="-2.70969">
        <ele>7.3</ele>
        <time>2026-08-22T14:41:05Z</time>
      </trkpt>
      <trkpt lat="47.5752" lon="-2.70968">
        <ele>7.6</ele>
        <time>2026-08-22T14:41:06Z</time>
      </trkpt>
      <trkpt lat="47.57515" lon="-2.70967">
        <ele>8</ele>
        <time>2026-08-22T14:41:07Z</time>
      </trkpt>
      <trkpt lat="47.57511" lon="-2.70967">
        <ele>8.3</ele>
        <time>2026-08-22T14:41:08Z</time>
      </trkpt>
      <trkpt lat="47.57507" lon="-2.70967">
        <ele>8.6</ele>
        <time>2026-08-22T14:41:09Z</time>
      </trkpt>
      <trkpt lat="47.57503" lon="-2.70966">
        <ele>9</ele>
        <time>2026-08-22T14:41:10Z</time>
      </trkpt>
      <trkpt lat="47.575" lon="-2.70965">
        <ele>9.3</ele>
        <time>2026-08-22T14:41:11Z</time>
      </trkpt>
      <trkpt lat="47.57496" lon="-2.70964">
        <ele>9.3</ele>
        <time>2026-08-22T14:41:12Z</time>
      </trkpt>
      <trkpt lat="47.57492" lon="-2.70963">
        <ele>9.3</ele>
        <time>2026-08-22T14:41:13Z</time>
      </trkpt>
      <trkpt lat="47.57488" lon="-2.70962">
        <ele>9.4</ele>
        <time>2026-08-22T14:41:14Z</time>
      </trkpt>
      <trkpt lat="47.57484" lon="-2.70961">
        <ele>9.4</ele>
        <time>2026-08-22T14:41:15Z</time>
      </trkpt>
      <trkpt lat="47.5748" lon="-2.7096">
        <ele>9.4</ele>
        <time>2026-08-22T14:41:16Z</time>
      </trkpt>
      <trkpt lat="47.57476" lon="-2.70959">
        <ele>9.5</ele>
        <time>2026-08-22T14:41:17Z</time>
      </trkpt>
      <trkpt lat="47.57472" lon="-2.70958">
        <ele>9.5</ele>
        <time>2026-08-22T14:41:18Z</time>
      </trkpt>
      <trkpt lat="47.57469" lon="-2.70957">
        <ele>9.5</ele>
        <time>2026-08-22T14:41:19Z</time>
      </trkpt>
      <trkpt lat="47.57465" lon="-2.70955">
        <ele>9.6</ele>
        <time>2026-08-22T14:41:20Z</time>
      </trkpt>
      <trkpt lat="47.57461" lon="-2.70954">
        <ele>9.7</ele>
        <time>2026-08-22T14:41:21Z</time>
      </trkpt>
      <trkpt lat="47.57458" lon="-2.70953">
        <ele>9.7</ele>
        <time>2026-08-22T14:41:22Z</time>
      </trkpt>
      <trkpt lat="47.57454" lon="-2.70952">
        <ele>9.7</ele>
        <time>2026-08-22T14:41:23Z</time>
      </trkpt>
      <trkpt lat="47.57451" lon="-2.70951">
        <ele>9.8</ele>
        <time>2026-08-22T14:41:24Z</time>
      </trkpt>
      <trkpt lat="47.57448" lon="-2.70949">
        <ele>9.8</ele>
        <time>2026-08-22T14:41:25Z</time>
      </trkpt>
      <trkpt lat="47.57445" lon="-2.70948">
        <ele>9.9</ele>
        <time>2026-08-22T14:41:26Z</time>
      </trkpt>
      <trkpt lat="47.57443" lon="-2.70947">
        <ele>9.9</ele>
        <time>2026-08-22T14:41:27Z</time>
      </trkpt>
      <trkpt lat="47.5744" lon="-2.70946">
        <ele>9.8</ele>
        <time>2026-08-22T14:41:28Z</time>
      </trkpt>
      <trkpt lat="47.57438" lon="-2.70945">
        <ele>9.8</ele>
        <time>2026-08-22T14:41:29Z</time>
      </trkpt>
      <trkpt lat="47.57435" lon="-2.70943">
        <ele>9.7</ele>
        <time>2026-08-22T14:41:30Z</time>
      </trkpt>
      <trkpt lat="47.57433" lon="-2.70941">
        <ele>9.6</ele>
        <time>2026-08-22T14:41:31Z</time>
      </trkpt>
      <trkpt lat="47.5743" lon="-2.70939">
        <ele>9.5</ele>
        <time>2026-08-22T14:41:32Z</time>
      </trkpt>
      <trkpt lat="47.57428" lon="-2.70936">
        <ele>9.4</ele>
        <time>2026-08-22T14:41:33Z</time>
      </trkpt>
      <trkpt lat="47.57426" lon="-2.70932">
        <ele>9.3</ele>
        <time>2026-08-22T14:41:34Z</time>
      </trkpt>
      <trkpt lat="47.57425" lon="-2.70929">
        <ele>9.3</ele>
        <time>2026-08-22T14:41:35Z</time>
      </trkpt>
      <trkpt lat="47.57423" lon="-2.70926">
        <ele>9.2</ele>
        <time>2026-08-22T14:41:36Z</time>
      </trkpt>
      <trkpt lat="47.57421" lon="-2.70922">
        <ele>9.2</ele>
        <time>2026-08-22T14:41:37Z</time>
      </trkpt>
      <trkpt lat="47.57419" lon="-2.70917">
        <ele>9.1</ele>
        <time>2026-08-22T14:41:38Z</time>
      </trkpt>
      <trkpt lat="47.57417" lon="-2.70913">
        <ele>9.1</ele>
        <time>2026-08-22T14:41:39Z</time>
      </trkpt>
      <trkpt lat="47.57415" lon="-2.7091">
        <ele>9.2</ele>
        <time>2026-08-22T14:41:40Z</time>
      </trkpt>
      <trkpt lat="47.57412" lon="-2.70905">
        <ele>9.3</ele>
        <time>2026-08-22T14:41:41Z</time>
      </trkpt>
      <trkpt lat="47.57409" lon="-2.70901">
        <ele>9.4</ele>
        <time>2026-08-22T14:41:42Z</time>
      </trkpt>
      <trkpt lat="47.57407" lon="-2.70898">
        <ele>9.4</ele>
        <time>2026-08-22T14:41:43Z</time>
      </trkpt>
      <trkpt lat="47.57404" lon="-2.70895">
        <ele>9.4</ele>
        <time>2026-08-22T14:41:44Z</time>
      </trkpt>
      <trkpt lat="47.57402" lon="-2.70893">
        <ele>9.4</ele>
        <time>2026-08-22T14:41:45Z</time>
      </trkpt>
      <trkpt lat="47.574" lon="-2.70891">
        <ele>9.4</ele>
        <time>2026-08-22T14:41:46Z</time>
      </trkpt>
      <trkpt lat="47.57398" lon="-2.7089">
        <ele>9.3</ele>
        <time>2026-08-22T14:41:47Z</time>
      </trkpt>
      <trkpt lat="47.57395" lon="-2.70891">
        <ele>9.2</ele>
        <time>2026-08-22T14:41:48Z</time>
      </trkpt>
      <trkpt lat="47.57393" lon="-2.70893">
        <ele>9.1</ele>
        <time>2026-08-22T14:41:49Z</time>
      </trkpt>
      <trkpt lat="47.57391" lon="-2.70896">
        <ele>9.1</ele>
        <time>2026-08-22T14:41:50Z</time>
      </trkpt>
      <trkpt lat="47.57388" lon="-2.70898">
        <ele>9</ele>
        <time>2026-08-22T14:41:51Z</time>
      </trkpt>
      <trkpt lat="47.57384" lon="-2.70901">
        <ele>8.7</ele>
        <time>2026-08-22T14:41:52Z</time>
      </trkpt>
      <trkpt lat="47.57381" lon="-2.70905">
        <ele>8.6</ele>
        <time>2026-08-22T14:41:53Z</time>
      </trkpt>
      <trkpt lat="47.57377" lon="-2.70908">
        <ele>8.3</ele>
        <time>2026-08-22T14:41:54Z</time>
      </trkpt>
      <trkpt lat="47.57373" lon="-2.70911">
        <ele>8</ele>
        <time>2026-08-22T14:41:55Z</time>
      </trkpt>
      <trkpt lat="47.57369" lon="-2.70915">
        <ele>7.6</ele>
        <time>2026-08-22T14:41:56Z</time>
      </trkpt>
      <trkpt lat="47.57365" lon="-2.70919">
        <ele>7.3</ele>
        <time>2026-08-22T14:41:57Z</time>
      </trkpt>
      <trkpt lat="47.57361" lon="-2.70924">
        <ele>7</ele>
        <time>2026-08-22T14:41:58Z</time>
      </trkpt>
      <trkpt lat="47.57357" lon="-2.70929">
        <ele>7</ele>
        <time>2026-08-22T14:41:59Z</time>
      </trkpt>
      <trkpt lat="47.57353" lon="-2.70935">
        <ele>7</ele>
        <time>2026-08-22T14:42:00Z</time>
      </trkpt>
      <trkpt lat="47.5735" lon="-2.7094">
        <ele>7</ele>
        <time>2026-08-22T14:42:01Z</time>
      </trkpt>
      <trkpt lat="47.57346" lon="-2.70945">
        <ele>7</ele>
        <time>2026-08-22T14:42:02Z</time>
      </trkpt>
      <trkpt lat="47.57342" lon="-2.70949">
        <ele>6.8</ele>
        <time>2026-08-22T14:42:03Z</time>
      </trkpt>
      <trkpt lat="47.57338" lon="-2.70953">
        <ele>6.7</ele>
        <time>2026-08-22T14:42:04Z</time>
      </trkpt>
      <trkpt lat="47.57334" lon="-2.70957">
        <ele>6.5</ele>
        <time>2026-08-22T14:42:05Z</time>
      </trkpt>
      <trkpt lat="47.5733" lon="-2.70961">
        <ele>6.5</ele>
        <time>2026-08-22T14:42:06Z</time>
      </trkpt>
      <trkpt lat="47.57326" lon="-2.70964">
        <ele>6.5</ele>
        <time>2026-08-22T14:42:07Z</time>
      </trkpt>
      <trkpt lat="47.57323" lon="-2.70967">
        <ele>6.5</ele>
        <time>2026-08-22T14:42:08Z</time>
      </trkpt>
      <trkpt lat="47.57319" lon="-2.7097">
        <ele>6.6</ele>
        <time>2026-08-22T14:42:09Z</time>
      </trkpt>
      <trkpt lat="47.57315" lon="-2.70973">
        <ele>6.7</ele>
        <time>2026-08-22T14:42:10Z</time>
      </trkpt>
      <trkpt lat="47.57311" lon="-2.70976">
        <ele>6.8</ele>
        <time>2026-08-22T14:42:11Z</time>
      </trkpt>
      <trkpt lat="47.57308" lon="-2.70979">
        <ele>6.9</ele>
        <time>2026-08-22T14:42:12Z</time>
      </trkpt>
      <trkpt lat="47.57305" lon="-2.70981">
        <ele>7</ele>
        <time>2026-08-22T14:42:13Z</time>
      </trkpt>
      <trkpt lat="47.57304" lon="-2.70982">
        <ele>7</ele>
        <time>2026-08-22T14:42:14Z</time>
      </trkpt>
      <trkpt lat="47.57303" lon="-2.70983">
        <ele>7</ele>
        <time>2026-08-22T14:42:15Z</time>
      </trkpt>
      <trkpt lat="47.57302" lon="-2.70984">
        <ele>7</ele>
        <time>2026-08-22T14:42:16Z</time>
      </trkpt>
      <trkpt lat="47.57301" lon="-2.70984">
        <ele>7</ele>
        <time>2026-08-22T14:42:17Z</time>
      </trkpt>
      <trkpt lat="47.573" lon="-2.70985">
        <ele>7</ele>
        <time>2026-08-22T14:42:18Z</time>
      </trkpt>
      <trkpt lat="47.57299" lon="-2.70985">
        <ele>7</ele>
        <time>2026-08-22T14:42:19Z</time>
      </trkpt>
      <trkpt lat="47.57297" lon="-2.70986">
        <ele>7</ele>
        <time>2026-08-22T14:42:20Z</time>
      </trkpt>
      <trkpt lat="47.57294" lon="-2.70988">
        <ele>7</ele>
        <time>2026-08-22T14:42:21Z</time>
      </trkpt>
      <trkpt lat="47.57292" lon="-2.7099">
        <ele>7</ele>
        <time>2026-08-22T14:42:22Z</time>
      </trkpt>
      <trkpt lat="47.5729" lon="-2.70993">
        <ele>7</ele>
        <time>2026-08-22T14:42:23Z</time>
      </trkpt>
      <trkpt lat="47.57287" lon="-2.70995">
        <ele>7</ele>
        <time>2026-08-22T14:42:24Z</time>
      </trkpt>
      <trkpt lat="47.57285" lon="-2.70998">
        <ele>7</ele>
        <time>2026-08-22T14:42:25Z</time>
      </trkpt>
      <trkpt lat="47.57284" lon="-2.71001">
        <ele>7</ele>
        <time>2026-08-22T14:42:26Z</time>
      </trkpt>
      <trkpt lat="47.57283" lon="-2.71003">
        <ele>7.1</ele>
        <time>2026-08-22T14:42:27Z</time>
      </trkpt>
      <trkpt lat="47.57282" lon="-2.71005">
        <ele>7.2</ele>
        <time>2026-08-22T14:42:28Z</time>
      </trkpt>
      <trkpt lat="47.57281" lon="-2.71006">
        <ele>7.2</ele>
        <time>2026-08-22T14:42:29Z</time>
      </trkpt>
      <trkpt lat="47.57281" lon="-2.71006">
        <ele>7.2</ele>
        <time>2026-08-22T14:42:30Z</time>
      </trkpt>
      <trkpt lat="47.57281" lon="-2.71006">
        <ele>7.2</ele>
        <time>2026-08-22T14:42:31Z</time>
      </trkpt>
      <trkpt lat="47.5729" lon="-2.71021">
        <ele>7.8</ele>
        <time>2026-08-22T15:08:36Z</time>
      </trkpt>
      <trkpt lat="47.57291" lon="-2.71023">
        <ele>7.8</ele>
        <time>2026-08-22T15:08:37Z</time>
      </trkpt>
      <trkpt lat="47.57293" lon="-2.71026">
        <ele>7.9</ele>
        <time>2026-08-22T15:08:38Z</time>
      </trkpt>
      <trkpt lat="47.57294" lon="-2.71029">
        <ele>8</ele>
        <time>2026-08-22T15:08:39Z</time>
      </trkpt>
      <trkpt lat="47.57296" lon="-2.71033">
        <ele>8.1</ele>
        <time>2026-08-22T15:08:40Z</time>
      </trkpt>
      <trkpt lat="47.57297" lon="-2.71036">
        <ele>8.1</ele>
        <time>2026-08-22T15:08:41Z</time>
      </trkpt>
      <trkpt lat="47.57299" lon="-2.7104">
        <ele>8.1</ele>
        <time>2026-08-22T15:08:42Z</time>
      </trkpt>
      <trkpt lat="47.57301" lon="-2.71043">
        <ele>8.1</ele>
        <time>2026-08-22T15:08:43Z</time>
      </trkpt>
      <trkpt lat="47.57304" lon="-2.71047">
        <ele>8</ele>
        <time>2026-08-22T15:08:44Z</time>
      </trkpt>
      <trkpt lat="47.57306" lon="-2.7105">
        <ele>8</ele>
        <time>2026-08-22T15:08:45Z</time>
      </trkpt>
      <trkpt lat="47.57309" lon="-2.71054">
        <ele>8</ele>
        <time>2026-08-22T15:08:46Z</time>
      </trkpt>
      <trkpt lat="47.57311" lon="-2.71058">
        <ele>8.1</ele>
        <time>2026-08-22T15:08:47Z</time>
      </trkpt>
      <trkpt lat="47.57314" lon="-2.71063">
        <ele>8.2</ele>
        <time>2026-08-22T15:08:48Z</time>
      </trkpt>
      <trkpt lat="47.57316" lon="-2.71067">
        <ele>8.3</ele>
        <time>2026-08-22T15:08:49Z</time>
      </trkpt>
      <trkpt lat="47.57318" lon="-2.71071">
        <ele>8.3</ele>
        <time>2026-08-22T15:08:50Z</time>
      </trkpt>
      <trkpt lat="47.5732" lon="-2.71076">
        <ele>8.4</ele>
        <time>2026-08-22T15:08:51Z</time>
      </trkpt>
      <trkpt lat="47.57321" lon="-2.7108">
        <ele>8.4</ele>
        <time>2026-08-22T15:08:52Z</time>
      </trkpt>
      <trkpt lat="47.57322" lon="-2.71086">
        <ele>8.4</ele>
        <time>2026-08-22T15:08:53Z</time>
      </trkpt>
      <trkpt lat="47.57323" lon="-2.71091">
        <ele>8.4</ele>
        <time>2026-08-22T15:08:54Z</time>
      </trkpt>
      <trkpt lat="47.57323" lon="-2.71097">
        <ele>8.4</ele>
        <time>2026-08-22T15:08:55Z</time>
      </trkpt>
      <trkpt lat="47.57324" lon="-2.71102">
        <ele>8.3</ele>
        <time>2026-08-22T15:08:56Z</time>
      </trkpt>
      <trkpt lat="47.57324" lon="-2.71108">
        <ele>8.3</ele>
        <time>2026-08-22T15:08:57Z</time>
      </trkpt>
      <trkpt lat="47.57325" lon="-2.71114">
        <ele>8.3</ele>
        <time>2026-08-22T15:08:58Z</time>
      </trkpt>
      <trkpt lat="47.57325" lon="-2.71119">
        <ele>8.3</ele>
        <time>2026-08-22T15:08:59Z</time>
      </trkpt>
      <trkpt lat="47.57326" lon="-2.71125">
        <ele>8.3</ele>
        <time>2026-08-22T15:09:00Z</time>
      </trkpt>
      <trkpt lat="47.57326" lon="-2.71129">
        <ele>8.3</ele>
        <time>2026-08-22T15:09:01Z</time>
      </trkpt>
      <trkpt lat="47.57326" lon="-2.71134">
        <ele>8.3</ele>
        <time>2026-08-22T15:09:02Z</time>
      </trkpt>
      <trkpt lat="47.57325" lon="-2.71138">
        <ele>8.3</ele>
        <time>2026-08-22T15:09:03Z</time>
      </trkpt>
      <trkpt lat="47.57325" lon="-2.71143">
        <ele>8.3</ele>
        <time>2026-08-22T15:09:04Z</time>
      </trkpt>
      <trkpt lat="47.57323" lon="-2.71147">
        <ele>8.4</ele>
        <time>2026-08-22T15:09:05Z</time>
      </trkpt>
      <trkpt lat="47.57321" lon="-2.71151">
        <ele>8.4</ele>
        <time>2026-08-22T15:09:06Z</time>
      </trkpt>
      <trkpt lat="47.57318" lon="-2.71154">
        <ele>8.6</ele>
        <time>2026-08-22T15:09:07Z</time>
      </trkpt>
      <trkpt lat="47.57316" lon="-2.71157">
        <ele>8.6</ele>
        <time>2026-08-22T15:09:08Z</time>
      </trkpt>
      <trkpt lat="47.57313" lon="-2.71159">
        <ele>8.7</ele>
        <time>2026-08-22T15:09:09Z</time>
      </trkpt>
      <trkpt lat="47.5731" lon="-2.71162">
        <ele>8.8</ele>
        <time>2026-08-22T15:09:10Z</time>
      </trkpt>
      <trkpt lat="47.57307" lon="-2.71165">
        <ele>8.9</ele>
        <time>2026-08-22T15:09:11Z</time>
      </trkpt>
      <trkpt lat="47.57305" lon="-2.71168">
        <ele>9</ele>
        <time>2026-08-22T15:09:12Z</time>
      </trkpt>
      <trkpt lat="47.57302" lon="-2.71171">
        <ele>9</ele>
        <time>2026-08-22T15:09:13Z</time>
      </trkpt>
      <trkpt lat="47.57299" lon="-2.71174">
        <ele>9</ele>
        <time>2026-08-22T15:09:14Z</time>
      </trkpt>
      <trkpt lat="47.57296" lon="-2.71178">
        <ele>9</ele>
        <time>2026-08-22T15:09:15Z</time>
      </trkpt>
      <trkpt lat="47.57293" lon="-2.71183">
        <ele>9</ele>
        <time>2026-08-22T15:09:16Z</time>
      </trkpt>
      <trkpt lat="47.5729" lon="-2.71187">
        <ele>9</ele>
        <time>2026-08-22T15:09:17Z</time>
      </trkpt>
      <trkpt lat="47.57288" lon="-2.71191">
        <ele>9</ele>
        <time>2026-08-22T15:09:18Z</time>
      </trkpt>
      <trkpt lat="47.57285" lon="-2.71195">
        <ele>9</ele>
        <time>2026-08-22T15:09:19Z</time>
      </trkpt>
      <trkpt lat="47.57282" lon="-2.71199">
        <ele>9</ele>
        <time>2026-08-22T15:09:20Z</time>
      </trkpt>
      <trkpt lat="47.57278" lon="-2.71203">
        <ele>9</ele>
        <time>2026-08-22T15:09:21Z</time>
      </trkpt>
      <trkpt lat="47.57275" lon="-2.71207">
        <ele>9.1</ele>
        <time>2026-08-22T15:09:22Z</time>
      </trkpt>
      <trkpt lat="47.57272" lon="-2.71211">
        <ele>9.2</ele>
        <time>2026-08-22T15:09:23Z</time>
      </trkpt>
      <trkpt lat="47.57269" lon="-2.71214">
        <ele>9.3</ele>
        <time>2026-08-22T15:09:24Z</time>
      </trkpt>
      <trkpt lat="47.57266" lon="-2.71218">
        <ele>9.4</ele>
        <time>2026-08-22T15:09:25Z</time>
      </trkpt>
      <trkpt lat="47.57262" lon="-2.71221">
        <ele>9.6</ele>
        <time>2026-08-22T15:09:26Z</time>
      </trkpt>
      <trkpt lat="47.57255" lon="-2.71229">
        <ele>9.6</ele>
        <time>2026-08-22T15:09:27Z</time>
      </trkpt>
      <trkpt lat="47.57255" lon="-2.71229">
        <ele>9.6</ele>
        <time>2026-08-22T15:09:28Z</time>
      </trkpt>
      <trkpt lat="47.57252" lon="-2.71232">
        <ele>9.6</ele>
        <time>2026-08-22T15:09:29Z</time>
      </trkpt>
      <trkpt lat="47.57248" lon="-2.71236">
        <ele>9.5</ele>
        <time>2026-08-22T15:09:30Z</time>
      </trkpt>
      <trkpt lat="47.57244" lon="-2.71239">
        <ele>9.4</ele>
        <time>2026-08-22T15:09:31Z</time>
      </trkpt>
      <trkpt lat="47.5724" lon="-2.71242">
        <ele>9.3</ele>
        <time>2026-08-22T15:09:32Z</time>
      </trkpt>
      <trkpt lat="47.57236" lon="-2.71245">
        <ele>9.2</ele>
        <time>2026-08-22T15:09:33Z</time>
      </trkpt>
      <trkpt lat="47.57232" lon="-2.71247">
        <ele>9.1</ele>
        <time>2026-08-22T15:09:34Z</time>
      </trkpt>
      <trkpt lat="47.57228" lon="-2.7125">
        <ele>9</ele>
        <time>2026-08-22T15:09:35Z</time>
      </trkpt>
      <trkpt lat="47.57224" lon="-2.71253">
        <ele>9</ele>
        <time>2026-08-22T15:09:36Z</time>
      </trkpt>
      <trkpt lat="47.5722" lon="-2.71256">
        <ele>9.1</ele>
        <time>2026-08-22T15:09:37Z</time>
      </trkpt>
      <trkpt lat="47.57216" lon="-2.71258">
        <ele>9.4</ele>
        <time>2026-08-22T15:09:38Z</time>
      </trkpt>
      <trkpt lat="47.57212" lon="-2.71261">
        <ele>9.6</ele>
        <time>2026-08-22T15:09:39Z</time>
      </trkpt>
      <trkpt lat="47.57208" lon="-2.71263">
        <ele>9.8</ele>
        <time>2026-08-22T15:09:40Z</time>
      </trkpt>
      <trkpt lat="47.57204" lon="-2.71266">
        <ele>9.9</ele>
        <time>2026-08-22T15:09:41Z</time>
      </trkpt>
      <trkpt lat="47.572" lon="-2.71269">
        <ele>10.1</ele>
        <time>2026-08-22T15:09:42Z</time>
      </trkpt>
      <trkpt lat="47.57196" lon="-2.71271">
        <ele>10.2</ele>
        <time>2026-08-22T15:09:43Z</time>
      </trkpt>
      <trkpt lat="47.57192" lon="-2.71274">
        <ele>10.2</ele>
        <time>2026-08-22T15:09:44Z</time>
      </trkpt>
      <trkpt lat="47.57189" lon="-2.71276">
        <ele>10.2</ele>
        <time>2026-08-22T15:09:45Z</time>
      </trkpt>
      <trkpt lat="47.57185" lon="-2.71278">
        <ele>10.3</ele>
        <time>2026-08-22T15:09:46Z</time>
      </trkpt>
      <trkpt lat="47.57181" lon="-2.7128">
        <ele>10.4</ele>
        <time>2026-08-22T15:09:47Z</time>
      </trkpt>
      <trkpt lat="47.57177" lon="-2.71282">
        <ele>10.5</ele>
        <time>2026-08-22T15:09:48Z</time>
      </trkpt>
      <trkpt lat="47.57174" lon="-2.71282">
        <ele>10.6</ele>
        <time>2026-08-22T15:09:49Z</time>
      </trkpt>
      <trkpt lat="47.5717" lon="-2.7128">
        <ele>10.8</ele>
        <time>2026-08-22T15:09:50Z</time>
      </trkpt>
      <trkpt lat="47.57168" lon="-2.71276">
        <ele>11</ele>
        <time>2026-08-22T15:09:51Z</time>
      </trkpt>
      <trkpt lat="47.57166" lon="-2.71271">
        <ele>11</ele>
        <time>2026-08-22T15:09:52Z</time>
      </trkpt>
      <trkpt lat="47.57165" lon="-2.71266">
        <ele>11</ele>
        <time>2026-08-22T15:09:53Z</time>
      </trkpt>
      <trkpt lat="47.57164" lon="-2.71261">
        <ele>11</ele>
        <time>2026-08-22T15:09:54Z</time>
      </trkpt>
      <trkpt lat="47.57164" lon="-2.71255">
        <ele>11</ele>
        <time>2026-08-22T15:09:55Z</time>
      </trkpt>
      <trkpt lat="47.57163" lon="-2.71249">
        <ele>11</ele>
        <time>2026-08-22T15:09:56Z</time>
      </trkpt>
      <trkpt lat="47.57163" lon="-2.71243">
        <ele>11</ele>
        <time>2026-08-22T15:09:57Z</time>
      </trkpt>
      <trkpt lat="47.57163" lon="-2.71238">
        <ele>11.1</ele>
        <time>2026-08-22T15:09:58Z</time>
      </trkpt>
      <trkpt lat="47.57163" lon="-2.71232">
        <ele>11.1</ele>
        <time>2026-08-22T15:09:59Z</time>
      </trkpt>
      <trkpt lat="47.57163" lon="-2.71226">
        <ele>11.1</ele>
        <time>2026-08-22T15:10:00Z</time>
      </trkpt>
      <trkpt lat="47.57162" lon="-2.7122">
        <ele>11.2</ele>
        <time>2026-08-22T15:10:01Z</time>
      </trkpt>
      <trkpt lat="47.57162" lon="-2.71214">
        <ele>11.2</ele>
        <time>2026-08-22T15:10:02Z</time>
      </trkpt>
      <trkpt lat="47.57161" lon="-2.71208">
        <ele>11.2</ele>
        <time>2026-08-22T15:10:03Z</time>
      </trkpt>
      <trkpt lat="47.57161" lon="-2.71201">
        <ele>11.2</ele>
        <time>2026-08-22T15:10:04Z</time>
      </trkpt>
      <trkpt lat="47.57161" lon="-2.71195">
        <ele>11.2</ele>
        <time>2026-08-22T15:10:05Z</time>
      </trkpt>
      <trkpt lat="47.5716" lon="-2.71189">
        <ele>11.2</ele>
        <time>2026-08-22T15:10:06Z</time>
      </trkpt>
      <trkpt lat="47.5716" lon="-2.71183">
        <ele>11.2</ele>
        <time>2026-08-22T15:10:07Z</time>
      </trkpt>
      <trkpt lat="47.5716" lon="-2.71177">
        <ele>11.2</ele>
        <time>2026-08-22T15:10:08Z</time>
      </trkpt>
      <trkpt lat="47.57159" lon="-2.71171">
        <ele>11.3</ele>
        <time>2026-08-22T15:10:09Z</time>
      </trkpt>
      <trkpt lat="47.57159" lon="-2.71165">
        <ele>11.3</ele>
        <time>2026-08-22T15:10:10Z</time>
      </trkpt>
      <trkpt lat="47.57158" lon="-2.71159">
        <ele>11.2</ele>
        <time>2026-08-22T15:10:11Z</time>
      </trkpt>
      <trkpt lat="47.57156" lon="-2.71154">
        <ele>11.2</ele>
        <time>2026-08-22T15:10:12Z</time>
      </trkpt>
      <trkpt lat="47.57153" lon="-2.7115">
        <ele>11.2</ele>
        <time>2026-08-22T15:10:13Z</time>
      </trkpt>
      <trkpt lat="47.57149" lon="-2.71148">
        <ele>11.2</ele>
        <time>2026-08-22T15:10:14Z</time>
      </trkpt>
      <trkpt lat="47.57145" lon="-2.71148">
        <ele>11.3</ele>
        <time>2026-08-22T15:10:15Z</time>
      </trkpt>
      <trkpt lat="47.57141" lon="-2.71149">
        <ele>11.3</ele>
        <time>2026-08-22T15:10:16Z</time>
      </trkpt>
      <trkpt lat="47.57137" lon="-2.71152">
        <ele>11.5</ele>
        <time>2026-08-22T15:10:17Z</time>
      </trkpt>
      <trkpt lat="47.57134" lon="-2.71155">
        <ele>11.7</ele>
        <time>2026-08-22T15:10:18Z</time>
      </trkpt>
      <trkpt lat="47.57131" lon="-2.7116">
        <ele>11.8</ele>
        <time>2026-08-22T15:10:19Z</time>
      </trkpt>
      <trkpt lat="47.57128" lon="-2.71164">
        <ele>11.9</ele>
        <time>2026-08-22T15:10:20Z</time>
      </trkpt>
      <trkpt lat="47.57124" lon="-2.71168">
        <ele>12</ele>
        <time>2026-08-22T15:10:21Z</time>
      </trkpt>
      <trkpt lat="47.57121" lon="-2.71172">
        <ele>12</ele>
        <time>2026-08-22T15:10:22Z</time>
      </trkpt>
      <trkpt lat="47.57118" lon="-2.71176">
        <ele>12</ele>
        <time>2026-08-22T15:10:23Z</time>
      </trkpt>
      <trkpt lat="47.57115" lon="-2.7118">
        <ele>12</ele>
        <time>2026-08-22T15:10:24Z</time>
      </trkpt>
      <trkpt lat="47.57112" lon="-2.71185">
        <ele>12</ele>
        <time>2026-08-22T15:10:25Z</time>
      </trkpt>
      <trkpt lat="47.57108" lon="-2.71189">
        <ele>12.1</ele>
        <time>2026-08-22T15:10:26Z</time>
      </trkpt>
      <trkpt lat="47.57101" lon="-2.71197">
        <ele>12.3</ele>
        <time>2026-08-22T15:10:27Z</time>
      </trkpt>
      <trkpt lat="47.57101" lon="-2.71197">
        <ele>12.3</ele>
        <time>2026-08-22T15:10:28Z</time>
      </trkpt>
      <trkpt lat="47.57098" lon="-2.71201">
        <ele>12.4</ele>
        <time>2026-08-22T15:10:29Z</time>
      </trkpt>
      <trkpt lat="47.57095" lon="-2.71205">
        <ele>12.4</ele>
        <time>2026-08-22T15:10:30Z</time>
      </trkpt>
      <trkpt lat="47.57091" lon="-2.71209">
        <ele>12.3</ele>
        <time>2026-08-22T15:10:31Z</time>
      </trkpt>
      <trkpt lat="47.57087" lon="-2.71213">
        <ele>12.3</ele>
        <time>2026-08-22T15:10:32Z</time>
      </trkpt>
      <trkpt lat="47.57083" lon="-2.71217">
        <ele>12.2</ele>
        <time>2026-08-22T15:10:33Z</time>
      </trkpt>
      <trkpt lat="47.57079" lon="-2.7122">
        <ele>12.2</ele>
        <time>2026-08-22T15:10:34Z</time>
      </trkpt>
      <trkpt lat="47.57075" lon="-2.71222">
        <ele>12.3</ele>
        <time>2026-08-22T15:10:35Z</time>
      </trkpt>
      <trkpt lat="47.57071" lon="-2.71225">
        <ele>12.4</ele>
        <time>2026-08-22T15:10:36Z</time>
      </trkpt>
      <trkpt lat="47.57067" lon="-2.71226">
        <ele>12.6</ele>
        <time>2026-08-22T15:10:37Z</time>
      </trkpt>
      <trkpt lat="47.57062" lon="-2.71228">
        <ele>12.8</ele>
        <time>2026-08-22T15:10:38Z</time>
      </trkpt>
      <trkpt lat="47.57058" lon="-2.7123">
        <ele>12.9</ele>
        <time>2026-08-22T15:10:39Z</time>
      </trkpt>
      <trkpt lat="47.57053" lon="-2.71232">
        <ele>12.9</ele>
        <time>2026-08-22T15:10:40Z</time>
      </trkpt>
      <trkpt lat="47.57049" lon="-2.71233">
        <ele>12.8</ele>
        <time>2026-08-22T15:10:41Z</time>
      </trkpt>
      <trkpt lat="47.57044" lon="-2.71235">
        <ele>12.6</ele>
        <time>2026-08-22T15:10:42Z</time>
      </trkpt>
      <trkpt lat="47.5704" lon="-2.71236">
        <ele>12.4</ele>
        <time>2026-08-22T15:10:43Z</time>
      </trkpt>
      <trkpt lat="47.57035" lon="-2.71237">
        <ele>12.3</ele>
        <time>2026-08-22T15:10:44Z</time>
      </trkpt>
      <trkpt lat="47.57031" lon="-2.71239">
        <ele>12.1</ele>
        <time>2026-08-22T15:10:45Z</time>
      </trkpt>
      <trkpt lat="47.57026" lon="-2.7124">
        <ele>12</ele>
        <time>2026-08-22T15:10:46Z</time>
      </trkpt>
      <trkpt lat="47.57021" lon="-2.71241">
        <ele>12</ele>
        <time>2026-08-22T15:10:47Z</time>
      </trkpt>
      <trkpt lat="47.57016" lon="-2.71243">
        <ele>12</ele>
        <time>2026-08-22T15:10:48Z</time>
      </trkpt>
      <trkpt lat="47.57011" lon="-2.71244">
        <ele>12</ele>
        <time>2026-08-22T15:10:49Z</time>
      </trkpt>
      <trkpt lat="47.57006" lon="-2.71245">
        <ele>12</ele>
        <time>2026-08-22T15:10:50Z</time>
      </trkpt>
      <trkpt lat="47.57" lon="-2.71247">
        <ele>12</ele>
        <time>2026-08-22T15:10:51Z</time>
      </trkpt>
      <trkpt lat="47.56995" lon="-2.71248">
        <ele>12</ele>
        <time>2026-08-22T15:10:52Z</time>
      </trkpt>
      <trkpt lat="47.5699" lon="-2.71249">
        <ele>12</ele>
        <time>2026-08-22T15:10:53Z</time>
      </trkpt>
      <trkpt lat="47.56984" lon="-2.71251">
        <ele>12</ele>
        <time>2026-08-22T15:10:54Z</time>
      </trkpt>
      <trkpt lat="47.56979" lon="-2.71252">
        <ele>11.9</ele>
        <time>2026-08-22T15:10:55Z</time>
      </trkpt>
      <trkpt lat="47.56974" lon="-2.71253">
        <ele>11.9</ele>
        <time>2026-08-22T15:10:56Z</time>
      </trkpt>
      <trkpt lat="47.56969" lon="-2.71254">
        <ele>11.8</ele>
        <time>2026-08-22T15:10:57Z</time>
      </trkpt>
      <trkpt lat="47.56963" lon="-2.71255">
        <ele>11.5</ele>
        <time>2026-08-22T15:10:58Z</time>
      </trkpt>
      <trkpt lat="47.56958" lon="-2.71256">
        <ele>11.4</ele>
        <time>2026-08-22T15:10:59Z</time>
      </trkpt>
      <trkpt lat="47.56953" lon="-2.71257">
        <ele>11.2</ele>
        <time>2026-08-22T15:11:00Z</time>
      </trkpt>
      <trkpt lat="47.56948" lon="-2.71258">
        <ele>11.1</ele>
        <time>2026-08-22T15:11:01Z</time>
      </trkpt>
      <trkpt lat="47.56943" lon="-2.71258">
        <ele>11</ele>
        <time>2026-08-22T15:11:02Z</time>
      </trkpt>
      <trkpt lat="47.56937" lon="-2.71259">
        <ele>11</ele>
        <time>2026-08-22T15:11:03Z</time>
      </trkpt>
      <trkpt lat="47.56932" lon="-2.7126">
        <ele>11</ele>
        <time>2026-08-22T15:11:04Z</time>
      </trkpt>
      <trkpt lat="47.56926" lon="-2.71261">
        <ele>11</ele>
        <time>2026-08-22T15:11:05Z</time>
      </trkpt>
      <trkpt lat="47.56921" lon="-2.71262">
        <ele>11</ele>
        <time>2026-08-22T15:11:06Z</time>
      </trkpt>
      <trkpt lat="47.56915" lon="-2.71263">
        <ele>10.9</ele>
        <time>2026-08-22T15:11:07Z</time>
      </trkpt>
      <trkpt lat="47.56909" lon="-2.71264">
        <ele>10.7</ele>
        <time>2026-08-22T15:11:08Z</time>
      </trkpt>
      <trkpt lat="47.56903" lon="-2.71265">
        <ele>10.5</ele>
        <time>2026-08-22T15:11:09Z</time>
      </trkpt>
      <trkpt lat="47.56898" lon="-2.71267">
        <ele>10.3</ele>
        <time>2026-08-22T15:11:10Z</time>
      </trkpt>
      <trkpt lat="47.56892" lon="-2.71269">
        <ele>10.1</ele>
        <time>2026-08-22T15:11:11Z</time>
      </trkpt>
      <trkpt lat="47.56886" lon="-2.7127">
        <ele>10</ele>
        <time>2026-08-22T15:11:12Z</time>
      </trkpt>
      <trkpt lat="47.5688" lon="-2.71272">
        <ele>10</ele>
        <time>2026-08-22T15:11:13Z</time>
      </trkpt>
      <trkpt lat="47.56874" lon="-2.71274">
        <ele>10</ele>
        <time>2026-08-22T15:11:14Z</time>
      </trkpt>
      <trkpt lat="47.56868" lon="-2.71276">
        <ele>10</ele>
        <time>2026-08-22T15:11:15Z</time>
      </trkpt>
      <trkpt lat="47.56862" lon="-2.71278">
        <ele>10</ele>
        <time>2026-08-22T15:11:16Z</time>
      </trkpt>
      <trkpt lat="47.56856" lon="-2.7128">
        <ele>9.8</ele>
        <time>2026-08-22T15:11:17Z</time>
      </trkpt>
      <trkpt lat="47.5685" lon="-2.71282">
        <ele>9.6</ele>
        <time>2026-08-22T15:11:18Z</time>
      </trkpt>
      <trkpt lat="47.56844" lon="-2.71284">
        <ele>9.4</ele>
        <time>2026-08-22T15:11:19Z</time>
      </trkpt>
      <trkpt lat="47.56838" lon="-2.71286">
        <ele>9.2</ele>
        <time>2026-08-22T15:11:20Z</time>
      </trkpt>
      <trkpt lat="47.56832" lon="-2.71288">
        <ele>9</ele>
        <time>2026-08-22T15:11:21Z</time>
      </trkpt>
      <trkpt lat="47.56825" lon="-2.7129">
        <ele>9</ele>
        <time>2026-08-22T15:11:22Z</time>
      </trkpt>
      <trkpt lat="47.56819" lon="-2.71292">
        <ele>9</ele>
        <time>2026-08-22T15:11:23Z</time>
      </trkpt>
      <trkpt lat="47.56813" lon="-2.71294">
        <ele>9</ele>
        <time>2026-08-22T15:11:24Z</time>
      </trkpt>
      <trkpt lat="47.56806" lon="-2.71296">
        <ele>9</ele>
        <time>2026-08-22T15:11:25Z</time>
      </trkpt>
      <trkpt lat="47.56799" lon="-2.71297">
        <ele>8.8</ele>
        <time>2026-08-22T15:11:26Z</time>
      </trkpt>
      <trkpt lat="47.56786" lon="-2.71299">
        <ele>8.3</ele>
        <time>2026-08-22T15:11:27Z</time>
      </trkpt>
      <trkpt lat="47.56786" lon="-2.71299">
        <ele>8.3</ele>
        <time>2026-08-22T15:11:28Z</time>
      </trkpt>
      <trkpt lat="47.56779" lon="-2.713">
        <ele>8</ele>
        <time>2026-08-22T15:11:29Z</time>
      </trkpt>
      <trkpt lat="47.56773" lon="-2.71301">
        <ele>7.8</ele>
        <time>2026-08-22T15:11:30Z</time>
      </trkpt>
      <trkpt lat="47.56766" lon="-2.71302">
        <ele>7.6</ele>
        <time>2026-08-22T15:11:31Z</time>
      </trkpt>
      <trkpt lat="47.5676" lon="-2.71303">
        <ele>7.4</ele>
        <time>2026-08-22T15:11:32Z</time>
      </trkpt>
      <trkpt lat="47.56754" lon="-2.71304">
        <ele>7.1</ele>
        <time>2026-08-22T15:11:33Z</time>
      </trkpt>
      <trkpt lat="47.56747" lon="-2.71306">
        <ele>6.9</ele>
        <time>2026-08-22T15:11:34Z</time>
      </trkpt>
      <trkpt lat="47.56741" lon="-2.71307">
        <ele>6.7</ele>
        <time>2026-08-22T15:11:35Z</time>
      </trkpt>
      <trkpt lat="47.56734" lon="-2.71309">
        <ele>6.4</ele>
        <time>2026-08-22T15:11:36Z</time>
      </trkpt>
      <trkpt lat="47.56727" lon="-2.71311">
        <ele>6.2</ele>
        <time>2026-08-22T15:11:37Z</time>
      </trkpt>
      <trkpt lat="47.5672" lon="-2.71313">
        <ele>6</ele>
        <time>2026-08-22T15:11:38Z</time>
      </trkpt>
      <trkpt lat="47.56713" lon="-2.71315">
        <ele>5.9</ele>
        <time>2026-08-22T15:11:39Z</time>
      </trkpt>
      <trkpt lat="47.56707" lon="-2.71317">
        <ele>5.8</ele>
        <time>2026-08-22T15:11:40Z</time>
      </trkpt>
      <trkpt lat="47.567" lon="-2.71319">
        <ele>5.6</ele>
        <time>2026-08-22T15:11:41Z</time>
      </trkpt>
      <trkpt lat="47.56693" lon="-2.71322">
        <ele>5.4</ele>
        <time>2026-08-22T15:11:42Z</time>
      </trkpt>
      <trkpt lat="47.56686" lon="-2.71324">
        <ele>5.2</ele>
        <time>2026-08-22T15:11:43Z</time>
      </trkpt>
      <trkpt lat="47.5668" lon="-2.71327">
        <ele>5.1</ele>
        <time>2026-08-22T15:11:44Z</time>
      </trkpt>
      <trkpt lat="47.56674" lon="-2.71331">
        <ele>5</ele>
        <time>2026-08-22T15:11:45Z</time>
      </trkpt>
      <trkpt lat="47.56669" lon="-2.71337">
        <ele>5</ele>
        <time>2026-08-22T15:11:46Z</time>
      </trkpt>
      <trkpt lat="47.56666" lon="-2.71345">
        <ele>5</ele>
        <time>2026-08-22T15:11:47Z</time>
      </trkpt>
      <trkpt lat="47.56665" lon="-2.71353">
        <ele>4.9</ele>
        <time>2026-08-22T15:11:48Z</time>
      </trkpt>
      <trkpt lat="47.56665" lon="-2.71362">
        <ele>4.9</ele>
        <time>2026-08-22T15:11:49Z</time>
      </trkpt>
      <trkpt lat="47.56665" lon="-2.7137">
        <ele>4.6</ele>
        <time>2026-08-22T15:11:50Z</time>
      </trkpt>
      <trkpt lat="47.56666" lon="-2.71379">
        <ele>4.3</ele>
        <time>2026-08-22T15:11:51Z</time>
      </trkpt>
      <trkpt lat="47.56666" lon="-2.71387">
        <ele>4.1</ele>
        <time>2026-08-22T15:11:52Z</time>
      </trkpt>
      <trkpt lat="47.56667" lon="-2.71394">
        <ele>4</ele>
        <time>2026-08-22T15:11:53Z</time>
      </trkpt>
      <trkpt lat="47.56667" lon="-2.71402">
        <ele>4</ele>
        <time>2026-08-22T15:11:54Z</time>
      </trkpt>
      <trkpt lat="47.56668" lon="-2.7141">
        <ele>4</ele>
        <time>2026-08-22T15:11:55Z</time>
      </trkpt>
      <trkpt lat="47.56669" lon="-2.71417">
        <ele>4.1</ele>
        <time>2026-08-22T15:11:56Z</time>
      </trkpt>
      <trkpt lat="47.56669" lon="-2.71425">
        <ele>4.1</ele>
        <time>2026-08-22T15:11:57Z</time>
      </trkpt>
      <trkpt lat="47.5667" lon="-2.71433">
        <ele>4</ele>
        <time>2026-08-22T15:11:58Z</time>
      </trkpt>
      <trkpt lat="47.56671" lon="-2.7144">
        <ele>4</ele>
        <time>2026-08-22T15:11:59Z</time>
      </trkpt>
      <trkpt lat="47.56672" lon="-2.71447">
        <ele>4</ele>
        <time>2026-08-22T15:12:00Z</time>
      </trkpt>
      <trkpt lat="47.56673" lon="-2.71456">
        <ele>4</ele>
        <time>2026-08-22T15:12:01Z</time>
      </trkpt>
      <trkpt lat="47.56673" lon="-2.71464">
        <ele>4</ele>
        <time>2026-08-22T15:12:02Z</time>
      </trkpt>
      <trkpt lat="47.56673" lon="-2.71473">
        <ele>4</ele>
        <time>2026-08-22T15:12:03Z</time>
      </trkpt>
      <trkpt lat="47.56674" lon="-2.71481">
        <ele>4.1</ele>
        <time>2026-08-22T15:12:04Z</time>
      </trkpt>
      <trkpt lat="47.56674" lon="-2.71488">
        <ele>4.1</ele>
        <time>2026-08-22T15:12:05Z</time>
      </trkpt>
      <trkpt lat="47.56675" lon="-2.71496">
        <ele>4.3</ele>
        <time>2026-08-22T15:12:06Z</time>
      </trkpt>
      <trkpt lat="47.56677" lon="-2.71503">
        <ele>4.4</ele>
        <time>2026-08-22T15:12:07Z</time>
      </trkpt>
      <trkpt lat="47.56678" lon="-2.7151">
        <ele>4.4</ele>
        <time>2026-08-22T15:12:08Z</time>
      </trkpt>
      <trkpt lat="47.56678" lon="-2.71517">
        <ele>4.4</ele>
        <time>2026-08-22T15:12:09Z</time>
      </trkpt>
      <trkpt lat="47.56679" lon="-2.71523">
        <ele>4.4</ele>
        <time>2026-08-22T15:12:10Z</time>
      </trkpt>
      <trkpt lat="47.56679" lon="-2.71531">
        <ele>4.4</ele>
        <time>2026-08-22T15:12:11Z</time>
      </trkpt>
      <trkpt lat="47.56677" lon="-2.71538">
        <ele>4.2</ele>
        <time>2026-08-22T15:12:12Z</time>
      </trkpt>
      <trkpt lat="47.56675" lon="-2.71544">
        <ele>4.1</ele>
        <time>2026-08-22T15:12:13Z</time>
      </trkpt>
      <trkpt lat="47.56672" lon="-2.71548">
        <ele>4.1</ele>
        <time>2026-08-22T15:12:14Z</time>
      </trkpt>
      <trkpt lat="47.56669" lon="-2.71552">
        <ele>4</ele>
        <time>2026-08-22T15:12:15Z</time>
      </trkpt>
      <trkpt lat="47.56665" lon="-2.71554">
        <ele>4.1</ele>
        <time>2026-08-22T15:12:16Z</time>
      </trkpt>
      <trkpt lat="47.56662" lon="-2.71556">
        <ele>4.2</ele>
        <time>2026-08-22T15:12:17Z</time>
      </trkpt>
      <trkpt lat="47.56658" lon="-2.71556">
        <ele>4.3</ele>
        <time>2026-08-22T15:12:18Z</time>
      </trkpt>
      <trkpt lat="47.56654" lon="-2.71557">
        <ele>4.5</ele>
        <time>2026-08-22T15:12:19Z</time>
      </trkpt>
      <trkpt lat="47.5665" lon="-2.71558">
        <ele>4.6</ele>
        <time>2026-08-22T15:12:20Z</time>
      </trkpt>
      <trkpt lat="47.56646" lon="-2.71559">
        <ele>4.8</ele>
        <time>2026-08-22T15:12:21Z</time>
      </trkpt>
      <trkpt lat="47.56642" lon="-2.71559">
        <ele>4.9</ele>
        <time>2026-08-22T15:12:22Z</time>
      </trkpt>
      <trkpt lat="47.56637" lon="-2.7156">
        <ele>5.1</ele>
        <time>2026-08-22T15:12:23Z</time>
      </trkpt>
      <trkpt lat="47.56633" lon="-2.7156">
        <ele>5.2</ele>
        <time>2026-08-22T15:12:24Z</time>
      </trkpt>
      <trkpt lat="47.56629" lon="-2.71561">
        <ele>5.4</ele>
        <time>2026-08-22T15:12:25Z</time>
      </trkpt>
      <trkpt lat="47.56625" lon="-2.71562">
        <ele>5.5</ele>
        <time>2026-08-22T15:12:26Z</time>
      </trkpt>
      <trkpt lat="47.56621" lon="-2.71563">
        <ele>5.6</ele>
        <time>2026-08-22T15:12:27Z</time>
      </trkpt>
      <trkpt lat="47.56616" lon="-2.71564">
        <ele>5.8</ele>
        <time>2026-08-22T15:12:28Z</time>
      </trkpt>
      <trkpt lat="47.56612" lon="-2.71564">
        <ele>6</ele>
        <time>2026-08-22T15:12:29Z</time>
      </trkpt>
      <trkpt lat="47.56608" lon="-2.71565">
        <ele>6.1</ele>
        <time>2026-08-22T15:12:30Z</time>
      </trkpt>
      <trkpt lat="47.56604" lon="-2.71565">
        <ele>6.3</ele>
        <time>2026-08-22T15:12:31Z</time>
      </trkpt>
      <trkpt lat="47.566" lon="-2.71566">
        <ele>6.4</ele>
        <time>2026-08-22T15:12:32Z</time>
      </trkpt>
      <trkpt lat="47.56596" lon="-2.71566">
        <ele>6.5</ele>
        <time>2026-08-22T15:12:33Z</time>
      </trkpt>
      <trkpt lat="47.56592" lon="-2.71567">
        <ele>6.7</ele>
        <time>2026-08-22T15:12:34Z</time>
      </trkpt>
      <trkpt lat="47.56588" lon="-2.71567">
        <ele>6.8</ele>
        <time>2026-08-22T15:12:35Z</time>
      </trkpt>
      <trkpt lat="47.56584" lon="-2.71568">
        <ele>7</ele>
        <time>2026-08-22T15:12:36Z</time>
      </trkpt>
      <trkpt lat="47.5658" lon="-2.71569">
        <ele>7.1</ele>
        <time>2026-08-22T15:12:37Z</time>
      </trkpt>
      <trkpt lat="47.56576" lon="-2.7157">
        <ele>7.3</ele>
        <time>2026-08-22T15:12:38Z</time>
      </trkpt>
      <trkpt lat="47.56573" lon="-2.71573">
        <ele>7.4</ele>
        <time>2026-08-22T15:12:39Z</time>
      </trkpt>
      <trkpt lat="47.56571" lon="-2.71577">
        <ele>7.4</ele>
        <time>2026-08-22T15:12:40Z</time>
      </trkpt>
      <trkpt lat="47.5657" lon="-2.71582">
        <ele>7.5</ele>
        <time>2026-08-22T15:12:41Z</time>
      </trkpt>
      <trkpt lat="47.56569" lon="-2.71587">
        <ele>7.6</ele>
        <time>2026-08-22T15:12:42Z</time>
      </trkpt>
      <trkpt lat="47.56569" lon="-2.71593">
        <ele>7.9</ele>
        <time>2026-08-22T15:12:43Z</time>
      </trkpt>
      <trkpt lat="47.56569" lon="-2.71599">
        <ele>8.1</ele>
        <time>2026-08-22T15:12:44Z</time>
      </trkpt>
      <trkpt lat="47.56569" lon="-2.71605">
        <ele>8.3</ele>
        <time>2026-08-22T15:12:45Z</time>
      </trkpt>
      <trkpt lat="47.56569" lon="-2.71611">
        <ele>8.5</ele>
        <time>2026-08-22T15:12:46Z</time>
      </trkpt>
      <trkpt lat="47.56569" lon="-2.71617">
        <ele>8.5</ele>
        <time>2026-08-22T15:12:47Z</time>
      </trkpt>
      <trkpt lat="47.56568" lon="-2.71624">
        <ele>8.6</ele>
        <time>2026-08-22T15:12:48Z</time>
      </trkpt>
      <trkpt lat="47.56567" lon="-2.7163">
        <ele>8.6</ele>
        <time>2026-08-22T15:12:49Z</time>
      </trkpt>
      <trkpt lat="47.56566" lon="-2.71637">
        <ele>8.6</ele>
        <time>2026-08-22T15:12:50Z</time>
      </trkpt>
      <trkpt lat="47.56564" lon="-2.71643">
        <ele>8.7</ele>
        <time>2026-08-22T15:12:51Z</time>
      </trkpt>
      <trkpt lat="47.56563" lon="-2.71649">
        <ele>8.7</ele>
        <time>2026-08-22T15:12:52Z</time>
      </trkpt>
      <trkpt lat="47.56562" lon="-2.71656">
        <ele>8.8</ele>
        <time>2026-08-22T15:12:53Z</time>
      </trkpt>
      <trkpt lat="47.56561" lon="-2.71662">
        <ele>8.8</ele>
        <time>2026-08-22T15:12:54Z</time>
      </trkpt>
      <trkpt lat="47.56559" lon="-2.71668">
        <ele>8.8</ele>
        <time>2026-08-22T15:12:55Z</time>
      </trkpt>
      <trkpt lat="47.56558" lon="-2.71674">
        <ele>8.6</ele>
        <time>2026-08-22T15:12:56Z</time>
      </trkpt>
      <trkpt lat="47.56556" lon="-2.71681">
        <ele>8.5</ele>
        <time>2026-08-22T15:12:57Z</time>
      </trkpt>
      <trkpt lat="47.56555" lon="-2.71687">
        <ele>8.3</ele>
        <time>2026-08-22T15:12:58Z</time>
      </trkpt>
      <trkpt lat="47.56553" lon="-2.71694">
        <ele>8.1</ele>
        <time>2026-08-22T15:12:59Z</time>
      </trkpt>
      <trkpt lat="47.56551" lon="-2.717">
        <ele>8</ele>
        <time>2026-08-22T15:13:00Z</time>
      </trkpt>
      <trkpt lat="47.56549" lon="-2.71707">
        <ele>7.9</ele>
        <time>2026-08-22T15:13:01Z</time>
      </trkpt>
      <trkpt lat="47.56548" lon="-2.71714">
        <ele>7.8</ele>
        <time>2026-08-22T15:13:02Z</time>
      </trkpt>
      <trkpt lat="47.56546" lon="-2.71721">
        <ele>7.7</ele>
        <time>2026-08-22T15:13:03Z</time>
      </trkpt>
      <trkpt lat="47.56544" lon="-2.71728">
        <ele>7.7</ele>
        <time>2026-08-22T15:13:04Z</time>
      </trkpt>
      <trkpt lat="47.56543" lon="-2.71734">
        <ele>7.7</ele>
        <time>2026-08-22T15:13:05Z</time>
      </trkpt>
      <trkpt lat="47.56542" lon="-2.71741">
        <ele>7.6</ele>
        <time>2026-08-22T15:13:06Z</time>
      </trkpt>
      <trkpt lat="47.56541" lon="-2.71747">
        <ele>7.6</ele>
        <time>2026-08-22T15:13:07Z</time>
      </trkpt>
      <trkpt lat="47.5654" lon="-2.71754">
        <ele>7.6</ele>
        <time>2026-08-22T15:13:08Z</time>
      </trkpt>
      <trkpt lat="47.56539" lon="-2.71761">
        <ele>7.6</ele>
        <time>2026-08-22T15:13:09Z</time>
      </trkpt>
      <trkpt lat="47.56539" lon="-2.71767">
        <ele>7.6</ele>
        <time>2026-08-22T15:13:10Z</time>
      </trkpt>
      <trkpt lat="47.56538" lon="-2.71775">
        <ele>7.6</ele>
        <time>2026-08-22T15:13:11Z</time>
      </trkpt>
      <trkpt lat="47.56537" lon="-2.71782">
        <ele>7.6</ele>
        <time>2026-08-22T15:13:12Z</time>
      </trkpt>
      <trkpt lat="47.56537" lon="-2.71789">
        <ele>7.5</ele>
        <time>2026-08-22T15:13:13Z</time>
      </trkpt>
      <trkpt lat="47.56537" lon="-2.71796">
        <ele>7.5</ele>
        <time>2026-08-22T15:13:14Z</time>
      </trkpt>
      <trkpt lat="47.56536" lon="-2.71803">
        <ele>7.4</ele>
        <time>2026-08-22T15:13:15Z</time>
      </trkpt>
      <trkpt lat="47.56536" lon="-2.7181">
        <ele>7.3</ele>
        <time>2026-08-22T15:13:16Z</time>
      </trkpt>
      <trkpt lat="47.56535" lon="-2.71818">
        <ele>7.1</ele>
        <time>2026-08-22T15:13:17Z</time>
      </trkpt>
      <trkpt lat="47.56533" lon="-2.71824">
        <ele>7.1</ele>
        <time>2026-08-22T15:13:18Z</time>
      </trkpt>
      <trkpt lat="47.56532" lon="-2.71831">
        <ele>6.9</ele>
        <time>2026-08-22T15:13:19Z</time>
      </trkpt>
      <trkpt lat="47.56529" lon="-2.71838">
        <ele>6.8</ele>
        <time>2026-08-22T15:13:20Z</time>
      </trkpt>
      <trkpt lat="47.56527" lon="-2.71845">
        <ele>6.7</ele>
        <time>2026-08-22T15:13:21Z</time>
      </trkpt>
      <trkpt lat="47.56524" lon="-2.71852">
        <ele>6.7</ele>
        <time>2026-08-22T15:13:22Z</time>
      </trkpt>
      <trkpt lat="47.56522" lon="-2.71859">
        <ele>6.7</ele>
        <time>2026-08-22T15:13:23Z</time>
      </trkpt>
      <trkpt lat="47.56519" lon="-2.71866">
        <ele>6.7</ele>
        <time>2026-08-22T15:13:24Z</time>
      </trkpt>
      <trkpt lat="47.56516" lon="-2.71873">
        <ele>6.5</ele>
        <time>2026-08-22T15:13:25Z</time>
      </trkpt>
      <trkpt lat="47.56513" lon="-2.7188">
        <ele>6.2</ele>
        <time>2026-08-22T15:13:26Z</time>
      </trkpt>
      <trkpt lat="47.56508" lon="-2.71896">
        <ele>5.5</ele>
        <time>2026-08-22T15:13:27Z</time>
      </trkpt>
      <trkpt lat="47.56508" lon="-2.71896">
        <ele>5.5</ele>
        <time>2026-08-22T15:13:28Z</time>
      </trkpt>
      <trkpt lat="47.56506" lon="-2.71905">
        <ele>5.3</ele>
        <time>2026-08-22T15:13:29Z</time>
      </trkpt>
      <trkpt lat="47.56505" lon="-2.71913">
        <ele>5.1</ele>
        <time>2026-08-22T15:13:30Z</time>
      </trkpt>
      <trkpt lat="47.56503" lon="-2.71922">
        <ele>5</ele>
        <time>2026-08-22T15:13:31Z</time>
      </trkpt>
      <trkpt lat="47.56502" lon="-2.71931">
        <ele>5</ele>
        <time>2026-08-22T15:13:32Z</time>
      </trkpt>
      <trkpt lat="47.565" lon="-2.7194">
        <ele>5</ele>
        <time>2026-08-22T15:13:33Z</time>
      </trkpt>
      <trkpt lat="47.56499" lon="-2.71949">
        <ele>4.9</ele>
        <time>2026-08-22T15:13:34Z</time>
      </trkpt>
      <trkpt lat="47.56499" lon="-2.71958">
        <ele>4.5</ele>
        <time>2026-08-22T15:13:35Z</time>
      </trkpt>
      <trkpt lat="47.56498" lon="-2.71967">
        <ele>4.3</ele>
        <time>2026-08-22T15:13:36Z</time>
      </trkpt>
      <trkpt lat="47.56498" lon="-2.71977">
        <ele>4.1</ele>
        <time>2026-08-22T15:13:37Z</time>
      </trkpt>
      <trkpt lat="47.56498" lon="-2.71986">
        <ele>4.1</ele>
        <time>2026-08-22T15:13:38Z</time>
      </trkpt>
      <trkpt lat="47.56499" lon="-2.71996">
        <ele>4</ele>
        <time>2026-08-22T15:13:39Z</time>
      </trkpt>
      <trkpt lat="47.565" lon="-2.72005">
        <ele>4</ele>
        <time>2026-08-22T15:13:40Z</time>
      </trkpt>
      <trkpt lat="47.56501" lon="-2.72014">
        <ele>4</ele>
        <time>2026-08-22T15:13:41Z</time>
      </trkpt>
      <trkpt lat="47.56503" lon="-2.72022">
        <ele>4</ele>
        <time>2026-08-22T15:13:42Z</time>
      </trkpt>
      <trkpt lat="47.56505" lon="-2.7203">
        <ele>4.1</ele>
        <time>2026-08-22T15:13:43Z</time>
      </trkpt>
      <trkpt lat="47.56507" lon="-2.72038">
        <ele>4.3</ele>
        <time>2026-08-22T15:13:44Z</time>
      </trkpt>
      <trkpt lat="47.5651" lon="-2.72045">
        <ele>4.4</ele>
        <time>2026-08-22T15:13:45Z</time>
      </trkpt>
      <trkpt lat="47.56512" lon="-2.72053">
        <ele>4.5</ele>
        <time>2026-08-22T15:13:46Z</time>
      </trkpt>
      <trkpt lat="47.56514" lon="-2.7206">
        <ele>4.6</ele>
        <time>2026-08-22T15:13:47Z</time>
      </trkpt>
      <trkpt lat="47.56516" lon="-2.72067">
        <ele>4.7</ele>
        <time>2026-08-22T15:13:48Z</time>
      </trkpt>
      <trkpt lat="47.56517" lon="-2.72074">
        <ele>4.8</ele>
        <time>2026-08-22T15:13:49Z</time>
      </trkpt>
      <trkpt lat="47.56519" lon="-2.72081">
        <ele>4.9</ele>
        <time>2026-08-22T15:13:50Z</time>
      </trkpt>
      <trkpt lat="47.5652" lon="-2.72089">
        <ele>5.1</ele>
        <time>2026-08-22T15:13:51Z</time>
      </trkpt>
      <trkpt lat="47.56521" lon="-2.72096">
        <ele>5.1</ele>
        <time>2026-08-22T15:13:52Z</time>
      </trkpt>
      <trkpt lat="47.56521" lon="-2.72103">
        <ele>5.2</ele>
        <time>2026-08-22T15:13:53Z</time>
      </trkpt>
      <trkpt lat="47.56521" lon="-2.7211">
        <ele>5.2</ele>
        <time>2026-08-22T15:13:54Z</time>
      </trkpt>
      <trkpt lat="47.56521" lon="-2.72117">
        <ele>5.4</ele>
        <time>2026-08-22T15:13:55Z</time>
      </trkpt>
      <trkpt lat="47.56521" lon="-2.72124">
        <ele>5.6</ele>
        <time>2026-08-22T15:13:56Z</time>
      </trkpt>
      <trkpt lat="47.5652" lon="-2.72131">
        <ele>5.8</ele>
        <time>2026-08-22T15:13:57Z</time>
      </trkpt>
      <trkpt lat="47.56519" lon="-2.72138">
        <ele>6</ele>
        <time>2026-08-22T15:13:58Z</time>
      </trkpt>
      <trkpt lat="47.56518" lon="-2.72145">
        <ele>6.1</ele>
        <time>2026-08-22T15:13:59Z</time>
      </trkpt>
      <trkpt lat="47.56517" lon="-2.72152">
        <ele>6.3</ele>
        <time>2026-08-22T15:14:00Z</time>
      </trkpt>
      <trkpt lat="47.56517" lon="-2.72159">
        <ele>6.4</ele>
        <time>2026-08-22T15:14:01Z</time>
      </trkpt>
      <trkpt lat="47.56516" lon="-2.72166">
        <ele>6.6</ele>
        <time>2026-08-22T15:14:02Z</time>
      </trkpt>
      <trkpt lat="47.56515" lon="-2.72173">
        <ele>6.5</ele>
        <time>2026-08-22T15:14:03Z</time>
      </trkpt>
      <trkpt lat="47.56515" lon="-2.7218">
        <ele>6.5</ele>
        <time>2026-08-22T15:14:04Z</time>
      </trkpt>
      <trkpt lat="47.56515" lon="-2.72187">
        <ele>6.5</ele>
        <time>2026-08-22T15:14:05Z</time>
      </trkpt>
      <trkpt lat="47.56516" lon="-2.72195">
        <ele>6.5</ele>
        <time>2026-08-22T15:14:06Z</time>
      </trkpt>
      <trkpt lat="47.56516" lon="-2.72203">
        <ele>6.1</ele>
        <time>2026-08-22T15:14:07Z</time>
      </trkpt>
      <trkpt lat="47.56516" lon="-2.72211">
        <ele>5.6</ele>
        <time>2026-08-22T15:14:08Z</time>
      </trkpt>
      <trkpt lat="47.56517" lon="-2.72219">
        <ele>5.2</ele>
        <time>2026-08-22T15:14:09Z</time>
      </trkpt>
      <trkpt lat="47.56517" lon="-2.72228">
        <ele>5</ele>
        <time>2026-08-22T15:14:10Z</time>
      </trkpt>
      <trkpt lat="47.56517" lon="-2.72238">
        <ele>5</ele>
        <time>2026-08-22T15:14:11Z</time>
      </trkpt>
      <trkpt lat="47.56516" lon="-2.72247">
        <ele>5</ele>
        <time>2026-08-22T15:14:12Z</time>
      </trkpt>
      <trkpt lat="47.56515" lon="-2.72257">
        <ele>4.7</ele>
        <time>2026-08-22T15:14:13Z</time>
      </trkpt>
      <trkpt lat="47.56515" lon="-2.72267">
        <ele>4.4</ele>
        <time>2026-08-22T15:14:14Z</time>
      </trkpt>
      <trkpt lat="47.56515" lon="-2.72276">
        <ele>4.1</ele>
        <time>2026-08-22T15:14:15Z</time>
      </trkpt>
      <trkpt lat="47.56515" lon="-2.72286">
        <ele>4</ele>
        <time>2026-08-22T15:14:16Z</time>
      </trkpt>
      <trkpt lat="47.56516" lon="-2.72296">
        <ele>4</ele>
        <time>2026-08-22T15:14:17Z</time>
      </trkpt>
      <trkpt lat="47.56518" lon="-2.72305">
        <ele>4</ele>
        <time>2026-08-22T15:14:18Z</time>
      </trkpt>
      <trkpt lat="47.5652" lon="-2.72315">
        <ele>3.8</ele>
        <time>2026-08-22T15:14:19Z</time>
      </trkpt>
      <trkpt lat="47.56522" lon="-2.72324">
        <ele>3.5</ele>
        <time>2026-08-22T15:14:20Z</time>
      </trkpt>
      <trkpt lat="47.56525" lon="-2.72333">
        <ele>3.1</ele>
        <time>2026-08-22T15:14:21Z</time>
      </trkpt>
      <trkpt lat="47.56528" lon="-2.72341">
        <ele>3.3</ele>
        <time>2026-08-22T15:14:22Z</time>
      </trkpt>
      <trkpt lat="47.5653" lon="-2.7235">
        <ele>3.6</ele>
        <time>2026-08-22T15:14:23Z</time>
      </trkpt>
      <trkpt lat="47.56533" lon="-2.72358">
        <ele>3.9</ele>
        <time>2026-08-22T15:14:24Z</time>
      </trkpt>
      <trkpt lat="47.56534" lon="-2.72367">
        <ele>4</ele>
        <time>2026-08-22T15:14:25Z</time>
      </trkpt>
      <trkpt lat="47.56536" lon="-2.72376">
        <ele>4</ele>
        <time>2026-08-22T15:14:26Z</time>
      </trkpt>
      <trkpt lat="47.56537" lon="-2.72393">
        <ele>4</ele>
        <time>2026-08-22T15:14:27Z</time>
      </trkpt>
      <trkpt lat="47.56537" lon="-2.72393">
        <ele>4</ele>
        <time>2026-08-22T15:14:28Z</time>
      </trkpt>
      <trkpt lat="47.56538" lon="-2.72401">
        <ele>4.2</ele>
        <time>2026-08-22T15:14:29Z</time>
      </trkpt>
      <trkpt lat="47.56539" lon="-2.72409">
        <ele>4.3</ele>
        <time>2026-08-22T15:14:30Z</time>
      </trkpt>
      <trkpt lat="47.5654" lon="-2.72417">
        <ele>4.4</ele>
        <time>2026-08-22T15:14:31Z</time>
      </trkpt>
      <trkpt lat="47.56541" lon="-2.72424">
        <ele>4.6</ele>
        <time>2026-08-22T15:14:32Z</time>
      </trkpt>
      <trkpt lat="47.56543" lon="-2.72431">
        <ele>4.8</ele>
        <time>2026-08-22T15:14:33Z</time>
      </trkpt>
      <trkpt lat="47.56545" lon="-2.72436">
        <ele>4.9</ele>
        <time>2026-08-22T15:14:34Z</time>
      </trkpt>
      <trkpt lat="47.56547" lon="-2.72441">
        <ele>5</ele>
        <time>2026-08-22T15:14:35Z</time>
      </trkpt>
      <trkpt lat="47.56549" lon="-2.72445">
        <ele>5</ele>
        <time>2026-08-22T15:14:36Z</time>
      </trkpt>
      <trkpt lat="47.56552" lon="-2.72449">
        <ele>5</ele>
        <time>2026-08-22T15:14:37Z</time>
      </trkpt>
      <trkpt lat="47.56554" lon="-2.72452">
        <ele>5</ele>
        <time>2026-08-22T15:14:38Z</time>
      </trkpt>
      <trkpt lat="47.56557" lon="-2.72454">
        <ele>5</ele>
        <time>2026-08-22T15:14:39Z</time>
      </trkpt>
      <trkpt lat="47.5656" lon="-2.72454">
        <ele>5</ele>
        <time>2026-08-22T15:14:40Z</time>
      </trkpt>
      <trkpt lat="47.56563" lon="-2.72452">
        <ele>5</ele>
        <time>2026-08-22T15:14:41Z</time>
      </trkpt>
      <trkpt lat="47.56565" lon="-2.7245">
        <ele>5</ele>
        <time>2026-08-22T15:14:42Z</time>
      </trkpt>
      <trkpt lat="47.56567" lon="-2.72446">
        <ele>5</ele>
        <time>2026-08-22T15:14:43Z</time>
      </trkpt>
      <trkpt lat="47.56567" lon="-2.72443">
        <ele>5</ele>
        <time>2026-08-22T15:14:44Z</time>
      </trkpt>
      <trkpt lat="47.56566" lon="-2.7244">
        <ele>4.9</ele>
        <time>2026-08-22T15:14:45Z</time>
      </trkpt>
      <trkpt lat="47.56566" lon="-2.72437">
        <ele>4.9</ele>
        <time>2026-08-22T15:14:46Z</time>
      </trkpt>
      <trkpt lat="47.56565" lon="-2.72434">
        <ele>4.9</ele>
        <time>2026-08-22T15:14:47Z</time>
      </trkpt>
      <trkpt lat="47.56564" lon="-2.72432">
        <ele>4.9</ele>
        <time>2026-08-22T15:14:48Z</time>
      </trkpt>
      <trkpt lat="47.56562" lon="-2.7243">
        <ele>4.9</ele>
        <time>2026-08-22T15:14:49Z</time>
      </trkpt>
      <trkpt lat="47.56562" lon="-2.7243">
        <ele>4.9</ele>
        <time>2026-08-22T15:14:50Z</time>
      </trkpt>
      <trkpt lat="47.56562" lon="-2.7243">
        <ele>4.9</ele>
        <time>2026-08-22T15:14:51Z</time>
      </trkpt>
      <trkpt lat="47.56562" lon="-2.7243">
        <ele>4.9</ele>
        <time>2026-08-22T15:14:52Z</time>
      </trkpt>
    </trkseg>
  </trk>
</gpx>